<?xml version='1.0' encoding='UTF-8'?><gpx version="1.1" creator="JPX - https://github.com/jenetics/jpx" xmlns="http://www.topografix.com/GPX/1/1"><trk><trkseg><trkpt lat="45.5149188" lon="9.3030013"><ele>125.0</ele><time>2026-04-11T09:20:06.374Z</time></trkpt><trkpt lat="45.5150115" lon="9.3030212"><ele>125.0</ele><time>2026-04-11T09:27:28.389Z</time></trkpt><trkpt lat="45.5150791" lon="9.3030181"><ele>125.0</ele><time>2026-04-11T09:27:29.406Z</time></trkpt><trkpt lat="45.5151993" lon="9.3029955"><ele>125.0</ele><time>2026-04-11T09:27:31.386Z</time></trkpt><trkpt lat="45.5152622" lon="9.302976"><ele>125.0</ele><time>2026-04-11T09:27:32.404Z</time></trkpt><trkpt lat="45.5153625" lon="9.3029364"><ele>125.4</ele><time>2026-04-11T09:27:34.398Z</time></trkpt><trkpt lat="45.5154333" lon="9.3028278"><ele>125.8</ele><time>2026-04-11T09:27:36.405Z</time></trkpt><trkpt lat="45.5154411" lon="9.3026554"><ele>126.19999999999999</ele><time>2026-04-11T09:27:38.408Z</time></trkpt><trkpt lat="45.5154342" lon="9.3025557"><ele>126.6</ele><time>2026-04-11T09:27:39.411Z</time></trkpt><trkpt lat="45.5154266" lon="9.3024649"><ele>127.0</ele><time>2026-04-11T09:27:40.399Z</time></trkpt><trkpt lat="45.5154129" lon="9.3023025"><ele>127.19999999999999</ele><time>2026-04-11T09:27:42.401Z</time></trkpt><trkpt lat="45.5154052" lon="9.3021664"><ele>127.39999999999999</ele><time>2026-04-11T09:27:44.388Z</time></trkpt><trkpt lat="45.5154031" lon="9.3020686"><ele>127.60000000000001</ele><time>2026-04-11T09:27:46.384Z</time></trkpt><trkpt lat="45.5154667" lon="9.3019803"><ele>127.80000000000001</ele><time>2026-04-11T09:27:49.414Z</time></trkpt><trkpt lat="45.5155973" lon="9.3019368"><ele>128.0</ele><time>2026-04-11T09:27:51.404Z</time></trkpt><trkpt lat="45.5156772" lon="9.3019255"><ele>128.0</ele><time>2026-04-11T09:27:52.385Z</time></trkpt><trkpt lat="45.515778" lon="9.3019169"><ele>128.0</ele><time>2026-04-11T09:27:53.403Z</time></trkpt><trkpt lat="45.5158736" lon="9.3019067"><ele>128.0</ele><time>2026-04-11T09:27:54.413Z</time></trkpt><trkpt lat="45.5159741" lon="9.3018929"><ele>128.0</ele><time>2026-04-11T09:27:55.418Z</time></trkpt><trkpt lat="45.5160764" lon="9.3018776"><ele>128.0</ele><time>2026-04-11T09:27:56.4Z</time></trkpt><trkpt lat="45.5161685" lon="9.3018617"><ele>128.0</ele><time>2026-04-11T09:27:57.376Z</time></trkpt><trkpt lat="45.5162627" lon="9.3018392"><ele>128.0</ele><time>2026-04-11T09:27:58.412Z</time></trkpt><trkpt lat="45.5163631" lon="9.3018288"><ele>128.0</ele><time>2026-04-11T09:27:59.399Z</time></trkpt><trkpt lat="45.5164652" lon="9.3018142"><ele>128.0</ele><time>2026-04-11T09:28:00.413Z</time></trkpt><trkpt lat="45.5165736" lon="9.3017985"><ele>128.0</ele><time>2026-04-11T09:28:01.405Z</time></trkpt><trkpt lat="45.5166818" lon="9.3017851"><ele>128.0</ele><time>2026-04-11T09:28:02.377Z</time></trkpt><trkpt lat="45.5167912" lon="9.3017632"><ele>128.0</ele><time>2026-04-11T09:28:03.385Z</time></trkpt><trkpt lat="45.5169113" lon="9.3017455"><ele>128.0</ele><time>2026-04-11T09:28:04.417Z</time></trkpt><trkpt lat="45.5170452" lon="9.3017215"><ele>128.0</ele><time>2026-04-11T09:28:05.4Z</time></trkpt><trkpt lat="45.5171659" lon="9.3017058"><ele>127.80000000000001</ele><time>2026-04-11T09:28:06.402Z</time></trkpt><trkpt lat="45.5172812" lon="9.3016905"><ele>127.60000000000001</ele><time>2026-04-11T09:28:07.405Z</time></trkpt><trkpt lat="45.5173771" lon="9.3016748"><ele>127.39999999999999</ele><time>2026-04-11T09:28:08.419Z</time></trkpt><trkpt lat="45.517467" lon="9.3016479"><ele>127.19999999999999</ele><time>2026-04-11T09:28:09.414Z</time></trkpt><trkpt lat="45.517535" lon="9.3015813"><ele>127.0</ele><time>2026-04-11T09:28:10.409Z</time></trkpt><trkpt lat="45.5175855" lon="9.3015013"><ele>127.0</ele><time>2026-04-11T09:28:11.386Z</time></trkpt><trkpt lat="45.5175962" lon="9.301384"><ele>126.99999999999999</ele><time>2026-04-11T09:28:12.378Z</time></trkpt><trkpt lat="45.5175901" lon="9.3012527"><ele>126.99999999999999</ele><time>2026-04-11T09:28:13.386Z</time></trkpt><trkpt lat="45.5175714" lon="9.3010938"><ele>127.0</ele><time>2026-04-11T09:28:14.378Z</time></trkpt><trkpt lat="45.5175487" lon="9.3009199"><ele>127.0</ele><time>2026-04-11T09:28:15.376Z</time></trkpt><trkpt lat="45.5175266" lon="9.300746"><ele>127.0</ele><time>2026-04-11T09:28:16.376Z</time></trkpt><trkpt lat="45.517505" lon="9.3005861"><ele>126.99999999999999</ele><time>2026-04-11T09:28:17.38Z</time></trkpt><trkpt lat="45.5174824" lon="9.3004396"><ele>126.99999999999999</ele><time>2026-04-11T09:28:18.408Z</time></trkpt><trkpt lat="45.5174591" lon="9.3003043"><ele>127.0</ele><time>2026-04-11T09:28:19.402Z</time></trkpt><trkpt lat="45.5174383" lon="9.3001796"><ele>127.0</ele><time>2026-04-11T09:28:20.385Z</time></trkpt><trkpt lat="45.5174181" lon="9.3000694"><ele>127.0</ele><time>2026-04-11T09:28:21.413Z</time></trkpt><trkpt lat="45.5173982" lon="9.2999624"><ele>126.99999999999999</ele><time>2026-04-11T09:28:22.403Z</time></trkpt><trkpt lat="45.5173796" lon="9.2998676"><ele>126.99999999999999</ele><time>2026-04-11T09:28:23.412Z</time></trkpt><trkpt lat="45.5173554" lon="9.2996972"><ele>127.0</ele><time>2026-04-11T09:28:25.375Z</time></trkpt><trkpt lat="45.5173328" lon="9.2995536"><ele>127.0</ele><time>2026-04-11T09:28:27.41Z</time></trkpt><trkpt lat="45.5173019" lon="9.2993614"><ele>127.00000000000001</ele><time>2026-04-11T09:28:29.405Z</time></trkpt><trkpt lat="45.5172816" lon="9.2992339"><ele>127.0</ele><time>2026-04-11T09:28:30.403Z</time></trkpt><trkpt lat="45.5172631" lon="9.2991099"><ele>127.0</ele><time>2026-04-11T09:28:31.376Z</time></trkpt><trkpt lat="45.5172482" lon="9.2989885"><ele>127.0</ele><time>2026-04-11T09:28:32.417Z</time></trkpt><trkpt lat="45.5172398" lon="9.2988861"><ele>127.00000000000001</ele><time>2026-04-11T09:28:33.419Z</time></trkpt><trkpt lat="45.5172445" lon="9.2987758"><ele>127.0</ele><time>2026-04-11T09:28:34.419Z</time></trkpt><trkpt lat="45.5172602" lon="9.298661"><ele>127.39999999999999</ele><time>2026-04-11T09:28:35.402Z</time></trkpt><trkpt lat="45.517268" lon="9.2985388"><ele>127.79999999999998</ele><time>2026-04-11T09:28:36.383Z</time></trkpt><trkpt lat="45.5172686" lon="9.2984213"><ele>128.2</ele><time>2026-04-11T09:28:37.385Z</time></trkpt><trkpt lat="45.5172469" lon="9.2983332"><ele>128.6</ele><time>2026-04-11T09:28:38.401Z</time></trkpt><trkpt lat="45.5171636" lon="9.2982124"><ele>129.0</ele><time>2026-04-11T09:28:40.376Z</time></trkpt><trkpt lat="45.5170301" lon="9.298229"><ele>129.0</ele><time>2026-04-11T09:28:42.377Z</time></trkpt><trkpt lat="45.5169393" lon="9.2982752"><ele>129.0</ele><time>2026-04-11T09:28:43.405Z</time></trkpt><trkpt lat="45.5168339" lon="9.2983297"><ele>129.0</ele><time>2026-04-11T09:28:44.404Z</time></trkpt><trkpt lat="45.5167235" lon="9.2983845"><ele>129.0</ele><time>2026-04-11T09:28:45.405Z</time></trkpt><trkpt lat="45.5166115" lon="9.2984357"><ele>129.0</ele><time>2026-04-11T09:28:46.405Z</time></trkpt><trkpt lat="45.5165097" lon="9.2984831"><ele>129.0</ele><time>2026-04-11T09:28:47.403Z</time></trkpt><trkpt lat="45.5164154" lon="9.2985292"><ele>129.0</ele><time>2026-04-11T09:28:48.409Z</time></trkpt><trkpt lat="45.5163309" lon="9.2985614"><ele>129.0</ele><time>2026-04-11T09:28:49.409Z</time></trkpt><trkpt lat="45.516249" lon="9.2985722"><ele>129.0</ele><time>2026-04-11T09:28:50.406Z</time></trkpt><trkpt lat="45.5161655" lon="9.2985539"><ele>129.0</ele><time>2026-04-11T09:28:51.401Z</time></trkpt><trkpt lat="45.5160909" lon="9.2985027"><ele>129.0</ele><time>2026-04-11T09:28:52.402Z</time></trkpt><trkpt lat="45.5160255" lon="9.2984586"><ele>129.0</ele><time>2026-04-11T09:28:53.418Z</time></trkpt><trkpt lat="45.515958" lon="9.2984313"><ele>129.0</ele><time>2026-04-11T09:28:54.404Z</time></trkpt><trkpt lat="45.5158892" lon="9.2984496"><ele>129.0</ele><time>2026-04-11T09:28:55.399Z</time></trkpt><trkpt lat="45.5158379" lon="9.2985027"><ele>129.0</ele><time>2026-04-11T09:28:56.407Z</time></trkpt><trkpt lat="45.5158455" lon="9.2986696"><ele>129.0</ele><time>2026-04-11T09:28:58.402Z</time></trkpt><trkpt lat="45.5159596" lon="9.2987365"><ele>129.0</ele><time>2026-04-11T09:29:00.407Z</time></trkpt><trkpt lat="45.5160383" lon="9.2987397"><ele>129.0</ele><time>2026-04-11T09:29:01.386Z</time></trkpt><trkpt lat="45.5161244" lon="9.2987357"><ele>129.0</ele><time>2026-04-11T09:29:02.401Z</time></trkpt><trkpt lat="45.5162168" lon="9.2987248"><ele>129.0</ele><time>2026-04-11T09:29:03.418Z</time></trkpt><trkpt lat="45.5163176" lon="9.2987103"><ele>129.0</ele><time>2026-04-11T09:29:04.409Z</time></trkpt><trkpt lat="45.5164212" lon="9.2986829"><ele>129.0</ele><time>2026-04-11T09:29:05.402Z</time></trkpt><trkpt lat="45.5165321" lon="9.2986589"><ele>129.0</ele><time>2026-04-11T09:29:06.407Z</time></trkpt><trkpt lat="45.5166442" lon="9.2986348"><ele>129.0</ele><time>2026-04-11T09:29:07.404Z</time></trkpt><trkpt lat="45.5167535" lon="9.298599"><ele>129.0</ele><time>2026-04-11T09:29:08.405Z</time></trkpt><trkpt lat="45.516861" lon="9.298563"><ele>129.0</ele><time>2026-04-11T09:29:09.417Z</time></trkpt><trkpt lat="45.5169634" lon="9.298529"><ele>129.0</ele><time>2026-04-11T09:29:10.401Z</time></trkpt><trkpt lat="45.5170635" lon="9.2984932"><ele>129.25</ele><time>2026-04-11T09:29:11.381Z</time></trkpt><trkpt lat="45.517169" lon="9.2984588"><ele>129.5</ele><time>2026-04-11T09:29:12.406Z</time></trkpt><trkpt lat="45.5172848" lon="9.2984184"><ele>129.75</ele><time>2026-04-11T09:29:13.404Z</time></trkpt><trkpt lat="45.5174129" lon="9.2983753"><ele>130.0</ele><time>2026-04-11T09:29:14.404Z</time></trkpt><trkpt lat="45.5175577" lon="9.2983228"><ele>130.0</ele><time>2026-04-11T09:29:15.404Z</time></trkpt><trkpt lat="45.5177129" lon="9.2982665"><ele>130.0</ele><time>2026-04-11T09:29:16.406Z</time></trkpt><trkpt lat="45.5178773" lon="9.2982079"><ele>130.0</ele><time>2026-04-11T09:29:17.419Z</time></trkpt><trkpt lat="45.5180431" lon="9.2981533"><ele>130.0</ele><time>2026-04-11T09:29:18.399Z</time></trkpt><trkpt lat="45.5182086" lon="9.2980969"><ele>130.0</ele><time>2026-04-11T09:29:19.416Z</time></trkpt><trkpt lat="45.518364" lon="9.2980482"><ele>130.0</ele><time>2026-04-11T09:29:20.378Z</time></trkpt><trkpt lat="45.5185108" lon="9.2980011"><ele>130.0</ele><time>2026-04-11T09:29:21.472Z</time></trkpt><trkpt lat="45.518654" lon="9.2979514"><ele>130.0</ele><time>2026-04-11T09:29:22.407Z</time></trkpt><trkpt lat="45.5187782" lon="9.2979047"><ele>130.0</ele><time>2026-04-11T09:29:23.42Z</time></trkpt><trkpt lat="45.5189033" lon="9.2978618"><ele>130.0</ele><time>2026-04-11T09:29:24.405Z</time></trkpt><trkpt lat="45.5190172" lon="9.2978216"><ele>130.0</ele><time>2026-04-11T09:29:25.406Z</time></trkpt><trkpt lat="45.5191252" lon="9.2977864"><ele>130.0</ele><time>2026-04-11T09:29:26.383Z</time></trkpt><trkpt lat="45.5192287" lon="9.2977486"><ele>130.0</ele><time>2026-04-11T09:29:27.406Z</time></trkpt><trkpt lat="45.5193306" lon="9.2977161"><ele>130.0</ele><time>2026-04-11T09:29:28.409Z</time></trkpt><trkpt lat="45.5194263" lon="9.2976829"><ele>130.0</ele><time>2026-04-11T09:29:29.403Z</time></trkpt><trkpt lat="45.5195204" lon="9.2976498"><ele>130.0</ele><time>2026-04-11T09:29:30.375Z</time></trkpt><trkpt lat="45.5196086" lon="9.29762"><ele>130.0</ele><time>2026-04-11T09:29:31.4Z</time></trkpt><trkpt lat="45.5196975" lon="9.2975829"><ele>130.0</ele><time>2026-04-11T09:29:32.415Z</time></trkpt><trkpt lat="45.5197915" lon="9.2975344"><ele>130.0</ele><time>2026-04-11T09:29:33.408Z</time></trkpt><trkpt lat="45.5198953" lon="9.2974869"><ele>130.0</ele><time>2026-04-11T09:29:34.401Z</time></trkpt><trkpt lat="45.5200105" lon="9.297439"><ele>130.0</ele><time>2026-04-11T09:29:35.379Z</time></trkpt><trkpt lat="45.5201296" lon="9.2973787"><ele>130.0</ele><time>2026-04-11T09:29:36.397Z</time></trkpt><trkpt lat="45.5202495" lon="9.2973127"><ele>130.0</ele><time>2026-04-11T09:29:37.401Z</time></trkpt><trkpt lat="45.5203746" lon="9.2972052"><ele>130.0</ele><time>2026-04-11T09:29:38.379Z</time></trkpt><trkpt lat="45.5204911" lon="9.2970897"><ele>129.75</ele><time>2026-04-11T09:29:39.38Z</time></trkpt><trkpt lat="45.520597" lon="9.2969429"><ele>129.5</ele><time>2026-04-11T09:29:40.415Z</time></trkpt><trkpt lat="45.520691" lon="9.2967875"><ele>129.25</ele><time>2026-04-11T09:29:41.38Z</time></trkpt><trkpt lat="45.520761" lon="9.2966262"><ele>129.0</ele><time>2026-04-11T09:29:42.402Z</time></trkpt><trkpt lat="45.5208216" lon="9.2964627"><ele>129.25</ele><time>2026-04-11T09:29:43.399Z</time></trkpt><trkpt lat="45.5208767" lon="9.2962969"><ele>129.5</ele><time>2026-04-11T09:29:44.403Z</time></trkpt><trkpt lat="45.5209304" lon="9.2961349"><ele>129.75</ele><time>2026-04-11T09:29:45.407Z</time></trkpt><trkpt lat="45.5209791" lon="9.295985"><ele>130.0</ele><time>2026-04-11T09:29:46.411Z</time></trkpt><trkpt lat="45.5210235" lon="9.295846"><ele>130.0</ele><time>2026-04-11T09:29:47.402Z</time></trkpt><trkpt lat="45.5210712" lon="9.295713"><ele>130.0</ele><time>2026-04-11T09:29:48.4Z</time></trkpt><trkpt lat="45.5211304" lon="9.2955803"><ele>130.0</ele><time>2026-04-11T09:29:49.405Z</time></trkpt><trkpt lat="45.5212285" lon="9.2954541"><ele>130.0</ele><time>2026-04-11T09:29:50.38Z</time></trkpt><trkpt lat="45.521338" lon="9.2953308"><ele>130.0</ele><time>2026-04-11T09:29:51.402Z</time></trkpt><trkpt lat="45.5214311" lon="9.2951815"><ele>130.0</ele><time>2026-04-11T09:29:52.378Z</time></trkpt><trkpt lat="45.5215371" lon="9.2950312"><ele>130.0</ele><time>2026-04-11T09:29:53.401Z</time></trkpt><trkpt lat="45.5216616" lon="9.2949124"><ele>130.0</ele><time>2026-04-11T09:29:54.372Z</time></trkpt><trkpt lat="45.5218148" lon="9.2948252"><ele>129.66666666666669</ele><time>2026-04-11T09:29:55.402Z</time></trkpt><trkpt lat="45.5219748" lon="9.294751"><ele>129.33333333333334</ele><time>2026-04-11T09:29:56.405Z</time></trkpt><trkpt lat="45.5221217" lon="9.2946831"><ele>129.0</ele><time>2026-04-11T09:29:57.4Z</time></trkpt><trkpt lat="45.5222737" lon="9.2946136"><ele>131.0</ele><time>2026-04-11T09:29:58.374Z</time></trkpt><trkpt lat="45.5224303" lon="9.2945431"><ele>133.0</ele><time>2026-04-11T09:29:59.396Z</time></trkpt><trkpt lat="45.522584" lon="9.2944705"><ele>135.0</ele><time>2026-04-11T09:30:00.376Z</time></trkpt><trkpt lat="45.5227407" lon="9.2943992"><ele>133.33333333333334</ele><time>2026-04-11T09:30:01.377Z</time></trkpt><trkpt lat="45.5228976" lon="9.2943248"><ele>131.66666666666669</ele><time>2026-04-11T09:30:02.375Z</time></trkpt><trkpt lat="45.52306" lon="9.2942467"><ele>130.0</ele><time>2026-04-11T09:30:03.39Z</time></trkpt><trkpt lat="45.5232124" lon="9.2941726"><ele>130.0</ele><time>2026-04-11T09:30:04.412Z</time></trkpt><trkpt lat="45.523363" lon="9.2941064"><ele>130.0</ele><time>2026-04-11T09:30:05.372Z</time></trkpt><trkpt lat="45.5235139" lon="9.2940397"><ele>130.0</ele><time>2026-04-11T09:30:06.405Z</time></trkpt><trkpt lat="45.5236634" lon="9.2939736"><ele>130.66666666666669</ele><time>2026-04-11T09:30:07.399Z</time></trkpt><trkpt lat="45.5238182" lon="9.2939056"><ele>131.33333333333334</ele><time>2026-04-11T09:30:08.406Z</time></trkpt><trkpt lat="45.5239769" lon="9.2938541"><ele>132.0</ele><time>2026-04-11T09:30:09.376Z</time></trkpt><trkpt lat="45.5241416" lon="9.2938149"><ele>132.0</ele><time>2026-04-11T09:30:10.4Z</time></trkpt><trkpt lat="45.5243055" lon="9.2937926"><ele>132.0</ele><time>2026-04-11T09:30:11.402Z</time></trkpt><trkpt lat="45.5244713" lon="9.2937808"><ele>132.0</ele><time>2026-04-11T09:30:12.377Z</time></trkpt><trkpt lat="45.5246328" lon="9.2937828"><ele>132.0</ele><time>2026-04-11T09:30:13.402Z</time></trkpt><trkpt lat="45.5247925" lon="9.2937904"><ele>132.0</ele><time>2026-04-11T09:30:14.376Z</time></trkpt><trkpt lat="45.5249416" lon="9.293797"><ele>132.0</ele><time>2026-04-11T09:30:15.402Z</time></trkpt><trkpt lat="45.525084" lon="9.2938029"><ele>132.0</ele><time>2026-04-11T09:30:16.401Z</time></trkpt><trkpt lat="45.5252174" lon="9.2938162"><ele>132.0</ele><time>2026-04-11T09:30:17.404Z</time></trkpt><trkpt lat="45.5253371" lon="9.2938333"><ele>132.0</ele><time>2026-04-11T09:30:18.377Z</time></trkpt><trkpt lat="45.525445" lon="9.2938663"><ele>132.0</ele><time>2026-04-11T09:30:19.399Z</time></trkpt><trkpt lat="45.5255379" lon="9.293919"><ele>131.6</ele><time>2026-04-11T09:30:20.38Z</time></trkpt><trkpt lat="45.5256168" lon="9.2939865"><ele>131.2</ele><time>2026-04-11T09:30:21.397Z</time></trkpt><trkpt lat="45.5256825" lon="9.2940634"><ele>130.8</ele><time>2026-04-11T09:30:22.401Z</time></trkpt><trkpt lat="45.5257396" lon="9.2941617"><ele>130.4</ele><time>2026-04-11T09:30:23.403Z</time></trkpt><trkpt lat="45.525804" lon="9.294304"><ele>130.0</ele><time>2026-04-11T09:30:24.401Z</time></trkpt><trkpt lat="45.5258639" lon="9.2944332"><ele>130.0</ele><time>2026-04-11T09:30:25.402Z</time></trkpt><trkpt lat="45.5259342" lon="9.2945183"><ele>130.0</ele><time>2026-04-11T09:30:26.404Z</time></trkpt><trkpt lat="45.526015" lon="9.2945558"><ele>130.0</ele><time>2026-04-11T09:30:27.397Z</time></trkpt><trkpt lat="45.5260954" lon="9.2945468"><ele>130.0</ele><time>2026-04-11T09:30:28.379Z</time></trkpt><trkpt lat="45.5261605" lon="9.2944792"><ele>130.0</ele><time>2026-04-11T09:30:29.406Z</time></trkpt><trkpt lat="45.5262031" lon="9.2943705"><ele>130.0</ele><time>2026-04-11T09:30:30.402Z</time></trkpt><trkpt lat="45.5262109" lon="9.2942458"><ele>130.0</ele><time>2026-04-11T09:30:31.404Z</time></trkpt><trkpt lat="45.5261833" lon="9.2941114"><ele>130.0</ele><time>2026-04-11T09:30:32.402Z</time></trkpt><trkpt lat="45.5261411" lon="9.2939871"><ele>130.0</ele><time>2026-04-11T09:30:33.405Z</time></trkpt><trkpt lat="45.5261026" lon="9.2938718"><ele>130.0</ele><time>2026-04-11T09:30:34.407Z</time></trkpt><trkpt lat="45.5260687" lon="9.2937537"><ele>130.0</ele><time>2026-04-11T09:30:35.407Z</time></trkpt><trkpt lat="45.5260465" lon="9.293642"><ele>130.33333333333334</ele><time>2026-04-11T09:30:36.403Z</time></trkpt><trkpt lat="45.5260291" lon="9.2935206"><ele>130.66666666666669</ele><time>2026-04-11T09:30:37.412Z</time></trkpt><trkpt lat="45.5260244" lon="9.2933886"><ele>131.0</ele><time>2026-04-11T09:30:38.411Z</time></trkpt><trkpt lat="45.5260271" lon="9.2932605"><ele>131.33333333333334</ele><time>2026-04-11T09:30:39.401Z</time></trkpt><trkpt lat="45.5260261" lon="9.2931519"><ele>131.66666666666666</ele><time>2026-04-11T09:30:40.409Z</time></trkpt><trkpt lat="45.5260242" lon="9.2930426"><ele>132.0</ele><time>2026-04-11T09:30:41.402Z</time></trkpt><trkpt lat="45.5260293" lon="9.2928984"><ele>132.0</ele><time>2026-04-11T09:30:42.406Z</time></trkpt><trkpt lat="45.5260397" lon="9.2927274"><ele>132.0</ele><time>2026-04-11T09:30:43.407Z</time></trkpt><trkpt lat="45.5260474" lon="9.2925069"><ele>132.0</ele><time>2026-04-11T09:30:44.382Z</time></trkpt><trkpt lat="45.5260476" lon="9.2922754"><ele>132.0</ele><time>2026-04-11T09:30:45.399Z</time></trkpt><trkpt lat="45.5260402" lon="9.2920201"><ele>132.66666666666666</ele><time>2026-04-11T09:30:46.398Z</time></trkpt><trkpt lat="45.5260253" lon="9.2917894"><ele>133.33333333333331</ele><time>2026-04-11T09:30:47.401Z</time></trkpt><trkpt lat="45.5260095" lon="9.2915702"><ele>134.0</ele><time>2026-04-11T09:30:48.382Z</time></trkpt><trkpt lat="45.5259888" lon="9.2913726"><ele>134.0</ele><time>2026-04-11T09:30:49.379Z</time></trkpt><trkpt lat="45.5259749" lon="9.2911908"><ele>134.0</ele><time>2026-04-11T09:30:50.404Z</time></trkpt><trkpt lat="45.525962" lon="9.2910201"><ele>134.0</ele><time>2026-04-11T09:30:51.506Z</time></trkpt><trkpt lat="45.5259335" lon="9.2907116"><ele>134.0</ele><time>2026-04-11T09:30:53.417Z</time></trkpt><trkpt lat="45.5259209" lon="9.2905745"><ele>134.0</ele><time>2026-04-11T09:30:54.385Z</time></trkpt><trkpt lat="45.5259147" lon="9.2904573"><ele>134.0</ele><time>2026-04-11T09:30:55.399Z</time></trkpt><trkpt lat="45.5259094" lon="9.2903633"><ele>134.0</ele><time>2026-04-11T09:30:56.381Z</time></trkpt><trkpt lat="45.5258924" lon="9.2902479"><ele>134.0</ele><time>2026-04-11T09:30:57.402Z</time></trkpt><trkpt lat="45.5258928" lon="9.2901108"><ele>134.0</ele><time>2026-04-11T09:30:58.407Z</time></trkpt><trkpt lat="45.5258792" lon="9.2899412"><ele>134.0</ele><time>2026-04-11T09:30:59.408Z</time></trkpt><trkpt lat="45.525872" lon="9.2897922"><ele>134.0</ele><time>2026-04-11T09:31:00.407Z</time></trkpt><trkpt lat="45.5258644" lon="9.2896426"><ele>134.0</ele><time>2026-04-11T09:31:01.412Z</time></trkpt><trkpt lat="45.5258623" lon="9.2895324"><ele>134.0</ele><time>2026-04-11T09:31:02.406Z</time></trkpt><trkpt lat="45.5258598" lon="9.2894167"><ele>134.0</ele><time>2026-04-11T09:31:03.406Z</time></trkpt><trkpt lat="45.5258549" lon="9.2893004"><ele>134.33333333333331</ele><time>2026-04-11T09:31:04.378Z</time></trkpt><trkpt lat="45.5258522" lon="9.2891856"><ele>134.66666666666666</ele><time>2026-04-11T09:31:05.378Z</time></trkpt><trkpt lat="45.5258415" lon="9.2890764"><ele>135.0</ele><time>2026-04-11T09:31:06.401Z</time></trkpt><trkpt lat="45.5258378" lon="9.2889683"><ele>135.33333333333334</ele><time>2026-04-11T09:31:07.408Z</time></trkpt><trkpt lat="45.5258332" lon="9.2888677"><ele>135.66666666666669</ele><time>2026-04-11T09:31:08.385Z</time></trkpt><trkpt lat="45.5258243" lon="9.2887744"><ele>136.0</ele><time>2026-04-11T09:31:09.404Z</time></trkpt><trkpt lat="45.5258111" lon="9.2886211"><ele>136.2</ele><time>2026-04-11T09:31:11.399Z</time></trkpt><trkpt lat="45.5258073" lon="9.2885007"><ele>136.39999999999998</ele><time>2026-04-11T09:31:13.407Z</time></trkpt><trkpt lat="45.5258019" lon="9.2883973"><ele>136.6</ele><time>2026-04-11T09:31:15.409Z</time></trkpt><trkpt lat="45.5257948" lon="9.2882996"><ele>136.79999999999998</ele><time>2026-04-11T09:31:17.409Z</time></trkpt><trkpt lat="45.5257713" lon="9.2880981"><ele>137.0</ele><time>2026-04-11T09:31:54.385Z</time></trkpt><trkpt lat="45.5257601" lon="9.2879746"><ele>136.5</ele><time>2026-04-11T09:31:55.378Z</time></trkpt><trkpt lat="45.5257471" lon="9.2878297"><ele>136.0</ele><time>2026-04-11T09:31:56.384Z</time></trkpt><trkpt lat="45.525731" lon="9.2876628"><ele>135.5</ele><time>2026-04-11T09:31:57.408Z</time></trkpt><trkpt lat="45.5257205" lon="9.2874867"><ele>135.0</ele><time>2026-04-11T09:31:58.381Z</time></trkpt><trkpt lat="45.5257009" lon="9.2872861"><ele>135.0</ele><time>2026-04-11T09:31:59.403Z</time></trkpt><trkpt lat="45.525689" lon="9.2870878"><ele>135.0</ele><time>2026-04-11T09:32:00.408Z</time></trkpt><trkpt lat="45.5256781" lon="9.2868915"><ele>135.0</ele><time>2026-04-11T09:32:01.404Z</time></trkpt><trkpt lat="45.5256595" lon="9.2866892"><ele>135.0</ele><time>2026-04-11T09:32:02.408Z</time></trkpt><trkpt lat="45.5256457" lon="9.2864808"><ele>134.33333333333334</ele><time>2026-04-11T09:32:03.409Z</time></trkpt><trkpt lat="45.5256384" lon="9.2862576"><ele>133.66666666666669</ele><time>2026-04-11T09:32:04.38Z</time></trkpt><trkpt lat="45.525625" lon="9.2860445"><ele>133.0</ele><time>2026-04-11T09:32:05.405Z</time></trkpt><trkpt lat="45.5256264" lon="9.2858162"><ele>132.66666666666669</ele><time>2026-04-11T09:32:06.385Z</time></trkpt><trkpt lat="45.5256186" lon="9.285586"><ele>132.33333333333334</ele><time>2026-04-11T09:32:07.41Z</time></trkpt><trkpt lat="45.5256203" lon="9.2853671"><ele>132.0</ele><time>2026-04-11T09:32:08.379Z</time></trkpt><trkpt lat="45.525619" lon="9.2851566"><ele>132.0</ele><time>2026-04-11T09:32:09.409Z</time></trkpt><trkpt lat="45.5256161" lon="9.2849591"><ele>132.0</ele><time>2026-04-11T09:32:10.388Z</time></trkpt><trkpt lat="45.5256193" lon="9.2847688"><ele>132.0</ele><time>2026-04-11T09:32:11.408Z</time></trkpt><trkpt lat="45.5256137" lon="9.2845933"><ele>132.0</ele><time>2026-04-11T09:32:12.388Z</time></trkpt><trkpt lat="45.5256134" lon="9.284437"><ele>132.33333333333334</ele><time>2026-04-11T09:32:13.417Z</time></trkpt><trkpt lat="45.5256193" lon="9.2842978"><ele>132.66666666666666</ele><time>2026-04-11T09:32:14.388Z</time></trkpt><trkpt lat="45.5256178" lon="9.2841565"><ele>133.0</ele><time>2026-04-11T09:32:15.406Z</time></trkpt><trkpt lat="45.5256186" lon="9.284034"><ele>133.33333333333331</ele><time>2026-04-11T09:32:16.384Z</time></trkpt><trkpt lat="45.5256333" lon="9.2839199"><ele>133.66666666666666</ele><time>2026-04-11T09:32:17.401Z</time></trkpt><trkpt lat="45.525654" lon="9.2838117"><ele>134.0</ele><time>2026-04-11T09:32:18.38Z</time></trkpt><trkpt lat="45.525685" lon="9.2837166"><ele>134.85714285714286</ele><time>2026-04-11T09:32:19.407Z</time></trkpt><trkpt lat="45.5257142" lon="9.2836261"><ele>135.71428571428572</ele><time>2026-04-11T09:32:20.378Z</time></trkpt><trkpt lat="45.5257227" lon="9.2835329"><ele>136.57142857142856</ele><time>2026-04-11T09:32:21.386Z</time></trkpt><trkpt lat="45.5256963" lon="9.2834321"><ele>137.42857142857144</ele><time>2026-04-11T09:32:22.403Z</time></trkpt><trkpt lat="45.5256598" lon="9.2833391"><ele>138.28571428571428</ele><time>2026-04-11T09:32:23.379Z</time></trkpt><trkpt lat="45.5256448" lon="9.2832512"><ele>139.14285714285714</ele><time>2026-04-11T09:32:24.402Z</time></trkpt><trkpt lat="45.5256484" lon="9.2831376"><ele>140.0</ele><time>2026-04-11T09:32:25.384Z</time></trkpt><trkpt lat="45.5256514" lon="9.283023"><ele>140.0</ele><time>2026-04-11T09:32:26.401Z</time></trkpt><trkpt lat="45.5256554" lon="9.2829247"><ele>140.0</ele><time>2026-04-11T09:32:27.383Z</time></trkpt><trkpt lat="45.5256568" lon="9.282827"><ele>140.0</ele><time>2026-04-11T09:32:28.393Z</time></trkpt><trkpt lat="45.5256636" lon="9.2826314"><ele>140.0</ele><time>2026-04-11T09:32:30.399Z</time></trkpt><trkpt lat="45.5256648" lon="9.2825404"><ele>140.0</ele><time>2026-04-11T09:32:31.376Z</time></trkpt><trkpt lat="45.52566" lon="9.2823893"><ele>140.0</ele><time>2026-04-11T09:32:33.377Z</time></trkpt><trkpt lat="45.5256705" lon="9.2822637"><ele>138.83333333333331</ele><time>2026-04-11T09:32:35.382Z</time></trkpt><trkpt lat="45.5257073" lon="9.2821259"><ele>137.66666666666666</ele><time>2026-04-11T09:32:37.396Z</time></trkpt><trkpt lat="45.5257454" lon="9.2820453"><ele>136.5</ele><time>2026-04-11T09:32:38.382Z</time></trkpt><trkpt lat="45.5258069" lon="9.2819895"><ele>135.33333333333334</ele><time>2026-04-11T09:32:39.381Z</time></trkpt><trkpt lat="45.525888" lon="9.281961"><ele>134.16666666666669</ele><time>2026-04-11T09:32:40.379Z</time></trkpt><trkpt lat="45.5259751" lon="9.2819432"><ele>133.0</ele><time>2026-04-11T09:32:41.381Z</time></trkpt><trkpt lat="45.5260548" lon="9.2819274"><ele>133.0</ele><time>2026-04-11T09:32:42.378Z</time></trkpt><trkpt lat="45.5261348" lon="9.2819136"><ele>133.0</ele><time>2026-04-11T09:32:43.406Z</time></trkpt><trkpt lat="45.5262144" lon="9.2818997"><ele>133.0</ele><time>2026-04-11T09:32:44.379Z</time></trkpt><trkpt lat="45.5262888" lon="9.2818862"><ele>133.0</ele><time>2026-04-11T09:32:45.397Z</time></trkpt><trkpt lat="45.526372" lon="9.2818783"><ele>133.0</ele><time>2026-04-11T09:32:46.373Z</time></trkpt><trkpt lat="45.5264556" lon="9.2818681"><ele>133.0</ele><time>2026-04-11T09:32:47.377Z</time></trkpt><trkpt lat="45.5265375" lon="9.2818488"><ele>133.0</ele><time>2026-04-11T09:32:48.384Z</time></trkpt><trkpt lat="45.5266153" lon="9.2818337"><ele>133.0</ele><time>2026-04-11T09:32:49.376Z</time></trkpt><trkpt lat="45.526718" lon="9.2818251"><ele>133.0</ele><time>2026-04-11T09:32:50.381Z</time></trkpt><trkpt lat="45.5268142" lon="9.2817959"><ele>133.0</ele><time>2026-04-11T09:32:51.374Z</time></trkpt><trkpt lat="45.526915" lon="9.2817718"><ele>133.0</ele><time>2026-04-11T09:32:52.397Z</time></trkpt><trkpt lat="45.5270072" lon="9.2817538"><ele>133.0</ele><time>2026-04-11T09:32:53.403Z</time></trkpt><trkpt lat="45.5271061" lon="9.2817305"><ele>133.0</ele><time>2026-04-11T09:32:54.384Z</time></trkpt><trkpt lat="45.5271973" lon="9.2817141"><ele>133.0</ele><time>2026-04-11T09:32:55.376Z</time></trkpt><trkpt lat="45.5272806" lon="9.2816937"><ele>133.0</ele><time>2026-04-11T09:32:56.381Z</time></trkpt><trkpt lat="45.5273592" lon="9.2816788"><ele>133.0</ele><time>2026-04-11T09:32:57.382Z</time></trkpt><trkpt lat="45.5274332" lon="9.2816619"><ele>133.0</ele><time>2026-04-11T09:32:58.383Z</time></trkpt><trkpt lat="45.5275113" lon="9.2816478"><ele>133.0</ele><time>2026-04-11T09:32:59.404Z</time></trkpt><trkpt lat="45.5275909" lon="9.2816332"><ele>133.0</ele><time>2026-04-11T09:33:00.401Z</time></trkpt><trkpt lat="45.5276692" lon="9.281617"><ele>133.0</ele><time>2026-04-11T09:33:01.381Z</time></trkpt><trkpt lat="45.5277427" lon="9.2815987"><ele>133.0</ele><time>2026-04-11T09:33:02.377Z</time></trkpt><trkpt lat="45.5278676" lon="9.2815846"><ele>133.0</ele><time>2026-04-11T09:33:04.403Z</time></trkpt><trkpt lat="45.5279644" lon="9.2815953"><ele>133.0</ele><time>2026-04-11T09:33:06.382Z</time></trkpt><trkpt lat="45.5280413" lon="9.2816398"><ele>133.0</ele><time>2026-04-11T09:33:09.377Z</time></trkpt><trkpt lat="45.528108" lon="9.2816913"><ele>133.0</ele><time>2026-04-11T09:33:11.402Z</time></trkpt><trkpt lat="45.528197" lon="9.2817113"><ele>133.0</ele><time>2026-04-11T09:33:13.46Z</time></trkpt><trkpt lat="45.5282741" lon="9.281605"><ele>133.0</ele><time>2026-04-11T09:33:15.378Z</time></trkpt><trkpt lat="45.5283171" lon="9.2814381"><ele>133.28571428571428</ele><time>2026-04-11T09:33:17.377Z</time></trkpt><trkpt lat="45.5283388" lon="9.2813385"><ele>133.57142857142856</ele><time>2026-04-11T09:33:18.402Z</time></trkpt><trkpt lat="45.5283592" lon="9.2812364"><ele>133.85714285714286</ele><time>2026-04-11T09:33:19.379Z</time></trkpt><trkpt lat="45.5283792" lon="9.2811344"><ele>134.14285714285714</ele><time>2026-04-11T09:33:20.381Z</time></trkpt><trkpt lat="45.5284003" lon="9.2810334"><ele>134.42857142857142</ele><time>2026-04-11T09:33:21.379Z</time></trkpt><trkpt lat="45.5284124" lon="9.2809347"><ele>134.71428571428572</ele><time>2026-04-11T09:33:22.384Z</time></trkpt><trkpt lat="45.5284282" lon="9.2808336"><ele>135.0</ele><time>2026-04-11T09:33:23.379Z</time></trkpt><trkpt lat="45.528443" lon="9.2807296"><ele>135.0</ele><time>2026-04-11T09:33:24.382Z</time></trkpt><trkpt lat="45.5284569" lon="9.2806306"><ele>135.0</ele><time>2026-04-11T09:33:25.376Z</time></trkpt><trkpt lat="45.5284738" lon="9.2805341"><ele>135.0</ele><time>2026-04-11T09:33:26.382Z</time></trkpt><trkpt lat="45.5284902" lon="9.2804294"><ele>135.0</ele><time>2026-04-11T09:33:27.372Z</time></trkpt><trkpt lat="45.5285081" lon="9.2803126"><ele>135.0</ele><time>2026-04-11T09:33:28.398Z</time></trkpt><trkpt lat="45.5285229" lon="9.2802006"><ele>135.0</ele><time>2026-04-11T09:33:29.409Z</time></trkpt><trkpt lat="45.5285402" lon="9.2800944"><ele>135.16666666666666</ele><time>2026-04-11T09:33:30.377Z</time></trkpt><trkpt lat="45.5285555" lon="9.2799954"><ele>135.33333333333334</ele><time>2026-04-11T09:33:31.377Z</time></trkpt><trkpt lat="45.5285647" lon="9.2798932"><ele>135.5</ele><time>2026-04-11T09:33:32.386Z</time></trkpt><trkpt lat="45.5285759" lon="9.2798009"><ele>135.66666666666669</ele><time>2026-04-11T09:33:33.408Z</time></trkpt><trkpt lat="45.5285926" lon="9.279628"><ele>135.83333333333334</ele><time>2026-04-11T09:33:35.404Z</time></trkpt><trkpt lat="45.5286003" lon="9.2795341"><ele>136.0</ele><time>2026-04-11T09:33:36.384Z</time></trkpt><trkpt lat="45.528629" lon="9.2793813"><ele>136.0</ele><time>2026-04-11T09:33:38.398Z</time></trkpt><trkpt lat="45.5286525" lon="9.2792634"><ele>136.0</ele><time>2026-04-11T09:33:40.385Z</time></trkpt><trkpt lat="45.5286955" lon="9.2791582"><ele>136.0</ele><time>2026-04-11T09:33:42.39Z</time></trkpt><trkpt lat="45.5287967" lon="9.2791047"><ele>136.0</ele><time>2026-04-11T09:33:44.387Z</time></trkpt><trkpt lat="45.5288832" lon="9.279147"><ele>136.0</ele><time>2026-04-11T09:33:47.377Z</time></trkpt><trkpt lat="45.5289887" lon="9.2792388"><ele>136.5</ele><time>2026-04-11T09:33:49.4Z</time></trkpt><trkpt lat="45.5290944" lon="9.2793204"><ele>137.0</ele><time>2026-04-11T09:33:51.38Z</time></trkpt><trkpt lat="45.5291518" lon="9.2793612"><ele>137.5</ele><time>2026-04-11T09:33:52.381Z</time></trkpt><trkpt lat="45.5292099" lon="9.279407"><ele>138.0</ele><time>2026-04-11T09:33:53.376Z</time></trkpt><trkpt lat="45.5292716" lon="9.2794536"><ele>138.5</ele><time>2026-04-11T09:33:54.379Z</time></trkpt><trkpt lat="45.5293298" lon="9.2794967"><ele>139.0</ele><time>2026-04-11T09:33:55.374Z</time></trkpt><trkpt lat="45.5294314" lon="9.2795745"><ele>139.0</ele><time>2026-04-11T09:33:57.373Z</time></trkpt><trkpt lat="45.5295254" lon="9.2796427"><ele>139.0</ele><time>2026-04-11T09:33:59.37Z</time></trkpt><trkpt lat="45.5295836" lon="9.2796795"><ele>139.0</ele><time>2026-04-11T09:34:00.379Z</time></trkpt><trkpt lat="45.5296505" lon="9.2797288"><ele>139.0</ele><time>2026-04-11T09:34:01.376Z</time></trkpt><trkpt lat="45.5297226" lon="9.2797873"><ele>139.0</ele><time>2026-04-11T09:34:02.378Z</time></trkpt><trkpt lat="45.5297921" lon="9.2798413"><ele>139.0</ele><time>2026-04-11T09:34:03.373Z</time></trkpt><trkpt lat="45.5298525" lon="9.2798891"><ele>138.8</ele><time>2026-04-11T09:34:04.374Z</time></trkpt><trkpt lat="45.5299103" lon="9.2799324"><ele>138.60000000000002</ele><time>2026-04-11T09:34:05.403Z</time></trkpt><trkpt lat="45.5300137" lon="9.2800089"><ele>138.4</ele><time>2026-04-11T09:34:07.372Z</time></trkpt><trkpt lat="45.5301285" lon="9.2800914"><ele>138.20000000000002</ele><time>2026-04-11T09:34:09.374Z</time></trkpt><trkpt lat="45.5301924" lon="9.280141"><ele>138.0</ele><time>2026-04-11T09:34:10.377Z</time></trkpt><trkpt lat="45.530259" lon="9.280191"><ele>138.0</ele><time>2026-04-11T09:34:11.375Z</time></trkpt><trkpt lat="45.5303282" lon="9.2802407"><ele>138.0</ele><time>2026-04-11T09:34:12.38Z</time></trkpt><trkpt lat="45.5303968" lon="9.280293"><ele>138.0</ele><time>2026-04-11T09:34:13.396Z</time></trkpt><trkpt lat="45.5304575" lon="9.2803394"><ele>138.0</ele><time>2026-04-11T09:34:14.38Z</time></trkpt><trkpt lat="45.5305258" lon="9.2803871"><ele>138.0</ele><time>2026-04-11T09:34:16.376Z</time></trkpt><trkpt lat="45.5305846" lon="9.2804478"><ele>138.0</ele><time>2026-04-11T09:34:21.375Z</time></trkpt><trkpt lat="45.530691" lon="9.2805186"><ele>137.83333333333334</ele><time>2026-04-11T09:34:23.377Z</time></trkpt><trkpt lat="45.5308111" lon="9.2806018"><ele>137.66666666666666</ele><time>2026-04-11T09:34:25.373Z</time></trkpt><trkpt lat="45.5308736" lon="9.2806532"><ele>137.5</ele><time>2026-04-11T09:34:26.38Z</time></trkpt><trkpt lat="45.5309323" lon="9.2806926"><ele>137.33333333333331</ele><time>2026-04-11T09:34:27.377Z</time></trkpt><trkpt lat="45.530994" lon="9.2807348"><ele>137.16666666666666</ele><time>2026-04-11T09:34:28.38Z</time></trkpt><trkpt lat="45.5310556" lon="9.2807792"><ele>137.0</ele><time>2026-04-11T09:34:29.376Z</time></trkpt><trkpt lat="45.5311162" lon="9.2808236"><ele>137.0</ele><time>2026-04-11T09:34:30.38Z</time></trkpt><trkpt lat="45.5312166" lon="9.2808988"><ele>137.0</ele><time>2026-04-11T09:34:32.377Z</time></trkpt><trkpt lat="45.5312977" lon="9.2809549"><ele>137.0</ele><time>2026-04-11T09:34:34.381Z</time></trkpt><trkpt lat="45.531406" lon="9.2810206"><ele>137.0</ele><time>2026-04-11T09:34:36.399Z</time></trkpt><trkpt lat="45.531474" lon="9.2810642"><ele>137.0</ele><time>2026-04-11T09:34:37.379Z</time></trkpt><trkpt lat="45.5315466" lon="9.2811151"><ele>137.0</ele><time>2026-04-11T09:34:38.378Z</time></trkpt><trkpt lat="45.5316229" lon="9.2811816"><ele>137.0</ele><time>2026-04-11T09:34:39.371Z</time></trkpt><trkpt lat="45.5316999" lon="9.2812466"><ele>137.0</ele><time>2026-04-11T09:34:40.371Z</time></trkpt><trkpt lat="45.5317795" lon="9.2813157"><ele>137.0</ele><time>2026-04-11T09:34:41.373Z</time></trkpt><trkpt lat="45.5318653" lon="9.2813889"><ele>137.0</ele><time>2026-04-11T09:34:42.377Z</time></trkpt><trkpt lat="45.5319596" lon="9.28146"><ele>136.75</ele><time>2026-04-11T09:34:43.378Z</time></trkpt><trkpt lat="45.5320502" lon="9.2815386"><ele>136.5</ele><time>2026-04-11T09:34:44.379Z</time></trkpt><trkpt lat="45.5321475" lon="9.28161"><ele>136.25</ele><time>2026-04-11T09:34:45.377Z</time></trkpt><trkpt lat="45.5322525" lon="9.2816871"><ele>136.0</ele><time>2026-04-11T09:34:46.377Z</time></trkpt><trkpt lat="45.532362" lon="9.281767"><ele>136.0</ele><time>2026-04-11T09:34:47.369Z</time></trkpt><trkpt lat="45.532477" lon="9.281844"><ele>136.0</ele><time>2026-04-11T09:34:48.37Z</time></trkpt><trkpt lat="45.5325857" lon="9.2819252"><ele>136.0</ele><time>2026-04-11T09:34:49.374Z</time></trkpt><trkpt lat="45.5326848" lon="9.2820023"><ele>136.0</ele><time>2026-04-11T09:34:50.378Z</time></trkpt><trkpt lat="45.5327761" lon="9.2820755"><ele>136.0</ele><time>2026-04-11T09:34:51.376Z</time></trkpt><trkpt lat="45.5328623" lon="9.282138"><ele>136.0</ele><time>2026-04-11T09:34:52.378Z</time></trkpt><trkpt lat="45.532941" lon="9.2821984"><ele>136.0</ele><time>2026-04-11T09:34:53.377Z</time></trkpt><trkpt lat="45.5330094" lon="9.282254"><ele>136.0</ele><time>2026-04-11T09:34:54.375Z</time></trkpt><trkpt lat="45.533079" lon="9.2823091"><ele>136.0</ele><time>2026-04-11T09:34:55.378Z</time></trkpt><trkpt lat="45.5331511" lon="9.2823641"><ele>136.0</ele><time>2026-04-11T09:34:56.377Z</time></trkpt><trkpt lat="45.5332272" lon="9.2824202"><ele>136.66666666666669</ele><time>2026-04-11T09:34:57.377Z</time></trkpt><trkpt lat="45.5333012" lon="9.2824738"><ele>137.33333333333334</ele><time>2026-04-11T09:34:58.378Z</time></trkpt><trkpt lat="45.5333721" lon="9.2825305"><ele>138.0</ele><time>2026-04-11T09:34:59.375Z</time></trkpt><trkpt lat="45.5334445" lon="9.2825843"><ele>138.66666666666666</ele><time>2026-04-11T09:35:00.37Z</time></trkpt><trkpt lat="45.5335185" lon="9.282638"><ele>139.33333333333331</ele><time>2026-04-11T09:35:01.376Z</time></trkpt><trkpt lat="45.5335976" lon="9.2826969"><ele>140.0</ele><time>2026-04-11T09:35:02.376Z</time></trkpt><trkpt lat="45.5336821" lon="9.2827606"><ele>140.6</ele><time>2026-04-11T09:35:03.375Z</time></trkpt><trkpt lat="45.5337711" lon="9.2828238"><ele>141.2</ele><time>2026-04-11T09:35:04.378Z</time></trkpt><trkpt lat="45.5338552" lon="9.2828865"><ele>141.8</ele><time>2026-04-11T09:35:05.376Z</time></trkpt><trkpt lat="45.533942" lon="9.2829487"><ele>142.4</ele><time>2026-04-11T09:35:06.378Z</time></trkpt><trkpt lat="45.5340308" lon="9.2830147"><ele>143.0</ele><time>2026-04-11T09:35:07.378Z</time></trkpt><trkpt lat="45.5341201" lon="9.2830786"><ele>143.16666666666666</ele><time>2026-04-11T09:35:08.377Z</time></trkpt><trkpt lat="45.5342" lon="9.2831398"><ele>143.33333333333331</ele><time>2026-04-11T09:35:09.372Z</time></trkpt><trkpt lat="45.5342787" lon="9.2832022"><ele>143.5</ele><time>2026-04-11T09:35:10.375Z</time></trkpt><trkpt lat="45.5343543" lon="9.2832598"><ele>143.66666666666666</ele><time>2026-04-11T09:35:11.376Z</time></trkpt><trkpt lat="45.5344248" lon="9.2833088"><ele>143.83333333333334</ele><time>2026-04-11T09:35:12.378Z</time></trkpt><trkpt lat="45.534496" lon="9.2833604"><ele>144.0</ele><time>2026-04-11T09:35:13.377Z</time></trkpt><trkpt lat="45.5345693" lon="9.2834108"><ele>144.0</ele><time>2026-04-11T09:35:14.377Z</time></trkpt><trkpt lat="45.5346503" lon="9.2834634"><ele>144.0</ele><time>2026-04-11T09:35:15.376Z</time></trkpt><trkpt lat="45.534727" lon="9.2835158"><ele>144.0</ele><time>2026-04-11T09:35:16.379Z</time></trkpt><trkpt lat="45.5348063" lon="9.283573"><ele>144.0</ele><time>2026-04-11T09:35:17.376Z</time></trkpt><trkpt lat="45.534888" lon="9.283629"><ele>144.0</ele><time>2026-04-11T09:35:18.375Z</time></trkpt><trkpt lat="45.5349669" lon="9.2836876"><ele>144.0</ele><time>2026-04-11T09:35:19.373Z</time></trkpt><trkpt lat="45.5350386" lon="9.2837436"><ele>144.00000000000003</ele><time>2026-04-11T09:35:20.376Z</time></trkpt><trkpt lat="45.535104" lon="9.2837983"><ele>144.0</ele><time>2026-04-11T09:35:21.373Z</time></trkpt><trkpt lat="45.5351627" lon="9.2838523"><ele>144.0</ele><time>2026-04-11T09:35:22.373Z</time></trkpt><trkpt lat="45.5352179" lon="9.2839067"><ele>144.0</ele><time>2026-04-11T09:35:23.375Z</time></trkpt><trkpt lat="45.5352688" lon="9.2839778"><ele>144.0</ele><time>2026-04-11T09:35:24.368Z</time></trkpt><trkpt lat="45.5353145" lon="9.2840598"><ele>144.00000000000003</ele><time>2026-04-11T09:35:25.377Z</time></trkpt><trkpt lat="45.535365" lon="9.2841274"><ele>144.0</ele><time>2026-04-11T09:35:26.372Z</time></trkpt><trkpt lat="45.5354225" lon="9.2841721"><ele>143.33333333333334</ele><time>2026-04-11T09:35:27.378Z</time></trkpt><trkpt lat="45.5354884" lon="9.2842008"><ele>142.66666666666666</ele><time>2026-04-11T09:35:28.381Z</time></trkpt><trkpt lat="45.5355646" lon="9.2842214"><ele>142.0</ele><time>2026-04-11T09:35:29.403Z</time></trkpt><trkpt lat="45.5356421" lon="9.2842512"><ele>141.33333333333331</ele><time>2026-04-11T09:35:30.375Z</time></trkpt><trkpt lat="45.5357196" lon="9.284287"><ele>140.66666666666666</ele><time>2026-04-11T09:35:31.378Z</time></trkpt><trkpt lat="45.5357994" lon="9.2843343"><ele>140.0</ele><time>2026-04-11T09:35:32.369Z</time></trkpt><trkpt lat="45.5358821" lon="9.2843876"><ele>140.0</ele><time>2026-04-11T09:35:33.373Z</time></trkpt><trkpt lat="45.5359664" lon="9.2844534"><ele>140.0</ele><time>2026-04-11T09:35:34.394Z</time></trkpt><trkpt lat="45.5360455" lon="9.2845213"><ele>140.0</ele><time>2026-04-11T09:35:35.372Z</time></trkpt><trkpt lat="45.5361207" lon="9.2845787"><ele>140.0</ele><time>2026-04-11T09:35:36.372Z</time></trkpt><trkpt lat="45.5361921" lon="9.2846325"><ele>140.0</ele><time>2026-04-11T09:35:37.372Z</time></trkpt><trkpt lat="45.5362632" lon="9.2846842"><ele>140.0</ele><time>2026-04-11T09:35:38.378Z</time></trkpt><trkpt lat="45.5363309" lon="9.2847331"><ele>140.66666666666666</ele><time>2026-04-11T09:35:39.372Z</time></trkpt><trkpt lat="45.536399" lon="9.2847866"><ele>141.33333333333331</ele><time>2026-04-11T09:35:40.404Z</time></trkpt><trkpt lat="45.5364689" lon="9.2848352"><ele>142.0</ele><time>2026-04-11T09:35:41.372Z</time></trkpt><trkpt lat="45.5365362" lon="9.2848857"><ele>142.66666666666666</ele><time>2026-04-11T09:35:42.378Z</time></trkpt><trkpt lat="45.5366106" lon="9.2849371"><ele>143.33333333333334</ele><time>2026-04-11T09:35:43.377Z</time></trkpt><trkpt lat="45.536702" lon="9.285004"><ele>144.0</ele><time>2026-04-11T09:35:44.377Z</time></trkpt><trkpt lat="45.5368066" lon="9.2850809"><ele>144.0</ele><time>2026-04-11T09:35:45.371Z</time></trkpt><trkpt lat="45.536905" lon="9.2851524"><ele>144.0</ele><time>2026-04-11T09:35:46.396Z</time></trkpt><trkpt lat="45.5369983" lon="9.2852184"><ele>144.0</ele><time>2026-04-11T09:35:47.381Z</time></trkpt><trkpt lat="45.5370858" lon="9.2852852"><ele>144.0</ele><time>2026-04-11T09:35:48.37Z</time></trkpt><trkpt lat="45.5371699" lon="9.285353"><ele>144.0</ele><time>2026-04-11T09:35:49.394Z</time></trkpt><trkpt lat="45.5372544" lon="9.2854172"><ele>143.6</ele><time>2026-04-11T09:35:50.378Z</time></trkpt><trkpt lat="45.5373349" lon="9.2854853"><ele>143.2</ele><time>2026-04-11T09:35:51.373Z</time></trkpt><trkpt lat="45.537415" lon="9.2855499"><ele>142.79999999999998</ele><time>2026-04-11T09:35:52.403Z</time></trkpt><trkpt lat="45.537494" lon="9.2856137"><ele>142.4</ele><time>2026-04-11T09:35:53.372Z</time></trkpt><trkpt lat="45.5375749" lon="9.2856723"><ele>142.0</ele><time>2026-04-11T09:35:54.374Z</time></trkpt><trkpt lat="45.5376583" lon="9.2857336"><ele>141.5</ele><time>2026-04-11T09:35:55.396Z</time></trkpt><trkpt lat="45.5377361" lon="9.2857904"><ele>141.0</ele><time>2026-04-11T09:35:56.379Z</time></trkpt><trkpt lat="45.537814" lon="9.2858456"><ele>140.5</ele><time>2026-04-11T09:35:57.376Z</time></trkpt><trkpt lat="45.5378904" lon="9.2859011"><ele>140.0</ele><time>2026-04-11T09:35:58.404Z</time></trkpt><trkpt lat="45.5379691" lon="9.2859582"><ele>139.5</ele><time>2026-04-11T09:35:59.374Z</time></trkpt><trkpt lat="45.5380501" lon="9.2860218"><ele>139.0</ele><time>2026-04-11T09:36:00.38Z</time></trkpt><trkpt lat="45.5381248" lon="9.2860797"><ele>138.66666666666669</ele><time>2026-04-11T09:36:01.378Z</time></trkpt><trkpt lat="45.5381927" lon="9.2861338"><ele>138.33333333333334</ele><time>2026-04-11T09:36:02.382Z</time></trkpt><trkpt lat="45.5382547" lon="9.2861806"><ele>138.0</ele><time>2026-04-11T09:36:03.378Z</time></trkpt><trkpt lat="45.5383164" lon="9.286226"><ele>137.66666666666666</ele><time>2026-04-11T09:36:04.376Z</time></trkpt><trkpt lat="45.5384093" lon="9.2862947"><ele>137.33333333333331</ele><time>2026-04-11T09:36:06.384Z</time></trkpt><trkpt lat="45.5384851" lon="9.2863426"><ele>137.0</ele><time>2026-04-11T09:36:09.369Z</time></trkpt><trkpt lat="45.5385471" lon="9.2863907"><ele>137.4</ele><time>2026-04-11T09:36:12.399Z</time></trkpt><trkpt lat="45.5386293" lon="9.2864477"><ele>137.79999999999998</ele><time>2026-04-11T09:36:14.379Z</time></trkpt><trkpt lat="45.538706" lon="9.2864948"><ele>138.2</ele><time>2026-04-11T09:36:15.373Z</time></trkpt><trkpt lat="45.5388082" lon="9.2865599"><ele>138.6</ele><time>2026-04-11T09:36:16.372Z</time></trkpt><trkpt lat="45.5389269" lon="9.2866559"><ele>139.0</ele><time>2026-04-11T09:36:17.373Z</time></trkpt><trkpt lat="45.5390551" lon="9.2867682"><ele>139.0</ele><time>2026-04-11T09:36:18.369Z</time></trkpt><trkpt lat="45.5391783" lon="9.2868721"><ele>139.0</ele><time>2026-04-11T09:36:19.37Z</time></trkpt><trkpt lat="45.5392924" lon="9.2869611"><ele>139.0</ele><time>2026-04-11T09:36:20.379Z</time></trkpt><trkpt lat="45.5394011" lon="9.2870412"><ele>139.0</ele><time>2026-04-11T09:36:21.374Z</time></trkpt><trkpt lat="45.5394982" lon="9.2871125"><ele>139.0</ele><time>2026-04-11T09:36:22.371Z</time></trkpt><trkpt lat="45.5395871" lon="9.2871749"><ele>139.0</ele><time>2026-04-11T09:36:23.387Z</time></trkpt><trkpt lat="45.5396632" lon="9.2872382"><ele>139.0</ele><time>2026-04-11T09:36:24.372Z</time></trkpt><trkpt lat="45.5397379" lon="9.2873045"><ele>139.0</ele><time>2026-04-11T09:36:25.393Z</time></trkpt><trkpt lat="45.5397946" lon="9.2873732"><ele>139.0</ele><time>2026-04-11T09:36:26.371Z</time></trkpt><trkpt lat="45.5398593" lon="9.2874364"><ele>139.0</ele><time>2026-04-11T09:36:27.388Z</time></trkpt><trkpt lat="45.5399456" lon="9.2874859"><ele>139.2</ele><time>2026-04-11T09:36:28.373Z</time></trkpt><trkpt lat="45.540039" lon="9.2875328"><ele>139.4</ele><time>2026-04-11T09:36:29.379Z</time></trkpt><trkpt lat="45.5401409" lon="9.2875955"><ele>139.6</ele><time>2026-04-11T09:36:30.377Z</time></trkpt><trkpt lat="45.5402399" lon="9.2876685"><ele>139.8</ele><time>2026-04-11T09:36:31.376Z</time></trkpt><trkpt lat="45.5403306" lon="9.2877312"><ele>140.0</ele><time>2026-04-11T09:36:32.366Z</time></trkpt><trkpt lat="45.5404148" lon="9.2877941"><ele>139.66666666666666</ele><time>2026-04-11T09:36:33.38Z</time></trkpt><trkpt lat="45.540488" lon="9.2878531"><ele>139.33333333333331</ele><time>2026-04-11T09:36:34.402Z</time></trkpt><trkpt lat="45.540558" lon="9.2879024"><ele>139.0</ele><time>2026-04-11T09:36:35.367Z</time></trkpt><trkpt lat="45.5406223" lon="9.2879502"><ele>138.66666666666666</ele><time>2026-04-11T09:36:36.373Z</time></trkpt><trkpt lat="45.5406838" lon="9.2879958"><ele>138.33333333333334</ele><time>2026-04-11T09:36:37.373Z</time></trkpt><trkpt lat="45.5407711" lon="9.2880614"><ele>138.0</ele><time>2026-04-11T09:36:39.372Z</time></trkpt><trkpt lat="45.5408281" lon="9.2881207"><ele>138.0</ele><time>2026-04-11T09:36:41.379Z</time></trkpt><trkpt lat="45.5409009" lon="9.2881902"><ele>138.0</ele><time>2026-04-11T09:36:44.375Z</time></trkpt><trkpt lat="45.5409712" lon="9.2882134"><ele>138.0</ele><time>2026-04-11T09:36:54.37Z</time></trkpt><trkpt lat="45.5410552" lon="9.2882638"><ele>138.0</ele><time>2026-04-11T09:36:57.379Z</time></trkpt><trkpt lat="45.5411336" lon="9.2883215"><ele>138.0</ele><time>2026-04-11T09:36:59.381Z</time></trkpt><trkpt lat="45.541211" lon="9.2883858"><ele>138.0</ele><time>2026-04-11T09:37:01.379Z</time></trkpt><trkpt lat="45.5412967" lon="9.2884483"><ele>138.5</ele><time>2026-04-11T09:37:03.389Z</time></trkpt><trkpt lat="45.5414025" lon="9.2885279"><ele>139.0</ele><time>2026-04-11T09:37:05.379Z</time></trkpt><trkpt lat="45.5414952" lon="9.2885967"><ele>139.5</ele><time>2026-04-11T09:37:07.398Z</time></trkpt><trkpt lat="45.5415848" lon="9.2886624"><ele>140.0</ele><time>2026-04-11T09:37:09.371Z</time></trkpt><trkpt lat="45.5417001" lon="9.2887446"><ele>140.0</ele><time>2026-04-11T09:37:11.379Z</time></trkpt><trkpt lat="45.5417611" lon="9.2887928"><ele>140.0</ele><time>2026-04-11T09:37:12.373Z</time></trkpt><trkpt lat="45.5418209" lon="9.2888392"><ele>140.0</ele><time>2026-04-11T09:37:13.379Z</time></trkpt><trkpt lat="45.5418806" lon="9.2888883"><ele>140.0</ele><time>2026-04-11T09:37:14.375Z</time></trkpt><trkpt lat="45.5419351" lon="9.2889493"><ele>140.0</ele><time>2026-04-11T09:37:15.373Z</time></trkpt><trkpt lat="45.5419927" lon="9.2889886"><ele>140.0</ele><time>2026-04-11T09:37:16.4Z</time></trkpt><trkpt lat="45.5420889" lon="9.2890506"><ele>140.0</ele><time>2026-04-11T09:37:18.375Z</time></trkpt><trkpt lat="45.5421718" lon="9.2891146"><ele>140.33333333333331</ele><time>2026-04-11T09:37:20.375Z</time></trkpt><trkpt lat="45.5422748" lon="9.2891944"><ele>140.66666666666666</ele><time>2026-04-11T09:37:22.403Z</time></trkpt><trkpt lat="45.5423365" lon="9.2892367"><ele>141.0</ele><time>2026-04-11T09:37:23.38Z</time></trkpt><trkpt lat="45.5424021" lon="9.2892827"><ele>141.33333333333334</ele><time>2026-04-11T09:37:24.374Z</time></trkpt><trkpt lat="45.5424699" lon="9.2893333"><ele>141.66666666666669</ele><time>2026-04-11T09:37:25.38Z</time></trkpt><trkpt lat="45.5425408" lon="9.2893835"><ele>142.0</ele><time>2026-04-11T09:37:26.375Z</time></trkpt><trkpt lat="45.5426009" lon="9.2894298"><ele>142.0</ele><time>2026-04-11T09:37:27.376Z</time></trkpt><trkpt lat="45.5426571" lon="9.2894705"><ele>142.0</ele><time>2026-04-11T09:37:28.401Z</time></trkpt><trkpt lat="45.5427161" lon="9.2895159"><ele>142.0</ele><time>2026-04-11T09:37:29.372Z</time></trkpt><trkpt lat="45.5427777" lon="9.2895603"><ele>142.0</ele><time>2026-04-11T09:37:30.38Z</time></trkpt><trkpt lat="45.5428453" lon="9.28961"><ele>142.0</ele><time>2026-04-11T09:37:31.403Z</time></trkpt><trkpt lat="45.5429065" lon="9.2896615"><ele>142.0</ele><time>2026-04-11T09:37:32.38Z</time></trkpt><trkpt lat="45.5429679" lon="9.2897021"><ele>142.0</ele><time>2026-04-11T09:37:33.38Z</time></trkpt><trkpt lat="45.5430241" lon="9.2897432"><ele>142.0</ele><time>2026-04-11T09:37:34.381Z</time></trkpt><trkpt lat="45.543128" lon="9.2898323"><ele>142.0</ele><time>2026-04-11T09:37:36.376Z</time></trkpt><trkpt lat="45.543183" lon="9.2898762"><ele>142.0</ele><time>2026-04-11T09:37:37.4Z</time></trkpt><trkpt lat="45.5432472" lon="9.2899229"><ele>142.0</ele><time>2026-04-11T09:37:38.381Z</time></trkpt><trkpt lat="45.5433142" lon="9.2899725"><ele>142.0</ele><time>2026-04-11T09:37:39.37Z</time></trkpt><trkpt lat="45.543384" lon="9.2900228"><ele>142.0</ele><time>2026-04-11T09:37:40.402Z</time></trkpt><trkpt lat="45.5434572" lon="9.2900823"><ele>142.0</ele><time>2026-04-11T09:37:41.373Z</time></trkpt><trkpt lat="45.543531" lon="9.2901468"><ele>142.0</ele><time>2026-04-11T09:37:42.372Z</time></trkpt><trkpt lat="45.543606" lon="9.2902076"><ele>142.0</ele><time>2026-04-11T09:37:43.396Z</time></trkpt><trkpt lat="45.5436937" lon="9.2902715"><ele>142.0</ele><time>2026-04-11T09:37:44.377Z</time></trkpt><trkpt lat="45.5437929" lon="9.2903415"><ele>142.0</ele><time>2026-04-11T09:37:45.374Z</time></trkpt><trkpt lat="45.5438931" lon="9.2904178"><ele>142.0</ele><time>2026-04-11T09:37:46.381Z</time></trkpt><trkpt lat="45.5440009" lon="9.2904966"><ele>142.0</ele><time>2026-04-11T09:37:47.373Z</time></trkpt><trkpt lat="45.5441146" lon="9.290584"><ele>142.0</ele><time>2026-04-11T09:37:48.382Z</time></trkpt><trkpt lat="45.5442339" lon="9.29067"><ele>142.0</ele><time>2026-04-11T09:37:49.405Z</time></trkpt><trkpt lat="45.5443461" lon="9.2907541"><ele>142.0</ele><time>2026-04-11T09:37:50.373Z</time></trkpt><trkpt lat="45.5444407" lon="9.2908324"><ele>142.0</ele><time>2026-04-11T09:37:51.374Z</time></trkpt><trkpt lat="45.5445189" lon="9.2908889"><ele>142.0</ele><time>2026-04-11T09:37:52.376Z</time></trkpt><trkpt lat="45.54458" lon="9.2909325"><ele>142.0</ele><time>2026-04-11T09:37:53.371Z</time></trkpt><trkpt lat="45.5446824" lon="9.2909825"><ele>142.0</ele><time>2026-04-11T09:37:55.371Z</time></trkpt><trkpt lat="45.5447672" lon="9.2910417"><ele>142.0</ele><time>2026-04-11T09:37:57.38Z</time></trkpt><trkpt lat="45.544878" lon="9.291126"><ele>142.0</ele><time>2026-04-11T09:37:59.38Z</time></trkpt><trkpt lat="45.5449758" lon="9.2912043"><ele>142.0</ele><time>2026-04-11T09:38:01.377Z</time></trkpt><trkpt lat="45.545086" lon="9.2912939"><ele>142.0</ele><time>2026-04-11T09:38:03.377Z</time></trkpt><trkpt lat="45.5451468" lon="9.2913451"><ele>142.0</ele><time>2026-04-11T09:38:04.373Z</time></trkpt><trkpt lat="45.5452134" lon="9.2913942"><ele>142.0</ele><time>2026-04-11T09:38:05.379Z</time></trkpt><trkpt lat="45.5452838" lon="9.2914475"><ele>142.0</ele><time>2026-04-11T09:38:06.376Z</time></trkpt><trkpt lat="45.5453587" lon="9.291503"><ele>142.0</ele><time>2026-04-11T09:38:07.377Z</time></trkpt><trkpt lat="45.5454385" lon="9.2915627"><ele>142.0</ele><time>2026-04-11T09:38:08.376Z</time></trkpt><trkpt lat="45.5455209" lon="9.2916241"><ele>142.0</ele><time>2026-04-11T09:38:09.377Z</time></trkpt><trkpt lat="45.5456059" lon="9.2916898"><ele>142.0</ele><time>2026-04-11T09:38:10.376Z</time></trkpt><trkpt lat="45.5456878" lon="9.2917515"><ele>142.0</ele><time>2026-04-11T09:38:11.379Z</time></trkpt><trkpt lat="45.5457709" lon="9.2918158"><ele>142.0</ele><time>2026-04-11T09:38:12.377Z</time></trkpt><trkpt lat="45.5458535" lon="9.2918758"><ele>142.0</ele><time>2026-04-11T09:38:13.4Z</time></trkpt><trkpt lat="45.5459449" lon="9.2919419"><ele>142.0</ele><time>2026-04-11T09:38:14.379Z</time></trkpt><trkpt lat="45.5460322" lon="9.2920057"><ele>142.0</ele><time>2026-04-11T09:38:15.379Z</time></trkpt><trkpt lat="45.5461088" lon="9.2920675"><ele>142.0</ele><time>2026-04-11T09:38:16.375Z</time></trkpt><trkpt lat="45.5461851" lon="9.2921199"><ele>142.0</ele><time>2026-04-11T09:38:17.371Z</time></trkpt><trkpt lat="45.5462546" lon="9.2921721"><ele>142.0</ele><time>2026-04-11T09:38:18.379Z</time></trkpt><trkpt lat="45.5463218" lon="9.2922214"><ele>142.0</ele><time>2026-04-11T09:38:19.373Z</time></trkpt><trkpt lat="45.5463865" lon="9.2922683"><ele>142.0</ele><time>2026-04-11T09:38:20.376Z</time></trkpt><trkpt lat="45.5464484" lon="9.2923115"><ele>142.0</ele><time>2026-04-11T09:38:21.377Z</time></trkpt><trkpt lat="45.5465081" lon="9.2923537"><ele>142.0</ele><time>2026-04-11T09:38:22.378Z</time></trkpt><trkpt lat="45.5465657" lon="9.2923961"><ele>142.0</ele><time>2026-04-11T09:38:23.376Z</time></trkpt><trkpt lat="45.5466217" lon="9.2924424"><ele>142.0</ele><time>2026-04-11T09:38:24.374Z</time></trkpt><trkpt lat="45.5467167" lon="9.2925248"><ele>142.0</ele><time>2026-04-11T09:38:26.378Z</time></trkpt><trkpt lat="45.5468096" lon="9.2926022"><ele>142.0</ele><time>2026-04-11T09:38:28.376Z</time></trkpt><trkpt lat="45.546876" lon="9.2926527"><ele>142.0</ele><time>2026-04-11T09:38:30.379Z</time></trkpt><trkpt lat="45.5469298" lon="9.2927029"><ele>142.0</ele><time>2026-04-11T09:38:34.373Z</time></trkpt><trkpt lat="45.547015" lon="9.2927649"><ele>142.79999999999998</ele><time>2026-04-11T09:38:36.375Z</time></trkpt><trkpt lat="45.54712" lon="9.2928505"><ele>143.6</ele><time>2026-04-11T09:38:38.38Z</time></trkpt><trkpt lat="45.5471836" lon="9.2929023"><ele>144.39999999999998</ele><time>2026-04-11T09:38:39.377Z</time></trkpt><trkpt lat="45.5472572" lon="9.2929581"><ele>145.2</ele><time>2026-04-11T09:38:40.374Z</time></trkpt><trkpt lat="45.5473308" lon="9.2930177"><ele>146.0</ele><time>2026-04-11T09:38:41.375Z</time></trkpt><trkpt lat="45.5474093" lon="9.2930828"><ele>145.6</ele><time>2026-04-11T09:38:42.379Z</time></trkpt><trkpt lat="45.5474811" lon="9.2931459"><ele>145.2</ele><time>2026-04-11T09:38:43.374Z</time></trkpt><trkpt lat="45.5475493" lon="9.2932037"><ele>144.8</ele><time>2026-04-11T09:38:44.374Z</time></trkpt><trkpt lat="45.5476249" lon="9.2932647"><ele>144.4</ele><time>2026-04-11T09:38:45.373Z</time></trkpt><trkpt lat="45.5477122" lon="9.2933318"><ele>144.0</ele><time>2026-04-11T09:38:46.372Z</time></trkpt><trkpt lat="45.5478022" lon="9.2934041"><ele>144.2</ele><time>2026-04-11T09:38:47.367Z</time></trkpt><trkpt lat="45.5478955" lon="9.2934739"><ele>144.4</ele><time>2026-04-11T09:38:48.372Z</time></trkpt><trkpt lat="45.547992" lon="9.2935504"><ele>144.6</ele><time>2026-04-11T09:38:49.377Z</time></trkpt><trkpt lat="45.548087" lon="9.2936243"><ele>144.8</ele><time>2026-04-11T09:38:50.372Z</time></trkpt><trkpt lat="45.5481805" lon="9.2936943"><ele>145.0</ele><time>2026-04-11T09:38:51.377Z</time></trkpt><trkpt lat="45.5482765" lon="9.2937659"><ele>145.0</ele><time>2026-04-11T09:38:52.375Z</time></trkpt><trkpt lat="45.5483768" lon="9.2938375"><ele>145.0</ele><time>2026-04-11T09:38:53.398Z</time></trkpt><trkpt lat="45.5484848" lon="9.2939056"><ele>145.0</ele><time>2026-04-11T09:38:54.378Z</time></trkpt><trkpt lat="45.5485933" lon="9.2939818"><ele>145.0</ele><time>2026-04-11T09:38:55.377Z</time></trkpt><trkpt lat="45.5487067" lon="9.2940594"><ele>145.0</ele><time>2026-04-11T09:38:56.376Z</time></trkpt><trkpt lat="45.5488286" lon="9.2941451"><ele>145.0</ele><time>2026-04-11T09:38:57.378Z</time></trkpt><trkpt lat="45.5489614" lon="9.2942403"><ele>145.0</ele><time>2026-04-11T09:38:58.376Z</time></trkpt><trkpt lat="45.5490953" lon="9.2943418"><ele>145.0</ele><time>2026-04-11T09:38:59.376Z</time></trkpt><trkpt lat="45.5492194" lon="9.2944332"><ele>145.0</ele><time>2026-04-11T09:39:00.376Z</time></trkpt><trkpt lat="45.5493351" lon="9.294524"><ele>145.0</ele><time>2026-04-11T09:39:01.376Z</time></trkpt><trkpt lat="45.5494419" lon="9.2946034"><ele>145.0</ele><time>2026-04-11T09:39:02.376Z</time></trkpt><trkpt lat="45.5495406" lon="9.2946796"><ele>145.0</ele><time>2026-04-11T09:39:03.376Z</time></trkpt><trkpt lat="45.54964" lon="9.2947517"><ele>145.25</ele><time>2026-04-11T09:39:04.371Z</time></trkpt><trkpt lat="45.5497446" lon="9.2948306"><ele>145.5</ele><time>2026-04-11T09:39:05.376Z</time></trkpt><trkpt lat="45.5498513" lon="9.2949111"><ele>145.75</ele><time>2026-04-11T09:39:06.378Z</time></trkpt><trkpt lat="45.5499613" lon="9.2949937"><ele>146.0</ele><time>2026-04-11T09:39:07.403Z</time></trkpt><trkpt lat="45.5500708" lon="9.2950711"><ele>146.0</ele><time>2026-04-11T09:39:08.37Z</time></trkpt><trkpt lat="45.5501709" lon="9.2951435"><ele>146.0</ele><time>2026-04-11T09:39:09.37Z</time></trkpt><trkpt lat="45.5502677" lon="9.2952094"><ele>146.0</ele><time>2026-04-11T09:39:10.375Z</time></trkpt><trkpt lat="45.5503626" lon="9.2952822"><ele>146.0</ele><time>2026-04-11T09:39:11.375Z</time></trkpt><trkpt lat="45.5504533" lon="9.2953456"><ele>146.0</ele><time>2026-04-11T09:39:12.373Z</time></trkpt><trkpt lat="45.5505473" lon="9.2954129"><ele>146.0</ele><time>2026-04-11T09:39:13.377Z</time></trkpt><trkpt lat="45.5506393" lon="9.2954779"><ele>146.0</ele><time>2026-04-11T09:39:14.373Z</time></trkpt><trkpt lat="45.5507261" lon="9.295545"><ele>146.0</ele><time>2026-04-11T09:39:15.372Z</time></trkpt><trkpt lat="45.5508127" lon="9.2956114"><ele>146.0</ele><time>2026-04-11T09:39:16.374Z</time></trkpt><trkpt lat="45.5509053" lon="9.2956873"><ele>146.0</ele><time>2026-04-11T09:39:17.38Z</time></trkpt><trkpt lat="45.5509985" lon="9.2957569"><ele>145.8</ele><time>2026-04-11T09:39:18.374Z</time></trkpt><trkpt lat="45.5510955" lon="9.2958309"><ele>145.6</ele><time>2026-04-11T09:39:19.373Z</time></trkpt><trkpt lat="45.551189" lon="9.2958979"><ele>145.4</ele><time>2026-04-11T09:39:20.374Z</time></trkpt><trkpt lat="45.5512919" lon="9.2959762"><ele>145.2</ele><time>2026-04-11T09:39:21.378Z</time></trkpt><trkpt lat="45.5513826" lon="9.2960449"><ele>145.0</ele><time>2026-04-11T09:39:22.374Z</time></trkpt><trkpt lat="45.5514797" lon="9.296117"><ele>145.25</ele><time>2026-04-11T09:39:23.378Z</time></trkpt><trkpt lat="45.5515969" lon="9.296199"><ele>145.5</ele><time>2026-04-11T09:39:24.372Z</time></trkpt><trkpt lat="45.5517264" lon="9.2962907"><ele>145.75</ele><time>2026-04-11T09:39:25.376Z</time></trkpt><trkpt lat="45.551874" lon="9.2963938"><ele>146.0</ele><time>2026-04-11T09:39:26.376Z</time></trkpt><trkpt lat="45.5520184" lon="9.2965059"><ele>145.5</ele><time>2026-04-11T09:39:27.376Z</time></trkpt><trkpt lat="45.5521538" lon="9.2966079"><ele>145.0</ele><time>2026-04-11T09:39:28.373Z</time></trkpt><trkpt lat="45.5522769" lon="9.2967066"><ele>144.5</ele><time>2026-04-11T09:39:29.376Z</time></trkpt><trkpt lat="45.5523876" lon="9.2967958"><ele>144.0</ele><time>2026-04-11T09:39:30.374Z</time></trkpt><trkpt lat="45.5524907" lon="9.2968772"><ele>144.0</ele><time>2026-04-11T09:39:31.366Z</time></trkpt><trkpt lat="45.5525841" lon="9.2969521"><ele>144.0</ele><time>2026-04-11T09:39:32.368Z</time></trkpt><trkpt lat="45.5526718" lon="9.297021"><ele>144.0</ele><time>2026-04-11T09:39:33.372Z</time></trkpt><trkpt lat="45.5527547" lon="9.2970834"><ele>144.0</ele><time>2026-04-11T09:39:34.373Z</time></trkpt><trkpt lat="45.5528307" lon="9.2971417"><ele>144.0</ele><time>2026-04-11T09:39:35.374Z</time></trkpt><trkpt lat="45.5529021" lon="9.2971965"><ele>144.33333333333334</ele><time>2026-04-11T09:39:36.373Z</time></trkpt><trkpt lat="45.5529761" lon="9.2972464"><ele>144.66666666666666</ele><time>2026-04-11T09:39:37.375Z</time></trkpt><trkpt lat="45.5530513" lon="9.2972994"><ele>145.0</ele><time>2026-04-11T09:39:38.376Z</time></trkpt><trkpt lat="45.5531318" lon="9.2973641"><ele>145.33333333333331</ele><time>2026-04-11T09:39:39.372Z</time></trkpt><trkpt lat="45.5532103" lon="9.2974285"><ele>145.66666666666666</ele><time>2026-04-11T09:39:40.376Z</time></trkpt><trkpt lat="45.5532863" lon="9.2974971"><ele>146.0</ele><time>2026-04-11T09:39:41.377Z</time></trkpt><trkpt lat="45.5533616" lon="9.2975647"><ele>146.16666666666666</ele><time>2026-04-11T09:39:42.371Z</time></trkpt><trkpt lat="45.5534331" lon="9.2976212"><ele>146.33333333333331</ele><time>2026-04-11T09:39:43.374Z</time></trkpt><trkpt lat="45.5535006" lon="9.2976732"><ele>146.5</ele><time>2026-04-11T09:39:44.368Z</time></trkpt><trkpt lat="45.5535715" lon="9.2977318"><ele>146.66666666666666</ele><time>2026-04-11T09:39:45.375Z</time></trkpt><trkpt lat="45.5536506" lon="9.2977918"><ele>146.83333333333334</ele><time>2026-04-11T09:39:46.376Z</time></trkpt><trkpt lat="45.5537317" lon="9.2978505"><ele>147.0</ele><time>2026-04-11T09:39:47.371Z</time></trkpt><trkpt lat="45.5538136" lon="9.2979172"><ele>147.2</ele><time>2026-04-11T09:39:48.374Z</time></trkpt><trkpt lat="45.5538962" lon="9.2979796"><ele>147.39999999999998</ele><time>2026-04-11T09:39:49.473Z</time></trkpt><trkpt lat="45.5539776" lon="9.2980406"><ele>147.60000000000002</ele><time>2026-04-11T09:39:50.376Z</time></trkpt><trkpt lat="45.5540578" lon="9.2981019"><ele>147.8</ele><time>2026-04-11T09:39:51.374Z</time></trkpt><trkpt lat="45.5541398" lon="9.2981571"><ele>148.0</ele><time>2026-04-11T09:39:52.372Z</time></trkpt><trkpt lat="45.554223" lon="9.2982191"><ele>148.0</ele><time>2026-04-11T09:39:53.372Z</time></trkpt><trkpt lat="45.5542997" lon="9.2982805"><ele>148.0</ele><time>2026-04-11T09:39:54.375Z</time></trkpt><trkpt lat="45.5543721" lon="9.2983309"><ele>148.0</ele><time>2026-04-11T09:39:55.37Z</time></trkpt><trkpt lat="45.5544433" lon="9.2983814"><ele>148.0</ele><time>2026-04-11T09:39:56.372Z</time></trkpt><trkpt lat="45.554518" lon="9.2984312"><ele>148.0</ele><time>2026-04-11T09:39:57.376Z</time></trkpt><trkpt lat="45.5545963" lon="9.2984851"><ele>148.0</ele><time>2026-04-11T09:39:58.378Z</time></trkpt><trkpt lat="45.554675" lon="9.2985446"><ele>148.16666666666669</ele><time>2026-04-11T09:39:59.376Z</time></trkpt><trkpt lat="45.5547546" lon="9.2985977"><ele>148.33333333333334</ele><time>2026-04-11T09:40:00.376Z</time></trkpt><trkpt lat="45.5548328" lon="9.2986437"><ele>148.5</ele><time>2026-04-11T09:40:01.377Z</time></trkpt><trkpt lat="45.5549056" lon="9.2986924"><ele>148.66666666666666</ele><time>2026-04-11T09:40:02.375Z</time></trkpt><trkpt lat="45.5549704" lon="9.2987368"><ele>148.83333333333331</ele><time>2026-04-11T09:40:03.378Z</time></trkpt><trkpt lat="45.5550285" lon="9.2987757"><ele>149.0</ele><time>2026-04-11T09:40:04.374Z</time></trkpt><trkpt lat="45.5551106" lon="9.2988438"><ele>148.66666666666666</ele><time>2026-04-11T09:40:06.377Z</time></trkpt><trkpt lat="45.5551589" lon="9.2989201"><ele>148.33333333333331</ele><time>2026-04-11T09:40:08.374Z</time></trkpt><trkpt lat="45.5552065" lon="9.2990382"><ele>148.0</ele><time>2026-04-11T09:40:10.376Z</time></trkpt><trkpt lat="45.5552732" lon="9.2991358"><ele>147.66666666666666</ele><time>2026-04-11T09:40:12.376Z</time></trkpt><trkpt lat="45.5553877" lon="9.2991634"><ele>147.33333333333334</ele><time>2026-04-11T09:40:14.377Z</time></trkpt><trkpt lat="45.5554555" lon="9.2991556"><ele>147.0</ele><time>2026-04-11T09:40:15.377Z</time></trkpt><trkpt lat="45.5555246" lon="9.2991642"><ele>147.0</ele><time>2026-04-11T09:40:16.374Z</time></trkpt><trkpt lat="45.5555952" lon="9.2991919"><ele>147.0</ele><time>2026-04-11T09:40:17.378Z</time></trkpt><trkpt lat="45.5556635" lon="9.2992349"><ele>147.0</ele><time>2026-04-11T09:40:18.376Z</time></trkpt><trkpt lat="45.5557328" lon="9.2992939"><ele>147.0</ele><time>2026-04-11T09:40:19.378Z</time></trkpt><trkpt lat="45.5558083" lon="9.2993511"><ele>147.0</ele><time>2026-04-11T09:40:20.378Z</time></trkpt><trkpt lat="45.5558854" lon="9.2994114"><ele>147.0</ele><time>2026-04-11T09:40:21.376Z</time></trkpt><trkpt lat="45.5559628" lon="9.2994689"><ele>147.0</ele><time>2026-04-11T09:40:22.373Z</time></trkpt><trkpt lat="45.5560379" lon="9.299525"><ele>147.0</ele><time>2026-04-11T09:40:23.376Z</time></trkpt><trkpt lat="45.5561117" lon="9.2995752"><ele>147.0</ele><time>2026-04-11T09:40:24.374Z</time></trkpt><trkpt lat="45.5561836" lon="9.2996283"><ele>147.0</ele><time>2026-04-11T09:40:25.377Z</time></trkpt><trkpt lat="45.556261" lon="9.2996902"><ele>147.0</ele><time>2026-04-11T09:40:26.376Z</time></trkpt><trkpt lat="45.5563409" lon="9.2997563"><ele>147.0</ele><time>2026-04-11T09:40:27.377Z</time></trkpt><trkpt lat="45.5564184" lon="9.2998217"><ele>147.0</ele><time>2026-04-11T09:40:28.378Z</time></trkpt><trkpt lat="45.5564948" lon="9.2998787"><ele>147.0</ele><time>2026-04-11T09:40:29.378Z</time></trkpt><trkpt lat="45.556569" lon="9.299936"><ele>147.0</ele><time>2026-04-11T09:40:30.376Z</time></trkpt><trkpt lat="45.5566413" lon="9.2999909"><ele>147.0</ele><time>2026-04-11T09:40:31.376Z</time></trkpt><trkpt lat="45.556706" lon="9.3000425"><ele>147.0</ele><time>2026-04-11T09:40:32.373Z</time></trkpt><trkpt lat="45.5568048" lon="9.3001212"><ele>147.0</ele><time>2026-04-11T09:40:34.378Z</time></trkpt><trkpt lat="45.5568751" lon="9.3001823"><ele>147.0</ele><time>2026-04-11T09:40:36.377Z</time></trkpt><trkpt lat="45.5569463" lon="9.3002595"><ele>147.0</ele><time>2026-04-11T09:40:38.376Z</time></trkpt><trkpt lat="45.5570103" lon="9.3003398"><ele>147.0</ele><time>2026-04-11T09:40:40.379Z</time></trkpt><trkpt lat="45.557096" lon="9.3004213"><ele>147.0</ele><time>2026-04-11T09:40:42.375Z</time></trkpt><trkpt lat="45.5572338" lon="9.300444"><ele>147.0</ele><time>2026-04-11T09:40:44.376Z</time></trkpt><trkpt lat="45.5573185" lon="9.3004907"><ele>147.5</ele><time>2026-04-11T09:40:45.376Z</time></trkpt><trkpt lat="45.5574275" lon="9.3005578"><ele>148.0</ele><time>2026-04-11T09:40:46.376Z</time></trkpt><trkpt lat="45.5575436" lon="9.3006396"><ele>148.5</ele><time>2026-04-11T09:40:47.373Z</time></trkpt><trkpt lat="45.5576484" lon="9.3007135"><ele>149.0</ele><time>2026-04-11T09:40:48.373Z</time></trkpt><trkpt lat="45.5577463" lon="9.3007848"><ele>149.0</ele><time>2026-04-11T09:40:49.375Z</time></trkpt><trkpt lat="45.5578345" lon="9.3008504"><ele>149.0</ele><time>2026-04-11T09:40:50.374Z</time></trkpt><trkpt lat="45.5579185" lon="9.3009128"><ele>149.0</ele><time>2026-04-11T09:40:51.377Z</time></trkpt><trkpt lat="45.5580019" lon="9.3009752"><ele>149.0</ele><time>2026-04-11T09:40:52.376Z</time></trkpt><trkpt lat="45.558086" lon="9.3010358"><ele>149.0</ele><time>2026-04-11T09:40:53.377Z</time></trkpt><trkpt lat="45.558173" lon="9.3011002"><ele>148.8</ele><time>2026-04-11T09:40:54.375Z</time></trkpt><trkpt lat="45.5582616" lon="9.3011661"><ele>148.60000000000002</ele><time>2026-04-11T09:40:55.376Z</time></trkpt><trkpt lat="45.5583558" lon="9.3012345"><ele>148.4</ele><time>2026-04-11T09:40:56.372Z</time></trkpt><trkpt lat="45.5584486" lon="9.3013028"><ele>148.20000000000002</ele><time>2026-04-11T09:40:57.376Z</time></trkpt><trkpt lat="45.5585355" lon="9.3013672"><ele>148.0</ele><time>2026-04-11T09:40:58.381Z</time></trkpt><trkpt lat="45.558622" lon="9.3014289"><ele>147.83333333333334</ele><time>2026-04-11T09:40:59.378Z</time></trkpt><trkpt lat="45.5587032" lon="9.3014855"><ele>147.66666666666669</ele><time>2026-04-11T09:41:00.378Z</time></trkpt><trkpt lat="45.5587799" lon="9.3015422"><ele>147.5</ele><time>2026-04-11T09:41:01.378Z</time></trkpt><trkpt lat="45.5588523" lon="9.3015984"><ele>147.33333333333334</ele><time>2026-04-11T09:41:02.376Z</time></trkpt><trkpt lat="45.5589183" lon="9.3016459"><ele>147.16666666666666</ele><time>2026-04-11T09:41:03.376Z</time></trkpt><trkpt lat="45.5589859" lon="9.3016953"><ele>147.0</ele><time>2026-04-11T09:41:04.379Z</time></trkpt><trkpt lat="45.5590528" lon="9.3017429"><ele>147.0</ele><time>2026-04-11T09:41:05.376Z</time></trkpt><trkpt lat="45.5591194" lon="9.3017844"><ele>147.0</ele><time>2026-04-11T09:41:06.373Z</time></trkpt><trkpt lat="45.5591771" lon="9.3018307"><ele>147.0</ele><time>2026-04-11T09:41:07.38Z</time></trkpt><trkpt lat="45.5592418" lon="9.3018911"><ele>147.0</ele><time>2026-04-11T09:41:10.378Z</time></trkpt><trkpt lat="45.5592802" lon="9.3020083"><ele>147.0</ele><time>2026-04-11T09:41:13.38Z</time></trkpt><trkpt lat="45.5593168" lon="9.3021308"><ele>147.0</ele><time>2026-04-11T09:41:15.376Z</time></trkpt><trkpt lat="45.5593944" lon="9.3022125"><ele>147.0</ele><time>2026-04-11T09:41:17.382Z</time></trkpt><trkpt lat="45.5595224" lon="9.3022277"><ele>147.0</ele><time>2026-04-11T09:41:19.373Z</time></trkpt><trkpt lat="45.5595953" lon="9.302235"><ele>147.0</ele><time>2026-04-11T09:41:20.374Z</time></trkpt><trkpt lat="45.5596753" lon="9.3022619"><ele>147.0</ele><time>2026-04-11T09:41:21.376Z</time></trkpt><trkpt lat="45.5597493" lon="9.3023084"><ele>147.0</ele><time>2026-04-11T09:41:22.377Z</time></trkpt><trkpt lat="45.5598096" lon="9.3023638"><ele>147.0</ele><time>2026-04-11T09:41:23.377Z</time></trkpt><trkpt lat="45.5598614" lon="9.3024215"><ele>147.4</ele><time>2026-04-11T09:41:24.374Z</time></trkpt><trkpt lat="45.5599413" lon="9.3025213"><ele>147.79999999999998</ele><time>2026-04-11T09:41:26.372Z</time></trkpt><trkpt lat="45.5599843" lon="9.3026317"><ele>148.2</ele><time>2026-04-11T09:41:28.37Z</time></trkpt><trkpt lat="45.5599838" lon="9.3027815"><ele>148.6</ele><time>2026-04-11T09:41:30.376Z</time></trkpt><trkpt lat="45.5600148" lon="9.3029613"><ele>149.0</ele><time>2026-04-11T09:41:32.375Z</time></trkpt><trkpt lat="45.5600697" lon="9.3030277"><ele>149.0</ele><time>2026-04-11T09:41:33.379Z</time></trkpt><trkpt lat="45.5601401" lon="9.3030557"><ele>149.0</ele><time>2026-04-11T09:41:34.371Z</time></trkpt><trkpt lat="45.5602062" lon="9.3030283"><ele>149.0</ele><time>2026-04-11T09:41:35.375Z</time></trkpt><trkpt lat="45.5602726" lon="9.3029623"><ele>149.0</ele><time>2026-04-11T09:41:36.37Z</time></trkpt><trkpt lat="45.5603452" lon="9.3028962"><ele>149.0</ele><time>2026-04-11T09:41:37.378Z</time></trkpt><trkpt lat="45.5604185" lon="9.3028663"><ele>149.0</ele><time>2026-04-11T09:41:38.372Z</time></trkpt><trkpt lat="45.560506" lon="9.302876"><ele>149.4</ele><time>2026-04-11T09:41:39.368Z</time></trkpt><trkpt lat="45.5605968" lon="9.3029174"><ele>149.8</ele><time>2026-04-11T09:41:40.382Z</time></trkpt><trkpt lat="45.560691" lon="9.3029859"><ele>150.2</ele><time>2026-04-11T09:41:41.372Z</time></trkpt><trkpt lat="45.5607823" lon="9.3030599"><ele>150.6</ele><time>2026-04-11T09:41:42.378Z</time></trkpt><trkpt lat="45.56088" lon="9.3031355"><ele>151.0</ele><time>2026-04-11T09:41:43.465Z</time></trkpt><trkpt lat="45.5609806" lon="9.3032107"><ele>151.0</ele><time>2026-04-11T09:41:44.376Z</time></trkpt><trkpt lat="45.5610811" lon="9.3032908"><ele>151.0</ele><time>2026-04-11T09:41:45.372Z</time></trkpt><trkpt lat="45.5611779" lon="9.3033643"><ele>151.0</ele><time>2026-04-11T09:41:46.379Z</time></trkpt><trkpt lat="45.5612762" lon="9.3034401"><ele>151.0</ele><time>2026-04-11T09:41:47.375Z</time></trkpt><trkpt lat="45.5613732" lon="9.303518"><ele>151.0</ele><time>2026-04-11T09:41:48.376Z</time></trkpt><trkpt lat="45.561466" lon="9.3035885"><ele>151.2</ele><time>2026-04-11T09:41:49.369Z</time></trkpt><trkpt lat="45.5615535" lon="9.3036519"><ele>151.39999999999998</ele><time>2026-04-11T09:41:50.372Z</time></trkpt><trkpt lat="45.5616443" lon="9.3037532"><ele>151.6</ele><time>2026-04-11T09:41:51.374Z</time></trkpt><trkpt lat="45.561744" lon="9.3038199"><ele>151.79999999999998</ele><time>2026-04-11T09:41:52.374Z</time></trkpt><trkpt lat="45.5618246" lon="9.3038696"><ele>152.0</ele><time>2026-04-11T09:41:53.377Z</time></trkpt><trkpt lat="45.5619227" lon="9.3039252"><ele>152.0</ele><time>2026-04-11T09:41:54.377Z</time></trkpt><trkpt lat="45.5620122" lon="9.3039933"><ele>152.0</ele><time>2026-04-11T09:41:55.376Z</time></trkpt><trkpt lat="45.5621034" lon="9.304055"><ele>152.0</ele><time>2026-04-11T09:41:56.376Z</time></trkpt><trkpt lat="45.5621924" lon="9.3041205"><ele>152.0</ele><time>2026-04-11T09:41:57.37Z</time></trkpt><trkpt lat="45.5622783" lon="9.3041856"><ele>152.0</ele><time>2026-04-11T09:41:58.375Z</time></trkpt><trkpt lat="45.5623635" lon="9.3042524"><ele>152.2</ele><time>2026-04-11T09:41:59.374Z</time></trkpt><trkpt lat="45.5624535" lon="9.3043222"><ele>152.39999999999998</ele><time>2026-04-11T09:42:00.376Z</time></trkpt><trkpt lat="45.5625486" lon="9.3043916"><ele>152.60000000000002</ele><time>2026-04-11T09:42:01.377Z</time></trkpt><trkpt lat="45.5626385" lon="9.3044545"><ele>152.8</ele><time>2026-04-11T09:42:02.375Z</time></trkpt><trkpt lat="45.562726" lon="9.3045159"><ele>153.0</ele><time>2026-04-11T09:42:03.377Z</time></trkpt><trkpt lat="45.5628068" lon="9.3045793"><ele>153.0</ele><time>2026-04-11T09:42:04.371Z</time></trkpt><trkpt lat="45.5628827" lon="9.304639"><ele>153.0</ele><time>2026-04-11T09:42:05.375Z</time></trkpt><trkpt lat="45.5629612" lon="9.304701"><ele>153.0</ele><time>2026-04-11T09:42:06.376Z</time></trkpt><trkpt lat="45.5630398" lon="9.3047666"><ele>153.0</ele><time>2026-04-11T09:42:07.374Z</time></trkpt><trkpt lat="45.5631198" lon="9.3048276"><ele>153.0</ele><time>2026-04-11T09:42:08.377Z</time></trkpt><trkpt lat="45.5631909" lon="9.3048938"><ele>153.0</ele><time>2026-04-11T09:42:09.38Z</time></trkpt><trkpt lat="45.563258" lon="9.3049544"><ele>153.33333333333334</ele><time>2026-04-11T09:42:10.377Z</time></trkpt><trkpt lat="45.5633178" lon="9.3050145"><ele>153.66666666666666</ele><time>2026-04-11T09:42:11.378Z</time></trkpt><trkpt lat="45.5633705" lon="9.3050674"><ele>154.0</ele><time>2026-04-11T09:42:12.377Z</time></trkpt><trkpt lat="45.5634489" lon="9.3051767"><ele>154.33333333333331</ele><time>2026-04-11T09:42:14.378Z</time></trkpt><trkpt lat="45.5634854" lon="9.3052541"><ele>154.66666666666666</ele><time>2026-04-11T09:42:15.377Z</time></trkpt><trkpt lat="45.5635231" lon="9.3053376"><ele>155.0</ele><time>2026-04-11T09:42:16.378Z</time></trkpt><trkpt lat="45.5635713" lon="9.3054083"><ele>155.0</ele><time>2026-04-11T09:42:17.374Z</time></trkpt><trkpt lat="45.5636303" lon="9.3054544"><ele>155.0</ele><time>2026-04-11T09:42:18.379Z</time></trkpt><trkpt lat="45.5636929" lon="9.3054764"><ele>155.0</ele><time>2026-04-11T09:42:19.381Z</time></trkpt><trkpt lat="45.5637746" lon="9.3054801"><ele>155.0</ele><time>2026-04-11T09:42:20.373Z</time></trkpt><trkpt lat="45.5638708" lon="9.3054905"><ele>155.0</ele><time>2026-04-11T09:42:21.377Z</time></trkpt><trkpt lat="45.5639824" lon="9.3055409"><ele>155.0</ele><time>2026-04-11T09:42:22.376Z</time></trkpt><trkpt lat="45.564108" lon="9.3056191"><ele>154.5</ele><time>2026-04-11T09:42:23.376Z</time></trkpt><trkpt lat="45.5642386" lon="9.3056999"><ele>154.0</ele><time>2026-04-11T09:42:24.377Z</time></trkpt><trkpt lat="45.5643769" lon="9.3057836"><ele>153.5</ele><time>2026-04-11T09:42:25.379Z</time></trkpt><trkpt lat="45.564507" lon="9.3058694"><ele>153.0</ele><time>2026-04-11T09:42:26.376Z</time></trkpt><trkpt lat="45.5646296" lon="9.3059478"><ele>153.0</ele><time>2026-04-11T09:42:27.371Z</time></trkpt><trkpt lat="45.5647422" lon="9.3060197"><ele>153.0</ele><time>2026-04-11T09:42:28.377Z</time></trkpt><trkpt lat="45.5648517" lon="9.3060898"><ele>153.0</ele><time>2026-04-11T09:42:29.378Z</time></trkpt><trkpt lat="45.5649612" lon="9.3061687"><ele>153.0</ele><time>2026-04-11T09:42:30.375Z</time></trkpt><trkpt lat="45.5650699" lon="9.3062509"><ele>153.0</ele><time>2026-04-11T09:42:31.378Z</time></trkpt><trkpt lat="45.5651811" lon="9.3063287"><ele>153.0</ele><time>2026-04-11T09:42:32.38Z</time></trkpt><trkpt lat="45.5652871" lon="9.3064051"><ele>153.0</ele><time>2026-04-11T09:42:33.381Z</time></trkpt><trkpt lat="45.5653934" lon="9.3064816"><ele>153.0</ele><time>2026-04-11T09:42:34.377Z</time></trkpt><trkpt lat="45.5655156" lon="9.3065666"><ele>153.0</ele><time>2026-04-11T09:42:35.379Z</time></trkpt><trkpt lat="45.5656522" lon="9.3066714"><ele>153.0</ele><time>2026-04-11T09:42:36.378Z</time></trkpt><trkpt lat="45.5657838" lon="9.3067775"><ele>153.0</ele><time>2026-04-11T09:42:37.377Z</time></trkpt><trkpt lat="45.5659052" lon="9.3068802"><ele>153.0</ele><time>2026-04-11T09:42:38.372Z</time></trkpt><trkpt lat="45.5660254" lon="9.3069765"><ele>153.0</ele><time>2026-04-11T09:42:39.376Z</time></trkpt><trkpt lat="45.5661388" lon="9.3070616"><ele>153.0</ele><time>2026-04-11T09:42:40.378Z</time></trkpt><trkpt lat="45.5662572" lon="9.3071433"><ele>153.0</ele><time>2026-04-11T09:42:41.376Z</time></trkpt><trkpt lat="45.5663653" lon="9.3072217"><ele>153.0</ele><time>2026-04-11T09:42:42.377Z</time></trkpt><trkpt lat="45.5664698" lon="9.3073012"><ele>152.75</ele><time>2026-04-11T09:42:43.379Z</time></trkpt><trkpt lat="45.5665685" lon="9.3073818"><ele>152.5</ele><time>2026-04-11T09:42:44.375Z</time></trkpt><trkpt lat="45.5666672" lon="9.3074685"><ele>152.25</ele><time>2026-04-11T09:42:45.378Z</time></trkpt><trkpt lat="45.5667657" lon="9.307562"><ele>152.0</ele><time>2026-04-11T09:42:46.377Z</time></trkpt><trkpt lat="45.5668606" lon="9.3076685"><ele>152.0</ele><time>2026-04-11T09:42:47.377Z</time></trkpt><trkpt lat="45.5669516" lon="9.3077775"><ele>152.0</ele><time>2026-04-11T09:42:48.376Z</time></trkpt><trkpt lat="45.5670447" lon="9.3078816"><ele>152.0</ele><time>2026-04-11T09:42:49.378Z</time></trkpt><trkpt lat="45.567144" lon="9.307986"><ele>152.0</ele><time>2026-04-11T09:42:50.376Z</time></trkpt><trkpt lat="45.5672422" lon="9.3080973"><ele>152.75</ele><time>2026-04-11T09:42:51.373Z</time></trkpt><trkpt lat="45.5673419" lon="9.3082111"><ele>153.5</ele><time>2026-04-11T09:42:52.377Z</time></trkpt><trkpt lat="45.5674359" lon="9.3083268"><ele>154.25</ele><time>2026-04-11T09:42:53.378Z</time></trkpt><trkpt lat="45.5675243" lon="9.3084346"><ele>155.0</ele><time>2026-04-11T09:42:54.376Z</time></trkpt><trkpt lat="45.5676117" lon="9.3085426"><ele>155.0</ele><time>2026-04-11T09:42:55.377Z</time></trkpt><trkpt lat="45.5676964" lon="9.3086493"><ele>155.0</ele><time>2026-04-11T09:42:56.377Z</time></trkpt><trkpt lat="45.5677791" lon="9.3087511"><ele>155.0</ele><time>2026-04-11T09:42:57.379Z</time></trkpt><trkpt lat="45.5678647" lon="9.3088562"><ele>155.0</ele><time>2026-04-11T09:42:58.407Z</time></trkpt><trkpt lat="45.5679486" lon="9.3089605"><ele>155.0</ele><time>2026-04-11T09:42:59.38Z</time></trkpt><trkpt lat="45.5680303" lon="9.3090622"><ele>154.8</ele><time>2026-04-11T09:43:00.379Z</time></trkpt><trkpt lat="45.5681048" lon="9.3091516"><ele>154.6</ele><time>2026-04-11T09:43:01.379Z</time></trkpt><trkpt lat="45.5681797" lon="9.3092425"><ele>154.4</ele><time>2026-04-11T09:43:02.374Z</time></trkpt><trkpt lat="45.5682505" lon="9.309332"><ele>154.2</ele><time>2026-04-11T09:43:03.377Z</time></trkpt><trkpt lat="45.5683199" lon="9.3094257"><ele>154.0</ele><time>2026-04-11T09:43:04.376Z</time></trkpt><trkpt lat="45.5683816" lon="9.3095119"><ele>154.0</ele><time>2026-04-11T09:43:05.379Z</time></trkpt><trkpt lat="45.5684418" lon="9.3095931"><ele>154.0</ele><time>2026-04-11T09:43:06.377Z</time></trkpt><trkpt lat="45.568507" lon="9.3096787"><ele>154.0</ele><time>2026-04-11T09:43:07.376Z</time></trkpt><trkpt lat="45.5685725" lon="9.3097637"><ele>154.0</ele><time>2026-04-11T09:43:08.376Z</time></trkpt><trkpt lat="45.5686369" lon="9.3098501"><ele>154.0</ele><time>2026-04-11T09:43:09.372Z</time></trkpt><trkpt lat="45.5687058" lon="9.3099378"><ele>154.0</ele><time>2026-04-11T09:43:10.376Z</time></trkpt><trkpt lat="45.5687786" lon="9.3100287"><ele>154.0</ele><time>2026-04-11T09:43:11.378Z</time></trkpt><trkpt lat="45.5688505" lon="9.3101227"><ele>154.0</ele><time>2026-04-11T09:43:12.377Z</time></trkpt><trkpt lat="45.568928" lon="9.3102215"><ele>154.0</ele><time>2026-04-11T09:43:13.381Z</time></trkpt><trkpt lat="45.5690038" lon="9.3103215"><ele>154.0</ele><time>2026-04-11T09:43:14.376Z</time></trkpt><trkpt lat="45.5690804" lon="9.310422"><ele>154.0</ele><time>2026-04-11T09:43:15.38Z</time></trkpt><trkpt lat="45.5691578" lon="9.3105219"><ele>154.4</ele><time>2026-04-11T09:43:16.378Z</time></trkpt><trkpt lat="45.5692336" lon="9.3106159"><ele>154.8</ele><time>2026-04-11T09:43:17.381Z</time></trkpt><trkpt lat="45.5693063" lon="9.3107127"><ele>155.2</ele><time>2026-04-11T09:43:18.376Z</time></trkpt><trkpt lat="45.5693842" lon="9.3108111"><ele>155.6</ele><time>2026-04-11T09:43:19.375Z</time></trkpt><trkpt lat="45.5694617" lon="9.3109102"><ele>156.0</ele><time>2026-04-11T09:43:20.377Z</time></trkpt><trkpt lat="45.5695384" lon="9.3110133"><ele>156.0</ele><time>2026-04-11T09:43:21.37Z</time></trkpt><trkpt lat="45.5696194" lon="9.3111165"><ele>156.0</ele><time>2026-04-11T09:43:22.374Z</time></trkpt><trkpt lat="45.5697026" lon="9.3112221"><ele>156.0</ele><time>2026-04-11T09:43:23.379Z</time></trkpt><trkpt lat="45.569781" lon="9.3113265"><ele>156.0</ele><time>2026-04-11T09:43:24.372Z</time></trkpt><trkpt lat="45.5698558" lon="9.3114123"><ele>156.0</ele><time>2026-04-11T09:43:25.379Z</time></trkpt><trkpt lat="45.5699258" lon="9.3114978"><ele>156.0</ele><time>2026-04-11T09:43:26.377Z</time></trkpt><trkpt lat="45.5700006" lon="9.3115842"><ele>156.0</ele><time>2026-04-11T09:43:27.371Z</time></trkpt><trkpt lat="45.5700726" lon="9.3116777"><ele>156.0</ele><time>2026-04-11T09:43:28.371Z</time></trkpt><trkpt lat="45.5701477" lon="9.3117733"><ele>156.0</ele><time>2026-04-11T09:43:29.374Z</time></trkpt><trkpt lat="45.5702205" lon="9.3118622"><ele>156.0</ele><time>2026-04-11T09:43:30.369Z</time></trkpt><trkpt lat="45.5702904" lon="9.3119503"><ele>156.0</ele><time>2026-04-11T09:43:31.371Z</time></trkpt><trkpt lat="45.5703627" lon="9.3120358"><ele>156.0</ele><time>2026-04-11T09:43:32.369Z</time></trkpt><trkpt lat="45.5704335" lon="9.3121269"><ele>156.0</ele><time>2026-04-11T09:43:33.37Z</time></trkpt><trkpt lat="45.5705072" lon="9.3122191"><ele>156.0</ele><time>2026-04-11T09:43:34.379Z</time></trkpt><trkpt lat="45.5705833" lon="9.3123161"><ele>156.0</ele><time>2026-04-11T09:43:35.372Z</time></trkpt><trkpt lat="45.5706637" lon="9.3124204"><ele>156.0</ele><time>2026-04-11T09:43:36.371Z</time></trkpt><trkpt lat="45.5707481" lon="9.3125259"><ele>156.0</ele><time>2026-04-11T09:43:37.371Z</time></trkpt><trkpt lat="45.5708339" lon="9.3126336"><ele>156.0</ele><time>2026-04-11T09:43:38.378Z</time></trkpt><trkpt lat="45.5709203" lon="9.312744"><ele>156.0</ele><time>2026-04-11T09:43:39.373Z</time></trkpt><trkpt lat="45.5710013" lon="9.3128463"><ele>156.0</ele><time>2026-04-11T09:43:40.379Z</time></trkpt><trkpt lat="45.5710775" lon="9.3129423"><ele>156.0</ele><time>2026-04-11T09:43:41.371Z</time></trkpt><trkpt lat="45.5711497" lon="9.3130322"><ele>156.0</ele><time>2026-04-11T09:43:42.38Z</time></trkpt><trkpt lat="45.5712233" lon="9.3131264"><ele>156.0</ele><time>2026-04-11T09:43:43.371Z</time></trkpt><trkpt lat="45.571304" lon="9.3132272"><ele>156.0</ele><time>2026-04-11T09:43:44.374Z</time></trkpt><trkpt lat="45.5713777" lon="9.3133336"><ele>156.66666666666666</ele><time>2026-04-11T09:43:45.373Z</time></trkpt><trkpt lat="45.5714607" lon="9.3134406"><ele>157.33333333333331</ele><time>2026-04-11T09:43:46.379Z</time></trkpt><trkpt lat="45.5715451" lon="9.3135528"><ele>158.0</ele><time>2026-04-11T09:43:47.528Z</time></trkpt><trkpt lat="45.5717202" lon="9.3137843"><ele>158.0</ele><time>2026-04-11T09:43:49.402Z</time></trkpt><trkpt lat="45.5718077" lon="9.313901"><ele>158.0</ele><time>2026-04-11T09:43:50.378Z</time></trkpt><trkpt lat="45.5718932" lon="9.3140113"><ele>158.0</ele><time>2026-04-11T09:43:51.374Z</time></trkpt><trkpt lat="45.5719765" lon="9.3141198"><ele>158.0</ele><time>2026-04-11T09:43:52.372Z</time></trkpt><trkpt lat="45.5720662" lon="9.3142299"><ele>157.25</ele><time>2026-04-11T09:43:53.371Z</time></trkpt><trkpt lat="45.5721544" lon="9.3143448"><ele>156.5</ele><time>2026-04-11T09:43:54.371Z</time></trkpt><trkpt lat="45.5722448" lon="9.3144578"><ele>155.75</ele><time>2026-04-11T09:43:55.372Z</time></trkpt><trkpt lat="45.5723415" lon="9.3145773"><ele>155.0</ele><time>2026-04-11T09:43:56.376Z</time></trkpt><trkpt lat="45.5724357" lon="9.3146959"><ele>155.5</ele><time>2026-04-11T09:43:57.373Z</time></trkpt><trkpt lat="45.5725254" lon="9.3148111"><ele>156.0</ele><time>2026-04-11T09:43:58.371Z</time></trkpt><trkpt lat="45.5726162" lon="9.3149256"><ele>156.5</ele><time>2026-04-11T09:43:59.377Z</time></trkpt><trkpt lat="45.5727152" lon="9.3150488"><ele>157.0</ele><time>2026-04-11T09:44:00.371Z</time></trkpt><trkpt lat="45.5728187" lon="9.3151792"><ele>156.75</ele><time>2026-04-11T09:44:01.371Z</time></trkpt><trkpt lat="45.5729201" lon="9.315308"><ele>156.5</ele><time>2026-04-11T09:44:02.369Z</time></trkpt><trkpt lat="45.5730283" lon="9.3154382"><ele>156.25</ele><time>2026-04-11T09:44:03.37Z</time></trkpt><trkpt lat="45.5731369" lon="9.3155668"><ele>156.0</ele><time>2026-04-11T09:44:04.37Z</time></trkpt><trkpt lat="45.5732829" lon="9.315752"><ele>156.0</ele><time>2026-04-11T09:44:05.377Z</time></trkpt><trkpt lat="45.573404" lon="9.3159091"><ele>156.0</ele><time>2026-04-11T09:44:06.371Z</time></trkpt><trkpt lat="45.573527" lon="9.3160572"><ele>156.0</ele><time>2026-04-11T09:44:07.373Z</time></trkpt><trkpt lat="45.5736602" lon="9.3162187"><ele>155.33333333333334</ele><time>2026-04-11T09:44:08.37Z</time></trkpt><trkpt lat="45.5737983" lon="9.3164119"><ele>154.66666666666669</ele><time>2026-04-11T09:44:09.373Z</time></trkpt><trkpt lat="45.5739488" lon="9.3166274"><ele>154.0</ele><time>2026-04-11T09:44:10.374Z</time></trkpt><trkpt lat="45.5741013" lon="9.3168259"><ele>154.0</ele><time>2026-04-11T09:44:11.37Z</time></trkpt><trkpt lat="45.5742585" lon="9.3170331"><ele>154.0</ele><time>2026-04-11T09:44:12.369Z</time></trkpt><trkpt lat="45.5744103" lon="9.3172268"><ele>154.0</ele><time>2026-04-11T09:44:13.364Z</time></trkpt><trkpt lat="45.5745551" lon="9.3174103"><ele>156.33333333333334</ele><time>2026-04-11T09:44:14.374Z</time></trkpt><trkpt lat="45.5746925" lon="9.3175844"><ele>158.66666666666666</ele><time>2026-04-11T09:44:15.37Z</time></trkpt><trkpt lat="45.574824" lon="9.3177501"><ele>161.0</ele><time>2026-04-11T09:44:16.373Z</time></trkpt><trkpt lat="45.5749478" lon="9.317903"><ele>161.0</ele><time>2026-04-11T09:44:17.37Z</time></trkpt><trkpt lat="45.5750626" lon="9.3180528"><ele>161.0</ele><time>2026-04-11T09:44:18.377Z</time></trkpt><trkpt lat="45.5751748" lon="9.3181982"><ele>161.0</ele><time>2026-04-11T09:44:19.369Z</time></trkpt><trkpt lat="45.5752842" lon="9.3183365"><ele>160.0</ele><time>2026-04-11T09:44:20.369Z</time></trkpt><trkpt lat="45.5753927" lon="9.3184803"><ele>159.0</ele><time>2026-04-11T09:44:21.394Z</time></trkpt><trkpt lat="45.5755026" lon="9.318625"><ele>158.0</ele><time>2026-04-11T09:44:22.379Z</time></trkpt><trkpt lat="45.5756164" lon="9.318772"><ele>158.0</ele><time>2026-04-11T09:44:23.371Z</time></trkpt><trkpt lat="45.5757311" lon="9.3189203"><ele>158.0</ele><time>2026-04-11T09:44:24.372Z</time></trkpt><trkpt lat="45.5758467" lon="9.3190661"><ele>158.0</ele><time>2026-04-11T09:44:25.367Z</time></trkpt><trkpt lat="45.5759543" lon="9.3192036"><ele>158.0</ele><time>2026-04-11T09:44:26.379Z</time></trkpt><trkpt lat="45.5760606" lon="9.3193386"><ele>158.0</ele><time>2026-04-11T09:44:27.379Z</time></trkpt><trkpt lat="45.5761632" lon="9.3194716"><ele>158.0</ele><time>2026-04-11T09:44:28.368Z</time></trkpt><trkpt lat="45.5762672" lon="9.3196091"><ele>158.0</ele><time>2026-04-11T09:44:29.377Z</time></trkpt><trkpt lat="45.5763757" lon="9.3197469"><ele>158.5</ele><time>2026-04-11T09:44:30.37Z</time></trkpt><trkpt lat="45.5764831" lon="9.3198821"><ele>159.0</ele><time>2026-04-11T09:44:31.369Z</time></trkpt><trkpt lat="45.5765877" lon="9.3200108"><ele>159.5</ele><time>2026-04-11T09:44:32.373Z</time></trkpt><trkpt lat="45.5766916" lon="9.320133"><ele>160.0</ele><time>2026-04-11T09:44:33.374Z</time></trkpt><trkpt lat="45.5767805" lon="9.3202531"><ele>160.0</ele><time>2026-04-11T09:44:34.393Z</time></trkpt><trkpt lat="45.5768665" lon="9.3203693"><ele>160.0</ele><time>2026-04-11T09:44:35.378Z</time></trkpt><trkpt lat="45.5769524" lon="9.3204774"><ele>160.0</ele><time>2026-04-11T09:44:36.376Z</time></trkpt><trkpt lat="45.5770404" lon="9.3205893"><ele>160.0</ele><time>2026-04-11T09:44:37.373Z</time></trkpt><trkpt lat="45.5771286" lon="9.3207048"><ele>159.25</ele><time>2026-04-11T09:44:38.373Z</time></trkpt><trkpt lat="45.5772147" lon="9.3208154"><ele>158.5</ele><time>2026-04-11T09:44:39.377Z</time></trkpt><trkpt lat="45.577304" lon="9.3209276"><ele>157.75</ele><time>2026-04-11T09:44:40.374Z</time></trkpt><trkpt lat="45.5773907" lon="9.3210399"><ele>157.0</ele><time>2026-04-11T09:44:41.376Z</time></trkpt><trkpt lat="45.5774825" lon="9.3211546"><ele>157.0</ele><time>2026-04-11T09:44:42.369Z</time></trkpt><trkpt lat="45.5775737" lon="9.3212761"><ele>157.0</ele><time>2026-04-11T09:44:43.388Z</time></trkpt><trkpt lat="45.5776698" lon="9.3213968"><ele>157.0</ele><time>2026-04-11T09:44:44.372Z</time></trkpt><trkpt lat="45.5777635" lon="9.3215164"><ele>157.0</ele><time>2026-04-11T09:44:45.403Z</time></trkpt><trkpt lat="45.5778582" lon="9.321637"><ele>157.5</ele><time>2026-04-11T09:44:46.376Z</time></trkpt><trkpt lat="45.577956" lon="9.3217663"><ele>158.0</ele><time>2026-04-11T09:44:47.374Z</time></trkpt><trkpt lat="45.5780583" lon="9.3218945"><ele>158.5</ele><time>2026-04-11T09:44:48.376Z</time></trkpt><trkpt lat="45.5781611" lon="9.3220246"><ele>159.0</ele><time>2026-04-11T09:44:49.372Z</time></trkpt><trkpt lat="45.5782649" lon="9.3221604"><ele>159.0</ele><time>2026-04-11T09:44:50.378Z</time></trkpt><trkpt lat="45.5783668" lon="9.3222995"><ele>159.0</ele><time>2026-04-11T09:44:51.373Z</time></trkpt><trkpt lat="45.5784732" lon="9.3224371"><ele>159.0</ele><time>2026-04-11T09:44:52.376Z</time></trkpt><trkpt lat="45.5785792" lon="9.3225796"><ele>159.0</ele><time>2026-04-11T09:44:53.376Z</time></trkpt><trkpt lat="45.5786866" lon="9.3227218"><ele>159.5</ele><time>2026-04-11T09:44:54.376Z</time></trkpt><trkpt lat="45.5787942" lon="9.3228637"><ele>160.0</ele><time>2026-04-11T09:44:55.374Z</time></trkpt><trkpt lat="45.5788988" lon="9.3230056"><ele>160.5</ele><time>2026-04-11T09:44:56.369Z</time></trkpt><trkpt lat="45.5790003" lon="9.3231458"><ele>161.0</ele><time>2026-04-11T09:44:57.367Z</time></trkpt><trkpt lat="45.5790919" lon="9.3232791"><ele>161.0</ele><time>2026-04-11T09:44:58.379Z</time></trkpt><trkpt lat="45.5791831" lon="9.3234112"><ele>161.0</ele><time>2026-04-11T09:44:59.371Z</time></trkpt><trkpt lat="45.579281" lon="9.3235425"><ele>161.0</ele><time>2026-04-11T09:45:00.37Z</time></trkpt><trkpt lat="45.5793774" lon="9.3236681"><ele>161.0</ele><time>2026-04-11T09:45:01.372Z</time></trkpt><trkpt lat="45.5794757" lon="9.323802"><ele>161.5</ele><time>2026-04-11T09:45:02.371Z</time></trkpt><trkpt lat="45.579575" lon="9.3239348"><ele>162.0</ele><time>2026-04-11T09:45:03.369Z</time></trkpt><trkpt lat="45.5796724" lon="9.3240633"><ele>162.5</ele><time>2026-04-11T09:45:04.4Z</time></trkpt><trkpt lat="45.5797675" lon="9.3241939"><ele>163.0</ele><time>2026-04-11T09:45:05.365Z</time></trkpt><trkpt lat="45.579871" lon="9.3243318"><ele>163.0</ele><time>2026-04-11T09:45:06.369Z</time></trkpt><trkpt lat="45.5799863" lon="9.3244609"><ele>163.0</ele><time>2026-04-11T09:45:07.37Z</time></trkpt><trkpt lat="45.5801057" lon="9.3245892"><ele>163.0</ele><time>2026-04-11T09:45:08.401Z</time></trkpt><trkpt lat="45.5802327" lon="9.3247219"><ele>163.33333333333334</ele><time>2026-04-11T09:45:09.37Z</time></trkpt><trkpt lat="45.5803835" lon="9.324862"><ele>163.66666666666666</ele><time>2026-04-11T09:45:10.368Z</time></trkpt><trkpt lat="45.5805519" lon="9.3250241"><ele>164.0</ele><time>2026-04-11T09:45:11.373Z</time></trkpt><trkpt lat="45.5807256" lon="9.3251963"><ele>164.0</ele><time>2026-04-11T09:45:12.396Z</time></trkpt><trkpt lat="45.5809098" lon="9.3253863"><ele>164.0</ele><time>2026-04-11T09:45:13.373Z</time></trkpt><trkpt lat="45.581081" lon="9.3255625"><ele>164.0</ele><time>2026-04-11T09:45:14.376Z</time></trkpt><trkpt lat="45.5812422" lon="9.3257299"><ele>164.0</ele><time>2026-04-11T09:45:15.369Z</time></trkpt><trkpt lat="45.581396" lon="9.3258851"><ele>164.0</ele><time>2026-04-11T09:45:16.376Z</time></trkpt><trkpt lat="45.5815324" lon="9.3260214"><ele>164.0</ele><time>2026-04-11T09:45:17.376Z</time></trkpt><trkpt lat="45.5816523" lon="9.3261401"><ele>164.0</ele><time>2026-04-11T09:45:18.369Z</time></trkpt><trkpt lat="45.5817607" lon="9.3262527"><ele>164.0</ele><time>2026-04-11T09:45:19.374Z</time></trkpt><trkpt lat="45.5818631" lon="9.3263631"><ele>164.0</ele><time>2026-04-11T09:45:20.37Z</time></trkpt><trkpt lat="45.581961" lon="9.3264599"><ele>164.0</ele><time>2026-04-11T09:45:21.374Z</time></trkpt><trkpt lat="45.5820497" lon="9.3265506"><ele>163.83333333333331</ele><time>2026-04-11T09:45:22.397Z</time></trkpt><trkpt lat="45.5821341" lon="9.3266369"><ele>163.66666666666666</ele><time>2026-04-11T09:45:23.377Z</time></trkpt><trkpt lat="45.5822116" lon="9.3267167"><ele>163.5</ele><time>2026-04-11T09:45:24.378Z</time></trkpt><trkpt lat="45.5822837" lon="9.3267934"><ele>163.33333333333334</ele><time>2026-04-11T09:45:25.373Z</time></trkpt><trkpt lat="45.5823471" lon="9.3268606"><ele>163.16666666666669</ele><time>2026-04-11T09:45:26.371Z</time></trkpt><trkpt lat="45.5824067" lon="9.3269187"><ele>163.0</ele><time>2026-04-11T09:45:27.466Z</time></trkpt><trkpt lat="45.5824965" lon="9.3270218"><ele>163.0</ele><time>2026-04-11T09:45:29.375Z</time></trkpt><trkpt lat="45.5825705" lon="9.3271619"><ele>163.0</ele><time>2026-04-11T09:45:31.373Z</time></trkpt><trkpt lat="45.5826108" lon="9.327247"><ele>163.0</ele><time>2026-04-11T09:45:32.377Z</time></trkpt><trkpt lat="45.5826666" lon="9.3273204"><ele>163.0</ele><time>2026-04-11T09:45:33.373Z</time></trkpt><trkpt lat="45.5827434" lon="9.3273729"><ele>163.0</ele><time>2026-04-11T09:45:34.378Z</time></trkpt><trkpt lat="45.5828369" lon="9.3274285"><ele>163.75</ele><time>2026-04-11T09:45:35.37Z</time></trkpt><trkpt lat="45.5829317" lon="9.3275002"><ele>164.5</ele><time>2026-04-11T09:45:36.38Z</time></trkpt><trkpt lat="45.5830312" lon="9.327585"><ele>165.25</ele><time>2026-04-11T09:45:37.375Z</time></trkpt><trkpt lat="45.5831283" lon="9.3276823"><ele>166.0</ele><time>2026-04-11T09:45:38.367Z</time></trkpt><trkpt lat="45.583229" lon="9.3277858"><ele>166.0</ele><time>2026-04-11T09:45:39.372Z</time></trkpt><trkpt lat="45.5833381" lon="9.3278957"><ele>166.0</ele><time>2026-04-11T09:45:40.378Z</time></trkpt><trkpt lat="45.5834511" lon="9.3280094"><ele>166.0</ele><time>2026-04-11T09:45:41.372Z</time></trkpt><trkpt lat="45.5835611" lon="9.3281306"><ele>166.0</ele><time>2026-04-11T09:45:42.37Z</time></trkpt><trkpt lat="45.5836754" lon="9.3282459"><ele>167.25</ele><time>2026-04-11T09:45:43.371Z</time></trkpt><trkpt lat="45.5837907" lon="9.3283643"><ele>168.5</ele><time>2026-04-11T09:45:44.377Z</time></trkpt><trkpt lat="45.583905" lon="9.3284815"><ele>169.75</ele><time>2026-04-11T09:45:45.372Z</time></trkpt><trkpt lat="45.584017" lon="9.3285999"><ele>171.0</ele><time>2026-04-11T09:45:46.366Z</time></trkpt><trkpt lat="45.5841266" lon="9.3287147"><ele>171.0</ele><time>2026-04-11T09:45:47.367Z</time></trkpt><trkpt lat="45.5842375" lon="9.32883"><ele>171.0</ele><time>2026-04-11T09:45:48.365Z</time></trkpt><trkpt lat="45.5843506" lon="9.3289439"><ele>171.0</ele><time>2026-04-11T09:45:49.37Z</time></trkpt><trkpt lat="45.5844656" lon="9.3290629"><ele>171.0</ele><time>2026-04-11T09:45:50.37Z</time></trkpt><trkpt lat="45.5845805" lon="9.3291865"><ele>170.25</ele><time>2026-04-11T09:45:51.374Z</time></trkpt><trkpt lat="45.5846977" lon="9.3293051"><ele>169.5</ele><time>2026-04-11T09:45:52.369Z</time></trkpt><trkpt lat="45.5848157" lon="9.3294248"><ele>168.75</ele><time>2026-04-11T09:45:53.378Z</time></trkpt><trkpt lat="45.5849354" lon="9.3295473"><ele>168.0</ele><time>2026-04-11T09:45:54.369Z</time></trkpt><trkpt lat="45.5850562" lon="9.3296719"><ele>168.0</ele><time>2026-04-11T09:45:55.374Z</time></trkpt><trkpt lat="45.5851718" lon="9.3297858"><ele>168.0</ele><time>2026-04-11T09:45:56.374Z</time></trkpt><trkpt lat="45.585286" lon="9.3298876"><ele>168.0</ele><time>2026-04-11T09:45:57.378Z</time></trkpt><trkpt lat="45.5854072" lon="9.3299732"><ele>168.0</ele><time>2026-04-11T09:45:58.367Z</time></trkpt><trkpt lat="45.5855365" lon="9.3300359"><ele>168.25</ele><time>2026-04-11T09:45:59.367Z</time></trkpt><trkpt lat="45.5856682" lon="9.3300813"><ele>168.5</ele><time>2026-04-11T09:46:00.37Z</time></trkpt><trkpt lat="45.5858008" lon="9.3301209"><ele>168.75</ele><time>2026-04-11T09:46:01.38Z</time></trkpt><trkpt lat="45.5859318" lon="9.3301579"><ele>169.0</ele><time>2026-04-11T09:46:02.369Z</time></trkpt><trkpt lat="45.586062" lon="9.3301911"><ele>168.5</ele><time>2026-04-11T09:46:03.379Z</time></trkpt><trkpt lat="45.586185" lon="9.3302223"><ele>168.0</ele><time>2026-04-11T09:46:04.375Z</time></trkpt><trkpt lat="45.5863031" lon="9.3302499"><ele>167.5</ele><time>2026-04-11T09:46:05.379Z</time></trkpt><trkpt lat="45.5864083" lon="9.3302787"><ele>167.0</ele><time>2026-04-11T09:46:06.372Z</time></trkpt><trkpt lat="45.5865079" lon="9.3303046"><ele>167.0</ele><time>2026-04-11T09:46:07.373Z</time></trkpt><trkpt lat="45.5865954" lon="9.3303314"><ele>167.0</ele><time>2026-04-11T09:46:08.372Z</time></trkpt><trkpt lat="45.5866694" lon="9.3303497"><ele>167.0</ele><time>2026-04-11T09:46:09.379Z</time></trkpt><trkpt lat="45.5867331" lon="9.3303616"><ele>167.0</ele><time>2026-04-11T09:46:10.372Z</time></trkpt><trkpt lat="45.5868169" lon="9.3303877"><ele>167.0</ele><time>2026-04-11T09:46:12.365Z</time></trkpt><trkpt lat="45.5868822" lon="9.3304255"><ele>167.0</ele><time>2026-04-11T09:46:19.37Z</time></trkpt><trkpt lat="45.5869725" lon="9.3305154"><ele>167.0</ele><time>2026-04-11T09:46:25.387Z</time></trkpt><trkpt lat="45.5870925" lon="9.3305638"><ele>167.0</ele><time>2026-04-11T09:46:27.368Z</time></trkpt><trkpt lat="45.5871843" lon="9.3305525"><ele>167.0</ele><time>2026-04-11T09:46:28.366Z</time></trkpt><trkpt lat="45.5872859" lon="9.330544"><ele>167.0</ele><time>2026-04-11T09:46:29.379Z</time></trkpt><trkpt lat="45.5873872" lon="9.3305461"><ele>167.0</ele><time>2026-04-11T09:46:30.369Z</time></trkpt><trkpt lat="45.5874907" lon="9.3305575"><ele>167.5</ele><time>2026-04-11T09:46:31.371Z</time></trkpt><trkpt lat="45.5875859" lon="9.3305695"><ele>168.0</ele><time>2026-04-11T09:46:32.369Z</time></trkpt><trkpt lat="45.5876703" lon="9.3305864"><ele>168.5</ele><time>2026-04-11T09:46:33.37Z</time></trkpt><trkpt lat="45.5877539" lon="9.3306027"><ele>169.0</ele><time>2026-04-11T09:46:34.37Z</time></trkpt><trkpt lat="45.5878372" lon="9.3306196"><ele>169.5</ele><time>2026-04-11T09:46:35.38Z</time></trkpt><trkpt lat="45.5879221" lon="9.3306372"><ele>170.0</ele><time>2026-04-11T09:46:36.37Z</time></trkpt><trkpt lat="45.5880059" lon="9.3306604"><ele>170.0</ele><time>2026-04-11T09:46:37.379Z</time></trkpt><trkpt lat="45.588093" lon="9.3306805"><ele>170.0</ele><time>2026-04-11T09:46:38.373Z</time></trkpt><trkpt lat="45.588178" lon="9.3307012"><ele>170.0</ele><time>2026-04-11T09:46:39.372Z</time></trkpt><trkpt lat="45.5882599" lon="9.3307205"><ele>170.0</ele><time>2026-04-11T09:46:40.372Z</time></trkpt><trkpt lat="45.58834" lon="9.3307364"><ele>170.0</ele><time>2026-04-11T09:46:41.38Z</time></trkpt><trkpt lat="45.5884186" lon="9.3307531"><ele>170.0</ele><time>2026-04-11T09:46:42.371Z</time></trkpt><trkpt lat="45.5884942" lon="9.3307727"><ele>170.0</ele><time>2026-04-11T09:46:43.369Z</time></trkpt><trkpt lat="45.5885679" lon="9.3307993"><ele>170.0</ele><time>2026-04-11T09:46:44.379Z</time></trkpt><trkpt lat="45.588638" lon="9.3308192"><ele>170.0</ele><time>2026-04-11T09:46:45.37Z</time></trkpt><trkpt lat="45.5887041" lon="9.3308345"><ele>170.0</ele><time>2026-04-11T09:46:46.369Z</time></trkpt><trkpt lat="45.5888149" lon="9.3308655"><ele>170.0</ele><time>2026-04-11T09:46:48.371Z</time></trkpt><trkpt lat="45.5889133" lon="9.3308916"><ele>170.0</ele><time>2026-04-11T09:46:50.372Z</time></trkpt><trkpt lat="45.5890309" lon="9.3309258"><ele>170.4</ele><time>2026-04-11T09:46:52.378Z</time></trkpt><trkpt lat="45.5891402" lon="9.3309577"><ele>170.8</ele><time>2026-04-11T09:46:54.379Z</time></trkpt><trkpt lat="45.5892348" lon="9.3309848"><ele>171.2</ele><time>2026-04-11T09:46:56.373Z</time></trkpt><trkpt lat="45.5893041" lon="9.3310013"><ele>171.6</ele><time>2026-04-11T09:46:58.381Z</time></trkpt><trkpt lat="45.5893825" lon="9.3310173"><ele>172.0</ele><time>2026-04-11T09:47:01.372Z</time></trkpt><trkpt lat="45.5894791" lon="9.3310231"><ele>172.33333333333334</ele><time>2026-04-11T09:47:04.372Z</time></trkpt><trkpt lat="45.5895879" lon="9.3310564"><ele>172.66666666666669</ele><time>2026-04-11T09:47:06.381Z</time></trkpt><trkpt lat="45.589649" lon="9.331083"><ele>173.0</ele><time>2026-04-11T09:47:07.37Z</time></trkpt><trkpt lat="45.5897084" lon="9.3311238"><ele>173.33333333333334</ele><time>2026-04-11T09:47:08.379Z</time></trkpt><trkpt lat="45.5897685" lon="9.3311632"><ele>173.66666666666666</ele><time>2026-04-11T09:47:09.37Z</time></trkpt><trkpt lat="45.5898367" lon="9.3312059"><ele>174.0</ele><time>2026-04-11T09:47:10.376Z</time></trkpt><trkpt lat="45.5899112" lon="9.3312567"><ele>174.0</ele><time>2026-04-11T09:47:11.367Z</time></trkpt><trkpt lat="45.589975" lon="9.3313103"><ele>174.0</ele><time>2026-04-11T09:47:12.37Z</time></trkpt><trkpt lat="45.5900317" lon="9.3313631"><ele>174.0</ele><time>2026-04-11T09:47:13.368Z</time></trkpt><trkpt lat="45.5900941" lon="9.3314274"><ele>174.0</ele><time>2026-04-11T09:47:14.366Z</time></trkpt><trkpt lat="45.5901548" lon="9.3314997"><ele>174.0</ele><time>2026-04-11T09:47:15.38Z</time></trkpt><trkpt lat="45.5902121" lon="9.3315606"><ele>174.0</ele><time>2026-04-11T09:47:16.368Z</time></trkpt><trkpt lat="45.5902755" lon="9.3316306"><ele>174.0</ele><time>2026-04-11T09:47:17.372Z</time></trkpt><trkpt lat="45.5903377" lon="9.3316924"><ele>174.0</ele><time>2026-04-11T09:47:18.376Z</time></trkpt><trkpt lat="45.590396" lon="9.3317568"><ele>174.0</ele><time>2026-04-11T09:47:19.373Z</time></trkpt><trkpt lat="45.5904522" lon="9.3318212"><ele>174.0</ele><time>2026-04-11T09:47:20.371Z</time></trkpt><trkpt lat="45.5905107" lon="9.3318865"><ele>174.0</ele><time>2026-04-11T09:47:21.367Z</time></trkpt><trkpt lat="45.590568" lon="9.3319546"><ele>174.0</ele><time>2026-04-11T09:47:22.376Z</time></trkpt><trkpt lat="45.5906299" lon="9.3320262"><ele>174.0</ele><time>2026-04-11T09:47:23.37Z</time></trkpt><trkpt lat="45.5906923" lon="9.3321005"><ele>174.0</ele><time>2026-04-11T09:47:24.367Z</time></trkpt><trkpt lat="45.5907565" lon="9.33217"><ele>174.0</ele><time>2026-04-11T09:47:25.376Z</time></trkpt><trkpt lat="45.5908188" lon="9.3322393"><ele>174.0</ele><time>2026-04-11T09:47:26.374Z</time></trkpt><trkpt lat="45.5908816" lon="9.3323067"><ele>174.0</ele><time>2026-04-11T09:47:27.374Z</time></trkpt><trkpt lat="45.5909454" lon="9.3323727"><ele>174.0</ele><time>2026-04-11T09:47:28.375Z</time></trkpt><trkpt lat="45.5910124" lon="9.332446"><ele>174.0</ele><time>2026-04-11T09:47:29.37Z</time></trkpt><trkpt lat="45.5910766" lon="9.3325346"><ele>174.16666666666666</ele><time>2026-04-11T09:47:30.373Z</time></trkpt><trkpt lat="45.5911477" lon="9.3326146"><ele>174.33333333333334</ele><time>2026-04-11T09:47:31.377Z</time></trkpt><trkpt lat="45.5912147" lon="9.3326888"><ele>174.5</ele><time>2026-04-11T09:47:32.368Z</time></trkpt><trkpt lat="45.5912767" lon="9.332763"><ele>174.66666666666669</ele><time>2026-04-11T09:47:33.378Z</time></trkpt><trkpt lat="45.59134" lon="9.3328386"><ele>174.83333333333334</ele><time>2026-04-11T09:47:34.369Z</time></trkpt><trkpt lat="45.5914013" lon="9.3329143"><ele>175.0</ele><time>2026-04-11T09:47:35.374Z</time></trkpt><trkpt lat="45.5914647" lon="9.3329818"><ele>175.0</ele><time>2026-04-11T09:47:36.374Z</time></trkpt><trkpt lat="45.5915248" lon="9.3330408"><ele>175.0</ele><time>2026-04-11T09:47:37.374Z</time></trkpt><trkpt lat="45.5915825" lon="9.3331009"><ele>175.0</ele><time>2026-04-11T09:47:38.37Z</time></trkpt><trkpt lat="45.5916384" lon="9.3331646"><ele>175.0</ele><time>2026-04-11T09:47:39.37Z</time></trkpt><trkpt lat="45.5916933" lon="9.3332196"><ele>175.0</ele><time>2026-04-11T09:47:40.375Z</time></trkpt><trkpt lat="45.5917813" lon="9.3333197"><ele>175.0</ele><time>2026-04-11T09:47:42.375Z</time></trkpt><trkpt lat="45.591853" lon="9.3334167"><ele>175.0</ele><time>2026-04-11T09:47:44.376Z</time></trkpt><trkpt lat="45.5919329" lon="9.333526"><ele>175.0</ele><time>2026-04-11T09:47:46.374Z</time></trkpt><trkpt lat="45.5920213" lon="9.3336086"><ele>175.0</ele><time>2026-04-11T09:47:48.369Z</time></trkpt><trkpt lat="45.5921069" lon="9.3336723"><ele>175.0</ele><time>2026-04-11T09:47:50.379Z</time></trkpt><trkpt lat="45.5921865" lon="9.3337483"><ele>175.0</ele><time>2026-04-11T09:47:52.376Z</time></trkpt><trkpt lat="45.5922651" lon="9.3338412"><ele>175.16666666666669</ele><time>2026-04-11T09:47:54.376Z</time></trkpt><trkpt lat="45.5923642" lon="9.333948"><ele>175.33333333333334</ele><time>2026-04-11T09:47:56.363Z</time></trkpt><trkpt lat="45.5924199" lon="9.3340111"><ele>175.5</ele><time>2026-04-11T09:47:57.372Z</time></trkpt><trkpt lat="45.5924789" lon="9.3340816"><ele>175.66666666666666</ele><time>2026-04-11T09:47:58.375Z</time></trkpt><trkpt lat="45.5925366" lon="9.3341464"><ele>175.83333333333331</ele><time>2026-04-11T09:47:59.369Z</time></trkpt><trkpt lat="45.5925965" lon="9.3342119"><ele>176.0</ele><time>2026-04-11T09:48:00.373Z</time></trkpt><trkpt lat="45.5926537" lon="9.3342823"><ele>176.0</ele><time>2026-04-11T09:48:01.375Z</time></trkpt><trkpt lat="45.592719" lon="9.3343512"><ele>176.0</ele><time>2026-04-11T09:48:02.37Z</time></trkpt><trkpt lat="45.592788" lon="9.3344256"><ele>176.0</ele><time>2026-04-11T09:48:03.371Z</time></trkpt><trkpt lat="45.5928621" lon="9.334508"><ele>176.0</ele><time>2026-04-11T09:48:04.37Z</time></trkpt><trkpt lat="45.5929353" lon="9.3345889"><ele>176.0</ele><time>2026-04-11T09:48:05.374Z</time></trkpt><trkpt lat="45.5930142" lon="9.3346711"><ele>175.75</ele><time>2026-04-11T09:48:06.376Z</time></trkpt><trkpt lat="45.5930974" lon="9.3347663"><ele>175.5</ele><time>2026-04-11T09:48:07.374Z</time></trkpt><trkpt lat="45.5931907" lon="9.3348609"><ele>175.25</ele><time>2026-04-11T09:48:08.37Z</time></trkpt><trkpt lat="45.5932845" lon="9.3349647"><ele>175.0</ele><time>2026-04-11T09:48:09.375Z</time></trkpt><trkpt lat="45.5933834" lon="9.3350743"><ele>175.0</ele><time>2026-04-11T09:48:10.369Z</time></trkpt><trkpt lat="45.5934705" lon="9.3351777"><ele>175.0</ele><time>2026-04-11T09:48:11.376Z</time></trkpt><trkpt lat="45.5935572" lon="9.3352741"><ele>175.0</ele><time>2026-04-11T09:48:12.372Z</time></trkpt><trkpt lat="45.5936351" lon="9.3353713"><ele>175.0</ele><time>2026-04-11T09:48:13.371Z</time></trkpt><trkpt lat="45.5937223" lon="9.3354643"><ele>175.0</ele><time>2026-04-11T09:48:14.375Z</time></trkpt><trkpt lat="45.5938074" lon="9.3355709"><ele>175.0</ele><time>2026-04-11T09:48:15.372Z</time></trkpt><trkpt lat="45.5938924" lon="9.3356841"><ele>175.0</ele><time>2026-04-11T09:48:16.374Z</time></trkpt><trkpt lat="45.5939751" lon="9.3358026"><ele>175.0</ele><time>2026-04-11T09:48:17.369Z</time></trkpt><trkpt lat="45.5940519" lon="9.3359131"><ele>175.0</ele><time>2026-04-11T09:48:18.374Z</time></trkpt><trkpt lat="45.5941253" lon="9.3360266"><ele>175.0</ele><time>2026-04-11T09:48:19.369Z</time></trkpt><trkpt lat="45.5941932" lon="9.336139"><ele>175.0</ele><time>2026-04-11T09:48:20.369Z</time></trkpt><trkpt lat="45.5942571" lon="9.3362533"><ele>175.0</ele><time>2026-04-11T09:48:21.372Z</time></trkpt><trkpt lat="45.5943195" lon="9.3363672"><ele>175.0</ele><time>2026-04-11T09:48:22.37Z</time></trkpt><trkpt lat="45.5943757" lon="9.3364825"><ele>175.0</ele><time>2026-04-11T09:48:23.372Z</time></trkpt><trkpt lat="45.594431" lon="9.3365945"><ele>175.2</ele><time>2026-04-11T09:48:24.368Z</time></trkpt><trkpt lat="45.5944827" lon="9.3367114"><ele>175.4</ele><time>2026-04-11T09:48:25.373Z</time></trkpt><trkpt lat="45.5945326" lon="9.336835"><ele>175.60000000000002</ele><time>2026-04-11T09:48:26.376Z</time></trkpt><trkpt lat="45.5945802" lon="9.3369543"><ele>175.8</ele><time>2026-04-11T09:48:27.375Z</time></trkpt><trkpt lat="45.5946207" lon="9.3370595"><ele>176.0</ele><time>2026-04-11T09:48:28.372Z</time></trkpt><trkpt lat="45.5946597" lon="9.3371613"><ele>176.16666666666666</ele><time>2026-04-11T09:48:29.376Z</time></trkpt><trkpt lat="45.5946971" lon="9.3372597"><ele>176.33333333333331</ele><time>2026-04-11T09:48:30.369Z</time></trkpt><trkpt lat="45.5947376" lon="9.3373527"><ele>176.5</ele><time>2026-04-11T09:48:31.377Z</time></trkpt><trkpt lat="45.5947756" lon="9.337454"><ele>176.66666666666666</ele><time>2026-04-11T09:48:32.372Z</time></trkpt><trkpt lat="45.5948091" lon="9.3375517"><ele>176.83333333333334</ele><time>2026-04-11T09:48:33.379Z</time></trkpt><trkpt lat="45.5948439" lon="9.3376454"><ele>177.0</ele><time>2026-04-11T09:48:34.369Z</time></trkpt><trkpt lat="45.5948786" lon="9.33774"><ele>177.0</ele><time>2026-04-11T09:48:35.378Z</time></trkpt><trkpt lat="45.5949088" lon="9.3378193"><ele>177.0</ele><time>2026-04-11T09:48:36.373Z</time></trkpt><trkpt lat="45.5949279" lon="9.3379149"><ele>177.0</ele><time>2026-04-11T09:48:38.37Z</time></trkpt><trkpt lat="45.5949493" lon="9.3380163"><ele>177.0</ele><time>2026-04-11T09:49:07.377Z</time></trkpt><trkpt lat="45.5949982" lon="9.3381385"><ele>177.0</ele><time>2026-04-11T09:49:09.371Z</time></trkpt><trkpt lat="45.5950337" lon="9.3382229"><ele>177.0</ele><time>2026-04-11T09:49:11.371Z</time></trkpt><trkpt lat="45.5950688" lon="9.3383173"><ele>177.0</ele><time>2026-04-11T09:49:15.379Z</time></trkpt><trkpt lat="45.5951869" lon="9.3382997"><ele>177.0</ele><time>2026-04-11T09:49:55.385Z</time></trkpt><trkpt lat="45.5952528" lon="9.3382862"><ele>177.0</ele><time>2026-04-11T09:49:56.37Z</time></trkpt><trkpt lat="45.5953372" lon="9.3382841"><ele>177.0</ele><time>2026-04-11T09:49:57.379Z</time></trkpt><trkpt lat="45.5954326" lon="9.3382909"><ele>177.0</ele><time>2026-04-11T09:49:58.368Z</time></trkpt><trkpt lat="45.5955666" lon="9.3383066"><ele>177.0</ele><time>2026-04-11T09:49:59.373Z</time></trkpt><trkpt lat="45.595695" lon="9.3383344"><ele>177.0</ele><time>2026-04-11T09:50:00.373Z</time></trkpt><trkpt lat="45.5958015" lon="9.3383544"><ele>177.0</ele><time>2026-04-11T09:50:01.38Z</time></trkpt><trkpt lat="45.5959087" lon="9.3383807"><ele>177.0</ele><time>2026-04-11T09:50:02.372Z</time></trkpt><trkpt lat="45.596002" lon="9.3384135"><ele>177.0</ele><time>2026-04-11T09:50:03.372Z</time></trkpt><trkpt lat="45.5960903" lon="9.3384499"><ele>177.0</ele><time>2026-04-11T09:50:04.37Z</time></trkpt><trkpt lat="45.5961778" lon="9.3385133"><ele>177.0</ele><time>2026-04-11T09:50:05.37Z</time></trkpt><trkpt lat="45.5962853" lon="9.338614"><ele>177.0</ele><time>2026-04-11T09:50:06.373Z</time></trkpt><trkpt lat="45.5964072" lon="9.3387295"><ele>177.0</ele><time>2026-04-11T09:50:07.372Z</time></trkpt><trkpt lat="45.5965137" lon="9.3388396"><ele>177.0</ele><time>2026-04-11T09:50:08.372Z</time></trkpt><trkpt lat="45.5966213" lon="9.3389485"><ele>177.0</ele><time>2026-04-11T09:50:09.37Z</time></trkpt><trkpt lat="45.5967338" lon="9.3390681"><ele>177.0</ele><time>2026-04-11T09:50:10.377Z</time></trkpt><trkpt lat="45.5968413" lon="9.3391937"><ele>177.0</ele><time>2026-04-11T09:50:11.378Z</time></trkpt><trkpt lat="45.5969681" lon="9.3392963"><ele>177.0</ele><time>2026-04-11T09:50:12.371Z</time></trkpt><trkpt lat="45.5971031" lon="9.3393885"><ele>177.25</ele><time>2026-04-11T09:50:13.379Z</time></trkpt><trkpt lat="45.5972318" lon="9.3394502"><ele>177.5</ele><time>2026-04-11T09:50:14.372Z</time></trkpt><trkpt lat="45.5973548" lon="9.3395066"><ele>177.75</ele><time>2026-04-11T09:50:15.375Z</time></trkpt><trkpt lat="45.597467" lon="9.339558"><ele>178.0</ele><time>2026-04-11T09:50:16.373Z</time></trkpt><trkpt lat="45.5975773" lon="9.3396076"><ele>178.0</ele><time>2026-04-11T09:50:17.38Z</time></trkpt><trkpt lat="45.5976807" lon="9.3396514"><ele>178.0</ele><time>2026-04-11T09:50:18.37Z</time></trkpt><trkpt lat="45.5977786" lon="9.3396944"><ele>178.0</ele><time>2026-04-11T09:50:19.379Z</time></trkpt><trkpt lat="45.5978701" lon="9.3397315"><ele>178.0</ele><time>2026-04-11T09:50:20.372Z</time></trkpt><trkpt lat="45.5979653" lon="9.3397791"><ele>178.0</ele><time>2026-04-11T09:50:21.377Z</time></trkpt><trkpt lat="45.5980606" lon="9.3398471"><ele>178.0</ele><time>2026-04-11T09:50:22.371Z</time></trkpt><trkpt lat="45.5981675" lon="9.339941"><ele>178.0</ele><time>2026-04-11T09:50:23.373Z</time></trkpt><trkpt lat="45.5982895" lon="9.3400443"><ele>178.0</ele><time>2026-04-11T09:50:24.372Z</time></trkpt><trkpt lat="45.5984192" lon="9.3401526"><ele>178.0</ele><time>2026-04-11T09:50:25.375Z</time></trkpt><trkpt lat="45.5985398" lon="9.3402502"><ele>178.0</ele><time>2026-04-11T09:50:26.371Z</time></trkpt><trkpt lat="45.5986541" lon="9.3403458"><ele>178.0</ele><time>2026-04-11T09:50:27.372Z</time></trkpt><trkpt lat="45.598764" lon="9.3404361"><ele>178.0</ele><time>2026-04-11T09:50:28.37Z</time></trkpt><trkpt lat="45.5988631" lon="9.3405246"><ele>178.0</ele><time>2026-04-11T09:50:29.371Z</time></trkpt><trkpt lat="45.5989635" lon="9.3406079"><ele>178.5</ele><time>2026-04-11T09:50:30.368Z</time></trkpt><trkpt lat="45.5990648" lon="9.3406884"><ele>179.0</ele><time>2026-04-11T09:50:31.372Z</time></trkpt><trkpt lat="45.5991708" lon="9.3407696"><ele>179.5</ele><time>2026-04-11T09:50:32.374Z</time></trkpt><trkpt lat="45.5992848" lon="9.3408637"><ele>180.0</ele><time>2026-04-11T09:50:33.372Z</time></trkpt><trkpt lat="45.5994047" lon="9.3409632"><ele>179.0</ele><time>2026-04-11T09:50:34.375Z</time></trkpt><trkpt lat="45.599536" lon="9.3410764"><ele>178.0</ele><time>2026-04-11T09:50:35.376Z</time></trkpt><trkpt lat="45.5996736" lon="9.3411939"><ele>177.0</ele><time>2026-04-11T09:50:36.373Z</time></trkpt><trkpt lat="45.5998004" lon="9.341297"><ele>177.5</ele><time>2026-04-11T09:50:37.375Z</time></trkpt><trkpt lat="45.5999203" lon="9.3413937"><ele>178.0</ele><time>2026-04-11T09:50:38.375Z</time></trkpt><trkpt lat="45.6000428" lon="9.3414925"><ele>178.5</ele><time>2026-04-11T09:50:39.377Z</time></trkpt><trkpt lat="45.600161" lon="9.3415905"><ele>179.0</ele><time>2026-04-11T09:50:40.374Z</time></trkpt><trkpt lat="45.6002765" lon="9.3416824"><ele>179.0</ele><time>2026-04-11T09:50:41.375Z</time></trkpt><trkpt lat="45.6003883" lon="9.3417799"><ele>179.0</ele><time>2026-04-11T09:50:42.374Z</time></trkpt><trkpt lat="45.600499" lon="9.3418718"><ele>179.0</ele><time>2026-04-11T09:50:43.376Z</time></trkpt><trkpt lat="45.6006098" lon="9.3419647"><ele>179.0</ele><time>2026-04-11T09:50:44.377Z</time></trkpt><trkpt lat="45.6007135" lon="9.3420543"><ele>179.0</ele><time>2026-04-11T09:50:45.377Z</time></trkpt><trkpt lat="45.6008127" lon="9.3421375"><ele>179.0</ele><time>2026-04-11T09:50:46.372Z</time></trkpt><trkpt lat="45.6009057" lon="9.3422118"><ele>179.0</ele><time>2026-04-11T09:50:47.377Z</time></trkpt><trkpt lat="45.6009864" lon="9.3422743"><ele>179.0</ele><time>2026-04-11T09:50:48.374Z</time></trkpt><trkpt lat="45.6010574" lon="9.3423303"><ele>179.0</ele><time>2026-04-11T09:50:49.375Z</time></trkpt><trkpt lat="45.601118" lon="9.3423781"><ele>179.16666666666666</ele><time>2026-04-11T09:50:50.375Z</time></trkpt><trkpt lat="45.6011982" lon="9.342442"><ele>179.33333333333331</ele><time>2026-04-11T09:50:52.377Z</time></trkpt><trkpt lat="45.6012832" lon="9.3424491"><ele>179.5</ele><time>2026-04-11T09:50:55.375Z</time></trkpt><trkpt lat="45.6013339" lon="9.3423938"><ele>179.66666666666666</ele><time>2026-04-11T09:50:57.376Z</time></trkpt><trkpt lat="45.601412" lon="9.342356"><ele>179.83333333333334</ele><time>2026-04-11T09:51:00.374Z</time></trkpt><trkpt lat="45.6015142" lon="9.3423791"><ele>180.0</ele><time>2026-04-11T09:51:02.371Z</time></trkpt><trkpt lat="45.6015984" lon="9.3423886"><ele>180.0</ele><time>2026-04-11T09:51:04.375Z</time></trkpt><trkpt lat="45.6016637" lon="9.3424004"><ele>180.0</ele><time>2026-04-11T09:51:06.376Z</time></trkpt><trkpt lat="45.6017349" lon="9.3424243"><ele>180.0</ele><time>2026-04-11T09:51:09.373Z</time></trkpt><trkpt lat="45.6018299" lon="9.3424528"><ele>180.0</ele><time>2026-04-11T09:51:28.377Z</time></trkpt><trkpt lat="45.6019464" lon="9.3425075"><ele>180.0</ele><time>2026-04-11T09:51:30.373Z</time></trkpt><trkpt lat="45.6020593" lon="9.3425702"><ele>180.2</ele><time>2026-04-11T09:51:32.369Z</time></trkpt><trkpt lat="45.6021614" lon="9.3426285"><ele>180.4</ele><time>2026-04-11T09:51:34.37Z</time></trkpt><trkpt lat="45.6022439" lon="9.3426764"><ele>180.60000000000002</ele><time>2026-04-11T09:51:36.372Z</time></trkpt><trkpt lat="45.602307" lon="9.342673"><ele>180.8</ele><time>2026-04-11T09:51:38.37Z</time></trkpt><trkpt lat="45.6023653" lon="9.3425703"><ele>181.0</ele><time>2026-04-11T09:51:41.37Z</time></trkpt><trkpt lat="45.6023992" lon="9.3424088"><ele>181.0</ele><time>2026-04-11T09:51:43.371Z</time></trkpt><trkpt lat="45.6024197" lon="9.3423188"><ele>181.0</ele><time>2026-04-11T09:51:44.373Z</time></trkpt><trkpt lat="45.6024418" lon="9.3422201"><ele>181.0</ele><time>2026-04-11T09:51:45.381Z</time></trkpt><trkpt lat="45.6024646" lon="9.3421137"><ele>181.0</ele><time>2026-04-11T09:51:46.37Z</time></trkpt><trkpt lat="45.60249" lon="9.3420094"><ele>181.0</ele><time>2026-04-11T09:51:47.375Z</time></trkpt><trkpt lat="45.6025233" lon="9.3418986"><ele>181.0</ele><time>2026-04-11T09:51:48.368Z</time></trkpt><trkpt lat="45.6025492" lon="9.341789"><ele>181.0</ele><time>2026-04-11T09:51:49.368Z</time></trkpt><trkpt lat="45.6025741" lon="9.341687"><ele>181.0</ele><time>2026-04-11T09:51:50.37Z</time></trkpt><trkpt lat="45.6026026" lon="9.3415777"><ele>181.0</ele><time>2026-04-11T09:51:51.374Z</time></trkpt><trkpt lat="45.6026294" lon="9.3414721"><ele>181.0</ele><time>2026-04-11T09:51:52.374Z</time></trkpt><trkpt lat="45.6026533" lon="9.3413748"><ele>181.0</ele><time>2026-04-11T09:51:53.37Z</time></trkpt><trkpt lat="45.6026756" lon="9.3412846"><ele>181.0</ele><time>2026-04-11T09:51:54.382Z</time></trkpt><trkpt lat="45.6026952" lon="9.3411923"><ele>181.0</ele><time>2026-04-11T09:51:55.369Z</time></trkpt><trkpt lat="45.6027325" lon="9.3410307"><ele>181.0</ele><time>2026-04-11T09:51:57.37Z</time></trkpt><trkpt lat="45.6027516" lon="9.3409285"><ele>181.0</ele><time>2026-04-11T09:51:59.372Z</time></trkpt><trkpt lat="45.6027816" lon="9.3408057"><ele>181.0</ele><time>2026-04-11T09:52:02.372Z</time></trkpt><trkpt lat="45.6028157" lon="9.3406899"><ele>181.0</ele><time>2026-04-11T09:52:04.381Z</time></trkpt><trkpt lat="45.602838" lon="9.3406052"><ele>181.0</ele><time>2026-04-11T09:52:05.373Z</time></trkpt><trkpt lat="45.6028604" lon="9.3405097"><ele>181.0</ele><time>2026-04-11T09:52:06.377Z</time></trkpt><trkpt lat="45.6028822" lon="9.340421"><ele>181.0</ele><time>2026-04-11T09:52:07.372Z</time></trkpt><trkpt lat="45.6029018" lon="9.3403279"><ele>181.0</ele><time>2026-04-11T09:52:08.374Z</time></trkpt><trkpt lat="45.6029227" lon="9.3402356"><ele>181.0</ele><time>2026-04-11T09:52:09.373Z</time></trkpt><trkpt lat="45.6029456" lon="9.3401415"><ele>181.0</ele><time>2026-04-11T09:52:10.378Z</time></trkpt><trkpt lat="45.6029656" lon="9.3400552"><ele>181.0</ele><time>2026-04-11T09:52:11.372Z</time></trkpt><trkpt lat="45.6029863" lon="9.3399686"><ele>181.0</ele><time>2026-04-11T09:52:12.378Z</time></trkpt><trkpt lat="45.6030287" lon="9.3398024"><ele>181.0</ele><time>2026-04-11T09:52:14.378Z</time></trkpt><trkpt lat="45.6030633" lon="9.339657"><ele>181.0</ele><time>2026-04-11T09:52:16.374Z</time></trkpt><trkpt lat="45.6031071" lon="9.3395443"><ele>181.0</ele><time>2026-04-11T09:52:18.368Z</time></trkpt><trkpt lat="45.6031642" lon="9.3394875"><ele>181.0</ele><time>2026-04-11T09:52:20.369Z</time></trkpt><trkpt lat="45.6032503" lon="9.3394401"><ele>181.0</ele><time>2026-04-11T09:52:22.375Z</time></trkpt><trkpt lat="45.6033086" lon="9.3393983"><ele>181.0</ele><time>2026-04-11T09:52:23.378Z</time></trkpt><trkpt lat="45.6033964" lon="9.3393239"><ele>181.0</ele><time>2026-04-11T09:52:25.376Z</time></trkpt><trkpt lat="45.603465" lon="9.3392561"><ele>181.0</ele><time>2026-04-11T09:52:27.378Z</time></trkpt><trkpt lat="45.6035191" lon="9.3391949"><ele>181.0</ele><time>2026-04-11T09:52:35.375Z</time></trkpt><trkpt lat="45.603494" lon="9.3390727"><ele>181.0</ele><time>2026-04-11T09:52:40.371Z</time></trkpt><trkpt lat="45.6034594" lon="9.3389458"><ele>181.0</ele><time>2026-04-11T09:52:42.376Z</time></trkpt><trkpt lat="45.6034335" lon="9.3388057"><ele>181.0</ele><time>2026-04-11T09:52:44.374Z</time></trkpt><trkpt lat="45.6034174" lon="9.3386599"><ele>181.0</ele><time>2026-04-11T09:52:46.37Z</time></trkpt><trkpt lat="45.6034133" lon="9.3385176"><ele>181.0</ele><time>2026-04-11T09:52:48.368Z</time></trkpt><trkpt lat="45.6034201" lon="9.3383731"><ele>181.0</ele><time>2026-04-11T09:52:50.372Z</time></trkpt><trkpt lat="45.603443" lon="9.3382436"><ele>181.0</ele><time>2026-04-11T09:52:52.371Z</time></trkpt><trkpt lat="45.6034647" lon="9.3381164"><ele>181.0</ele><time>2026-04-11T09:52:54.375Z</time></trkpt><trkpt lat="45.6034962" lon="9.337981"><ele>181.0</ele><time>2026-04-11T09:52:56.372Z</time></trkpt><trkpt lat="45.6035333" lon="9.3378223"><ele>181.0</ele><time>2026-04-11T09:52:58.378Z</time></trkpt><trkpt lat="45.603573" lon="9.3376769"><ele>181.0</ele><time>2026-04-11T09:53:00.379Z</time></trkpt><trkpt lat="45.6036127" lon="9.3375223"><ele>181.0</ele><time>2026-04-11T09:53:02.378Z</time></trkpt><trkpt lat="45.6036402" lon="9.3373911"><ele>181.0</ele><time>2026-04-11T09:53:04.372Z</time></trkpt><trkpt lat="45.6036704" lon="9.3372421"><ele>181.20000000000002</ele><time>2026-04-11T09:53:06.378Z</time></trkpt><trkpt lat="45.6037012" lon="9.3371124"><ele>181.4</ele><time>2026-04-11T09:53:08.369Z</time></trkpt><trkpt lat="45.603735" lon="9.3369751"><ele>181.6</ele><time>2026-04-11T09:53:10.373Z</time></trkpt><trkpt lat="45.6037698" lon="9.3368418"><ele>181.8</ele><time>2026-04-11T09:53:12.374Z</time></trkpt><trkpt lat="45.603798" lon="9.336744"><ele>182.0</ele><time>2026-04-11T09:53:14.373Z</time></trkpt><trkpt lat="45.6038274" lon="9.3366232"><ele>182.0</ele><time>2026-04-11T09:53:16.377Z</time></trkpt><trkpt lat="45.6038586" lon="9.3364919"><ele>182.0</ele><time>2026-04-11T09:53:18.376Z</time></trkpt><trkpt lat="45.6038989" lon="9.3363349"><ele>182.0</ele><time>2026-04-11T09:53:20.371Z</time></trkpt><trkpt lat="45.603934" lon="9.336184"><ele>182.0</ele><time>2026-04-11T09:53:22.371Z</time></trkpt><trkpt lat="45.6039712" lon="9.336029"><ele>182.0</ele><time>2026-04-11T09:53:24.368Z</time></trkpt><trkpt lat="45.6039938" lon="9.3359432"><ele>181.83333333333331</ele><time>2026-04-11T09:53:25.369Z</time></trkpt><trkpt lat="45.6040338" lon="9.3357873"><ele>181.66666666666666</ele><time>2026-04-11T09:53:27.376Z</time></trkpt><trkpt lat="45.6040744" lon="9.3356174"><ele>181.5</ele><time>2026-04-11T09:53:29.377Z</time></trkpt><trkpt lat="45.6040917" lon="9.3355306"><ele>181.33333333333334</ele><time>2026-04-11T09:53:30.374Z</time></trkpt><trkpt lat="45.6041137" lon="9.3354424"><ele>181.16666666666669</ele><time>2026-04-11T09:53:31.37Z</time></trkpt><trkpt lat="45.6041339" lon="9.3353532"><ele>181.0</ele><time>2026-04-11T09:53:32.372Z</time></trkpt><trkpt lat="45.6041549" lon="9.3352645"><ele>180.60000000000002</ele><time>2026-04-11T09:53:33.377Z</time></trkpt><trkpt lat="45.6041795" lon="9.3351706"><ele>180.2</ele><time>2026-04-11T09:53:34.37Z</time></trkpt><trkpt lat="45.6042179" lon="9.335018"><ele>179.8</ele><time>2026-04-11T09:53:36.374Z</time></trkpt><trkpt lat="45.6042514" lon="9.33489"><ele>179.39999999999998</ele><time>2026-04-11T09:53:38.381Z</time></trkpt><trkpt lat="45.6042918" lon="9.3347624"><ele>179.0</ele><time>2026-04-11T09:53:40.376Z</time></trkpt><trkpt lat="45.6043377" lon="9.3346352"><ele>179.0</ele><time>2026-04-11T09:53:42.377Z</time></trkpt><trkpt lat="45.6043799" lon="9.3345289"><ele>179.0</ele><time>2026-04-11T09:53:44.375Z</time></trkpt><trkpt lat="45.6044318" lon="9.3344084"><ele>179.0</ele><time>2026-04-11T09:53:46.387Z</time></trkpt><trkpt lat="45.6044789" lon="9.3342789"><ele>179.0</ele><time>2026-04-11T09:53:48.377Z</time></trkpt><trkpt lat="45.6045069" lon="9.3341921"><ele>179.0</ele><time>2026-04-11T09:53:49.373Z</time></trkpt><trkpt lat="45.6045548" lon="9.3340277"><ele>178.83333333333331</ele><time>2026-04-11T09:53:51.371Z</time></trkpt><trkpt lat="45.6045963" lon="9.3338674"><ele>178.66666666666666</ele><time>2026-04-11T09:53:53.373Z</time></trkpt><trkpt lat="45.6046411" lon="9.3337005"><ele>178.5</ele><time>2026-04-11T09:53:55.369Z</time></trkpt><trkpt lat="45.6046643" lon="9.3336062"><ele>178.33333333333334</ele><time>2026-04-11T09:53:56.378Z</time></trkpt><trkpt lat="45.6046881" lon="9.3335183"><ele>178.16666666666669</ele><time>2026-04-11T09:53:57.37Z</time></trkpt><trkpt lat="45.6047055" lon="9.3334242"><ele>178.0</ele><time>2026-04-11T09:53:58.378Z</time></trkpt><trkpt lat="45.6047388" lon="9.3332643"><ele>178.0</ele><time>2026-04-11T09:54:00.376Z</time></trkpt><trkpt lat="45.6047716" lon="9.3331123"><ele>178.0</ele><time>2026-04-11T09:54:02.371Z</time></trkpt><trkpt lat="45.6048097" lon="9.3329273"><ele>178.0</ele><time>2026-04-11T09:54:04.369Z</time></trkpt><trkpt lat="45.604827" lon="9.332827"><ele>178.0</ele><time>2026-04-11T09:54:05.377Z</time></trkpt><trkpt lat="45.604846" lon="9.3327295"><ele>178.0</ele><time>2026-04-11T09:54:06.371Z</time></trkpt><trkpt lat="45.6048635" lon="9.3326392"><ele>177.75</ele><time>2026-04-11T09:54:07.376Z</time></trkpt><trkpt lat="45.6048999" lon="9.3324824"><ele>177.5</ele><time>2026-04-11T09:54:09.364Z</time></trkpt><trkpt lat="45.6049365" lon="9.3323445"><ele>177.25</ele><time>2026-04-11T09:54:11.376Z</time></trkpt><trkpt lat="45.6049866" lon="9.3321901"><ele>177.0</ele><time>2026-04-11T09:54:13.377Z</time></trkpt><trkpt lat="45.6050206" lon="9.3320353"><ele>177.0</ele><time>2026-04-11T09:54:15.376Z</time></trkpt><trkpt lat="45.6050496" lon="9.3319063"><ele>177.0</ele><time>2026-04-11T09:54:17.374Z</time></trkpt><trkpt lat="45.6050703" lon="9.331818"><ele>177.0</ele><time>2026-04-11T09:54:19.377Z</time></trkpt><trkpt lat="45.6050884" lon="9.3317211"><ele>177.0</ele><time>2026-04-11T09:54:22.369Z</time></trkpt><trkpt lat="45.6051023" lon="9.3316093"><ele>177.0</ele><time>2026-04-11T09:54:39.367Z</time></trkpt><trkpt lat="45.6051243" lon="9.3315184"><ele>177.0</ele><time>2026-04-11T09:54:42.37Z</time></trkpt><trkpt lat="45.6051566" lon="9.3314378"><ele>177.0</ele><time>2026-04-11T09:54:45.377Z</time></trkpt><trkpt lat="45.6051183" lon="9.3315365"><ele>177.0</ele><time>2026-04-11T09:55:18.368Z</time></trkpt><trkpt lat="45.6050913" lon="9.3316533"><ele>177.0</ele><time>2026-04-11T09:55:20.371Z</time></trkpt><trkpt lat="45.6050735" lon="9.3317448"><ele>177.0</ele><time>2026-04-11T09:55:22.374Z</time></trkpt><trkpt lat="45.6050415" lon="9.3318693"><ele>177.0</ele><time>2026-04-11T09:55:37.372Z</time></trkpt><trkpt lat="45.6050092" lon="9.3320317"><ele>177.0</ele><time>2026-04-11T09:55:39.371Z</time></trkpt><trkpt lat="45.6049874" lon="9.3321178"><ele>177.0</ele><time>2026-04-11T09:55:40.374Z</time></trkpt><trkpt lat="45.6049522" lon="9.3322589"><ele>177.42857142857144</ele><time>2026-04-11T09:55:42.365Z</time></trkpt><trkpt lat="45.6049306" lon="9.3323722"><ele>177.85714285714283</ele><time>2026-04-11T09:55:44.369Z</time></trkpt><trkpt lat="45.6049037" lon="9.3324753"><ele>178.28571428571428</ele><time>2026-04-11T09:55:46.371Z</time></trkpt><trkpt lat="45.6048843" lon="9.3325662"><ele>178.71428571428572</ele><time>2026-04-11T09:55:48.37Z</time></trkpt><trkpt lat="45.6048858" lon="9.3326568"><ele>179.14285714285717</ele><time>2026-04-11T09:55:51.369Z</time></trkpt><trkpt lat="45.6049455" lon="9.332693"><ele>179.57142857142856</ele><time>2026-04-11T09:55:54.379Z</time></trkpt><trkpt lat="45.6050055" lon="9.3327239"><ele>180.0</ele><time>2026-04-11T09:55:56.361Z</time></trkpt><trkpt lat="45.6050655" lon="9.3327571"><ele>180.0</ele><time>2026-04-11T09:55:58.378Z</time></trkpt><trkpt lat="45.6051377" lon="9.332787"><ele>180.0</ele><time>2026-04-11T09:56:00.372Z</time></trkpt><trkpt lat="45.6052035" lon="9.3328198"><ele>180.0</ele><time>2026-04-11T09:56:02.374Z</time></trkpt><trkpt lat="45.605273" lon="9.3328604"><ele>180.0</ele><time>2026-04-11T09:56:04.364Z</time></trkpt><trkpt lat="45.6053529" lon="9.3328909"><ele>180.0</ele><time>2026-04-11T09:56:06.371Z</time></trkpt><trkpt lat="45.605456" lon="9.332931"><ele>180.0</ele><time>2026-04-11T09:56:08.371Z</time></trkpt><trkpt lat="45.6055623" lon="9.3329775"><ele>180.16666666666666</ele><time>2026-04-11T09:56:10.377Z</time></trkpt><trkpt lat="45.6056765" lon="9.3330299"><ele>180.33333333333334</ele><time>2026-04-11T09:56:12.376Z</time></trkpt><trkpt lat="45.6057362" lon="9.3330625"><ele>180.5</ele><time>2026-04-11T09:56:13.368Z</time></trkpt><trkpt lat="45.6058516" lon="9.3331207"><ele>180.66666666666669</ele><time>2026-04-11T09:56:15.371Z</time></trkpt><trkpt lat="45.605914" lon="9.3331507"><ele>180.83333333333334</ele><time>2026-04-11T09:56:16.368Z</time></trkpt><trkpt lat="45.6059742" lon="9.3331808"><ele>181.0</ele><time>2026-04-11T09:56:17.373Z</time></trkpt><trkpt lat="45.6060395" lon="9.3332169"><ele>181.0</ele><time>2026-04-11T09:56:18.372Z</time></trkpt><trkpt lat="45.6061014" lon="9.333251"><ele>181.0</ele><time>2026-04-11T09:56:19.374Z</time></trkpt><trkpt lat="45.6061625" lon="9.3332841"><ele>181.0</ele><time>2026-04-11T09:56:20.37Z</time></trkpt><trkpt lat="45.6062746" lon="9.3333449"><ele>181.0</ele><time>2026-04-11T09:56:22.373Z</time></trkpt><trkpt lat="45.6063851" lon="9.3334071"><ele>181.0</ele><time>2026-04-11T09:56:24.368Z</time></trkpt><trkpt lat="45.6064998" lon="9.3334622"><ele>181.5</ele><time>2026-04-11T09:56:26.37Z</time></trkpt><trkpt lat="45.6066051" lon="9.3335098"><ele>182.0</ele><time>2026-04-11T09:56:28.37Z</time></trkpt><trkpt lat="45.6066981" lon="9.3335528"><ele>182.5</ele><time>2026-04-11T09:56:30.372Z</time></trkpt><trkpt lat="45.6067605" lon="9.3336009"><ele>183.0</ele><time>2026-04-11T09:56:32.365Z</time></trkpt><trkpt lat="45.6068284" lon="9.3335534"><ele>183.5</ele><time>2026-04-11T09:56:36.368Z</time></trkpt><trkpt lat="45.6068481" lon="9.333445"><ele>184.0</ele><time>2026-04-11T09:56:38.373Z</time></trkpt><trkpt lat="45.6068766" lon="9.3333002"><ele>184.0</ele><time>2026-04-11T09:56:40.37Z</time></trkpt><trkpt lat="45.6069146" lon="9.3331399"><ele>184.0</ele><time>2026-04-11T09:56:42.371Z</time></trkpt><trkpt lat="45.6069407" lon="9.3330027"><ele>184.0</ele><time>2026-04-11T09:56:44.37Z</time></trkpt><trkpt lat="45.6069637" lon="9.3328985"><ele>184.0</ele><time>2026-04-11T09:56:46.371Z</time></trkpt><trkpt lat="45.6069987" lon="9.3327879"><ele>184.0</ele><time>2026-04-11T09:56:48.369Z</time></trkpt><trkpt lat="45.6070369" lon="9.3326869"><ele>183.5</ele><time>2026-04-11T09:56:50.374Z</time></trkpt><trkpt lat="45.6070873" lon="9.3325859"><ele>183.0</ele><time>2026-04-11T09:56:52.372Z</time></trkpt><trkpt lat="45.6071528" lon="9.3325065"><ele>182.5</ele><time>2026-04-11T09:56:54.372Z</time></trkpt><trkpt lat="45.6072268" lon="9.3324709"><ele>182.0</ele><time>2026-04-11T09:56:56.379Z</time></trkpt><trkpt lat="45.6073003" lon="9.3324726"><ele>181.5</ele><time>2026-04-11T09:56:58.376Z</time></trkpt><trkpt lat="45.607367" lon="9.3325174"><ele>181.0</ele><time>2026-04-11T09:57:00.372Z</time></trkpt><trkpt lat="45.6074378" lon="9.3325737"><ele>181.0</ele><time>2026-04-11T09:57:02.373Z</time></trkpt><trkpt lat="45.6075162" lon="9.3326119"><ele>181.0</ele><time>2026-04-11T09:57:04.369Z</time></trkpt><trkpt lat="45.607604" lon="9.3326599"><ele>181.0</ele><time>2026-04-11T09:57:06.369Z</time></trkpt><trkpt lat="45.6076975" lon="9.3327138"><ele>181.0</ele><time>2026-04-11T09:57:08.369Z</time></trkpt><trkpt lat="45.6077724" lon="9.3327431"><ele>181.0</ele><time>2026-04-11T09:57:10.369Z</time></trkpt><trkpt lat="45.6078376" lon="9.3327695"><ele>181.0</ele><time>2026-04-11T09:57:12.368Z</time></trkpt><trkpt lat="45.6078878" lon="9.3328593"><ele>181.0</ele><time>2026-04-11T09:57:15.372Z</time></trkpt><trkpt lat="45.6078532" lon="9.3331031"><ele>181.0</ele><time>2026-04-11T09:57:17.377Z</time></trkpt><trkpt lat="45.6078265" lon="9.3333045"><ele>181.0</ele><time>2026-04-11T09:57:18.371Z</time></trkpt><trkpt lat="45.6077936" lon="9.3335429"><ele>181.0</ele><time>2026-04-11T09:57:19.374Z</time></trkpt><trkpt lat="45.6077484" lon="9.3338208"><ele>181.0</ele><time>2026-04-11T09:57:20.37Z</time></trkpt><trkpt lat="45.6077066" lon="9.3341104"><ele>181.0</ele><time>2026-04-11T09:57:21.37Z</time></trkpt><trkpt lat="45.607667" lon="9.334421"><ele>181.66666666666669</ele><time>2026-04-11T09:57:22.378Z</time></trkpt><trkpt lat="45.6076281" lon="9.334707"><ele>182.33333333333334</ele><time>2026-04-11T09:57:23.375Z</time></trkpt><trkpt lat="45.6075883" lon="9.334979"><ele>183.0</ele><time>2026-04-11T09:57:24.373Z</time></trkpt><trkpt lat="45.6075523" lon="9.3352484"><ele>182.66666666666666</ele><time>2026-04-11T09:57:25.393Z</time></trkpt><trkpt lat="45.6075129" lon="9.3355129"><ele>182.33333333333331</ele><time>2026-04-11T09:57:26.372Z</time></trkpt><trkpt lat="45.6074769" lon="9.3357754"><ele>182.0</ele><time>2026-04-11T09:57:27.376Z</time></trkpt><trkpt lat="45.6074423" lon="9.3360352"><ele>182.0</ele><time>2026-04-11T09:57:28.367Z</time></trkpt><trkpt lat="45.6074061" lon="9.3362868"><ele>182.0</ele><time>2026-04-11T09:57:29.376Z</time></trkpt><trkpt lat="45.6073691" lon="9.3365375"><ele>182.0</ele><time>2026-04-11T09:57:30.371Z</time></trkpt><trkpt lat="45.607335" lon="9.3367725"><ele>182.0</ele><time>2026-04-11T09:57:31.369Z</time></trkpt><trkpt lat="45.6073035" lon="9.3369966"><ele>182.0</ele><time>2026-04-11T09:57:32.373Z</time></trkpt><trkpt lat="45.6072705" lon="9.3372039"><ele>182.0</ele><time>2026-04-11T09:57:33.379Z</time></trkpt><trkpt lat="45.6072391" lon="9.3374078"><ele>182.5</ele><time>2026-04-11T09:57:34.376Z</time></trkpt><trkpt lat="45.6072108" lon="9.3376071"><ele>183.0</ele><time>2026-04-11T09:57:35.373Z</time></trkpt><trkpt lat="45.6071858" lon="9.3377946"><ele>183.5</ele><time>2026-04-11T09:57:36.371Z</time></trkpt><trkpt lat="45.6071603" lon="9.3379745"><ele>184.0</ele><time>2026-04-11T09:57:37.374Z</time></trkpt><trkpt lat="45.6071338" lon="9.3381598"><ele>184.0</ele><time>2026-04-11T09:57:38.37Z</time></trkpt><trkpt lat="45.6071077" lon="9.3383503"><ele>184.0</ele><time>2026-04-11T09:57:39.382Z</time></trkpt><trkpt lat="45.6070775" lon="9.3385445"><ele>184.0</ele><time>2026-04-11T09:57:40.374Z</time></trkpt><trkpt lat="45.6070434" lon="9.3387505"><ele>184.0</ele><time>2026-04-11T09:57:41.369Z</time></trkpt><trkpt lat="45.6070097" lon="9.3389602"><ele>183.66666666666669</ele><time>2026-04-11T09:57:42.399Z</time></trkpt><trkpt lat="45.6069759" lon="9.3391778"><ele>183.33333333333334</ele><time>2026-04-11T09:57:43.371Z</time></trkpt><trkpt lat="45.6069442" lon="9.3394041"><ele>183.0</ele><time>2026-04-11T09:57:44.397Z</time></trkpt><trkpt lat="45.6069134" lon="9.3396288"><ele>183.66666666666666</ele><time>2026-04-11T09:57:45.37Z</time></trkpt><trkpt lat="45.6068802" lon="9.3398456"><ele>184.33333333333331</ele><time>2026-04-11T09:57:46.367Z</time></trkpt><trkpt lat="45.606849" lon="9.3400631"><ele>185.0</ele><time>2026-04-11T09:57:47.371Z</time></trkpt><trkpt lat="45.6068189" lon="9.3402707"><ele>185.0</ele><time>2026-04-11T09:57:48.368Z</time></trkpt><trkpt lat="45.6067878" lon="9.3404696"><ele>185.0</ele><time>2026-04-11T09:57:49.402Z</time></trkpt><trkpt lat="45.6067583" lon="9.3406543"><ele>185.0</ele><time>2026-04-11T09:57:50.375Z</time></trkpt><trkpt lat="45.6067306" lon="9.340828"><ele>185.0</ele><time>2026-04-11T09:57:51.372Z</time></trkpt><trkpt lat="45.6067067" lon="9.3409966"><ele>184.25</ele><time>2026-04-11T09:57:52.375Z</time></trkpt><trkpt lat="45.6066824" lon="9.3411626"><ele>183.5</ele><time>2026-04-11T09:57:53.375Z</time></trkpt><trkpt lat="45.60666" lon="9.3413341"><ele>182.75</ele><time>2026-04-11T09:57:54.376Z</time></trkpt><trkpt lat="45.6066328" lon="9.341508"><ele>182.0</ele><time>2026-04-11T09:57:55.37Z</time></trkpt><trkpt lat="45.6066064" lon="9.3416877"><ele>182.0</ele><time>2026-04-11T09:57:56.368Z</time></trkpt><trkpt lat="45.6065778" lon="9.3418772"><ele>182.0</ele><time>2026-04-11T09:57:57.374Z</time></trkpt><trkpt lat="45.6065487" lon="9.3420679"><ele>182.0</ele><time>2026-04-11T09:57:58.376Z</time></trkpt><trkpt lat="45.6065197" lon="9.3422596"><ele>182.0</ele><time>2026-04-11T09:57:59.368Z</time></trkpt><trkpt lat="45.606494" lon="9.3424492"><ele>182.5</ele><time>2026-04-11T09:58:00.378Z</time></trkpt><trkpt lat="45.606468" lon="9.3426324"><ele>183.0</ele><time>2026-04-11T09:58:01.37Z</time></trkpt><trkpt lat="45.6064396" lon="9.3428186"><ele>183.5</ele><time>2026-04-11T09:58:02.377Z</time></trkpt><trkpt lat="45.6064131" lon="9.3430043"><ele>184.0</ele><time>2026-04-11T09:58:03.373Z</time></trkpt><trkpt lat="45.6063848" lon="9.3431844"><ele>184.0</ele><time>2026-04-11T09:58:04.377Z</time></trkpt><trkpt lat="45.6063582" lon="9.3433537"><ele>184.0</ele><time>2026-04-11T09:58:05.373Z</time></trkpt><trkpt lat="45.606336" lon="9.3435178"><ele>184.0</ele><time>2026-04-11T09:58:06.376Z</time></trkpt><trkpt lat="45.6063129" lon="9.3436794"><ele>184.0</ele><time>2026-04-11T09:58:07.378Z</time></trkpt><trkpt lat="45.6062931" lon="9.3438397"><ele>184.25</ele><time>2026-04-11T09:58:08.372Z</time></trkpt><trkpt lat="45.6062687" lon="9.3439971"><ele>184.5</ele><time>2026-04-11T09:58:09.37Z</time></trkpt><trkpt lat="45.6062432" lon="9.3441562"><ele>184.75</ele><time>2026-04-11T09:58:10.397Z</time></trkpt><trkpt lat="45.606221" lon="9.3443234"><ele>185.0</ele><time>2026-04-11T09:58:11.371Z</time></trkpt><trkpt lat="45.6061937" lon="9.3445003"><ele>185.0</ele><time>2026-04-11T09:58:12.374Z</time></trkpt><trkpt lat="45.6061671" lon="9.3446833"><ele>185.0</ele><time>2026-04-11T09:58:13.377Z</time></trkpt><trkpt lat="45.6061393" lon="9.3448749"><ele>185.0</ele><time>2026-04-11T09:58:14.371Z</time></trkpt><trkpt lat="45.6061077" lon="9.3450716"><ele>185.0</ele><time>2026-04-11T09:58:15.376Z</time></trkpt><trkpt lat="45.6060742" lon="9.3452688"><ele>185.0</ele><time>2026-04-11T09:58:16.401Z</time></trkpt><trkpt lat="45.6060442" lon="9.3454646"><ele>185.0</ele><time>2026-04-11T09:58:17.368Z</time></trkpt><trkpt lat="45.6060162" lon="9.3456489"><ele>185.0</ele><time>2026-04-11T09:58:18.382Z</time></trkpt><trkpt lat="45.6059912" lon="9.3458253"><ele>185.0</ele><time>2026-04-11T09:58:19.371Z</time></trkpt><trkpt lat="45.6059702" lon="9.3459927"><ele>185.0</ele><time>2026-04-11T09:58:20.376Z</time></trkpt><trkpt lat="45.6059456" lon="9.3461682"><ele>185.0</ele><time>2026-04-11T09:58:21.373Z</time></trkpt><trkpt lat="45.6059218" lon="9.3463366"><ele>185.0</ele><time>2026-04-11T09:58:22.378Z</time></trkpt><trkpt lat="45.6059039" lon="9.3464972"><ele>185.0</ele><time>2026-04-11T09:58:23.371Z</time></trkpt><trkpt lat="45.6058805" lon="9.3466428"><ele>184.66666666666666</ele><time>2026-04-11T09:58:24.401Z</time></trkpt><trkpt lat="45.6058573" lon="9.3467679"><ele>184.33333333333331</ele><time>2026-04-11T09:58:25.402Z</time></trkpt><trkpt lat="45.6058354" lon="9.3468733"><ele>184.0</ele><time>2026-04-11T09:58:26.379Z</time></trkpt><trkpt lat="45.6057998" lon="9.3469745"><ele>183.66666666666666</ele><time>2026-04-11T09:58:27.37Z</time></trkpt><trkpt lat="45.6057487" lon="9.3470674"><ele>183.33333333333334</ele><time>2026-04-11T09:58:28.378Z</time></trkpt><trkpt lat="45.6056936" lon="9.3471521"><ele>183.0</ele><time>2026-04-11T09:58:29.369Z</time></trkpt><trkpt lat="45.6056651" lon="9.3472519"><ele>183.0</ele><time>2026-04-11T09:58:30.377Z</time></trkpt><trkpt lat="45.6056618" lon="9.347351"><ele>183.0</ele><time>2026-04-11T09:58:31.369Z</time></trkpt><trkpt lat="45.6056931" lon="9.3474389"><ele>183.0</ele><time>2026-04-11T09:58:32.369Z</time></trkpt><trkpt lat="45.6057484" lon="9.3474896"><ele>183.0</ele><time>2026-04-11T09:58:33.368Z</time></trkpt><trkpt lat="45.6058611" lon="9.3474822"><ele>183.0</ele><time>2026-04-11T09:58:35.374Z</time></trkpt><trkpt lat="45.6059384" lon="9.3473581"><ele>183.0</ele><time>2026-04-11T09:58:37.374Z</time></trkpt><trkpt lat="45.6059268" lon="9.3471678"><ele>183.0</ele><time>2026-04-11T09:58:39.372Z</time></trkpt><trkpt lat="45.6059034" lon="9.3470436"><ele>183.0</ele><time>2026-04-11T09:58:40.372Z</time></trkpt><trkpt lat="45.6058993" lon="9.3469033"><ele>183.0</ele><time>2026-04-11T09:58:41.37Z</time></trkpt><trkpt lat="45.6059132" lon="9.3467419"><ele>183.0</ele><time>2026-04-11T09:58:42.375Z</time></trkpt><trkpt lat="45.6059362" lon="9.3465575"><ele>183.0</ele><time>2026-04-11T09:58:43.368Z</time></trkpt><trkpt lat="45.6059653" lon="9.3463561"><ele>183.5</ele><time>2026-04-11T09:58:44.369Z</time></trkpt><trkpt lat="45.6059961" lon="9.346137"><ele>184.0</ele><time>2026-04-11T09:58:45.378Z</time></trkpt><trkpt lat="45.6060251" lon="9.3459265"><ele>184.5</ele><time>2026-04-11T09:58:46.379Z</time></trkpt><trkpt lat="45.6060543" lon="9.345737"><ele>185.0</ele><time>2026-04-11T09:58:47.369Z</time></trkpt><trkpt lat="45.6060855" lon="9.3455531"><ele>185.0</ele><time>2026-04-11T09:58:48.372Z</time></trkpt><trkpt lat="45.6061153" lon="9.3453579"><ele>185.0</ele><time>2026-04-11T09:58:49.367Z</time></trkpt><trkpt lat="45.606144" lon="9.345162"><ele>185.0</ele><time>2026-04-11T09:58:50.367Z</time></trkpt><trkpt lat="45.6061719" lon="9.3449459"><ele>185.0</ele><time>2026-04-11T09:58:51.381Z</time></trkpt><trkpt lat="45.6061968" lon="9.3447433"><ele>185.0</ele><time>2026-04-11T09:58:52.371Z</time></trkpt><trkpt lat="45.6062247" lon="9.3445463"><ele>185.0</ele><time>2026-04-11T09:58:53.376Z</time></trkpt><trkpt lat="45.6062507" lon="9.3443445"><ele>185.0</ele><time>2026-04-11T09:58:54.399Z</time></trkpt><trkpt lat="45.6062772" lon="9.3441557"><ele>185.0</ele><time>2026-04-11T09:58:55.378Z</time></trkpt><trkpt lat="45.6063051" lon="9.3439637"><ele>184.75</ele><time>2026-04-11T09:58:56.372Z</time></trkpt><trkpt lat="45.6063311" lon="9.3437689"><ele>184.5</ele><time>2026-04-11T09:58:57.378Z</time></trkpt><trkpt lat="45.6063593" lon="9.3435804"><ele>184.25</ele><time>2026-04-11T09:58:58.371Z</time></trkpt><trkpt lat="45.6063848" lon="9.3433982"><ele>184.0</ele><time>2026-04-11T09:58:59.372Z</time></trkpt><trkpt lat="45.6064113" lon="9.3432197"><ele>184.0</ele><time>2026-04-11T09:59:00.377Z</time></trkpt><trkpt lat="45.6064391" lon="9.3430335"><ele>184.0</ele><time>2026-04-11T09:59:01.367Z</time></trkpt><trkpt lat="45.6064688" lon="9.3428478"><ele>184.0</ele><time>2026-04-11T09:59:02.379Z</time></trkpt><trkpt lat="45.6064995" lon="9.3426534"><ele>184.0</ele><time>2026-04-11T09:59:03.372Z</time></trkpt><trkpt lat="45.6065309" lon="9.3424557"><ele>184.0</ele><time>2026-04-11T09:59:04.376Z</time></trkpt><trkpt lat="45.6065615" lon="9.3422346"><ele>184.0</ele><time>2026-04-11T09:59:05.371Z</time></trkpt><trkpt lat="45.6065904" lon="9.342025"><ele>184.0</ele><time>2026-04-11T09:59:06.376Z</time></trkpt><trkpt lat="45.6066234" lon="9.3418262"><ele>183.5</ele><time>2026-04-11T09:59:07.374Z</time></trkpt><trkpt lat="45.6066525" lon="9.3416231"><ele>183.0</ele><time>2026-04-11T09:59:08.383Z</time></trkpt><trkpt lat="45.6066826" lon="9.3414087"><ele>182.5</ele><time>2026-04-11T09:59:09.373Z</time></trkpt><trkpt lat="45.6067142" lon="9.3412011"><ele>182.0</ele><time>2026-04-11T09:59:10.399Z</time></trkpt><trkpt lat="45.6067454" lon="9.341"><ele>182.0</ele><time>2026-04-11T09:59:11.368Z</time></trkpt><trkpt lat="45.6067751" lon="9.3408008"><ele>182.0</ele><time>2026-04-11T09:59:12.374Z</time></trkpt><trkpt lat="45.6068081" lon="9.3405949"><ele>182.0</ele><time>2026-04-11T09:59:13.373Z</time></trkpt><trkpt lat="45.6068392" lon="9.3403903"><ele>182.0</ele><time>2026-04-11T09:59:14.369Z</time></trkpt><trkpt lat="45.6068692" lon="9.3401979"><ele>182.25</ele><time>2026-04-11T09:59:15.404Z</time></trkpt><trkpt lat="45.6068968" lon="9.340015"><ele>182.5</ele><time>2026-04-11T09:59:16.399Z</time></trkpt><trkpt lat="45.6069243" lon="9.3398463"><ele>182.75</ele><time>2026-04-11T09:59:17.369Z</time></trkpt><trkpt lat="45.6069533" lon="9.3396789"><ele>183.0</ele><time>2026-04-11T09:59:18.368Z</time></trkpt><trkpt lat="45.6069771" lon="9.3395199"><ele>183.0</ele><time>2026-04-11T09:59:19.371Z</time></trkpt><trkpt lat="45.6069963" lon="9.3393775"><ele>183.0</ele><time>2026-04-11T09:59:20.367Z</time></trkpt><trkpt lat="45.6070147" lon="9.3392474"><ele>183.0</ele><time>2026-04-11T09:59:21.372Z</time></trkpt><trkpt lat="45.6070315" lon="9.3391309"><ele>183.0</ele><time>2026-04-11T09:59:22.377Z</time></trkpt><trkpt lat="45.6070465" lon="9.3390316"><ele>183.0</ele><time>2026-04-11T09:59:23.371Z</time></trkpt><trkpt lat="45.6070739" lon="9.3389069"><ele>183.0</ele><time>2026-04-11T09:59:25.369Z</time></trkpt><trkpt lat="45.6071459" lon="9.3388759"><ele>183.0</ele><time>2026-04-11T09:59:29.376Z</time></trkpt><trkpt lat="45.6071978" lon="9.3389531"><ele>183.0</ele><time>2026-04-11T09:59:32.373Z</time></trkpt><trkpt lat="45.6072625" lon="9.3389715"><ele>183.0</ele><time>2026-04-11T09:59:37.376Z</time></trkpt><trkpt lat="45.6072229" lon="9.3389006"><ele>183.0</ele><time>2026-04-11T09:59:47.376Z</time></trkpt><trkpt lat="45.6071599" lon="9.3388586"><ele>183.0</ele><time>2026-04-11T09:59:49.378Z</time></trkpt><trkpt lat="45.6071028" lon="9.3388121"><ele>183.0</ele><time>2026-04-11T09:59:53.405Z</time></trkpt><trkpt lat="45.6070969" lon="9.3386433"><ele>183.25</ele><time>2026-04-11T10:00:47.376Z</time></trkpt><trkpt lat="45.6071132" lon="9.3384971"><ele>183.5</ele><time>2026-04-11T10:00:48.378Z</time></trkpt><trkpt lat="45.607135" lon="9.3383217"><ele>183.75</ele><time>2026-04-11T10:00:49.37Z</time></trkpt><trkpt lat="45.6071646" lon="9.338116"><ele>184.0</ele><time>2026-04-11T10:00:50.376Z</time></trkpt><trkpt lat="45.6071959" lon="9.3378894"><ele>184.0</ele><time>2026-04-11T10:00:51.369Z</time></trkpt><trkpt lat="45.6072287" lon="9.3376458"><ele>184.0</ele><time>2026-04-11T10:00:52.37Z</time></trkpt><trkpt lat="45.6072643" lon="9.337388"><ele>184.0</ele><time>2026-04-11T10:00:53.368Z</time></trkpt><trkpt lat="45.6073013" lon="9.3371298"><ele>183.33333333333334</ele><time>2026-04-11T10:00:54.376Z</time></trkpt><trkpt lat="45.6073336" lon="9.3368915"><ele>182.66666666666666</ele><time>2026-04-11T10:00:55.363Z</time></trkpt><trkpt lat="45.6073658" lon="9.3366623"><ele>182.0</ele><time>2026-04-11T10:00:56.369Z</time></trkpt><trkpt lat="45.6073966" lon="9.3364463"><ele>182.0</ele><time>2026-04-11T10:00:57.37Z</time></trkpt><trkpt lat="45.6074256" lon="9.3362433"><ele>182.0</ele><time>2026-04-11T10:00:58.375Z</time></trkpt><trkpt lat="45.6074586" lon="9.3360436"><ele>182.0</ele><time>2026-04-11T10:00:59.368Z</time></trkpt><trkpt lat="45.6074894" lon="9.3358442"><ele>182.0</ele><time>2026-04-11T10:01:00.375Z</time></trkpt><trkpt lat="45.6075198" lon="9.3356518"><ele>182.75</ele><time>2026-04-11T10:01:01.37Z</time></trkpt><trkpt lat="45.6075461" lon="9.3354603"><ele>183.5</ele><time>2026-04-11T10:01:02.377Z</time></trkpt><trkpt lat="45.6075709" lon="9.3352798"><ele>184.25</ele><time>2026-04-11T10:01:03.368Z</time></trkpt><trkpt lat="45.607597" lon="9.3351033"><ele>185.0</ele><time>2026-04-11T10:01:04.373Z</time></trkpt><trkpt lat="45.6076247" lon="9.3349313"><ele>185.0</ele><time>2026-04-11T10:01:05.368Z</time></trkpt><trkpt lat="45.6076521" lon="9.3347518"><ele>185.0</ele><time>2026-04-11T10:01:06.378Z</time></trkpt><trkpt lat="45.607679" lon="9.3345687"><ele>185.0</ele><time>2026-04-11T10:01:07.37Z</time></trkpt><trkpt lat="45.6077047" lon="9.3343784"><ele>185.0</ele><time>2026-04-11T10:01:08.377Z</time></trkpt><trkpt lat="45.6077348" lon="9.3341835"><ele>184.5</ele><time>2026-04-11T10:01:09.371Z</time></trkpt><trkpt lat="45.6077654" lon="9.3339822"><ele>184.0</ele><time>2026-04-11T10:01:10.377Z</time></trkpt><trkpt lat="45.607797" lon="9.333778"><ele>183.5</ele><time>2026-04-11T10:01:11.368Z</time></trkpt><trkpt lat="45.6078292" lon="9.3335722"><ele>183.0</ele><time>2026-04-11T10:01:12.368Z</time></trkpt><trkpt lat="45.6078589" lon="9.3333777"><ele>183.0</ele><time>2026-04-11T10:01:13.369Z</time></trkpt><trkpt lat="45.6078849" lon="9.3331905"><ele>183.0</ele><time>2026-04-11T10:01:14.378Z</time></trkpt><trkpt lat="45.6079098" lon="9.3330129"><ele>183.0</ele><time>2026-04-11T10:01:15.368Z</time></trkpt><trkpt lat="45.6079325" lon="9.3328451"><ele>183.0</ele><time>2026-04-11T10:01:16.376Z</time></trkpt><trkpt lat="45.6079544" lon="9.3326809"><ele>182.8</ele><time>2026-04-11T10:01:17.369Z</time></trkpt><trkpt lat="45.6079744" lon="9.3325212"><ele>182.60000000000002</ele><time>2026-04-11T10:01:18.368Z</time></trkpt><trkpt lat="45.607996" lon="9.3323744"><ele>182.39999999999998</ele><time>2026-04-11T10:01:19.372Z</time></trkpt><trkpt lat="45.6080157" lon="9.3322367"><ele>182.2</ele><time>2026-04-11T10:01:20.374Z</time></trkpt><trkpt lat="45.608035" lon="9.3321103"><ele>182.0</ele><time>2026-04-11T10:01:21.371Z</time></trkpt><trkpt lat="45.6080544" lon="9.3319928"><ele>182.0</ele><time>2026-04-11T10:01:22.374Z</time></trkpt><trkpt lat="45.608069" lon="9.3318814"><ele>182.0</ele><time>2026-04-11T10:01:23.369Z</time></trkpt><trkpt lat="45.6080858" lon="9.3317614"><ele>182.0</ele><time>2026-04-11T10:01:24.374Z</time></trkpt><trkpt lat="45.6081106" lon="9.3316381"><ele>182.0</ele><time>2026-04-11T10:01:25.367Z</time></trkpt><trkpt lat="45.6081415" lon="9.3315156"><ele>182.0</ele><time>2026-04-11T10:01:26.367Z</time></trkpt><trkpt lat="45.6081751" lon="9.3313991"><ele>182.0</ele><time>2026-04-11T10:01:27.366Z</time></trkpt><trkpt lat="45.6082134" lon="9.3313021"><ele>182.0</ele><time>2026-04-11T10:01:28.369Z</time></trkpt><trkpt lat="45.6082549" lon="9.3312103"><ele>182.0</ele><time>2026-04-11T10:01:29.368Z</time></trkpt><trkpt lat="45.6082931" lon="9.3311387"><ele>182.0</ele><time>2026-04-11T10:01:30.369Z</time></trkpt><trkpt lat="45.6083386" lon="9.3310572"><ele>182.0</ele><time>2026-04-11T10:01:32.372Z</time></trkpt><trkpt lat="45.6083923" lon="9.3309715"><ele>182.0</ele><time>2026-04-11T10:01:34.375Z</time></trkpt><trkpt lat="45.6084424" lon="9.3309091"><ele>182.0</ele><time>2026-04-11T10:01:35.368Z</time></trkpt><trkpt lat="45.6085036" lon="9.3308347"><ele>182.0</ele><time>2026-04-11T10:01:36.366Z</time></trkpt><trkpt lat="45.6085604" lon="9.3307434"><ele>182.0</ele><time>2026-04-11T10:01:37.365Z</time></trkpt><trkpt lat="45.6086056" lon="9.3306368"><ele>182.0</ele><time>2026-04-11T10:01:38.377Z</time></trkpt><trkpt lat="45.608633" lon="9.3305178"><ele>182.0</ele><time>2026-04-11T10:01:39.373Z</time></trkpt><trkpt lat="45.6086419" lon="9.3303922"><ele>182.0</ele><time>2026-04-11T10:01:40.369Z</time></trkpt><trkpt lat="45.6086312" lon="9.3302612"><ele>182.0</ele><time>2026-04-11T10:01:41.391Z</time></trkpt><trkpt lat="45.6085942" lon="9.330137"><ele>182.2</ele><time>2026-04-11T10:01:42.368Z</time></trkpt><trkpt lat="45.6085342" lon="9.3300312"><ele>182.39999999999998</ele><time>2026-04-11T10:01:43.375Z</time></trkpt><trkpt lat="45.6084496" lon="9.3299521"><ele>182.60000000000002</ele><time>2026-04-11T10:01:44.369Z</time></trkpt><trkpt lat="45.6083488" lon="9.3299089"><ele>182.8</ele><time>2026-04-11T10:01:45.376Z</time></trkpt><trkpt lat="45.608237" lon="9.3299108"><ele>183.0</ele><time>2026-04-11T10:01:46.369Z</time></trkpt><trkpt lat="45.6081283" lon="9.3299569"><ele>183.0</ele><time>2026-04-11T10:01:47.374Z</time></trkpt><trkpt lat="45.608036" lon="9.3300385"><ele>183.0</ele><time>2026-04-11T10:01:48.367Z</time></trkpt><trkpt lat="45.6079758" lon="9.3301606"><ele>183.0</ele><time>2026-04-11T10:01:49.393Z</time></trkpt><trkpt lat="45.6079419" lon="9.3303094"><ele>183.0</ele><time>2026-04-11T10:01:50.368Z</time></trkpt><trkpt lat="45.6079318" lon="9.3304735"><ele>183.0</ele><time>2026-04-11T10:01:51.388Z</time></trkpt><trkpt lat="45.6079467" lon="9.3306409"><ele>182.75</ele><time>2026-04-11T10:01:52.37Z</time></trkpt><trkpt lat="45.6079768" lon="9.3308122"><ele>182.5</ele><time>2026-04-11T10:01:53.367Z</time></trkpt><trkpt lat="45.6080117" lon="9.330983"><ele>182.25</ele><time>2026-04-11T10:01:54.373Z</time></trkpt><trkpt lat="45.6080425" lon="9.3311592"><ele>182.0</ele><time>2026-04-11T10:01:55.369Z</time></trkpt><trkpt lat="45.6080589" lon="9.3313518"><ele>182.0</ele><time>2026-04-11T10:01:56.393Z</time></trkpt><trkpt lat="45.6080594" lon="9.331567"><ele>182.0</ele><time>2026-04-11T10:01:57.368Z</time></trkpt><trkpt lat="45.6080433" lon="9.3317908"><ele>182.0</ele><time>2026-04-11T10:01:58.368Z</time></trkpt><trkpt lat="45.6080138" lon="9.3320399"><ele>181.66666666666666</ele><time>2026-04-11T10:01:59.4Z</time></trkpt><trkpt lat="45.6079742" lon="9.3323042"><ele>181.33333333333334</ele><time>2026-04-11T10:02:00.375Z</time></trkpt><trkpt lat="45.6079342" lon="9.3325796"><ele>181.0</ele><time>2026-04-11T10:02:01.367Z</time></trkpt><trkpt lat="45.6078958" lon="9.3328483"><ele>181.0</ele><time>2026-04-11T10:02:02.373Z</time></trkpt><trkpt lat="45.6078568" lon="9.3331098"><ele>181.0</ele><time>2026-04-11T10:02:03.366Z</time></trkpt><trkpt lat="45.6078197" lon="9.3333729"><ele>181.0</ele><time>2026-04-11T10:02:04.368Z</time></trkpt><trkpt lat="45.6077812" lon="9.3336256"><ele>181.0</ele><time>2026-04-11T10:02:05.368Z</time></trkpt><trkpt lat="45.6077468" lon="9.3338718"><ele>181.0</ele><time>2026-04-11T10:02:06.4Z</time></trkpt><trkpt lat="45.6077111" lon="9.3341077"><ele>181.0</ele><time>2026-04-11T10:02:07.369Z</time></trkpt><trkpt lat="45.6076774" lon="9.3343377"><ele>181.66666666666669</ele><time>2026-04-11T10:02:08.369Z</time></trkpt><trkpt lat="45.6076424" lon="9.3345619"><ele>182.33333333333334</ele><time>2026-04-11T10:02:09.366Z</time></trkpt><trkpt lat="45.6076105" lon="9.3347768"><ele>183.0</ele><time>2026-04-11T10:02:10.366Z</time></trkpt><trkpt lat="45.6075764" lon="9.334985"><ele>182.66666666666666</ele><time>2026-04-11T10:02:11.372Z</time></trkpt><trkpt lat="45.6075481" lon="9.3351909"><ele>182.33333333333331</ele><time>2026-04-11T10:02:12.365Z</time></trkpt><trkpt lat="45.607517" lon="9.3353991"><ele>182.0</ele><time>2026-04-11T10:02:13.374Z</time></trkpt><trkpt lat="45.6074873" lon="9.3356182"><ele>182.0</ele><time>2026-04-11T10:02:14.4Z</time></trkpt><trkpt lat="45.6074542" lon="9.3358344"><ele>182.0</ele><time>2026-04-11T10:02:15.367Z</time></trkpt><trkpt lat="45.6074179" lon="9.3360589"><ele>182.0</ele><time>2026-04-11T10:02:16.368Z</time></trkpt><trkpt lat="45.607384" lon="9.3362886"><ele>182.0</ele><time>2026-04-11T10:02:17.392Z</time></trkpt><trkpt lat="45.6073491" lon="9.336526"><ele>182.0</ele><time>2026-04-11T10:02:18.368Z</time></trkpt><trkpt lat="45.607314" lon="9.3367691"><ele>182.0</ele><time>2026-04-11T10:02:19.375Z</time></trkpt><trkpt lat="45.6072795" lon="9.3370189"><ele>182.66666666666666</ele><time>2026-04-11T10:02:20.393Z</time></trkpt><trkpt lat="45.6072452" lon="9.3372733"><ele>183.33333333333334</ele><time>2026-04-11T10:02:21.374Z</time></trkpt><trkpt lat="45.6072075" lon="9.3375266"><ele>184.0</ele><time>2026-04-11T10:02:22.37Z</time></trkpt><trkpt lat="45.6071695" lon="9.3377831"><ele>184.0</ele><time>2026-04-11T10:02:23.367Z</time></trkpt><trkpt lat="45.6071292" lon="9.3380396"><ele>184.0</ele><time>2026-04-11T10:02:24.372Z</time></trkpt><trkpt lat="45.6070927" lon="9.3382977"><ele>184.0</ele><time>2026-04-11T10:02:25.371Z</time></trkpt><trkpt lat="45.6070538" lon="9.3385536"><ele>184.0</ele><time>2026-04-11T10:02:26.373Z</time></trkpt><trkpt lat="45.6070177" lon="9.3388159"><ele>184.0</ele><time>2026-04-11T10:02:27.369Z</time></trkpt><trkpt lat="45.606981" lon="9.3390793"><ele>184.0</ele><time>2026-04-11T10:02:28.391Z</time></trkpt><trkpt lat="45.6069449" lon="9.3393348"><ele>183.66666666666669</ele><time>2026-04-11T10:02:29.371Z</time></trkpt><trkpt lat="45.6069067" lon="9.339588"><ele>183.33333333333334</ele><time>2026-04-11T10:02:30.37Z</time></trkpt><trkpt lat="45.6068697" lon="9.3398445"><ele>183.0</ele><time>2026-04-11T10:02:31.368Z</time></trkpt><trkpt lat="45.6068352" lon="9.3401057"><ele>182.66666666666666</ele><time>2026-04-11T10:02:32.389Z</time></trkpt><trkpt lat="45.6068008" lon="9.3403668"><ele>182.33333333333331</ele><time>2026-04-11T10:02:33.377Z</time></trkpt><trkpt lat="45.606765" lon="9.3406267"><ele>182.0</ele><time>2026-04-11T10:02:34.365Z</time></trkpt><trkpt lat="45.6067286" lon="9.3408822"><ele>182.0</ele><time>2026-04-11T10:02:35.391Z</time></trkpt><trkpt lat="45.6066911" lon="9.3411423"><ele>182.0</ele><time>2026-04-11T10:02:36.374Z</time></trkpt><trkpt lat="45.6066526" lon="9.3414022"><ele>182.0</ele><time>2026-04-11T10:02:37.37Z</time></trkpt><trkpt lat="45.6066118" lon="9.3416614"><ele>182.0</ele><time>2026-04-11T10:02:38.395Z</time></trkpt><trkpt lat="45.6065702" lon="9.3419204"><ele>182.0</ele><time>2026-04-11T10:02:39.37Z</time></trkpt><trkpt lat="45.606531" lon="9.3421852"><ele>182.0</ele><time>2026-04-11T10:02:40.376Z</time></trkpt><trkpt lat="45.6064952" lon="9.3424442"><ele>182.66666666666666</ele><time>2026-04-11T10:02:41.369Z</time></trkpt><trkpt lat="45.6064598" lon="9.3426919"><ele>183.33333333333334</ele><time>2026-04-11T10:02:42.376Z</time></trkpt><trkpt lat="45.6064274" lon="9.3429291"><ele>184.0</ele><time>2026-04-11T10:02:43.369Z</time></trkpt><trkpt lat="45.6063946" lon="9.3431574"><ele>184.0</ele><time>2026-04-11T10:02:44.376Z</time></trkpt><trkpt lat="45.6063584" lon="9.3433869"><ele>184.0</ele><time>2026-04-11T10:02:45.368Z</time></trkpt><trkpt lat="45.6063241" lon="9.3436197"><ele>184.0</ele><time>2026-04-11T10:02:46.373Z</time></trkpt><trkpt lat="45.6062912" lon="9.3438519"><ele>184.33333333333334</ele><time>2026-04-11T10:02:47.371Z</time></trkpt><trkpt lat="45.6062575" lon="9.3440818"><ele>184.66666666666666</ele><time>2026-04-11T10:02:48.367Z</time></trkpt><trkpt lat="45.6062231" lon="9.3443059"><ele>185.0</ele><time>2026-04-11T10:02:49.373Z</time></trkpt><trkpt lat="45.6061905" lon="9.3445297"><ele>185.0</ele><time>2026-04-11T10:02:50.369Z</time></trkpt><trkpt lat="45.6061579" lon="9.3447477"><ele>185.0</ele><time>2026-04-11T10:02:51.388Z</time></trkpt><trkpt lat="45.6061206" lon="9.3449687"><ele>185.0</ele><time>2026-04-11T10:02:52.368Z</time></trkpt><trkpt lat="45.6060923" lon="9.3451689"><ele>185.0</ele><time>2026-04-11T10:02:53.392Z</time></trkpt><trkpt lat="45.6060567" lon="9.3453787"><ele>185.0</ele><time>2026-04-11T10:02:54.392Z</time></trkpt><trkpt lat="45.6060278" lon="9.3455844"><ele>185.0</ele><time>2026-04-11T10:02:55.367Z</time></trkpt><trkpt lat="45.6059956" lon="9.3457795"><ele>185.0</ele><time>2026-04-11T10:02:56.403Z</time></trkpt><trkpt lat="45.6059695" lon="9.3459692"><ele>185.0</ele><time>2026-04-11T10:02:57.37Z</time></trkpt><trkpt lat="45.6059431" lon="9.3461468"><ele>185.0</ele><time>2026-04-11T10:02:58.377Z</time></trkpt><trkpt lat="45.6059221" lon="9.346317"><ele>185.0</ele><time>2026-04-11T10:02:59.369Z</time></trkpt><trkpt lat="45.6058992" lon="9.3464699"><ele>185.0</ele><time>2026-04-11T10:03:00.376Z</time></trkpt><trkpt lat="45.6058785" lon="9.3466114"><ele>184.66666666666666</ele><time>2026-04-11T10:03:01.371Z</time></trkpt><trkpt lat="45.605857" lon="9.346728"><ele>184.33333333333331</ele><time>2026-04-11T10:03:02.376Z</time></trkpt><trkpt lat="45.6058436" lon="9.3468221"><ele>184.0</ele><time>2026-04-11T10:03:03.366Z</time></trkpt><trkpt lat="45.6057937" lon="9.3469801"><ele>183.66666666666666</ele><time>2026-04-11T10:03:05.366Z</time></trkpt><trkpt lat="45.6057498" lon="9.3470551"><ele>183.33333333333334</ele><time>2026-04-11T10:03:06.369Z</time></trkpt><trkpt lat="45.6057056" lon="9.3471224"><ele>183.0</ele><time>2026-04-11T10:03:07.371Z</time></trkpt><trkpt lat="45.6056627" lon="9.3471919"><ele>182.60000000000002</ele><time>2026-04-11T10:03:08.377Z</time></trkpt><trkpt lat="45.6056502" lon="9.3473642"><ele>182.20000000000002</ele><time>2026-04-11T10:03:10.395Z</time></trkpt><trkpt lat="45.6057353" lon="9.3474878"><ele>181.8</ele><time>2026-04-11T10:03:12.398Z</time></trkpt><trkpt lat="45.6058061" lon="9.3475069"><ele>181.4</ele><time>2026-04-11T10:03:13.369Z</time></trkpt><trkpt lat="45.6058764" lon="9.3474888"><ele>181.0</ele><time>2026-04-11T10:03:14.367Z</time></trkpt><trkpt lat="45.6059554" lon="9.3474416"><ele>181.0</ele><time>2026-04-11T10:03:15.375Z</time></trkpt><trkpt lat="45.6060426" lon="9.3473851"><ele>181.0</ele><time>2026-04-11T10:03:16.396Z</time></trkpt><trkpt lat="45.6061357" lon="9.3473346"><ele>181.0</ele><time>2026-04-11T10:03:17.371Z</time></trkpt><trkpt lat="45.6062421" lon="9.3472826"><ele>181.0</ele><time>2026-04-11T10:03:18.399Z</time></trkpt><trkpt lat="45.606351" lon="9.347219"><ele>181.0</ele><time>2026-04-11T10:03:19.369Z</time></trkpt><trkpt lat="45.6064609" lon="9.3471557"><ele>181.8</ele><time>2026-04-11T10:03:20.367Z</time></trkpt><trkpt lat="45.6065697" lon="9.3470912"><ele>182.60000000000002</ele><time>2026-04-11T10:03:21.374Z</time></trkpt><trkpt lat="45.6066672" lon="9.347031"><ele>183.4</ele><time>2026-04-11T10:03:22.368Z</time></trkpt><trkpt lat="45.6067615" lon="9.346972"><ele>184.2</ele><time>2026-04-11T10:03:23.369Z</time></trkpt><trkpt lat="45.6068586" lon="9.3469255"><ele>185.0</ele><time>2026-04-11T10:03:24.367Z</time></trkpt><trkpt lat="45.606964" lon="9.3468971"><ele>185.0</ele><time>2026-04-11T10:03:25.392Z</time></trkpt><trkpt lat="45.6070731" lon="9.3468931"><ele>185.0</ele><time>2026-04-11T10:03:26.369Z</time></trkpt><trkpt lat="45.6071781" lon="9.3469183"><ele>185.0</ele><time>2026-04-11T10:03:27.373Z</time></trkpt><trkpt lat="45.607286" lon="9.3469778"><ele>185.0</ele><time>2026-04-11T10:03:28.367Z</time></trkpt><trkpt lat="45.6074015" lon="9.3470436"><ele>185.0</ele><time>2026-04-11T10:03:29.374Z</time></trkpt><trkpt lat="45.6075402" lon="9.3471302"><ele>185.0</ele><time>2026-04-11T10:03:30.368Z</time></trkpt><trkpt lat="45.6076749" lon="9.3472191"><ele>185.0</ele><time>2026-04-11T10:03:31.374Z</time></trkpt><trkpt lat="45.6078017" lon="9.3472984"><ele>185.0</ele><time>2026-04-11T10:03:32.372Z</time></trkpt><trkpt lat="45.6079209" lon="9.3473751"><ele>185.0</ele><time>2026-04-11T10:03:33.395Z</time></trkpt><trkpt lat="45.608042" lon="9.3474579"><ele>185.0</ele><time>2026-04-11T10:03:34.397Z</time></trkpt><trkpt lat="45.6081687" lon="9.3475218"><ele>185.0</ele><time>2026-04-11T10:03:35.37Z</time></trkpt><trkpt lat="45.6083063" lon="9.3475771"><ele>185.0</ele><time>2026-04-11T10:03:36.373Z</time></trkpt><trkpt lat="45.6084487" lon="9.3476221"><ele>185.0</ele><time>2026-04-11T10:03:37.367Z</time></trkpt><trkpt lat="45.608607" lon="9.3476631"><ele>185.0</ele><time>2026-04-11T10:03:38.371Z</time></trkpt><trkpt lat="45.6087521" lon="9.3477003"><ele>185.0</ele><time>2026-04-11T10:03:39.367Z</time></trkpt><trkpt lat="45.60889" lon="9.3477394"><ele>185.0</ele><time>2026-04-11T10:03:40.376Z</time></trkpt><trkpt lat="45.6090241" lon="9.3477744"><ele>185.0</ele><time>2026-04-11T10:03:41.366Z</time></trkpt><trkpt lat="45.6091429" lon="9.3478038"><ele>185.0</ele><time>2026-04-11T10:03:42.376Z</time></trkpt><trkpt lat="45.6092438" lon="9.34783"><ele>185.0</ele><time>2026-04-11T10:03:43.365Z</time></trkpt><trkpt lat="45.6093269" lon="9.3478527"><ele>185.0</ele><time>2026-04-11T10:03:44.369Z</time></trkpt><trkpt lat="45.6093939" lon="9.3478676"><ele>185.0</ele><time>2026-04-11T10:03:45.365Z</time></trkpt><trkpt lat="45.6095018" lon="9.3478894"><ele>185.0</ele><time>2026-04-11T10:03:47.368Z</time></trkpt><trkpt lat="45.6096339" lon="9.3478904"><ele>185.0</ele><time>2026-04-11T10:03:49.364Z</time></trkpt><trkpt lat="45.609706" lon="9.3478817"><ele>185.0</ele><time>2026-04-11T10:03:50.362Z</time></trkpt><trkpt lat="45.6097831" lon="9.3478752"><ele>185.0</ele><time>2026-04-11T10:03:51.396Z</time></trkpt><trkpt lat="45.6098641" lon="9.3478647"><ele>185.0</ele><time>2026-04-11T10:03:52.367Z</time></trkpt><trkpt lat="45.6099566" lon="9.3478494"><ele>185.0</ele><time>2026-04-11T10:03:53.374Z</time></trkpt><trkpt lat="45.6100564" lon="9.3478307"><ele>185.0</ele><time>2026-04-11T10:03:54.369Z</time></trkpt><trkpt lat="45.6101578" lon="9.3478113"><ele>185.0</ele><time>2026-04-11T10:03:55.374Z</time></trkpt><trkpt lat="45.6102564" lon="9.3477928"><ele>185.0</ele><time>2026-04-11T10:03:56.367Z</time></trkpt><trkpt lat="45.6103466" lon="9.3477703"><ele>185.0</ele><time>2026-04-11T10:03:57.389Z</time></trkpt><trkpt lat="45.6104413" lon="9.3477391"><ele>185.0</ele><time>2026-04-11T10:03:58.366Z</time></trkpt><trkpt lat="45.6105409" lon="9.3477168"><ele>185.0</ele><time>2026-04-11T10:03:59.375Z</time></trkpt><trkpt lat="45.6106429" lon="9.3476954"><ele>185.0</ele><time>2026-04-11T10:04:00.37Z</time></trkpt><trkpt lat="45.610745" lon="9.3476707"><ele>185.0</ele><time>2026-04-11T10:04:01.404Z</time></trkpt><trkpt lat="45.6108421" lon="9.3476425"><ele>185.0</ele><time>2026-04-11T10:04:02.367Z</time></trkpt><trkpt lat="45.6109332" lon="9.3476095"><ele>185.0</ele><time>2026-04-11T10:04:03.375Z</time></trkpt><trkpt lat="45.611025" lon="9.3475656"><ele>185.0</ele><time>2026-04-11T10:04:04.369Z</time></trkpt><trkpt lat="45.611117" lon="9.3475238"><ele>185.0</ele><time>2026-04-11T10:04:05.374Z</time></trkpt><trkpt lat="45.6112051" lon="9.3474777"><ele>185.0</ele><time>2026-04-11T10:04:06.368Z</time></trkpt><trkpt lat="45.6112825" lon="9.3474311"><ele>185.0</ele><time>2026-04-11T10:04:07.377Z</time></trkpt><trkpt lat="45.6113553" lon="9.347396"><ele>185.0</ele><time>2026-04-11T10:04:08.369Z</time></trkpt><trkpt lat="45.611416" lon="9.3473663"><ele>185.33333333333331</ele><time>2026-04-11T10:04:09.377Z</time></trkpt><trkpt lat="45.6114879" lon="9.3473618"><ele>185.66666666666666</ele><time>2026-04-11T10:04:11.377Z</time></trkpt><trkpt lat="45.6115383" lon="9.3475047"><ele>186.0</ele><time>2026-04-11T10:04:14.376Z</time></trkpt><trkpt lat="45.6115593" lon="9.3476046"><ele>186.33333333333334</ele><time>2026-04-11T10:04:15.377Z</time></trkpt><trkpt lat="45.6115841" lon="9.34773"><ele>186.66666666666669</ele><time>2026-04-11T10:04:16.371Z</time></trkpt><trkpt lat="45.6116133" lon="9.3478649"><ele>187.0</ele><time>2026-04-11T10:04:17.376Z</time></trkpt><trkpt lat="45.6116444" lon="9.3479983"><ele>186.39999999999998</ele><time>2026-04-11T10:04:18.368Z</time></trkpt><trkpt lat="45.6116755" lon="9.3481162"><ele>185.79999999999998</ele><time>2026-04-11T10:04:19.376Z</time></trkpt><trkpt lat="45.6117053" lon="9.3482442"><ele>185.2</ele><time>2026-04-11T10:04:20.369Z</time></trkpt><trkpt lat="45.6117311" lon="9.3483723"><ele>184.6</ele><time>2026-04-11T10:04:21.395Z</time></trkpt><trkpt lat="45.6117592" lon="9.3485078"><ele>184.0</ele><time>2026-04-11T10:04:22.37Z</time></trkpt><trkpt lat="45.6117915" lon="9.3486487"><ele>184.0</ele><time>2026-04-11T10:04:23.373Z</time></trkpt><trkpt lat="45.6118233" lon="9.348803"><ele>184.0</ele><time>2026-04-11T10:04:24.368Z</time></trkpt><trkpt lat="45.6118594" lon="9.3489692"><ele>184.0</ele><time>2026-04-11T10:04:25.372Z</time></trkpt><trkpt lat="45.611893" lon="9.3491324"><ele>184.0</ele><time>2026-04-11T10:04:26.368Z</time></trkpt><trkpt lat="45.6119255" lon="9.3492886"><ele>183.79999999999998</ele><time>2026-04-11T10:04:27.375Z</time></trkpt><trkpt lat="45.6119582" lon="9.3494391"><ele>183.6</ele><time>2026-04-11T10:04:28.369Z</time></trkpt><trkpt lat="45.6119864" lon="9.3495858"><ele>183.4</ele><time>2026-04-11T10:04:29.376Z</time></trkpt><trkpt lat="45.6120197" lon="9.3497317"><ele>183.2</ele><time>2026-04-11T10:04:30.368Z</time></trkpt><trkpt lat="45.6120533" lon="9.3498626"><ele>183.0</ele><time>2026-04-11T10:04:31.371Z</time></trkpt><trkpt lat="45.6120852" lon="9.3499955"><ele>183.5</ele><time>2026-04-11T10:04:32.366Z</time></trkpt><trkpt lat="45.6121183" lon="9.3501372"><ele>184.0</ele><time>2026-04-11T10:04:33.372Z</time></trkpt><trkpt lat="45.61216" lon="9.3502871"><ele>184.5</ele><time>2026-04-11T10:04:34.368Z</time></trkpt><trkpt lat="45.6122115" lon="9.350452"><ele>185.0</ele><time>2026-04-11T10:04:35.376Z</time></trkpt><trkpt lat="45.6122638" lon="9.3506402"><ele>185.5</ele><time>2026-04-11T10:04:36.369Z</time></trkpt><trkpt lat="45.6123184" lon="9.350815"><ele>186.0</ele><time>2026-04-11T10:04:37.374Z</time></trkpt><trkpt lat="45.612371" lon="9.3509842"><ele>186.5</ele><time>2026-04-11T10:04:38.37Z</time></trkpt><trkpt lat="45.6124288" lon="9.3511656"><ele>187.0</ele><time>2026-04-11T10:04:39.375Z</time></trkpt><trkpt lat="45.6124849" lon="9.3513373"><ele>186.8</ele><time>2026-04-11T10:04:40.37Z</time></trkpt><trkpt lat="45.6125335" lon="9.351489"><ele>186.6</ele><time>2026-04-11T10:04:41.376Z</time></trkpt><trkpt lat="45.6125828" lon="9.351637"><ele>186.4</ele><time>2026-04-11T10:04:42.368Z</time></trkpt><trkpt lat="45.6126276" lon="9.3517671"><ele>186.20000000000002</ele><time>2026-04-11T10:04:43.374Z</time></trkpt><trkpt lat="45.6126734" lon="9.3518885"><ele>186.0</ele><time>2026-04-11T10:04:44.372Z</time></trkpt><trkpt lat="45.6127239" lon="9.3520198"><ele>186.0</ele><time>2026-04-11T10:04:45.375Z</time></trkpt><trkpt lat="45.6127744" lon="9.3521586"><ele>186.0</ele><time>2026-04-11T10:04:46.369Z</time></trkpt><trkpt lat="45.6128267" lon="9.3522886"><ele>186.0</ele><time>2026-04-11T10:04:47.377Z</time></trkpt><trkpt lat="45.6128709" lon="9.3524093"><ele>186.0</ele><time>2026-04-11T10:04:48.369Z</time></trkpt><trkpt lat="45.6129151" lon="9.3525219"><ele>186.0</ele><time>2026-04-11T10:04:49.375Z</time></trkpt><trkpt lat="45.6129568" lon="9.352641"><ele>186.20000000000002</ele><time>2026-04-11T10:04:50.376Z</time></trkpt><trkpt lat="45.6129971" lon="9.3527584"><ele>186.4</ele><time>2026-04-11T10:04:51.375Z</time></trkpt><trkpt lat="45.6130338" lon="9.3528793"><ele>186.6</ele><time>2026-04-11T10:04:52.368Z</time></trkpt><trkpt lat="45.6130656" lon="9.3530068"><ele>186.8</ele><time>2026-04-11T10:04:53.373Z</time></trkpt><trkpt lat="45.6130915" lon="9.3531295"><ele>187.0</ele><time>2026-04-11T10:04:54.369Z</time></trkpt><trkpt lat="45.6131131" lon="9.3532492"><ele>187.0</ele><time>2026-04-11T10:04:55.367Z</time></trkpt><trkpt lat="45.6131331" lon="9.3533623"><ele>187.0</ele><time>2026-04-11T10:04:56.372Z</time></trkpt><trkpt lat="45.6131655" lon="9.3534651"><ele>187.0</ele><time>2026-04-11T10:04:57.375Z</time></trkpt><trkpt lat="45.6131985" lon="9.3535504"><ele>187.0</ele><time>2026-04-11T10:04:58.394Z</time></trkpt><trkpt lat="45.6132468" lon="9.3536521"><ele>187.0</ele><time>2026-04-11T10:05:00.368Z</time></trkpt><trkpt lat="45.6132953" lon="9.3537683"><ele>187.0</ele><time>2026-04-11T10:05:02.374Z</time></trkpt><trkpt lat="45.6133801" lon="9.3538712"><ele>187.0</ele><time>2026-04-11T10:05:04.368Z</time></trkpt><trkpt lat="45.6134868" lon="9.3538336"><ele>187.0</ele><time>2026-04-11T10:05:06.367Z</time></trkpt><trkpt lat="45.6135317" lon="9.3537495"><ele>187.0</ele><time>2026-04-11T10:05:07.373Z</time></trkpt><trkpt lat="45.6135827" lon="9.3536334"><ele>187.0</ele><time>2026-04-11T10:05:08.369Z</time></trkpt><trkpt lat="45.6136421" lon="9.3535108"><ele>187.0</ele><time>2026-04-11T10:05:09.375Z</time></trkpt><trkpt lat="45.6137077" lon="9.353376"><ele>187.0</ele><time>2026-04-11T10:05:10.369Z</time></trkpt><trkpt lat="45.613777" lon="9.3532327"><ele>187.0</ele><time>2026-04-11T10:05:11.376Z</time></trkpt><trkpt lat="45.6138557" lon="9.3530772"><ele>187.0</ele><time>2026-04-11T10:05:12.368Z</time></trkpt><trkpt lat="45.6139491" lon="9.3529106"><ele>187.0</ele><time>2026-04-11T10:05:13.376Z</time></trkpt><trkpt lat="45.6140556" lon="9.3527455"><ele>186.75</ele><time>2026-04-11T10:05:14.369Z</time></trkpt><trkpt lat="45.6141622" lon="9.3526027"><ele>186.5</ele><time>2026-04-11T10:05:15.376Z</time></trkpt><trkpt lat="45.6142733" lon="9.3524788"><ele>186.25</ele><time>2026-04-11T10:05:16.394Z</time></trkpt><trkpt lat="45.6143912" lon="9.352368"><ele>186.0</ele><time>2026-04-11T10:05:17.394Z</time></trkpt><trkpt lat="45.6145128" lon="9.3522626"><ele>187.0</ele><time>2026-04-11T10:05:18.368Z</time></trkpt><trkpt lat="45.6146391" lon="9.3521513"><ele>188.0</ele><time>2026-04-11T10:05:19.371Z</time></trkpt><trkpt lat="45.61477" lon="9.3520414"><ele>189.0</ele><time>2026-04-11T10:05:20.371Z</time></trkpt><trkpt lat="45.6149036" lon="9.3519279"><ele>189.0</ele><time>2026-04-11T10:05:21.376Z</time></trkpt><trkpt lat="45.6150363" lon="9.3518134"><ele>189.0</ele><time>2026-04-11T10:05:22.364Z</time></trkpt><trkpt lat="45.615164" lon="9.351709"><ele>189.0</ele><time>2026-04-11T10:05:23.372Z</time></trkpt><trkpt lat="45.6152881" lon="9.3516106"><ele>189.0</ele><time>2026-04-11T10:05:24.368Z</time></trkpt><trkpt lat="45.6154118" lon="9.3515233"><ele>189.5</ele><time>2026-04-11T10:05:25.375Z</time></trkpt><trkpt lat="45.6155456" lon="9.3514566"><ele>190.0</ele><time>2026-04-11T10:05:26.396Z</time></trkpt><trkpt lat="45.6156793" lon="9.3514045"><ele>190.5</ele><time>2026-04-11T10:05:27.376Z</time></trkpt><trkpt lat="45.6158081" lon="9.351362"><ele>191.0</ele><time>2026-04-11T10:05:28.37Z</time></trkpt><trkpt lat="45.6159402" lon="9.3513228"><ele>191.25</ele><time>2026-04-11T10:05:29.379Z</time></trkpt><trkpt lat="45.6160676" lon="9.3512832"><ele>191.5</ele><time>2026-04-11T10:05:30.369Z</time></trkpt><trkpt lat="45.6161906" lon="9.3512486"><ele>191.75</ele><time>2026-04-11T10:05:31.375Z</time></trkpt><trkpt lat="45.616307" lon="9.3512175"><ele>192.0</ele><time>2026-04-11T10:05:32.371Z</time></trkpt><trkpt lat="45.6164264" lon="9.3511816"><ele>192.6</ele><time>2026-04-11T10:05:33.375Z</time></trkpt><trkpt lat="45.6165471" lon="9.3511522"><ele>193.2</ele><time>2026-04-11T10:05:34.367Z</time></trkpt><trkpt lat="45.6166571" lon="9.3511164"><ele>193.8</ele><time>2026-04-11T10:05:35.368Z</time></trkpt><trkpt lat="45.6167611" lon="9.3510905"><ele>194.4</ele><time>2026-04-11T10:05:36.377Z</time></trkpt><trkpt lat="45.6168599" lon="9.3510596"><ele>195.0</ele><time>2026-04-11T10:05:37.368Z</time></trkpt><trkpt lat="45.6169638" lon="9.3510384"><ele>195.0</ele><time>2026-04-11T10:05:38.376Z</time></trkpt><trkpt lat="45.6170645" lon="9.3510071"><ele>195.0</ele><time>2026-04-11T10:05:39.368Z</time></trkpt><trkpt lat="45.6171668" lon="9.350983"><ele>195.0</ele><time>2026-04-11T10:05:40.377Z</time></trkpt><trkpt lat="45.617271" lon="9.350955"><ele>195.0</ele><time>2026-04-11T10:05:41.376Z</time></trkpt><trkpt lat="45.6173806" lon="9.3509252"><ele>195.0</ele><time>2026-04-11T10:05:42.365Z</time></trkpt><trkpt lat="45.6174895" lon="9.350896"><ele>195.0</ele><time>2026-04-11T10:05:43.366Z</time></trkpt><trkpt lat="45.6176018" lon="9.3508659"><ele>195.0</ele><time>2026-04-11T10:05:44.395Z</time></trkpt><trkpt lat="45.6177093" lon="9.3508356"><ele>195.0</ele><time>2026-04-11T10:05:45.367Z</time></trkpt><trkpt lat="45.6178179" lon="9.3508053"><ele>195.0</ele><time>2026-04-11T10:05:46.376Z</time></trkpt><trkpt lat="45.6179206" lon="9.350778"><ele>195.0</ele><time>2026-04-11T10:05:47.395Z</time></trkpt><trkpt lat="45.6180183" lon="9.3507516"><ele>195.4</ele><time>2026-04-11T10:05:48.375Z</time></trkpt><trkpt lat="45.6181095" lon="9.3507261"><ele>195.8</ele><time>2026-04-11T10:05:49.367Z</time></trkpt><trkpt lat="45.6182017" lon="9.3506976"><ele>196.2</ele><time>2026-04-11T10:05:50.379Z</time></trkpt><trkpt lat="45.6182978" lon="9.3506691"><ele>196.6</ele><time>2026-04-11T10:05:51.368Z</time></trkpt><trkpt lat="45.6183982" lon="9.3506405"><ele>197.0</ele><time>2026-04-11T10:05:52.366Z</time></trkpt><trkpt lat="45.6184967" lon="9.3506134"><ele>197.00000000000003</ele><time>2026-04-11T10:05:53.365Z</time></trkpt><trkpt lat="45.6185872" lon="9.3505903"><ele>197.0</ele><time>2026-04-11T10:05:54.376Z</time></trkpt><trkpt lat="45.6186666" lon="9.3505689"><ele>197.0</ele><time>2026-04-11T10:05:55.367Z</time></trkpt><trkpt lat="45.6187425" lon="9.3505466"><ele>197.0</ele><time>2026-04-11T10:05:56.374Z</time></trkpt><trkpt lat="45.6188131" lon="9.3505274"><ele>197.00000000000003</ele><time>2026-04-11T10:05:57.367Z</time></trkpt><trkpt lat="45.6188778" lon="9.3505101"><ele>197.0</ele><time>2026-04-11T10:05:58.376Z</time></trkpt><trkpt lat="45.6189737" lon="9.3504902"><ele>197.00000000000003</ele><time>2026-04-11T10:06:00.376Z</time></trkpt><trkpt lat="45.6190411" lon="9.3504821"><ele>197.0</ele><time>2026-04-11T10:06:02.376Z</time></trkpt><trkpt lat="45.6190924" lon="9.3504288"><ele>197.0</ele><time>2026-04-11T10:06:48.378Z</time></trkpt><trkpt lat="45.6191623" lon="9.3504206"><ele>197.0</ele><time>2026-04-11T10:06:49.372Z</time></trkpt><trkpt lat="45.6192396" lon="9.350405"><ele>197.00000000000003</ele><time>2026-04-11T10:06:50.376Z</time></trkpt><trkpt lat="45.6193203" lon="9.3503905"><ele>197.0</ele><time>2026-04-11T10:06:51.369Z</time></trkpt><trkpt lat="45.6194131" lon="9.3503775"><ele>196.8</ele><time>2026-04-11T10:06:52.376Z</time></trkpt><trkpt lat="45.6195132" lon="9.3503694"><ele>196.6</ele><time>2026-04-11T10:06:53.368Z</time></trkpt><trkpt lat="45.6196175" lon="9.3503767"><ele>196.4</ele><time>2026-04-11T10:06:54.375Z</time></trkpt><trkpt lat="45.6197262" lon="9.3503995"><ele>196.20000000000002</ele><time>2026-04-11T10:06:55.368Z</time></trkpt><trkpt lat="45.6198391" lon="9.3504287"><ele>196.0</ele><time>2026-04-11T10:06:56.37Z</time></trkpt><trkpt lat="45.6199507" lon="9.3504496"><ele>196.0</ele><time>2026-04-11T10:06:57.369Z</time></trkpt><trkpt lat="45.6200583" lon="9.3504738"><ele>196.0</ele><time>2026-04-11T10:06:58.377Z</time></trkpt><trkpt lat="45.6201679" lon="9.3504972"><ele>196.0</ele><time>2026-04-11T10:06:59.368Z</time></trkpt><trkpt lat="45.6202805" lon="9.3505235"><ele>196.0</ele><time>2026-04-11T10:07:00.377Z</time></trkpt><trkpt lat="45.6203988" lon="9.3505151"><ele>196.5</ele><time>2026-04-11T10:07:01.368Z</time></trkpt><trkpt lat="45.620517" lon="9.3504988"><ele>197.0</ele><time>2026-04-11T10:07:02.391Z</time></trkpt><trkpt lat="45.6206363" lon="9.3504672"><ele>197.5</ele><time>2026-04-11T10:07:03.369Z</time></trkpt><trkpt lat="45.6207602" lon="9.3504264"><ele>198.0</ele><time>2026-04-11T10:07:04.376Z</time></trkpt><trkpt lat="45.6208786" lon="9.3503688"><ele>198.0</ele><time>2026-04-11T10:07:05.368Z</time></trkpt><trkpt lat="45.6209916" lon="9.3502934"><ele>198.0</ele><time>2026-04-11T10:07:06.397Z</time></trkpt><trkpt lat="45.6211055" lon="9.3502032"><ele>198.0</ele><time>2026-04-11T10:07:07.368Z</time></trkpt><trkpt lat="45.62121" lon="9.3501106"><ele>198.0</ele><time>2026-04-11T10:07:08.37Z</time></trkpt><trkpt lat="45.6213063" lon="9.3500265"><ele>198.0</ele><time>2026-04-11T10:07:09.399Z</time></trkpt><trkpt lat="45.6213974" lon="9.3499446"><ele>198.0</ele><time>2026-04-11T10:07:10.376Z</time></trkpt><trkpt lat="45.6214844" lon="9.3498599"><ele>198.0</ele><time>2026-04-11T10:07:11.368Z</time></trkpt><trkpt lat="45.6215639" lon="9.3497846"><ele>198.0</ele><time>2026-04-11T10:07:12.393Z</time></trkpt><trkpt lat="45.6216401" lon="9.3497166"><ele>198.0</ele><time>2026-04-11T10:07:13.378Z</time></trkpt><trkpt lat="45.6217124" lon="9.3496475"><ele>198.25</ele><time>2026-04-11T10:07:14.366Z</time></trkpt><trkpt lat="45.6217988" lon="9.3495677"><ele>198.5</ele><time>2026-04-11T10:07:15.377Z</time></trkpt><trkpt lat="45.6218991" lon="9.3494868"><ele>198.75</ele><time>2026-04-11T10:07:16.368Z</time></trkpt><trkpt lat="45.6220137" lon="9.3493991"><ele>199.0</ele><time>2026-04-11T10:07:17.373Z</time></trkpt><trkpt lat="45.6221363" lon="9.3493184"><ele>198.25</ele><time>2026-04-11T10:07:18.398Z</time></trkpt><trkpt lat="45.6222654" lon="9.3492403"><ele>197.5</ele><time>2026-04-11T10:07:19.372Z</time></trkpt><trkpt lat="45.6223949" lon="9.3491701"><ele>196.75</ele><time>2026-04-11T10:07:20.369Z</time></trkpt><trkpt lat="45.6225303" lon="9.3491014"><ele>196.0</ele><time>2026-04-11T10:07:21.376Z</time></trkpt><trkpt lat="45.6226661" lon="9.3490309"><ele>196.0</ele><time>2026-04-11T10:07:22.369Z</time></trkpt><trkpt lat="45.6227999" lon="9.3489677"><ele>196.0</ele><time>2026-04-11T10:07:23.376Z</time></trkpt><trkpt lat="45.6229351" lon="9.3489077"><ele>196.0</ele><time>2026-04-11T10:07:24.369Z</time></trkpt><trkpt lat="45.6230719" lon="9.3488432"><ele>196.0</ele><time>2026-04-11T10:07:25.374Z</time></trkpt><trkpt lat="45.6232131" lon="9.3487807"><ele>196.0</ele><time>2026-04-11T10:07:26.369Z</time></trkpt><trkpt lat="45.623356" lon="9.3487144"><ele>196.0</ele><time>2026-04-11T10:07:27.369Z</time></trkpt><trkpt lat="45.6235" lon="9.3486477"><ele>196.0</ele><time>2026-04-11T10:07:28.392Z</time></trkpt><trkpt lat="45.6236419" lon="9.3485789"><ele>196.25</ele><time>2026-04-11T10:07:29.366Z</time></trkpt><trkpt lat="45.6237829" lon="9.3485111"><ele>196.5</ele><time>2026-04-11T10:07:30.368Z</time></trkpt><trkpt lat="45.6239223" lon="9.3484408"><ele>196.75</ele><time>2026-04-11T10:07:31.376Z</time></trkpt><trkpt lat="45.6240626" lon="9.3483723"><ele>197.0</ele><time>2026-04-11T10:07:32.367Z</time></trkpt><trkpt lat="45.6242079" lon="9.3483051"><ele>197.0</ele><time>2026-04-11T10:07:33.375Z</time></trkpt><trkpt lat="45.6243556" lon="9.348219"><ele>197.0</ele><time>2026-04-11T10:07:34.367Z</time></trkpt><trkpt lat="45.6245199" lon="9.3481136"><ele>197.0</ele><time>2026-04-11T10:07:35.361Z</time></trkpt><trkpt lat="45.6246885" lon="9.3479793"><ele>197.66666666666669</ele><time>2026-04-11T10:07:36.368Z</time></trkpt><trkpt lat="45.6248597" lon="9.3478354"><ele>198.33333333333331</ele><time>2026-04-11T10:07:37.371Z</time></trkpt><trkpt lat="45.6250196" lon="9.3476984"><ele>199.0</ele><time>2026-04-11T10:07:38.369Z</time></trkpt><trkpt lat="45.625172" lon="9.3475667"><ele>200.66666666666666</ele><time>2026-04-11T10:07:39.375Z</time></trkpt><trkpt lat="45.6253199" lon="9.3474368"><ele>202.33333333333331</ele><time>2026-04-11T10:07:40.367Z</time></trkpt><trkpt lat="45.6254629" lon="9.3473151"><ele>204.0</ele><time>2026-04-11T10:07:41.374Z</time></trkpt><trkpt lat="45.6256012" lon="9.34719"><ele>204.0</ele><time>2026-04-11T10:07:42.368Z</time></trkpt><trkpt lat="45.6257436" lon="9.3470728"><ele>204.0</ele><time>2026-04-11T10:07:43.366Z</time></trkpt><trkpt lat="45.6258793" lon="9.3469565"><ele>204.0</ele><time>2026-04-11T10:07:44.366Z</time></trkpt><trkpt lat="45.6260165" lon="9.3468457"><ele>204.33333333333331</ele><time>2026-04-11T10:07:45.378Z</time></trkpt><trkpt lat="45.6261597" lon="9.346741"><ele>204.66666666666666</ele><time>2026-04-11T10:07:46.369Z</time></trkpt><trkpt lat="45.6263056" lon="9.3466499"><ele>205.0</ele><time>2026-04-11T10:07:47.376Z</time></trkpt><trkpt lat="45.6264543" lon="9.3465686"><ele>205.0</ele><time>2026-04-11T10:07:48.367Z</time></trkpt><trkpt lat="45.6266038" lon="9.346487"><ele>205.0</ele><time>2026-04-11T10:07:49.393Z</time></trkpt><trkpt lat="45.6267545" lon="9.3464065"><ele>205.0</ele><time>2026-04-11T10:07:50.369Z</time></trkpt><trkpt lat="45.6269086" lon="9.3463243"><ele>204.5</ele><time>2026-04-11T10:07:51.372Z</time></trkpt><trkpt lat="45.6270587" lon="9.346249"><ele>204.0</ele><time>2026-04-11T10:07:52.367Z</time></trkpt><trkpt lat="45.6271992" lon="9.3461786"><ele>203.5</ele><time>2026-04-11T10:07:53.377Z</time></trkpt><trkpt lat="45.6273276" lon="9.3461093"><ele>203.0</ele><time>2026-04-11T10:07:54.368Z</time></trkpt><trkpt lat="45.6274431" lon="9.3460533"><ele>203.0</ele><time>2026-04-11T10:07:55.489Z</time></trkpt><trkpt lat="45.627612" lon="9.3459746"><ele>203.0</ele><time>2026-04-11T10:07:57.377Z</time></trkpt><trkpt lat="45.6276722" lon="9.3459435"><ele>203.0</ele><time>2026-04-11T10:07:58.367Z</time></trkpt><trkpt lat="45.6277557" lon="9.3459052"><ele>203.0</ele><time>2026-04-11T10:08:00.367Z</time></trkpt><trkpt lat="45.6278324" lon="9.3458633"><ele>203.0</ele><time>2026-04-11T10:08:03.377Z</time></trkpt><trkpt lat="45.6279063" lon="9.3458272"><ele>203.00000000000003</ele><time>2026-04-11T10:08:06.367Z</time></trkpt><trkpt lat="45.627923" lon="9.3459333"><ele>203.0</ele><time>2026-04-11T10:08:56.365Z</time></trkpt><trkpt lat="45.6279335" lon="9.3461026"><ele>203.0</ele><time>2026-04-11T10:08:59.393Z</time></trkpt><trkpt lat="45.6279331" lon="9.3462"><ele>203.0</ele><time>2026-04-11T10:09:00.377Z</time></trkpt><trkpt lat="45.6279383" lon="9.3462901"><ele>203.00000000000003</ele><time>2026-04-11T10:09:01.375Z</time></trkpt><trkpt lat="45.627946" lon="9.3463962"><ele>203.0</ele><time>2026-04-11T10:09:02.375Z</time></trkpt><trkpt lat="45.627951" lon="9.3465012"><ele>203.16666666666669</ele><time>2026-04-11T10:09:03.367Z</time></trkpt><trkpt lat="45.6279572" lon="9.3466186"><ele>203.33333333333334</ele><time>2026-04-11T10:09:04.369Z</time></trkpt><trkpt lat="45.6279618" lon="9.3467206"><ele>203.5</ele><time>2026-04-11T10:09:05.374Z</time></trkpt><trkpt lat="45.6279671" lon="9.3468125"><ele>203.66666666666669</ele><time>2026-04-11T10:09:06.397Z</time></trkpt><trkpt lat="45.6279816" lon="9.3469688"><ele>203.83333333333334</ele><time>2026-04-11T10:09:08.377Z</time></trkpt><trkpt lat="45.627994" lon="9.347107"><ele>204.0</ele><time>2026-04-11T10:09:10.381Z</time></trkpt><trkpt lat="45.6279982" lon="9.347225"><ele>204.0</ele><time>2026-04-11T10:09:12.37Z</time></trkpt><trkpt lat="45.6280313" lon="9.3473103"><ele>204.0</ele><time>2026-04-11T10:09:14.4Z</time></trkpt><trkpt lat="45.6280819" lon="9.3473861"><ele>204.0</ele><time>2026-04-11T10:09:16.397Z</time></trkpt><trkpt lat="45.6281096" lon="9.3474929"><ele>204.0</ele><time>2026-04-11T10:09:18.401Z</time></trkpt><trkpt lat="45.6281111" lon="9.34764"><ele>204.0</ele><time>2026-04-11T10:09:20.368Z</time></trkpt><trkpt lat="45.6281408" lon="9.3477936"><ele>204.0</ele><time>2026-04-11T10:09:22.398Z</time></trkpt><trkpt lat="45.6281574" lon="9.3479407"><ele>203.6</ele><time>2026-04-11T10:09:24.398Z</time></trkpt><trkpt lat="45.6281659" lon="9.3481066"><ele>203.2</ele><time>2026-04-11T10:09:26.376Z</time></trkpt><trkpt lat="45.6281797" lon="9.3482603"><ele>202.79999999999998</ele><time>2026-04-11T10:09:28.375Z</time></trkpt><trkpt lat="45.6282038" lon="9.3483501"><ele>202.39999999999998</ele><time>2026-04-11T10:09:29.369Z</time></trkpt><trkpt lat="45.6282499" lon="9.3484953"><ele>202.0</ele><time>2026-04-11T10:09:31.371Z</time></trkpt><trkpt lat="45.6283097" lon="9.3486106"><ele>201.99999999999997</ele><time>2026-04-11T10:09:33.371Z</time></trkpt><trkpt lat="45.6283396" lon="9.3487195"><ele>202.0</ele><time>2026-04-11T10:09:35.393Z</time></trkpt><trkpt lat="45.628352" lon="9.3488151"><ele>202.0</ele><time>2026-04-11T10:09:37.398Z</time></trkpt><trkpt lat="45.6283405" lon="9.3486665"><ele>202.0</ele><time>2026-04-11T10:09:45.369Z</time></trkpt><trkpt lat="45.6283015" lon="9.3485784"><ele>201.99999999999997</ele><time>2026-04-11T10:09:46.395Z</time></trkpt><trkpt lat="45.6282638" lon="9.3484838"><ele>202.0</ele><time>2026-04-11T10:09:47.413Z</time></trkpt><trkpt lat="45.6282355" lon="9.3483853"><ele>201.99999999999997</ele><time>2026-04-11T10:09:48.396Z</time></trkpt><trkpt lat="45.6282063" lon="9.348286"><ele>202.0</ele><time>2026-04-11T10:09:49.394Z</time></trkpt><trkpt lat="45.6281867" lon="9.3481918"><ele>202.0</ele><time>2026-04-11T10:09:50.398Z</time></trkpt><trkpt lat="45.628177" lon="9.3480847"><ele>202.0</ele><time>2026-04-11T10:09:51.392Z</time></trkpt><trkpt lat="45.6281738" lon="9.3479757"><ele>201.99999999999997</ele><time>2026-04-11T10:09:52.392Z</time></trkpt><trkpt lat="45.6281692" lon="9.347883"><ele>202.0</ele><time>2026-04-11T10:09:53.37Z</time></trkpt><trkpt lat="45.6281433" lon="9.3477231"><ele>202.33333333333331</ele><time>2026-04-11T10:09:55.37Z</time></trkpt><trkpt lat="45.6281204" lon="9.3475593"><ele>202.66666666666666</ele><time>2026-04-11T10:09:57.414Z</time></trkpt><trkpt lat="45.6281035" lon="9.3474315"><ele>203.0</ele><time>2026-04-11T10:09:59.369Z</time></trkpt><trkpt lat="45.6280668" lon="9.3473433"><ele>203.33333333333331</ele><time>2026-04-11T10:10:01.395Z</time></trkpt><trkpt lat="45.6280247" lon="9.3472761"><ele>203.66666666666666</ele><time>2026-04-11T10:10:05.395Z</time></trkpt><trkpt lat="45.627999" lon="9.3471592"><ele>204.0</ele><time>2026-04-11T10:10:09.396Z</time></trkpt><trkpt lat="45.6279949" lon="9.3470387"><ele>204.0</ele><time>2026-04-11T10:10:38.376Z</time></trkpt><trkpt lat="45.627981" lon="9.3468843"><ele>204.0</ele><time>2026-04-11T10:10:40.393Z</time></trkpt><trkpt lat="45.6279737" lon="9.3467124"><ele>204.0</ele><time>2026-04-11T10:10:42.393Z</time></trkpt><trkpt lat="45.6279734" lon="9.3465751"><ele>204.0</ele><time>2026-04-11T10:10:44.365Z</time></trkpt><trkpt lat="45.6279563" lon="9.3464037"><ele>204.0</ele><time>2026-04-11T10:10:46.395Z</time></trkpt><trkpt lat="45.6279491" lon="9.3462399"><ele>203.83333333333334</ele><time>2026-04-11T10:10:48.401Z</time></trkpt><trkpt lat="45.6279392" lon="9.3460859"><ele>203.66666666666669</ele><time>2026-04-11T10:10:50.367Z</time></trkpt><trkpt lat="45.6279338" lon="9.3459689"><ele>203.5</ele><time>2026-04-11T10:10:52.4Z</time></trkpt><trkpt lat="45.6279138" lon="9.345883"><ele>203.33333333333334</ele><time>2026-04-11T10:10:59.397Z</time></trkpt><trkpt lat="45.6279829" lon="9.3457754"><ele>203.16666666666669</ele><time>2026-04-11T10:11:05.4Z</time></trkpt><trkpt lat="45.6280493" lon="9.34574"><ele>203.0</ele><time>2026-04-11T10:11:06.377Z</time></trkpt><trkpt lat="45.6281338" lon="9.3456936"><ele>203.0</ele><time>2026-04-11T10:11:07.393Z</time></trkpt><trkpt lat="45.6282236" lon="9.3456387"><ele>203.0</ele><time>2026-04-11T10:11:08.368Z</time></trkpt><trkpt lat="45.6283163" lon="9.3455818"><ele>203.0</ele><time>2026-04-11T10:11:09.389Z</time></trkpt><trkpt lat="45.6284133" lon="9.3455217"><ele>203.0</ele><time>2026-04-11T10:11:10.365Z</time></trkpt><trkpt lat="45.6285116" lon="9.3454652"><ele>203.0</ele><time>2026-04-11T10:11:11.37Z</time></trkpt><trkpt lat="45.6286009" lon="9.3454147"><ele>202.66666666666669</ele><time>2026-04-11T10:11:12.393Z</time></trkpt><trkpt lat="45.6286806" lon="9.345371"><ele>202.33333333333334</ele><time>2026-04-11T10:11:13.364Z</time></trkpt><trkpt lat="45.6287517" lon="9.345326"><ele>202.0</ele><time>2026-04-11T10:11:14.392Z</time></trkpt><trkpt lat="45.6288255" lon="9.3452823"><ele>201.66666666666669</ele><time>2026-04-11T10:11:15.364Z</time></trkpt><trkpt lat="45.6289173" lon="9.3452301"><ele>201.33333333333334</ele><time>2026-04-11T10:11:16.394Z</time></trkpt><trkpt lat="45.6290164" lon="9.3451734"><ele>201.0</ele><time>2026-04-11T10:11:17.368Z</time></trkpt><trkpt lat="45.6291267" lon="9.3451089"><ele>201.0</ele><time>2026-04-11T10:11:18.395Z</time></trkpt><trkpt lat="45.6292388" lon="9.3450467"><ele>201.0</ele><time>2026-04-11T10:11:19.396Z</time></trkpt><trkpt lat="45.6293426" lon="9.3449852"><ele>201.0</ele><time>2026-04-11T10:11:20.366Z</time></trkpt><trkpt lat="45.6294432" lon="9.3449323"><ele>201.0</ele><time>2026-04-11T10:11:21.393Z</time></trkpt><trkpt lat="45.6295387" lon="9.3448925"><ele>201.0</ele><time>2026-04-11T10:11:22.391Z</time></trkpt><trkpt lat="45.6296243" lon="9.344846"><ele>200.83333333333334</ele><time>2026-04-11T10:11:23.395Z</time></trkpt><trkpt lat="45.6296963" lon="9.344801"><ele>200.66666666666669</ele><time>2026-04-11T10:11:24.391Z</time></trkpt><trkpt lat="45.6297624" lon="9.3447515"><ele>200.5</ele><time>2026-04-11T10:11:25.396Z</time></trkpt><trkpt lat="45.6298327" lon="9.3446872"><ele>200.33333333333334</ele><time>2026-04-11T10:11:26.394Z</time></trkpt><trkpt lat="45.629903" lon="9.3446002"><ele>200.16666666666669</ele><time>2026-04-11T10:11:27.393Z</time></trkpt><trkpt lat="45.6299774" lon="9.3444994"><ele>200.0</ele><time>2026-04-11T10:11:28.374Z</time></trkpt><trkpt lat="45.6300476" lon="9.3444063"><ele>200.0</ele><time>2026-04-11T10:11:29.367Z</time></trkpt><trkpt lat="45.6301206" lon="9.3443051"><ele>200.0</ele><time>2026-04-11T10:11:30.369Z</time></trkpt><trkpt lat="45.6302007" lon="9.3441951"><ele>200.0</ele><time>2026-04-11T10:11:31.369Z</time></trkpt><trkpt lat="45.6302815" lon="9.3440825"><ele>200.0</ele><time>2026-04-11T10:11:32.374Z</time></trkpt><trkpt lat="45.6303737" lon="9.3439525"><ele>200.0</ele><time>2026-04-11T10:11:33.393Z</time></trkpt><trkpt lat="45.6304566" lon="9.3438344"><ele>200.0</ele><time>2026-04-11T10:11:34.391Z</time></trkpt><trkpt lat="45.6305341" lon="9.3437324"><ele>200.0</ele><time>2026-04-11T10:11:35.398Z</time></trkpt><trkpt lat="45.6305895" lon="9.3436576"><ele>200.0</ele><time>2026-04-11T10:11:36.395Z</time></trkpt><trkpt lat="45.6306755" lon="9.3435766"><ele>200.0</ele><time>2026-04-11T10:11:38.374Z</time></trkpt><trkpt lat="45.630729" lon="9.3436648"><ele>200.0</ele><time>2026-04-11T10:11:40.4Z</time></trkpt><trkpt lat="45.6307629" lon="9.343748"><ele>200.0</ele><time>2026-04-11T10:11:41.375Z</time></trkpt><trkpt lat="45.6308058" lon="9.3438584"><ele>200.0</ele><time>2026-04-11T10:11:42.393Z</time></trkpt><trkpt lat="45.6308532" lon="9.3439812"><ele>200.0</ele><time>2026-04-11T10:11:43.397Z</time></trkpt><trkpt lat="45.6309069" lon="9.3441142"><ele>200.0</ele><time>2026-04-11T10:11:44.394Z</time></trkpt><trkpt lat="45.6309659" lon="9.344266"><ele>200.0</ele><time>2026-04-11T10:11:45.364Z</time></trkpt><trkpt lat="45.6310281" lon="9.34442"><ele>200.0</ele><time>2026-04-11T10:11:46.396Z</time></trkpt><trkpt lat="45.6310912" lon="9.3445694"><ele>200.0</ele><time>2026-04-11T10:11:47.393Z</time></trkpt><trkpt lat="45.6311484" lon="9.3447175"><ele>200.0</ele><time>2026-04-11T10:11:48.365Z</time></trkpt><trkpt lat="45.6312073" lon="9.3448611"><ele>200.4</ele><time>2026-04-11T10:11:49.398Z</time></trkpt><trkpt lat="45.6312642" lon="9.3450009"><ele>200.8</ele><time>2026-04-11T10:11:50.374Z</time></trkpt><trkpt lat="45.6313227" lon="9.3451401"><ele>201.2</ele><time>2026-04-11T10:11:51.395Z</time></trkpt><trkpt lat="45.6313844" lon="9.3452689"><ele>201.6</ele><time>2026-04-11T10:11:52.396Z</time></trkpt><trkpt lat="45.6314448" lon="9.3453988"><ele>202.0</ele><time>2026-04-11T10:11:53.393Z</time></trkpt><trkpt lat="45.6315033" lon="9.3455213"><ele>202.0</ele><time>2026-04-11T10:11:54.395Z</time></trkpt><trkpt lat="45.6315601" lon="9.3456418"><ele>202.0</ele><time>2026-04-11T10:11:55.393Z</time></trkpt><trkpt lat="45.6316228" lon="9.3457666"><ele>202.0</ele><time>2026-04-11T10:11:56.375Z</time></trkpt><trkpt lat="45.6317014" lon="9.3459002"><ele>202.0</ele><time>2026-04-11T10:11:57.395Z</time></trkpt><trkpt lat="45.6317897" lon="9.3460407"><ele>202.0</ele><time>2026-04-11T10:11:58.394Z</time></trkpt><trkpt lat="45.6318729" lon="9.3461759"><ele>202.0</ele><time>2026-04-11T10:11:59.392Z</time></trkpt><trkpt lat="45.6319559" lon="9.3463204"><ele>202.0</ele><time>2026-04-11T10:12:00.367Z</time></trkpt><trkpt lat="45.6320468" lon="9.3464728"><ele>202.0</ele><time>2026-04-11T10:12:01.389Z</time></trkpt><trkpt lat="45.6321374" lon="9.3466233"><ele>202.0</ele><time>2026-04-11T10:12:02.365Z</time></trkpt><trkpt lat="45.632228" lon="9.3467747"><ele>202.0</ele><time>2026-04-11T10:12:03.398Z</time></trkpt><trkpt lat="45.6323134" lon="9.3469159"><ele>202.0</ele><time>2026-04-11T10:12:04.392Z</time></trkpt><trkpt lat="45.632395" lon="9.3470534"><ele>202.0</ele><time>2026-04-11T10:12:05.4Z</time></trkpt><trkpt lat="45.63247" lon="9.3471789"><ele>202.0</ele><time>2026-04-11T10:12:06.365Z</time></trkpt><trkpt lat="45.6325405" lon="9.3472939"><ele>202.0</ele><time>2026-04-11T10:12:07.392Z</time></trkpt><trkpt lat="45.6326126" lon="9.3474062"><ele>202.0</ele><time>2026-04-11T10:12:08.374Z</time></trkpt><trkpt lat="45.6326836" lon="9.3475188"><ele>202.0</ele><time>2026-04-11T10:12:09.44Z</time></trkpt><trkpt lat="45.6327532" lon="9.3476231"><ele>202.0</ele><time>2026-04-11T10:12:10.375Z</time></trkpt><trkpt lat="45.6328284" lon="9.3477391"><ele>202.39999999999998</ele><time>2026-04-11T10:12:11.394Z</time></trkpt><trkpt lat="45.6329047" lon="9.3478582"><ele>202.79999999999998</ele><time>2026-04-11T10:12:12.395Z</time></trkpt><trkpt lat="45.6329794" lon="9.3479773"><ele>203.2</ele><time>2026-04-11T10:12:13.4Z</time></trkpt><trkpt lat="45.6330486" lon="9.3480823"><ele>203.6</ele><time>2026-04-11T10:12:14.374Z</time></trkpt><trkpt lat="45.6331204" lon="9.3481977"><ele>204.0</ele><time>2026-04-11T10:12:15.367Z</time></trkpt><trkpt lat="45.6332067" lon="9.3483358"><ele>204.0</ele><time>2026-04-11T10:12:16.375Z</time></trkpt><trkpt lat="45.6333038" lon="9.3484831"><ele>204.0</ele><time>2026-04-11T10:12:17.395Z</time></trkpt><trkpt lat="45.6333946" lon="9.3486202"><ele>204.0</ele><time>2026-04-11T10:12:18.39Z</time></trkpt><trkpt lat="45.633478" lon="9.3487495"><ele>204.0</ele><time>2026-04-11T10:12:19.395Z</time></trkpt><trkpt lat="45.6335584" lon="9.3488755"><ele>204.0</ele><time>2026-04-11T10:12:20.374Z</time></trkpt><trkpt lat="45.6336328" lon="9.3489883"><ele>204.0</ele><time>2026-04-11T10:12:21.396Z</time></trkpt><trkpt lat="45.633701" lon="9.3490974"><ele>204.0</ele><time>2026-04-11T10:12:22.376Z</time></trkpt><trkpt lat="45.6337705" lon="9.3491955"><ele>204.0</ele><time>2026-04-11T10:12:23.366Z</time></trkpt><trkpt lat="45.6338356" lon="9.3492899"><ele>204.0</ele><time>2026-04-11T10:12:24.376Z</time></trkpt><trkpt lat="45.6338961" lon="9.3493823"><ele>204.0</ele><time>2026-04-11T10:12:25.397Z</time></trkpt><trkpt lat="45.6339494" lon="9.3494656"><ele>204.0</ele><time>2026-04-11T10:12:26.397Z</time></trkpt><trkpt lat="45.6340043" lon="9.3495526"><ele>204.0</ele><time>2026-04-11T10:12:27.399Z</time></trkpt><trkpt lat="45.6340719" lon="9.349655"><ele>204.0</ele><time>2026-04-11T10:12:28.394Z</time></trkpt><trkpt lat="45.6341436" lon="9.3497688"><ele>204.0</ele><time>2026-04-11T10:12:29.395Z</time></trkpt><trkpt lat="45.6342142" lon="9.3498736"><ele>204.0</ele><time>2026-04-11T10:12:30.375Z</time></trkpt><trkpt lat="45.6342816" lon="9.3499721"><ele>204.0</ele><time>2026-04-11T10:12:31.396Z</time></trkpt><trkpt lat="45.6343528" lon="9.3500777"><ele>204.0</ele><time>2026-04-11T10:12:32.395Z</time></trkpt><trkpt lat="45.6344142" lon="9.3501747"><ele>204.0</ele><time>2026-04-11T10:12:33.399Z</time></trkpt><trkpt lat="45.6344701" lon="9.3502639"><ele>204.0</ele><time>2026-04-11T10:12:34.375Z</time></trkpt><trkpt lat="45.6345146" lon="9.3503575"><ele>203.83333333333334</ele><time>2026-04-11T10:12:35.397Z</time></trkpt><trkpt lat="45.6345489" lon="9.3504658"><ele>203.66666666666669</ele><time>2026-04-11T10:12:36.374Z</time></trkpt><trkpt lat="45.6345727" lon="9.3505876"><ele>203.5</ele><time>2026-04-11T10:12:37.366Z</time></trkpt><trkpt lat="45.6345999" lon="9.3506952"><ele>203.33333333333334</ele><time>2026-04-11T10:12:38.394Z</time></trkpt><trkpt lat="45.634633" lon="9.3507838"><ele>203.16666666666669</ele><time>2026-04-11T10:12:39.393Z</time></trkpt><trkpt lat="45.6346747" lon="9.350866"><ele>203.0</ele><time>2026-04-11T10:12:40.373Z</time></trkpt><trkpt lat="45.6347347" lon="9.350995"><ele>203.2</ele><time>2026-04-11T10:12:42.374Z</time></trkpt><trkpt lat="45.634725" lon="9.3510971"><ele>203.4</ele><time>2026-04-11T10:12:43.368Z</time></trkpt><trkpt lat="45.6346528" lon="9.3512606"><ele>203.6</ele><time>2026-04-11T10:12:45.366Z</time></trkpt><trkpt lat="45.634592" lon="9.3513658"><ele>203.79999999999998</ele><time>2026-04-11T10:12:46.364Z</time></trkpt><trkpt lat="45.6345188" lon="9.3514902"><ele>204.0</ele><time>2026-04-11T10:12:47.4Z</time></trkpt><trkpt lat="45.6344284" lon="9.3516348"><ele>204.0</ele><time>2026-04-11T10:12:48.367Z</time></trkpt><trkpt lat="45.6343463" lon="9.3517701"><ele>204.0</ele><time>2026-04-11T10:12:49.409Z</time></trkpt><trkpt lat="45.6342684" lon="9.3518923"><ele>204.0</ele><time>2026-04-11T10:12:50.393Z</time></trkpt><trkpt lat="45.6341958" lon="9.3520111"><ele>204.0</ele><time>2026-04-11T10:12:51.394Z</time></trkpt><trkpt lat="45.6341288" lon="9.3521153"><ele>204.16666666666666</ele><time>2026-04-11T10:12:52.395Z</time></trkpt><trkpt lat="45.6340644" lon="9.3522107"><ele>204.33333333333331</ele><time>2026-04-11T10:12:53.398Z</time></trkpt><trkpt lat="45.6340112" lon="9.3522994"><ele>204.5</ele><time>2026-04-11T10:12:54.394Z</time></trkpt><trkpt lat="45.6339546" lon="9.3523732"><ele>204.66666666666666</ele><time>2026-04-11T10:12:55.396Z</time></trkpt><trkpt lat="45.6338911" lon="9.3524394"><ele>204.83333333333331</ele><time>2026-04-11T10:12:56.395Z</time></trkpt><trkpt lat="45.633841" lon="9.3525201"><ele>205.0</ele><time>2026-04-11T10:12:57.4Z</time></trkpt><trkpt lat="45.6337986" lon="9.3526202"><ele>205.0</ele><time>2026-04-11T10:12:58.395Z</time></trkpt><trkpt lat="45.6337602" lon="9.3527216"><ele>205.0</ele><time>2026-04-11T10:12:59.367Z</time></trkpt><trkpt lat="45.633716" lon="9.3528229"><ele>205.0</ele><time>2026-04-11T10:13:00.394Z</time></trkpt><trkpt lat="45.6336571" lon="9.3529334"><ele>205.0</ele><time>2026-04-11T10:13:01.391Z</time></trkpt><trkpt lat="45.6335919" lon="9.3530426"><ele>205.0</ele><time>2026-04-11T10:13:02.393Z</time></trkpt><trkpt lat="45.633524" lon="9.3531554"><ele>205.25</ele><time>2026-04-11T10:13:03.391Z</time></trkpt><trkpt lat="45.6334564" lon="9.3532719"><ele>205.5</ele><time>2026-04-11T10:13:04.389Z</time></trkpt><trkpt lat="45.6333825" lon="9.3533868"><ele>205.75</ele><time>2026-04-11T10:13:05.364Z</time></trkpt><trkpt lat="45.6332972" lon="9.3535243"><ele>206.0</ele><time>2026-04-11T10:13:06.393Z</time></trkpt><trkpt lat="45.6332092" lon="9.3536669"><ele>206.0</ele><time>2026-04-11T10:13:07.367Z</time></trkpt><trkpt lat="45.6331193" lon="9.3538195"><ele>206.0</ele><time>2026-04-11T10:13:08.394Z</time></trkpt><trkpt lat="45.6330352" lon="9.3539588"><ele>206.0</ele><time>2026-04-11T10:13:09.4Z</time></trkpt><trkpt lat="45.6329551" lon="9.3540969"><ele>206.0</ele><time>2026-04-11T10:13:10.367Z</time></trkpt><trkpt lat="45.6328801" lon="9.3542231"><ele>206.20000000000002</ele><time>2026-04-11T10:13:11.39Z</time></trkpt><trkpt lat="45.6328079" lon="9.3543428"><ele>206.4</ele><time>2026-04-11T10:13:12.389Z</time></trkpt><trkpt lat="45.6327408" lon="9.3544546"><ele>206.6</ele><time>2026-04-11T10:13:13.364Z</time></trkpt><trkpt lat="45.6326896" lon="9.3545679"><ele>206.8</ele><time>2026-04-11T10:13:14.384Z</time></trkpt><trkpt lat="45.6326499" lon="9.3546801"><ele>207.0</ele><time>2026-04-11T10:13:15.394Z</time></trkpt><trkpt lat="45.6326232" lon="9.3547934"><ele>207.6</ele><time>2026-04-11T10:13:16.392Z</time></trkpt><trkpt lat="45.6326055" lon="9.3549113"><ele>208.2</ele><time>2026-04-11T10:13:17.364Z</time></trkpt><trkpt lat="45.6325937" lon="9.3550371"><ele>208.8</ele><time>2026-04-11T10:13:18.365Z</time></trkpt><trkpt lat="45.6325853" lon="9.3551629"><ele>209.4</ele><time>2026-04-11T10:13:19.4Z</time></trkpt><trkpt lat="45.632575" lon="9.3552964"><ele>210.0</ele><time>2026-04-11T10:13:20.364Z</time></trkpt><trkpt lat="45.6325637" lon="9.3554416"><ele>209.5</ele><time>2026-04-11T10:13:21.392Z</time></trkpt><trkpt lat="45.6325558" lon="9.3555952"><ele>209.0</ele><time>2026-04-11T10:13:22.392Z</time></trkpt><trkpt lat="45.6325468" lon="9.3557715"><ele>208.5</ele><time>2026-04-11T10:13:23.392Z</time></trkpt><trkpt lat="45.6325331" lon="9.3559591"><ele>208.0</ele><time>2026-04-11T10:13:24.392Z</time></trkpt><trkpt lat="45.6325268" lon="9.3561612"><ele>208.0</ele><time>2026-04-11T10:13:25.393Z</time></trkpt><trkpt lat="45.6325179" lon="9.3563808"><ele>208.0</ele><time>2026-04-11T10:13:26.392Z</time></trkpt><trkpt lat="45.632508" lon="9.3565991"><ele>208.0</ele><time>2026-04-11T10:13:27.4Z</time></trkpt><trkpt lat="45.6324983" lon="9.3568238"><ele>208.0</ele><time>2026-04-11T10:13:28.389Z</time></trkpt><trkpt lat="45.632485" lon="9.3570466"><ele>208.0</ele><time>2026-04-11T10:13:29.396Z</time></trkpt><trkpt lat="45.6324727" lon="9.3572717"><ele>208.0</ele><time>2026-04-11T10:13:30.375Z</time></trkpt><trkpt lat="45.6324592" lon="9.3574911"><ele>208.0</ele><time>2026-04-11T10:13:31.368Z</time></trkpt><trkpt lat="45.6324485" lon="9.3577181"><ele>208.0</ele><time>2026-04-11T10:13:32.369Z</time></trkpt><trkpt lat="45.6324363" lon="9.357944"><ele>208.0</ele><time>2026-04-11T10:13:33.39Z</time></trkpt><trkpt lat="45.6324244" lon="9.3581704"><ele>208.0</ele><time>2026-04-11T10:13:34.393Z</time></trkpt><trkpt lat="45.6324107" lon="9.3583998"><ele>208.0</ele><time>2026-04-11T10:13:35.399Z</time></trkpt><trkpt lat="45.6323981" lon="9.3586292"><ele>208.0</ele><time>2026-04-11T10:13:36.366Z</time></trkpt><trkpt lat="45.6323824" lon="9.358851"><ele>208.33333333333331</ele><time>2026-04-11T10:13:37.396Z</time></trkpt><trkpt lat="45.6323711" lon="9.3590771"><ele>208.66666666666669</ele><time>2026-04-11T10:13:38.4Z</time></trkpt><trkpt lat="45.632362" lon="9.3593033"><ele>209.0</ele><time>2026-04-11T10:13:39.402Z</time></trkpt><trkpt lat="45.6323529" lon="9.3595315"><ele>208.75</ele><time>2026-04-11T10:13:40.393Z</time></trkpt><trkpt lat="45.632342" lon="9.3597478"><ele>208.5</ele><time>2026-04-11T10:13:41.374Z</time></trkpt><trkpt lat="45.6323359" lon="9.3599494"><ele>208.25</ele><time>2026-04-11T10:13:42.393Z</time></trkpt><trkpt lat="45.6323264" lon="9.3601411"><ele>208.0</ele><time>2026-04-11T10:13:43.373Z</time></trkpt><trkpt lat="45.632332" lon="9.3603233"><ele>208.0</ele><time>2026-04-11T10:13:44.395Z</time></trkpt><trkpt lat="45.6323621" lon="9.3604881"><ele>208.0</ele><time>2026-04-11T10:13:45.369Z</time></trkpt><trkpt lat="45.6324197" lon="9.360636"><ele>208.0</ele><time>2026-04-11T10:13:46.402Z</time></trkpt><trkpt lat="45.6324967" lon="9.3607661"><ele>208.0</ele><time>2026-04-11T10:13:47.392Z</time></trkpt><trkpt lat="45.632578" lon="9.3608711"><ele>208.4</ele><time>2026-04-11T10:13:48.395Z</time></trkpt><trkpt lat="45.6326592" lon="9.3609658"><ele>208.8</ele><time>2026-04-11T10:13:49.394Z</time></trkpt><trkpt lat="45.6327336" lon="9.3610599"><ele>209.2</ele><time>2026-04-11T10:13:50.398Z</time></trkpt><trkpt lat="45.6327965" lon="9.3611404"><ele>209.6</ele><time>2026-04-11T10:13:51.394Z</time></trkpt><trkpt lat="45.6328473" lon="9.3612107"><ele>210.0</ele><time>2026-04-11T10:13:52.394Z</time></trkpt><trkpt lat="45.6329247" lon="9.3613243"><ele>210.4</ele><time>2026-04-11T10:13:54.392Z</time></trkpt><trkpt lat="45.6330113" lon="9.3614265"><ele>210.8</ele><time>2026-04-11T10:13:56.395Z</time></trkpt><trkpt lat="45.6330717" lon="9.3615136"><ele>211.2</ele><time>2026-04-11T10:13:58.371Z</time></trkpt><trkpt lat="45.6331438" lon="9.3615371"><ele>211.6</ele><time>2026-04-11T10:15:58.379Z</time></trkpt><trkpt lat="45.6332332" lon="9.3614344"><ele>212.0</ele><time>2026-04-11T10:16:00.371Z</time></trkpt><trkpt lat="45.6332768" lon="9.3613674"><ele>212.0</ele><time>2026-04-11T10:16:01.4Z</time></trkpt><trkpt lat="45.6333735" lon="9.3612686"><ele>212.0</ele><time>2026-04-11T10:16:03.369Z</time></trkpt><trkpt lat="45.6334929" lon="9.3612924"><ele>212.0</ele><time>2026-04-11T10:16:05.393Z</time></trkpt><trkpt lat="45.6335652" lon="9.3613711"><ele>212.0</ele><time>2026-04-11T10:16:06.375Z</time></trkpt><trkpt lat="45.6336557" lon="9.361471"><ele>212.0</ele><time>2026-04-11T10:16:07.395Z</time></trkpt><trkpt lat="45.6337445" lon="9.3615756"><ele>211.75</ele><time>2026-04-11T10:16:08.369Z</time></trkpt><trkpt lat="45.633841" lon="9.3616978"><ele>211.5</ele><time>2026-04-11T10:16:09.413Z</time></trkpt><trkpt lat="45.6339273" lon="9.361814"><ele>211.25</ele><time>2026-04-11T10:16:10.393Z</time></trkpt><trkpt lat="45.6340127" lon="9.3619279"><ele>211.0</ele><time>2026-04-11T10:16:11.402Z</time></trkpt><trkpt lat="45.634098" lon="9.3620488"><ele>211.0</ele><time>2026-04-11T10:16:12.393Z</time></trkpt><trkpt lat="45.6341859" lon="9.3621823"><ele>211.0</ele><time>2026-04-11T10:16:13.394Z</time></trkpt><trkpt lat="45.6342761" lon="9.3623223"><ele>211.0</ele><time>2026-04-11T10:16:14.366Z</time></trkpt><trkpt lat="45.634381" lon="9.3624619"><ele>211.0</ele><time>2026-04-11T10:16:15.39Z</time></trkpt><trkpt lat="45.6344974" lon="9.3625923"><ele>210.75</ele><time>2026-04-11T10:16:16.368Z</time></trkpt><trkpt lat="45.634618" lon="9.3626982"><ele>210.5</ele><time>2026-04-11T10:16:17.367Z</time></trkpt><trkpt lat="45.634748" lon="9.3627717"><ele>210.25</ele><time>2026-04-11T10:16:18.399Z</time></trkpt><trkpt lat="45.6348876" lon="9.3628146"><ele>210.0</ele><time>2026-04-11T10:16:19.399Z</time></trkpt><trkpt lat="45.6350306" lon="9.3628359"><ele>210.0</ele><time>2026-04-11T10:16:20.374Z</time></trkpt><trkpt lat="45.6351676" lon="9.3628248"><ele>210.0</ele><time>2026-04-11T10:16:21.366Z</time></trkpt><trkpt lat="45.635299" lon="9.3627977"><ele>210.0</ele><time>2026-04-11T10:16:22.393Z</time></trkpt><trkpt lat="45.6354239" lon="9.3627672"><ele>210.0</ele><time>2026-04-11T10:16:23.386Z</time></trkpt><trkpt lat="45.6355535" lon="9.3627369"><ele>210.0</ele><time>2026-04-11T10:16:24.373Z</time></trkpt><trkpt lat="45.6356822" lon="9.3627094"><ele>210.0</ele><time>2026-04-11T10:16:25.392Z</time></trkpt><trkpt lat="45.6358133" lon="9.3627047"><ele>210.0</ele><time>2026-04-11T10:16:26.393Z</time></trkpt><trkpt lat="45.6359482" lon="9.3627101"><ele>210.0</ele><time>2026-04-11T10:16:27.366Z</time></trkpt><trkpt lat="45.6360891" lon="9.3627294"><ele>210.5</ele><time>2026-04-11T10:16:28.396Z</time></trkpt><trkpt lat="45.6362243" lon="9.3627694"><ele>211.0</ele><time>2026-04-11T10:16:29.397Z</time></trkpt><trkpt lat="45.6363535" lon="9.3628254"><ele>211.5</ele><time>2026-04-11T10:16:30.376Z</time></trkpt><trkpt lat="45.6364796" lon="9.3628898"><ele>212.0</ele><time>2026-04-11T10:16:31.4Z</time></trkpt><trkpt lat="45.6365963" lon="9.3629539"><ele>212.0</ele><time>2026-04-11T10:16:32.392Z</time></trkpt><trkpt lat="45.6367038" lon="9.3630315"><ele>212.0</ele><time>2026-04-11T10:16:33.362Z</time></trkpt><trkpt lat="45.6368032" lon="9.3631285"><ele>212.0</ele><time>2026-04-11T10:16:34.393Z</time></trkpt><trkpt lat="45.6369046" lon="9.3632372"><ele>212.0</ele><time>2026-04-11T10:16:35.395Z</time></trkpt><trkpt lat="45.6370044" lon="9.3633492"><ele>212.0</ele><time>2026-04-11T10:16:36.396Z</time></trkpt><trkpt lat="45.6371002" lon="9.3634474"><ele>212.0</ele><time>2026-04-11T10:16:37.398Z</time></trkpt><trkpt lat="45.6372093" lon="9.3635267"><ele>212.0</ele><time>2026-04-11T10:16:38.365Z</time></trkpt><trkpt lat="45.6373326" lon="9.3635827"><ele>212.0</ele><time>2026-04-11T10:16:39.365Z</time></trkpt><trkpt lat="45.637473" lon="9.3636292"><ele>212.0</ele><time>2026-04-11T10:16:40.403Z</time></trkpt><trkpt lat="45.6376327" lon="9.3636753"><ele>212.0</ele><time>2026-04-11T10:16:41.367Z</time></trkpt><trkpt lat="45.6378042" lon="9.3637236"><ele>212.0</ele><time>2026-04-11T10:16:42.394Z</time></trkpt><trkpt lat="45.6379873" lon="9.3637792"><ele>212.0</ele><time>2026-04-11T10:16:43.364Z</time></trkpt><trkpt lat="45.6381552" lon="9.3638304"><ele>212.0</ele><time>2026-04-11T10:16:44.368Z</time></trkpt><trkpt lat="45.6383157" lon="9.3638797"><ele>212.0</ele><time>2026-04-11T10:16:45.363Z</time></trkpt><trkpt lat="45.6384681" lon="9.3639255"><ele>212.0</ele><time>2026-04-11T10:16:46.394Z</time></trkpt><trkpt lat="45.6386103" lon="9.3639632"><ele>212.0</ele><time>2026-04-11T10:16:47.365Z</time></trkpt><trkpt lat="45.638755" lon="9.364002"><ele>212.0</ele><time>2026-04-11T10:16:48.394Z</time></trkpt><trkpt lat="45.6389102" lon="9.3640443"><ele>211.66666666666669</ele><time>2026-04-11T10:16:49.366Z</time></trkpt><trkpt lat="45.6390642" lon="9.3640839"><ele>211.33333333333331</ele><time>2026-04-11T10:16:50.375Z</time></trkpt><trkpt lat="45.6392139" lon="9.3641245"><ele>211.0</ele><time>2026-04-11T10:16:51.391Z</time></trkpt><trkpt lat="45.6393593" lon="9.3641656"><ele>211.25</ele><time>2026-04-11T10:16:52.36Z</time></trkpt><trkpt lat="45.6395018" lon="9.3642059"><ele>211.5</ele><time>2026-04-11T10:16:53.398Z</time></trkpt><trkpt lat="45.6396403" lon="9.3642403"><ele>211.75</ele><time>2026-04-11T10:16:54.391Z</time></trkpt><trkpt lat="45.6397751" lon="9.3642714"><ele>212.0</ele><time>2026-04-11T10:16:55.39Z</time></trkpt><trkpt lat="45.6399067" lon="9.3642969"><ele>212.0</ele><time>2026-04-11T10:16:56.374Z</time></trkpt><trkpt lat="45.6400364" lon="9.3643036"><ele>212.0</ele><time>2026-04-11T10:16:57.4Z</time></trkpt><trkpt lat="45.6401794" lon="9.3642901"><ele>212.0</ele><time>2026-04-11T10:16:58.384Z</time></trkpt><trkpt lat="45.6403203" lon="9.3642738"><ele>212.0</ele><time>2026-04-11T10:16:59.396Z</time></trkpt><trkpt lat="45.6404527" lon="9.3642632"><ele>212.5</ele><time>2026-04-11T10:17:00.395Z</time></trkpt><trkpt lat="45.6405773" lon="9.3642483"><ele>213.0</ele><time>2026-04-11T10:17:01.396Z</time></trkpt><trkpt lat="45.6406946" lon="9.3642421"><ele>213.5</ele><time>2026-04-11T10:17:02.369Z</time></trkpt><trkpt lat="45.6408057" lon="9.3642352"><ele>214.0</ele><time>2026-04-11T10:17:03.393Z</time></trkpt><trkpt lat="45.6409127" lon="9.3642227"><ele>214.0</ele><time>2026-04-11T10:17:04.407Z</time></trkpt><trkpt lat="45.6410107" lon="9.3642009"><ele>213.99999999999997</ele><time>2026-04-11T10:17:05.388Z</time></trkpt><trkpt lat="45.6411088" lon="9.3641518"><ele>213.99999999999997</ele><time>2026-04-11T10:17:06.365Z</time></trkpt><trkpt lat="45.641193" lon="9.3640907"><ele>214.0</ele><time>2026-04-11T10:17:07.402Z</time></trkpt><trkpt lat="45.6412591" lon="9.3640176"><ele>214.0</ele><time>2026-04-11T10:17:08.399Z</time></trkpt><trkpt lat="45.6413134" lon="9.3639369"><ele>214.33333333333331</ele><time>2026-04-11T10:17:09.393Z</time></trkpt><trkpt lat="45.6413583" lon="9.3638562"><ele>214.66666666666666</ele><time>2026-04-11T10:17:10.388Z</time></trkpt><trkpt lat="45.6413981" lon="9.3637802"><ele>215.0</ele><time>2026-04-11T10:17:11.369Z</time></trkpt><trkpt lat="45.6414675" lon="9.363644"><ele>215.33333333333331</ele><time>2026-04-11T10:17:13.396Z</time></trkpt><trkpt lat="45.6415249" lon="9.363566"><ele>215.66666666666666</ele><time>2026-04-11T10:17:16.396Z</time></trkpt><trkpt lat="45.6415791" lon="9.3634857"><ele>216.0</ele><time>2026-04-11T10:17:21.375Z</time></trkpt><trkpt lat="45.6416114" lon="9.363388"><ele>216.0</ele><time>2026-04-11T10:17:22.395Z</time></trkpt><trkpt lat="45.6416371" lon="9.3632618"><ele>216.0</ele><time>2026-04-11T10:17:23.394Z</time></trkpt><trkpt lat="45.6416563" lon="9.3631185"><ele>216.0</ele><time>2026-04-11T10:17:24.401Z</time></trkpt><trkpt lat="45.6416693" lon="9.3629877"><ele>216.0</ele><time>2026-04-11T10:17:25.396Z</time></trkpt><trkpt lat="45.6416944" lon="9.3628775"><ele>216.0</ele><time>2026-04-11T10:17:26.393Z</time></trkpt><trkpt lat="45.6417362" lon="9.3627831"><ele>216.0</ele><time>2026-04-11T10:17:27.396Z</time></trkpt><trkpt lat="45.6417873" lon="9.3627052"><ele>215.75</ele><time>2026-04-11T10:17:28.418Z</time></trkpt><trkpt lat="45.6419042" lon="9.3626079"><ele>215.5</ele><time>2026-04-11T10:17:30.408Z</time></trkpt><trkpt lat="45.6419785" lon="9.3626505"><ele>215.25</ele><time>2026-04-11T10:17:31.377Z</time></trkpt><trkpt lat="45.6420948" lon="9.3627786"><ele>215.0</ele><time>2026-04-11T10:17:33.388Z</time></trkpt><trkpt lat="45.6421678" lon="9.3629135"><ele>214.8</ele><time>2026-04-11T10:17:34.392Z</time></trkpt><trkpt lat="45.6422318" lon="9.3630472"><ele>214.6</ele><time>2026-04-11T10:17:35.393Z</time></trkpt><trkpt lat="45.6422976" lon="9.3631689"><ele>214.39999999999998</ele><time>2026-04-11T10:17:36.389Z</time></trkpt><trkpt lat="45.6423675" lon="9.3632868"><ele>214.2</ele><time>2026-04-11T10:17:37.395Z</time></trkpt><trkpt lat="45.642443" lon="9.3633983"><ele>214.0</ele><time>2026-04-11T10:17:38.414Z</time></trkpt><trkpt lat="45.6425241" lon="9.3634985"><ele>214.0</ele><time>2026-04-11T10:17:39.366Z</time></trkpt><trkpt lat="45.6426075" lon="9.363596"><ele>213.99999999999997</ele><time>2026-04-11T10:17:40.409Z</time></trkpt><trkpt lat="45.6426948" lon="9.3636809"><ele>213.99999999999997</ele><time>2026-04-11T10:17:41.399Z</time></trkpt><trkpt lat="45.6427899" lon="9.3637566"><ele>214.0</ele><time>2026-04-11T10:17:42.404Z</time></trkpt><trkpt lat="45.6428887" lon="9.3638144"><ele>214.0</ele><time>2026-04-11T10:17:43.37Z</time></trkpt><trkpt lat="45.6429836" lon="9.3638682"><ele>214.39999999999998</ele><time>2026-04-11T10:17:44.39Z</time></trkpt><trkpt lat="45.6430702" lon="9.3639163"><ele>214.79999999999998</ele><time>2026-04-11T10:17:45.377Z</time></trkpt><trkpt lat="45.6431515" lon="9.3639552"><ele>215.20000000000002</ele><time>2026-04-11T10:17:46.393Z</time></trkpt><trkpt lat="45.6432384" lon="9.3640057"><ele>215.60000000000002</ele><time>2026-04-11T10:17:47.395Z</time></trkpt><trkpt lat="45.6433215" lon="9.3640581"><ele>216.0</ele><time>2026-04-11T10:17:48.408Z</time></trkpt><trkpt lat="45.643412" lon="9.3640895"><ele>216.0</ele><time>2026-04-11T10:17:49.394Z</time></trkpt><trkpt lat="45.6435018" lon="9.3640943"><ele>216.0</ele><time>2026-04-11T10:17:50.396Z</time></trkpt><trkpt lat="45.6435949" lon="9.3640901"><ele>216.0</ele><time>2026-04-11T10:17:51.395Z</time></trkpt><trkpt lat="45.6436715" lon="9.364089"><ele>216.0</ele><time>2026-04-11T10:17:52.411Z</time></trkpt><trkpt lat="45.643747" lon="9.364085"><ele>216.0</ele><time>2026-04-11T10:17:53.365Z</time></trkpt><trkpt lat="45.6438123" lon="9.3640726"><ele>216.0</ele><time>2026-04-11T10:17:54.396Z</time></trkpt><trkpt lat="45.6439196" lon="9.3640603"><ele>216.20000000000002</ele><time>2026-04-11T10:17:56.394Z</time></trkpt><trkpt lat="45.6440319" lon="9.3640496"><ele>216.40000000000003</ele><time>2026-04-11T10:17:58.392Z</time></trkpt><trkpt lat="45.6441556" lon="9.3640189"><ele>216.6</ele><time>2026-04-11T10:18:00.363Z</time></trkpt><trkpt lat="45.6442207" lon="9.3640171"><ele>216.8</ele><time>2026-04-11T10:18:01.399Z</time></trkpt><trkpt lat="45.6443467" lon="9.3640122"><ele>217.0</ele><time>2026-04-11T10:18:03.395Z</time></trkpt><trkpt lat="45.6444728" lon="9.3640012"><ele>217.16666666666666</ele><time>2026-04-11T10:18:05.393Z</time></trkpt><trkpt lat="45.6445451" lon="9.3640003"><ele>217.33333333333331</ele><time>2026-04-11T10:18:06.394Z</time></trkpt><trkpt lat="45.6446302" lon="9.3639964"><ele>217.5</ele><time>2026-04-11T10:18:07.389Z</time></trkpt><trkpt lat="45.644717" lon="9.3639934"><ele>217.66666666666669</ele><time>2026-04-11T10:18:08.391Z</time></trkpt><trkpt lat="45.6448064" lon="9.3639829"><ele>217.83333333333334</ele><time>2026-04-11T10:18:09.394Z</time></trkpt><trkpt lat="45.6449019" lon="9.3639807"><ele>218.0</ele><time>2026-04-11T10:18:10.392Z</time></trkpt><trkpt lat="45.6449971" lon="9.3639755"><ele>218.0</ele><time>2026-04-11T10:18:11.398Z</time></trkpt><trkpt lat="45.6450911" lon="9.3639675"><ele>218.0</ele><time>2026-04-11T10:18:12.374Z</time></trkpt><trkpt lat="45.6451922" lon="9.3639604"><ele>218.0</ele><time>2026-04-11T10:18:13.398Z</time></trkpt><trkpt lat="45.6452915" lon="9.3639539"><ele>218.0</ele><time>2026-04-11T10:18:14.401Z</time></trkpt><trkpt lat="45.6453786" lon="9.3639476"><ele>218.0</ele><time>2026-04-11T10:18:15.395Z</time></trkpt><trkpt lat="45.6454617" lon="9.3639434"><ele>218.33333333333334</ele><time>2026-04-11T10:18:16.393Z</time></trkpt><trkpt lat="45.6455374" lon="9.3639422"><ele>218.66666666666669</ele><time>2026-04-11T10:18:17.392Z</time></trkpt><trkpt lat="45.6456098" lon="9.3639402"><ele>219.0</ele><time>2026-04-11T10:18:18.396Z</time></trkpt><trkpt lat="45.6456777" lon="9.3639427"><ele>219.33333333333331</ele><time>2026-04-11T10:18:19.396Z</time></trkpt><trkpt lat="45.6457761" lon="9.3639558"><ele>219.66666666666666</ele><time>2026-04-11T10:18:21.363Z</time></trkpt><trkpt lat="45.6458576" lon="9.3640615"><ele>220.0</ele><time>2026-04-11T10:18:23.37Z</time></trkpt><trkpt lat="45.6459243" lon="9.3641794"><ele>220.0</ele><time>2026-04-11T10:18:25.393Z</time></trkpt><trkpt lat="45.6459796" lon="9.36427"><ele>220.0</ele><time>2026-04-11T10:18:27.364Z</time></trkpt><trkpt lat="45.646026" lon="9.3643974"><ele>220.0</ele><time>2026-04-11T10:18:29.394Z</time></trkpt><trkpt lat="45.6460425" lon="9.3645481"><ele>220.0</ele><time>2026-04-11T10:18:31.368Z</time></trkpt><trkpt lat="45.6460078" lon="9.3647191"><ele>220.0</ele><time>2026-04-11T10:18:33.393Z</time></trkpt><trkpt lat="45.6459716" lon="9.3648782"><ele>219.85714285714283</ele><time>2026-04-11T10:18:35.361Z</time></trkpt><trkpt lat="45.6459464" lon="9.3649675"><ele>219.71428571428572</ele><time>2026-04-11T10:18:36.387Z</time></trkpt><trkpt lat="45.6459222" lon="9.3650624"><ele>219.57142857142856</ele><time>2026-04-11T10:18:37.368Z</time></trkpt><trkpt lat="45.6458962" lon="9.3651565"><ele>219.42857142857142</ele><time>2026-04-11T10:18:38.392Z</time></trkpt><trkpt lat="45.6458703" lon="9.3652525"><ele>219.28571428571428</ele><time>2026-04-11T10:18:39.368Z</time></trkpt><trkpt lat="45.6458448" lon="9.3653461"><ele>219.14285714285714</ele><time>2026-04-11T10:18:40.373Z</time></trkpt><trkpt lat="45.6458159" lon="9.3654419"><ele>219.0</ele><time>2026-04-11T10:18:41.396Z</time></trkpt><trkpt lat="45.6457894" lon="9.3655406"><ele>218.39999999999998</ele><time>2026-04-11T10:18:42.372Z</time></trkpt><trkpt lat="45.6457685" lon="9.3656382"><ele>217.79999999999998</ele><time>2026-04-11T10:18:43.374Z</time></trkpt><trkpt lat="45.6457264" lon="9.3658035"><ele>217.20000000000002</ele><time>2026-04-11T10:18:45.4Z</time></trkpt><trkpt lat="45.6456882" lon="9.3659743"><ele>216.60000000000002</ele><time>2026-04-11T10:18:47.395Z</time></trkpt><trkpt lat="45.6456562" lon="9.3661246"><ele>216.0</ele><time>2026-04-11T10:18:49.375Z</time></trkpt><trkpt lat="45.6456064" lon="9.3662436"><ele>216.0</ele><time>2026-04-11T10:18:51.374Z</time></trkpt><trkpt lat="45.6455338" lon="9.3663286"><ele>216.0</ele><time>2026-04-11T10:18:53.379Z</time></trkpt><trkpt lat="45.6455276" lon="9.3664362"><ele>216.0</ele><time>2026-04-11T10:18:55.391Z</time></trkpt><trkpt lat="45.6456023" lon="9.3664863"><ele>216.0</ele><time>2026-04-11T10:18:57.38Z</time></trkpt><trkpt lat="45.6456676" lon="9.3664912"><ele>216.0</ele><time>2026-04-11T10:18:58.371Z</time></trkpt><trkpt lat="45.6457549" lon="9.3665061"><ele>216.0</ele><time>2026-04-11T10:18:59.393Z</time></trkpt><trkpt lat="45.6458623" lon="9.3665375"><ele>215.75</ele><time>2026-04-11T10:19:00.364Z</time></trkpt><trkpt lat="45.645973" lon="9.3665739"><ele>215.5</ele><time>2026-04-11T10:19:01.398Z</time></trkpt><trkpt lat="45.6460909" lon="9.3666167"><ele>215.25</ele><time>2026-04-11T10:19:02.368Z</time></trkpt><trkpt lat="45.6462112" lon="9.3666603"><ele>215.0</ele><time>2026-04-11T10:19:03.393Z</time></trkpt><trkpt lat="45.6463324" lon="9.3666977"><ele>216.25</ele><time>2026-04-11T10:19:04.366Z</time></trkpt><trkpt lat="45.6464498" lon="9.3667348"><ele>217.5</ele><time>2026-04-11T10:19:05.372Z</time></trkpt><trkpt lat="45.6465664" lon="9.3667792"><ele>218.75</ele><time>2026-04-11T10:19:06.369Z</time></trkpt><trkpt lat="45.6466872" lon="9.366824"><ele>220.0</ele><time>2026-04-11T10:19:07.394Z</time></trkpt><trkpt lat="45.6468003" lon="9.3668611"><ele>220.0</ele><time>2026-04-11T10:19:08.37Z</time></trkpt><trkpt lat="45.6469111" lon="9.3668999"><ele>220.0</ele><time>2026-04-11T10:19:09.369Z</time></trkpt><trkpt lat="45.6470175" lon="9.3669351"><ele>220.0</ele><time>2026-04-11T10:19:10.363Z</time></trkpt><trkpt lat="45.6471129" lon="9.3669644"><ele>220.0</ele><time>2026-04-11T10:19:11.369Z</time></trkpt><trkpt lat="45.6472124" lon="9.3669693"><ele>220.0</ele><time>2026-04-11T10:19:12.392Z</time></trkpt><trkpt lat="45.6473072" lon="9.366954"><ele>219.6</ele><time>2026-04-11T10:19:13.37Z</time></trkpt><trkpt lat="45.6474152" lon="9.366939"><ele>219.2</ele><time>2026-04-11T10:19:14.391Z</time></trkpt><trkpt lat="45.6475225" lon="9.3669301"><ele>218.8</ele><time>2026-04-11T10:19:15.388Z</time></trkpt><trkpt lat="45.6476383" lon="9.3668723"><ele>218.4</ele><time>2026-04-11T10:19:16.391Z</time></trkpt><trkpt lat="45.6477392" lon="9.3668399"><ele>218.0</ele><time>2026-04-11T10:19:17.362Z</time></trkpt><trkpt lat="45.6478321" lon="9.3667881"><ele>217.4</ele><time>2026-04-11T10:19:19.384Z</time></trkpt><trkpt lat="45.6479619" lon="9.3667669"><ele>216.8</ele><time>2026-04-11T10:19:21.371Z</time></trkpt><trkpt lat="45.6480471" lon="9.3667958"><ele>216.2</ele><time>2026-04-11T10:19:22.392Z</time></trkpt><trkpt lat="45.6481415" lon="9.3668448"><ele>215.6</ele><time>2026-04-11T10:19:23.393Z</time></trkpt><trkpt lat="45.6482185" lon="9.3668965"><ele>215.0</ele><time>2026-04-11T10:19:24.393Z</time></trkpt><trkpt lat="45.6482849" lon="9.3669637"><ele>215.0</ele><time>2026-04-11T10:19:25.391Z</time></trkpt><trkpt lat="45.6483335" lon="9.3670448"><ele>215.0</ele><time>2026-04-11T10:19:26.394Z</time></trkpt><trkpt lat="45.6483669" lon="9.3671361"><ele>215.0</ele><time>2026-04-11T10:19:27.375Z</time></trkpt><trkpt lat="45.6484121" lon="9.3672"><ele>215.0</ele><time>2026-04-11T10:19:28.396Z</time></trkpt><trkpt lat="45.6485557" lon="9.367255"><ele>215.0</ele><time>2026-04-11T10:19:30.392Z</time></trkpt><trkpt lat="45.6486438" lon="9.3672949"><ele>215.2</ele><time>2026-04-11T10:19:31.396Z</time></trkpt><trkpt lat="45.6487401" lon="9.3673397"><ele>215.4</ele><time>2026-04-11T10:19:32.394Z</time></trkpt><trkpt lat="45.6488384" lon="9.3673833"><ele>215.60000000000002</ele><time>2026-04-11T10:19:33.395Z</time></trkpt><trkpt lat="45.6489421" lon="9.3674317"><ele>215.8</ele><time>2026-04-11T10:19:34.388Z</time></trkpt><trkpt lat="45.6490488" lon="9.367484"><ele>216.0</ele><time>2026-04-11T10:19:35.394Z</time></trkpt><trkpt lat="45.6491507" lon="9.3675347"><ele>216.0</ele><time>2026-04-11T10:19:36.365Z</time></trkpt><trkpt lat="45.6492544" lon="9.3675851"><ele>216.00000000000003</ele><time>2026-04-11T10:19:37.39Z</time></trkpt><trkpt lat="45.6493579" lon="9.3676347"><ele>216.00000000000003</ele><time>2026-04-11T10:19:38.405Z</time></trkpt><trkpt lat="45.6494607" lon="9.3676888"><ele>216.0</ele><time>2026-04-11T10:19:39.398Z</time></trkpt><trkpt lat="45.6495695" lon="9.3677425"><ele>216.0</ele><time>2026-04-11T10:19:40.373Z</time></trkpt><trkpt lat="45.6496765" lon="9.3677941"><ele>215.60000000000002</ele><time>2026-04-11T10:19:41.396Z</time></trkpt><trkpt lat="45.64978" lon="9.367845"><ele>215.20000000000002</ele><time>2026-04-11T10:19:42.365Z</time></trkpt><trkpt lat="45.6498791" lon="9.3678914"><ele>214.79999999999998</ele><time>2026-04-11T10:19:43.389Z</time></trkpt><trkpt lat="45.6499708" lon="9.3679353"><ele>214.39999999999998</ele><time>2026-04-11T10:19:44.392Z</time></trkpt><trkpt lat="45.6500539" lon="9.3679744"><ele>214.0</ele><time>2026-04-11T10:19:45.397Z</time></trkpt><trkpt lat="45.6501315" lon="9.3680119"><ele>214.42857142857144</ele><time>2026-04-11T10:19:46.396Z</time></trkpt><trkpt lat="45.6502047" lon="9.3680474"><ele>214.85714285714286</ele><time>2026-04-11T10:19:47.362Z</time></trkpt><trkpt lat="45.6502781" lon="9.3680857"><ele>215.28571428571428</ele><time>2026-04-11T10:19:48.368Z</time></trkpt><trkpt lat="45.6503473" lon="9.3681191"><ele>215.71428571428572</ele><time>2026-04-11T10:19:49.391Z</time></trkpt><trkpt lat="45.6504122" lon="9.36815"><ele>216.14285714285714</ele><time>2026-04-11T10:19:50.374Z</time></trkpt><trkpt lat="45.6504779" lon="9.3681751"><ele>216.57142857142858</ele><time>2026-04-11T10:19:51.387Z</time></trkpt><trkpt lat="45.6505482" lon="9.3682029"><ele>217.0</ele><time>2026-04-11T10:19:52.369Z</time></trkpt><trkpt lat="45.6506219" lon="9.36824"><ele>217.49999999999997</ele><time>2026-04-11T10:19:53.397Z</time></trkpt><trkpt lat="45.6506981" lon="9.3682892"><ele>218.0</ele><time>2026-04-11T10:19:54.395Z</time></trkpt><trkpt lat="45.650767" lon="9.3683334"><ele>218.5</ele><time>2026-04-11T10:19:55.364Z</time></trkpt><trkpt lat="45.6508358" lon="9.3683741"><ele>219.0</ele><time>2026-04-11T10:19:56.396Z</time></trkpt><trkpt lat="45.650896" lon="9.3684006"><ele>219.49999999999997</ele><time>2026-04-11T10:19:57.399Z</time></trkpt><trkpt lat="45.6510019" lon="9.3684476"><ele>220.0</ele><time>2026-04-11T10:19:59.39Z</time></trkpt><trkpt lat="45.6511041" lon="9.3684814"><ele>220.0</ele><time>2026-04-11T10:20:01.394Z</time></trkpt><trkpt lat="45.6512222" lon="9.3685233"><ele>220.0</ele><time>2026-04-11T10:20:03.398Z</time></trkpt><trkpt lat="45.6513152" lon="9.3685586"><ele>220.0</ele><time>2026-04-11T10:20:05.365Z</time></trkpt><trkpt lat="45.6513991" lon="9.3685908"><ele>220.0</ele><time>2026-04-11T10:20:08.37Z</time></trkpt><trkpt lat="45.6514955" lon="9.3686182"><ele>220.0</ele><time>2026-04-11T10:20:10.406Z</time></trkpt><trkpt lat="45.6515818" lon="9.3686424"><ele>220.0</ele><time>2026-04-11T10:20:11.392Z</time></trkpt><trkpt lat="45.6516671" lon="9.3686678"><ele>220.0</ele><time>2026-04-11T10:20:12.395Z</time></trkpt><trkpt lat="45.6517422" lon="9.3686953"><ele>220.0</ele><time>2026-04-11T10:20:13.394Z</time></trkpt><trkpt lat="45.6518301" lon="9.368729"><ele>220.0</ele><time>2026-04-11T10:20:14.394Z</time></trkpt><trkpt lat="45.6519263" lon="9.3687692"><ele>220.0</ele><time>2026-04-11T10:20:15.392Z</time></trkpt><trkpt lat="45.6520255" lon="9.3688021"><ele>220.0</ele><time>2026-04-11T10:20:16.39Z</time></trkpt><trkpt lat="45.6521142" lon="9.3688417"><ele>220.0</ele><time>2026-04-11T10:20:17.398Z</time></trkpt><trkpt lat="45.6522162" lon="9.3688821"><ele>220.0</ele><time>2026-04-11T10:20:18.392Z</time></trkpt><trkpt lat="45.6523294" lon="9.3689241"><ele>220.0</ele><time>2026-04-11T10:20:19.393Z</time></trkpt><trkpt lat="45.6524448" lon="9.3689597"><ele>220.0</ele><time>2026-04-11T10:20:20.375Z</time></trkpt><trkpt lat="45.6525682" lon="9.3689727"><ele>220.0</ele><time>2026-04-11T10:20:21.393Z</time></trkpt><trkpt lat="45.6526999" lon="9.368977"><ele>220.0</ele><time>2026-04-11T10:20:22.364Z</time></trkpt><trkpt lat="45.6528414" lon="9.3689815"><ele>220.0</ele><time>2026-04-11T10:20:23.391Z</time></trkpt><trkpt lat="45.6529781" lon="9.3689874"><ele>220.0</ele><time>2026-04-11T10:20:24.367Z</time></trkpt><trkpt lat="45.653099" lon="9.3689858"><ele>219.6</ele><time>2026-04-11T10:20:25.364Z</time></trkpt><trkpt lat="45.6532039" lon="9.3689828"><ele>219.2</ele><time>2026-04-11T10:20:26.395Z</time></trkpt><trkpt lat="45.6532868" lon="9.3689795"><ele>218.8</ele><time>2026-04-11T10:20:27.364Z</time></trkpt><trkpt lat="45.6533501" lon="9.3689853"><ele>218.4</ele><time>2026-04-11T10:20:28.367Z</time></trkpt><trkpt lat="45.6534488" lon="9.3690276"><ele>218.0</ele><time>2026-04-11T10:20:30.374Z</time></trkpt><trkpt lat="45.6535078" lon="9.3691731"><ele>218.00000000000003</ele><time>2026-04-11T10:20:32.371Z</time></trkpt><trkpt lat="45.6534785" lon="9.3692934"><ele>218.0</ele><time>2026-04-11T10:20:33.396Z</time></trkpt><trkpt lat="45.6534471" lon="9.3694214"><ele>218.0</ele><time>2026-04-11T10:20:34.373Z</time></trkpt><trkpt lat="45.6534157" lon="9.3695399"><ele>218.0</ele><time>2026-04-11T10:20:35.392Z</time></trkpt><trkpt lat="45.6533816" lon="9.3696492"><ele>218.00000000000003</ele><time>2026-04-11T10:20:36.376Z</time></trkpt><trkpt lat="45.6533442" lon="9.3697388"><ele>218.0</ele><time>2026-04-11T10:20:37.394Z</time></trkpt><trkpt lat="45.6532998" lon="9.369818"><ele>217.8</ele><time>2026-04-11T10:20:38.376Z</time></trkpt><trkpt lat="45.6532854" lon="9.3699814"><ele>217.60000000000002</ele><time>2026-04-11T10:20:40.391Z</time></trkpt><trkpt lat="45.6533714" lon="9.3700832"><ele>217.39999999999998</ele><time>2026-04-11T10:20:42.396Z</time></trkpt><trkpt lat="45.6534507" lon="9.3700779"><ele>217.2</ele><time>2026-04-11T10:20:43.396Z</time></trkpt><trkpt lat="45.6535472" lon="9.3700681"><ele>217.0</ele><time>2026-04-11T10:20:44.371Z</time></trkpt><trkpt lat="45.6536613" lon="9.3700965"><ele>217.75</ele><time>2026-04-11T10:20:45.398Z</time></trkpt><trkpt lat="45.6537831" lon="9.3701499"><ele>218.5</ele><time>2026-04-11T10:20:46.369Z</time></trkpt><trkpt lat="45.653911" lon="9.3702115"><ele>219.25</ele><time>2026-04-11T10:20:47.392Z</time></trkpt><trkpt lat="45.6540396" lon="9.370273"><ele>220.0</ele><time>2026-04-11T10:20:48.386Z</time></trkpt><trkpt lat="45.6541557" lon="9.3703348"><ele>220.0</ele><time>2026-04-11T10:20:49.394Z</time></trkpt><trkpt lat="45.6542651" lon="9.3703863"><ele>220.0</ele><time>2026-04-11T10:20:50.39Z</time></trkpt><trkpt lat="45.6543645" lon="9.3704361"><ele>220.0</ele><time>2026-04-11T10:20:51.394Z</time></trkpt><trkpt lat="45.6544573" lon="9.3704902"><ele>220.0</ele><time>2026-04-11T10:20:52.389Z</time></trkpt><trkpt lat="45.654537" lon="9.370559"><ele>220.0</ele><time>2026-04-11T10:20:53.371Z</time></trkpt><trkpt lat="45.6546133" lon="9.3706423"><ele>221.75</ele><time>2026-04-11T10:20:54.387Z</time></trkpt><trkpt lat="45.654682" lon="9.3707511"><ele>223.5</ele><time>2026-04-11T10:20:55.367Z</time></trkpt><trkpt lat="45.6547484" lon="9.3708952"><ele>225.25</ele><time>2026-04-11T10:20:56.391Z</time></trkpt><trkpt lat="45.6548242" lon="9.3710786"><ele>227.0</ele><time>2026-04-11T10:20:57.369Z</time></trkpt><trkpt lat="45.6549075" lon="9.3712923"><ele>225.66666666666669</ele><time>2026-04-11T10:20:58.391Z</time></trkpt><trkpt lat="45.6549984" lon="9.3715177"><ele>224.33333333333331</ele><time>2026-04-11T10:20:59.369Z</time></trkpt><trkpt lat="45.6550959" lon="9.3717636"><ele>223.0</ele><time>2026-04-11T10:21:00.364Z</time></trkpt><trkpt lat="45.6551992" lon="9.3720197"><ele>225.66666666666666</ele><time>2026-04-11T10:21:01.364Z</time></trkpt><trkpt lat="45.6552945" lon="9.3722641"><ele>228.33333333333331</ele><time>2026-04-11T10:21:02.365Z</time></trkpt><trkpt lat="45.6553854" lon="9.3724978"><ele>231.0</ele><time>2026-04-11T10:21:03.367Z</time></trkpt><trkpt lat="45.6554708" lon="9.3727187"><ele>231.0</ele><time>2026-04-11T10:21:04.369Z</time></trkpt><trkpt lat="45.6555495" lon="9.3729271"><ele>231.0</ele><time>2026-04-11T10:21:05.367Z</time></trkpt><trkpt lat="45.6556203" lon="9.3731235"><ele>231.0</ele><time>2026-04-11T10:21:06.366Z</time></trkpt><trkpt lat="45.6556891" lon="9.3733111"><ele>230.0</ele><time>2026-04-11T10:21:07.39Z</time></trkpt><trkpt lat="45.6557608" lon="9.3734891"><ele>229.0</ele><time>2026-04-11T10:21:08.39Z</time></trkpt><trkpt lat="45.6558258" lon="9.3736617"><ele>228.0</ele><time>2026-04-11T10:21:09.37Z</time></trkpt><trkpt lat="45.6558926" lon="9.3738363"><ele>227.0</ele><time>2026-04-11T10:21:10.39Z</time></trkpt><trkpt lat="45.6559575" lon="9.3740087"><ele>226.25</ele><time>2026-04-11T10:21:11.365Z</time></trkpt><trkpt lat="45.6560224" lon="9.3741732"><ele>225.5</ele><time>2026-04-11T10:21:12.39Z</time></trkpt><trkpt lat="45.6560858" lon="9.3743416"><ele>224.75</ele><time>2026-04-11T10:21:13.37Z</time></trkpt><trkpt lat="45.6561486" lon="9.3745093"><ele>224.0</ele><time>2026-04-11T10:21:14.371Z</time></trkpt><trkpt lat="45.656214" lon="9.374681"><ele>225.75</ele><time>2026-04-11T10:21:15.368Z</time></trkpt><trkpt lat="45.6562789" lon="9.3748472"><ele>227.5</ele><time>2026-04-11T10:21:16.393Z</time></trkpt><trkpt lat="45.6563431" lon="9.3750156"><ele>229.25</ele><time>2026-04-11T10:21:17.396Z</time></trkpt><trkpt lat="45.6564105" lon="9.3751821"><ele>231.0</ele><time>2026-04-11T10:21:18.393Z</time></trkpt><trkpt lat="45.6564829" lon="9.3753443"><ele>231.0</ele><time>2026-04-11T10:21:19.39Z</time></trkpt><trkpt lat="45.656564" lon="9.3755024"><ele>231.0</ele><time>2026-04-11T10:21:20.394Z</time></trkpt><trkpt lat="45.6566449" lon="9.37566"><ele>231.0</ele><time>2026-04-11T10:21:21.397Z</time></trkpt><trkpt lat="45.65672" lon="9.3758099"><ele>231.0</ele><time>2026-04-11T10:21:22.397Z</time></trkpt><trkpt lat="45.6567952" lon="9.3759676"><ele>229.75</ele><time>2026-04-11T10:21:23.366Z</time></trkpt><trkpt lat="45.6568699" lon="9.3761275"><ele>228.5</ele><time>2026-04-11T10:21:24.392Z</time></trkpt><trkpt lat="45.6569382" lon="9.3762918"><ele>227.25</ele><time>2026-04-11T10:21:25.392Z</time></trkpt><trkpt lat="45.6570153" lon="9.3764683"><ele>226.0</ele><time>2026-04-11T10:21:26.391Z</time></trkpt><trkpt lat="45.6571042" lon="9.3766421"><ele>226.0</ele><time>2026-04-11T10:21:27.368Z</time></trkpt><trkpt lat="45.6572076" lon="9.3768064"><ele>226.0</ele><time>2026-04-11T10:21:28.397Z</time></trkpt><trkpt lat="45.65732" lon="9.3769532"><ele>226.0</ele><time>2026-04-11T10:21:29.365Z</time></trkpt><trkpt lat="45.6574412" lon="9.3770926"><ele>226.33333333333331</ele><time>2026-04-11T10:21:30.395Z</time></trkpt><trkpt lat="45.657563" lon="9.3772224"><ele>226.66666666666669</ele><time>2026-04-11T10:21:31.388Z</time></trkpt><trkpt lat="45.657685" lon="9.3773501"><ele>227.0</ele><time>2026-04-11T10:21:32.37Z</time></trkpt><trkpt lat="45.6578067" lon="9.3774816"><ele>230.33333333333334</ele><time>2026-04-11T10:21:33.369Z</time></trkpt><trkpt lat="45.6579073" lon="9.377637"><ele>233.66666666666669</ele><time>2026-04-11T10:21:34.365Z</time></trkpt><trkpt lat="45.6580163" lon="9.3777951"><ele>237.0</ele><time>2026-04-11T10:21:35.365Z</time></trkpt><trkpt lat="45.6581265" lon="9.3779599"><ele>235.33333333333331</ele><time>2026-04-11T10:21:36.369Z</time></trkpt><trkpt lat="45.6582327" lon="9.3781194"><ele>233.66666666666666</ele><time>2026-04-11T10:21:37.394Z</time></trkpt><trkpt lat="45.6583381" lon="9.378279"><ele>232.0</ele><time>2026-04-11T10:21:38.39Z</time></trkpt><trkpt lat="45.658441" lon="9.3784302"><ele>232.0</ele><time>2026-04-11T10:21:39.39Z</time></trkpt><trkpt lat="45.6585436" lon="9.378576"><ele>232.0</ele><time>2026-04-11T10:21:40.394Z</time></trkpt><trkpt lat="45.6586458" lon="9.3787248"><ele>232.0</ele><time>2026-04-11T10:21:41.388Z</time></trkpt><trkpt lat="45.6587467" lon="9.3788808"><ele>232.0</ele><time>2026-04-11T10:21:42.392Z</time></trkpt><trkpt lat="45.6588533" lon="9.3790412"><ele>233.0</ele><time>2026-04-11T10:21:43.388Z</time></trkpt><trkpt lat="45.6589674" lon="9.3792074"><ele>234.0</ele><time>2026-04-11T10:21:44.397Z</time></trkpt><trkpt lat="45.659082" lon="9.3793808"><ele>235.0</ele><time>2026-04-11T10:21:45.393Z</time></trkpt><trkpt lat="45.6591858" lon="9.3795461"><ele>234.0</ele><time>2026-04-11T10:21:46.396Z</time></trkpt><trkpt lat="45.6592871" lon="9.3797013"><ele>233.0</ele><time>2026-04-11T10:21:47.39Z</time></trkpt><trkpt lat="45.6593826" lon="9.3798459"><ele>232.0</ele><time>2026-04-11T10:21:48.373Z</time></trkpt><trkpt lat="45.6594752" lon="9.3799868"><ele>231.0</ele><time>2026-04-11T10:21:49.391Z</time></trkpt><trkpt lat="45.6595687" lon="9.3801285"><ele>231.5</ele><time>2026-04-11T10:21:50.367Z</time></trkpt><trkpt lat="45.6596628" lon="9.380268"><ele>232.0</ele><time>2026-04-11T10:21:51.364Z</time></trkpt><trkpt lat="45.6597564" lon="9.3804065"><ele>232.5</ele><time>2026-04-11T10:21:52.393Z</time></trkpt><trkpt lat="45.6598521" lon="9.3805471"><ele>233.0</ele><time>2026-04-11T10:21:53.393Z</time></trkpt><trkpt lat="45.6599479" lon="9.3806845"><ele>233.0</ele><time>2026-04-11T10:21:54.398Z</time></trkpt><trkpt lat="45.6600509" lon="9.3808218"><ele>233.0</ele><time>2026-04-11T10:21:55.395Z</time></trkpt><trkpt lat="45.6601562" lon="9.3809586"><ele>233.0</ele><time>2026-04-11T10:21:56.392Z</time></trkpt><trkpt lat="45.6602629" lon="9.3810969"><ele>233.0</ele><time>2026-04-11T10:21:57.395Z</time></trkpt><trkpt lat="45.6603704" lon="9.3812332"><ele>233.75</ele><time>2026-04-11T10:21:58.395Z</time></trkpt><trkpt lat="45.6604805" lon="9.3813668"><ele>234.5</ele><time>2026-04-11T10:21:59.368Z</time></trkpt><trkpt lat="45.6605944" lon="9.3815078"><ele>235.25</ele><time>2026-04-11T10:22:00.399Z</time></trkpt><trkpt lat="45.6607097" lon="9.3816496"><ele>236.0</ele><time>2026-04-11T10:22:01.363Z</time></trkpt><trkpt lat="45.6608299" lon="9.3817901"><ele>236.0</ele><time>2026-04-11T10:22:02.39Z</time></trkpt><trkpt lat="45.6609512" lon="9.3819349"><ele>236.0</ele><time>2026-04-11T10:22:03.393Z</time></trkpt><trkpt lat="45.6610715" lon="9.382076"><ele>236.0</ele><time>2026-04-11T10:22:04.392Z</time></trkpt><trkpt lat="45.6611929" lon="9.3822176"><ele>233.66666666666669</ele><time>2026-04-11T10:22:05.364Z</time></trkpt><trkpt lat="45.6613216" lon="9.3823566"><ele>231.33333333333331</ele><time>2026-04-11T10:22:06.388Z</time></trkpt><trkpt lat="45.6614543" lon="9.3825051"><ele>229.0</ele><time>2026-04-11T10:22:07.399Z</time></trkpt><trkpt lat="45.6615865" lon="9.3826533"><ele>229.0</ele><time>2026-04-11T10:22:08.395Z</time></trkpt><trkpt lat="45.6617193" lon="9.3827978"><ele>229.0</ele><time>2026-04-11T10:22:09.391Z</time></trkpt><trkpt lat="45.6618469" lon="9.3829344"><ele>229.0</ele><time>2026-04-11T10:22:10.396Z</time></trkpt><trkpt lat="45.6619706" lon="9.3830637"><ele>229.0</ele><time>2026-04-11T10:22:11.373Z</time></trkpt><trkpt lat="45.6620869" lon="9.3831806"><ele>229.0</ele><time>2026-04-11T10:22:12.388Z</time></trkpt><trkpt lat="45.6621989" lon="9.3832966"><ele>229.0</ele><time>2026-04-11T10:22:13.391Z</time></trkpt><trkpt lat="45.6623125" lon="9.3834078"><ele>229.0</ele><time>2026-04-11T10:22:14.392Z</time></trkpt><trkpt lat="45.6624237" lon="9.3835198"><ele>229.0</ele><time>2026-04-11T10:22:15.369Z</time></trkpt><trkpt lat="45.6625412" lon="9.3836301"><ele>229.0</ele><time>2026-04-11T10:22:16.366Z</time></trkpt><trkpt lat="45.6626581" lon="9.3837443"><ele>229.0</ele><time>2026-04-11T10:22:17.39Z</time></trkpt><trkpt lat="45.6627812" lon="9.3838542"><ele>229.0</ele><time>2026-04-11T10:22:18.395Z</time></trkpt><trkpt lat="45.6629085" lon="9.3839677"><ele>229.5</ele><time>2026-04-11T10:22:19.394Z</time></trkpt><trkpt lat="45.6630396" lon="9.3840805"><ele>230.0</ele><time>2026-04-11T10:22:20.398Z</time></trkpt><trkpt lat="45.6631623" lon="9.384187"><ele>230.5</ele><time>2026-04-11T10:22:21.398Z</time></trkpt><trkpt lat="45.6632822" lon="9.38429"><ele>231.0</ele><time>2026-04-11T10:22:22.393Z</time></trkpt><trkpt lat="45.6634003" lon="9.3843872"><ele>231.0</ele><time>2026-04-11T10:22:23.393Z</time></trkpt><trkpt lat="45.6635119" lon="9.3844818"><ele>231.0</ele><time>2026-04-11T10:22:24.389Z</time></trkpt><trkpt lat="45.6636225" lon="9.3845775"><ele>231.0</ele><time>2026-04-11T10:22:25.4Z</time></trkpt><trkpt lat="45.6637289" lon="9.3846684"><ele>231.0</ele><time>2026-04-11T10:22:26.392Z</time></trkpt><trkpt lat="45.6638267" lon="9.3847468"><ele>230.75</ele><time>2026-04-11T10:22:27.397Z</time></trkpt><trkpt lat="45.6639174" lon="9.3848226"><ele>230.5</ele><time>2026-04-11T10:22:28.367Z</time></trkpt><trkpt lat="45.664027" lon="9.3849056"><ele>230.25</ele><time>2026-04-11T10:22:29.397Z</time></trkpt><trkpt lat="45.6641476" lon="9.385002"><ele>230.0</ele><time>2026-04-11T10:22:30.391Z</time></trkpt><trkpt lat="45.6642798" lon="9.3851169"><ele>230.0</ele><time>2026-04-11T10:22:31.366Z</time></trkpt><trkpt lat="45.6644207" lon="9.3852371"><ele>230.0</ele><time>2026-04-11T10:22:32.389Z</time></trkpt><trkpt lat="45.6645729" lon="9.3853625"><ele>230.0</ele><time>2026-04-11T10:22:33.393Z</time></trkpt><trkpt lat="45.664732" lon="9.385494"><ele>230.33333333333334</ele><time>2026-04-11T10:22:34.39Z</time></trkpt><trkpt lat="45.6648861" lon="9.3856241"><ele>230.66666666666669</ele><time>2026-04-11T10:22:35.394Z</time></trkpt><trkpt lat="45.665036" lon="9.3857524"><ele>231.0</ele><time>2026-04-11T10:22:36.397Z</time></trkpt><trkpt lat="45.6651865" lon="9.3858721"><ele>232.0</ele><time>2026-04-11T10:22:37.4Z</time></trkpt><trkpt lat="45.665334" lon="9.385994"><ele>233.0</ele><time>2026-04-11T10:22:38.382Z</time></trkpt><trkpt lat="45.6654823" lon="9.3861134"><ele>234.0</ele><time>2026-04-11T10:22:39.393Z</time></trkpt><trkpt lat="45.6656247" lon="9.3862279"><ele>234.0</ele><time>2026-04-11T10:22:40.396Z</time></trkpt><trkpt lat="45.6657569" lon="9.3863388"><ele>234.0</ele><time>2026-04-11T10:22:41.363Z</time></trkpt><trkpt lat="45.665885" lon="9.3864442"><ele>234.0</ele><time>2026-04-11T10:22:42.392Z</time></trkpt><trkpt lat="45.6660128" lon="9.3865508"><ele>234.0</ele><time>2026-04-11T10:22:43.393Z</time></trkpt><trkpt lat="45.6661435" lon="9.3866569"><ele>233.5</ele><time>2026-04-11T10:22:44.362Z</time></trkpt><trkpt lat="45.6662692" lon="9.3867607"><ele>233.0</ele><time>2026-04-11T10:22:45.392Z</time></trkpt><trkpt lat="45.6663949" lon="9.3868633"><ele>232.5</ele><time>2026-04-11T10:22:46.388Z</time></trkpt><trkpt lat="45.6665138" lon="9.3869621"><ele>232.0</ele><time>2026-04-11T10:22:47.392Z</time></trkpt><trkpt lat="45.6666295" lon="9.3870542"><ele>232.0</ele><time>2026-04-11T10:22:48.361Z</time></trkpt><trkpt lat="45.6667399" lon="9.3871413"><ele>232.0</ele><time>2026-04-11T10:22:49.391Z</time></trkpt><trkpt lat="45.666842" lon="9.3872272"><ele>232.0</ele><time>2026-04-11T10:22:50.391Z</time></trkpt><trkpt lat="45.6669432" lon="9.387313"><ele>232.0</ele><time>2026-04-11T10:22:51.362Z</time></trkpt><trkpt lat="45.6670494" lon="9.387401"><ele>232.5</ele><time>2026-04-11T10:22:52.365Z</time></trkpt><trkpt lat="45.6671565" lon="9.3874904"><ele>233.0</ele><time>2026-04-11T10:22:53.391Z</time></trkpt><trkpt lat="45.6672698" lon="9.3875818"><ele>233.5</ele><time>2026-04-11T10:22:54.365Z</time></trkpt><trkpt lat="45.6673877" lon="9.3876728"><ele>234.0</ele><time>2026-04-11T10:22:55.39Z</time></trkpt><trkpt lat="45.6675172" lon="9.3877747"><ele>234.0</ele><time>2026-04-11T10:22:56.393Z</time></trkpt><trkpt lat="45.6676346" lon="9.3878715"><ele>234.0</ele><time>2026-04-11T10:22:57.362Z</time></trkpt><trkpt lat="45.6677573" lon="9.3879561"><ele>234.0</ele><time>2026-04-11T10:22:58.398Z</time></trkpt><trkpt lat="45.6678726" lon="9.3880426"><ele>234.0</ele><time>2026-04-11T10:22:59.39Z</time></trkpt><trkpt lat="45.6679894" lon="9.3881238"><ele>234.5</ele><time>2026-04-11T10:23:00.392Z</time></trkpt><trkpt lat="45.6680985" lon="9.3882121"><ele>235.0</ele><time>2026-04-11T10:23:01.371Z</time></trkpt><trkpt lat="45.6682104" lon="9.388293"><ele>235.5</ele><time>2026-04-11T10:23:02.363Z</time></trkpt><trkpt lat="45.6683199" lon="9.3883735"><ele>236.0</ele><time>2026-04-11T10:23:03.391Z</time></trkpt><trkpt lat="45.6684249" lon="9.38845"><ele>236.0</ele><time>2026-04-11T10:23:04.392Z</time></trkpt><trkpt lat="45.66853" lon="9.3885318"><ele>236.0</ele><time>2026-04-11T10:23:05.391Z</time></trkpt><trkpt lat="45.66864" lon="9.3886163"><ele>236.0</ele><time>2026-04-11T10:23:06.391Z</time></trkpt><trkpt lat="45.6687507" lon="9.3887051"><ele>236.0</ele><time>2026-04-11T10:23:07.365Z</time></trkpt><trkpt lat="45.6688693" lon="9.3888002"><ele>236.5</ele><time>2026-04-11T10:23:08.395Z</time></trkpt><trkpt lat="45.6689833" lon="9.3888922"><ele>237.0</ele><time>2026-04-11T10:23:09.392Z</time></trkpt><trkpt lat="45.6690924" lon="9.3889798"><ele>237.5</ele><time>2026-04-11T10:23:10.394Z</time></trkpt><trkpt lat="45.6691875" lon="9.3890565"><ele>238.0</ele><time>2026-04-11T10:23:11.396Z</time></trkpt><trkpt lat="45.6692682" lon="9.3891131"><ele>238.0</ele><time>2026-04-11T10:23:12.392Z</time></trkpt><trkpt lat="45.6693318" lon="9.3891602"><ele>238.0</ele><time>2026-04-11T10:23:13.392Z</time></trkpt><trkpt lat="45.6694301" lon="9.3892293"><ele>238.0</ele><time>2026-04-11T10:23:15.366Z</time></trkpt><trkpt lat="45.6695097" lon="9.3892849"><ele>238.0</ele><time>2026-04-11T10:23:17.376Z</time></trkpt><trkpt lat="45.6696021" lon="9.3893425"><ele>238.0</ele><time>2026-04-11T10:23:19.368Z</time></trkpt><trkpt lat="45.6696873" lon="9.3894012"><ele>238.16666666666666</ele><time>2026-04-11T10:23:21.383Z</time></trkpt><trkpt lat="45.6697628" lon="9.3894525"><ele>238.33333333333331</ele><time>2026-04-11T10:23:24.393Z</time></trkpt><trkpt lat="45.6698276" lon="9.3895057"><ele>238.5</ele><time>2026-04-11T10:23:28.392Z</time></trkpt><trkpt lat="45.6698997" lon="9.3895914"><ele>238.66666666666669</ele><time>2026-04-11T10:23:32.393Z</time></trkpt><trkpt lat="45.66996" lon="9.389637"><ele>238.83333333333334</ele><time>2026-04-11T10:23:33.368Z</time></trkpt><trkpt lat="45.6700249" lon="9.389689"><ele>239.0</ele><time>2026-04-11T10:23:34.391Z</time></trkpt><trkpt lat="45.6701045" lon="9.3897339"><ele>239.16666666666669</ele><time>2026-04-11T10:23:35.391Z</time></trkpt><trkpt lat="45.6701711" lon="9.3897892"><ele>239.33333333333334</ele><time>2026-04-11T10:23:36.39Z</time></trkpt><trkpt lat="45.6702561" lon="9.3898447"><ele>239.5</ele><time>2026-04-11T10:23:37.395Z</time></trkpt><trkpt lat="45.6703275" lon="9.3898883"><ele>239.66666666666669</ele><time>2026-04-11T10:23:38.394Z</time></trkpt><trkpt lat="45.6703983" lon="9.3899389"><ele>239.83333333333334</ele><time>2026-04-11T10:23:39.4Z</time></trkpt><trkpt lat="45.6705057" lon="9.3900096"><ele>240.0</ele><time>2026-04-11T10:23:41.39Z</time></trkpt><trkpt lat="45.6706059" lon="9.3900775"><ele>240.0</ele><time>2026-04-11T10:23:43.398Z</time></trkpt><trkpt lat="45.6707082" lon="9.3901368"><ele>240.0</ele><time>2026-04-11T10:23:45.411Z</time></trkpt><trkpt lat="45.6707838" lon="9.3901772"><ele>240.0</ele><time>2026-04-11T10:23:47.391Z</time></trkpt><trkpt lat="45.6708474" lon="9.3902058"><ele>240.0</ele><time>2026-04-11T10:23:49.391Z</time></trkpt><trkpt lat="45.6709382" lon="9.3902526"><ele>240.0</ele><time>2026-04-11T10:23:52.371Z</time></trkpt><trkpt lat="45.6710295" lon="9.3903058"><ele>240.0</ele><time>2026-04-11T10:23:54.409Z</time></trkpt><trkpt lat="45.6711476" lon="9.3903942"><ele>240.0</ele><time>2026-04-11T10:23:56.396Z</time></trkpt><trkpt lat="45.6712199" lon="9.3904573"><ele>240.0</ele><time>2026-04-11T10:23:57.398Z</time></trkpt><trkpt lat="45.6712995" lon="9.3905317"><ele>240.0</ele><time>2026-04-11T10:23:58.388Z</time></trkpt><trkpt lat="45.6713687" lon="9.390595"><ele>240.0</ele><time>2026-04-11T10:23:59.409Z</time></trkpt><trkpt lat="45.6714361" lon="9.3906502"><ele>240.16666666666666</ele><time>2026-04-11T10:24:00.396Z</time></trkpt><trkpt lat="45.671504" lon="9.3907127"><ele>240.33333333333331</ele><time>2026-04-11T10:24:01.396Z</time></trkpt><trkpt lat="45.6715643" lon="9.3907835"><ele>240.5</ele><time>2026-04-11T10:24:02.392Z</time></trkpt><trkpt lat="45.6716241" lon="9.3908494"><ele>240.66666666666666</ele><time>2026-04-11T10:24:03.392Z</time></trkpt><trkpt lat="45.6716818" lon="9.390915"><ele>240.83333333333331</ele><time>2026-04-11T10:24:04.393Z</time></trkpt><trkpt lat="45.671743" lon="9.3909821"><ele>241.0</ele><time>2026-04-11T10:24:05.365Z</time></trkpt><trkpt lat="45.6718136" lon="9.3910659"><ele>241.0</ele><time>2026-04-11T10:24:06.395Z</time></trkpt><trkpt lat="45.6718933" lon="9.3911566"><ele>241.00000000000003</ele><time>2026-04-11T10:24:07.368Z</time></trkpt><trkpt lat="45.671971" lon="9.391244"><ele>241.00000000000003</ele><time>2026-04-11T10:24:08.392Z</time></trkpt><trkpt lat="45.6720551" lon="9.3913356"><ele>241.0</ele><time>2026-04-11T10:24:09.394Z</time></trkpt><trkpt lat="45.6721348" lon="9.3914336"><ele>241.0</ele><time>2026-04-11T10:24:10.402Z</time></trkpt><trkpt lat="45.6722129" lon="9.3915321"><ele>241.0</ele><time>2026-04-11T10:24:11.395Z</time></trkpt><trkpt lat="45.6722882" lon="9.3916279"><ele>241.00000000000003</ele><time>2026-04-11T10:24:12.372Z</time></trkpt><trkpt lat="45.6723611" lon="9.391719"><ele>241.00000000000003</ele><time>2026-04-11T10:24:13.395Z</time></trkpt><trkpt lat="45.6724313" lon="9.3918043"><ele>241.0</ele><time>2026-04-11T10:24:14.39Z</time></trkpt><trkpt lat="45.6725" lon="9.3918783"><ele>241.0</ele><time>2026-04-11T10:24:15.368Z</time></trkpt><trkpt lat="45.6725638" lon="9.3919544"><ele>241.0</ele><time>2026-04-11T10:24:16.396Z</time></trkpt><trkpt lat="45.6726362" lon="9.3920396"><ele>241.00000000000003</ele><time>2026-04-11T10:24:17.394Z</time></trkpt><trkpt lat="45.6727144" lon="9.3921363"><ele>241.00000000000003</ele><time>2026-04-11T10:24:18.394Z</time></trkpt><trkpt lat="45.6727833" lon="9.3922211"><ele>241.0</ele><time>2026-04-11T10:24:19.395Z</time></trkpt><trkpt lat="45.6728495" lon="9.392299"><ele>241.0</ele><time>2026-04-11T10:24:20.389Z</time></trkpt><trkpt lat="45.6729066" lon="9.3923802"><ele>241.49999999999997</ele><time>2026-04-11T10:24:21.395Z</time></trkpt><trkpt lat="45.6729685" lon="9.3924644"><ele>242.0</ele><time>2026-04-11T10:24:22.391Z</time></trkpt><trkpt lat="45.673029" lon="9.392546"><ele>242.5</ele><time>2026-04-11T10:24:23.396Z</time></trkpt><trkpt lat="45.6730798" lon="9.3926198"><ele>243.0</ele><time>2026-04-11T10:24:24.4Z</time></trkpt><trkpt lat="45.6731533" lon="9.3927304"><ele>243.49999999999997</ele><time>2026-04-11T10:24:26.37Z</time></trkpt><trkpt lat="45.6732044" lon="9.3928097"><ele>244.0</ele><time>2026-04-11T10:24:28.395Z</time></trkpt><trkpt lat="45.6732714" lon="9.3929048"><ele>244.2</ele><time>2026-04-11T10:24:30.409Z</time></trkpt><trkpt lat="45.6733523" lon="9.3930189"><ele>244.39999999999998</ele><time>2026-04-11T10:24:32.373Z</time></trkpt><trkpt lat="45.6733995" lon="9.3930866"><ele>244.6</ele><time>2026-04-11T10:24:33.398Z</time></trkpt><trkpt lat="45.67348" lon="9.3932179"><ele>244.8</ele><time>2026-04-11T10:24:35.389Z</time></trkpt><trkpt lat="45.6735605" lon="9.3933392"><ele>245.0</ele><time>2026-04-11T10:24:37.393Z</time></trkpt><trkpt lat="45.6736155" lon="9.3934181"><ele>245.00000000000003</ele><time>2026-04-11T10:24:38.397Z</time></trkpt><trkpt lat="45.673669" lon="9.3935037"><ele>245.0</ele><time>2026-04-11T10:24:39.395Z</time></trkpt><trkpt lat="45.6737228" lon="9.3935873"><ele>245.0</ele><time>2026-04-11T10:24:40.398Z</time></trkpt><trkpt lat="45.6737713" lon="9.3936612"><ele>245.0</ele><time>2026-04-11T10:24:41.396Z</time></trkpt><trkpt lat="45.6738508" lon="9.3937786"><ele>245.00000000000003</ele><time>2026-04-11T10:24:43.392Z</time></trkpt><trkpt lat="45.6739245" lon="9.3938836"><ele>245.0</ele><time>2026-04-11T10:24:45.367Z</time></trkpt><trkpt lat="45.6739718" lon="9.3939488"><ele>245.0</ele><time>2026-04-11T10:24:46.397Z</time></trkpt><trkpt lat="45.6740256" lon="9.3940214"><ele>245.0</ele><time>2026-04-11T10:24:47.397Z</time></trkpt><trkpt lat="45.6740755" lon="9.3940889"><ele>245.0</ele><time>2026-04-11T10:24:48.395Z</time></trkpt><trkpt lat="45.6741246" lon="9.3941475"><ele>245.0</ele><time>2026-04-11T10:24:49.37Z</time></trkpt><trkpt lat="45.6741775" lon="9.3942103"><ele>245.0</ele><time>2026-04-11T10:24:50.397Z</time></trkpt><trkpt lat="45.6742337" lon="9.3942763"><ele>245.0</ele><time>2026-04-11T10:24:51.396Z</time></trkpt><trkpt lat="45.6742928" lon="9.3943417"><ele>245.0</ele><time>2026-04-11T10:24:52.373Z</time></trkpt><trkpt lat="45.6743465" lon="9.3944003"><ele>244.8</ele><time>2026-04-11T10:24:53.366Z</time></trkpt><trkpt lat="45.6744441" lon="9.3945081"><ele>244.6</ele><time>2026-04-11T10:24:55.37Z</time></trkpt><trkpt lat="45.674498" lon="9.3945683"><ele>244.39999999999998</ele><time>2026-04-11T10:24:56.396Z</time></trkpt><trkpt lat="45.6745959" lon="9.3946617"><ele>244.2</ele><time>2026-04-11T10:24:58.393Z</time></trkpt><trkpt lat="45.6746927" lon="9.3947529"><ele>244.0</ele><time>2026-04-11T10:25:00.375Z</time></trkpt><trkpt lat="45.674801" lon="9.3948472"><ele>244.0</ele><time>2026-04-11T10:25:02.396Z</time></trkpt><trkpt lat="45.6748593" lon="9.3948966"><ele>243.99999999999997</ele><time>2026-04-11T10:25:03.369Z</time></trkpt><trkpt lat="45.6749683" lon="9.3949902"><ele>243.99999999999997</ele><time>2026-04-11T10:25:05.392Z</time></trkpt><trkpt lat="45.6750273" lon="9.3950377"><ele>244.0</ele><time>2026-04-11T10:25:06.394Z</time></trkpt><trkpt lat="45.6751232" lon="9.3951109"><ele>244.0</ele><time>2026-04-11T10:25:08.394Z</time></trkpt><trkpt lat="45.6752255" lon="9.3951922"><ele>244.4285714285714</ele><time>2026-04-11T10:25:10.395Z</time></trkpt><trkpt lat="45.6752839" lon="9.3952351"><ele>244.85714285714283</ele><time>2026-04-11T10:25:11.395Z</time></trkpt><trkpt lat="45.6753436" lon="9.3952754"><ele>245.28571428571428</ele><time>2026-04-11T10:25:12.369Z</time></trkpt><trkpt lat="45.6754059" lon="9.39532"><ele>245.7142857142857</ele><time>2026-04-11T10:25:13.394Z</time></trkpt><trkpt lat="45.6754715" lon="9.39536"><ele>246.1428571428571</ele><time>2026-04-11T10:25:14.392Z</time></trkpt><trkpt lat="45.6755327" lon="9.3953981"><ele>246.57142857142858</ele><time>2026-04-11T10:25:15.394Z</time></trkpt><trkpt lat="45.6755971" lon="9.3954344"><ele>247.0</ele><time>2026-04-11T10:25:16.395Z</time></trkpt><trkpt lat="45.6756556" lon="9.3954704"><ele>246.99999999999997</ele><time>2026-04-11T10:25:17.39Z</time></trkpt><trkpt lat="45.6757182" lon="9.3955063"><ele>247.0</ele><time>2026-04-11T10:25:18.391Z</time></trkpt><trkpt lat="45.6757794" lon="9.3955382"><ele>247.0</ele><time>2026-04-11T10:25:19.394Z</time></trkpt><trkpt lat="45.6758385" lon="9.3955698"><ele>247.0</ele><time>2026-04-11T10:25:20.397Z</time></trkpt><trkpt lat="45.6759474" lon="9.3956239"><ele>246.99999999999997</ele><time>2026-04-11T10:25:22.394Z</time></trkpt><trkpt lat="45.6760419" lon="9.3956619"><ele>247.0</ele><time>2026-04-11T10:25:24.374Z</time></trkpt><trkpt lat="45.676137" lon="9.3957033"><ele>247.39999999999998</ele><time>2026-04-11T10:25:26.394Z</time></trkpt><trkpt lat="45.6762281" lon="9.3957445"><ele>247.79999999999998</ele><time>2026-04-11T10:25:28.373Z</time></trkpt><trkpt lat="45.6763071" lon="9.3957781"><ele>248.2</ele><time>2026-04-11T10:25:30.391Z</time></trkpt><trkpt lat="45.676409" lon="9.3958118"><ele>248.6</ele><time>2026-04-11T10:25:32.394Z</time></trkpt><trkpt lat="45.6765028" lon="9.3958509"><ele>249.0</ele><time>2026-04-11T10:25:34.396Z</time></trkpt><trkpt lat="45.6766055" lon="9.3958917"><ele>249.0</ele><time>2026-04-11T10:25:36.397Z</time></trkpt><trkpt lat="45.6767051" lon="9.3959236"><ele>249.0</ele><time>2026-04-11T10:25:38.394Z</time></trkpt><trkpt lat="45.6768394" lon="9.3959651"><ele>249.0</ele><time>2026-04-11T10:25:40.393Z</time></trkpt><trkpt lat="45.6769337" lon="9.3959925"><ele>249.0</ele><time>2026-04-11T10:25:41.398Z</time></trkpt><trkpt lat="45.6770468" lon="9.3960384"><ele>249.0</ele><time>2026-04-11T10:25:42.372Z</time></trkpt><trkpt lat="45.6771553" lon="9.3960898"><ele>248.99999999999997</ele><time>2026-04-11T10:25:43.396Z</time></trkpt><trkpt lat="45.6772538" lon="9.3961291"><ele>248.99999999999997</ele><time>2026-04-11T10:25:44.372Z</time></trkpt><trkpt lat="45.6773508" lon="9.3961626"><ele>249.0</ele><time>2026-04-11T10:25:45.395Z</time></trkpt><trkpt lat="45.6774516" lon="9.3961961"><ele>249.0</ele><time>2026-04-11T10:25:46.367Z</time></trkpt><trkpt lat="45.6775477" lon="9.3962324"><ele>249.0</ele><time>2026-04-11T10:25:47.37Z</time></trkpt><trkpt lat="45.6776488" lon="9.3962722"><ele>248.99999999999997</ele><time>2026-04-11T10:25:48.388Z</time></trkpt><trkpt lat="45.6777498" lon="9.3963098"><ele>248.99999999999997</ele><time>2026-04-11T10:25:49.366Z</time></trkpt><trkpt lat="45.6778525" lon="9.396345"><ele>249.0</ele><time>2026-04-11T10:25:50.39Z</time></trkpt><trkpt lat="45.6779618" lon="9.3963827"><ele>249.0</ele><time>2026-04-11T10:25:51.369Z</time></trkpt><trkpt lat="45.6780754" lon="9.3964205"><ele>249.0</ele><time>2026-04-11T10:25:52.37Z</time></trkpt><trkpt lat="45.6781832" lon="9.396458"><ele>248.99999999999997</ele><time>2026-04-11T10:25:53.391Z</time></trkpt><trkpt lat="45.6782838" lon="9.3964957"><ele>248.99999999999997</ele><time>2026-04-11T10:25:54.372Z</time></trkpt><trkpt lat="45.6783894" lon="9.396532"><ele>249.0</ele><time>2026-04-11T10:25:55.394Z</time></trkpt><trkpt lat="45.6784981" lon="9.3965721"><ele>249.0</ele><time>2026-04-11T10:25:56.393Z</time></trkpt><trkpt lat="45.6786061" lon="9.3966106"><ele>249.2</ele><time>2026-04-11T10:25:57.368Z</time></trkpt><trkpt lat="45.6787082" lon="9.3966504"><ele>249.39999999999998</ele><time>2026-04-11T10:25:58.392Z</time></trkpt><trkpt lat="45.6788087" lon="9.396689"><ele>249.6</ele><time>2026-04-11T10:25:59.394Z</time></trkpt><trkpt lat="45.6788996" lon="9.3967209"><ele>249.8</ele><time>2026-04-11T10:26:00.373Z</time></trkpt><trkpt lat="45.6789845" lon="9.3967517"><ele>250.0</ele><time>2026-04-11T10:26:01.39Z</time></trkpt><trkpt lat="45.6790637" lon="9.396782"><ele>250.0</ele><time>2026-04-11T10:26:02.39Z</time></trkpt><trkpt lat="45.6791368" lon="9.3968197"><ele>250.0</ele><time>2026-04-11T10:26:03.392Z</time></trkpt><trkpt lat="45.6791974" lon="9.3968526"><ele>250.0</ele><time>2026-04-11T10:26:04.392Z</time></trkpt><trkpt lat="45.6792957" lon="9.396928"><ele>250.0</ele><time>2026-04-11T10:26:06.365Z</time></trkpt><trkpt lat="45.6793857" lon="9.3970306"><ele>250.0</ele><time>2026-04-11T10:26:08.396Z</time></trkpt><trkpt lat="45.6795004" lon="9.3971132"><ele>250.33333333333331</ele><time>2026-04-11T10:26:10.393Z</time></trkpt><trkpt lat="45.6795728" lon="9.3971171"><ele>250.66666666666666</ele><time>2026-04-11T10:26:11.395Z</time></trkpt><trkpt lat="45.6796606" lon="9.3970896"><ele>251.0</ele><time>2026-04-11T10:26:12.368Z</time></trkpt><trkpt lat="45.6797447" lon="9.3970641"><ele>251.33333333333331</ele><time>2026-04-11T10:26:13.394Z</time></trkpt><trkpt lat="45.6798284" lon="9.3970561"><ele>251.66666666666666</ele><time>2026-04-11T10:26:14.392Z</time></trkpt><trkpt lat="45.679909" lon="9.3970629"><ele>252.0</ele><time>2026-04-11T10:26:15.369Z</time></trkpt><trkpt lat="45.679986" lon="9.3970879"><ele>252.0</ele><time>2026-04-11T10:26:16.4Z</time></trkpt><trkpt lat="45.6800652" lon="9.3971204"><ele>252.0</ele><time>2026-04-11T10:26:17.392Z</time></trkpt><trkpt lat="45.6801549" lon="9.3971618"><ele>252.0</ele><time>2026-04-11T10:26:18.361Z</time></trkpt><trkpt lat="45.6802489" lon="9.3972035"><ele>252.0</ele><time>2026-04-11T10:26:19.366Z</time></trkpt><trkpt lat="45.6803422" lon="9.397242"><ele>252.0</ele><time>2026-04-11T10:26:20.39Z</time></trkpt><trkpt lat="45.6804385" lon="9.3972799"><ele>252.39999999999998</ele><time>2026-04-11T10:26:21.394Z</time></trkpt><trkpt lat="45.6805361" lon="9.3973136"><ele>252.79999999999998</ele><time>2026-04-11T10:26:22.394Z</time></trkpt><trkpt lat="45.6806335" lon="9.3973464"><ele>253.2</ele><time>2026-04-11T10:26:23.391Z</time></trkpt><trkpt lat="45.680731" lon="9.3973809"><ele>253.6</ele><time>2026-04-11T10:26:24.366Z</time></trkpt><trkpt lat="45.6808258" lon="9.3974165"><ele>254.0</ele><time>2026-04-11T10:26:25.396Z</time></trkpt><trkpt lat="45.680917" lon="9.3974524"><ele>254.0</ele><time>2026-04-11T10:26:26.391Z</time></trkpt><trkpt lat="45.6810095" lon="9.3974801"><ele>253.99999999999997</ele><time>2026-04-11T10:26:27.372Z</time></trkpt><trkpt lat="45.6810942" lon="9.397512"><ele>253.99999999999997</ele><time>2026-04-11T10:26:28.395Z</time></trkpt><trkpt lat="45.6811862" lon="9.3975482"><ele>254.0</ele><time>2026-04-11T10:26:29.394Z</time></trkpt><trkpt lat="45.6812799" lon="9.3975829"><ele>254.0</ele><time>2026-04-11T10:26:30.366Z</time></trkpt><trkpt lat="45.6813759" lon="9.3976205"><ele>254.2</ele><time>2026-04-11T10:26:31.364Z</time></trkpt><trkpt lat="45.6814735" lon="9.3976582"><ele>254.39999999999998</ele><time>2026-04-11T10:26:32.394Z</time></trkpt><trkpt lat="45.6815663" lon="9.3976901"><ele>254.6</ele><time>2026-04-11T10:26:33.359Z</time></trkpt><trkpt lat="45.6816535" lon="9.3977223"><ele>254.8</ele><time>2026-04-11T10:26:34.363Z</time></trkpt><trkpt lat="45.6817378" lon="9.3977537"><ele>255.0</ele><time>2026-04-11T10:26:35.394Z</time></trkpt><trkpt lat="45.6818245" lon="9.3977857"><ele>255.0</ele><time>2026-04-11T10:26:36.365Z</time></trkpt><trkpt lat="45.6819128" lon="9.3978171"><ele>255.0</ele><time>2026-04-11T10:26:37.363Z</time></trkpt><trkpt lat="45.682006" lon="9.3978539"><ele>255.0</ele><time>2026-04-11T10:26:38.391Z</time></trkpt><trkpt lat="45.6821054" lon="9.397893"><ele>255.0</ele><time>2026-04-11T10:26:39.368Z</time></trkpt><trkpt lat="45.6822099" lon="9.3979316"><ele>255.0</ele><time>2026-04-11T10:26:40.397Z</time></trkpt><trkpt lat="45.682319" lon="9.3979739"><ele>255.2</ele><time>2026-04-11T10:26:41.364Z</time></trkpt><trkpt lat="45.6824219" lon="9.3980233"><ele>255.4</ele><time>2026-04-11T10:26:42.371Z</time></trkpt><trkpt lat="45.6825145" lon="9.3980733"><ele>255.60000000000002</ele><time>2026-04-11T10:26:43.394Z</time></trkpt><trkpt lat="45.6825982" lon="9.3981226"><ele>255.8</ele><time>2026-04-11T10:26:44.408Z</time></trkpt><trkpt lat="45.6826504" lon="9.3982087"><ele>256.0</ele><time>2026-04-11T10:26:45.366Z</time></trkpt><trkpt lat="45.6827138" lon="9.3982733"><ele>255.4</ele><time>2026-04-11T10:26:46.392Z</time></trkpt><trkpt lat="45.6827883" lon="9.3983065"><ele>254.8</ele><time>2026-04-11T10:26:47.393Z</time></trkpt><trkpt lat="45.6828732" lon="9.398323"><ele>254.20000000000002</ele><time>2026-04-11T10:26:48.362Z</time></trkpt><trkpt lat="45.6829693" lon="9.3983185"><ele>253.60000000000002</ele><time>2026-04-11T10:26:49.385Z</time></trkpt><trkpt lat="45.6830659" lon="9.3983084"><ele>253.0</ele><time>2026-04-11T10:26:50.365Z</time></trkpt><trkpt lat="45.6831718" lon="9.3983084"><ele>253.0</ele><time>2026-04-11T10:26:51.374Z</time></trkpt><trkpt lat="45.6832946" lon="9.3983293"><ele>253.0</ele><time>2026-04-11T10:26:52.394Z</time></trkpt><trkpt lat="45.6834283" lon="9.3983659"><ele>253.0</ele><time>2026-04-11T10:26:53.394Z</time></trkpt><trkpt lat="45.6835627" lon="9.3984064"><ele>253.0</ele><time>2026-04-11T10:26:54.367Z</time></trkpt><trkpt lat="45.6836895" lon="9.3984517"><ele>253.0</ele><time>2026-04-11T10:26:55.391Z</time></trkpt><trkpt lat="45.6838028" lon="9.398495"><ele>253.0</ele><time>2026-04-11T10:26:56.397Z</time></trkpt><trkpt lat="45.6839125" lon="9.3985349"><ele>253.0</ele><time>2026-04-11T10:26:57.394Z</time></trkpt><trkpt lat="45.6840171" lon="9.3985717"><ele>253.0</ele><time>2026-04-11T10:26:58.394Z</time></trkpt><trkpt lat="45.6841187" lon="9.3986052"><ele>253.0</ele><time>2026-04-11T10:26:59.393Z</time></trkpt><trkpt lat="45.6842169" lon="9.3986413"><ele>253.0</ele><time>2026-04-11T10:27:00.396Z</time></trkpt><trkpt lat="45.6843165" lon="9.3986751"><ele>253.0</ele><time>2026-04-11T10:27:01.396Z</time></trkpt><trkpt lat="45.6844176" lon="9.39871"><ele>253.0</ele><time>2026-04-11T10:27:02.386Z</time></trkpt><trkpt lat="45.6845174" lon="9.3987474"><ele>253.0</ele><time>2026-04-11T10:27:03.395Z</time></trkpt><trkpt lat="45.6846193" lon="9.3987898"><ele>253.0</ele><time>2026-04-11T10:27:04.407Z</time></trkpt><trkpt lat="45.684721" lon="9.3988284"><ele>253.75</ele><time>2026-04-11T10:27:05.395Z</time></trkpt><trkpt lat="45.6848237" lon="9.398866"><ele>254.5</ele><time>2026-04-11T10:27:06.395Z</time></trkpt><trkpt lat="45.6849256" lon="9.3989021"><ele>255.25</ele><time>2026-04-11T10:27:07.396Z</time></trkpt><trkpt lat="45.6850359" lon="9.3989383"><ele>256.0</ele><time>2026-04-11T10:27:08.409Z</time></trkpt><trkpt lat="45.6851683" lon="9.3989797"><ele>255.25</ele><time>2026-04-11T10:27:09.368Z</time></trkpt><trkpt lat="45.6853029" lon="9.3990244"><ele>254.5</ele><time>2026-04-11T10:27:10.365Z</time></trkpt><trkpt lat="45.6854344" lon="9.3990738"><ele>253.75</ele><time>2026-04-11T10:27:11.366Z</time></trkpt><trkpt lat="45.6855535" lon="9.3991215"><ele>253.0</ele><time>2026-04-11T10:27:12.408Z</time></trkpt><trkpt lat="45.6856846" lon="9.3991687"><ele>253.0</ele><time>2026-04-11T10:27:13.365Z</time></trkpt><trkpt lat="45.6858151" lon="9.3992162"><ele>253.0</ele><time>2026-04-11T10:27:14.397Z</time></trkpt><trkpt lat="45.6859293" lon="9.3992613"><ele>253.0</ele><time>2026-04-11T10:27:15.372Z</time></trkpt><trkpt lat="45.6860361" lon="9.3993014"><ele>253.0</ele><time>2026-04-11T10:27:16.398Z</time></trkpt><trkpt lat="45.6861347" lon="9.3993379"><ele>253.8</ele><time>2026-04-11T10:27:17.408Z</time></trkpt><trkpt lat="45.6862188" lon="9.39937"><ele>254.60000000000002</ele><time>2026-04-11T10:27:18.41Z</time></trkpt><trkpt lat="45.6863029" lon="9.3993992"><ele>255.39999999999998</ele><time>2026-04-11T10:27:19.394Z</time></trkpt><trkpt lat="45.6863957" lon="9.3994356"><ele>256.2</ele><time>2026-04-11T10:27:20.409Z</time></trkpt><trkpt lat="45.6864945" lon="9.3994689"><ele>257.0</ele><time>2026-04-11T10:27:21.396Z</time></trkpt><trkpt lat="45.6865884" lon="9.3995024"><ele>257.0</ele><time>2026-04-11T10:27:22.398Z</time></trkpt><trkpt lat="45.6866867" lon="9.3995362"><ele>257.0</ele><time>2026-04-11T10:27:23.396Z</time></trkpt><trkpt lat="45.6867772" lon="9.3995689"><ele>257.0</ele><time>2026-04-11T10:27:24.398Z</time></trkpt><trkpt lat="45.6868628" lon="9.3996033"><ele>257.0</ele><time>2026-04-11T10:27:25.393Z</time></trkpt><trkpt lat="45.6869451" lon="9.3996345"><ele>257.0</ele><time>2026-04-11T10:27:26.366Z</time></trkpt><trkpt lat="45.6870209" lon="9.3996605"><ele>257.0</ele><time>2026-04-11T10:27:27.37Z</time></trkpt><trkpt lat="45.6870982" lon="9.3996854"><ele>257.2</ele><time>2026-04-11T10:27:28.406Z</time></trkpt><trkpt lat="45.6871784" lon="9.3997151"><ele>257.4</ele><time>2026-04-11T10:27:29.389Z</time></trkpt><trkpt lat="45.6872657" lon="9.3997471"><ele>257.6</ele><time>2026-04-11T10:27:30.4Z</time></trkpt><trkpt lat="45.6873528" lon="9.3997774"><ele>257.8</ele><time>2026-04-11T10:27:31.394Z</time></trkpt><trkpt lat="45.6874484" lon="9.3998111"><ele>258.0</ele><time>2026-04-11T10:27:32.402Z</time></trkpt><trkpt lat="45.6875618" lon="9.3998499"><ele>258.0</ele><time>2026-04-11T10:27:33.405Z</time></trkpt><trkpt lat="45.6876942" lon="9.399899"><ele>258.0</ele><time>2026-04-11T10:27:34.391Z</time></trkpt><trkpt lat="45.6878224" lon="9.399952"><ele>258.0</ele><time>2026-04-11T10:27:35.395Z</time></trkpt><trkpt lat="45.6879381" lon="9.400005"><ele>258.0</ele><time>2026-04-11T10:27:36.397Z</time></trkpt><trkpt lat="45.6880387" lon="9.4000574"><ele>258.6666666666667</ele><time>2026-04-11T10:27:37.388Z</time></trkpt><trkpt lat="45.6881298" lon="9.4001025"><ele>259.3333333333333</ele><time>2026-04-11T10:27:38.394Z</time></trkpt><trkpt lat="45.688209" lon="9.4001424"><ele>260.0</ele><time>2026-04-11T10:27:39.368Z</time></trkpt><trkpt lat="45.6882757" lon="9.4001762"><ele>260.66666666666663</ele><time>2026-04-11T10:27:40.389Z</time></trkpt><trkpt lat="45.6883541" lon="9.4002177"><ele>261.3333333333333</ele><time>2026-04-11T10:27:42.37Z</time></trkpt><trkpt lat="45.6884108" lon="9.4002686"><ele>262.0</ele><time>2026-04-11T10:27:45.369Z</time></trkpt><trkpt lat="45.6884849" lon="9.400416"><ele>262.0</ele><time>2026-04-11T10:27:47.366Z</time></trkpt><trkpt lat="45.6885373" lon="9.4004824"><ele>262.0</ele><time>2026-04-11T10:27:48.397Z</time></trkpt><trkpt lat="45.6886118" lon="9.4005201"><ele>262.0</ele><time>2026-04-11T10:27:49.367Z</time></trkpt><trkpt lat="45.6887003" lon="9.4005178"><ele>262.0</ele><time>2026-04-11T10:27:50.393Z</time></trkpt><trkpt lat="45.6888005" lon="9.4004858"><ele>262.0</ele><time>2026-04-11T10:27:51.393Z</time></trkpt><trkpt lat="45.6889123" lon="9.4004653"><ele>262.0</ele><time>2026-04-11T10:27:52.365Z</time></trkpt><trkpt lat="45.6890433" lon="9.4004774"><ele>262.0</ele><time>2026-04-11T10:27:53.394Z</time></trkpt><trkpt lat="45.6891834" lon="9.4005062"><ele>262.0</ele><time>2026-04-11T10:27:54.397Z</time></trkpt><trkpt lat="45.689332" lon="9.4005488"><ele>262.0</ele><time>2026-04-11T10:27:55.39Z</time></trkpt><trkpt lat="45.6894655" lon="9.400589"><ele>262.0</ele><time>2026-04-11T10:27:56.396Z</time></trkpt><trkpt lat="45.6895908" lon="9.4006269"><ele>262.0</ele><time>2026-04-11T10:27:57.391Z</time></trkpt><trkpt lat="45.6897022" lon="9.400664"><ele>262.0</ele><time>2026-04-11T10:27:58.394Z</time></trkpt><trkpt lat="45.6898067" lon="9.4007013"><ele>262.0</ele><time>2026-04-11T10:27:59.393Z</time></trkpt><trkpt lat="45.6899045" lon="9.4007415"><ele>262.0</ele><time>2026-04-11T10:28:00.393Z</time></trkpt><trkpt lat="45.6900043" lon="9.4007866"><ele>262.0</ele><time>2026-04-11T10:28:01.395Z</time></trkpt><trkpt lat="45.6901078" lon="9.4008348"><ele>262.0</ele><time>2026-04-11T10:28:02.392Z</time></trkpt><trkpt lat="45.6902133" lon="9.4008891"><ele>262.0</ele><time>2026-04-11T10:28:03.405Z</time></trkpt><trkpt lat="45.690311" lon="9.4009426"><ele>262.0</ele><time>2026-04-11T10:28:04.365Z</time></trkpt><trkpt lat="45.6904042" lon="9.400994"><ele>262.6</ele><time>2026-04-11T10:28:05.392Z</time></trkpt><trkpt lat="45.6904923" lon="9.4010351"><ele>263.2</ele><time>2026-04-11T10:28:06.372Z</time></trkpt><trkpt lat="45.6905798" lon="9.401083"><ele>263.8</ele><time>2026-04-11T10:28:07.365Z</time></trkpt><trkpt lat="45.6906727" lon="9.4011275"><ele>264.4</ele><time>2026-04-11T10:28:08.364Z</time></trkpt><trkpt lat="45.6907635" lon="9.4011734"><ele>265.0</ele><time>2026-04-11T10:28:09.393Z</time></trkpt><trkpt lat="45.6908455" lon="9.401213"><ele>265.0</ele><time>2026-04-11T10:28:10.398Z</time></trkpt><trkpt lat="45.6909223" lon="9.401248"><ele>265.0</ele><time>2026-04-11T10:28:11.392Z</time></trkpt><trkpt lat="45.6909905" lon="9.4012827"><ele>265.0</ele><time>2026-04-11T10:28:12.393Z</time></trkpt><trkpt lat="45.6910527" lon="9.401312"><ele>265.0</ele><time>2026-04-11T10:28:13.398Z</time></trkpt><trkpt lat="45.6911616" lon="9.4013662"><ele>265.0</ele><time>2026-04-11T10:28:15.399Z</time></trkpt><trkpt lat="45.6912482" lon="9.4014124"><ele>265.0</ele><time>2026-04-11T10:28:17.369Z</time></trkpt><trkpt lat="45.6913194" lon="9.4014435"><ele>265.5</ele><time>2026-04-11T10:28:19.397Z</time></trkpt><trkpt lat="45.6913897" lon="9.4014755"><ele>266.0</ele><time>2026-04-11T10:28:21.396Z</time></trkpt><trkpt lat="45.6914544" lon="9.4015182"><ele>266.5</ele><time>2026-04-11T10:28:23.39Z</time></trkpt><trkpt lat="45.6915218" lon="9.4015553"><ele>267.0</ele><time>2026-04-11T10:28:25.408Z</time></trkpt><trkpt lat="45.6916033" lon="9.4015959"><ele>267.5</ele><time>2026-04-11T10:28:28.395Z</time></trkpt><trkpt lat="45.6916716" lon="9.4016351"><ele>268.0</ele><time>2026-04-11T10:28:31.389Z</time></trkpt><trkpt lat="45.6917429" lon="9.4016638"><ele>268.0</ele><time>2026-04-11T10:28:36.364Z</time></trkpt><trkpt lat="45.6918013" lon="9.4016992"><ele>268.0</ele><time>2026-04-11T10:28:40.368Z</time></trkpt><trkpt lat="45.6918816" lon="9.4017646"><ele>268.0</ele><time>2026-04-11T10:29:21.366Z</time></trkpt><trkpt lat="45.6919614" lon="9.4018044"><ele>268.0</ele><time>2026-04-11T10:29:23.405Z</time></trkpt><trkpt lat="45.6920464" lon="9.4018447"><ele>268.0</ele><time>2026-04-11T10:29:25.392Z</time></trkpt><trkpt lat="45.6921447" lon="9.4018872"><ele>268.0</ele><time>2026-04-11T10:29:27.404Z</time></trkpt><trkpt lat="45.6922639" lon="9.4019465"><ele>268.16666666666663</ele><time>2026-04-11T10:29:29.407Z</time></trkpt><trkpt lat="45.6923236" lon="9.4019773"><ele>268.3333333333333</ele><time>2026-04-11T10:29:30.398Z</time></trkpt><trkpt lat="45.6924409" lon="9.4020313"><ele>268.5</ele><time>2026-04-11T10:29:32.393Z</time></trkpt><trkpt lat="45.6925045" lon="9.4020622"><ele>268.6666666666667</ele><time>2026-04-11T10:29:33.4Z</time></trkpt><trkpt lat="45.6925667" lon="9.4020975"><ele>268.83333333333337</ele><time>2026-04-11T10:29:34.394Z</time></trkpt><trkpt lat="45.6926317" lon="9.4021389"><ele>269.0</ele><time>2026-04-11T10:29:35.387Z</time></trkpt><trkpt lat="45.6926997" lon="9.4021764"><ele>269.0</ele><time>2026-04-11T10:29:36.392Z</time></trkpt><trkpt lat="45.6927638" lon="9.4022055"><ele>269.0</ele><time>2026-04-11T10:29:37.41Z</time></trkpt><trkpt lat="45.6928733" lon="9.4022414"><ele>269.0</ele><time>2026-04-11T10:29:39.407Z</time></trkpt><trkpt lat="45.6929525" lon="9.4022576"><ele>269.0</ele><time>2026-04-11T10:29:41.365Z</time></trkpt><trkpt lat="45.6930395" lon="9.4022861"><ele>269.0</ele><time>2026-04-11T10:29:44.392Z</time></trkpt><trkpt lat="45.6931448" lon="9.4022907"><ele>269.0</ele><time>2026-04-11T10:29:47.4Z</time></trkpt><trkpt lat="45.6932628" lon="9.4022943"><ele>269.0</ele><time>2026-04-11T10:29:49.409Z</time></trkpt><trkpt lat="45.6933675" lon="9.4022938"><ele>269.0</ele><time>2026-04-11T10:29:51.404Z</time></trkpt><trkpt lat="45.6934777" lon="9.4023011"><ele>269.0</ele><time>2026-04-11T10:29:53.394Z</time></trkpt><trkpt lat="45.6935412" lon="9.4023025"><ele>269.0</ele><time>2026-04-11T10:29:54.412Z</time></trkpt><trkpt lat="45.6936042" lon="9.4023016"><ele>269.2</ele><time>2026-04-11T10:29:55.402Z</time></trkpt><trkpt lat="45.6936699" lon="9.4023028"><ele>269.4</ele><time>2026-04-11T10:29:56.399Z</time></trkpt><trkpt lat="45.6937337" lon="9.4023048"><ele>269.6</ele><time>2026-04-11T10:29:57.401Z</time></trkpt><trkpt lat="45.6938562" lon="9.4023112"><ele>269.8</ele><time>2026-04-11T10:29:59.394Z</time></trkpt><trkpt lat="45.6939732" lon="9.4023303"><ele>270.0</ele><time>2026-04-11T10:30:01.401Z</time></trkpt><trkpt lat="45.6940915" lon="9.4023656"><ele>270.0</ele><time>2026-04-11T10:30:03.407Z</time></trkpt><trkpt lat="45.6941824" lon="9.4024039"><ele>270.0</ele><time>2026-04-11T10:30:05.399Z</time></trkpt><trkpt lat="45.6942502" lon="9.4024429"><ele>270.0</ele><time>2026-04-11T10:30:07.371Z</time></trkpt><trkpt lat="45.6943153" lon="9.40248"><ele>270.0</ele><time>2026-04-11T10:30:09.373Z</time></trkpt><trkpt lat="45.6943779" lon="9.4025184"><ele>270.0</ele><time>2026-04-11T10:30:11.401Z</time></trkpt><trkpt lat="45.6944513" lon="9.4025636"><ele>270.0</ele><time>2026-04-11T10:30:13.41Z</time></trkpt><trkpt lat="45.6945249" lon="9.4026122"><ele>270.6666666666667</ele><time>2026-04-11T10:30:15.395Z</time></trkpt><trkpt lat="45.6945835" lon="9.402661"><ele>271.3333333333333</ele><time>2026-04-11T10:30:17.405Z</time></trkpt><trkpt lat="45.6946526" lon="9.402725"><ele>272.0</ele><time>2026-04-11T10:30:19.41Z</time></trkpt><trkpt lat="45.6947322" lon="9.4027995"><ele>272.66666666666663</ele><time>2026-04-11T10:30:21.368Z</time></trkpt><trkpt lat="45.6947868" lon="9.402853"><ele>273.3333333333333</ele><time>2026-04-11T10:30:22.394Z</time></trkpt><trkpt lat="45.6948424" lon="9.4029101"><ele>274.0</ele><time>2026-04-11T10:30:23.393Z</time></trkpt><trkpt lat="45.6949006" lon="9.4029711"><ele>274.0</ele><time>2026-04-11T10:30:24.391Z</time></trkpt><trkpt lat="45.6949933" lon="9.4030674"><ele>274.0</ele><time>2026-04-11T10:30:26.4Z</time></trkpt><trkpt lat="45.6950845" lon="9.4031623"><ele>274.0</ele><time>2026-04-11T10:30:28.393Z</time></trkpt><trkpt lat="45.6951894" lon="9.4032724"><ele>274.0</ele><time>2026-04-11T10:30:30.395Z</time></trkpt><trkpt lat="45.6952476" lon="9.4033308"><ele>274.0</ele><time>2026-04-11T10:30:31.405Z</time></trkpt><trkpt lat="45.6953079" lon="9.4033893"><ele>274.0</ele><time>2026-04-11T10:30:32.391Z</time></trkpt><trkpt lat="45.6953725" lon="9.4034521"><ele>274.0</ele><time>2026-04-11T10:30:33.396Z</time></trkpt><trkpt lat="45.6954505" lon="9.4035274"><ele>274.0</ele><time>2026-04-11T10:30:34.402Z</time></trkpt><trkpt lat="45.6955361" lon="9.4036146"><ele>274.0</ele><time>2026-04-11T10:30:35.364Z</time></trkpt><trkpt lat="45.6956219" lon="9.4037067"><ele>274.0</ele><time>2026-04-11T10:30:36.367Z</time></trkpt><trkpt lat="45.6957026" lon="9.403793"><ele>274.0</ele><time>2026-04-11T10:30:37.404Z</time></trkpt><trkpt lat="45.6957796" lon="9.4038732"><ele>274.0</ele><time>2026-04-11T10:30:38.362Z</time></trkpt><trkpt lat="45.6958444" lon="9.4039377"><ele>274.0</ele><time>2026-04-11T10:30:39.405Z</time></trkpt><trkpt lat="45.6959297" lon="9.4040312"><ele>274.0</ele><time>2026-04-11T10:30:41.394Z</time></trkpt><trkpt lat="45.6960147" lon="9.4041191"><ele>274.0</ele><time>2026-04-11T10:30:43.409Z</time></trkpt><trkpt lat="45.696108" lon="9.4042119"><ele>274.4</ele><time>2026-04-11T10:30:45.4Z</time></trkpt><trkpt lat="45.6961923" lon="9.404299"><ele>274.79999999999995</ele><time>2026-04-11T10:30:47.393Z</time></trkpt><trkpt lat="45.6962977" lon="9.4044081"><ele>275.20000000000005</ele><time>2026-04-11T10:30:49.405Z</time></trkpt><trkpt lat="45.6963594" lon="9.4044703"><ele>275.6</ele><time>2026-04-11T10:30:50.39Z</time></trkpt><trkpt lat="45.6964596" lon="9.4045732"><ele>276.0</ele><time>2026-04-11T10:30:52.397Z</time></trkpt><trkpt lat="45.6965504" lon="9.4046661"><ele>276.0</ele><time>2026-04-11T10:30:54.402Z</time></trkpt><trkpt lat="45.696645" lon="9.4047619"><ele>276.0</ele><time>2026-04-11T10:30:56.395Z</time></trkpt><trkpt lat="45.6967289" lon="9.404848"><ele>276.0</ele><time>2026-04-11T10:30:58.398Z</time></trkpt><trkpt lat="45.6968265" lon="9.4049466"><ele>276.0</ele><time>2026-04-11T10:31:00.409Z</time></trkpt><trkpt lat="45.6969314" lon="9.405053"><ele>276.0</ele><time>2026-04-11T10:31:02.402Z</time></trkpt><trkpt lat="45.6970322" lon="9.4051565"><ele>276.0</ele><time>2026-04-11T10:31:04.398Z</time></trkpt><trkpt lat="45.697133" lon="9.405263"><ele>276.0</ele><time>2026-04-11T10:31:06.391Z</time></trkpt><trkpt lat="45.6971873" lon="9.4053211"><ele>276.0</ele><time>2026-04-11T10:31:07.374Z</time></trkpt><trkpt lat="45.6972416" lon="9.4053785"><ele>276.0</ele><time>2026-04-11T10:31:08.398Z</time></trkpt><trkpt lat="45.6973023" lon="9.4054407"><ele>276.1666666666667</ele><time>2026-04-11T10:31:09.394Z</time></trkpt><trkpt lat="45.6973712" lon="9.4055098"><ele>276.3333333333333</ele><time>2026-04-11T10:31:10.393Z</time></trkpt><trkpt lat="45.6974454" lon="9.4055843"><ele>276.5</ele><time>2026-04-11T10:31:11.394Z</time></trkpt><trkpt lat="45.6975097" lon="9.4056501"><ele>276.66666666666663</ele><time>2026-04-11T10:31:12.406Z</time></trkpt><trkpt lat="45.697568" lon="9.4057103"><ele>276.8333333333333</ele><time>2026-04-11T10:31:13.406Z</time></trkpt><trkpt lat="45.6976376" lon="9.4057801"><ele>277.0</ele><time>2026-04-11T10:31:15.401Z</time></trkpt><trkpt lat="45.6977103" lon="9.4058571"><ele>277.2</ele><time>2026-04-11T10:31:18.402Z</time></trkpt><trkpt lat="45.6977869" lon="9.4059393"><ele>277.4</ele><time>2026-04-11T10:31:20.406Z</time></trkpt><trkpt lat="45.6978666" lon="9.4060203"><ele>277.6</ele><time>2026-04-11T10:31:22.409Z</time></trkpt><trkpt lat="45.6979488" lon="9.4061047"><ele>277.8</ele><time>2026-04-11T10:31:24.408Z</time></trkpt><trkpt lat="45.6980518" lon="9.4062108"><ele>278.0</ele><time>2026-04-11T10:31:26.405Z</time></trkpt><trkpt lat="45.6981078" lon="9.4062764"><ele>278.33333333333337</ele><time>2026-04-11T10:31:27.393Z</time></trkpt><trkpt lat="45.6981596" lon="9.4063428"><ele>278.6666666666667</ele><time>2026-04-11T10:31:28.395Z</time></trkpt><trkpt lat="45.6982376" lon="9.4064592"><ele>279.0</ele><time>2026-04-11T10:31:30.398Z</time></trkpt><trkpt lat="45.6983001" lon="9.4065721"><ele>279.3333333333333</ele><time>2026-04-11T10:31:32.407Z</time></trkpt><trkpt lat="45.6983422" lon="9.406643"><ele>279.66666666666663</ele><time>2026-04-11T10:31:33.395Z</time></trkpt><trkpt lat="45.6983905" lon="9.406711"><ele>280.0</ele><time>2026-04-11T10:31:34.405Z</time></trkpt><trkpt lat="45.6984995" lon="9.406812"><ele>280.0</ele><time>2026-04-11T10:31:36.408Z</time></trkpt><trkpt lat="45.6985607" lon="9.4068521"><ele>280.0</ele><time>2026-04-11T10:31:37.408Z</time></trkpt><trkpt lat="45.6986219" lon="9.4068924"><ele>280.0</ele><time>2026-04-11T10:31:38.398Z</time></trkpt><trkpt lat="45.6986803" lon="9.4069359"><ele>280.0</ele><time>2026-04-11T10:31:39.398Z</time></trkpt><trkpt lat="45.698741" lon="9.406985"><ele>280.0</ele><time>2026-04-11T10:31:40.395Z</time></trkpt><trkpt lat="45.6988054" lon="9.407044"><ele>280.0</ele><time>2026-04-11T10:31:41.367Z</time></trkpt><trkpt lat="45.698874" lon="9.4071122"><ele>280.0</ele><time>2026-04-11T10:31:42.399Z</time></trkpt><trkpt lat="45.6989442" lon="9.4071902"><ele>280.8</ele><time>2026-04-11T10:31:43.391Z</time></trkpt><trkpt lat="45.6990156" lon="9.4072798"><ele>281.6</ele><time>2026-04-11T10:31:44.395Z</time></trkpt><trkpt lat="45.6990946" lon="9.4073859"><ele>282.4</ele><time>2026-04-11T10:31:45.393Z</time></trkpt><trkpt lat="45.6991667" lon="9.4074681"><ele>283.2</ele><time>2026-04-11T10:31:46.398Z</time></trkpt><trkpt lat="45.6992372" lon="9.4075634"><ele>284.0</ele><time>2026-04-11T10:31:47.394Z</time></trkpt><trkpt lat="45.699309" lon="9.4076646"><ele>284.0</ele><time>2026-04-11T10:31:48.404Z</time></trkpt><trkpt lat="45.6993766" lon="9.4077598"><ele>284.0</ele><time>2026-04-11T10:31:49.394Z</time></trkpt><trkpt lat="45.6994385" lon="9.4078524"><ele>284.0</ele><time>2026-04-11T10:31:50.394Z</time></trkpt><trkpt lat="45.6994994" lon="9.4079419"><ele>284.0</ele><time>2026-04-11T10:31:51.37Z</time></trkpt><trkpt lat="45.699563" lon="9.4080296"><ele>284.0</ele><time>2026-04-11T10:31:52.409Z</time></trkpt><trkpt lat="45.6996289" lon="9.4081182"><ele>284.5</ele><time>2026-04-11T10:31:53.395Z</time></trkpt><trkpt lat="45.6996923" lon="9.4082014"><ele>285.0</ele><time>2026-04-11T10:31:54.397Z</time></trkpt><trkpt lat="45.6997579" lon="9.4082826"><ele>285.5</ele><time>2026-04-11T10:31:55.374Z</time></trkpt><trkpt lat="45.6998192" lon="9.4083679"><ele>286.0</ele><time>2026-04-11T10:31:56.397Z</time></trkpt><trkpt lat="45.6998866" lon="9.4084559"><ele>286.5</ele><time>2026-04-11T10:31:57.376Z</time></trkpt><trkpt lat="45.6999503" lon="9.4085411"><ele>287.0</ele><time>2026-04-11T10:31:58.4Z</time></trkpt><trkpt lat="45.7000107" lon="9.4086233"><ele>287.0</ele><time>2026-04-11T10:31:59.391Z</time></trkpt><trkpt lat="45.7000712" lon="9.4087069"><ele>287.0</ele><time>2026-04-11T10:32:00.408Z</time></trkpt><trkpt lat="45.7001328" lon="9.4087851"><ele>287.0</ele><time>2026-04-11T10:32:01.392Z</time></trkpt><trkpt lat="45.7001935" lon="9.4088599"><ele>287.0</ele><time>2026-04-11T10:32:02.393Z</time></trkpt><trkpt lat="45.7002667" lon="9.4089471"><ele>287.0</ele><time>2026-04-11T10:32:03.389Z</time></trkpt><trkpt lat="45.7003368" lon="9.4090319"><ele>287.0</ele><time>2026-04-11T10:32:04.394Z</time></trkpt><trkpt lat="45.7004101" lon="9.4091182"><ele>286.6</ele><time>2026-04-11T10:32:05.392Z</time></trkpt><trkpt lat="45.7004874" lon="9.4092077"><ele>286.2</ele><time>2026-04-11T10:32:06.395Z</time></trkpt><trkpt lat="45.7005692" lon="9.4093046"><ele>285.8</ele><time>2026-04-11T10:32:07.391Z</time></trkpt><trkpt lat="45.7006484" lon="9.4093988"><ele>285.4</ele><time>2026-04-11T10:32:08.4Z</time></trkpt><trkpt lat="45.7007194" lon="9.4094831"><ele>285.0</ele><time>2026-04-11T10:32:09.389Z</time></trkpt><trkpt lat="45.7007773" lon="9.4095546"><ele>285.0</ele><time>2026-04-11T10:32:10.405Z</time></trkpt><trkpt lat="45.7008638" lon="9.4096559"><ele>285.0</ele><time>2026-04-11T10:32:12.415Z</time></trkpt><trkpt lat="45.700937" lon="9.4097353"><ele>285.0</ele><time>2026-04-11T10:32:14.395Z</time></trkpt><trkpt lat="45.7010477" lon="9.4098464"><ele>285.0</ele><time>2026-04-11T10:32:16.395Z</time></trkpt><trkpt lat="45.7011091" lon="9.4099155"><ele>285.0</ele><time>2026-04-11T10:32:17.409Z</time></trkpt><trkpt lat="45.7011646" lon="9.4099821"><ele>284.7142857142857</ele><time>2026-04-11T10:32:18.398Z</time></trkpt><trkpt lat="45.7012261" lon="9.4100554"><ele>284.42857142857144</ele><time>2026-04-11T10:32:19.394Z</time></trkpt><trkpt lat="45.7012802" lon="9.4101233"><ele>284.14285714285717</ele><time>2026-04-11T10:32:20.393Z</time></trkpt><trkpt lat="45.7013383" lon="9.4101904"><ele>283.8571428571429</ele><time>2026-04-11T10:32:21.372Z</time></trkpt><trkpt lat="45.7013967" lon="9.4102576"><ele>283.5714285714286</ele><time>2026-04-11T10:32:22.39Z</time></trkpt><trkpt lat="45.7014545" lon="9.4103261"><ele>283.2857142857143</ele><time>2026-04-11T10:32:23.393Z</time></trkpt><trkpt lat="45.7015033" lon="9.4103928"><ele>283.0</ele><time>2026-04-11T10:32:24.408Z</time></trkpt><trkpt lat="45.7015903" lon="9.4105097"><ele>284.0</ele><time>2026-04-11T10:32:26.404Z</time></trkpt><trkpt lat="45.701672" lon="9.4105932"><ele>285.0</ele><time>2026-04-11T10:32:28.4Z</time></trkpt><trkpt lat="45.7017846" lon="9.4106841"><ele>286.0</ele><time>2026-04-11T10:32:30.393Z</time></trkpt><trkpt lat="45.701862" lon="9.4107396"><ele>287.0</ele><time>2026-04-11T10:32:31.394Z</time></trkpt><trkpt lat="45.7019511" lon="9.4108002"><ele>288.0</ele><time>2026-04-11T10:32:32.401Z</time></trkpt><trkpt lat="45.7020325" lon="9.4108509"><ele>288.0</ele><time>2026-04-11T10:32:33.406Z</time></trkpt><trkpt lat="45.7021049" lon="9.4108951"><ele>288.0</ele><time>2026-04-11T10:32:34.407Z</time></trkpt><trkpt lat="45.7021644" lon="9.4109358"><ele>288.0</ele><time>2026-04-11T10:32:35.395Z</time></trkpt><trkpt lat="45.7022797" lon="9.4109987"><ele>288.0</ele><time>2026-04-11T10:32:37.406Z</time></trkpt><trkpt lat="45.7023658" lon="9.411034"><ele>288.0</ele><time>2026-04-11T10:32:38.404Z</time></trkpt><trkpt lat="45.702456" lon="9.4110647"><ele>288.0</ele><time>2026-04-11T10:32:39.4Z</time></trkpt><trkpt lat="45.7025497" lon="9.4111083"><ele>288.0</ele><time>2026-04-11T10:32:40.406Z</time></trkpt><trkpt lat="45.7026434" lon="9.411148"><ele>288.0</ele><time>2026-04-11T10:32:41.395Z</time></trkpt><trkpt lat="45.7027364" lon="9.4111913"><ele>288.0</ele><time>2026-04-11T10:32:42.396Z</time></trkpt><trkpt lat="45.7028289" lon="9.4112341"><ele>288.0</ele><time>2026-04-11T10:32:43.394Z</time></trkpt><trkpt lat="45.7029263" lon="9.411278"><ele>288.4</ele><time>2026-04-11T10:32:44.407Z</time></trkpt><trkpt lat="45.7030216" lon="9.4113276"><ele>288.8</ele><time>2026-04-11T10:32:45.393Z</time></trkpt><trkpt lat="45.7031164" lon="9.4113705"><ele>289.2</ele><time>2026-04-11T10:32:46.396Z</time></trkpt><trkpt lat="45.7032105" lon="9.4114102"><ele>289.6</ele><time>2026-04-11T10:32:47.371Z</time></trkpt><trkpt lat="45.7032958" lon="9.4114385"><ele>290.0</ele><time>2026-04-11T10:32:48.379Z</time></trkpt><trkpt lat="45.7033897" lon="9.4114693"><ele>290.0</ele><time>2026-04-11T10:32:49.393Z</time></trkpt><trkpt lat="45.7034865" lon="9.4114933"><ele>290.0</ele><time>2026-04-11T10:32:50.398Z</time></trkpt><trkpt lat="45.7035792" lon="9.4115095"><ele>290.0</ele><time>2026-04-11T10:32:51.365Z</time></trkpt><trkpt lat="45.7036694" lon="9.4115196"><ele>290.0</ele><time>2026-04-11T10:32:52.399Z</time></trkpt><trkpt lat="45.7037592" lon="9.4115255"><ele>290.0</ele><time>2026-04-11T10:32:53.389Z</time></trkpt><trkpt lat="45.7038547" lon="9.4115297"><ele>289.4</ele><time>2026-04-11T10:32:54.397Z</time></trkpt><trkpt lat="45.7039555" lon="9.4115256"><ele>288.8</ele><time>2026-04-11T10:32:55.391Z</time></trkpt><trkpt lat="45.7040599" lon="9.411511"><ele>288.2</ele><time>2026-04-11T10:32:56.397Z</time></trkpt><trkpt lat="45.7041669" lon="9.41149"><ele>287.6</ele><time>2026-04-11T10:32:57.388Z</time></trkpt><trkpt lat="45.7042621" lon="9.4114741"><ele>287.0</ele><time>2026-04-11T10:32:58.388Z</time></trkpt><trkpt lat="45.7043538" lon="9.411446"><ele>287.6</ele><time>2026-04-11T10:32:59.406Z</time></trkpt><trkpt lat="45.7044315" lon="9.4114213"><ele>288.2</ele><time>2026-04-11T10:33:00.4Z</time></trkpt><trkpt lat="45.7045412" lon="9.4113735"><ele>288.8</ele><time>2026-04-11T10:33:02.395Z</time></trkpt><trkpt lat="45.7046446" lon="9.4113201"><ele>289.4</ele><time>2026-04-11T10:33:04.395Z</time></trkpt><trkpt lat="45.7047085" lon="9.4112781"><ele>290.0</ele><time>2026-04-11T10:33:05.391Z</time></trkpt><trkpt lat="45.7047933" lon="9.4112132"><ele>290.0</ele><time>2026-04-11T10:33:06.365Z</time></trkpt><trkpt lat="45.7048877" lon="9.4111511"><ele>290.0</ele><time>2026-04-11T10:33:07.365Z</time></trkpt><trkpt lat="45.7049704" lon="9.4110964"><ele>290.0</ele><time>2026-04-11T10:33:08.368Z</time></trkpt><trkpt lat="45.7050395" lon="9.4110425"><ele>290.0</ele><time>2026-04-11T10:33:09.396Z</time></trkpt><trkpt lat="45.7050985" lon="9.4109948"><ele>290.0</ele><time>2026-04-11T10:33:10.396Z</time></trkpt><trkpt lat="45.7051525" lon="9.4109482"><ele>290.0</ele><time>2026-04-11T10:33:11.392Z</time></trkpt><trkpt lat="45.7052169" lon="9.4108998"><ele>290.7142857142857</ele><time>2026-04-11T10:33:12.394Z</time></trkpt><trkpt lat="45.7052787" lon="9.410856"><ele>291.42857142857144</ele><time>2026-04-11T10:33:13.396Z</time></trkpt><trkpt lat="45.7053346" lon="9.4108132"><ele>292.14285714285717</ele><time>2026-04-11T10:33:14.393Z</time></trkpt><trkpt lat="45.7053919" lon="9.4107689"><ele>292.8571428571429</ele><time>2026-04-11T10:33:15.393Z</time></trkpt><trkpt lat="45.7054497" lon="9.4107243"><ele>293.57142857142856</ele><time>2026-04-11T10:33:16.37Z</time></trkpt><trkpt lat="45.7055034" lon="9.4106733"><ele>294.28571428571433</ele><time>2026-04-11T10:33:17.389Z</time></trkpt><trkpt lat="45.7055582" lon="9.4106256"><ele>295.0</ele><time>2026-04-11T10:33:18.393Z</time></trkpt><trkpt lat="45.7056138" lon="9.4105726"><ele>295.0</ele><time>2026-04-11T10:33:19.388Z</time></trkpt><trkpt lat="45.7056721" lon="9.4105328"><ele>295.0</ele><time>2026-04-11T10:33:20.391Z</time></trkpt><trkpt lat="45.7057278" lon="9.4104834"><ele>295.0</ele><time>2026-04-11T10:33:21.374Z</time></trkpt><trkpt lat="45.7058324" lon="9.4104102"><ele>295.0</ele><time>2026-04-11T10:33:23.39Z</time></trkpt><trkpt lat="45.705931" lon="9.4103356"><ele>295.0</ele><time>2026-04-11T10:33:25.392Z</time></trkpt><trkpt lat="45.7060233" lon="9.4102606"><ele>295.66666666666663</ele><time>2026-04-11T10:33:27.389Z</time></trkpt><trkpt lat="45.7061069" lon="9.4101895"><ele>296.3333333333333</ele><time>2026-04-11T10:33:29.377Z</time></trkpt><trkpt lat="45.7061778" lon="9.4101257"><ele>297.0</ele><time>2026-04-11T10:33:31.392Z</time></trkpt><trkpt lat="45.7062569" lon="9.4100947"><ele>297.6666666666667</ele><time>2026-04-11T10:33:33.387Z</time></trkpt><trkpt lat="45.7063265" lon="9.4101025"><ele>298.33333333333337</ele><time>2026-04-11T10:33:36.388Z</time></trkpt><trkpt lat="45.7064144" lon="9.4101136"><ele>299.0</ele><time>2026-04-11T10:33:38.365Z</time></trkpt><trkpt lat="45.7065257" lon="9.41004"><ele>299.0</ele><time>2026-04-11T10:33:40.393Z</time></trkpt><trkpt lat="45.7065975" lon="9.4098923"><ele>299.0</ele><time>2026-04-11T10:33:42.394Z</time></trkpt><trkpt lat="45.7066776" lon="9.4097741"><ele>299.0</ele><time>2026-04-11T10:33:44.384Z</time></trkpt><trkpt lat="45.7067766" lon="9.4096737"><ele>299.0</ele><time>2026-04-11T10:33:46.392Z</time></trkpt><trkpt lat="45.706881" lon="9.4095886"><ele>299.33333333333337</ele><time>2026-04-11T10:33:48.394Z</time></trkpt><trkpt lat="45.7069917" lon="9.4094908"><ele>299.6666666666667</ele><time>2026-04-11T10:33:50.366Z</time></trkpt><trkpt lat="45.7070513" lon="9.4094437"><ele>300.0</ele><time>2026-04-11T10:33:51.391Z</time></trkpt><trkpt lat="45.7071124" lon="9.409396"><ele>300.3333333333333</ele><time>2026-04-11T10:33:52.392Z</time></trkpt><trkpt lat="45.7071715" lon="9.4093489"><ele>300.66666666666663</ele><time>2026-04-11T10:33:53.389Z</time></trkpt><trkpt lat="45.7072309" lon="9.4093059"><ele>301.0</ele><time>2026-04-11T10:33:54.392Z</time></trkpt><trkpt lat="45.7072871" lon="9.4092628"><ele>301.0</ele><time>2026-04-11T10:33:55.395Z</time></trkpt><trkpt lat="45.707388" lon="9.4091787"><ele>301.0</ele><time>2026-04-11T10:33:57.39Z</time></trkpt><trkpt lat="45.7074941" lon="9.4090884"><ele>301.0</ele><time>2026-04-11T10:33:59.391Z</time></trkpt><trkpt lat="45.7075481" lon="9.4090414"><ele>301.0</ele><time>2026-04-11T10:34:00.395Z</time></trkpt><trkpt lat="45.7076568" lon="9.4089529"><ele>301.0</ele><time>2026-04-11T10:34:02.367Z</time></trkpt><trkpt lat="45.7077683" lon="9.408864"><ele>301.66666666666663</ele><time>2026-04-11T10:34:04.395Z</time></trkpt><trkpt lat="45.7078238" lon="9.4088167"><ele>302.3333333333333</ele><time>2026-04-11T10:34:05.388Z</time></trkpt><trkpt lat="45.7078904" lon="9.4087577"><ele>303.0</ele><time>2026-04-11T10:34:06.362Z</time></trkpt><trkpt lat="45.7079733" lon="9.40869"><ele>303.6666666666667</ele><time>2026-04-11T10:34:07.38Z</time></trkpt><trkpt lat="45.7080618" lon="9.40862"><ele>304.33333333333337</ele><time>2026-04-11T10:34:08.391Z</time></trkpt><trkpt lat="45.7081511" lon="9.4085476"><ele>305.0</ele><time>2026-04-11T10:34:09.394Z</time></trkpt><trkpt lat="45.7082437" lon="9.408472"><ele>305.0</ele><time>2026-04-11T10:34:10.39Z</time></trkpt><trkpt lat="45.7083411" lon="9.4083916"><ele>305.0</ele><time>2026-04-11T10:34:11.365Z</time></trkpt><trkpt lat="45.7084631" lon="9.4082836"><ele>305.0</ele><time>2026-04-11T10:34:12.362Z</time></trkpt><trkpt lat="45.7086163" lon="9.408165"><ele>305.0</ele><time>2026-04-11T10:34:13.369Z</time></trkpt><trkpt lat="45.708777" lon="9.4080487"><ele>305.6666666666667</ele><time>2026-04-11T10:34:14.392Z</time></trkpt><trkpt lat="45.7089425" lon="9.4079231"><ele>306.3333333333333</ele><time>2026-04-11T10:34:15.387Z</time></trkpt><trkpt lat="45.7091064" lon="9.4077913"><ele>307.0</ele><time>2026-04-11T10:34:16.391Z</time></trkpt><trkpt lat="45.7092578" lon="9.4076775"><ele>307.0</ele><time>2026-04-11T10:34:17.363Z</time></trkpt><trkpt lat="45.709393" lon="9.4075715"><ele>307.0</ele><time>2026-04-11T10:34:18.399Z</time></trkpt><trkpt lat="45.7095155" lon="9.4074777"><ele>307.0</ele><time>2026-04-11T10:34:19.393Z</time></trkpt><trkpt lat="45.7096324" lon="9.4073838"><ele>307.0</ele><time>2026-04-11T10:34:20.395Z</time></trkpt><trkpt lat="45.7097474" lon="9.4072911"><ele>307.75</ele><time>2026-04-11T10:34:21.373Z</time></trkpt><trkpt lat="45.7098553" lon="9.4072054"><ele>308.5</ele><time>2026-04-11T10:34:22.366Z</time></trkpt><trkpt lat="45.709962" lon="9.407124"><ele>309.25</ele><time>2026-04-11T10:34:23.39Z</time></trkpt><trkpt lat="45.7100768" lon="9.4070261"><ele>310.0</ele><time>2026-04-11T10:34:24.389Z</time></trkpt><trkpt lat="45.7101932" lon="9.40693"><ele>309.75</ele><time>2026-04-11T10:34:25.41Z</time></trkpt><trkpt lat="45.710309" lon="9.4068362"><ele>309.5</ele><time>2026-04-11T10:34:26.392Z</time></trkpt><trkpt lat="45.7104159" lon="9.4067551"><ele>309.25</ele><time>2026-04-11T10:34:27.393Z</time></trkpt><trkpt lat="45.7105142" lon="9.4066782"><ele>309.0</ele><time>2026-04-11T10:34:28.396Z</time></trkpt><trkpt lat="45.7106074" lon="9.4066082"><ele>309.0</ele><time>2026-04-11T10:34:29.393Z</time></trkpt><trkpt lat="45.7106985" lon="9.4065455"><ele>309.0</ele><time>2026-04-11T10:34:30.389Z</time></trkpt><trkpt lat="45.7107887" lon="9.4065039"><ele>309.0</ele><time>2026-04-11T10:34:31.368Z</time></trkpt><trkpt lat="45.7108753" lon="9.40648"><ele>309.0</ele><time>2026-04-11T10:34:32.399Z</time></trkpt><trkpt lat="45.7109698" lon="9.4064583"><ele>309.0</ele><time>2026-04-11T10:34:33.394Z</time></trkpt><trkpt lat="45.7110754" lon="9.406456"><ele>308.75</ele><time>2026-04-11T10:34:34.397Z</time></trkpt><trkpt lat="45.7111701" lon="9.4064502"><ele>308.5</ele><time>2026-04-11T10:34:35.393Z</time></trkpt><trkpt lat="45.7112727" lon="9.4064119"><ele>308.25</ele><time>2026-04-11T10:34:36.395Z</time></trkpt><trkpt lat="45.7113881" lon="9.4063387"><ele>308.0</ele><time>2026-04-11T10:34:37.398Z</time></trkpt><trkpt lat="45.7115142" lon="9.4062656"><ele>306.6666666666667</ele><time>2026-04-11T10:34:38.389Z</time></trkpt><trkpt lat="45.7116546" lon="9.4061994"><ele>305.3333333333333</ele><time>2026-04-11T10:34:39.367Z</time></trkpt><trkpt lat="45.7118166" lon="9.4061604"><ele>304.0</ele><time>2026-04-11T10:34:40.392Z</time></trkpt><trkpt lat="45.7119895" lon="9.4061467"><ele>303.0</ele><time>2026-04-11T10:34:41.387Z</time></trkpt><trkpt lat="45.7121728" lon="9.4061625"><ele>302.0</ele><time>2026-04-11T10:34:42.393Z</time></trkpt><trkpt lat="45.7123613" lon="9.4062059"><ele>301.0</ele><time>2026-04-11T10:34:43.37Z</time></trkpt><trkpt lat="45.7125471" lon="9.4062598"><ele>301.66666666666663</ele><time>2026-04-11T10:34:44.394Z</time></trkpt><trkpt lat="45.7127163" lon="9.4063311"><ele>302.3333333333333</ele><time>2026-04-11T10:34:45.394Z</time></trkpt><trkpt lat="45.7128741" lon="9.4064068"><ele>303.0</ele><time>2026-04-11T10:34:46.391Z</time></trkpt><trkpt lat="45.7130286" lon="9.4064787"><ele>303.0</ele><time>2026-04-11T10:34:47.361Z</time></trkpt><trkpt lat="45.7131762" lon="9.4065509"><ele>303.0</ele><time>2026-04-11T10:34:48.397Z</time></trkpt><trkpt lat="45.7133273" lon="9.4066263"><ele>303.0</ele><time>2026-04-11T10:34:49.391Z</time></trkpt><trkpt lat="45.713469" lon="9.4066977"><ele>302.25</ele><time>2026-04-11T10:34:50.395Z</time></trkpt><trkpt lat="45.7136052" lon="9.4067724"><ele>301.5</ele><time>2026-04-11T10:34:51.363Z</time></trkpt><trkpt lat="45.7137411" lon="9.4068451"><ele>300.75</ele><time>2026-04-11T10:34:52.364Z</time></trkpt><trkpt lat="45.7138733" lon="9.4069141"><ele>300.0</ele><time>2026-04-11T10:34:53.396Z</time></trkpt><trkpt lat="45.714005" lon="9.4069797"><ele>300.0</ele><time>2026-04-11T10:34:54.362Z</time></trkpt><trkpt lat="45.7141352" lon="9.4070412"><ele>300.0</ele><time>2026-04-11T10:34:55.391Z</time></trkpt><trkpt lat="45.7142648" lon="9.4071065"><ele>300.0</ele><time>2026-04-11T10:34:56.392Z</time></trkpt><trkpt lat="45.714391" lon="9.4071742"><ele>300.0</ele><time>2026-04-11T10:34:57.364Z</time></trkpt><trkpt lat="45.7145207" lon="9.4072419"><ele>300.25</ele><time>2026-04-11T10:34:58.395Z</time></trkpt><trkpt lat="45.7146537" lon="9.40731"><ele>300.5</ele><time>2026-04-11T10:34:59.396Z</time></trkpt><trkpt lat="45.7147954" lon="9.4073764"><ele>300.75</ele><time>2026-04-11T10:35:00.391Z</time></trkpt><trkpt lat="45.7149338" lon="9.4074427"><ele>301.0</ele><time>2026-04-11T10:35:01.371Z</time></trkpt><trkpt lat="45.7150726" lon="9.4075073"><ele>301.0</ele><time>2026-04-11T10:35:02.367Z</time></trkpt><trkpt lat="45.7152074" lon="9.4075609"><ele>301.0</ele><time>2026-04-11T10:35:03.368Z</time></trkpt><trkpt lat="45.7153402" lon="9.4076137"><ele>301.0</ele><time>2026-04-11T10:35:04.393Z</time></trkpt><trkpt lat="45.7154592" lon="9.4076606"><ele>301.0</ele><time>2026-04-11T10:35:05.395Z</time></trkpt><trkpt lat="45.7155727" lon="9.4077019"><ele>300.8</ele><time>2026-04-11T10:35:06.395Z</time></trkpt><trkpt lat="45.7156798" lon="9.4077409"><ele>300.6</ele><time>2026-04-11T10:35:07.373Z</time></trkpt><trkpt lat="45.7157792" lon="9.4077751"><ele>300.4</ele><time>2026-04-11T10:35:08.393Z</time></trkpt><trkpt lat="45.7158759" lon="9.4078101"><ele>300.2</ele><time>2026-04-11T10:35:09.371Z</time></trkpt><trkpt lat="45.7159744" lon="9.4078448"><ele>300.0</ele><time>2026-04-11T10:35:10.395Z</time></trkpt><trkpt lat="45.7160721" lon="9.4078814"><ele>300.2</ele><time>2026-04-11T10:35:11.366Z</time></trkpt><trkpt lat="45.7161712" lon="9.407913"><ele>300.4</ele><time>2026-04-11T10:35:12.396Z</time></trkpt><trkpt lat="45.7162714" lon="9.4079471"><ele>300.6</ele><time>2026-04-11T10:35:13.392Z</time></trkpt><trkpt lat="45.7163686" lon="9.4079796"><ele>300.8</ele><time>2026-04-11T10:35:14.394Z</time></trkpt><trkpt lat="45.7164696" lon="9.4080144"><ele>301.0</ele><time>2026-04-11T10:35:15.395Z</time></trkpt><trkpt lat="45.7165649" lon="9.408045"><ele>301.0</ele><time>2026-04-11T10:35:16.394Z</time></trkpt><trkpt lat="45.7166585" lon="9.4080775"><ele>301.0</ele><time>2026-04-11T10:35:17.394Z</time></trkpt><trkpt lat="45.7167451" lon="9.4081117"><ele>301.0</ele><time>2026-04-11T10:35:18.366Z</time></trkpt><trkpt lat="45.7168318" lon="9.4081382"><ele>301.0</ele><time>2026-04-11T10:35:19.393Z</time></trkpt><trkpt lat="45.7169083" lon="9.4081625"><ele>301.0</ele><time>2026-04-11T10:35:20.363Z</time></trkpt><trkpt lat="45.716982" lon="9.4081857"><ele>301.0</ele><time>2026-04-11T10:35:21.392Z</time></trkpt><trkpt lat="45.7170551" lon="9.4082096"><ele>300.3333333333333</ele><time>2026-04-11T10:35:22.391Z</time></trkpt><trkpt lat="45.7171228" lon="9.4082322"><ele>299.66666666666663</ele><time>2026-04-11T10:35:23.366Z</time></trkpt><trkpt lat="45.7171876" lon="9.4082541"><ele>299.0</ele><time>2026-04-11T10:35:24.394Z</time></trkpt><trkpt lat="45.7172644" lon="9.4082817"><ele>298.3333333333333</ele><time>2026-04-11T10:35:25.367Z</time></trkpt><trkpt lat="45.7173469" lon="9.4083258"><ele>297.6666666666667</ele><time>2026-04-11T10:35:26.394Z</time></trkpt><trkpt lat="45.7174332" lon="9.408388"><ele>297.0</ele><time>2026-04-11T10:35:27.367Z</time></trkpt><trkpt lat="45.7175154" lon="9.4084719"><ele>297.0</ele><time>2026-04-11T10:35:28.394Z</time></trkpt><trkpt lat="45.7175967" lon="9.4085614"><ele>297.0</ele><time>2026-04-11T10:35:29.366Z</time></trkpt><trkpt lat="45.7176821" lon="9.4086538"><ele>297.0</ele><time>2026-04-11T10:35:30.395Z</time></trkpt><trkpt lat="45.717765" lon="9.4087412"><ele>297.0</ele><time>2026-04-11T10:35:31.368Z</time></trkpt><trkpt lat="45.7178536" lon="9.4088289"><ele>297.0</ele><time>2026-04-11T10:35:32.396Z</time></trkpt><trkpt lat="45.7179422" lon="9.408918"><ele>297.25</ele><time>2026-04-11T10:35:33.394Z</time></trkpt><trkpt lat="45.7180298" lon="9.4090107"><ele>297.5</ele><time>2026-04-11T10:35:34.371Z</time></trkpt><trkpt lat="45.7181208" lon="9.4091063"><ele>297.75</ele><time>2026-04-11T10:35:35.367Z</time></trkpt><trkpt lat="45.7182227" lon="9.4092059"><ele>298.0</ele><time>2026-04-11T10:35:36.396Z</time></trkpt><trkpt lat="45.7183154" lon="9.4093039"><ele>298.0</ele><time>2026-04-11T10:35:37.365Z</time></trkpt><trkpt lat="45.7184114" lon="9.4094034"><ele>298.0</ele><time>2026-04-11T10:35:38.396Z</time></trkpt><trkpt lat="45.7185002" lon="9.4094992"><ele>298.0</ele><time>2026-04-11T10:35:39.367Z</time></trkpt><trkpt lat="45.7185885" lon="9.4095926"><ele>298.0</ele><time>2026-04-11T10:35:40.394Z</time></trkpt><trkpt lat="45.7186736" lon="9.4096815"><ele>298.0</ele><time>2026-04-11T10:35:41.367Z</time></trkpt><trkpt lat="45.7187583" lon="9.4097719"><ele>298.2</ele><time>2026-04-11T10:35:42.393Z</time></trkpt><trkpt lat="45.7188427" lon="9.4098617"><ele>298.4</ele><time>2026-04-11T10:35:43.367Z</time></trkpt><trkpt lat="45.7189305" lon="9.4099491"><ele>298.59999999999997</ele><time>2026-04-11T10:35:44.371Z</time></trkpt><trkpt lat="45.7190206" lon="9.4100431"><ele>298.8</ele><time>2026-04-11T10:35:45.364Z</time></trkpt><trkpt lat="45.7191112" lon="9.4101413"><ele>299.0</ele><time>2026-04-11T10:35:46.386Z</time></trkpt><trkpt lat="45.7192035" lon="9.4102414"><ele>299.0</ele><time>2026-04-11T10:35:47.359Z</time></trkpt><trkpt lat="45.7192946" lon="9.4103411"><ele>299.0</ele><time>2026-04-11T10:35:48.389Z</time></trkpt><trkpt lat="45.7193867" lon="9.4104395"><ele>299.0</ele><time>2026-04-11T10:35:49.391Z</time></trkpt><trkpt lat="45.719484" lon="9.4105378"><ele>299.0</ele><time>2026-04-11T10:35:50.391Z</time></trkpt><trkpt lat="45.71958" lon="9.4106397"><ele>298.25</ele><time>2026-04-11T10:35:51.39Z</time></trkpt><trkpt lat="45.7196827" lon="9.4107475"><ele>297.5</ele><time>2026-04-11T10:35:52.389Z</time></trkpt><trkpt lat="45.7197948" lon="9.4108617"><ele>296.75</ele><time>2026-04-11T10:35:53.365Z</time></trkpt><trkpt lat="45.719911" lon="9.410982"><ele>296.0</ele><time>2026-04-11T10:35:54.395Z</time></trkpt><trkpt lat="45.7200274" lon="9.4111082"><ele>296.0</ele><time>2026-04-11T10:35:55.386Z</time></trkpt><trkpt lat="45.720139" lon="9.4112258"><ele>296.0</ele><time>2026-04-11T10:35:56.393Z</time></trkpt><trkpt lat="45.7202445" lon="9.4113378"><ele>296.0</ele><time>2026-04-11T10:35:57.36Z</time></trkpt><trkpt lat="45.7203467" lon="9.4114462"><ele>296.0</ele><time>2026-04-11T10:35:58.395Z</time></trkpt><trkpt lat="45.720455" lon="9.411562"><ele>296.0</ele><time>2026-04-11T10:35:59.363Z</time></trkpt><trkpt lat="45.7205645" lon="9.4116774"><ele>296.0</ele><time>2026-04-11T10:36:00.395Z</time></trkpt><trkpt lat="45.7206734" lon="9.4117901"><ele>296.0</ele><time>2026-04-11T10:36:01.393Z</time></trkpt><trkpt lat="45.7207743" lon="9.4118979"><ele>296.0</ele><time>2026-04-11T10:36:02.361Z</time></trkpt><trkpt lat="45.7208747" lon="9.4120003"><ele>296.0</ele><time>2026-04-11T10:36:03.392Z</time></trkpt><trkpt lat="45.7209721" lon="9.4120977"><ele>296.0</ele><time>2026-04-11T10:36:04.389Z</time></trkpt><trkpt lat="45.7210719" lon="9.4122002"><ele>296.0</ele><time>2026-04-11T10:36:05.372Z</time></trkpt><trkpt lat="45.7211761" lon="9.4123047"><ele>296.0</ele><time>2026-04-11T10:36:06.392Z</time></trkpt><trkpt lat="45.7212742" lon="9.4124022"><ele>294.8</ele><time>2026-04-11T10:36:07.366Z</time></trkpt><trkpt lat="45.7213699" lon="9.4124961"><ele>293.6</ele><time>2026-04-11T10:36:08.368Z</time></trkpt><trkpt lat="45.7214543" lon="9.4125893"><ele>292.4</ele><time>2026-04-11T10:36:09.373Z</time></trkpt><trkpt lat="45.7215292" lon="9.4126777"><ele>291.2</ele><time>2026-04-11T10:36:10.394Z</time></trkpt><trkpt lat="45.7215945" lon="9.4127616"><ele>290.0</ele><time>2026-04-11T10:36:11.397Z</time></trkpt><trkpt lat="45.721631" lon="9.4128562"><ele>290.0</ele><time>2026-04-11T10:36:12.39Z</time></trkpt><trkpt lat="45.7216597" lon="9.4129632"><ele>290.0</ele><time>2026-04-11T10:36:13.407Z</time></trkpt><trkpt lat="45.7216955" lon="9.4130661"><ele>290.0</ele><time>2026-04-11T10:36:14.39Z</time></trkpt><trkpt lat="45.7217429" lon="9.4131351"><ele>290.0</ele><time>2026-04-11T10:36:15.394Z</time></trkpt><trkpt lat="45.7218119" lon="9.4131716"><ele>290.0</ele><time>2026-04-11T10:36:16.39Z</time></trkpt><trkpt lat="45.7218897" lon="9.4131913"><ele>290.0</ele><time>2026-04-11T10:36:17.392Z</time></trkpt><trkpt lat="45.7219565" lon="9.4132114"><ele>290.0</ele><time>2026-04-11T10:36:18.391Z</time></trkpt><trkpt lat="45.7220216" lon="9.413246"><ele>289.6</ele><time>2026-04-11T10:36:19.391Z</time></trkpt><trkpt lat="45.7220889" lon="9.4132945"><ele>289.2</ele><time>2026-04-11T10:36:20.405Z</time></trkpt><trkpt lat="45.7221633" lon="9.413367"><ele>288.8</ele><time>2026-04-11T10:36:21.385Z</time></trkpt><trkpt lat="45.7222367" lon="9.4134444"><ele>288.4</ele><time>2026-04-11T10:36:22.389Z</time></trkpt><trkpt lat="45.7223109" lon="9.4135229"><ele>288.0</ele><time>2026-04-11T10:36:23.362Z</time></trkpt><trkpt lat="45.7223949" lon="9.4136164"><ele>288.0</ele><time>2026-04-11T10:36:24.389Z</time></trkpt><trkpt lat="45.7224741" lon="9.4137001"><ele>288.0</ele><time>2026-04-11T10:36:25.394Z</time></trkpt><trkpt lat="45.7225515" lon="9.4137809"><ele>288.0</ele><time>2026-04-11T10:36:26.39Z</time></trkpt><trkpt lat="45.72263" lon="9.4138641"><ele>288.0</ele><time>2026-04-11T10:36:27.392Z</time></trkpt><trkpt lat="45.7227069" lon="9.413946"><ele>288.0</ele><time>2026-04-11T10:36:28.397Z</time></trkpt><trkpt lat="45.7227869" lon="9.4140269"><ele>287.6</ele><time>2026-04-11T10:36:29.365Z</time></trkpt><trkpt lat="45.7228653" lon="9.4141118"><ele>287.20000000000005</ele><time>2026-04-11T10:36:30.392Z</time></trkpt><trkpt lat="45.7229415" lon="9.4141909"><ele>286.8</ele><time>2026-04-11T10:36:31.367Z</time></trkpt><trkpt lat="45.723016" lon="9.4142668"><ele>286.40000000000003</ele><time>2026-04-11T10:36:32.396Z</time></trkpt><trkpt lat="45.7230841" lon="9.4143406"><ele>286.0</ele><time>2026-04-11T10:36:33.396Z</time></trkpt><trkpt lat="45.7231538" lon="9.4144094"><ele>286.0</ele><time>2026-04-11T10:36:34.397Z</time></trkpt><trkpt lat="45.7232118" lon="9.4144696"><ele>286.0</ele><time>2026-04-11T10:36:35.392Z</time></trkpt><trkpt lat="45.7232978" lon="9.4145449"><ele>286.0</ele><time>2026-04-11T10:36:37.373Z</time></trkpt><trkpt lat="45.7233614" lon="9.4146004"><ele>286.0</ele><time>2026-04-11T10:36:39.364Z</time></trkpt><trkpt lat="45.7234181" lon="9.4146513"><ele>286.0</ele><time>2026-04-11T10:36:41.385Z</time></trkpt><trkpt lat="45.7234911" lon="9.4147184"><ele>286.0</ele><time>2026-04-11T10:36:43.374Z</time></trkpt><trkpt lat="45.7235663" lon="9.414792"><ele>285.71428571428567</ele><time>2026-04-11T10:36:45.377Z</time></trkpt><trkpt lat="45.7236176" lon="9.4148452"><ele>285.42857142857144</ele><time>2026-04-11T10:36:46.392Z</time></trkpt><trkpt lat="45.7236771" lon="9.4149057"><ele>285.1428571428571</ele><time>2026-04-11T10:36:47.393Z</time></trkpt><trkpt lat="45.72374" lon="9.4149756"><ele>284.85714285714283</ele><time>2026-04-11T10:36:48.395Z</time></trkpt><trkpt lat="45.723803" lon="9.4150409"><ele>284.57142857142856</ele><time>2026-04-11T10:36:49.399Z</time></trkpt><trkpt lat="45.7238618" lon="9.4151015"><ele>284.2857142857143</ele><time>2026-04-11T10:36:50.407Z</time></trkpt><trkpt lat="45.7239251" lon="9.4151602"><ele>284.0</ele><time>2026-04-11T10:36:51.394Z</time></trkpt><trkpt lat="45.7239877" lon="9.4152316"><ele>284.0</ele><time>2026-04-11T10:36:52.409Z</time></trkpt><trkpt lat="45.724053" lon="9.4153088"><ele>284.0</ele><time>2026-04-11T10:36:53.394Z</time></trkpt><trkpt lat="45.7241272" lon="9.4153876"><ele>284.0</ele><time>2026-04-11T10:36:54.399Z</time></trkpt><trkpt lat="45.7241928" lon="9.415457"><ele>284.0</ele><time>2026-04-11T10:36:55.39Z</time></trkpt><trkpt lat="45.7242523" lon="9.4155144"><ele>284.0</ele><time>2026-04-11T10:36:56.367Z</time></trkpt><trkpt lat="45.7243477" lon="9.4156044"><ele>284.0</ele><time>2026-04-11T10:36:58.395Z</time></trkpt><trkpt lat="45.7244237" lon="9.4156788"><ele>284.0</ele><time>2026-04-11T10:37:00.363Z</time></trkpt><trkpt lat="45.7245034" lon="9.415746"><ele>284.0</ele><time>2026-04-11T10:37:02.372Z</time></trkpt><trkpt lat="45.7245713" lon="9.4157992"><ele>284.0</ele><time>2026-04-11T10:37:04.365Z</time></trkpt><trkpt lat="45.7246265" lon="9.415848"><ele>284.0</ele><time>2026-04-11T10:37:07.37Z</time></trkpt><trkpt lat="45.724682" lon="9.4159006"><ele>284.0</ele><time>2026-04-11T10:37:09.368Z</time></trkpt><trkpt lat="45.7247473" lon="9.41595"><ele>284.0</ele><time>2026-04-11T10:37:11.372Z</time></trkpt><trkpt lat="45.7248347" lon="9.4159903"><ele>284.0</ele><time>2026-04-11T10:37:13.371Z</time></trkpt><trkpt lat="45.7249171" lon="9.415996"><ele>284.0</ele><time>2026-04-11T10:37:15.396Z</time></trkpt><trkpt lat="45.7249874" lon="9.4159567"><ele>284.0</ele><time>2026-04-11T10:37:16.366Z</time></trkpt><trkpt lat="45.7250794" lon="9.4159009"><ele>284.0</ele><time>2026-04-11T10:37:17.371Z</time></trkpt><trkpt lat="45.7252046" lon="9.4158321"><ele>284.0</ele><time>2026-04-11T10:37:18.363Z</time></trkpt><trkpt lat="45.7253442" lon="9.4157667"><ele>282.6666666666667</ele><time>2026-04-11T10:37:19.392Z</time></trkpt><trkpt lat="45.725484" lon="9.4156989"><ele>281.3333333333333</ele><time>2026-04-11T10:37:20.365Z</time></trkpt><trkpt lat="45.7256292" lon="9.4156418"><ele>280.0</ele><time>2026-04-11T10:37:21.371Z</time></trkpt><trkpt lat="45.7257826" lon="9.4155929"><ele>280.0</ele><time>2026-04-11T10:37:22.364Z</time></trkpt><trkpt lat="45.7259386" lon="9.4155566"><ele>280.0</ele><time>2026-04-11T10:37:23.394Z</time></trkpt><trkpt lat="45.7261045" lon="9.4155305"><ele>280.0</ele><time>2026-04-11T10:37:24.393Z</time></trkpt><trkpt lat="45.72627" lon="9.4155153"><ele>280.3333333333333</ele><time>2026-04-11T10:37:25.393Z</time></trkpt><trkpt lat="45.7264299" lon="9.4155128"><ele>280.6666666666667</ele><time>2026-04-11T10:37:26.393Z</time></trkpt><trkpt lat="45.7265913" lon="9.4155122"><ele>281.0</ele><time>2026-04-11T10:37:27.383Z</time></trkpt><trkpt lat="45.7267519" lon="9.4155247"><ele>278.33333333333337</ele><time>2026-04-11T10:37:28.391Z</time></trkpt><trkpt lat="45.7269161" lon="9.4155479"><ele>275.6666666666667</ele><time>2026-04-11T10:37:29.393Z</time></trkpt><trkpt lat="45.7270773" lon="9.4155796"><ele>273.0</ele><time>2026-04-11T10:37:30.388Z</time></trkpt><trkpt lat="45.7272396" lon="9.4156253"><ele>273.0</ele><time>2026-04-11T10:37:31.387Z</time></trkpt><trkpt lat="45.7273985" lon="9.4156799"><ele>273.0</ele><time>2026-04-11T10:37:32.389Z</time></trkpt><trkpt lat="45.7275556" lon="9.4157388"><ele>273.0</ele><time>2026-04-11T10:37:33.395Z</time></trkpt><trkpt lat="45.7277193" lon="9.4158128"><ele>271.0</ele><time>2026-04-11T10:37:34.386Z</time></trkpt><trkpt lat="45.7278843" lon="9.4159068"><ele>269.0</ele><time>2026-04-11T10:37:35.39Z</time></trkpt><trkpt lat="45.7280515" lon="9.4160217"><ele>267.0</ele><time>2026-04-11T10:37:36.367Z</time></trkpt><trkpt lat="45.7282102" lon="9.4161505"><ele>267.0</ele><time>2026-04-11T10:37:37.397Z</time></trkpt><trkpt lat="45.7283571" lon="9.4162836"><ele>267.0</ele><time>2026-04-11T10:37:38.392Z</time></trkpt><trkpt lat="45.7284934" lon="9.4164244"><ele>267.0</ele><time>2026-04-11T10:37:39.395Z</time></trkpt><trkpt lat="45.7286254" lon="9.4165877"><ele>266.6666666666667</ele><time>2026-04-11T10:37:40.397Z</time></trkpt><trkpt lat="45.728756" lon="9.4167745"><ele>266.33333333333337</ele><time>2026-04-11T10:37:41.389Z</time></trkpt><trkpt lat="45.7288891" lon="9.4169864"><ele>266.0</ele><time>2026-04-11T10:37:42.39Z</time></trkpt><trkpt lat="45.7290208" lon="9.4172039"><ele>266.0</ele><time>2026-04-11T10:37:43.4Z</time></trkpt><trkpt lat="45.7291553" lon="9.4174121"><ele>266.0</ele><time>2026-04-11T10:37:44.391Z</time></trkpt><trkpt lat="45.7293059" lon="9.4176123"><ele>266.0</ele><time>2026-04-11T10:37:45.394Z</time></trkpt><trkpt lat="45.7294756" lon="9.4177971"><ele>264.5</ele><time>2026-04-11T10:37:46.394Z</time></trkpt><trkpt lat="45.7296624" lon="9.4179807"><ele>263.0</ele><time>2026-04-11T10:37:47.389Z</time></trkpt><trkpt lat="45.7298696" lon="9.4181673"><ele>263.0</ele><time>2026-04-11T10:37:48.393Z</time></trkpt><trkpt lat="45.7300649" lon="9.41835"><ele>263.0</ele><time>2026-04-11T10:37:49.384Z</time></trkpt><trkpt lat="45.7302505" lon="9.4185273"><ele>262.33333333333337</ele><time>2026-04-11T10:37:50.393Z</time></trkpt><trkpt lat="45.7304313" lon="9.4187001"><ele>261.6666666666667</ele><time>2026-04-11T10:37:51.364Z</time></trkpt><trkpt lat="45.7306023" lon="9.4188706"><ele>261.0</ele><time>2026-04-11T10:37:52.392Z</time></trkpt><trkpt lat="45.7307676" lon="9.4190384"><ele>261.0</ele><time>2026-04-11T10:37:53.391Z</time></trkpt><trkpt lat="45.7309259" lon="9.4192002"><ele>261.0</ele><time>2026-04-11T10:37:54.396Z</time></trkpt><trkpt lat="45.7310815" lon="9.4193564"><ele>261.0</ele><time>2026-04-11T10:37:55.397Z</time></trkpt><trkpt lat="45.7312315" lon="9.419506"><ele>260.5</ele><time>2026-04-11T10:37:56.393Z</time></trkpt><trkpt lat="45.7313653" lon="9.4196415"><ele>260.0</ele><time>2026-04-11T10:37:57.388Z</time></trkpt><trkpt lat="45.7314877" lon="9.4197576"><ele>259.5</ele><time>2026-04-11T10:37:58.388Z</time></trkpt><trkpt lat="45.7316105" lon="9.4198421"><ele>259.0</ele><time>2026-04-11T10:37:59.402Z</time></trkpt><trkpt lat="45.7317353" lon="9.4198999"><ele>259.0</ele><time>2026-04-11T10:38:00.362Z</time></trkpt><trkpt lat="45.7318631" lon="9.4199315"><ele>259.0</ele><time>2026-04-11T10:38:01.395Z</time></trkpt><trkpt lat="45.7319846" lon="9.419937"><ele>259.0</ele><time>2026-04-11T10:38:02.4Z</time></trkpt><trkpt lat="45.7320982" lon="9.41991"><ele>259.0</ele><time>2026-04-11T10:38:03.39Z</time></trkpt><trkpt lat="45.732205" lon="9.4198487"><ele>257.75</ele><time>2026-04-11T10:38:04.395Z</time></trkpt><trkpt lat="45.7323084" lon="9.4197606"><ele>256.5</ele><time>2026-04-11T10:38:05.407Z</time></trkpt><trkpt lat="45.7324009" lon="9.4196334"><ele>255.25</ele><time>2026-04-11T10:38:06.373Z</time></trkpt><trkpt lat="45.7324761" lon="9.4194944"><ele>254.0</ele><time>2026-04-11T10:38:07.402Z</time></trkpt><trkpt lat="45.7325408" lon="9.4193343"><ele>253.75</ele><time>2026-04-11T10:38:08.366Z</time></trkpt><trkpt lat="45.7325949" lon="9.4191532"><ele>253.5</ele><time>2026-04-11T10:38:09.388Z</time></trkpt><trkpt lat="45.7326424" lon="9.4189636"><ele>253.25</ele><time>2026-04-11T10:38:10.4Z</time></trkpt><trkpt lat="45.7326767" lon="9.4187815"><ele>253.0</ele><time>2026-04-11T10:38:11.39Z</time></trkpt><trkpt lat="45.7327023" lon="9.418604"><ele>253.0</ele><time>2026-04-11T10:38:12.389Z</time></trkpt><trkpt lat="45.7327208" lon="9.4184162"><ele>253.0</ele><time>2026-04-11T10:38:13.404Z</time></trkpt><trkpt lat="45.7327334" lon="9.4182323"><ele>253.0</ele><time>2026-04-11T10:38:14.368Z</time></trkpt><trkpt lat="45.7327549" lon="9.4180371"><ele>253.0</ele><time>2026-04-11T10:38:15.389Z</time></trkpt><trkpt lat="45.7328017" lon="9.4178369"><ele>250.75</ele><time>2026-04-11T10:38:16.367Z</time></trkpt><trkpt lat="45.7328618" lon="9.417651"><ele>248.5</ele><time>2026-04-11T10:38:17.406Z</time></trkpt><trkpt lat="45.7329504" lon="9.4174804"><ele>246.25</ele><time>2026-04-11T10:38:18.386Z</time></trkpt><trkpt lat="45.7330687" lon="9.417333"><ele>244.0</ele><time>2026-04-11T10:38:19.397Z</time></trkpt><trkpt lat="45.7332081" lon="9.4172148"><ele>240.66666666666666</ele><time>2026-04-11T10:38:20.404Z</time></trkpt><trkpt lat="45.7333578" lon="9.4171317"><ele>237.33333333333331</ele><time>2026-04-11T10:38:21.393Z</time></trkpt><trkpt lat="45.7335237" lon="9.4170908"><ele>234.0</ele><time>2026-04-11T10:38:22.393Z</time></trkpt><trkpt lat="45.733692" lon="9.4170948"><ele>233.66666666666669</ele><time>2026-04-11T10:38:23.402Z</time></trkpt><trkpt lat="45.733853" lon="9.4171337"><ele>233.33333333333334</ele><time>2026-04-11T10:38:24.366Z</time></trkpt><trkpt lat="45.7340061" lon="9.4172291"><ele>233.0</ele><time>2026-04-11T10:38:25.388Z</time></trkpt><trkpt lat="45.7341472" lon="9.4173644"><ele>233.0</ele><time>2026-04-11T10:38:26.393Z</time></trkpt><trkpt lat="45.7342636" lon="9.4174927"><ele>233.0</ele><time>2026-04-11T10:38:27.391Z</time></trkpt><trkpt lat="45.7343623" lon="9.4176099"><ele>233.0</ele><time>2026-04-11T10:38:28.392Z</time></trkpt><trkpt lat="45.7344436" lon="9.4177171"><ele>233.0</ele><time>2026-04-11T10:38:29.366Z</time></trkpt><trkpt lat="45.7345095" lon="9.4178426"><ele>231.50000000000003</ele><time>2026-04-11T10:38:30.396Z</time></trkpt><trkpt lat="45.7345554" lon="9.4179732"><ele>230.0</ele><time>2026-04-11T10:38:31.392Z</time></trkpt><trkpt lat="45.7345839" lon="9.4181007"><ele>228.5</ele><time>2026-04-11T10:38:32.367Z</time></trkpt><trkpt lat="45.7346064" lon="9.4182245"><ele>227.0</ele><time>2026-04-11T10:38:33.406Z</time></trkpt><trkpt lat="45.7346433" lon="9.4183316"><ele>225.50000000000003</ele><time>2026-04-11T10:38:34.392Z</time></trkpt><trkpt lat="45.7346896" lon="9.4184043"><ele>224.0</ele><time>2026-04-11T10:38:35.406Z</time></trkpt><trkpt lat="45.7348011" lon="9.418456"><ele>224.00000000000003</ele><time>2026-04-11T10:38:37.397Z</time></trkpt><trkpt lat="45.7348643" lon="9.4184515"><ele>224.0</ele><time>2026-04-11T10:38:38.371Z</time></trkpt><trkpt lat="45.7349322" lon="9.4184503"><ele>224.0</ele><time>2026-04-11T10:38:39.39Z</time></trkpt><trkpt lat="45.7350055" lon="9.4184624"><ele>224.0</ele><time>2026-04-11T10:38:40.401Z</time></trkpt><trkpt lat="45.7350869" lon="9.4184921"><ele>224.00000000000003</ele><time>2026-04-11T10:38:41.396Z</time></trkpt><trkpt lat="45.735165" lon="9.4185502"><ele>224.0</ele><time>2026-04-11T10:38:42.406Z</time></trkpt><trkpt lat="45.7352465" lon="9.4186206"><ele>223.2</ele><time>2026-04-11T10:38:43.406Z</time></trkpt><trkpt lat="45.7353333" lon="9.4186903"><ele>222.39999999999998</ele><time>2026-04-11T10:38:44.395Z</time></trkpt><trkpt lat="45.7354163" lon="9.4187667"><ele>221.6</ele><time>2026-04-11T10:38:45.392Z</time></trkpt><trkpt lat="45.7355101" lon="9.4188419"><ele>220.8</ele><time>2026-04-11T10:38:46.392Z</time></trkpt><trkpt lat="45.7356102" lon="9.418923"><ele>220.0</ele><time>2026-04-11T10:38:47.394Z</time></trkpt><trkpt lat="45.7357109" lon="9.4190026"><ele>220.0</ele><time>2026-04-11T10:38:48.389Z</time></trkpt><trkpt lat="45.7358237" lon="9.4190881"><ele>220.0</ele><time>2026-04-11T10:38:49.361Z</time></trkpt><trkpt lat="45.7359403" lon="9.4191809"><ele>220.0</ele><time>2026-04-11T10:38:50.393Z</time></trkpt><trkpt lat="45.7360548" lon="9.4192712"><ele>220.0</ele><time>2026-04-11T10:38:51.364Z</time></trkpt><trkpt lat="45.7361608" lon="9.4193552"><ele>220.0</ele><time>2026-04-11T10:38:52.393Z</time></trkpt><trkpt lat="45.7362646" lon="9.4194389"><ele>220.0</ele><time>2026-04-11T10:38:53.402Z</time></trkpt><trkpt lat="45.7363665" lon="9.4195179"><ele>220.0</ele><time>2026-04-11T10:38:54.373Z</time></trkpt><trkpt lat="45.736472" lon="9.4195997"><ele>220.0</ele><time>2026-04-11T10:38:55.391Z</time></trkpt><trkpt lat="45.7365837" lon="9.4196833"><ele>220.0</ele><time>2026-04-11T10:38:56.393Z</time></trkpt><trkpt lat="45.7366956" lon="9.4197728"><ele>220.0</ele><time>2026-04-11T10:38:57.408Z</time></trkpt><trkpt lat="45.7368053" lon="9.4198569"><ele>220.0</ele><time>2026-04-11T10:38:58.39Z</time></trkpt><trkpt lat="45.7369137" lon="9.4199394"><ele>220.0</ele><time>2026-04-11T10:38:59.364Z</time></trkpt><trkpt lat="45.7370276" lon="9.4200229"><ele>220.25</ele><time>2026-04-11T10:39:00.394Z</time></trkpt><trkpt lat="45.7371453" lon="9.42011"><ele>220.5</ele><time>2026-04-11T10:39:01.361Z</time></trkpt><trkpt lat="45.7372629" lon="9.4201994"><ele>220.75</ele><time>2026-04-11T10:39:02.397Z</time></trkpt><trkpt lat="45.737383" lon="9.4202948"><ele>221.0</ele><time>2026-04-11T10:39:03.388Z</time></trkpt><trkpt lat="45.7375023" lon="9.420388"><ele>221.0</ele><time>2026-04-11T10:39:04.386Z</time></trkpt><trkpt lat="45.7376207" lon="9.4204818"><ele>221.0</ele><time>2026-04-11T10:39:05.405Z</time></trkpt><trkpt lat="45.7377393" lon="9.4205713"><ele>221.0</ele><time>2026-04-11T10:39:06.394Z</time></trkpt><trkpt lat="45.7378604" lon="9.4206609"><ele>221.0</ele><time>2026-04-11T10:39:07.397Z</time></trkpt><trkpt lat="45.7379709" lon="9.420747"><ele>220.5</ele><time>2026-04-11T10:39:08.394Z</time></trkpt><trkpt lat="45.7380776" lon="9.4208272"><ele>220.0</ele><time>2026-04-11T10:39:09.362Z</time></trkpt><trkpt lat="45.7381811" lon="9.4209067"><ele>219.5</ele><time>2026-04-11T10:39:10.393Z</time></trkpt><trkpt lat="45.7382859" lon="9.4209873"><ele>219.0</ele><time>2026-04-11T10:39:11.365Z</time></trkpt><trkpt lat="45.7383951" lon="9.4210721"><ele>219.0</ele><time>2026-04-11T10:39:12.391Z</time></trkpt><trkpt lat="45.7385036" lon="9.4211577"><ele>219.0</ele><time>2026-04-11T10:39:13.391Z</time></trkpt><trkpt lat="45.7386201" lon="9.4212446"><ele>219.0</ele><time>2026-04-11T10:39:14.391Z</time></trkpt><trkpt lat="45.7387383" lon="9.4213364"><ele>219.0</ele><time>2026-04-11T10:39:15.388Z</time></trkpt><trkpt lat="45.7388516" lon="9.4214264"><ele>218.5</ele><time>2026-04-11T10:39:16.388Z</time></trkpt><trkpt lat="45.7389623" lon="9.4215137"><ele>218.0</ele><time>2026-04-11T10:39:17.39Z</time></trkpt><trkpt lat="45.7390696" lon="9.421598"><ele>217.5</ele><time>2026-04-11T10:39:18.363Z</time></trkpt><trkpt lat="45.7391722" lon="9.4216812"><ele>217.0</ele><time>2026-04-11T10:39:19.391Z</time></trkpt><trkpt lat="45.7392725" lon="9.4217625"><ele>217.0</ele><time>2026-04-11T10:39:20.403Z</time></trkpt><trkpt lat="45.7393741" lon="9.4218404"><ele>217.0</ele><time>2026-04-11T10:39:21.395Z</time></trkpt><trkpt lat="45.7394782" lon="9.4219221"><ele>217.0</ele><time>2026-04-11T10:39:22.397Z</time></trkpt><trkpt lat="45.7395828" lon="9.4220091"><ele>217.0</ele><time>2026-04-11T10:39:23.393Z</time></trkpt><trkpt lat="45.7396887" lon="9.4220947"><ele>217.5</ele><time>2026-04-11T10:39:24.393Z</time></trkpt><trkpt lat="45.7397955" lon="9.422181"><ele>218.0</ele><time>2026-04-11T10:39:25.395Z</time></trkpt><trkpt lat="45.7399023" lon="9.4222612"><ele>218.5</ele><time>2026-04-11T10:39:26.392Z</time></trkpt><trkpt lat="45.7400045" lon="9.4223424"><ele>219.0</ele><time>2026-04-11T10:39:27.364Z</time></trkpt><trkpt lat="45.7401062" lon="9.4224234"><ele>219.0</ele><time>2026-04-11T10:39:28.397Z</time></trkpt><trkpt lat="45.7402143" lon="9.4225055"><ele>219.0</ele><time>2026-04-11T10:39:29.387Z</time></trkpt><trkpt lat="45.7403266" lon="9.4225953"><ele>219.0</ele><time>2026-04-11T10:39:30.391Z</time></trkpt><trkpt lat="45.7404414" lon="9.4226821"><ele>219.0</ele><time>2026-04-11T10:39:31.394Z</time></trkpt><trkpt lat="45.7405614" lon="9.4227748"><ele>219.0</ele><time>2026-04-11T10:39:32.395Z</time></trkpt><trkpt lat="45.7406771" lon="9.4228662"><ele>219.0</ele><time>2026-04-11T10:39:33.369Z</time></trkpt><trkpt lat="45.7407924" lon="9.4229581"><ele>219.0</ele><time>2026-04-11T10:39:34.372Z</time></trkpt><trkpt lat="45.7409161" lon="9.4230573"><ele>219.0</ele><time>2026-04-11T10:39:35.396Z</time></trkpt><trkpt lat="45.7410298" lon="9.4231451"><ele>219.0</ele><time>2026-04-11T10:39:36.395Z</time></trkpt><trkpt lat="45.7411366" lon="9.4232354"><ele>219.0</ele><time>2026-04-11T10:39:37.37Z</time></trkpt><trkpt lat="45.7412394" lon="9.4233135"><ele>219.0</ele><time>2026-04-11T10:39:38.391Z</time></trkpt><trkpt lat="45.7413478" lon="9.423389"><ele>219.0</ele><time>2026-04-11T10:39:39.393Z</time></trkpt><trkpt lat="45.7414587" lon="9.4234736"><ele>219.0</ele><time>2026-04-11T10:39:40.404Z</time></trkpt><trkpt lat="45.7415716" lon="9.4235594"><ele>219.0</ele><time>2026-04-11T10:39:41.37Z</time></trkpt><trkpt lat="45.7416897" lon="9.4236477"><ele>219.0</ele><time>2026-04-11T10:39:42.393Z</time></trkpt><trkpt lat="45.7418265" lon="9.4237301"><ele>219.0</ele><time>2026-04-11T10:39:43.368Z</time></trkpt><trkpt lat="45.741972" lon="9.4238245"><ele>218.25</ele><time>2026-04-11T10:39:44.396Z</time></trkpt><trkpt lat="45.7421127" lon="9.4239144"><ele>217.5</ele><time>2026-04-11T10:39:45.386Z</time></trkpt><trkpt lat="45.7422541" lon="9.4239928"><ele>216.75</ele><time>2026-04-11T10:39:46.367Z</time></trkpt><trkpt lat="45.7423884" lon="9.4240633"><ele>216.0</ele><time>2026-04-11T10:39:47.396Z</time></trkpt><trkpt lat="45.7425156" lon="9.424132"><ele>216.0</ele><time>2026-04-11T10:39:48.398Z</time></trkpt><trkpt lat="45.7426433" lon="9.424201"><ele>216.0</ele><time>2026-04-11T10:39:49.391Z</time></trkpt><trkpt lat="45.7427745" lon="9.424272"><ele>216.0</ele><time>2026-04-11T10:39:50.39Z</time></trkpt><trkpt lat="45.742905" lon="9.4243432"><ele>216.0</ele><time>2026-04-11T10:39:51.396Z</time></trkpt><trkpt lat="45.743032" lon="9.4244129"><ele>215.5</ele><time>2026-04-11T10:39:52.393Z</time></trkpt><trkpt lat="45.743151" lon="9.4244765"><ele>215.0</ele><time>2026-04-11T10:39:53.369Z</time></trkpt><trkpt lat="45.7432657" lon="9.4245413"><ele>214.5</ele><time>2026-04-11T10:39:54.388Z</time></trkpt><trkpt lat="45.7433774" lon="9.4246056"><ele>214.0</ele><time>2026-04-11T10:39:55.368Z</time></trkpt><trkpt lat="45.743493" lon="9.4246741"><ele>215.0</ele><time>2026-04-11T10:39:56.395Z</time></trkpt><trkpt lat="45.7436157" lon="9.424744"><ele>216.0</ele><time>2026-04-11T10:39:57.39Z</time></trkpt><trkpt lat="45.7437313" lon="9.4248102"><ele>217.0</ele><time>2026-04-11T10:39:58.389Z</time></trkpt><trkpt lat="45.7438501" lon="9.4248779"><ele>218.0</ele><time>2026-04-11T10:39:59.367Z</time></trkpt><trkpt lat="45.743969" lon="9.4249437"><ele>218.0</ele><time>2026-04-11T10:40:00.393Z</time></trkpt><trkpt lat="45.7440875" lon="9.4250109"><ele>218.0</ele><time>2026-04-11T10:40:01.391Z</time></trkpt><trkpt lat="45.7442005" lon="9.4250698"><ele>218.0</ele><time>2026-04-11T10:40:02.393Z</time></trkpt><trkpt lat="45.7443125" lon="9.4251318"><ele>218.0</ele><time>2026-04-11T10:40:03.397Z</time></trkpt><trkpt lat="45.7444333" lon="9.4251983"><ele>219.0</ele><time>2026-04-11T10:40:04.396Z</time></trkpt><trkpt lat="45.7445514" lon="9.4252663"><ele>220.0</ele><time>2026-04-11T10:40:05.391Z</time></trkpt><trkpt lat="45.7446657" lon="9.4253325"><ele>221.0</ele><time>2026-04-11T10:40:06.391Z</time></trkpt><trkpt lat="45.7447779" lon="9.4253967"><ele>222.0</ele><time>2026-04-11T10:40:07.389Z</time></trkpt><trkpt lat="45.7448845" lon="9.4254575"><ele>220.5</ele><time>2026-04-11T10:40:08.397Z</time></trkpt><trkpt lat="45.7449908" lon="9.4255181"><ele>219.0</ele><time>2026-04-11T10:40:09.389Z</time></trkpt><trkpt lat="45.7450986" lon="9.42559"><ele>217.5</ele><time>2026-04-11T10:40:10.393Z</time></trkpt><trkpt lat="45.7452097" lon="9.4256681"><ele>216.0</ele><time>2026-04-11T10:40:11.394Z</time></trkpt><trkpt lat="45.7453198" lon="9.4257423"><ele>216.0</ele><time>2026-04-11T10:40:12.397Z</time></trkpt><trkpt lat="45.7454317" lon="9.4258129"><ele>216.0</ele><time>2026-04-11T10:40:13.389Z</time></trkpt><trkpt lat="45.7455464" lon="9.4258819"><ele>216.0</ele><time>2026-04-11T10:40:14.389Z</time></trkpt><trkpt lat="45.745666" lon="9.4259508"><ele>216.0</ele><time>2026-04-11T10:40:15.392Z</time></trkpt><trkpt lat="45.7457893" lon="9.4260055"><ele>216.0</ele><time>2026-04-11T10:40:16.397Z</time></trkpt><trkpt lat="45.7459069" lon="9.4260488"><ele>216.0</ele><time>2026-04-11T10:40:17.369Z</time></trkpt><trkpt lat="45.746019" lon="9.4260844"><ele>216.0</ele><time>2026-04-11T10:40:18.392Z</time></trkpt><trkpt lat="45.7461295" lon="9.4261094"><ele>216.0</ele><time>2026-04-11T10:40:19.393Z</time></trkpt><trkpt lat="45.746246" lon="9.4261227"><ele>216.0</ele><time>2026-04-11T10:40:20.384Z</time></trkpt><trkpt lat="45.7463695" lon="9.4261225"><ele>216.0</ele><time>2026-04-11T10:40:21.37Z</time></trkpt><trkpt lat="45.7464953" lon="9.4261268"><ele>216.0</ele><time>2026-04-11T10:40:22.389Z</time></trkpt><trkpt lat="45.7466238" lon="9.4261328"><ele>216.0</ele><time>2026-04-11T10:40:23.392Z</time></trkpt><trkpt lat="45.7467456" lon="9.4261401"><ele>216.0</ele><time>2026-04-11T10:40:24.388Z</time></trkpt><trkpt lat="45.7468619" lon="9.4261493"><ele>216.0</ele><time>2026-04-11T10:40:25.365Z</time></trkpt><trkpt lat="45.746976" lon="9.4261598"><ele>216.0</ele><time>2026-04-11T10:40:26.389Z</time></trkpt><trkpt lat="45.7470916" lon="9.4261673"><ele>216.0</ele><time>2026-04-11T10:40:27.398Z</time></trkpt><trkpt lat="45.74721" lon="9.426173"><ele>215.75</ele><time>2026-04-11T10:40:28.39Z</time></trkpt><trkpt lat="45.7473434" lon="9.4261848"><ele>215.5</ele><time>2026-04-11T10:40:29.401Z</time></trkpt><trkpt lat="45.7474855" lon="9.4261931"><ele>215.25</ele><time>2026-04-11T10:40:30.369Z</time></trkpt><trkpt lat="45.7476249" lon="9.4262034"><ele>215.0</ele><time>2026-04-11T10:40:31.396Z</time></trkpt><trkpt lat="45.7477717" lon="9.4262164"><ele>215.0</ele><time>2026-04-11T10:40:32.38Z</time></trkpt><trkpt lat="45.7479291" lon="9.4262334"><ele>215.0</ele><time>2026-04-11T10:40:33.395Z</time></trkpt><trkpt lat="45.7480866" lon="9.4262475"><ele>215.0</ele><time>2026-04-11T10:40:34.41Z</time></trkpt><trkpt lat="45.7482436" lon="9.4262638"><ele>215.0</ele><time>2026-04-11T10:40:35.365Z</time></trkpt><trkpt lat="45.748408" lon="9.4262769"><ele>215.0</ele><time>2026-04-11T10:40:36.389Z</time></trkpt><trkpt lat="45.7485787" lon="9.4262851"><ele>215.0</ele><time>2026-04-11T10:40:37.369Z</time></trkpt><trkpt lat="45.7487455" lon="9.426309"><ele>213.33333333333334</ele><time>2026-04-11T10:40:38.392Z</time></trkpt><trkpt lat="45.748912" lon="9.4263341"><ele>211.66666666666669</ele><time>2026-04-11T10:40:39.367Z</time></trkpt><trkpt lat="45.7490665" lon="9.4263549"><ele>210.0</ele><time>2026-04-11T10:40:40.385Z</time></trkpt><trkpt lat="45.7492131" lon="9.4263718"><ele>210.0</ele><time>2026-04-11T10:40:41.392Z</time></trkpt><trkpt lat="45.7493563" lon="9.4263899"><ele>210.0</ele><time>2026-04-11T10:40:42.365Z</time></trkpt><trkpt lat="45.749489" lon="9.4264012"><ele>210.0</ele><time>2026-04-11T10:40:43.392Z</time></trkpt><trkpt lat="45.7496119" lon="9.426415"><ele>210.0</ele><time>2026-04-11T10:40:44.392Z</time></trkpt><trkpt lat="45.7497288" lon="9.4264351"><ele>209.8</ele><time>2026-04-11T10:40:45.397Z</time></trkpt><trkpt lat="45.7498439" lon="9.4264534"><ele>209.6</ele><time>2026-04-11T10:40:46.365Z</time></trkpt><trkpt lat="45.7499499" lon="9.4264671"><ele>209.39999999999998</ele><time>2026-04-11T10:40:47.394Z</time></trkpt><trkpt lat="45.7500403" lon="9.4264749"><ele>209.2</ele><time>2026-04-11T10:40:48.389Z</time></trkpt><trkpt lat="45.7501172" lon="9.4264804"><ele>209.0</ele><time>2026-04-11T10:40:49.389Z</time></trkpt><trkpt lat="45.7501857" lon="9.4264908"><ele>208.83333333333334</ele><time>2026-04-11T10:40:50.397Z</time></trkpt><trkpt lat="45.7502545" lon="9.4265112"><ele>208.66666666666669</ele><time>2026-04-11T10:40:51.398Z</time></trkpt><trkpt lat="45.7503185" lon="9.4265412"><ele>208.5</ele><time>2026-04-11T10:40:52.368Z</time></trkpt><trkpt lat="45.7503721" lon="9.4265898"><ele>208.33333333333331</ele><time>2026-04-11T10:40:53.393Z</time></trkpt><trkpt lat="45.7504586" lon="9.4266625"><ele>208.16666666666666</ele><time>2026-04-11T10:40:55.394Z</time></trkpt><trkpt lat="45.7505419" lon="9.4266711"><ele>208.0</ele><time>2026-04-11T10:40:57.392Z</time></trkpt><trkpt lat="45.750639" lon="9.4266025"><ele>208.0</ele><time>2026-04-11T10:40:59.394Z</time></trkpt><trkpt lat="45.7507581" lon="9.4265624"><ele>208.0</ele><time>2026-04-11T10:41:01.396Z</time></trkpt><trkpt lat="45.7508342" lon="9.4265579"><ele>208.0</ele><time>2026-04-11T10:41:02.387Z</time></trkpt><trkpt lat="45.7509155" lon="9.4265566"><ele>208.0</ele><time>2026-04-11T10:41:03.373Z</time></trkpt><trkpt lat="45.751008" lon="9.4265532"><ele>208.0</ele><time>2026-04-11T10:41:04.365Z</time></trkpt><trkpt lat="45.7511088" lon="9.426551"><ele>208.5</ele><time>2026-04-11T10:41:05.39Z</time></trkpt><trkpt lat="45.7512162" lon="9.4265447"><ele>209.0</ele><time>2026-04-11T10:41:06.369Z</time></trkpt><trkpt lat="45.7513243" lon="9.4265403"><ele>209.5</ele><time>2026-04-11T10:41:07.375Z</time></trkpt><trkpt lat="45.7514441" lon="9.4265369"><ele>210.0</ele><time>2026-04-11T10:41:08.367Z</time></trkpt><trkpt lat="45.7515648" lon="9.426532"><ele>210.0</ele><time>2026-04-11T10:41:09.394Z</time></trkpt><trkpt lat="45.751686" lon="9.4265379"><ele>210.0</ele><time>2026-04-11T10:41:10.37Z</time></trkpt><trkpt lat="45.7517997" lon="9.4265411"><ele>210.0</ele><time>2026-04-11T10:41:11.389Z</time></trkpt><trkpt lat="45.7519124" lon="9.4265442"><ele>210.0</ele><time>2026-04-11T10:41:12.366Z</time></trkpt><trkpt lat="45.7520228" lon="9.4265538"><ele>211.0</ele><time>2026-04-11T10:41:13.373Z</time></trkpt><trkpt lat="45.7521436" lon="9.4265614"><ele>212.0</ele><time>2026-04-11T10:41:14.367Z</time></trkpt><trkpt lat="45.7522734" lon="9.4265672"><ele>213.0</ele><time>2026-04-11T10:41:15.396Z</time></trkpt><trkpt lat="45.752408" lon="9.4265736"><ele>214.0</ele><time>2026-04-11T10:41:16.395Z</time></trkpt><trkpt lat="45.7525417" lon="9.4265804"><ele>214.0</ele><time>2026-04-11T10:41:17.375Z</time></trkpt><trkpt lat="45.7526654" lon="9.426584"><ele>214.0</ele><time>2026-04-11T10:41:18.394Z</time></trkpt><trkpt lat="45.7527806" lon="9.4265873"><ele>214.0</ele><time>2026-04-11T10:41:19.396Z</time></trkpt><trkpt lat="45.7528871" lon="9.4265948"><ele>214.0</ele><time>2026-04-11T10:41:20.388Z</time></trkpt><trkpt lat="45.7529998" lon="9.4266036"><ele>214.5</ele><time>2026-04-11T10:41:21.395Z</time></trkpt><trkpt lat="45.7531108" lon="9.4266093"><ele>215.0</ele><time>2026-04-11T10:41:22.367Z</time></trkpt><trkpt lat="45.7532267" lon="9.4266136"><ele>215.5</ele><time>2026-04-11T10:41:23.375Z</time></trkpt><trkpt lat="45.7533484" lon="9.42662"><ele>216.0</ele><time>2026-04-11T10:41:24.368Z</time></trkpt><trkpt lat="45.7534684" lon="9.4266219"><ele>216.5</ele><time>2026-04-11T10:41:25.371Z</time></trkpt><trkpt lat="45.7535871" lon="9.4266271"><ele>217.0</ele><time>2026-04-11T10:41:26.364Z</time></trkpt><trkpt lat="45.7537036" lon="9.4266353"><ele>217.5</ele><time>2026-04-11T10:41:27.398Z</time></trkpt><trkpt lat="45.7538171" lon="9.4266352"><ele>218.0</ele><time>2026-04-11T10:41:28.393Z</time></trkpt><trkpt lat="45.7539254" lon="9.4266348"><ele>218.0</ele><time>2026-04-11T10:41:29.39Z</time></trkpt><trkpt lat="45.754039" lon="9.4266343"><ele>218.0</ele><time>2026-04-11T10:41:30.394Z</time></trkpt><trkpt lat="45.754151" lon="9.4266353"><ele>218.0</ele><time>2026-04-11T10:41:31.366Z</time></trkpt><trkpt lat="45.754256" lon="9.4266437"><ele>218.0</ele><time>2026-04-11T10:41:32.368Z</time></trkpt><trkpt lat="45.7543523" lon="9.4266496"><ele>218.0</ele><time>2026-04-11T10:41:33.392Z</time></trkpt><trkpt lat="45.7544393" lon="9.4266467"><ele>218.33333333333334</ele><time>2026-04-11T10:41:34.395Z</time></trkpt><trkpt lat="45.7545161" lon="9.426644"><ele>218.66666666666669</ele><time>2026-04-11T10:41:35.373Z</time></trkpt><trkpt lat="45.7545877" lon="9.4266462"><ele>219.0</ele><time>2026-04-11T10:41:36.365Z</time></trkpt><trkpt lat="45.7546843" lon="9.4266464"><ele>219.33333333333331</ele><time>2026-04-11T10:41:38.369Z</time></trkpt><trkpt lat="45.7547608" lon="9.4266532"><ele>219.66666666666666</ele><time>2026-04-11T10:41:42.369Z</time></trkpt><trkpt lat="45.7548349" lon="9.4266546"><ele>220.0</ele><time>2026-04-11T10:41:44.365Z</time></trkpt><trkpt lat="45.7549069" lon="9.4266884"><ele>220.0</ele><time>2026-04-11T10:41:47.393Z</time></trkpt><trkpt lat="45.7549307" lon="9.426817"><ele>220.0</ele><time>2026-04-11T10:41:50.368Z</time></trkpt><trkpt lat="45.7548716" lon="9.4269941"><ele>220.0</ele><time>2026-04-11T10:41:52.364Z</time></trkpt><trkpt lat="45.7548274" lon="9.42712"><ele>220.0</ele><time>2026-04-11T10:41:53.392Z</time></trkpt><trkpt lat="45.7547747" lon="9.4272686"><ele>220.0</ele><time>2026-04-11T10:41:54.396Z</time></trkpt><trkpt lat="45.7547042" lon="9.4274395"><ele>219.25</ele><time>2026-04-11T10:41:55.372Z</time></trkpt><trkpt lat="45.7546414" lon="9.4276031"><ele>218.5</ele><time>2026-04-11T10:41:56.394Z</time></trkpt><trkpt lat="45.7545829" lon="9.4277618"><ele>217.75</ele><time>2026-04-11T10:41:57.395Z</time></trkpt><trkpt lat="45.7545217" lon="9.4279245"><ele>217.0</ele><time>2026-04-11T10:41:58.364Z</time></trkpt><trkpt lat="45.7544613" lon="9.428091"><ele>216.0</ele><time>2026-04-11T10:41:59.373Z</time></trkpt><trkpt lat="45.7543945" lon="9.4282629"><ele>215.0</ele><time>2026-04-11T10:42:00.408Z</time></trkpt><trkpt lat="45.7543157" lon="9.4284601"><ele>214.0</ele><time>2026-04-11T10:42:01.364Z</time></trkpt><trkpt lat="45.7542407" lon="9.4286399"><ele>213.0</ele><time>2026-04-11T10:42:02.392Z</time></trkpt><trkpt lat="45.7541657" lon="9.428809"><ele>212.0</ele><time>2026-04-11T10:42:03.367Z</time></trkpt><trkpt lat="45.7540911" lon="9.4289687"><ele>211.0</ele><time>2026-04-11T10:42:04.361Z</time></trkpt><trkpt lat="45.7540218" lon="9.4291197"><ele>210.0</ele><time>2026-04-11T10:42:05.364Z</time></trkpt><trkpt lat="45.7539559" lon="9.4292594"><ele>209.0</ele><time>2026-04-11T10:42:06.394Z</time></trkpt><trkpt lat="45.753887" lon="9.4293901"><ele>209.0</ele><time>2026-04-11T10:42:07.373Z</time></trkpt><trkpt lat="45.7538319" lon="9.4295226"><ele>209.0</ele><time>2026-04-11T10:42:08.395Z</time></trkpt><trkpt lat="45.7537812" lon="9.429645"><ele>209.0</ele><time>2026-04-11T10:42:09.395Z</time></trkpt><trkpt lat="45.7537381" lon="9.429755"><ele>209.0</ele><time>2026-04-11T10:42:10.365Z</time></trkpt><trkpt lat="45.7537029" lon="9.4298303"><ele>209.0</ele><time>2026-04-11T10:42:11.394Z</time></trkpt><trkpt lat="45.7536139" lon="9.4299125"><ele>209.00000000000003</ele><time>2026-04-11T10:42:13.39Z</time></trkpt><trkpt lat="45.7535435" lon="9.4299385"><ele>209.0</ele><time>2026-04-11T10:42:14.394Z</time></trkpt><trkpt lat="45.7534723" lon="9.4299516"><ele>209.0</ele><time>2026-04-11T10:42:15.396Z</time></trkpt><trkpt lat="45.7533549" lon="9.4299381"><ele>209.0</ele><time>2026-04-11T10:42:17.396Z</time></trkpt><trkpt lat="45.7532861" lon="9.4298922"><ele>209.00000000000003</ele><time>2026-04-11T10:42:19.393Z</time></trkpt><trkpt lat="45.7532222" lon="9.4298987"><ele>209.0</ele><time>2026-04-11T10:42:21.395Z</time></trkpt><trkpt lat="45.7531982" lon="9.4299869"><ele>209.00000000000003</ele><time>2026-04-11T10:42:24.365Z</time></trkpt><trkpt lat="45.7532545" lon="9.4300349"><ele>209.0</ele><time>2026-04-11T10:42:26.368Z</time></trkpt><trkpt lat="45.7533195" lon="9.4300385"><ele>209.0</ele><time>2026-04-11T10:42:27.375Z</time></trkpt><trkpt lat="45.7533933" lon="9.4300208"><ele>209.0</ele><time>2026-04-11T10:42:28.366Z</time></trkpt><trkpt lat="45.7535079" lon="9.4299986"><ele>209.00000000000003</ele><time>2026-04-11T10:42:30.393Z</time></trkpt><trkpt lat="45.7535903" lon="9.4300034"><ele>209.0</ele><time>2026-04-11T10:42:32.368Z</time></trkpt><trkpt lat="45.7536791" lon="9.4299675"><ele>209.0</ele><time>2026-04-11T10:42:35.37Z</time></trkpt><trkpt lat="45.7537585" lon="9.4297939"><ele>209.0</ele><time>2026-04-11T10:42:37.367Z</time></trkpt><trkpt lat="45.7538102" lon="9.4296674"><ele>209.0</ele><time>2026-04-11T10:42:38.367Z</time></trkpt><trkpt lat="45.7538701" lon="9.4295173"><ele>209.0</ele><time>2026-04-11T10:42:39.395Z</time></trkpt><trkpt lat="45.7539377" lon="9.4293459"><ele>209.0</ele><time>2026-04-11T10:42:40.396Z</time></trkpt><trkpt lat="45.7540179" lon="9.4291595"><ele>209.0</ele><time>2026-04-11T10:42:41.373Z</time></trkpt><trkpt lat="45.7541097" lon="9.4289563"><ele>209.0</ele><time>2026-04-11T10:42:42.395Z</time></trkpt><trkpt lat="45.754201" lon="9.428747"><ele>209.0</ele><time>2026-04-11T10:42:43.394Z</time></trkpt><trkpt lat="45.7542855" lon="9.4285499"><ele>209.0</ele><time>2026-04-11T10:42:44.39Z</time></trkpt><trkpt lat="45.7543595" lon="9.4283652"><ele>209.0</ele><time>2026-04-11T10:42:45.393Z</time></trkpt><trkpt lat="45.7544267" lon="9.4281916"><ele>209.0</ele><time>2026-04-11T10:42:46.367Z</time></trkpt><trkpt lat="45.7544881" lon="9.4280306"><ele>210.6</ele><time>2026-04-11T10:42:47.365Z</time></trkpt><trkpt lat="45.7545483" lon="9.4278763"><ele>212.2</ele><time>2026-04-11T10:42:48.4Z</time></trkpt><trkpt lat="45.7546059" lon="9.4277402"><ele>213.79999999999998</ele><time>2026-04-11T10:42:49.395Z</time></trkpt><trkpt lat="45.754658" lon="9.4276127"><ele>215.39999999999998</ele><time>2026-04-11T10:42:50.365Z</time></trkpt><trkpt lat="45.7547083" lon="9.427496"><ele>217.0</ele><time>2026-04-11T10:42:51.395Z</time></trkpt><trkpt lat="45.7547543" lon="9.427386"><ele>217.0</ele><time>2026-04-11T10:42:52.364Z</time></trkpt><trkpt lat="45.7547953" lon="9.4272831"><ele>217.0</ele><time>2026-04-11T10:42:53.375Z</time></trkpt><trkpt lat="45.7548349" lon="9.427195"><ele>217.0</ele><time>2026-04-11T10:42:54.394Z</time></trkpt><trkpt lat="45.754875" lon="9.4271098"><ele>217.0</ele><time>2026-04-11T10:42:55.375Z</time></trkpt><trkpt lat="45.7549088" lon="9.4270221"><ele>217.0</ele><time>2026-04-11T10:42:56.364Z</time></trkpt><trkpt lat="45.7549441" lon="9.426943"><ele>217.0</ele><time>2026-04-11T10:42:57.396Z</time></trkpt><trkpt lat="45.7549903" lon="9.4268761"><ele>217.0</ele><time>2026-04-11T10:43:00.395Z</time></trkpt><trkpt lat="45.7550552" lon="9.4267926"><ele>217.16666666666666</ele><time>2026-04-11T10:43:07.372Z</time></trkpt><trkpt lat="45.7551477" lon="9.4266974"><ele>217.33333333333331</ele><time>2026-04-11T10:43:09.392Z</time></trkpt><trkpt lat="45.7552169" lon="9.426669"><ele>217.5</ele><time>2026-04-11T10:43:10.395Z</time></trkpt><trkpt lat="45.7552934" lon="9.4266559"><ele>217.66666666666669</ele><time>2026-04-11T10:43:11.399Z</time></trkpt><trkpt lat="45.7553587" lon="9.4266572"><ele>217.83333333333334</ele><time>2026-04-11T10:43:12.362Z</time></trkpt><trkpt lat="45.755432" lon="9.4266674"><ele>218.0</ele><time>2026-04-11T10:43:15.367Z</time></trkpt><trkpt lat="45.7555163" lon="9.4266832"><ele>218.0</ele><time>2026-04-11T10:43:19.374Z</time></trkpt><trkpt lat="45.7556302" lon="9.4266942"><ele>218.0</ele><time>2026-04-11T10:43:21.396Z</time></trkpt><trkpt lat="45.7557385" lon="9.4267267"><ele>218.0</ele><time>2026-04-11T10:43:23.381Z</time></trkpt><trkpt lat="45.7558327" lon="9.4268005"><ele>218.0</ele><time>2026-04-11T10:43:25.384Z</time></trkpt><trkpt lat="45.7559267" lon="9.4268349"><ele>218.0</ele><time>2026-04-11T10:43:27.394Z</time></trkpt><trkpt lat="45.7559942" lon="9.4267628"><ele>218.0</ele><time>2026-04-11T10:43:29.374Z</time></trkpt><trkpt lat="45.7559594" lon="9.4266675"><ele>218.0</ele><time>2026-04-11T10:43:31.381Z</time></trkpt><trkpt lat="45.7558503" lon="9.4266541"><ele>218.0</ele><time>2026-04-11T10:43:33.359Z</time></trkpt><trkpt lat="45.7557555" lon="9.4266615"><ele>218.0</ele><time>2026-04-11T10:43:35.366Z</time></trkpt><trkpt lat="45.7556707" lon="9.4266626"><ele>218.0</ele><time>2026-04-11T10:43:37.374Z</time></trkpt><trkpt lat="45.7555732" lon="9.4266641"><ele>218.0</ele><time>2026-04-11T10:43:39.368Z</time></trkpt><trkpt lat="45.7554555" lon="9.4266629"><ele>218.0</ele><time>2026-04-11T10:43:41.394Z</time></trkpt><trkpt lat="45.7553432" lon="9.4266609"><ele>218.0</ele><time>2026-04-11T10:43:43.393Z</time></trkpt><trkpt lat="45.7552607" lon="9.4266613"><ele>218.0</ele><time>2026-04-11T10:43:45.367Z</time></trkpt><trkpt lat="45.7551969" lon="9.42666"><ele>218.0</ele><time>2026-04-11T10:43:47.396Z</time></trkpt><trkpt lat="45.755115" lon="9.4266524"><ele>218.33333333333334</ele><time>2026-04-11T10:43:51.385Z</time></trkpt><trkpt lat="45.7550487" lon="9.426646"><ele>218.66666666666669</ele><time>2026-04-11T10:43:53.395Z</time></trkpt><trkpt lat="45.7549836" lon="9.4266562"><ele>219.0</ele><time>2026-04-11T10:43:55.39Z</time></trkpt><trkpt lat="45.7549337" lon="9.4267336"><ele>219.33333333333331</ele><time>2026-04-11T10:43:57.394Z</time></trkpt><trkpt lat="45.7548946" lon="9.4268665"><ele>219.66666666666666</ele><time>2026-04-11T10:43:59.392Z</time></trkpt><trkpt lat="45.7548466" lon="9.4270205"><ele>220.0</ele><time>2026-04-11T10:44:01.367Z</time></trkpt><trkpt lat="45.7548203" lon="9.4271095"><ele>219.49999999999997</ele><time>2026-04-11T10:44:02.392Z</time></trkpt><trkpt lat="45.754789" lon="9.4271958"><ele>219.0</ele><time>2026-04-11T10:44:03.373Z</time></trkpt><trkpt lat="45.7547565" lon="9.4272812"><ele>218.5</ele><time>2026-04-11T10:44:04.393Z</time></trkpt><trkpt lat="45.7547262" lon="9.4273658"><ele>218.0</ele><time>2026-04-11T10:44:05.371Z</time></trkpt><trkpt lat="45.75467" lon="9.4275225"><ele>217.49999999999997</ele><time>2026-04-11T10:44:07.384Z</time></trkpt><trkpt lat="45.7546183" lon="9.427656"><ele>217.0</ele><time>2026-04-11T10:44:09.392Z</time></trkpt><trkpt lat="45.7545751" lon="9.4277873"><ele>216.99999999999997</ele><time>2026-04-11T10:44:11.37Z</time></trkpt><trkpt lat="45.7545401" lon="9.4278932"><ele>217.0</ele><time>2026-04-11T10:44:13.373Z</time></trkpt><trkpt lat="45.7545065" lon="9.4279924"><ele>217.0</ele><time>2026-04-11T10:44:15.392Z</time></trkpt><trkpt lat="45.7544893" lon="9.4281124"><ele>217.0</ele><time>2026-04-11T10:44:17.376Z</time></trkpt><trkpt lat="45.7545288" lon="9.4282193"><ele>216.99999999999997</ele><time>2026-04-11T10:44:19.393Z</time></trkpt><trkpt lat="45.7546031" lon="9.4283125"><ele>217.0</ele><time>2026-04-11T10:44:21.388Z</time></trkpt><trkpt lat="45.7546714" lon="9.4284241"><ele>216.2</ele><time>2026-04-11T10:44:23.391Z</time></trkpt><trkpt lat="45.7547237" lon="9.4285747"><ele>215.39999999999998</ele><time>2026-04-11T10:44:25.397Z</time></trkpt><trkpt lat="45.7547419" lon="9.4286976"><ele>214.60000000000002</ele><time>2026-04-11T10:44:26.387Z</time></trkpt><trkpt lat="45.7547615" lon="9.4288336"><ele>213.8</ele><time>2026-04-11T10:44:27.409Z</time></trkpt><trkpt lat="45.7547615" lon="9.4290412"><ele>213.0</ele><time>2026-04-11T10:44:28.393Z</time></trkpt><trkpt lat="45.7547645" lon="9.4292403"><ele>212.75</ele><time>2026-04-11T10:44:29.397Z</time></trkpt><trkpt lat="45.7547682" lon="9.4294286"><ele>212.5</ele><time>2026-04-11T10:44:30.37Z</time></trkpt><trkpt lat="45.7547768" lon="9.4296101"><ele>212.25</ele><time>2026-04-11T10:44:31.391Z</time></trkpt><trkpt lat="45.7547859" lon="9.4297867"><ele>212.0</ele><time>2026-04-11T10:44:32.368Z</time></trkpt><trkpt lat="45.7547917" lon="9.4299532"><ele>211.6</ele><time>2026-04-11T10:44:33.398Z</time></trkpt><trkpt lat="45.7547951" lon="9.4301131"><ele>211.2</ele><time>2026-04-11T10:44:34.39Z</time></trkpt><trkpt lat="45.7547992" lon="9.4302615"><ele>210.8</ele><time>2026-04-11T10:44:35.397Z</time></trkpt><trkpt lat="45.7548041" lon="9.4304032"><ele>210.4</ele><time>2026-04-11T10:44:36.373Z</time></trkpt><trkpt lat="45.7548128" lon="9.4305269"><ele>210.0</ele><time>2026-04-11T10:44:37.373Z</time></trkpt><trkpt lat="45.7548347" lon="9.4306569"><ele>209.5</ele><time>2026-04-11T10:44:38.386Z</time></trkpt><trkpt lat="45.75488" lon="9.4307918"><ele>209.0</ele><time>2026-04-11T10:44:39.392Z</time></trkpt><trkpt lat="45.7549401" lon="9.4309444"><ele>208.5</ele><time>2026-04-11T10:44:40.394Z</time></trkpt><trkpt lat="45.7549946" lon="9.4310913"><ele>208.0</ele><time>2026-04-11T10:44:41.367Z</time></trkpt><trkpt lat="45.7550483" lon="9.4312255"><ele>207.60000000000002</ele><time>2026-04-11T10:44:42.396Z</time></trkpt><trkpt lat="45.7550999" lon="9.4313564"><ele>207.20000000000002</ele><time>2026-04-11T10:44:43.392Z</time></trkpt><trkpt lat="45.7551495" lon="9.4314866"><ele>206.8</ele><time>2026-04-11T10:44:44.397Z</time></trkpt><trkpt lat="45.7551952" lon="9.4316086"><ele>206.4</ele><time>2026-04-11T10:44:45.373Z</time></trkpt><trkpt lat="45.7552386" lon="9.4317186"><ele>206.0</ele><time>2026-04-11T10:44:46.365Z</time></trkpt><trkpt lat="45.7552755" lon="9.4318158"><ele>206.00000000000003</ele><time>2026-04-11T10:44:47.367Z</time></trkpt><trkpt lat="45.7553322" lon="9.4319104"><ele>206.0</ele><time>2026-04-11T10:44:49.364Z</time></trkpt><trkpt lat="45.7553916" lon="9.4319527"><ele>206.0</ele><time>2026-04-11T10:44:51.388Z</time></trkpt><trkpt lat="45.7554793" lon="9.4319634"><ele>206.0</ele><time>2026-04-11T10:44:54.365Z</time></trkpt><trkpt lat="45.7555869" lon="9.4320044"><ele>206.00000000000003</ele><time>2026-04-11T10:44:56.362Z</time></trkpt><trkpt lat="45.7556526" lon="9.4320279"><ele>206.0</ele><time>2026-04-11T10:44:57.364Z</time></trkpt><trkpt lat="45.7557668" lon="9.4320617"><ele>206.00000000000003</ele><time>2026-04-11T10:44:59.368Z</time></trkpt><trkpt lat="45.7558904" lon="9.4320752"><ele>206.0</ele><time>2026-04-11T10:45:01.396Z</time></trkpt><trkpt lat="45.7559545" lon="9.4320802"><ele>206.0</ele><time>2026-04-11T10:45:02.382Z</time></trkpt><trkpt lat="45.7560226" lon="9.432092"><ele>206.0</ele><time>2026-04-11T10:45:03.37Z</time></trkpt><trkpt lat="45.7560917" lon="9.4321133"><ele>206.00000000000003</ele><time>2026-04-11T10:45:04.395Z</time></trkpt><trkpt lat="45.7561688" lon="9.4321591"><ele>206.0</ele><time>2026-04-11T10:45:05.366Z</time></trkpt><trkpt lat="45.7562593" lon="9.4322264"><ele>205.4</ele><time>2026-04-11T10:45:06.368Z</time></trkpt><trkpt lat="45.756349" lon="9.432305"><ele>204.8</ele><time>2026-04-11T10:45:07.392Z</time></trkpt><trkpt lat="45.7564287" lon="9.4323791"><ele>204.20000000000002</ele><time>2026-04-11T10:45:08.368Z</time></trkpt><trkpt lat="45.7565081" lon="9.4324426"><ele>203.60000000000002</ele><time>2026-04-11T10:45:09.373Z</time></trkpt><trkpt lat="45.7565849" lon="9.4324916"><ele>203.0</ele><time>2026-04-11T10:45:10.37Z</time></trkpt><trkpt lat="45.75668" lon="9.4325384"><ele>203.0</ele><time>2026-04-11T10:45:11.369Z</time></trkpt><trkpt lat="45.7567639" lon="9.4325865"><ele>203.0</ele><time>2026-04-11T10:45:12.396Z</time></trkpt><trkpt lat="45.7568581" lon="9.4326223"><ele>203.0</ele><time>2026-04-11T10:45:13.372Z</time></trkpt><trkpt lat="45.7569357" lon="9.4326552"><ele>203.0</ele><time>2026-04-11T10:45:14.365Z</time></trkpt><trkpt lat="45.7570361" lon="9.4327102"><ele>203.0</ele><time>2026-04-11T10:45:16.369Z</time></trkpt><trkpt lat="45.7571054" lon="9.4327533"><ele>202.50000000000003</ele><time>2026-04-11T10:45:19.371Z</time></trkpt><trkpt lat="45.7571685" lon="9.4328607"><ele>202.0</ele><time>2026-04-11T10:45:24.371Z</time></trkpt><trkpt lat="45.7572065" lon="9.4329573"><ele>201.5</ele><time>2026-04-11T10:45:25.394Z</time></trkpt><trkpt lat="45.7572439" lon="9.433058"><ele>201.0</ele><time>2026-04-11T10:45:26.363Z</time></trkpt><trkpt lat="45.7572817" lon="9.4331518"><ele>200.50000000000003</ele><time>2026-04-11T10:45:27.372Z</time></trkpt><trkpt lat="45.7573222" lon="9.4332379"><ele>200.0</ele><time>2026-04-11T10:45:28.365Z</time></trkpt><trkpt lat="45.757367" lon="9.4333057"><ele>200.00000000000003</ele><time>2026-04-11T10:45:29.366Z</time></trkpt><trkpt lat="45.7574198" lon="9.4333701"><ele>200.0</ele><time>2026-04-11T10:45:30.365Z</time></trkpt><trkpt lat="45.757481" lon="9.4334372"><ele>200.0</ele><time>2026-04-11T10:45:31.365Z</time></trkpt><trkpt lat="45.7575458" lon="9.4334957"><ele>200.0</ele><time>2026-04-11T10:45:32.366Z</time></trkpt><trkpt lat="45.7576157" lon="9.4335465"><ele>200.00000000000003</ele><time>2026-04-11T10:45:33.369Z</time></trkpt><trkpt lat="45.7576865" lon="9.4335997"><ele>200.0</ele><time>2026-04-11T10:45:34.37Z</time></trkpt><trkpt lat="45.7577563" lon="9.4336521"><ele>199.85714285714286</ele><time>2026-04-11T10:45:35.396Z</time></trkpt><trkpt lat="45.7578181" lon="9.4337092"><ele>199.71428571428572</ele><time>2026-04-11T10:45:36.373Z</time></trkpt><trkpt lat="45.7578851" lon="9.4337543"><ele>199.57142857142856</ele><time>2026-04-11T10:45:37.367Z</time></trkpt><trkpt lat="45.7579524" lon="9.4337905"><ele>199.42857142857144</ele><time>2026-04-11T10:45:38.392Z</time></trkpt><trkpt lat="45.758019" lon="9.433826"><ele>199.28571428571428</ele><time>2026-04-11T10:45:39.367Z</time></trkpt><trkpt lat="45.7580837" lon="9.4338655"><ele>199.14285714285714</ele><time>2026-04-11T10:45:40.371Z</time></trkpt><trkpt lat="45.7581483" lon="9.4338962"><ele>199.0</ele><time>2026-04-11T10:45:41.365Z</time></trkpt><trkpt lat="45.7582101" lon="9.4339156"><ele>199.0</ele><time>2026-04-11T10:45:42.37Z</time></trkpt><trkpt lat="45.7583195" lon="9.43394"><ele>199.0</ele><time>2026-04-11T10:45:44.371Z</time></trkpt><trkpt lat="45.7584293" lon="9.4339132"><ele>199.0</ele><time>2026-04-11T10:45:46.367Z</time></trkpt><trkpt lat="45.7584929" lon="9.4338865"><ele>199.0</ele><time>2026-04-11T10:45:47.367Z</time></trkpt><trkpt lat="45.7585985" lon="9.4338402"><ele>199.0</ele><time>2026-04-11T10:45:49.367Z</time></trkpt><trkpt lat="45.7586778" lon="9.4338337"><ele>198.66666666666666</ele><time>2026-04-11T10:45:51.363Z</time></trkpt><trkpt lat="45.7587467" lon="9.4338754"><ele>198.33333333333331</ele><time>2026-04-11T10:46:12.37Z</time></trkpt><trkpt lat="45.7588181" lon="9.4339174"><ele>198.0</ele><time>2026-04-11T10:46:14.376Z</time></trkpt><trkpt lat="45.7588748" lon="9.4339728"><ele>197.66666666666669</ele><time>2026-04-11T10:46:15.366Z</time></trkpt><trkpt lat="45.7589424" lon="9.4340392"><ele>197.33333333333334</ele><time>2026-04-11T10:46:16.371Z</time></trkpt><trkpt lat="45.7590243" lon="9.4341159"><ele>197.0</ele><time>2026-04-11T10:46:17.364Z</time></trkpt><trkpt lat="45.7591136" lon="9.4342027"><ele>197.0</ele><time>2026-04-11T10:46:18.37Z</time></trkpt><trkpt lat="45.7591979" lon="9.4342926"><ele>197.0</ele><time>2026-04-11T10:46:19.364Z</time></trkpt><trkpt lat="45.7592886" lon="9.4343961"><ele>197.0</ele><time>2026-04-11T10:46:20.369Z</time></trkpt><trkpt lat="45.7593813" lon="9.4345099"><ele>197.0</ele><time>2026-04-11T10:46:21.367Z</time></trkpt><trkpt lat="45.7594725" lon="9.4346225"><ele>196.39999999999998</ele><time>2026-04-11T10:46:22.365Z</time></trkpt><trkpt lat="45.7595625" lon="9.4347263"><ele>195.79999999999998</ele><time>2026-04-11T10:46:23.365Z</time></trkpt><trkpt lat="45.7596483" lon="9.4348288"><ele>195.2</ele><time>2026-04-11T10:46:24.37Z</time></trkpt><trkpt lat="45.7597265" lon="9.4349258"><ele>194.6</ele><time>2026-04-11T10:46:25.367Z</time></trkpt><trkpt lat="45.7598024" lon="9.4350212"><ele>194.0</ele><time>2026-04-11T10:46:26.363Z</time></trkpt><trkpt lat="45.7598666" lon="9.4351068"><ele>194.00000000000003</ele><time>2026-04-11T10:46:27.368Z</time></trkpt><trkpt lat="45.7599261" lon="9.4351859"><ele>194.0</ele><time>2026-04-11T10:46:28.371Z</time></trkpt><trkpt lat="45.7599823" lon="9.4352481"><ele>194.0</ele><time>2026-04-11T10:46:29.364Z</time></trkpt><trkpt lat="45.7600452" lon="9.4353026"><ele>194.0</ele><time>2026-04-11T10:46:30.37Z</time></trkpt><trkpt lat="45.7601158" lon="9.4353453"><ele>194.00000000000003</ele><time>2026-04-11T10:46:31.367Z</time></trkpt><trkpt lat="45.760187" lon="9.4353704"><ele>194.0</ele><time>2026-04-11T10:46:32.37Z</time></trkpt><trkpt lat="45.7603027" lon="9.435397"><ele>194.16666666666669</ele><time>2026-04-11T10:46:34.37Z</time></trkpt><trkpt lat="45.7603964" lon="9.4354225"><ele>194.33333333333334</ele><time>2026-04-11T10:46:36.371Z</time></trkpt><trkpt lat="45.7604934" lon="9.4354479"><ele>194.5</ele><time>2026-04-11T10:46:38.37Z</time></trkpt><trkpt lat="45.7605746" lon="9.435487"><ele>194.66666666666669</ele><time>2026-04-11T10:46:40.37Z</time></trkpt><trkpt lat="45.7606268" lon="9.4355411"><ele>194.83333333333334</ele><time>2026-04-11T10:46:42.368Z</time></trkpt><trkpt lat="45.7606865" lon="9.4355767"><ele>195.0</ele><time>2026-04-11T10:46:45.366Z</time></trkpt><trkpt lat="45.7607803" lon="9.4355073"><ele>195.0</ele><time>2026-04-11T10:46:47.37Z</time></trkpt><trkpt lat="45.7608842" lon="9.4354022"><ele>195.0</ele><time>2026-04-11T10:46:49.366Z</time></trkpt><trkpt lat="45.7609465" lon="9.4353293"><ele>195.0</ele><time>2026-04-11T10:46:50.37Z</time></trkpt><trkpt lat="45.7610161" lon="9.4352347"><ele>195.0</ele><time>2026-04-11T10:46:51.368Z</time></trkpt><trkpt lat="45.7610817" lon="9.4351464"><ele>195.0</ele><time>2026-04-11T10:46:52.368Z</time></trkpt><trkpt lat="45.7611426" lon="9.4350672"><ele>195.33333333333334</ele><time>2026-04-11T10:46:53.365Z</time></trkpt><trkpt lat="45.7612074" lon="9.4349837"><ele>195.66666666666669</ele><time>2026-04-11T10:46:54.371Z</time></trkpt><trkpt lat="45.7612592" lon="9.4349073"><ele>196.0</ele><time>2026-04-11T10:46:55.366Z</time></trkpt><trkpt lat="45.7613029" lon="9.4348368"><ele>196.33333333333334</ele><time>2026-04-11T10:46:56.372Z</time></trkpt><trkpt lat="45.7613416" lon="9.4347618"><ele>196.66666666666669</ele><time>2026-04-11T10:46:57.364Z</time></trkpt><trkpt lat="45.7614074" lon="9.4346248"><ele>197.0</ele><time>2026-04-11T10:46:59.369Z</time></trkpt><trkpt lat="45.7614528" lon="9.4344931"><ele>197.2</ele><time>2026-04-11T10:47:01.367Z</time></trkpt><trkpt lat="45.7614999" lon="9.4343505"><ele>197.39999999999998</ele><time>2026-04-11T10:47:03.362Z</time></trkpt><trkpt lat="45.7615321" lon="9.434219"><ele>197.60000000000002</ele><time>2026-04-11T10:47:05.362Z</time></trkpt><trkpt lat="45.7615576" lon="9.434064"><ele>197.8</ele><time>2026-04-11T10:47:07.366Z</time></trkpt><trkpt lat="45.7615758" lon="9.4339449"><ele>198.0</ele><time>2026-04-11T10:47:09.364Z</time></trkpt><trkpt lat="45.7615907" lon="9.4338403"><ele>197.83333333333334</ele><time>2026-04-11T10:47:11.364Z</time></trkpt><trkpt lat="45.7616044" lon="9.4337063"><ele>197.66666666666669</ele><time>2026-04-11T10:47:14.373Z</time></trkpt><trkpt lat="45.7616264" lon="9.4335591"><ele>197.5</ele><time>2026-04-11T10:47:16.362Z</time></trkpt><trkpt lat="45.761642" lon="9.4334687"><ele>197.33333333333334</ele><time>2026-04-11T10:47:17.363Z</time></trkpt><trkpt lat="45.7616599" lon="9.4333752"><ele>197.16666666666669</ele><time>2026-04-11T10:47:18.364Z</time></trkpt><trkpt lat="45.7616745" lon="9.4332824"><ele>197.0</ele><time>2026-04-11T10:47:19.365Z</time></trkpt><trkpt lat="45.7617015" lon="9.4331295"><ele>197.0</ele><time>2026-04-11T10:47:21.368Z</time></trkpt><trkpt lat="45.7617175" lon="9.4330081"><ele>197.0</ele><time>2026-04-11T10:47:23.364Z</time></trkpt><trkpt lat="45.7617421" lon="9.4328464"><ele>197.0</ele><time>2026-04-11T10:47:25.365Z</time></trkpt><trkpt lat="45.7617511" lon="9.4327511"><ele>197.0</ele><time>2026-04-11T10:47:26.372Z</time></trkpt><trkpt lat="45.7617598" lon="9.4325854"><ele>197.0</ele><time>2026-04-11T10:47:28.363Z</time></trkpt><trkpt lat="45.761739" lon="9.4324148"><ele>197.39999999999998</ele><time>2026-04-11T10:47:30.372Z</time></trkpt><trkpt lat="45.7617185" lon="9.432322"><ele>197.79999999999998</ele><time>2026-04-11T10:47:31.367Z</time></trkpt><trkpt lat="45.7616718" lon="9.4321753"><ele>198.2</ele><time>2026-04-11T10:47:33.365Z</time></trkpt><trkpt lat="45.7616433" lon="9.4319962"><ele>198.6</ele><time>2026-04-11T10:47:35.364Z</time></trkpt><trkpt lat="45.7616421" lon="9.4318869"><ele>199.0</ele><time>2026-04-11T10:47:36.369Z</time></trkpt><trkpt lat="45.7616369" lon="9.431763"><ele>199.33333333333331</ele><time>2026-04-11T10:47:37.364Z</time></trkpt><trkpt lat="45.7616302" lon="9.4316583"><ele>199.66666666666666</ele><time>2026-04-11T10:47:38.372Z</time></trkpt><trkpt lat="45.7616361" lon="9.4315579"><ele>200.0</ele><time>2026-04-11T10:47:39.366Z</time></trkpt><trkpt lat="45.7616459" lon="9.4314446"><ele>200.33333333333331</ele><time>2026-04-11T10:47:40.362Z</time></trkpt><trkpt lat="45.7616615" lon="9.4313209"><ele>200.66666666666666</ele><time>2026-04-11T10:47:41.363Z</time></trkpt><trkpt lat="45.761683" lon="9.4312154"><ele>201.0</ele><time>2026-04-11T10:47:42.372Z</time></trkpt><trkpt lat="45.7617008" lon="9.4310929"><ele>201.0</ele><time>2026-04-11T10:47:43.365Z</time></trkpt><trkpt lat="45.7617284" lon="9.4309637"><ele>201.0</ele><time>2026-04-11T10:47:44.366Z</time></trkpt><trkpt lat="45.7617489" lon="9.4308566"><ele>201.0</ele><time>2026-04-11T10:47:45.368Z</time></trkpt><trkpt lat="45.7617681" lon="9.4307549"><ele>201.0</ele><time>2026-04-11T10:47:46.372Z</time></trkpt><trkpt lat="45.7617792" lon="9.4306655"><ele>201.0</ele><time>2026-04-11T10:47:47.364Z</time></trkpt><trkpt lat="45.7618052" lon="9.4304886"><ele>201.0</ele><time>2026-04-11T10:47:49.365Z</time></trkpt><trkpt lat="45.7618245" lon="9.4303951"><ele>200.83333333333334</ele><time>2026-04-11T10:47:50.372Z</time></trkpt><trkpt lat="45.7618485" lon="9.4302934"><ele>200.66666666666669</ele><time>2026-04-11T10:47:51.362Z</time></trkpt><trkpt lat="45.7618746" lon="9.4301778"><ele>200.5</ele><time>2026-04-11T10:47:52.365Z</time></trkpt><trkpt lat="45.7619039" lon="9.4300811"><ele>200.33333333333334</ele><time>2026-04-11T10:47:53.393Z</time></trkpt><trkpt lat="45.7619322" lon="9.4299712"><ele>200.16666666666669</ele><time>2026-04-11T10:47:54.371Z</time></trkpt><trkpt lat="45.7619579" lon="9.4298574"><ele>200.0</ele><time>2026-04-11T10:47:55.367Z</time></trkpt><trkpt lat="45.761991" lon="9.4297366"><ele>199.33333333333334</ele><time>2026-04-11T10:47:56.363Z</time></trkpt><trkpt lat="45.7620133" lon="9.429621"><ele>198.66666666666669</ele><time>2026-04-11T10:47:57.366Z</time></trkpt><trkpt lat="45.762045" lon="9.4295097"><ele>198.0</ele><time>2026-04-11T10:47:58.374Z</time></trkpt><trkpt lat="45.7620742" lon="9.4294086"><ele>197.33333333333331</ele><time>2026-04-11T10:47:59.365Z</time></trkpt><trkpt lat="45.7621008" lon="9.4293132"><ele>196.66666666666666</ele><time>2026-04-11T10:48:00.366Z</time></trkpt><trkpt lat="45.7621244" lon="9.4292143"><ele>196.0</ele><time>2026-04-11T10:48:01.364Z</time></trkpt><trkpt lat="45.762154" lon="9.4291118"><ele>196.0</ele><time>2026-04-11T10:48:02.371Z</time></trkpt><trkpt lat="45.7621861" lon="9.4290041"><ele>196.0</ele><time>2026-04-11T10:48:03.394Z</time></trkpt><trkpt lat="45.7622101" lon="9.4289054"><ele>196.0</ele><time>2026-04-11T10:48:04.372Z</time></trkpt><trkpt lat="45.7622403" lon="9.4288096"><ele>196.0</ele><time>2026-04-11T10:48:05.367Z</time></trkpt><trkpt lat="45.7622582" lon="9.4287184"><ele>196.0</ele><time>2026-04-11T10:48:06.361Z</time></trkpt><trkpt lat="45.7622866" lon="9.428631"><ele>196.0</ele><time>2026-04-11T10:48:07.367Z</time></trkpt><trkpt lat="45.7623249" lon="9.4285246"><ele>196.0</ele><time>2026-04-11T10:48:09.367Z</time></trkpt><trkpt lat="45.7623632" lon="9.4284112"><ele>196.60000000000002</ele><time>2026-04-11T10:48:11.367Z</time></trkpt><trkpt lat="45.7624025" lon="9.4282782"><ele>197.2</ele><time>2026-04-11T10:48:14.37Z</time></trkpt><trkpt lat="45.7624498" lon="9.4281291"><ele>197.8</ele><time>2026-04-11T10:48:16.366Z</time></trkpt><trkpt lat="45.7624768" lon="9.4280445"><ele>198.39999999999998</ele><time>2026-04-11T10:48:17.378Z</time></trkpt><trkpt lat="45.7625263" lon="9.4279126"><ele>199.0</ele><time>2026-04-11T10:48:19.371Z</time></trkpt><trkpt lat="45.7626076" lon="9.4277704"><ele>199.0</ele><time>2026-04-11T10:48:21.372Z</time></trkpt><trkpt lat="45.7626965" lon="9.4276483"><ele>199.0</ele><time>2026-04-11T10:48:23.366Z</time></trkpt><trkpt lat="45.7627509" lon="9.4275816"><ele>199.0</ele><time>2026-04-11T10:48:24.366Z</time></trkpt><trkpt lat="45.7627837" lon="9.4275033"><ele>199.0</ele><time>2026-04-11T10:48:25.369Z</time></trkpt><trkpt lat="45.7628666" lon="9.4273942"><ele>199.0</ele><time>2026-04-11T10:48:27.369Z</time></trkpt><trkpt lat="45.7629464" lon="9.42731"><ele>198.6</ele><time>2026-04-11T10:48:29.369Z</time></trkpt><trkpt lat="45.7630376" lon="9.4271931"><ele>198.2</ele><time>2026-04-11T10:48:31.369Z</time></trkpt><trkpt lat="45.76313" lon="9.427102"><ele>197.79999999999998</ele><time>2026-04-11T10:48:33.368Z</time></trkpt><trkpt lat="45.7632324" lon="9.42699"><ele>197.39999999999998</ele><time>2026-04-11T10:48:35.368Z</time></trkpt><trkpt lat="45.7632844" lon="9.4269343"><ele>197.0</ele><time>2026-04-11T10:48:36.368Z</time></trkpt><trkpt lat="45.7633883" lon="9.4268495"><ele>197.16666666666669</ele><time>2026-04-11T10:48:38.37Z</time></trkpt><trkpt lat="45.7634816" lon="9.4267842"><ele>197.33333333333334</ele><time>2026-04-11T10:48:40.371Z</time></trkpt><trkpt lat="45.7635596" lon="9.4267274"><ele>197.5</ele><time>2026-04-11T10:48:42.363Z</time></trkpt><trkpt lat="45.7636244" lon="9.4266875"><ele>197.66666666666669</ele><time>2026-04-11T10:48:44.371Z</time></trkpt><trkpt lat="45.7636893" lon="9.426643"><ele>197.83333333333334</ele><time>2026-04-11T10:48:47.373Z</time></trkpt><trkpt lat="45.7637556" lon="9.4266021"><ele>198.0</ele><time>2026-04-11T10:48:50.373Z</time></trkpt><trkpt lat="45.7638313" lon="9.4265594"><ele>198.0</ele><time>2026-04-11T10:48:52.368Z</time></trkpt><trkpt lat="45.7638936" lon="9.4265188"><ele>198.0</ele><time>2026-04-11T10:48:54.37Z</time></trkpt><trkpt lat="45.763958" lon="9.4264806"><ele>198.0</ele><time>2026-04-11T10:48:56.366Z</time></trkpt><trkpt lat="45.7640586" lon="9.426427"><ele>198.0</ele><time>2026-04-11T10:48:58.37Z</time></trkpt><trkpt lat="45.7641235" lon="9.4264015"><ele>198.0</ele><time>2026-04-11T10:48:59.369Z</time></trkpt><trkpt lat="45.7641957" lon="9.4263683"><ele>198.0</ele><time>2026-04-11T10:49:00.371Z</time></trkpt><trkpt lat="45.7642701" lon="9.4263336"><ele>198.83333333333334</ele><time>2026-04-11T10:49:01.37Z</time></trkpt><trkpt lat="45.7643483" lon="9.426294"><ele>199.66666666666669</ele><time>2026-04-11T10:49:02.372Z</time></trkpt><trkpt lat="45.7644295" lon="9.4262531"><ele>200.5</ele><time>2026-04-11T10:49:03.368Z</time></trkpt><trkpt lat="45.764504" lon="9.4262139"><ele>201.33333333333334</ele><time>2026-04-11T10:49:04.374Z</time></trkpt><trkpt lat="45.7645848" lon="9.426171"><ele>202.16666666666669</ele><time>2026-04-11T10:49:05.367Z</time></trkpt><trkpt lat="45.7646624" lon="9.4261296"><ele>203.0</ele><time>2026-04-11T10:49:06.37Z</time></trkpt><trkpt lat="45.764739" lon="9.4260867"><ele>203.0</ele><time>2026-04-11T10:49:07.401Z</time></trkpt><trkpt lat="45.7648303" lon="9.4260448"><ele>203.0</ele><time>2026-04-11T10:49:08.372Z</time></trkpt><trkpt lat="45.7649196" lon="9.4260018"><ele>203.0</ele><time>2026-04-11T10:49:09.369Z</time></trkpt><trkpt lat="45.7650164" lon="9.4259503"><ele>203.0</ele><time>2026-04-11T10:49:10.379Z</time></trkpt><trkpt lat="45.765111" lon="9.4259062"><ele>203.0</ele><time>2026-04-11T10:49:11.366Z</time></trkpt><trkpt lat="45.7652039" lon="9.4258641"><ele>202.0</ele><time>2026-04-11T10:49:12.364Z</time></trkpt><trkpt lat="45.7652984" lon="9.4258224"><ele>201.0</ele><time>2026-04-11T10:49:13.368Z</time></trkpt><trkpt lat="45.7653947" lon="9.4257775"><ele>200.0</ele><time>2026-04-11T10:49:14.373Z</time></trkpt><trkpt lat="45.7654853" lon="9.4257388"><ele>199.0</ele><time>2026-04-11T10:49:15.365Z</time></trkpt><trkpt lat="45.7655776" lon="9.4257017"><ele>198.0</ele><time>2026-04-11T10:49:16.375Z</time></trkpt><trkpt lat="45.7656744" lon="9.4256767"><ele>198.0</ele><time>2026-04-11T10:49:17.369Z</time></trkpt><trkpt lat="45.7657691" lon="9.4256503"><ele>198.0</ele><time>2026-04-11T10:49:18.371Z</time></trkpt><trkpt lat="45.76586" lon="9.4256187"><ele>198.0</ele><time>2026-04-11T10:49:19.377Z</time></trkpt><trkpt lat="45.7659424" lon="9.4255948"><ele>198.0</ele><time>2026-04-11T10:49:20.367Z</time></trkpt><trkpt lat="45.766027" lon="9.4255676"><ele>198.0</ele><time>2026-04-11T10:49:21.365Z</time></trkpt><trkpt lat="45.7661109" lon="9.4255446"><ele>198.0</ele><time>2026-04-11T10:49:22.374Z</time></trkpt><trkpt lat="45.7661958" lon="9.4255281"><ele>198.0</ele><time>2026-04-11T10:49:23.364Z</time></trkpt><trkpt lat="45.7662877" lon="9.4255143"><ele>198.0</ele><time>2026-04-11T10:49:24.372Z</time></trkpt><trkpt lat="45.7663755" lon="9.4255048"><ele>198.0</ele><time>2026-04-11T10:49:25.368Z</time></trkpt><trkpt lat="45.7664604" lon="9.4254966"><ele>198.0</ele><time>2026-04-11T10:49:26.371Z</time></trkpt><trkpt lat="45.7665383" lon="9.425499"><ele>198.0</ele><time>2026-04-11T10:49:27.368Z</time></trkpt><trkpt lat="45.76661" lon="9.4254967"><ele>198.0</ele><time>2026-04-11T10:49:28.367Z</time></trkpt><trkpt lat="45.766676" lon="9.4254979"><ele>198.0</ele><time>2026-04-11T10:49:29.367Z</time></trkpt><trkpt lat="45.766791" lon="9.4254934"><ele>198.0</ele><time>2026-04-11T10:49:31.364Z</time></trkpt><trkpt lat="45.7669135" lon="9.425471"><ele>198.0</ele><time>2026-04-11T10:49:33.368Z</time></trkpt><trkpt lat="45.767032" lon="9.4254215"><ele>198.0</ele><time>2026-04-11T10:49:35.367Z</time></trkpt><trkpt lat="45.7670976" lon="9.4253955"><ele>198.0</ele><time>2026-04-11T10:49:36.368Z</time></trkpt><trkpt lat="45.7671641" lon="9.4253656"><ele>199.0</ele><time>2026-04-11T10:49:37.369Z</time></trkpt><trkpt lat="45.7672275" lon="9.4253304"><ele>200.0</ele><time>2026-04-11T10:49:38.37Z</time></trkpt><trkpt lat="45.7672906" lon="9.4253032"><ele>201.0</ele><time>2026-04-11T10:49:39.368Z</time></trkpt><trkpt lat="45.767411" lon="9.4252683"><ele>202.0</ele><time>2026-04-11T10:49:41.37Z</time></trkpt><trkpt lat="45.767535" lon="9.4252676"><ele>203.0</ele><time>2026-04-11T10:49:43.367Z</time></trkpt><trkpt lat="45.7676575" lon="9.4252811"><ele>202.60000000000002</ele><time>2026-04-11T10:49:45.371Z</time></trkpt><trkpt lat="45.767769" lon="9.425301"><ele>202.20000000000002</ele><time>2026-04-11T10:49:47.365Z</time></trkpt><trkpt lat="45.7678661" lon="9.4253239"><ele>201.8</ele><time>2026-04-11T10:49:49.369Z</time></trkpt><trkpt lat="45.7679639" lon="9.4253477"><ele>201.4</ele><time>2026-04-11T10:49:51.368Z</time></trkpt><trkpt lat="45.7680622" lon="9.4253747"><ele>201.0</ele><time>2026-04-11T10:49:53.368Z</time></trkpt><trkpt lat="45.7681796" lon="9.4254125"><ele>201.0</ele><time>2026-04-11T10:49:55.368Z</time></trkpt><trkpt lat="45.7682439" lon="9.4254288"><ele>201.0</ele><time>2026-04-11T10:49:56.372Z</time></trkpt><trkpt lat="45.7683586" lon="9.425464"><ele>201.0</ele><time>2026-04-11T10:49:58.371Z</time></trkpt><trkpt lat="45.7684687" lon="9.4255186"><ele>201.0</ele><time>2026-04-11T10:50:00.369Z</time></trkpt><trkpt lat="45.7685638" lon="9.4255791"><ele>201.0</ele><time>2026-04-11T10:50:02.372Z</time></trkpt><trkpt lat="45.7686568" lon="9.425643"><ele>200.66666666666666</ele><time>2026-04-11T10:50:04.372Z</time></trkpt><trkpt lat="45.7687333" lon="9.4256917"><ele>200.33333333333331</ele><time>2026-04-11T10:50:06.365Z</time></trkpt><trkpt lat="45.768795" lon="9.4257362"><ele>200.0</ele><time>2026-04-11T10:50:08.365Z</time></trkpt><trkpt lat="45.768865" lon="9.4257752"><ele>199.66666666666666</ele><time>2026-04-11T10:50:17.364Z</time></trkpt><trkpt lat="45.7689576" lon="9.4258438"><ele>199.33333333333331</ele><time>2026-04-11T10:50:19.373Z</time></trkpt><trkpt lat="45.7690463" lon="9.4259239"><ele>199.0</ele><time>2026-04-11T10:50:21.37Z</time></trkpt><trkpt lat="45.7691148" lon="9.4259998"><ele>198.99999999999997</ele><time>2026-04-11T10:50:23.364Z</time></trkpt><trkpt lat="45.7691781" lon="9.4260925"><ele>199.0</ele><time>2026-04-11T10:50:25.366Z</time></trkpt><trkpt lat="45.7692412" lon="9.4261927"><ele>199.0</ele><time>2026-04-11T10:50:27.378Z</time></trkpt><trkpt lat="45.7692995" lon="9.426285"><ele>199.0</ele><time>2026-04-11T10:50:29.368Z</time></trkpt><trkpt lat="45.7693771" lon="9.426388"><ele>198.99999999999997</ele><time>2026-04-11T10:50:31.367Z</time></trkpt><trkpt lat="45.7694338" lon="9.4264411"><ele>199.0</ele><time>2026-04-11T10:50:32.368Z</time></trkpt><trkpt lat="45.7694933" lon="9.4264871"><ele>199.66666666666666</ele><time>2026-04-11T10:50:33.368Z</time></trkpt><trkpt lat="45.7695556" lon="9.4265411"><ele>200.33333333333331</ele><time>2026-04-11T10:50:34.366Z</time></trkpt><trkpt lat="45.7696153" lon="9.4265941"><ele>201.0</ele><time>2026-04-11T10:50:35.367Z</time></trkpt><trkpt lat="45.769683" lon="9.4266572"><ele>201.66666666666669</ele><time>2026-04-11T10:50:36.369Z</time></trkpt><trkpt lat="45.7697601" lon="9.426721"><ele>202.33333333333334</ele><time>2026-04-11T10:50:37.368Z</time></trkpt><trkpt lat="45.7698276" lon="9.4267823"><ele>203.0</ele><time>2026-04-11T10:50:38.372Z</time></trkpt><trkpt lat="45.7698885" lon="9.4268337"><ele>203.00000000000003</ele><time>2026-04-11T10:50:39.366Z</time></trkpt><trkpt lat="45.7699998" lon="9.4269248"><ele>203.0</ele><time>2026-04-11T10:50:41.371Z</time></trkpt><trkpt lat="45.770051" lon="9.4269821"><ele>203.0</ele><time>2026-04-11T10:50:42.371Z</time></trkpt><trkpt lat="45.7701035" lon="9.4270504"><ele>203.0</ele><time>2026-04-11T10:50:43.372Z</time></trkpt><trkpt lat="45.7701527" lon="9.4271275"><ele>203.00000000000003</ele><time>2026-04-11T10:50:44.371Z</time></trkpt><trkpt lat="45.7702048" lon="9.4272156"><ele>203.0</ele><time>2026-04-11T10:50:45.372Z</time></trkpt><trkpt lat="45.770249" lon="9.4273056"><ele>202.16666666666669</ele><time>2026-04-11T10:50:46.372Z</time></trkpt><trkpt lat="45.7702934" lon="9.4273948"><ele>201.33333333333334</ele><time>2026-04-11T10:50:47.371Z</time></trkpt><trkpt lat="45.7703418" lon="9.4274906"><ele>200.5</ele><time>2026-04-11T10:50:48.362Z</time></trkpt><trkpt lat="45.7703896" lon="9.4275894"><ele>199.66666666666669</ele><time>2026-04-11T10:50:49.373Z</time></trkpt><trkpt lat="45.7704386" lon="9.4276849"><ele>198.83333333333334</ele><time>2026-04-11T10:50:50.368Z</time></trkpt><trkpt lat="45.7704904" lon="9.4277759"><ele>198.0</ele><time>2026-04-11T10:50:51.371Z</time></trkpt><trkpt lat="45.7705392" lon="9.4278594"><ele>198.0</ele><time>2026-04-11T10:50:52.367Z</time></trkpt><trkpt lat="45.7705824" lon="9.4279319"><ele>198.0</ele><time>2026-04-11T10:50:53.373Z</time></trkpt><trkpt lat="45.7706367" lon="9.4279959"><ele>198.0</ele><time>2026-04-11T10:50:54.367Z</time></trkpt><trkpt lat="45.7706999" lon="9.4280565"><ele>198.0</ele><time>2026-04-11T10:50:55.366Z</time></trkpt><trkpt lat="45.7707746" lon="9.4281207"><ele>198.0</ele><time>2026-04-11T10:50:56.367Z</time></trkpt><trkpt lat="45.7708484" lon="9.4281893"><ele>198.0</ele><time>2026-04-11T10:50:57.369Z</time></trkpt><trkpt lat="45.7709303" lon="9.4282622"><ele>197.8</ele><time>2026-04-11T10:50:58.366Z</time></trkpt><trkpt lat="45.7710176" lon="9.4283395"><ele>197.60000000000002</ele><time>2026-04-11T10:50:59.372Z</time></trkpt><trkpt lat="45.7711002" lon="9.4284129"><ele>197.39999999999998</ele><time>2026-04-11T10:51:00.366Z</time></trkpt><trkpt lat="45.7711817" lon="9.428487"><ele>197.2</ele><time>2026-04-11T10:51:01.371Z</time></trkpt><trkpt lat="45.7712703" lon="9.4285672"><ele>197.0</ele><time>2026-04-11T10:51:02.367Z</time></trkpt><trkpt lat="45.771357" lon="9.4286522"><ele>196.6</ele><time>2026-04-11T10:51:03.366Z</time></trkpt><trkpt lat="45.7714383" lon="9.4287242"><ele>196.2</ele><time>2026-04-11T10:51:04.363Z</time></trkpt><trkpt lat="45.7715172" lon="9.4287965"><ele>195.8</ele><time>2026-04-11T10:51:05.372Z</time></trkpt><trkpt lat="45.7715952" lon="9.4288721"><ele>195.4</ele><time>2026-04-11T10:51:06.366Z</time></trkpt><trkpt lat="45.7716714" lon="9.4289535"><ele>195.0</ele><time>2026-04-11T10:51:07.375Z</time></trkpt><trkpt lat="45.7717493" lon="9.429041"><ele>195.0</ele><time>2026-04-11T10:51:08.367Z</time></trkpt><trkpt lat="45.7718145" lon="9.4291194"><ele>195.0</ele><time>2026-04-11T10:51:09.372Z</time></trkpt><trkpt lat="45.7718764" lon="9.4291982"><ele>195.0</ele><time>2026-04-11T10:51:10.366Z</time></trkpt><trkpt lat="45.7719439" lon="9.4292742"><ele>195.0</ele><time>2026-04-11T10:51:11.366Z</time></trkpt><trkpt lat="45.7720155" lon="9.429355"><ele>195.0</ele><time>2026-04-11T10:51:12.367Z</time></trkpt><trkpt lat="45.7720915" lon="9.4294375"><ele>195.0</ele><time>2026-04-11T10:51:13.37Z</time></trkpt><trkpt lat="45.7721786" lon="9.429515"><ele>195.2</ele><time>2026-04-11T10:51:14.365Z</time></trkpt><trkpt lat="45.7722745" lon="9.4295992"><ele>195.4</ele><time>2026-04-11T10:51:15.371Z</time></trkpt><trkpt lat="45.7723661" lon="9.4296755"><ele>195.60000000000002</ele><time>2026-04-11T10:51:16.363Z</time></trkpt><trkpt lat="45.7724505" lon="9.4297565"><ele>195.8</ele><time>2026-04-11T10:51:17.36Z</time></trkpt><trkpt lat="45.7725427" lon="9.4298254"><ele>196.0</ele><time>2026-04-11T10:51:18.364Z</time></trkpt><trkpt lat="45.7726289" lon="9.4298875"><ele>196.60000000000002</ele><time>2026-04-11T10:51:19.369Z</time></trkpt><trkpt lat="45.7727125" lon="9.4299646"><ele>197.2</ele><time>2026-04-11T10:51:20.365Z</time></trkpt><trkpt lat="45.7727925" lon="9.4300381"><ele>197.8</ele><time>2026-04-11T10:51:21.37Z</time></trkpt><trkpt lat="45.7728846" lon="9.4301169"><ele>198.39999999999998</ele><time>2026-04-11T10:51:22.365Z</time></trkpt><trkpt lat="45.7729894" lon="9.4302096"><ele>199.0</ele><time>2026-04-11T10:51:23.361Z</time></trkpt><trkpt lat="45.7730956" lon="9.4302938"><ele>199.0</ele><time>2026-04-11T10:51:24.367Z</time></trkpt><trkpt lat="45.7731992" lon="9.4303794"><ele>199.0</ele><time>2026-04-11T10:51:25.37Z</time></trkpt><trkpt lat="45.7732975" lon="9.4304596"><ele>199.0</ele><time>2026-04-11T10:51:26.369Z</time></trkpt><trkpt lat="45.7733938" lon="9.4305431"><ele>199.0</ele><time>2026-04-11T10:51:27.362Z</time></trkpt><trkpt lat="45.7734817" lon="9.4306229"><ele>199.0</ele><time>2026-04-11T10:51:28.366Z</time></trkpt><trkpt lat="45.7735671" lon="9.4307018"><ele>198.39999999999998</ele><time>2026-04-11T10:51:29.36Z</time></trkpt><trkpt lat="45.77365" lon="9.4307792"><ele>197.8</ele><time>2026-04-11T10:51:30.366Z</time></trkpt><trkpt lat="45.7737222" lon="9.4308512"><ele>197.2</ele><time>2026-04-11T10:51:31.37Z</time></trkpt><trkpt lat="45.7737873" lon="9.4309148"><ele>196.60000000000002</ele><time>2026-04-11T10:51:32.368Z</time></trkpt><trkpt lat="45.7738439" lon="9.4309792"><ele>196.0</ele><time>2026-04-11T10:51:33.37Z</time></trkpt><trkpt lat="45.7739393" lon="9.4310778"><ele>196.0</ele><time>2026-04-11T10:51:35.365Z</time></trkpt><trkpt lat="45.7740181" lon="9.4312092"><ele>196.0</ele><time>2026-04-11T10:51:37.371Z</time></trkpt><trkpt lat="45.7740755" lon="9.4313738"><ele>196.0</ele><time>2026-04-11T10:51:39.37Z</time></trkpt><trkpt lat="45.774091" lon="9.4314665"><ele>196.0</ele><time>2026-04-11T10:51:40.367Z</time></trkpt><trkpt lat="45.7740939" lon="9.4315762"><ele>196.0</ele><time>2026-04-11T10:51:41.362Z</time></trkpt><trkpt lat="45.774091" lon="9.4316779"><ele>196.8</ele><time>2026-04-11T10:51:42.367Z</time></trkpt><trkpt lat="45.7740731" lon="9.4317986"><ele>197.60000000000002</ele><time>2026-04-11T10:51:43.365Z</time></trkpt><trkpt lat="45.7740474" lon="9.4319483"><ele>198.4</ele><time>2026-04-11T10:51:44.364Z</time></trkpt><trkpt lat="45.7740232" lon="9.4321001"><ele>199.2</ele><time>2026-04-11T10:51:45.37Z</time></trkpt><trkpt lat="45.7739989" lon="9.4322369"><ele>200.0</ele><time>2026-04-11T10:51:46.365Z</time></trkpt><trkpt lat="45.7739755" lon="9.432368"><ele>200.00000000000003</ele><time>2026-04-11T10:51:47.37Z</time></trkpt><trkpt lat="45.773956" lon="9.4324927"><ele>200.0</ele><time>2026-04-11T10:51:48.365Z</time></trkpt><trkpt lat="45.7739354" lon="9.4326062"><ele>200.0</ele><time>2026-04-11T10:51:49.369Z</time></trkpt><trkpt lat="45.7739147" lon="9.4327164"><ele>200.0</ele><time>2026-04-11T10:51:50.366Z</time></trkpt><trkpt lat="45.7738971" lon="9.4328174"><ele>200.00000000000003</ele><time>2026-04-11T10:51:51.365Z</time></trkpt><trkpt lat="45.7738811" lon="9.4329786"><ele>200.0</ele><time>2026-04-11T10:51:53.364Z</time></trkpt><trkpt lat="45.7738856" lon="9.4331214"><ele>200.00000000000003</ele><time>2026-04-11T10:51:55.369Z</time></trkpt><trkpt lat="45.7739083" lon="9.4332513"><ele>200.0</ele><time>2026-04-11T10:51:57.372Z</time></trkpt><trkpt lat="45.7739431" lon="9.4333558"><ele>200.0</ele><time>2026-04-11T10:51:59.365Z</time></trkpt><trkpt lat="45.7739819" lon="9.4334345"><ele>200.0</ele><time>2026-04-11T10:52:01.37Z</time></trkpt><trkpt lat="45.7740277" lon="9.4335384"><ele>200.00000000000003</ele><time>2026-04-11T10:52:04.365Z</time></trkpt><trkpt lat="45.7740638" lon="9.4336235"><ele>200.0</ele><time>2026-04-11T10:52:06.366Z</time></trkpt><trkpt lat="45.7741004" lon="9.4337445"><ele>200.2</ele><time>2026-04-11T10:52:08.365Z</time></trkpt><trkpt lat="45.7741538" lon="9.4338564"><ele>200.4</ele><time>2026-04-11T10:52:10.364Z</time></trkpt><trkpt lat="45.7742264" lon="9.4339337"><ele>200.60000000000002</ele><time>2026-04-11T10:52:12.367Z</time></trkpt><trkpt lat="45.7743311" lon="9.4339567"><ele>200.8</ele><time>2026-04-11T10:52:14.365Z</time></trkpt><trkpt lat="45.7744403" lon="9.4339497"><ele>201.0</ele><time>2026-04-11T10:52:16.365Z</time></trkpt><trkpt lat="45.7745488" lon="9.433942"><ele>200.0</ele><time>2026-04-11T10:52:18.366Z</time></trkpt><trkpt lat="45.7746771" lon="9.4339248"><ele>199.0</ele><time>2026-04-11T10:52:20.363Z</time></trkpt><trkpt lat="45.7747398" lon="9.4339142"><ele>198.0</ele><time>2026-04-11T10:52:21.371Z</time></trkpt><trkpt lat="45.7748029" lon="9.4339033"><ele>197.0</ele><time>2026-04-11T10:52:22.365Z</time></trkpt><trkpt lat="45.7749203" lon="9.4338766"><ele>196.0</ele><time>2026-04-11T10:52:24.365Z</time></trkpt><trkpt lat="45.775028" lon="9.4338476"><ele>195.99999999999997</ele><time>2026-04-11T10:52:26.366Z</time></trkpt><trkpt lat="45.7751517" lon="9.4338078"><ele>196.0</ele><time>2026-04-11T10:52:28.367Z</time></trkpt><trkpt lat="45.7752257" lon="9.4337866"><ele>196.0</ele><time>2026-04-11T10:52:29.366Z</time></trkpt><trkpt lat="45.7753005" lon="9.433774"><ele>196.0</ele><time>2026-04-11T10:52:30.362Z</time></trkpt><trkpt lat="45.7753765" lon="9.4337623"><ele>195.99999999999997</ele><time>2026-04-11T10:52:31.364Z</time></trkpt><trkpt lat="45.7754502" lon="9.4337503"><ele>196.0</ele><time>2026-04-11T10:52:32.368Z</time></trkpt><trkpt lat="45.7755229" lon="9.4337379"><ele>196.83333333333331</ele><time>2026-04-11T10:52:33.366Z</time></trkpt><trkpt lat="45.7755981" lon="9.4337323"><ele>197.66666666666666</ele><time>2026-04-11T10:52:34.368Z</time></trkpt><trkpt lat="45.7756788" lon="9.4337332"><ele>198.5</ele><time>2026-04-11T10:52:35.368Z</time></trkpt><trkpt lat="45.7757589" lon="9.4337408"><ele>199.33333333333331</ele><time>2026-04-11T10:52:36.366Z</time></trkpt><trkpt lat="45.7758455" lon="9.4337426"><ele>200.16666666666666</ele><time>2026-04-11T10:52:37.363Z</time></trkpt><trkpt lat="45.7759261" lon="9.4337461"><ele>201.0</ele><time>2026-04-11T10:52:38.366Z</time></trkpt><trkpt lat="45.7760064" lon="9.4337555"><ele>200.16666666666666</ele><time>2026-04-11T10:52:39.363Z</time></trkpt><trkpt lat="45.7760898" lon="9.4337666"><ele>199.33333333333331</ele><time>2026-04-11T10:52:40.365Z</time></trkpt><trkpt lat="45.7761769" lon="9.4337786"><ele>198.5</ele><time>2026-04-11T10:52:41.368Z</time></trkpt><trkpt lat="45.7762591" lon="9.433793"><ele>197.66666666666666</ele><time>2026-04-11T10:52:42.367Z</time></trkpt><trkpt lat="45.7763429" lon="9.4338077"><ele>196.83333333333331</ele><time>2026-04-11T10:52:43.366Z</time></trkpt><trkpt lat="45.7764232" lon="9.4338244"><ele>196.0</ele><time>2026-04-11T10:52:44.366Z</time></trkpt><trkpt lat="45.7764961" lon="9.4338275"><ele>196.4</ele><time>2026-04-11T10:52:45.362Z</time></trkpt><trkpt lat="45.7765699" lon="9.4338303"><ele>196.8</ele><time>2026-04-11T10:52:46.364Z</time></trkpt><trkpt lat="45.7766417" lon="9.4338325"><ele>197.20000000000002</ele><time>2026-04-11T10:52:47.361Z</time></trkpt><trkpt lat="45.7767067" lon="9.4338269"><ele>197.60000000000002</ele><time>2026-04-11T10:52:48.364Z</time></trkpt><trkpt lat="45.7768238" lon="9.4338137"><ele>198.0</ele><time>2026-04-11T10:52:50.366Z</time></trkpt><trkpt lat="45.7769487" lon="9.4338003"><ele>198.0</ele><time>2026-04-11T10:52:52.37Z</time></trkpt><trkpt lat="45.7770127" lon="9.4337935"><ele>198.0</ele><time>2026-04-11T10:52:53.368Z</time></trkpt><trkpt lat="45.7770808" lon="9.4337831"><ele>198.0</ele><time>2026-04-11T10:52:54.361Z</time></trkpt><trkpt lat="45.7771525" lon="9.4337728"><ele>198.0</ele><time>2026-04-11T10:52:55.365Z</time></trkpt><trkpt lat="45.7772251" lon="9.4337656"><ele>198.0</ele><time>2026-04-11T10:52:56.359Z</time></trkpt><trkpt lat="45.7772925" lon="9.4337607"><ele>198.0</ele><time>2026-04-11T10:52:57.362Z</time></trkpt><trkpt lat="45.7773606" lon="9.4337576"><ele>198.0</ele><time>2026-04-11T10:52:58.366Z</time></trkpt><trkpt lat="45.7774285" lon="9.4337494"><ele>198.0</ele><time>2026-04-11T10:52:59.367Z</time></trkpt><trkpt lat="45.7775026" lon="9.4337516"><ele>198.0</ele><time>2026-04-11T10:53:00.369Z</time></trkpt><trkpt lat="45.777579" lon="9.4337462"><ele>198.0</ele><time>2026-04-11T10:53:01.365Z</time></trkpt><trkpt lat="45.7776603" lon="9.4337372"><ele>198.0</ele><time>2026-04-11T10:53:02.37Z</time></trkpt><trkpt lat="45.7777319" lon="9.4337336"><ele>198.0</ele><time>2026-04-11T10:53:03.364Z</time></trkpt><trkpt lat="45.7777977" lon="9.433725"><ele>198.0</ele><time>2026-04-11T10:53:04.363Z</time></trkpt><trkpt lat="45.7778656" lon="9.4337095"><ele>198.0</ele><time>2026-04-11T10:53:05.367Z</time></trkpt><trkpt lat="45.7779318" lon="9.4336926"><ele>197.85714285714286</ele><time>2026-04-11T10:53:06.37Z</time></trkpt><trkpt lat="45.7779989" lon="9.4336844"><ele>197.7142857142857</ele><time>2026-04-11T10:53:07.363Z</time></trkpt><trkpt lat="45.7780675" lon="9.433669"><ele>197.57142857142856</ele><time>2026-04-11T10:53:08.365Z</time></trkpt><trkpt lat="45.7781308" lon="9.4336523"><ele>197.42857142857144</ele><time>2026-04-11T10:53:09.364Z</time></trkpt><trkpt lat="45.7781947" lon="9.4336365"><ele>197.28571428571428</ele><time>2026-04-11T10:53:10.37Z</time></trkpt><trkpt lat="45.7782605" lon="9.4336239"><ele>197.14285714285714</ele><time>2026-04-11T10:53:11.365Z</time></trkpt><trkpt lat="45.7783351" lon="9.4336013"><ele>197.0</ele><time>2026-04-11T10:53:12.365Z</time></trkpt><trkpt lat="45.7784082" lon="9.4335858"><ele>197.00000000000003</ele><time>2026-04-11T10:53:13.367Z</time></trkpt><trkpt lat="45.7784847" lon="9.4335749"><ele>197.0</ele><time>2026-04-11T10:53:14.372Z</time></trkpt><trkpt lat="45.7785524" lon="9.4335605"><ele>197.0</ele><time>2026-04-11T10:53:15.368Z</time></trkpt><trkpt lat="45.7786158" lon="9.4335381"><ele>197.0</ele><time>2026-04-11T10:53:16.361Z</time></trkpt><trkpt lat="45.7786865" lon="9.4335075"><ele>197.00000000000003</ele><time>2026-04-11T10:53:17.365Z</time></trkpt><trkpt lat="45.7787683" lon="9.433476"><ele>197.0</ele><time>2026-04-11T10:53:18.365Z</time></trkpt><trkpt lat="45.7788597" lon="9.433456"><ele>197.00000000000003</ele><time>2026-04-11T10:53:19.364Z</time></trkpt><trkpt lat="45.7789646" lon="9.4334394"><ele>197.0</ele><time>2026-04-11T10:53:20.368Z</time></trkpt><trkpt lat="45.7790485" lon="9.4334182"><ele>197.0</ele><time>2026-04-11T10:53:21.365Z</time></trkpt><trkpt lat="45.779127" lon="9.433401"><ele>197.0</ele><time>2026-04-11T10:53:22.369Z</time></trkpt><trkpt lat="45.7792041" lon="9.4333872"><ele>197.00000000000003</ele><time>2026-04-11T10:53:23.363Z</time></trkpt><trkpt lat="45.7792784" lon="9.4333842"><ele>197.0</ele><time>2026-04-11T10:53:24.37Z</time></trkpt><trkpt lat="45.7793553" lon="9.4333999"><ele>197.0</ele><time>2026-04-11T10:53:25.361Z</time></trkpt><trkpt lat="45.779436" lon="9.4334345"><ele>197.0</ele><time>2026-04-11T10:53:26.363Z</time></trkpt><trkpt lat="45.7795326" lon="9.4334945"><ele>197.0</ele><time>2026-04-11T10:53:27.363Z</time></trkpt><trkpt lat="45.7796248" lon="9.4335496"><ele>197.0</ele><time>2026-04-11T10:53:28.363Z</time></trkpt><trkpt lat="45.7797066" lon="9.4335966"><ele>197.0</ele><time>2026-04-11T10:53:29.361Z</time></trkpt><trkpt lat="45.7797863" lon="9.4336464"><ele>197.00000000000003</ele><time>2026-04-11T10:53:30.361Z</time></trkpt><trkpt lat="45.7798617" lon="9.4337076"><ele>197.0</ele><time>2026-04-11T10:53:31.359Z</time></trkpt><trkpt lat="45.7799226" lon="9.4337723"><ele>197.0</ele><time>2026-04-11T10:53:32.36Z</time></trkpt><trkpt lat="45.7799798" lon="9.4338431"><ele>197.0</ele><time>2026-04-11T10:53:33.358Z</time></trkpt><trkpt lat="45.7800286" lon="9.4339056"><ele>197.00000000000003</ele><time>2026-04-11T10:53:34.362Z</time></trkpt><trkpt lat="45.7801035" lon="9.4340135"><ele>197.0</ele><time>2026-04-11T10:53:36.362Z</time></trkpt><trkpt lat="45.7801534" lon="9.4340964"><ele>196.83333333333334</ele><time>2026-04-11T10:53:38.37Z</time></trkpt><trkpt lat="45.7802042" lon="9.4341509"><ele>196.66666666666669</ele><time>2026-04-11T10:53:41.363Z</time></trkpt><trkpt lat="45.780274" lon="9.4340966"><ele>196.5</ele><time>2026-04-11T10:53:46.373Z</time></trkpt><trkpt lat="45.7802905" lon="9.4339915"><ele>196.33333333333331</ele><time>2026-04-11T10:53:48.37Z</time></trkpt><trkpt lat="45.7802741" lon="9.4338852"><ele>196.16666666666666</ele><time>2026-04-11T10:53:49.363Z</time></trkpt><trkpt lat="45.7802582" lon="9.4337723"><ele>196.0</ele><time>2026-04-11T10:53:50.362Z</time></trkpt><trkpt lat="45.7802406" lon="9.4336515"><ele>196.71428571428572</ele><time>2026-04-11T10:53:51.362Z</time></trkpt><trkpt lat="45.7802252" lon="9.4335374"><ele>197.42857142857144</ele><time>2026-04-11T10:53:52.365Z</time></trkpt><trkpt lat="45.7802134" lon="9.433429"><ele>198.14285714285714</ele><time>2026-04-11T10:53:53.361Z</time></trkpt><trkpt lat="45.7802055" lon="9.4333258"><ele>198.85714285714286</ele><time>2026-04-11T10:53:54.369Z</time></trkpt><trkpt lat="45.7802009" lon="9.4332307"><ele>199.57142857142858</ele><time>2026-04-11T10:53:55.363Z</time></trkpt><trkpt lat="45.7801911" lon="9.4331211"><ele>200.28571428571428</ele><time>2026-04-11T10:53:56.37Z</time></trkpt><trkpt lat="45.7801867" lon="9.4330162"><ele>201.0</ele><time>2026-04-11T10:53:57.361Z</time></trkpt><trkpt lat="45.7801812" lon="9.4329186"><ele>201.16666666666666</ele><time>2026-04-11T10:53:58.372Z</time></trkpt><trkpt lat="45.780179" lon="9.4328"><ele>201.33333333333331</ele><time>2026-04-11T10:53:59.36Z</time></trkpt><trkpt lat="45.7801746" lon="9.4326727"><ele>201.5</ele><time>2026-04-11T10:54:00.366Z</time></trkpt><trkpt lat="45.780173" lon="9.4325475"><ele>201.66666666666666</ele><time>2026-04-11T10:54:01.362Z</time></trkpt><trkpt lat="45.7801695" lon="9.4324335"><ele>201.83333333333331</ele><time>2026-04-11T10:54:02.37Z</time></trkpt><trkpt lat="45.780167" lon="9.4323248"><ele>202.0</ele><time>2026-04-11T10:54:03.361Z</time></trkpt><trkpt lat="45.780168" lon="9.4322297"><ele>202.16666666666666</ele><time>2026-04-11T10:54:04.371Z</time></trkpt><trkpt lat="45.7801634" lon="9.432055"><ele>202.33333333333331</ele><time>2026-04-11T10:54:06.369Z</time></trkpt><trkpt lat="45.7801533" lon="9.4319319"><ele>202.5</ele><time>2026-04-11T10:54:08.366Z</time></trkpt><trkpt lat="45.7801539" lon="9.4318294"><ele>202.66666666666669</ele><time>2026-04-11T10:54:10.371Z</time></trkpt><trkpt lat="45.7801764" lon="9.4317104"><ele>202.83333333333334</ele><time>2026-04-11T10:54:12.379Z</time></trkpt><trkpt lat="45.7801935" lon="9.4316155"><ele>203.0</ele><time>2026-04-11T10:54:13.367Z</time></trkpt><trkpt lat="45.7802127" lon="9.4314957"><ele>203.00000000000003</ele><time>2026-04-11T10:54:14.368Z</time></trkpt><trkpt lat="45.7802322" lon="9.4313667"><ele>203.0</ele><time>2026-04-11T10:54:15.365Z</time></trkpt><trkpt lat="45.7802512" lon="9.431242"><ele>203.0</ele><time>2026-04-11T10:54:16.367Z</time></trkpt><trkpt lat="45.7802683" lon="9.4311276"><ele>203.0</ele><time>2026-04-11T10:54:17.367Z</time></trkpt><trkpt lat="45.7802856" lon="9.4310122"><ele>203.00000000000003</ele><time>2026-04-11T10:54:18.367Z</time></trkpt><trkpt lat="45.7803089" lon="9.4308964"><ele>203.0</ele><time>2026-04-11T10:54:19.362Z</time></trkpt><trkpt lat="45.7803288" lon="9.4307841"><ele>203.14285714285714</ele><time>2026-04-11T10:54:20.367Z</time></trkpt><trkpt lat="45.780344" lon="9.4306823"><ele>203.28571428571428</ele><time>2026-04-11T10:54:21.367Z</time></trkpt><trkpt lat="45.7803562" lon="9.4305903"><ele>203.42857142857144</ele><time>2026-04-11T10:54:22.362Z</time></trkpt><trkpt lat="45.780368" lon="9.430498"><ele>203.57142857142856</ele><time>2026-04-11T10:54:23.366Z</time></trkpt><trkpt lat="45.7803813" lon="9.4304053"><ele>203.71428571428572</ele><time>2026-04-11T10:54:24.366Z</time></trkpt><trkpt lat="45.7803929" lon="9.4303075"><ele>203.85714285714286</ele><time>2026-04-11T10:54:25.366Z</time></trkpt><trkpt lat="45.780403" lon="9.4302126"><ele>204.0</ele><time>2026-04-11T10:54:26.364Z</time></trkpt><trkpt lat="45.7804243" lon="9.430059"><ele>204.0</ele><time>2026-04-11T10:54:28.366Z</time></trkpt><trkpt lat="45.7804558" lon="9.4299703"><ele>204.0</ele><time>2026-04-11T10:54:30.366Z</time></trkpt><trkpt lat="45.7805226" lon="9.4299258"><ele>204.0</ele><time>2026-04-11T10:54:33.37Z</time></trkpt><trkpt lat="45.7805859" lon="9.4299377"><ele>204.0</ele><time>2026-04-11T10:54:34.377Z</time></trkpt><trkpt lat="45.7806795" lon="9.4299743"><ele>204.0</ele><time>2026-04-11T10:54:35.368Z</time></trkpt><trkpt lat="45.7807951" lon="9.4300225"><ele>204.0</ele><time>2026-04-11T10:54:36.371Z</time></trkpt><trkpt lat="45.7809412" lon="9.4300817"><ele>205.0</ele><time>2026-04-11T10:54:37.367Z</time></trkpt><trkpt lat="45.7810858" lon="9.4301325"><ele>206.0</ele><time>2026-04-11T10:54:38.366Z</time></trkpt><trkpt lat="45.7812226" lon="9.4301851"><ele>207.0</ele><time>2026-04-11T10:54:39.365Z</time></trkpt><trkpt lat="45.7813514" lon="9.4302333"><ele>208.0</ele><time>2026-04-11T10:54:40.367Z</time></trkpt><trkpt lat="45.7814706" lon="9.4302754"><ele>208.0</ele><time>2026-04-11T10:54:41.37Z</time></trkpt><trkpt lat="45.7815782" lon="9.4303182"><ele>208.0</ele><time>2026-04-11T10:54:42.365Z</time></trkpt><trkpt lat="45.7816821" lon="9.43036"><ele>208.0</ele><time>2026-04-11T10:54:43.371Z</time></trkpt><trkpt lat="45.7817746" lon="9.4303983"><ele>208.0</ele><time>2026-04-11T10:54:44.365Z</time></trkpt><trkpt lat="45.7818636" lon="9.4304529"><ele>208.0</ele><time>2026-04-11T10:54:45.365Z</time></trkpt><trkpt lat="45.7819502" lon="9.430523"><ele>208.0</ele><time>2026-04-11T10:54:46.363Z</time></trkpt><trkpt lat="45.7820335" lon="9.4305808"><ele>208.0</ele><time>2026-04-11T10:54:47.368Z</time></trkpt><trkpt lat="45.7821267" lon="9.4306115"><ele>208.0</ele><time>2026-04-11T10:54:48.365Z</time></trkpt><trkpt lat="45.7822318" lon="9.4306273"><ele>208.0</ele><time>2026-04-11T10:54:49.369Z</time></trkpt><trkpt lat="45.7823454" lon="9.4306541"><ele>208.0</ele><time>2026-04-11T10:54:50.369Z</time></trkpt><trkpt lat="45.7824681" lon="9.4307113"><ele>208.0</ele><time>2026-04-11T10:54:51.361Z</time></trkpt><trkpt lat="45.7825983" lon="9.4307832"><ele>208.0</ele><time>2026-04-11T10:54:52.369Z</time></trkpt><trkpt lat="45.7827408" lon="9.4308804"><ele>208.0</ele><time>2026-04-11T10:54:53.366Z</time></trkpt><trkpt lat="45.7828867" lon="9.4309941"><ele>208.0</ele><time>2026-04-11T10:54:54.367Z</time></trkpt><trkpt lat="45.7830433" lon="9.4311309"><ele>208.0</ele><time>2026-04-11T10:54:55.364Z</time></trkpt><trkpt lat="45.78319" lon="9.4312877"><ele>208.0</ele><time>2026-04-11T10:54:56.364Z</time></trkpt><trkpt lat="45.78333" lon="9.4314645"><ele>206.33333333333331</ele><time>2026-04-11T10:54:57.36Z</time></trkpt><trkpt lat="45.783455" lon="9.4316607"><ele>204.66666666666669</ele><time>2026-04-11T10:54:58.369Z</time></trkpt><trkpt lat="45.7835638" lon="9.4318664"><ele>203.0</ele><time>2026-04-11T10:54:59.366Z</time></trkpt><trkpt lat="45.7836603" lon="9.4320833"><ele>201.33333333333334</ele><time>2026-04-11T10:55:00.369Z</time></trkpt><trkpt lat="45.783744" lon="9.4323092"><ele>199.66666666666669</ele><time>2026-04-11T10:55:01.363Z</time></trkpt><trkpt lat="45.7838138" lon="9.4325428"><ele>198.0</ele><time>2026-04-11T10:55:02.369Z</time></trkpt><trkpt lat="45.7838689" lon="9.4327733"><ele>197.33333333333331</ele><time>2026-04-11T10:55:03.365Z</time></trkpt><trkpt lat="45.7839108" lon="9.4329916"><ele>196.66666666666666</ele><time>2026-04-11T10:55:04.366Z</time></trkpt><trkpt lat="45.7839404" lon="9.433206"><ele>196.0</ele><time>2026-04-11T10:55:05.37Z</time></trkpt><trkpt lat="45.7839508" lon="9.4334095"><ele>196.0</ele><time>2026-04-11T10:55:06.365Z</time></trkpt><trkpt lat="45.7839517" lon="9.433599"><ele>196.0</ele><time>2026-04-11T10:55:07.369Z</time></trkpt><trkpt lat="45.7839507" lon="9.4337984"><ele>196.0</ele><time>2026-04-11T10:55:08.361Z</time></trkpt><trkpt lat="45.783953" lon="9.4340065"><ele>196.0</ele><time>2026-04-11T10:55:09.37Z</time></trkpt><trkpt lat="45.7839544" lon="9.4342303"><ele>196.0</ele><time>2026-04-11T10:55:10.364Z</time></trkpt><trkpt lat="45.7839541" lon="9.4344662"><ele>196.0</ele><time>2026-04-11T10:55:11.36Z</time></trkpt><trkpt lat="45.7839571" lon="9.4346965"><ele>196.0</ele><time>2026-04-11T10:55:12.364Z</time></trkpt><trkpt lat="45.7839619" lon="9.4349132"><ele>196.0</ele><time>2026-04-11T10:55:13.369Z</time></trkpt><trkpt lat="45.7839636" lon="9.4351333"><ele>196.0</ele><time>2026-04-11T10:55:14.366Z</time></trkpt><trkpt lat="45.7839682" lon="9.4353499"><ele>196.0</ele><time>2026-04-11T10:55:15.369Z</time></trkpt><trkpt lat="45.7839674" lon="9.4355756"><ele>196.66666666666666</ele><time>2026-04-11T10:55:16.361Z</time></trkpt><trkpt lat="45.7839678" lon="9.4358105"><ele>197.33333333333331</ele><time>2026-04-11T10:55:17.367Z</time></trkpt><trkpt lat="45.7839707" lon="9.4360504"><ele>198.0</ele><time>2026-04-11T10:55:18.363Z</time></trkpt><trkpt lat="45.7839698" lon="9.4362685"><ele>198.33333333333331</ele><time>2026-04-11T10:55:19.365Z</time></trkpt><trkpt lat="45.7839682" lon="9.4364811"><ele>198.66666666666666</ele><time>2026-04-11T10:55:20.369Z</time></trkpt><trkpt lat="45.7839691" lon="9.4367028"><ele>199.0</ele><time>2026-04-11T10:55:21.361Z</time></trkpt><trkpt lat="45.78397" lon="9.4369168"><ele>199.0</ele><time>2026-04-11T10:55:22.362Z</time></trkpt><trkpt lat="45.7839684" lon="9.437122"><ele>199.0</ele><time>2026-04-11T10:55:23.371Z</time></trkpt><trkpt lat="45.7839686" lon="9.4373159"><ele>199.0</ele><time>2026-04-11T10:55:24.359Z</time></trkpt><trkpt lat="45.7839707" lon="9.4375046"><ele>199.0</ele><time>2026-04-11T10:55:25.37Z</time></trkpt><trkpt lat="45.7839765" lon="9.4376887"><ele>198.75</ele><time>2026-04-11T10:55:26.365Z</time></trkpt><trkpt lat="45.783978" lon="9.4378835"><ele>198.5</ele><time>2026-04-11T10:55:27.365Z</time></trkpt><trkpt lat="45.7839731" lon="9.4380756"><ele>198.25</ele><time>2026-04-11T10:55:28.366Z</time></trkpt><trkpt lat="45.7839678" lon="9.4382702"><ele>198.0</ele><time>2026-04-11T10:55:29.371Z</time></trkpt><trkpt lat="45.7839705" lon="9.4384842"><ele>198.5</ele><time>2026-04-11T10:55:30.368Z</time></trkpt><trkpt lat="45.783974" lon="9.4386985"><ele>199.0</ele><time>2026-04-11T10:55:31.367Z</time></trkpt><trkpt lat="45.7839728" lon="9.4388985"><ele>199.5</ele><time>2026-04-11T10:55:32.367Z</time></trkpt><trkpt lat="45.7839725" lon="9.4390917"><ele>200.0</ele><time>2026-04-11T10:55:33.359Z</time></trkpt><trkpt lat="45.7839733" lon="9.4392785"><ele>200.0</ele><time>2026-04-11T10:55:34.365Z</time></trkpt><trkpt lat="45.783974" lon="9.4394555"><ele>200.0</ele><time>2026-04-11T10:55:35.363Z</time></trkpt><trkpt lat="45.7839757" lon="9.4396201"><ele>200.0</ele><time>2026-04-11T10:55:36.364Z</time></trkpt><trkpt lat="45.7839748" lon="9.4397792"><ele>200.0</ele><time>2026-04-11T10:55:37.365Z</time></trkpt><trkpt lat="45.783976" lon="9.4399473"><ele>201.0</ele><time>2026-04-11T10:55:38.368Z</time></trkpt><trkpt lat="45.783977" lon="9.4401108"><ele>202.0</ele><time>2026-04-11T10:55:39.368Z</time></trkpt><trkpt lat="45.7839796" lon="9.4402615"><ele>203.0</ele><time>2026-04-11T10:55:40.366Z</time></trkpt><trkpt lat="45.7839812" lon="9.4403959"><ele>204.0</ele><time>2026-04-11T10:55:41.366Z</time></trkpt><trkpt lat="45.7839804" lon="9.4405041"><ele>205.0</ele><time>2026-04-11T10:55:42.368Z</time></trkpt><trkpt lat="45.7839795" lon="9.4405998"><ele>205.2</ele><time>2026-04-11T10:55:43.366Z</time></trkpt><trkpt lat="45.7839773" lon="9.4407462"><ele>205.4</ele><time>2026-04-11T10:55:45.372Z</time></trkpt><trkpt lat="45.7839426" lon="9.4408909"><ele>205.60000000000002</ele><time>2026-04-11T10:55:47.37Z</time></trkpt><trkpt lat="45.783896" lon="9.4410393"><ele>205.8</ele><time>2026-04-11T10:55:49.369Z</time></trkpt><trkpt lat="45.7838892" lon="9.4411981"><ele>206.0</ele><time>2026-04-11T10:55:51.369Z</time></trkpt><trkpt lat="45.7839779" lon="9.4412973"><ele>206.00000000000003</ele><time>2026-04-11T10:55:53.369Z</time></trkpt><trkpt lat="45.7840466" lon="9.4412978"><ele>206.0</ele><time>2026-04-11T10:55:54.364Z</time></trkpt><trkpt lat="45.7841197" lon="9.4412922"><ele>206.0</ele><time>2026-04-11T10:55:55.376Z</time></trkpt><trkpt lat="45.7842056" lon="9.4412929"><ele>206.0</ele><time>2026-04-11T10:55:56.365Z</time></trkpt><trkpt lat="45.7842959" lon="9.4413116"><ele>206.00000000000003</ele><time>2026-04-11T10:55:57.373Z</time></trkpt><trkpt lat="45.7843907" lon="9.4413348"><ele>206.0</ele><time>2026-04-11T10:55:58.365Z</time></trkpt><trkpt lat="45.7844923" lon="9.4413563"><ele>206.20000000000002</ele><time>2026-04-11T10:55:59.366Z</time></trkpt><trkpt lat="45.7845853" lon="9.4413678"><ele>206.4</ele><time>2026-04-11T10:56:00.361Z</time></trkpt><trkpt lat="45.7846741" lon="9.4413776"><ele>206.6</ele><time>2026-04-11T10:56:01.36Z</time></trkpt><trkpt lat="45.7847664" lon="9.4413799"><ele>206.8</ele><time>2026-04-11T10:56:02.363Z</time></trkpt><trkpt lat="45.7848592" lon="9.4413778"><ele>207.0</ele><time>2026-04-11T10:56:03.361Z</time></trkpt><trkpt lat="45.7849525" lon="9.4413779"><ele>207.0</ele><time>2026-04-11T10:56:04.36Z</time></trkpt><trkpt lat="45.7850489" lon="9.4413685"><ele>207.0</ele><time>2026-04-11T10:56:05.364Z</time></trkpt><trkpt lat="45.7851498" lon="9.4413593"><ele>207.0</ele><time>2026-04-11T10:56:06.364Z</time></trkpt><trkpt lat="45.7852513" lon="9.4413535"><ele>207.0</ele><time>2026-04-11T10:56:07.366Z</time></trkpt><trkpt lat="45.7853569" lon="9.4413483"><ele>207.0</ele><time>2026-04-11T10:56:08.367Z</time></trkpt><trkpt lat="45.7854648" lon="9.4413357"><ele>206.8</ele><time>2026-04-11T10:56:09.364Z</time></trkpt><trkpt lat="45.7855722" lon="9.44132"><ele>206.6</ele><time>2026-04-11T10:56:10.365Z</time></trkpt><trkpt lat="45.7856751" lon="9.441295"><ele>206.4</ele><time>2026-04-11T10:56:11.367Z</time></trkpt><trkpt lat="45.785777" lon="9.4412599"><ele>206.20000000000002</ele><time>2026-04-11T10:56:12.367Z</time></trkpt><trkpt lat="45.7858723" lon="9.441213"><ele>206.0</ele><time>2026-04-11T10:56:13.37Z</time></trkpt><trkpt lat="45.7859612" lon="9.4411534"><ele>206.0</ele><time>2026-04-11T10:56:14.367Z</time></trkpt><trkpt lat="45.7860466" lon="9.4410926"><ele>206.0</ele><time>2026-04-11T10:56:15.368Z</time></trkpt><trkpt lat="45.7861296" lon="9.4410274"><ele>206.0</ele><time>2026-04-11T10:56:16.363Z</time></trkpt><trkpt lat="45.7862123" lon="9.4409685"><ele>206.0</ele><time>2026-04-11T10:56:17.372Z</time></trkpt><trkpt lat="45.7863018" lon="9.440926"><ele>206.0</ele><time>2026-04-11T10:56:18.369Z</time></trkpt><trkpt lat="45.7864042" lon="9.4409017"><ele>206.0</ele><time>2026-04-11T10:56:19.371Z</time></trkpt><trkpt lat="45.7865181" lon="9.4408945"><ele>206.0</ele><time>2026-04-11T10:56:20.369Z</time></trkpt><trkpt lat="45.7866446" lon="9.440894"><ele>206.0</ele><time>2026-04-11T10:56:21.369Z</time></trkpt><trkpt lat="45.7867778" lon="9.440898"><ele>206.0</ele><time>2026-04-11T10:56:22.367Z</time></trkpt><trkpt lat="45.7869246" lon="9.4409144"><ele>205.5</ele><time>2026-04-11T10:56:23.37Z</time></trkpt><trkpt lat="45.7870709" lon="9.4409097"><ele>205.0</ele><time>2026-04-11T10:56:24.368Z</time></trkpt><trkpt lat="45.787203" lon="9.4409092"><ele>204.5</ele><time>2026-04-11T10:56:25.372Z</time></trkpt><trkpt lat="45.7873195" lon="9.440905"><ele>204.0</ele><time>2026-04-11T10:56:26.368Z</time></trkpt><trkpt lat="45.787417" lon="9.4408984"><ele>204.0</ele><time>2026-04-11T10:56:27.368Z</time></trkpt><trkpt lat="45.7874912" lon="9.4408861"><ele>204.0</ele><time>2026-04-11T10:56:28.368Z</time></trkpt><trkpt lat="45.7875873" lon="9.4408703"><ele>204.0</ele><time>2026-04-11T10:56:30.363Z</time></trkpt><trkpt lat="45.7876632" lon="9.4408493"><ele>204.0</ele><time>2026-04-11T10:56:32.368Z</time></trkpt><trkpt lat="45.7877672" lon="9.4408463"><ele>204.0</ele><time>2026-04-11T10:56:34.367Z</time></trkpt><trkpt lat="45.7878414" lon="9.4408425"><ele>204.0</ele><time>2026-04-11T10:56:35.371Z</time></trkpt><trkpt lat="45.7879195" lon="9.4408085"><ele>204.39999999999998</ele><time>2026-04-11T10:56:36.368Z</time></trkpt><trkpt lat="45.7879972" lon="9.4407363"><ele>204.8</ele><time>2026-04-11T10:56:37.373Z</time></trkpt><trkpt lat="45.7880874" lon="9.440643"><ele>205.2</ele><time>2026-04-11T10:56:38.361Z</time></trkpt><trkpt lat="45.7881983" lon="9.4405706"><ele>205.60000000000002</ele><time>2026-04-11T10:56:39.365Z</time></trkpt><trkpt lat="45.7882946" lon="9.4405181"><ele>206.0</ele><time>2026-04-11T10:56:40.367Z</time></trkpt><trkpt lat="45.7883947" lon="9.4404636"><ele>206.5</ele><time>2026-04-11T10:56:41.366Z</time></trkpt><trkpt lat="45.7885105" lon="9.4403962"><ele>207.0</ele><time>2026-04-11T10:56:42.364Z</time></trkpt><trkpt lat="45.7886434" lon="9.4403174"><ele>207.5</ele><time>2026-04-11T10:56:43.364Z</time></trkpt><trkpt lat="45.7887943" lon="9.4402371"><ele>208.0</ele><time>2026-04-11T10:56:44.361Z</time></trkpt><trkpt lat="45.7889517" lon="9.4401555"><ele>208.0</ele><time>2026-04-11T10:56:45.371Z</time></trkpt><trkpt lat="45.7890958" lon="9.4400839"><ele>208.0</ele><time>2026-04-11T10:56:46.368Z</time></trkpt><trkpt lat="45.7892335" lon="9.4400169"><ele>208.0</ele><time>2026-04-11T10:56:47.364Z</time></trkpt><trkpt lat="45.7893585" lon="9.439958"><ele>208.0</ele><time>2026-04-11T10:56:48.366Z</time></trkpt><trkpt lat="45.7894857" lon="9.4399012"><ele>208.25</ele><time>2026-04-11T10:56:49.372Z</time></trkpt><trkpt lat="45.7896071" lon="9.4398372"><ele>208.5</ele><time>2026-04-11T10:56:50.363Z</time></trkpt><trkpt lat="45.7897193" lon="9.439785"><ele>208.75</ele><time>2026-04-11T10:56:51.373Z</time></trkpt><trkpt lat="45.7898222" lon="9.4397345"><ele>209.0</ele><time>2026-04-11T10:56:52.37Z</time></trkpt><trkpt lat="45.7899157" lon="9.4396898"><ele>209.0</ele><time>2026-04-11T10:56:53.372Z</time></trkpt><trkpt lat="45.7899994" lon="9.4396567"><ele>209.0</ele><time>2026-04-11T10:56:54.367Z</time></trkpt><trkpt lat="45.7900756" lon="9.439637"><ele>209.0</ele><time>2026-04-11T10:56:55.367Z</time></trkpt><trkpt lat="45.7901909" lon="9.4396657"><ele>209.0</ele><time>2026-04-11T10:56:57.367Z</time></trkpt><trkpt lat="45.7902835" lon="9.4397591"><ele>209.0</ele><time>2026-04-11T10:56:59.37Z</time></trkpt><trkpt lat="45.7903949" lon="9.4398262"><ele>210.0</ele><time>2026-04-11T10:57:01.374Z</time></trkpt><trkpt lat="45.7904965" lon="9.4397287"><ele>211.0</ele><time>2026-04-11T10:57:03.363Z</time></trkpt><trkpt lat="45.7905226" lon="9.4396312"><ele>211.99999999999997</ele><time>2026-04-11T10:57:04.367Z</time></trkpt><trkpt lat="45.7905446" lon="9.4395197"><ele>213.0</ele><time>2026-04-11T10:57:05.37Z</time></trkpt><trkpt lat="45.7905916" lon="9.4394157"><ele>214.0</ele><time>2026-04-11T10:57:06.367Z</time></trkpt><trkpt lat="45.7906657" lon="9.4393436"><ele>214.0</ele><time>2026-04-11T10:57:07.371Z</time></trkpt><trkpt lat="45.79076" lon="9.4392808"><ele>214.0</ele><time>2026-04-11T10:57:08.362Z</time></trkpt><trkpt lat="45.7908769" lon="9.4392128"><ele>214.0</ele><time>2026-04-11T10:57:09.373Z</time></trkpt><trkpt lat="45.7909864" lon="9.4391526"><ele>214.0</ele><time>2026-04-11T10:57:10.366Z</time></trkpt><trkpt lat="45.7911022" lon="9.4390894"><ele>214.5</ele><time>2026-04-11T10:57:11.364Z</time></trkpt><trkpt lat="45.791216" lon="9.4390385"><ele>215.0</ele><time>2026-04-11T10:57:12.365Z</time></trkpt><trkpt lat="45.7913269" lon="9.4389841"><ele>215.5</ele><time>2026-04-11T10:57:13.369Z</time></trkpt><trkpt lat="45.7914396" lon="9.4389265"><ele>216.0</ele><time>2026-04-11T10:57:14.369Z</time></trkpt><trkpt lat="45.7915594" lon="9.4388656"><ele>216.0</ele><time>2026-04-11T10:57:15.371Z</time></trkpt><trkpt lat="45.791672" lon="9.4388041"><ele>216.0</ele><time>2026-04-11T10:57:16.364Z</time></trkpt><trkpt lat="45.7917769" lon="9.4387373"><ele>216.0</ele><time>2026-04-11T10:57:17.369Z</time></trkpt><trkpt lat="45.7918716" lon="9.4386637"><ele>216.0</ele><time>2026-04-11T10:57:18.366Z</time></trkpt><trkpt lat="45.791964" lon="9.4385876"><ele>216.4</ele><time>2026-04-11T10:57:19.368Z</time></trkpt><trkpt lat="45.7920619" lon="9.4385092"><ele>216.8</ele><time>2026-04-11T10:57:20.367Z</time></trkpt><trkpt lat="45.7921612" lon="9.4384386"><ele>217.20000000000002</ele><time>2026-04-11T10:57:21.366Z</time></trkpt><trkpt lat="45.792257" lon="9.4383598"><ele>217.60000000000002</ele><time>2026-04-11T10:57:22.368Z</time></trkpt><trkpt lat="45.7923525" lon="9.4382852"><ele>218.0</ele><time>2026-04-11T10:57:23.372Z</time></trkpt><trkpt lat="45.7924449" lon="9.4382115"><ele>218.0</ele><time>2026-04-11T10:57:24.365Z</time></trkpt><trkpt lat="45.7925304" lon="9.4381387"><ele>218.0</ele><time>2026-04-11T10:57:25.47Z</time></trkpt><trkpt lat="45.7926848" lon="9.4379963"><ele>218.0</ele><time>2026-04-11T10:57:27.369Z</time></trkpt><trkpt lat="45.7927561" lon="9.4379204"><ele>218.0</ele><time>2026-04-11T10:57:28.365Z</time></trkpt><trkpt lat="45.7928272" lon="9.4378497"><ele>218.16666666666669</ele><time>2026-04-11T10:57:29.372Z</time></trkpt><trkpt lat="45.7928988" lon="9.4377869"><ele>218.33333333333334</ele><time>2026-04-11T10:57:30.366Z</time></trkpt><trkpt lat="45.7929638" lon="9.4377362"><ele>218.5</ele><time>2026-04-11T10:57:31.364Z</time></trkpt><trkpt lat="45.7930205" lon="9.4376912"><ele>218.66666666666669</ele><time>2026-04-11T10:57:32.366Z</time></trkpt><trkpt lat="45.7930864" lon="9.4376511"><ele>218.83333333333334</ele><time>2026-04-11T10:57:33.371Z</time></trkpt><trkpt lat="45.7931563" lon="9.4375894"><ele>219.0</ele><time>2026-04-11T10:57:34.363Z</time></trkpt><trkpt lat="45.7932342" lon="9.4375226"><ele>219.0</ele><time>2026-04-11T10:57:35.366Z</time></trkpt><trkpt lat="45.7933301" lon="9.4374458"><ele>219.0</ele><time>2026-04-11T10:57:36.365Z</time></trkpt><trkpt lat="45.7934418" lon="9.4373706"><ele>219.0</ele><time>2026-04-11T10:57:37.373Z</time></trkpt><trkpt lat="45.79356" lon="9.4372915"><ele>219.0</ele><time>2026-04-11T10:57:38.369Z</time></trkpt><trkpt lat="45.7936855" lon="9.4372116"><ele>219.0</ele><time>2026-04-11T10:57:39.373Z</time></trkpt><trkpt lat="45.793792" lon="9.4371309"><ele>219.0</ele><time>2026-04-11T10:57:40.368Z</time></trkpt><trkpt lat="45.7938967" lon="9.4370616"><ele>219.0</ele><time>2026-04-11T10:57:41.371Z</time></trkpt><trkpt lat="45.7939957" lon="9.4369832"><ele>219.0</ele><time>2026-04-11T10:57:42.363Z</time></trkpt><trkpt lat="45.7940978" lon="9.4369043"><ele>219.0</ele><time>2026-04-11T10:57:43.368Z</time></trkpt><trkpt lat="45.7942007" lon="9.4368235"><ele>219.0</ele><time>2026-04-11T10:57:44.362Z</time></trkpt><trkpt lat="45.7943039" lon="9.4367382"><ele>219.0</ele><time>2026-04-11T10:57:45.373Z</time></trkpt><trkpt lat="45.7944114" lon="9.4366625"><ele>219.0</ele><time>2026-04-11T10:57:46.363Z</time></trkpt><trkpt lat="45.7945105" lon="9.4365826"><ele>219.39999999999998</ele><time>2026-04-11T10:57:47.37Z</time></trkpt><trkpt lat="45.7946086" lon="9.4365083"><ele>219.79999999999998</ele><time>2026-04-11T10:57:48.362Z</time></trkpt><trkpt lat="45.7947011" lon="9.4364322"><ele>220.20000000000002</ele><time>2026-04-11T10:57:49.372Z</time></trkpt><trkpt lat="45.7947919" lon="9.4363582"><ele>220.60000000000002</ele><time>2026-04-11T10:57:50.363Z</time></trkpt><trkpt lat="45.7948802" lon="9.4362841"><ele>221.0</ele><time>2026-04-11T10:57:51.365Z</time></trkpt><trkpt lat="45.7949656" lon="9.436214"><ele>220.4</ele><time>2026-04-11T10:57:52.364Z</time></trkpt><trkpt lat="45.7950481" lon="9.4361412"><ele>219.8</ele><time>2026-04-11T10:57:53.371Z</time></trkpt><trkpt lat="45.7951405" lon="9.4360694"><ele>219.20000000000002</ele><time>2026-04-11T10:57:54.361Z</time></trkpt><trkpt lat="45.7952358" lon="9.4359962"><ele>218.60000000000002</ele><time>2026-04-11T10:57:55.371Z</time></trkpt><trkpt lat="45.7953288" lon="9.4359261"><ele>218.0</ele><time>2026-04-11T10:57:56.366Z</time></trkpt><trkpt lat="45.7954142" lon="9.4358583"><ele>218.0</ele><time>2026-04-11T10:57:57.37Z</time></trkpt><trkpt lat="45.7954943" lon="9.4357936"><ele>218.0</ele><time>2026-04-11T10:57:58.361Z</time></trkpt><trkpt lat="45.795572" lon="9.435734"><ele>218.0</ele><time>2026-04-11T10:57:59.366Z</time></trkpt><trkpt lat="45.7956546" lon="9.4356783"><ele>218.0</ele><time>2026-04-11T10:58:00.364Z</time></trkpt><trkpt lat="45.7957425" lon="9.435623"><ele>218.0</ele><time>2026-04-11T10:58:01.371Z</time></trkpt><trkpt lat="45.7958282" lon="9.4355607"><ele>218.00000000000003</ele><time>2026-04-11T10:58:02.365Z</time></trkpt><trkpt lat="45.7959083" lon="9.4355066"><ele>218.0</ele><time>2026-04-11T10:58:03.37Z</time></trkpt><trkpt lat="45.7959839" lon="9.43545"><ele>218.0</ele><time>2026-04-11T10:58:04.365Z</time></trkpt><trkpt lat="45.7960516" lon="9.4353968"><ele>218.0</ele><time>2026-04-11T10:58:05.371Z</time></trkpt><trkpt lat="45.7961123" lon="9.4353572"><ele>218.00000000000003</ele><time>2026-04-11T10:58:06.364Z</time></trkpt><trkpt lat="45.796186" lon="9.4353016"><ele>218.0</ele><time>2026-04-11T10:58:07.365Z</time></trkpt><trkpt lat="45.7962739" lon="9.4352287"><ele>217.4</ele><time>2026-04-11T10:58:08.362Z</time></trkpt><trkpt lat="45.7963722" lon="9.435151"><ele>216.8</ele><time>2026-04-11T10:58:09.362Z</time></trkpt><trkpt lat="45.7964719" lon="9.4350738"><ele>216.2</ele><time>2026-04-11T10:58:10.356Z</time></trkpt><trkpt lat="45.7965627" lon="9.4350019"><ele>215.6</ele><time>2026-04-11T10:58:11.361Z</time></trkpt><trkpt lat="45.7966483" lon="9.4349373"><ele>215.0</ele><time>2026-04-11T10:58:12.362Z</time></trkpt><trkpt lat="45.7967247" lon="9.4348767"><ele>215.0</ele><time>2026-04-11T10:58:13.361Z</time></trkpt><trkpt lat="45.7967942" lon="9.4348231"><ele>215.0</ele><time>2026-04-11T10:58:14.37Z</time></trkpt><trkpt lat="45.7968582" lon="9.4347822"><ele>215.0</ele><time>2026-04-11T10:58:15.364Z</time></trkpt><trkpt lat="45.7969177" lon="9.4347415"><ele>215.0</ele><time>2026-04-11T10:58:16.365Z</time></trkpt><trkpt lat="45.7969864" lon="9.4346953"><ele>215.0</ele><time>2026-04-11T10:58:17.361Z</time></trkpt><trkpt lat="45.7970528" lon="9.4346517"><ele>215.0</ele><time>2026-04-11T10:58:18.371Z</time></trkpt><trkpt lat="45.7971127" lon="9.4346134"><ele>215.0</ele><time>2026-04-11T10:58:19.364Z</time></trkpt><trkpt lat="45.7971794" lon="9.4345524"><ele>214.0</ele><time>2026-04-11T10:58:20.371Z</time></trkpt><trkpt lat="45.7972559" lon="9.4344764"><ele>213.0</ele><time>2026-04-11T10:58:21.36Z</time></trkpt><trkpt lat="45.7973423" lon="9.4343995"><ele>212.0</ele><time>2026-04-11T10:58:22.361Z</time></trkpt><trkpt lat="45.7974301" lon="9.434329"><ele>211.0</ele><time>2026-04-11T10:58:23.364Z</time></trkpt><trkpt lat="45.7975186" lon="9.4342675"><ele>210.0</ele><time>2026-04-11T10:58:24.371Z</time></trkpt><trkpt lat="45.7976066" lon="9.4341981"><ele>210.0</ele><time>2026-04-11T10:58:25.364Z</time></trkpt><trkpt lat="45.7976977" lon="9.4341238"><ele>210.0</ele><time>2026-04-11T10:58:26.373Z</time></trkpt><trkpt lat="45.7977874" lon="9.4340467"><ele>210.0</ele><time>2026-04-11T10:58:27.365Z</time></trkpt><trkpt lat="45.797882" lon="9.4339699"><ele>210.0</ele><time>2026-04-11T10:58:28.365Z</time></trkpt><trkpt lat="45.797985" lon="9.4338853"><ele>210.0</ele><time>2026-04-11T10:58:29.363Z</time></trkpt><trkpt lat="45.7981039" lon="9.4337852"><ele>210.0</ele><time>2026-04-11T10:58:30.371Z</time></trkpt><trkpt lat="45.7982359" lon="9.4336774"><ele>210.0</ele><time>2026-04-11T10:58:31.365Z</time></trkpt><trkpt lat="45.7983849" lon="9.4335636"><ele>210.0</ele><time>2026-04-11T10:58:32.363Z</time></trkpt><trkpt lat="45.7985307" lon="9.4334571"><ele>210.5</ele><time>2026-04-11T10:58:33.369Z</time></trkpt><trkpt lat="45.7986661" lon="9.4333549"><ele>211.0</ele><time>2026-04-11T10:58:34.369Z</time></trkpt><trkpt lat="45.7987854" lon="9.4332583"><ele>211.5</ele><time>2026-04-11T10:58:35.372Z</time></trkpt><trkpt lat="45.7988892" lon="9.4331711"><ele>212.0</ele><time>2026-04-11T10:58:36.365Z</time></trkpt><trkpt lat="45.7989859" lon="9.4330918"><ele>212.00000000000003</ele><time>2026-04-11T10:58:37.37Z</time></trkpt><trkpt lat="45.7990713" lon="9.4330271"><ele>212.0</ele><time>2026-04-11T10:58:38.363Z</time></trkpt><trkpt lat="45.7991447" lon="9.4329731"><ele>212.0</ele><time>2026-04-11T10:58:39.364Z</time></trkpt><trkpt lat="45.79921" lon="9.4329209"><ele>212.0</ele><time>2026-04-11T10:58:40.364Z</time></trkpt><trkpt lat="45.7992842" lon="9.4328567"><ele>212.00000000000003</ele><time>2026-04-11T10:58:41.36Z</time></trkpt><trkpt lat="45.799369" lon="9.4327854"><ele>212.0</ele><time>2026-04-11T10:58:42.366Z</time></trkpt><trkpt lat="45.799458" lon="9.4327173"><ele>212.66666666666669</ele><time>2026-04-11T10:58:43.364Z</time></trkpt><trkpt lat="45.7995345" lon="9.4326573"><ele>213.33333333333334</ele><time>2026-04-11T10:58:44.366Z</time></trkpt><trkpt lat="45.7996036" lon="9.4326057"><ele>214.0</ele><time>2026-04-11T10:58:45.368Z</time></trkpt><trkpt lat="45.7996615" lon="9.4325634"><ele>214.66666666666669</ele><time>2026-04-11T10:58:46.368Z</time></trkpt><trkpt lat="45.7997181" lon="9.4325142"><ele>215.33333333333334</ele><time>2026-04-11T10:58:47.365Z</time></trkpt><trkpt lat="45.7998069" lon="9.4324448"><ele>216.0</ele><time>2026-04-11T10:58:49.362Z</time></trkpt><trkpt lat="45.7998702" lon="9.4323797"><ele>216.0</ele><time>2026-04-11T10:58:51.366Z</time></trkpt><trkpt lat="45.799985" lon="9.4322852"><ele>216.0</ele><time>2026-04-11T10:58:53.365Z</time></trkpt><trkpt lat="45.8000738" lon="9.4322156"><ele>216.0</ele><time>2026-04-11T10:58:54.362Z</time></trkpt><trkpt lat="45.8001744" lon="9.4321319"><ele>216.0</ele><time>2026-04-11T10:58:55.486Z</time></trkpt><trkpt lat="45.8003392" lon="9.431992"><ele>216.33333333333334</ele><time>2026-04-11T10:58:57.37Z</time></trkpt><trkpt lat="45.8004147" lon="9.4319328"><ele>216.66666666666669</ele><time>2026-04-11T10:58:58.367Z</time></trkpt><trkpt lat="45.8004829" lon="9.4318832"><ele>217.0</ele><time>2026-04-11T10:58:59.368Z</time></trkpt><trkpt lat="45.8005406" lon="9.4318426"><ele>217.33333333333334</ele><time>2026-04-11T10:59:00.37Z</time></trkpt><trkpt lat="45.800654" lon="9.4317647"><ele>217.66666666666669</ele><time>2026-04-11T10:59:02.37Z</time></trkpt><trkpt lat="45.8007122" lon="9.4317256"><ele>218.0</ele><time>2026-04-11T10:59:03.364Z</time></trkpt><trkpt lat="45.8008126" lon="9.4316667"><ele>218.0</ele><time>2026-04-11T10:59:05.363Z</time></trkpt><trkpt lat="45.8009064" lon="9.4317183"><ele>218.0</ele><time>2026-04-11T10:59:07.36Z</time></trkpt><trkpt lat="45.800971" lon="9.4318014"><ele>218.0</ele><time>2026-04-11T10:59:08.37Z</time></trkpt><trkpt lat="45.801044" lon="9.4318883"><ele>218.0</ele><time>2026-04-11T10:59:09.361Z</time></trkpt><trkpt lat="45.8011212" lon="9.4319975"><ele>218.0</ele><time>2026-04-11T10:59:10.369Z</time></trkpt><trkpt lat="45.8011959" lon="9.4321211"><ele>219.4</ele><time>2026-04-11T10:59:11.359Z</time></trkpt><trkpt lat="45.8012721" lon="9.4322496"><ele>220.8</ele><time>2026-04-11T10:59:12.368Z</time></trkpt><trkpt lat="45.8013356" lon="9.4323533"><ele>222.2</ele><time>2026-04-11T10:59:13.361Z</time></trkpt><trkpt lat="45.8013896" lon="9.4324465"><ele>223.6</ele><time>2026-04-11T10:59:14.37Z</time></trkpt><trkpt lat="45.8014496" lon="9.4325462"><ele>225.0</ele><time>2026-04-11T10:59:15.364Z</time></trkpt><trkpt lat="45.8015088" lon="9.4326471"><ele>225.0</ele><time>2026-04-11T10:59:16.368Z</time></trkpt><trkpt lat="45.8015717" lon="9.4327475"><ele>225.0</ele><time>2026-04-11T10:59:17.36Z</time></trkpt><trkpt lat="45.8016315" lon="9.4328562"><ele>225.0</ele><time>2026-04-11T10:59:18.369Z</time></trkpt><trkpt lat="45.8016916" lon="9.4329709"><ele>225.0</ele><time>2026-04-11T10:59:19.362Z</time></trkpt><trkpt lat="45.8017547" lon="9.4330719"><ele>225.0</ele><time>2026-04-11T10:59:20.369Z</time></trkpt><trkpt lat="45.8018114" lon="9.4331627"><ele>226.66666666666666</ele><time>2026-04-11T10:59:21.36Z</time></trkpt><trkpt lat="45.8018587" lon="9.4332424"><ele>228.33333333333331</ele><time>2026-04-11T10:59:22.37Z</time></trkpt><trkpt lat="45.8018999" lon="9.4333139"><ele>230.0</ele><time>2026-04-11T10:59:23.364Z</time></trkpt><trkpt lat="45.8019699" lon="9.4334105"><ele>231.66666666666666</ele><time>2026-04-11T10:59:25.367Z</time></trkpt><trkpt lat="45.8020361" lon="9.4334338"><ele>233.33333333333331</ele><time>2026-04-11T10:59:27.361Z</time></trkpt><trkpt lat="45.80216" lon="9.4334041"><ele>235.0</ele><time>2026-04-11T10:59:29.364Z</time></trkpt><trkpt lat="45.8022875" lon="9.4333455"><ele>234.99999999999997</ele><time>2026-04-11T10:59:31.362Z</time></trkpt><trkpt lat="45.8023722" lon="9.433311"><ele>235.0</ele><time>2026-04-11T10:59:32.368Z</time></trkpt><trkpt lat="45.8024571" lon="9.4332839"><ele>235.0</ele><time>2026-04-11T10:59:33.367Z</time></trkpt><trkpt lat="45.8025273" lon="9.4332479"><ele>235.0</ele><time>2026-04-11T10:59:34.372Z</time></trkpt><trkpt lat="45.8025897" lon="9.4332226"><ele>234.99999999999997</ele><time>2026-04-11T10:59:35.365Z</time></trkpt><trkpt lat="45.8027006" lon="9.4331902"><ele>235.0</ele><time>2026-04-11T10:59:37.361Z</time></trkpt><trkpt lat="45.8027644" lon="9.4331826"><ele>236.7142857142857</ele><time>2026-04-11T10:59:38.37Z</time></trkpt><trkpt lat="45.8028271" lon="9.4331967"><ele>238.4285714285714</ele><time>2026-04-11T10:59:39.362Z</time></trkpt><trkpt lat="45.8028844" lon="9.4332388"><ele>240.14285714285714</ele><time>2026-04-11T10:59:40.372Z</time></trkpt><trkpt lat="45.8029259" lon="9.433318"><ele>241.85714285714283</ele><time>2026-04-11T10:59:41.365Z</time></trkpt><trkpt lat="45.8029586" lon="9.4334214"><ele>243.57142857142856</ele><time>2026-04-11T10:59:42.371Z</time></trkpt><trkpt lat="45.8029736" lon="9.4335361"><ele>245.28571428571428</ele><time>2026-04-11T10:59:43.362Z</time></trkpt><trkpt lat="45.8029657" lon="9.4336469"><ele>247.0</ele><time>2026-04-11T10:59:44.369Z</time></trkpt><trkpt lat="45.8029262" lon="9.433745"><ele>248.0</ele><time>2026-04-11T10:59:45.364Z</time></trkpt><trkpt lat="45.8028667" lon="9.4338293"><ele>249.0</ele><time>2026-04-11T10:59:46.369Z</time></trkpt><trkpt lat="45.8027897" lon="9.4339169"><ele>250.0</ele><time>2026-04-11T10:59:47.36Z</time></trkpt><trkpt lat="45.8027001" lon="9.4340067"><ele>251.0</ele><time>2026-04-11T10:59:48.37Z</time></trkpt><trkpt lat="45.8026233" lon="9.4340822"><ele>252.0</ele><time>2026-04-11T10:59:49.363Z</time></trkpt><trkpt lat="45.8025558" lon="9.4341598"><ele>251.16666666666666</ele><time>2026-04-11T10:59:50.368Z</time></trkpt><trkpt lat="45.8024931" lon="9.4342404"><ele>250.33333333333331</ele><time>2026-04-11T10:59:51.363Z</time></trkpt><trkpt lat="45.802441" lon="9.4343232"><ele>249.5</ele><time>2026-04-11T10:59:52.372Z</time></trkpt><trkpt lat="45.802454" lon="9.4344219"><ele>248.66666666666666</ele><time>2026-04-11T10:59:53.362Z</time></trkpt><trkpt lat="45.802449" lon="9.4345133"><ele>247.83333333333331</ele><time>2026-04-11T10:59:54.359Z</time></trkpt><trkpt lat="45.8025146" lon="9.4345949"><ele>247.0</ele><time>2026-04-11T10:59:55.352Z</time></trkpt><trkpt lat="45.8025574" lon="9.4346766"><ele>246.99999999999997</ele><time>2026-04-11T10:59:56.358Z</time></trkpt><trkpt lat="45.8026337" lon="9.434673"><ele>247.0</ele><time>2026-04-11T10:59:57.365Z</time></trkpt><trkpt lat="45.8027007" lon="9.4346627"><ele>247.0</ele><time>2026-04-11T10:59:58.361Z</time></trkpt><trkpt lat="45.8027631" lon="9.4346079"><ele>247.0</ele><time>2026-04-11T10:59:59.36Z</time></trkpt><trkpt lat="45.8028359" lon="9.4345369"><ele>246.99999999999997</ele><time>2026-04-11T11:00:00.363Z</time></trkpt><trkpt lat="45.8029208" lon="9.4344523"><ele>247.0</ele><time>2026-04-11T11:00:01.368Z</time></trkpt><trkpt lat="45.8030146" lon="9.4343536"><ele>248.0</ele><time>2026-04-11T11:00:02.36Z</time></trkpt><trkpt lat="45.8031049" lon="9.4342573"><ele>249.0</ele><time>2026-04-11T11:00:03.369Z</time></trkpt><trkpt lat="45.8031844" lon="9.4341769"><ele>250.0</ele><time>2026-04-11T11:00:04.361Z</time></trkpt><trkpt lat="45.8032536" lon="9.4341114"><ele>251.0</ele><time>2026-04-11T11:00:05.368Z</time></trkpt><trkpt lat="45.8033125" lon="9.4340548"><ele>252.0</ele><time>2026-04-11T11:00:06.364Z</time></trkpt><trkpt lat="45.8034291" lon="9.4340341"><ele>252.0</ele><time>2026-04-11T11:00:08.362Z</time></trkpt><trkpt lat="45.8035172" lon="9.4341357"><ele>252.0</ele><time>2026-04-11T11:00:10.362Z</time></trkpt><trkpt lat="45.8035354" lon="9.4342265"><ele>252.0</ele><time>2026-04-11T11:00:11.371Z</time></trkpt><trkpt lat="45.8035191" lon="9.4343396"><ele>252.0</ele><time>2026-04-11T11:00:12.362Z</time></trkpt><trkpt lat="45.8034802" lon="9.4344795"><ele>252.0</ele><time>2026-04-11T11:00:13.37Z</time></trkpt><trkpt lat="45.8034325" lon="9.4346379"><ele>252.8</ele><time>2026-04-11T11:00:14.36Z</time></trkpt><trkpt lat="45.8033834" lon="9.4347959"><ele>253.6</ele><time>2026-04-11T11:00:15.364Z</time></trkpt><trkpt lat="45.8033311" lon="9.4349419"><ele>254.40000000000003</ele><time>2026-04-11T11:00:16.36Z</time></trkpt><trkpt lat="45.8032911" lon="9.4350608"><ele>255.20000000000002</ele><time>2026-04-11T11:00:17.366Z</time></trkpt><trkpt lat="45.8032502" lon="9.435176"><ele>256.0</ele><time>2026-04-11T11:00:18.362Z</time></trkpt><trkpt lat="45.8032089" lon="9.4352973"><ele>256.0</ele><time>2026-04-11T11:00:19.362Z</time></trkpt><trkpt lat="45.8031748" lon="9.4354168"><ele>256.0</ele><time>2026-04-11T11:00:20.363Z</time></trkpt><trkpt lat="45.8031602" lon="9.435547"><ele>256.0</ele><time>2026-04-11T11:00:21.368Z</time></trkpt><trkpt lat="45.8031657" lon="9.4356807"><ele>256.0</ele><time>2026-04-11T11:00:22.366Z</time></trkpt><trkpt lat="45.8031846" lon="9.4358272"><ele>256.0</ele><time>2026-04-11T11:00:23.37Z</time></trkpt><trkpt lat="45.8032063" lon="9.4359935"><ele>257.0</ele><time>2026-04-11T11:00:24.359Z</time></trkpt><trkpt lat="45.8032224" lon="9.4361315"><ele>258.0</ele><time>2026-04-11T11:00:25.369Z</time></trkpt><trkpt lat="45.803239" lon="9.4362532"><ele>259.0</ele><time>2026-04-11T11:00:26.363Z</time></trkpt><trkpt lat="45.8032551" lon="9.4363594"><ele>260.0</ele><time>2026-04-11T11:00:27.36Z</time></trkpt><trkpt lat="45.8032752" lon="9.4364588"><ele>261.0</ele><time>2026-04-11T11:00:28.357Z</time></trkpt><trkpt lat="45.8033144" lon="9.4365429"><ele>262.0</ele><time>2026-04-11T11:00:29.369Z</time></trkpt><trkpt lat="45.8033684" lon="9.4365984"><ele>263.4</ele><time>2026-04-11T11:00:30.364Z</time></trkpt><trkpt lat="45.8034325" lon="9.4366106"><ele>264.79999999999995</ele><time>2026-04-11T11:00:31.363Z</time></trkpt><trkpt lat="45.8035437" lon="9.4365415"><ele>266.2</ele><time>2026-04-11T11:00:33.37Z</time></trkpt><trkpt lat="45.8035998" lon="9.4364539"><ele>267.59999999999997</ele><time>2026-04-11T11:00:34.364Z</time></trkpt><trkpt lat="45.8036623" lon="9.4363373"><ele>269.0</ele><time>2026-04-11T11:00:35.368Z</time></trkpt><trkpt lat="45.8037305" lon="9.4362169"><ele>270.2</ele><time>2026-04-11T11:00:36.363Z</time></trkpt><trkpt lat="45.8037981" lon="9.4360984"><ele>271.4</ele><time>2026-04-11T11:00:37.37Z</time></trkpt><trkpt lat="45.8038534" lon="9.4360045"><ele>272.6</ele><time>2026-04-11T11:00:38.36Z</time></trkpt><trkpt lat="45.8039195" lon="9.4359179"><ele>273.8</ele><time>2026-04-11T11:00:39.368Z</time></trkpt><trkpt lat="45.8040052" lon="9.4358436"><ele>275.0</ele><time>2026-04-11T11:00:40.367Z</time></trkpt><trkpt lat="45.8040921" lon="9.4357659"><ele>275.0</ele><time>2026-04-11T11:00:41.37Z</time></trkpt><trkpt lat="45.8041669" lon="9.4357042"><ele>275.0</ele><time>2026-04-11T11:00:42.362Z</time></trkpt><trkpt lat="45.8042353" lon="9.4356435"><ele>275.0</ele><time>2026-04-11T11:00:43.368Z</time></trkpt><trkpt lat="45.8043091" lon="9.4355807"><ele>275.0</ele><time>2026-04-11T11:00:44.365Z</time></trkpt><trkpt lat="45.8043786" lon="9.435511"><ele>275.0</ele><time>2026-04-11T11:00:45.37Z</time></trkpt><trkpt lat="45.8044458" lon="9.435433"><ele>275.0</ele><time>2026-04-11T11:00:46.367Z</time></trkpt><trkpt lat="45.8044971" lon="9.435325"><ele>277.75</ele><time>2026-04-11T11:00:47.364Z</time></trkpt><trkpt lat="45.8045637" lon="9.4351985"><ele>280.5</ele><time>2026-04-11T11:00:48.368Z</time></trkpt><trkpt lat="45.8046329" lon="9.4350649"><ele>283.25</ele><time>2026-04-11T11:00:49.366Z</time></trkpt><trkpt lat="45.8047025" lon="9.4349234"><ele>286.0</ele><time>2026-04-11T11:00:50.37Z</time></trkpt><trkpt lat="45.8047669" lon="9.4347887"><ele>286.0</ele><time>2026-04-11T11:00:51.369Z</time></trkpt><trkpt lat="45.8048129" lon="9.4346494"><ele>286.0</ele><time>2026-04-11T11:00:52.366Z</time></trkpt><trkpt lat="45.8048446" lon="9.4345221"><ele>286.0</ele><time>2026-04-11T11:00:53.36Z</time></trkpt><trkpt lat="45.8048702" lon="9.4344071"><ele>286.0</ele><time>2026-04-11T11:00:54.366Z</time></trkpt><trkpt lat="45.8048919" lon="9.4343175"><ele>286.0</ele><time>2026-04-11T11:00:55.364Z</time></trkpt><trkpt lat="45.8049613" lon="9.4342077"><ele>284.8</ele><time>2026-04-11T11:00:57.363Z</time></trkpt><trkpt lat="45.8050763" lon="9.4342126"><ele>283.6</ele><time>2026-04-11T11:00:59.361Z</time></trkpt><trkpt lat="45.8051492" lon="9.434234"><ele>282.4</ele><time>2026-04-11T11:01:00.366Z</time></trkpt><trkpt lat="45.8052251" lon="9.434258"><ele>281.2</ele><time>2026-04-11T11:01:01.363Z</time></trkpt><trkpt lat="45.8052951" lon="9.4342816"><ele>280.0</ele><time>2026-04-11T11:01:02.365Z</time></trkpt><trkpt lat="45.8054094" lon="9.4343477"><ele>279.8</ele><time>2026-04-11T11:01:04.359Z</time></trkpt><trkpt lat="45.805476" lon="9.4344682"><ele>279.6</ele><time>2026-04-11T11:01:06.363Z</time></trkpt><trkpt lat="45.8054565" lon="9.4345752"><ele>279.4</ele><time>2026-04-11T11:01:08.366Z</time></trkpt><trkpt lat="45.805328" lon="9.4346659"><ele>279.2</ele><time>2026-04-11T11:01:10.367Z</time></trkpt><trkpt lat="45.8052356" lon="9.434714"><ele>279.0</ele><time>2026-04-11T11:01:11.367Z</time></trkpt><trkpt lat="45.8051484" lon="9.4347805"><ele>280.4</ele><time>2026-04-11T11:01:12.361Z</time></trkpt><trkpt lat="45.8050698" lon="9.4348557"><ele>281.79999999999995</ele><time>2026-04-11T11:01:13.363Z</time></trkpt><trkpt lat="45.8050011" lon="9.4349503"><ele>283.20000000000005</ele><time>2026-04-11T11:01:14.36Z</time></trkpt><trkpt lat="45.8049391" lon="9.435063"><ele>284.6</ele><time>2026-04-11T11:01:15.362Z</time></trkpt><trkpt lat="45.8048831" lon="9.4351877"><ele>286.0</ele><time>2026-04-11T11:01:16.367Z</time></trkpt><trkpt lat="45.8048323" lon="9.4353111"><ele>286.0</ele><time>2026-04-11T11:01:17.363Z</time></trkpt><trkpt lat="45.8047907" lon="9.4354446"><ele>286.0</ele><time>2026-04-11T11:01:18.366Z</time></trkpt><trkpt lat="45.8047682" lon="9.4355816"><ele>286.0</ele><time>2026-04-11T11:01:19.363Z</time></trkpt><trkpt lat="45.8047635" lon="9.4357134"><ele>286.0</ele><time>2026-04-11T11:01:20.366Z</time></trkpt><trkpt lat="45.8047767" lon="9.4358277"><ele>286.0</ele><time>2026-04-11T11:01:21.369Z</time></trkpt><trkpt lat="45.8047929" lon="9.4359201"><ele>286.0</ele><time>2026-04-11T11:01:22.362Z</time></trkpt><trkpt lat="45.8048023" lon="9.4360217"><ele>287.6</ele><time>2026-04-11T11:01:23.365Z</time></trkpt><trkpt lat="45.8048086" lon="9.4361272"><ele>289.20000000000005</ele><time>2026-04-11T11:01:24.368Z</time></trkpt><trkpt lat="45.8048004" lon="9.4362403"><ele>290.79999999999995</ele><time>2026-04-11T11:01:25.366Z</time></trkpt><trkpt lat="45.8047628" lon="9.4363526"><ele>292.4</ele><time>2026-04-11T11:01:26.367Z</time></trkpt><trkpt lat="45.8046993" lon="9.4364707"><ele>294.0</ele><time>2026-04-11T11:01:27.363Z</time></trkpt><trkpt lat="45.8046137" lon="9.4365857"><ele>292.4</ele><time>2026-04-11T11:01:28.369Z</time></trkpt><trkpt lat="45.8045251" lon="9.4366743"><ele>290.79999999999995</ele><time>2026-04-11T11:01:29.366Z</time></trkpt><trkpt lat="45.8044458" lon="9.4367495"><ele>289.20000000000005</ele><time>2026-04-11T11:01:30.369Z</time></trkpt><trkpt lat="45.8043692" lon="9.4368139"><ele>287.6</ele><time>2026-04-11T11:01:31.363Z</time></trkpt><trkpt lat="45.8043115" lon="9.436875"><ele>286.0</ele><time>2026-04-11T11:01:32.372Z</time></trkpt><trkpt lat="45.8043023" lon="9.4370267"><ele>290.0</ele><time>2026-04-11T11:01:34.359Z</time></trkpt><trkpt lat="45.8043979" lon="9.4370531"><ele>294.0</ele><time>2026-04-11T11:01:36.365Z</time></trkpt><trkpt lat="45.8044999" lon="9.4369165"><ele>298.0</ele><time>2026-04-11T11:01:38.37Z</time></trkpt><trkpt lat="45.8045816" lon="9.4368482"><ele>302.0</ele><time>2026-04-11T11:01:39.36Z</time></trkpt><trkpt lat="45.8046703" lon="9.4367734"><ele>306.0</ele><time>2026-04-11T11:01:40.371Z</time></trkpt><trkpt lat="45.8048239" lon="9.4367032"><ele>306.0</ele><time>2026-04-11T11:01:41.363Z</time></trkpt><trkpt lat="45.8049286" lon="9.4366395"><ele>306.0</ele><time>2026-04-11T11:01:42.359Z</time></trkpt><trkpt lat="45.8050319" lon="9.4365853"><ele>306.0</ele><time>2026-04-11T11:01:43.362Z</time></trkpt><trkpt lat="45.8051271" lon="9.4365516"><ele>306.0</ele><time>2026-04-11T11:01:44.362Z</time></trkpt><trkpt lat="45.805221" lon="9.4365489"><ele>306.0</ele><time>2026-04-11T11:01:45.369Z</time></trkpt><trkpt lat="45.8053177" lon="9.4365721"><ele>307.40000000000003</ele><time>2026-04-11T11:01:46.366Z</time></trkpt><trkpt lat="45.8054213" lon="9.436623"><ele>308.8</ele><time>2026-04-11T11:01:47.369Z</time></trkpt><trkpt lat="45.8055301" lon="9.4366759"><ele>310.20000000000005</ele><time>2026-04-11T11:01:48.364Z</time></trkpt><trkpt lat="45.8056278" lon="9.436725"><ele>311.6</ele><time>2026-04-11T11:01:49.368Z</time></trkpt><trkpt lat="45.8057331" lon="9.4367759"><ele>313.0</ele><time>2026-04-11T11:01:50.368Z</time></trkpt><trkpt lat="45.8058423" lon="9.4368359"><ele>313.0</ele><time>2026-04-11T11:01:51.449Z</time></trkpt><trkpt lat="45.805949" lon="9.4368932"><ele>313.0</ele><time>2026-04-11T11:01:52.365Z</time></trkpt><trkpt lat="45.8060443" lon="9.4369445"><ele>313.0</ele><time>2026-04-11T11:01:53.37Z</time></trkpt><trkpt lat="45.8061422" lon="9.4369813"><ele>313.0</ele><time>2026-04-11T11:01:54.361Z</time></trkpt><trkpt lat="45.8062393" lon="9.4369981"><ele>313.0</ele><time>2026-04-11T11:01:55.369Z</time></trkpt><trkpt lat="45.8063283" lon="9.4370031"><ele>311.16666666666663</ele><time>2026-04-11T11:01:56.364Z</time></trkpt><trkpt lat="45.8064131" lon="9.4370152"><ele>309.3333333333333</ele><time>2026-04-11T11:01:57.363Z</time></trkpt><trkpt lat="45.806497" lon="9.4370424"><ele>307.5</ele><time>2026-04-11T11:01:58.368Z</time></trkpt><trkpt lat="45.8065781" lon="9.4370981"><ele>305.6666666666667</ele><time>2026-04-11T11:01:59.361Z</time></trkpt><trkpt lat="45.806661" lon="9.4371483"><ele>303.83333333333337</ele><time>2026-04-11T11:02:00.371Z</time></trkpt><trkpt lat="45.8067401" lon="9.4371986"><ele>302.0</ele><time>2026-04-11T11:02:01.365Z</time></trkpt><trkpt lat="45.8068109" lon="9.4372416"><ele>307.5</ele><time>2026-04-11T11:02:02.368Z</time></trkpt><trkpt lat="45.8068716" lon="9.4372787"><ele>313.0</ele><time>2026-04-11T11:02:03.361Z</time></trkpt><trkpt lat="45.806978" lon="9.4373353"><ele>318.5</ele><time>2026-04-11T11:02:05.368Z</time></trkpt><trkpt lat="45.8070569" lon="9.4373409"><ele>324.0</ele><time>2026-04-11T11:02:07.364Z</time></trkpt><trkpt lat="45.8071254" lon="9.4373204"><ele>329.5</ele><time>2026-04-11T11:02:09.361Z</time></trkpt><trkpt lat="45.8072023" lon="9.437369"><ele>335.0</ele><time>2026-04-11T11:02:11.359Z</time></trkpt><trkpt lat="45.8071939" lon="9.4374798"><ele>335.0</ele><time>2026-04-11T11:02:13.362Z</time></trkpt><trkpt lat="45.8071055" lon="9.4375145"><ele>335.0</ele><time>2026-04-11T11:02:15.362Z</time></trkpt><trkpt lat="45.8069682" lon="9.4374756"><ele>335.0</ele><time>2026-04-11T11:02:17.36Z</time></trkpt><trkpt lat="45.8068872" lon="9.4374571"><ele>335.0</ele><time>2026-04-11T11:02:18.362Z</time></trkpt><trkpt lat="45.8068042" lon="9.4374383"><ele>335.0</ele><time>2026-04-11T11:02:19.368Z</time></trkpt><trkpt lat="45.8067137" lon="9.4374182"><ele>335.0</ele><time>2026-04-11T11:02:20.364Z</time></trkpt><trkpt lat="45.8066261" lon="9.4373974"><ele>335.0</ele><time>2026-04-11T11:02:21.367Z</time></trkpt><trkpt lat="45.8065451" lon="9.4373788"><ele>335.0</ele><time>2026-04-11T11:02:22.364Z</time></trkpt><trkpt lat="45.8064673" lon="9.4373617"><ele>335.0</ele><time>2026-04-11T11:02:23.36Z</time></trkpt><trkpt lat="45.8063963" lon="9.4373514"><ele>335.0</ele><time>2026-04-11T11:02:24.365Z</time></trkpt><trkpt lat="45.8063295" lon="9.4373336"><ele>335.0</ele><time>2026-04-11T11:02:25.368Z</time></trkpt><trkpt lat="45.8062634" lon="9.4373323"><ele>335.0</ele><time>2026-04-11T11:02:26.363Z</time></trkpt><trkpt lat="45.8061902" lon="9.437345"><ele>335.0</ele><time>2026-04-11T11:02:27.369Z</time></trkpt><trkpt lat="45.8061219" lon="9.4373731"><ele>335.0</ele><time>2026-04-11T11:02:28.358Z</time></trkpt><trkpt lat="45.8060477" lon="9.437413"><ele>335.0</ele><time>2026-04-11T11:02:29.368Z</time></trkpt><trkpt lat="45.805974" lon="9.4374624"><ele>335.0</ele><time>2026-04-11T11:02:30.362Z</time></trkpt><trkpt lat="45.8058855" lon="9.4375165"><ele>335.0</ele><time>2026-04-11T11:02:31.367Z</time></trkpt><trkpt lat="45.8058066" lon="9.4375458"><ele>335.33333333333337</ele><time>2026-04-11T11:02:32.36Z</time></trkpt><trkpt lat="45.8057103" lon="9.4375529"><ele>335.6666666666667</ele><time>2026-04-11T11:02:33.368Z</time></trkpt><trkpt lat="45.8056118" lon="9.4375346"><ele>336.0</ele><time>2026-04-11T11:02:34.361Z</time></trkpt><trkpt lat="45.8055315" lon="9.437516"><ele>336.3333333333333</ele><time>2026-04-11T11:02:35.37Z</time></trkpt><trkpt lat="45.8054677" lon="9.4375013"><ele>336.66666666666663</ele><time>2026-04-11T11:02:36.36Z</time></trkpt><trkpt lat="45.8053613" lon="9.4374941"><ele>337.0</ele><time>2026-04-11T11:02:38.37Z</time></trkpt><trkpt lat="45.8052845" lon="9.4375583"><ele>337.0</ele><time>2026-04-11T11:02:40.367Z</time></trkpt><trkpt lat="45.8052831" lon="9.437679"><ele>337.0</ele><time>2026-04-11T11:02:42.366Z</time></trkpt><trkpt lat="45.8053712" lon="9.4377271"><ele>337.0</ele><time>2026-04-11T11:02:44.362Z</time></trkpt><trkpt lat="45.8054485" lon="9.4376965"><ele>337.0</ele><time>2026-04-11T11:02:47.365Z</time></trkpt><trkpt lat="45.8055497" lon="9.4376658"><ele>337.0</ele><time>2026-04-11T11:02:50.365Z</time></trkpt><trkpt lat="45.805615" lon="9.4376916"><ele>337.0</ele><time>2026-04-11T11:02:51.365Z</time></trkpt><trkpt lat="45.805682" lon="9.4377084"><ele>337.0</ele><time>2026-04-11T11:02:52.364Z</time></trkpt><trkpt lat="45.8058068" lon="9.4376922"><ele>337.0</ele><time>2026-04-11T11:02:54.366Z</time></trkpt><trkpt lat="45.80587" lon="9.437679"><ele>337.0</ele><time>2026-04-11T11:02:55.369Z</time></trkpt><trkpt lat="45.8059356" lon="9.4376538"><ele>337.0</ele><time>2026-04-11T11:02:56.359Z</time></trkpt><trkpt lat="45.8059991" lon="9.4376331"><ele>337.0</ele><time>2026-04-11T11:02:57.369Z</time></trkpt><trkpt lat="45.8060649" lon="9.4376105"><ele>337.0</ele><time>2026-04-11T11:02:58.36Z</time></trkpt><trkpt lat="45.8061287" lon="9.4375916"><ele>336.6</ele><time>2026-04-11T11:02:59.365Z</time></trkpt><trkpt lat="45.8062553" lon="9.437585"><ele>336.20000000000005</ele><time>2026-04-11T11:03:01.364Z</time></trkpt><trkpt lat="45.8063374" lon="9.4376064"><ele>335.8</ele><time>2026-04-11T11:03:02.367Z</time></trkpt><trkpt lat="45.8064352" lon="9.4376407"><ele>335.4</ele><time>2026-04-11T11:03:03.361Z</time></trkpt><trkpt lat="45.8065391" lon="9.4376868"><ele>335.0</ele><time>2026-04-11T11:03:04.365Z</time></trkpt><trkpt lat="45.80663" lon="9.4377252"><ele>335.0</ele><time>2026-04-11T11:03:05.365Z</time></trkpt><trkpt lat="45.8067138" lon="9.4377661"><ele>335.0</ele><time>2026-04-11T11:03:06.367Z</time></trkpt><trkpt lat="45.8067841" lon="9.4378038"><ele>335.0</ele><time>2026-04-11T11:03:07.363Z</time></trkpt><trkpt lat="45.8068594" lon="9.4378533"><ele>335.0</ele><time>2026-04-11T11:03:08.371Z</time></trkpt><trkpt lat="45.8069341" lon="9.4379058"><ele>335.0</ele><time>2026-04-11T11:03:09.37Z</time></trkpt><trkpt lat="45.807006" lon="9.4379602"><ele>335.0</ele><time>2026-04-11T11:03:10.363Z</time></trkpt><trkpt lat="45.807082" lon="9.4379969"><ele>335.0</ele><time>2026-04-11T11:03:11.369Z</time></trkpt><trkpt lat="45.8071744" lon="9.4380046"><ele>335.0</ele><time>2026-04-11T11:03:12.363Z</time></trkpt><trkpt lat="45.8072577" lon="9.4380037"><ele>335.0</ele><time>2026-04-11T11:03:13.369Z</time></trkpt><trkpt lat="45.8073346" lon="9.4379979"><ele>335.0</ele><time>2026-04-11T11:03:14.366Z</time></trkpt><trkpt lat="45.8074085" lon="9.4379763"><ele>335.0</ele><time>2026-04-11T11:03:15.367Z</time></trkpt><trkpt lat="45.8075139" lon="9.4379299"><ele>335.0</ele><time>2026-04-11T11:03:17.366Z</time></trkpt><trkpt lat="45.807607" lon="9.4378817"><ele>332.6</ele><time>2026-04-11T11:03:19.368Z</time></trkpt><trkpt lat="45.8076722" lon="9.437937"><ele>330.2</ele><time>2026-04-11T11:03:21.368Z</time></trkpt><trkpt lat="45.8076554" lon="9.4380462"><ele>327.79999999999995</ele><time>2026-04-11T11:03:23.367Z</time></trkpt><trkpt lat="45.8075282" lon="9.4380602"><ele>325.4</ele><time>2026-04-11T11:03:25.362Z</time></trkpt><trkpt lat="45.8074306" lon="9.4380754"><ele>323.0</ele><time>2026-04-11T11:03:26.362Z</time></trkpt><trkpt lat="45.8073339" lon="9.4381186"><ele>330.59999999999997</ele><time>2026-04-11T11:03:27.369Z</time></trkpt><trkpt lat="45.8072403" lon="9.4381566"><ele>338.2</ele><time>2026-04-11T11:03:28.365Z</time></trkpt><trkpt lat="45.8071403" lon="9.4381716"><ele>345.8</ele><time>2026-04-11T11:03:29.368Z</time></trkpt><trkpt lat="45.8070401" lon="9.4381585"><ele>353.4</ele><time>2026-04-11T11:03:30.368Z</time></trkpt><trkpt lat="45.8069514" lon="9.4381465"><ele>361.0</ele><time>2026-04-11T11:03:31.369Z</time></trkpt><trkpt lat="45.8068715" lon="9.438128"><ele>361.16666666666663</ele><time>2026-04-11T11:03:32.366Z</time></trkpt><trkpt lat="45.8067869" lon="9.4381119"><ele>361.3333333333333</ele><time>2026-04-11T11:03:33.365Z</time></trkpt><trkpt lat="45.8066968" lon="9.4380956"><ele>361.5</ele><time>2026-04-11T11:03:34.362Z</time></trkpt><trkpt lat="45.8066083" lon="9.4380832"><ele>361.6666666666667</ele><time>2026-04-11T11:03:35.364Z</time></trkpt><trkpt lat="45.8065236" lon="9.4380759"><ele>361.83333333333337</ele><time>2026-04-11T11:03:36.365Z</time></trkpt><trkpt lat="45.806441" lon="9.4380705"><ele>362.0</ele><time>2026-04-11T11:03:37.362Z</time></trkpt><trkpt lat="45.806369" lon="9.4380631"><ele>362.0</ele><time>2026-04-11T11:03:38.366Z</time></trkpt><trkpt lat="45.8062391" lon="9.4380634"><ele>362.0</ele><time>2026-04-11T11:03:40.366Z</time></trkpt><trkpt lat="45.8061781" lon="9.438089"><ele>362.0</ele><time>2026-04-11T11:03:41.367Z</time></trkpt><trkpt lat="45.806128" lon="9.4381712"><ele>362.0</ele><time>2026-04-11T11:03:42.366Z</time></trkpt><trkpt lat="45.8060971" lon="9.4382698"><ele>362.0</ele><time>2026-04-11T11:03:43.367Z</time></trkpt><trkpt lat="45.8060779" lon="9.4384081"><ele>362.0</ele><time>2026-04-11T11:03:44.365Z</time></trkpt><trkpt lat="45.8060671" lon="9.4385415"><ele>362.0</ele><time>2026-04-11T11:03:45.366Z</time></trkpt><trkpt lat="45.8060713" lon="9.4386697"><ele>362.0</ele><time>2026-04-11T11:03:46.367Z</time></trkpt><trkpt lat="45.8060887" lon="9.4387963"><ele>362.0</ele><time>2026-04-11T11:03:47.366Z</time></trkpt><trkpt lat="45.8061209" lon="9.438923"><ele>362.0</ele><time>2026-04-11T11:03:48.367Z</time></trkpt><trkpt lat="45.8061668" lon="9.4390534"><ele>362.0</ele><time>2026-04-11T11:03:49.369Z</time></trkpt><trkpt lat="45.8062149" lon="9.439177"><ele>362.8</ele><time>2026-04-11T11:03:50.367Z</time></trkpt><trkpt lat="45.8062704" lon="9.4393029"><ele>363.6</ele><time>2026-04-11T11:03:51.369Z</time></trkpt><trkpt lat="45.8063249" lon="9.4394269"><ele>364.40000000000003</ele><time>2026-04-11T11:03:52.361Z</time></trkpt><trkpt lat="45.8063782" lon="9.4395561"><ele>365.20000000000005</ele><time>2026-04-11T11:03:53.365Z</time></trkpt><trkpt lat="45.8064283" lon="9.439686"><ele>366.0</ele><time>2026-04-11T11:03:54.363Z</time></trkpt><trkpt lat="45.8064749" lon="9.4398097"><ele>367.5</ele><time>2026-04-11T11:03:55.36Z</time></trkpt><trkpt lat="45.8065259" lon="9.4399247"><ele>369.0</ele><time>2026-04-11T11:03:56.366Z</time></trkpt><trkpt lat="45.806579" lon="9.4400359"><ele>370.5</ele><time>2026-04-11T11:03:57.467Z</time></trkpt><trkpt lat="45.8066725" lon="9.4402678"><ele>372.0</ele><time>2026-04-11T11:03:59.365Z</time></trkpt><trkpt lat="45.8067169" lon="9.4403822"><ele>372.8333333333333</ele><time>2026-04-11T11:04:00.365Z</time></trkpt><trkpt lat="45.8067608" lon="9.4404972"><ele>373.6666666666667</ele><time>2026-04-11T11:04:01.363Z</time></trkpt><trkpt lat="45.8068103" lon="9.4405994"><ele>374.5</ele><time>2026-04-11T11:04:02.366Z</time></trkpt><trkpt lat="45.8068603" lon="9.4406853"><ele>375.33333333333337</ele><time>2026-04-11T11:04:03.362Z</time></trkpt><trkpt lat="45.8069247" lon="9.4407501"><ele>376.1666666666667</ele><time>2026-04-11T11:04:04.36Z</time></trkpt><trkpt lat="45.8069932" lon="9.4407948"><ele>377.0</ele><time>2026-04-11T11:04:05.366Z</time></trkpt><trkpt lat="45.8070665" lon="9.4408322"><ele>377.5</ele><time>2026-04-11T11:04:06.36Z</time></trkpt><trkpt lat="45.8071407" lon="9.4408833"><ele>378.0</ele><time>2026-04-11T11:04:07.368Z</time></trkpt><trkpt lat="45.8072017" lon="9.4409527"><ele>378.5</ele><time>2026-04-11T11:04:08.363Z</time></trkpt><trkpt lat="45.8072385" lon="9.4410515"><ele>379.0</ele><time>2026-04-11T11:04:09.364Z</time></trkpt><trkpt lat="45.8072413" lon="9.4411532"><ele>379.5</ele><time>2026-04-11T11:04:10.36Z</time></trkpt><trkpt lat="45.8071998" lon="9.4412447"><ele>380.0</ele><time>2026-04-11T11:04:11.363Z</time></trkpt><trkpt lat="45.8071297" lon="9.4413017"><ele>381.0</ele><time>2026-04-11T11:04:12.363Z</time></trkpt><trkpt lat="45.8070467" lon="9.4413453"><ele>382.0</ele><time>2026-04-11T11:04:13.366Z</time></trkpt><trkpt lat="45.8069688" lon="9.4413754"><ele>383.0</ele><time>2026-04-11T11:04:14.366Z</time></trkpt><trkpt lat="45.8068827" lon="9.4414064"><ele>384.0</ele><time>2026-04-11T11:04:15.366Z</time></trkpt><trkpt lat="45.8068074" lon="9.4414362"><ele>385.0</ele><time>2026-04-11T11:04:16.365Z</time></trkpt><trkpt lat="45.8067015" lon="9.4415117"><ele>385.0</ele><time>2026-04-11T11:04:18.361Z</time></trkpt><trkpt lat="45.8066439" lon="9.4416818"><ele>385.0</ele><time>2026-04-11T11:04:20.362Z</time></trkpt><trkpt lat="45.8066431" lon="9.4418004"><ele>385.0</ele><time>2026-04-11T11:04:21.369Z</time></trkpt><trkpt lat="45.8066517" lon="9.4419237"><ele>385.0</ele><time>2026-04-11T11:04:22.365Z</time></trkpt><trkpt lat="45.8066646" lon="9.4420461"><ele>385.0</ele><time>2026-04-11T11:04:23.371Z</time></trkpt><trkpt lat="45.8066748" lon="9.4421671"><ele>386.6666666666667</ele><time>2026-04-11T11:04:24.361Z</time></trkpt><trkpt lat="45.8066844" lon="9.442277"><ele>388.33333333333337</ele><time>2026-04-11T11:04:25.369Z</time></trkpt><trkpt lat="45.8066921" lon="9.4423777"><ele>390.0</ele><time>2026-04-11T11:04:26.364Z</time></trkpt><trkpt lat="45.8067021" lon="9.4424684"><ele>391.66666666666663</ele><time>2026-04-11T11:04:27.369Z</time></trkpt><trkpt lat="45.8067321" lon="9.4426412"><ele>393.3333333333333</ele><time>2026-04-11T11:04:29.37Z</time></trkpt><trkpt lat="45.8067518" lon="9.4427871"><ele>395.0</ele><time>2026-04-11T11:04:31.368Z</time></trkpt><trkpt lat="45.8067226" lon="9.4428933"><ele>394.99999999999994</ele><time>2026-04-11T11:04:33.37Z</time></trkpt><trkpt lat="45.8066656" lon="9.4429389"><ele>395.0</ele><time>2026-04-11T11:04:35.371Z</time></trkpt><trkpt lat="45.8065888" lon="9.4428775"><ele>395.0</ele><time>2026-04-11T11:04:37.368Z</time></trkpt><trkpt lat="45.80654" lon="9.442801"><ele>395.0</ele><time>2026-04-11T11:04:38.364Z</time></trkpt><trkpt lat="45.8064799" lon="9.4427203"><ele>394.99999999999994</ele><time>2026-04-11T11:04:39.367Z</time></trkpt><trkpt lat="45.8064314" lon="9.4426537"><ele>395.0</ele><time>2026-04-11T11:04:40.362Z</time></trkpt><trkpt lat="45.8063489" lon="9.4425452"><ele>394.99999999999994</ele><time>2026-04-11T11:04:42.362Z</time></trkpt><trkpt lat="45.8062765" lon="9.4425053"><ele>395.0</ele><time>2026-04-11T11:04:44.363Z</time></trkpt><trkpt lat="45.8062035" lon="9.4425334"><ele>395.0</ele><time>2026-04-11T11:04:47.36Z</time></trkpt><trkpt lat="45.8061638" lon="9.4426134"><ele>395.0</ele><time>2026-04-11T11:04:52.363Z</time></trkpt><trkpt lat="45.8062001" lon="9.4426931"><ele>394.99999999999994</ele><time>2026-04-11T11:04:54.362Z</time></trkpt><trkpt lat="45.8062731" lon="9.4427515"><ele>395.0</ele><time>2026-04-11T11:04:56.359Z</time></trkpt><trkpt lat="45.8063705" lon="9.4428469"><ele>394.99999999999994</ele><time>2026-04-11T11:04:58.365Z</time></trkpt><trkpt lat="45.80642" lon="9.4429214"><ele>395.0</ele><time>2026-04-11T11:04:59.369Z</time></trkpt><trkpt lat="45.8064695" lon="9.4430023"><ele>395.0</ele><time>2026-04-11T11:05:00.36Z</time></trkpt><trkpt lat="45.8065179" lon="9.4430879"><ele>395.0</ele><time>2026-04-11T11:05:01.371Z</time></trkpt><trkpt lat="45.8065683" lon="9.4431758"><ele>394.99999999999994</ele><time>2026-04-11T11:05:02.362Z</time></trkpt><trkpt lat="45.8066243" lon="9.4432663"><ele>395.0</ele><time>2026-04-11T11:05:03.363Z</time></trkpt><trkpt lat="45.8066759" lon="9.4433629"><ele>397.6</ele><time>2026-04-11T11:05:04.362Z</time></trkpt><trkpt lat="45.8067242" lon="9.4434729"><ele>400.2</ele><time>2026-04-11T11:05:05.361Z</time></trkpt><trkpt lat="45.8067775" lon="9.4436027"><ele>402.79999999999995</ele><time>2026-04-11T11:05:06.36Z</time></trkpt><trkpt lat="45.8068326" lon="9.4437338"><ele>405.4</ele><time>2026-04-11T11:05:07.368Z</time></trkpt><trkpt lat="45.8068913" lon="9.443861"><ele>408.0</ele><time>2026-04-11T11:05:08.361Z</time></trkpt><trkpt lat="45.8069482" lon="9.4439709"><ele>412.0</ele><time>2026-04-11T11:05:09.371Z</time></trkpt><trkpt lat="45.8069958" lon="9.4440647"><ele>416.0</ele><time>2026-04-11T11:05:10.365Z</time></trkpt><trkpt lat="45.8070344" lon="9.4441403"><ele>420.0</ele><time>2026-04-11T11:05:11.366Z</time></trkpt><trkpt lat="45.8259958" lon="9.4539294"><ele>452.6</ele><time>2026-04-11T11:10:54.362Z</time></trkpt><trkpt lat="45.8261497" lon="9.4539573"><ele>485.2</ele><time>2026-04-11T11:10:59.355Z</time></trkpt><trkpt lat="45.8262352" lon="9.4539851"><ele>517.8</ele><time>2026-04-11T11:11:01.367Z</time></trkpt><trkpt lat="45.8263321" lon="9.4539948"><ele>550.4</ele><time>2026-04-11T11:11:03.369Z</time></trkpt><trkpt lat="45.8264258" lon="9.453976"><ele>583.0</ele><time>2026-04-11T11:11:05.36Z</time></trkpt><trkpt lat="45.8265105" lon="9.4539691"><ele>583.0</ele><time>2026-04-11T11:11:07.36Z</time></trkpt><trkpt lat="45.8266105" lon="9.4540114"><ele>583.0</ele><time>2026-04-11T11:11:09.36Z</time></trkpt><trkpt lat="45.8267202" lon="9.4540469"><ele>583.0</ele><time>2026-04-11T11:11:11.359Z</time></trkpt><trkpt lat="45.8268312" lon="9.454086"><ele>596.0</ele><time>2026-04-11T11:11:13.357Z</time></trkpt><trkpt lat="45.8269461" lon="9.4541235"><ele>596.0</ele><time>2026-04-11T11:11:15.36Z</time></trkpt></trkseg><trkseg><trkpt lat="45.8056737" lon="9.4366712"><ele>313.0</ele><time>2026-04-11T13:48:39.378Z</time></trkpt><trkpt lat="45.8056105" lon="9.4366449"><ele>313.0</ele><time>2026-04-11T13:48:40.376Z</time></trkpt><trkpt lat="45.805547" lon="9.4366117"><ele>313.0</ele><time>2026-04-11T13:48:41.375Z</time></trkpt><trkpt lat="45.8054781" lon="9.4365714"><ele>313.0</ele><time>2026-04-11T13:48:42.393Z</time></trkpt><trkpt lat="45.805409" lon="9.4365416"><ele>313.0</ele><time>2026-04-11T13:48:43.37Z</time></trkpt><trkpt lat="45.8053359" lon="9.4365114"><ele>313.0</ele><time>2026-04-11T13:48:44.38Z</time></trkpt><trkpt lat="45.8052585" lon="9.4364963"><ele>313.0</ele><time>2026-04-11T13:48:45.375Z</time></trkpt><trkpt lat="45.8051839" lon="9.436503"><ele>312.0</ele><time>2026-04-11T13:48:46.387Z</time></trkpt><trkpt lat="45.8051115" lon="9.4365219"><ele>311.0</ele><time>2026-04-11T13:48:47.371Z</time></trkpt><trkpt lat="45.8050412" lon="9.4365599"><ele>310.0</ele><time>2026-04-11T13:48:48.382Z</time></trkpt><trkpt lat="45.8049723" lon="9.4365971"><ele>309.0</ele><time>2026-04-11T13:48:49.374Z</time></trkpt><trkpt lat="45.8049052" lon="9.4366388"><ele>308.0</ele><time>2026-04-11T13:48:50.375Z</time></trkpt><trkpt lat="45.8048378" lon="9.4366712"><ele>307.0</ele><time>2026-04-11T13:48:51.38Z</time></trkpt><trkpt lat="45.8047676" lon="9.4367122"><ele>306.0</ele><time>2026-04-11T13:48:52.372Z</time></trkpt><trkpt lat="45.8046964" lon="9.43675"><ele>306.0</ele><time>2026-04-11T13:48:53.382Z</time></trkpt><trkpt lat="45.804622" lon="9.4367965"><ele>306.0</ele><time>2026-04-11T13:48:54.375Z</time></trkpt><trkpt lat="45.8045569" lon="9.4368414"><ele>306.0</ele><time>2026-04-11T13:48:55.373Z</time></trkpt><trkpt lat="45.804504" lon="9.4368957"><ele>306.0</ele><time>2026-04-11T13:48:56.375Z</time></trkpt><trkpt lat="45.8044601" lon="9.4369663"><ele>306.0</ele><time>2026-04-11T13:48:57.379Z</time></trkpt><trkpt lat="45.8043702" lon="9.4370579"><ele>306.0</ele><time>2026-04-11T13:48:59.374Z</time></trkpt><trkpt lat="45.804303" lon="9.4370106"><ele>306.0</ele><time>2026-04-11T13:49:01.374Z</time></trkpt><trkpt lat="45.8043369" lon="9.4368808"><ele>306.0</ele><time>2026-04-11T13:49:03.375Z</time></trkpt><trkpt lat="45.8044149" lon="9.4368084"><ele>306.0</ele><time>2026-04-11T13:49:04.378Z</time></trkpt><trkpt lat="45.804515" lon="9.4367166"><ele>306.0</ele><time>2026-04-11T13:49:05.376Z</time></trkpt><trkpt lat="45.804607" lon="9.4366245"><ele>306.0</ele><time>2026-04-11T13:49:06.378Z</time></trkpt><trkpt lat="45.8046933" lon="9.4365188"><ele>306.0</ele><time>2026-04-11T13:49:07.369Z</time></trkpt><trkpt lat="45.8047632" lon="9.4363987"><ele>306.0</ele><time>2026-04-11T13:49:08.379Z</time></trkpt><trkpt lat="45.8048079" lon="9.4362742"><ele>306.0</ele><time>2026-04-11T13:49:09.373Z</time></trkpt><trkpt lat="45.8048239" lon="9.4361473"><ele>306.0</ele><time>2026-04-11T13:49:10.382Z</time></trkpt><trkpt lat="45.8048125" lon="9.4360201"><ele>306.0</ele><time>2026-04-11T13:49:11.378Z</time></trkpt><trkpt lat="45.8047961" lon="9.435898"><ele>304.0</ele><time>2026-04-11T13:49:12.378Z</time></trkpt><trkpt lat="45.8047777" lon="9.4357798"><ele>302.0</ele><time>2026-04-11T13:49:13.372Z</time></trkpt><trkpt lat="45.804768" lon="9.43566"><ele>300.0</ele><time>2026-04-11T13:49:14.376Z</time></trkpt><trkpt lat="45.8047782" lon="9.4355485"><ele>298.0</ele><time>2026-04-11T13:49:15.373Z</time></trkpt><trkpt lat="45.8048043" lon="9.4354367"><ele>296.0</ele><time>2026-04-11T13:49:16.384Z</time></trkpt><trkpt lat="45.8048361" lon="9.43533"><ele>294.0</ele><time>2026-04-11T13:49:17.371Z</time></trkpt><trkpt lat="45.804874" lon="9.4352397"><ele>292.6666666666667</ele><time>2026-04-11T13:49:18.376Z</time></trkpt><trkpt lat="45.8049122" lon="9.4351425"><ele>291.3333333333333</ele><time>2026-04-11T13:49:19.399Z</time></trkpt><trkpt lat="45.8049567" lon="9.4350459"><ele>290.0</ele><time>2026-04-11T13:49:20.374Z</time></trkpt><trkpt lat="45.8049987" lon="9.4349612"><ele>288.66666666666663</ele><time>2026-04-11T13:49:21.375Z</time></trkpt><trkpt lat="45.8050521" lon="9.4348884"><ele>287.3333333333333</ele><time>2026-04-11T13:49:22.38Z</time></trkpt><trkpt lat="45.8051229" lon="9.4348156"><ele>286.0</ele><time>2026-04-11T13:49:23.369Z</time></trkpt><trkpt lat="45.8051946" lon="9.4347566"><ele>285.5</ele><time>2026-04-11T13:49:24.38Z</time></trkpt><trkpt lat="45.8052678" lon="9.4347091"><ele>285.0</ele><time>2026-04-11T13:49:25.378Z</time></trkpt><trkpt lat="45.8053335" lon="9.4346625"><ele>284.5</ele><time>2026-04-11T13:49:26.376Z</time></trkpt><trkpt lat="45.8053979" lon="9.4346243"><ele>284.0</ele><time>2026-04-11T13:49:27.367Z</time></trkpt><trkpt lat="45.8054759" lon="9.4345086"><ele>283.5</ele><time>2026-04-11T13:49:29.369Z</time></trkpt><trkpt lat="45.8054387" lon="9.4343577"><ele>283.0</ele><time>2026-04-11T13:49:31.377Z</time></trkpt><trkpt lat="45.8053847" lon="9.4342915"><ele>282.5</ele><time>2026-04-11T13:49:32.38Z</time></trkpt><trkpt lat="45.8053091" lon="9.4342543"><ele>282.0</ele><time>2026-04-11T13:49:33.372Z</time></trkpt><trkpt lat="45.8052325" lon="9.4342264"><ele>281.5</ele><time>2026-04-11T13:49:34.38Z</time></trkpt><trkpt lat="45.8051498" lon="9.4342053"><ele>281.0</ele><time>2026-04-11T13:49:35.371Z</time></trkpt><trkpt lat="45.8050771" lon="9.4341756"><ele>280.5</ele><time>2026-04-11T13:49:36.374Z</time></trkpt><trkpt lat="45.8050114" lon="9.4341504"><ele>280.0</ele><time>2026-04-11T13:49:37.372Z</time></trkpt><trkpt lat="45.8049446" lon="9.4341481"><ele>280.0</ele><time>2026-04-11T13:49:38.373Z</time></trkpt><trkpt lat="45.8048721" lon="9.4342665"><ele>280.0</ele><time>2026-04-11T13:49:40.374Z</time></trkpt><trkpt lat="45.804844" lon="9.434352"><ele>280.0</ele><time>2026-04-11T13:49:41.375Z</time></trkpt><trkpt lat="45.8048152" lon="9.434443"><ele>280.0</ele><time>2026-04-11T13:49:42.376Z</time></trkpt><trkpt lat="45.8047843" lon="9.4345496"><ele>280.0</ele><time>2026-04-11T13:49:43.368Z</time></trkpt><trkpt lat="45.804754" lon="9.4346616"><ele>280.0</ele><time>2026-04-11T13:49:44.378Z</time></trkpt><trkpt lat="45.8047179" lon="9.4347756"><ele>281.0</ele><time>2026-04-11T13:49:45.367Z</time></trkpt><trkpt lat="45.8046687" lon="9.4348802"><ele>282.0</ele><time>2026-04-11T13:49:46.38Z</time></trkpt><trkpt lat="45.8046151" lon="9.4349835"><ele>283.0</ele><time>2026-04-11T13:49:47.368Z</time></trkpt><trkpt lat="45.804561" lon="9.4350913"><ele>284.0</ele><time>2026-04-11T13:49:48.376Z</time></trkpt><trkpt lat="45.8045091" lon="9.4351916"><ele>285.0</ele><time>2026-04-11T13:49:49.395Z</time></trkpt><trkpt lat="45.804455" lon="9.4352913"><ele>286.0</ele><time>2026-04-11T13:49:50.375Z</time></trkpt><trkpt lat="45.8044006" lon="9.4353769"><ele>286.0</ele><time>2026-04-11T13:49:51.369Z</time></trkpt><trkpt lat="45.8043313" lon="9.4354596"><ele>286.0</ele><time>2026-04-11T13:49:52.379Z</time></trkpt><trkpt lat="45.8042421" lon="9.4355455"><ele>286.0</ele><time>2026-04-11T13:49:53.372Z</time></trkpt><trkpt lat="45.8041594" lon="9.4356182"><ele>286.0</ele><time>2026-04-11T13:49:54.38Z</time></trkpt><trkpt lat="45.8040788" lon="9.4356901"><ele>286.0</ele><time>2026-04-11T13:49:55.37Z</time></trkpt><trkpt lat="45.8040026" lon="9.4357544"><ele>284.16666666666663</ele><time>2026-04-11T13:49:56.378Z</time></trkpt><trkpt lat="45.803934" lon="9.4358188"><ele>282.3333333333333</ele><time>2026-04-11T13:49:57.372Z</time></trkpt><trkpt lat="45.8038777" lon="9.4358923"><ele>280.5</ele><time>2026-04-11T13:49:58.379Z</time></trkpt><trkpt lat="45.8038186" lon="9.4359827"><ele>278.6666666666667</ele><time>2026-04-11T13:49:59.371Z</time></trkpt><trkpt lat="45.8037624" lon="9.4360778"><ele>276.83333333333337</ele><time>2026-04-11T13:50:00.38Z</time></trkpt><trkpt lat="45.8037056" lon="9.4361739"><ele>275.0</ele><time>2026-04-11T13:50:01.369Z</time></trkpt><trkpt lat="45.8036505" lon="9.43627"><ele>274.0</ele><time>2026-04-11T13:50:02.373Z</time></trkpt><trkpt lat="45.8035983" lon="9.4363594"><ele>273.0</ele><time>2026-04-11T13:50:03.369Z</time></trkpt><trkpt lat="45.8035454" lon="9.4364413"><ele>272.0</ele><time>2026-04-11T13:50:04.37Z</time></trkpt><trkpt lat="45.8034938" lon="9.4365102"><ele>271.0</ele><time>2026-04-11T13:50:05.371Z</time></trkpt><trkpt lat="45.8034353" lon="9.4365641"><ele>270.0</ele><time>2026-04-11T13:50:06.377Z</time></trkpt><trkpt lat="45.803311" lon="9.4365527"><ele>269.0</ele><time>2026-04-11T13:50:08.381Z</time></trkpt><trkpt lat="45.8032661" lon="9.4364784"><ele>269.0</ele><time>2026-04-11T13:50:09.375Z</time></trkpt><trkpt lat="45.803242" lon="9.4363804"><ele>269.0</ele><time>2026-04-11T13:50:10.378Z</time></trkpt><trkpt lat="45.8032221" lon="9.4362372"><ele>269.0</ele><time>2026-04-11T13:50:11.366Z</time></trkpt><trkpt lat="45.8032006" lon="9.4360999"><ele>269.0</ele><time>2026-04-11T13:50:12.377Z</time></trkpt><trkpt lat="45.8031818" lon="9.4359601"><ele>269.0</ele><time>2026-04-11T13:50:13.374Z</time></trkpt><trkpt lat="45.8031638" lon="9.4358342"><ele>267.59999999999997</ele><time>2026-04-11T13:50:14.386Z</time></trkpt><trkpt lat="45.8031513" lon="9.4357111"><ele>266.2</ele><time>2026-04-11T13:50:15.376Z</time></trkpt><trkpt lat="45.8031478" lon="9.4355825"><ele>264.79999999999995</ele><time>2026-04-11T13:50:16.38Z</time></trkpt><trkpt lat="45.8031655" lon="9.4354371"><ele>263.4</ele><time>2026-04-11T13:50:17.37Z</time></trkpt><trkpt lat="45.8031982" lon="9.4352962"><ele>262.0</ele><time>2026-04-11T13:50:18.374Z</time></trkpt><trkpt lat="45.8032368" lon="9.4351676"><ele>260.8</ele><time>2026-04-11T13:50:19.367Z</time></trkpt><trkpt lat="45.803272" lon="9.4350514"><ele>259.6</ele><time>2026-04-11T13:50:20.382Z</time></trkpt><trkpt lat="45.8033131" lon="9.4349314"><ele>258.40000000000003</ele><time>2026-04-11T13:50:21.472Z</time></trkpt><trkpt lat="45.803351" lon="9.4348086"><ele>257.2</ele><time>2026-04-11T13:50:22.381Z</time></trkpt><trkpt lat="45.8033875" lon="9.4346842"><ele>256.0</ele><time>2026-04-11T13:50:23.377Z</time></trkpt><trkpt lat="45.8034289" lon="9.4345548"><ele>255.33333333333331</ele><time>2026-04-11T13:50:24.381Z</time></trkpt><trkpt lat="45.8034677" lon="9.434434"><ele>254.66666666666666</ele><time>2026-04-11T13:50:25.373Z</time></trkpt><trkpt lat="45.8034987" lon="9.4343201"><ele>254.0</ele><time>2026-04-11T13:50:26.376Z</time></trkpt><trkpt lat="45.8035094" lon="9.4342063"><ele>253.33333333333331</ele><time>2026-04-11T13:50:27.376Z</time></trkpt><trkpt lat="45.8034911" lon="9.434111"><ele>252.66666666666666</ele><time>2026-04-11T13:50:28.382Z</time></trkpt><trkpt lat="45.8034474" lon="9.4340415"><ele>252.0</ele><time>2026-04-11T13:50:29.372Z</time></trkpt><trkpt lat="45.8033224" lon="9.4340149"><ele>252.0</ele><time>2026-04-11T13:50:31.372Z</time></trkpt><trkpt lat="45.8032495" lon="9.4340726"><ele>252.0</ele><time>2026-04-11T13:50:32.378Z</time></trkpt><trkpt lat="45.8031778" lon="9.4341386"><ele>252.0</ele><time>2026-04-11T13:50:33.374Z</time></trkpt><trkpt lat="45.8031141" lon="9.4342008"><ele>252.0</ele><time>2026-04-11T13:50:34.376Z</time></trkpt><trkpt lat="45.8030488" lon="9.434268"><ele>252.0</ele><time>2026-04-11T13:50:35.373Z</time></trkpt><trkpt lat="45.802985" lon="9.4343367"><ele>252.0</ele><time>2026-04-11T13:50:36.377Z</time></trkpt><trkpt lat="45.8029229" lon="9.4343977"><ele>252.0</ele><time>2026-04-11T13:50:37.375Z</time></trkpt><trkpt lat="45.8028658" lon="9.4344542"><ele>252.0</ele><time>2026-04-11T13:50:38.378Z</time></trkpt><trkpt lat="45.8027661" lon="9.4345458"><ele>252.0</ele><time>2026-04-11T13:50:40.377Z</time></trkpt><trkpt lat="45.8026742" lon="9.4346274"><ele>252.0</ele><time>2026-04-11T13:50:42.38Z</time></trkpt><trkpt lat="45.8025672" lon="9.4346458"><ele>252.0</ele><time>2026-04-11T13:50:44.382Z</time></trkpt><trkpt lat="45.8024653" lon="9.434544"><ele>252.0</ele><time>2026-04-11T13:50:46.367Z</time></trkpt><trkpt lat="45.8024394" lon="9.4343852"><ele>252.0</ele><time>2026-04-11T13:50:48.38Z</time></trkpt><trkpt lat="45.8024606" lon="9.4342801"><ele>252.0</ele><time>2026-04-11T13:50:49.372Z</time></trkpt><trkpt lat="45.8025049" lon="9.4341945"><ele>252.0</ele><time>2026-04-11T13:50:50.383Z</time></trkpt><trkpt lat="45.8025646" lon="9.4341207"><ele>252.0</ele><time>2026-04-11T13:50:51.37Z</time></trkpt><trkpt lat="45.8026286" lon="9.4340579"><ele>252.0</ele><time>2026-04-11T13:50:52.382Z</time></trkpt><trkpt lat="45.8026878" lon="9.4340019"><ele>252.0</ele><time>2026-04-11T13:50:53.373Z</time></trkpt><trkpt lat="45.8027457" lon="9.4339471"><ele>252.0</ele><time>2026-04-11T13:50:54.377Z</time></trkpt><trkpt lat="45.8028011" lon="9.4338918"><ele>252.0</ele><time>2026-04-11T13:50:55.375Z</time></trkpt><trkpt lat="45.802851" lon="9.4338343"><ele>252.0</ele><time>2026-04-11T13:50:56.378Z</time></trkpt><trkpt lat="45.8029317" lon="9.4336994"><ele>252.0</ele><time>2026-04-11T13:50:58.38Z</time></trkpt><trkpt lat="45.8029636" lon="9.4335276"><ele>252.0</ele><time>2026-04-11T13:51:00.377Z</time></trkpt><trkpt lat="45.8029588" lon="9.4334371"><ele>250.75</ele><time>2026-04-11T13:51:01.373Z</time></trkpt><trkpt lat="45.8029184" lon="9.4332627"><ele>249.5</ele><time>2026-04-11T13:51:03.375Z</time></trkpt><trkpt lat="45.8028353" lon="9.4331466"><ele>248.25</ele><time>2026-04-11T13:51:05.379Z</time></trkpt><trkpt lat="45.8027231" lon="9.4331272"><ele>247.0</ele><time>2026-04-11T13:51:07.374Z</time></trkpt><trkpt lat="45.8026054" lon="9.4331656"><ele>244.99999999999997</ele><time>2026-04-11T13:51:09.372Z</time></trkpt><trkpt lat="45.8025358" lon="9.4331931"><ele>243.0</ele><time>2026-04-11T13:51:10.377Z</time></trkpt><trkpt lat="45.8024614" lon="9.4332243"><ele>241.0</ele><time>2026-04-11T13:51:11.373Z</time></trkpt><trkpt lat="45.8023924" lon="9.4332564"><ele>239.0</ele><time>2026-04-11T13:51:12.374Z</time></trkpt><trkpt lat="45.8023262" lon="9.4332861"><ele>236.99999999999997</ele><time>2026-04-11T13:51:13.372Z</time></trkpt><trkpt lat="45.8022657" lon="9.4333158"><ele>235.0</ele><time>2026-04-11T13:51:14.373Z</time></trkpt><trkpt lat="45.8021644" lon="9.4333792"><ele>234.99999999999997</ele><time>2026-04-11T13:51:16.378Z</time></trkpt><trkpt lat="45.8020757" lon="9.4334388"><ele>235.0</ele><time>2026-04-11T13:51:18.376Z</time></trkpt><trkpt lat="45.80199" lon="9.433463"><ele>235.0</ele><time>2026-04-11T13:51:20.378Z</time></trkpt><trkpt lat="45.8018945" lon="9.4333753"><ele>235.0</ele><time>2026-04-11T13:51:22.377Z</time></trkpt><trkpt lat="45.8018561" lon="9.4332924"><ele>234.99999999999997</ele><time>2026-04-11T13:51:23.374Z</time></trkpt><trkpt lat="45.8018132" lon="9.4332076"><ele>235.0</ele><time>2026-04-11T13:51:24.376Z</time></trkpt><trkpt lat="45.8017746" lon="9.4331256"><ele>233.99999999999997</ele><time>2026-04-11T13:51:25.39Z</time></trkpt><trkpt lat="45.8017344" lon="9.433049"><ele>233.0</ele><time>2026-04-11T13:51:26.375Z</time></trkpt><trkpt lat="45.8016948" lon="9.4329783"><ele>232.0</ele><time>2026-04-11T13:51:27.399Z</time></trkpt><trkpt lat="45.8016152" lon="9.4328485"><ele>231.0</ele><time>2026-04-11T13:51:29.372Z</time></trkpt><trkpt lat="45.8015752" lon="9.4327756"><ele>229.99999999999997</ele><time>2026-04-11T13:51:30.378Z</time></trkpt><trkpt lat="45.8015095" lon="9.4326283"><ele>229.0</ele><time>2026-04-11T13:51:32.376Z</time></trkpt><trkpt lat="45.8014432" lon="9.4325026"><ele>228.33333333333331</ele><time>2026-04-11T13:51:34.372Z</time></trkpt><trkpt lat="45.8013875" lon="9.4323917"><ele>227.66666666666666</ele><time>2026-04-11T13:51:36.374Z</time></trkpt><trkpt lat="45.8013328" lon="9.4322975"><ele>227.0</ele><time>2026-04-11T13:51:38.397Z</time></trkpt><trkpt lat="45.8012729" lon="9.4322005"><ele>226.33333333333331</ele><time>2026-04-11T13:51:40.372Z</time></trkpt><trkpt lat="45.8012132" lon="9.4321056"><ele>225.66666666666666</ele><time>2026-04-11T13:51:42.392Z</time></trkpt><trkpt lat="45.8011699" lon="9.4320302"><ele>225.0</ele><time>2026-04-11T13:51:44.377Z</time></trkpt><trkpt lat="45.8011195" lon="9.4319517"><ele>224.33333333333334</ele><time>2026-04-11T13:51:47.382Z</time></trkpt><trkpt lat="45.8010538" lon="9.4318349"><ele>223.66666666666669</ele><time>2026-04-11T13:52:06.387Z</time></trkpt><trkpt lat="45.8010002" lon="9.431741"><ele>223.0</ele><time>2026-04-11T13:52:08.362Z</time></trkpt><trkpt lat="45.800955" lon="9.4316632"><ele>222.33333333333334</ele><time>2026-04-11T13:52:10.402Z</time></trkpt><trkpt lat="45.8009083" lon="9.431588"><ele>221.66666666666669</ele><time>2026-04-11T13:52:12.39Z</time></trkpt><trkpt lat="45.8008445" lon="9.4315681"><ele>221.0</ele><time>2026-04-11T13:52:14.381Z</time></trkpt><trkpt lat="45.8007696" lon="9.4316161"><ele>220.25</ele><time>2026-04-11T13:52:16.378Z</time></trkpt><trkpt lat="45.8006836" lon="9.4317037"><ele>219.5</ele><time>2026-04-11T13:52:18.374Z</time></trkpt><trkpt lat="45.800592" lon="9.4317897"><ele>218.75</ele><time>2026-04-11T13:52:20.372Z</time></trkpt><trkpt lat="45.8004947" lon="9.4318734"><ele>218.0</ele><time>2026-04-11T13:52:22.378Z</time></trkpt><trkpt lat="45.8003852" lon="9.4319625"><ele>218.0</ele><time>2026-04-11T13:52:24.369Z</time></trkpt><trkpt lat="45.8002723" lon="9.4320515"><ele>218.0</ele><time>2026-04-11T13:52:26.371Z</time></trkpt><trkpt lat="45.8001989" lon="9.4321063"><ele>218.0</ele><time>2026-04-11T13:52:27.385Z</time></trkpt><trkpt lat="45.800118" lon="9.4321757"><ele>218.0</ele><time>2026-04-11T13:52:28.373Z</time></trkpt><trkpt lat="45.8000405" lon="9.4322353"><ele>218.0</ele><time>2026-04-11T13:52:29.376Z</time></trkpt><trkpt lat="45.7999678" lon="9.4322943"><ele>217.71428571428572</ele><time>2026-04-11T13:52:30.37Z</time></trkpt><trkpt lat="45.7998994" lon="9.4323478"><ele>217.42857142857144</ele><time>2026-04-11T13:52:31.383Z</time></trkpt><trkpt lat="45.7998345" lon="9.4323942"><ele>217.14285714285714</ele><time>2026-04-11T13:52:32.378Z</time></trkpt><trkpt lat="45.7997758" lon="9.4324409"><ele>216.85714285714286</ele><time>2026-04-11T13:52:33.377Z</time></trkpt><trkpt lat="45.7997181" lon="9.4324834"><ele>216.57142857142856</ele><time>2026-04-11T13:52:34.372Z</time></trkpt><trkpt lat="45.7996624" lon="9.4325271"><ele>216.28571428571428</ele><time>2026-04-11T13:52:35.397Z</time></trkpt><trkpt lat="45.7996076" lon="9.4325717"><ele>216.0</ele><time>2026-04-11T13:52:36.371Z</time></trkpt><trkpt lat="45.7995448" lon="9.4326228"><ele>216.0</ele><time>2026-04-11T13:52:37.384Z</time></trkpt><trkpt lat="45.7994743" lon="9.4326697"><ele>216.0</ele><time>2026-04-11T13:52:38.371Z</time></trkpt><trkpt lat="45.7994061" lon="9.4327271"><ele>216.0</ele><time>2026-04-11T13:52:39.375Z</time></trkpt><trkpt lat="45.7993313" lon="9.4327869"><ele>216.0</ele><time>2026-04-11T13:52:40.373Z</time></trkpt><trkpt lat="45.7992595" lon="9.4328431"><ele>216.0</ele><time>2026-04-11T13:52:41.377Z</time></trkpt><trkpt lat="45.7991894" lon="9.4329004"><ele>216.0</ele><time>2026-04-11T13:52:42.373Z</time></trkpt><trkpt lat="45.7991137" lon="9.4329648"><ele>215.33333333333334</ele><time>2026-04-11T13:52:43.379Z</time></trkpt><trkpt lat="45.799041" lon="9.4330211"><ele>214.66666666666669</ele><time>2026-04-11T13:52:44.372Z</time></trkpt><trkpt lat="45.7989676" lon="9.4330821"><ele>214.0</ele><time>2026-04-11T13:52:45.386Z</time></trkpt><trkpt lat="45.7988939" lon="9.4331352"><ele>213.33333333333334</ele><time>2026-04-11T13:52:46.37Z</time></trkpt><trkpt lat="45.7988215" lon="9.4331907"><ele>212.66666666666669</ele><time>2026-04-11T13:52:47.38Z</time></trkpt><trkpt lat="45.7987522" lon="9.433247"><ele>212.0</ele><time>2026-04-11T13:52:48.37Z</time></trkpt><trkpt lat="45.7986853" lon="9.4332981"><ele>212.0</ele><time>2026-04-11T13:52:49.376Z</time></trkpt><trkpt lat="45.7986218" lon="9.4333488"><ele>212.0</ele><time>2026-04-11T13:52:50.373Z</time></trkpt><trkpt lat="45.7985651" lon="9.4333968"><ele>212.0</ele><time>2026-04-11T13:52:51.382Z</time></trkpt><trkpt lat="45.7984643" lon="9.4334873"><ele>212.0</ele><time>2026-04-11T13:52:53.376Z</time></trkpt><trkpt lat="45.7983671" lon="9.4335648"><ele>212.0</ele><time>2026-04-11T13:52:56.372Z</time></trkpt><trkpt lat="45.7982964" lon="9.4336375"><ele>212.0</ele><time>2026-04-11T13:53:47.378Z</time></trkpt><trkpt lat="45.7982368" lon="9.43368"><ele>212.0</ele><time>2026-04-11T13:53:49.398Z</time></trkpt><trkpt lat="45.7981567" lon="9.4337413"><ele>212.0</ele><time>2026-04-11T13:53:51.469Z</time></trkpt><trkpt lat="45.7980696" lon="9.4338032"><ele>212.0</ele><time>2026-04-11T13:53:53.38Z</time></trkpt><trkpt lat="45.7979554" lon="9.4338932"><ele>212.0</ele><time>2026-04-11T13:53:55.379Z</time></trkpt><trkpt lat="45.7978898" lon="9.4339491"><ele>212.00000000000003</ele><time>2026-04-11T13:53:56.373Z</time></trkpt><trkpt lat="45.7978193" lon="9.4339977"><ele>212.0</ele><time>2026-04-11T13:53:57.378Z</time></trkpt><trkpt lat="45.7977361" lon="9.4340612"><ele>212.0</ele><time>2026-04-11T13:53:58.378Z</time></trkpt><trkpt lat="45.7976478" lon="9.4341234"><ele>212.0</ele><time>2026-04-11T13:53:59.376Z</time></trkpt><trkpt lat="45.7975681" lon="9.4341764"><ele>212.00000000000003</ele><time>2026-04-11T13:54:00.375Z</time></trkpt><trkpt lat="45.797493" lon="9.4342384"><ele>212.0</ele><time>2026-04-11T13:54:01.384Z</time></trkpt><trkpt lat="45.7974097" lon="9.4343043"><ele>211.6</ele><time>2026-04-11T13:54:02.373Z</time></trkpt><trkpt lat="45.7973237" lon="9.4343687"><ele>211.2</ele><time>2026-04-11T13:54:03.38Z</time></trkpt><trkpt lat="45.7972346" lon="9.4344289"><ele>210.8</ele><time>2026-04-11T13:54:04.375Z</time></trkpt><trkpt lat="45.7971465" lon="9.4344884"><ele>210.4</ele><time>2026-04-11T13:54:05.38Z</time></trkpt><trkpt lat="45.7970576" lon="9.4345518"><ele>210.0</ele><time>2026-04-11T13:54:06.377Z</time></trkpt><trkpt lat="45.7969696" lon="9.4346269"><ele>210.75</ele><time>2026-04-11T13:54:07.37Z</time></trkpt><trkpt lat="45.7968764" lon="9.4346946"><ele>211.5</ele><time>2026-04-11T13:54:08.372Z</time></trkpt><trkpt lat="45.79678" lon="9.4347747"><ele>212.25</ele><time>2026-04-11T13:54:09.371Z</time></trkpt><trkpt lat="45.7966764" lon="9.4348529"><ele>213.0</ele><time>2026-04-11T13:54:10.381Z</time></trkpt><trkpt lat="45.7965716" lon="9.4349384"><ele>213.5</ele><time>2026-04-11T13:54:11.374Z</time></trkpt><trkpt lat="45.7964709" lon="9.4350223"><ele>214.0</ele><time>2026-04-11T13:54:12.383Z</time></trkpt><trkpt lat="45.7963709" lon="9.4351031"><ele>214.5</ele><time>2026-04-11T13:54:13.378Z</time></trkpt><trkpt lat="45.7962753" lon="9.4351786"><ele>215.0</ele><time>2026-04-11T13:54:14.374Z</time></trkpt><trkpt lat="45.7961731" lon="9.4352561"><ele>215.0</ele><time>2026-04-11T13:54:15.382Z</time></trkpt><trkpt lat="45.7960692" lon="9.4353391"><ele>215.0</ele><time>2026-04-11T13:54:16.373Z</time></trkpt><trkpt lat="45.7959637" lon="9.435419"><ele>215.0</ele><time>2026-04-11T13:54:17.378Z</time></trkpt><trkpt lat="45.7958617" lon="9.4354974"><ele>215.0</ele><time>2026-04-11T13:54:18.383Z</time></trkpt><trkpt lat="45.7957581" lon="9.4355693"><ele>215.75</ele><time>2026-04-11T13:54:19.376Z</time></trkpt><trkpt lat="45.795652" lon="9.4356525"><ele>216.5</ele><time>2026-04-11T13:54:20.376Z</time></trkpt><trkpt lat="45.7955386" lon="9.4357397"><ele>217.25</ele><time>2026-04-11T13:54:21.375Z</time></trkpt><trkpt lat="45.7954282" lon="9.4358276"><ele>218.0</ele><time>2026-04-11T13:54:22.378Z</time></trkpt><trkpt lat="45.7953273" lon="9.4359056"><ele>218.00000000000003</ele><time>2026-04-11T13:54:23.381Z</time></trkpt><trkpt lat="45.7952358" lon="9.4359786"><ele>218.0</ele><time>2026-04-11T13:54:24.375Z</time></trkpt><trkpt lat="45.7951496" lon="9.4360508"><ele>218.0</ele><time>2026-04-11T13:54:25.38Z</time></trkpt><trkpt lat="45.7950729" lon="9.4361068"><ele>218.0</ele><time>2026-04-11T13:54:26.376Z</time></trkpt><trkpt lat="45.7950032" lon="9.436157"><ele>218.00000000000003</ele><time>2026-04-11T13:54:27.374Z</time></trkpt><trkpt lat="45.7949356" lon="9.4362051"><ele>218.0</ele><time>2026-04-11T13:54:28.377Z</time></trkpt><trkpt lat="45.7948682" lon="9.4362544"><ele>218.60000000000002</ele><time>2026-04-11T13:54:29.378Z</time></trkpt><trkpt lat="45.7947888" lon="9.4363122"><ele>219.20000000000002</ele><time>2026-04-11T13:54:30.373Z</time></trkpt><trkpt lat="45.79471" lon="9.436378"><ele>219.8</ele><time>2026-04-11T13:54:31.38Z</time></trkpt><trkpt lat="45.7946204" lon="9.4364467"><ele>220.4</ele><time>2026-04-11T13:54:32.375Z</time></trkpt><trkpt lat="45.7945274" lon="9.4365239"><ele>221.0</ele><time>2026-04-11T13:54:33.376Z</time></trkpt><trkpt lat="45.7944281" lon="9.4366003"><ele>220.60000000000002</ele><time>2026-04-11T13:54:34.382Z</time></trkpt><trkpt lat="45.7943278" lon="9.4366783"><ele>220.20000000000002</ele><time>2026-04-11T13:54:35.375Z</time></trkpt><trkpt lat="45.7942258" lon="9.4367597"><ele>219.79999999999998</ele><time>2026-04-11T13:54:36.38Z</time></trkpt><trkpt lat="45.7941221" lon="9.4368322"><ele>219.39999999999998</ele><time>2026-04-11T13:54:37.407Z</time></trkpt><trkpt lat="45.7940361" lon="9.4369052"><ele>219.0</ele><time>2026-04-11T13:54:38.375Z</time></trkpt><trkpt lat="45.7939516" lon="9.4369688"><ele>219.0</ele><time>2026-04-11T13:54:39.381Z</time></trkpt><trkpt lat="45.7938718" lon="9.4370323"><ele>219.0</ele><time>2026-04-11T13:54:40.374Z</time></trkpt><trkpt lat="45.793798" lon="9.4370925"><ele>219.0</ele><time>2026-04-11T13:54:41.377Z</time></trkpt><trkpt lat="45.7937277" lon="9.4371416"><ele>219.0</ele><time>2026-04-11T13:54:42.388Z</time></trkpt><trkpt lat="45.7936607" lon="9.437189"><ele>219.0</ele><time>2026-04-11T13:54:43.375Z</time></trkpt><trkpt lat="45.7935936" lon="9.4372299"><ele>219.0</ele><time>2026-04-11T13:54:44.379Z</time></trkpt><trkpt lat="45.793534" lon="9.4372666"><ele>219.0</ele><time>2026-04-11T13:54:45.373Z</time></trkpt><trkpt lat="45.7934201" lon="9.437331"><ele>218.99999999999997</ele><time>2026-04-11T13:54:47.36Z</time></trkpt><trkpt lat="45.7933265" lon="9.4373899"><ele>218.99999999999997</ele><time>2026-04-11T13:54:49.383Z</time></trkpt><trkpt lat="45.7932626" lon="9.4374281"><ele>219.0</ele><time>2026-04-11T13:54:51.382Z</time></trkpt><trkpt lat="45.7931594" lon="9.4374548"><ele>219.0</ele><time>2026-04-11T13:54:57.384Z</time></trkpt><trkpt lat="45.7930484" lon="9.4374805"><ele>219.0</ele><time>2026-04-11T13:54:59.37Z</time></trkpt><trkpt lat="45.7929631" lon="9.4375962"><ele>218.99999999999997</ele><time>2026-04-11T13:55:01.378Z</time></trkpt><trkpt lat="45.7929086" lon="9.4376778"><ele>218.99999999999997</ele><time>2026-04-11T13:55:02.373Z</time></trkpt><trkpt lat="45.7928406" lon="9.437753"><ele>219.0</ele><time>2026-04-11T13:55:03.373Z</time></trkpt><trkpt lat="45.7927693" lon="9.4378239"><ele>219.0</ele><time>2026-04-11T13:55:04.414Z</time></trkpt><trkpt lat="45.7926947" lon="9.4378977"><ele>218.79999999999998</ele><time>2026-04-11T13:55:05.377Z</time></trkpt><trkpt lat="45.7926107" lon="9.4379722"><ele>218.59999999999997</ele><time>2026-04-11T13:55:06.374Z</time></trkpt><trkpt lat="45.7925215" lon="9.4380488"><ele>218.4</ele><time>2026-04-11T13:55:07.376Z</time></trkpt><trkpt lat="45.792431" lon="9.4381255"><ele>218.2</ele><time>2026-04-11T13:55:08.371Z</time></trkpt><trkpt lat="45.7923375" lon="9.4381943"><ele>218.0</ele><time>2026-04-11T13:55:09.387Z</time></trkpt><trkpt lat="45.7922465" lon="9.4382737"><ele>218.0</ele><time>2026-04-11T13:55:10.397Z</time></trkpt><trkpt lat="45.7921576" lon="9.4383532"><ele>218.0</ele><time>2026-04-11T13:55:11.375Z</time></trkpt><trkpt lat="45.7920652" lon="9.4384264"><ele>218.0</ele><time>2026-04-11T13:55:12.381Z</time></trkpt><trkpt lat="45.7919736" lon="9.4384962"><ele>218.0</ele><time>2026-04-11T13:55:13.386Z</time></trkpt><trkpt lat="45.7918764" lon="9.4385722"><ele>218.0</ele><time>2026-04-11T13:55:14.371Z</time></trkpt><trkpt lat="45.7917766" lon="9.438651"><ele>217.5</ele><time>2026-04-11T13:55:15.385Z</time></trkpt><trkpt lat="45.7916715" lon="9.4387272"><ele>217.0</ele><time>2026-04-11T13:55:16.372Z</time></trkpt><trkpt lat="45.7915573" lon="9.4387944"><ele>216.5</ele><time>2026-04-11T13:55:17.382Z</time></trkpt><trkpt lat="45.7914452" lon="9.438856"><ele>216.0</ele><time>2026-04-11T13:55:18.374Z</time></trkpt><trkpt lat="45.791343" lon="9.4389123"><ele>216.0</ele><time>2026-04-11T13:55:19.376Z</time></trkpt><trkpt lat="45.7912418" lon="9.4389669"><ele>216.00000000000003</ele><time>2026-04-11T13:55:20.371Z</time></trkpt><trkpt lat="45.7911452" lon="9.4390178"><ele>216.00000000000003</ele><time>2026-04-11T13:55:21.378Z</time></trkpt><trkpt lat="45.7910566" lon="9.4390642"><ele>216.0</ele><time>2026-04-11T13:55:22.373Z</time></trkpt><trkpt lat="45.7909676" lon="9.4391081"><ele>216.0</ele><time>2026-04-11T13:55:23.38Z</time></trkpt><trkpt lat="45.7908835" lon="9.4391566"><ele>215.66666666666666</ele><time>2026-04-11T13:55:24.381Z</time></trkpt><trkpt lat="45.7908026" lon="9.4391964"><ele>215.33333333333331</ele><time>2026-04-11T13:55:25.374Z</time></trkpt><trkpt lat="45.7907349" lon="9.4392368"><ele>215.0</ele><time>2026-04-11T13:55:26.373Z</time></trkpt><trkpt lat="45.7906643" lon="9.4392755"><ele>214.66666666666666</ele><time>2026-04-11T13:55:27.374Z</time></trkpt><trkpt lat="45.7905648" lon="9.4393323"><ele>214.33333333333331</ele><time>2026-04-11T13:55:29.367Z</time></trkpt><trkpt lat="45.7904944" lon="9.4393869"><ele>214.0</ele><time>2026-04-11T13:55:32.371Z</time></trkpt><trkpt lat="45.7904142" lon="9.4394368"><ele>213.99999999999997</ele><time>2026-04-11T13:55:34.381Z</time></trkpt><trkpt lat="45.7903527" lon="9.4394758"><ele>214.0</ele><time>2026-04-11T13:55:35.378Z</time></trkpt><trkpt lat="45.7902829" lon="9.4395086"><ele>214.0</ele><time>2026-04-11T13:55:36.377Z</time></trkpt><trkpt lat="45.7902011" lon="9.4395412"><ele>214.0</ele><time>2026-04-11T13:55:37.372Z</time></trkpt><trkpt lat="45.7901089" lon="9.4395688"><ele>213.99999999999997</ele><time>2026-04-11T13:55:38.379Z</time></trkpt><trkpt lat="45.7900162" lon="9.4395947"><ele>214.0</ele><time>2026-04-11T13:55:39.372Z</time></trkpt><trkpt lat="45.7899234" lon="9.439629"><ele>212.75</ele><time>2026-04-11T13:55:40.398Z</time></trkpt><trkpt lat="45.7898294" lon="9.4396759"><ele>211.5</ele><time>2026-04-11T13:55:41.372Z</time></trkpt><trkpt lat="45.7896333" lon="9.4397762"><ele>210.25</ele><time>2026-04-11T13:55:43.371Z</time></trkpt><trkpt lat="45.7895335" lon="9.4398262"><ele>209.0</ele><time>2026-04-11T13:55:44.378Z</time></trkpt><trkpt lat="45.7893437" lon="9.4399237"><ele>208.79999999999998</ele><time>2026-04-11T13:55:46.373Z</time></trkpt><trkpt lat="45.7892535" lon="9.439974"><ele>208.6</ele><time>2026-04-11T13:55:47.379Z</time></trkpt><trkpt lat="45.7891621" lon="9.4400276"><ele>208.4</ele><time>2026-04-11T13:55:48.375Z</time></trkpt><trkpt lat="45.7890743" lon="9.4400734"><ele>208.2</ele><time>2026-04-11T13:55:49.371Z</time></trkpt><trkpt lat="45.788983" lon="9.4401099"><ele>208.0</ele><time>2026-04-11T13:55:50.389Z</time></trkpt><trkpt lat="45.7888897" lon="9.440161"><ele>208.0</ele><time>2026-04-11T13:55:51.47Z</time></trkpt><trkpt lat="45.7887951" lon="9.4402102"><ele>208.0</ele><time>2026-04-11T13:55:52.374Z</time></trkpt><trkpt lat="45.788707" lon="9.4402524"><ele>208.0</ele><time>2026-04-11T13:55:53.382Z</time></trkpt><trkpt lat="45.7886161" lon="9.4402943"><ele>208.0</ele><time>2026-04-11T13:55:54.377Z</time></trkpt><trkpt lat="45.7885303" lon="9.4403379"><ele>208.0</ele><time>2026-04-11T13:55:55.373Z</time></trkpt><trkpt lat="45.7884468" lon="9.4403787"><ele>207.66666666666666</ele><time>2026-04-11T13:55:56.379Z</time></trkpt><trkpt lat="45.7883682" lon="9.4404157"><ele>207.33333333333331</ele><time>2026-04-11T13:55:57.375Z</time></trkpt><trkpt lat="45.7882919" lon="9.4404513"><ele>207.0</ele><time>2026-04-11T13:55:58.374Z</time></trkpt><trkpt lat="45.7882203" lon="9.4404772"><ele>206.66666666666669</ele><time>2026-04-11T13:55:59.367Z</time></trkpt><trkpt lat="45.7881525" lon="9.4405074"><ele>206.33333333333334</ele><time>2026-04-11T13:56:00.375Z</time></trkpt><trkpt lat="45.7880891" lon="9.4405331"><ele>206.0</ele><time>2026-04-11T13:56:01.397Z</time></trkpt><trkpt lat="45.7879522" lon="9.4405566"><ele>206.00000000000003</ele><time>2026-04-11T13:56:03.371Z</time></trkpt><trkpt lat="45.7878769" lon="9.4405805"><ele>206.0</ele><time>2026-04-11T13:56:04.374Z</time></trkpt><trkpt lat="45.7878028" lon="9.4406674"><ele>206.0</ele><time>2026-04-11T13:56:06.374Z</time></trkpt><trkpt lat="45.7878312" lon="9.4407947"><ele>206.0</ele><time>2026-04-11T13:56:08.38Z</time></trkpt><trkpt lat="45.7878878" lon="9.4408712"><ele>206.00000000000003</ele><time>2026-04-11T13:56:09.367Z</time></trkpt><trkpt lat="45.7879642" lon="9.4409687"><ele>206.0</ele><time>2026-04-11T13:56:10.396Z</time></trkpt><trkpt lat="45.7880524" lon="9.4410547"><ele>206.0</ele><time>2026-04-11T13:56:11.374Z</time></trkpt><trkpt lat="45.7881309" lon="9.4411373"><ele>206.0</ele><time>2026-04-11T13:56:12.377Z</time></trkpt><trkpt lat="45.7881906" lon="9.4412531"><ele>206.0</ele><time>2026-04-11T13:56:13.368Z</time></trkpt><trkpt lat="45.7882492" lon="9.441414"><ele>206.0</ele><time>2026-04-11T13:56:14.372Z</time></trkpt><trkpt lat="45.7883058" lon="9.4415822"><ele>206.75</ele><time>2026-04-11T13:56:15.372Z</time></trkpt><trkpt lat="45.788384" lon="9.441767"><ele>207.5</ele><time>2026-04-11T13:56:16.374Z</time></trkpt><trkpt lat="45.788455" lon="9.4419405"><ele>208.25</ele><time>2026-04-11T13:56:17.375Z</time></trkpt><trkpt lat="45.7885126" lon="9.4421062"><ele>209.0</ele><time>2026-04-11T13:56:18.376Z</time></trkpt><trkpt lat="45.7885498" lon="9.4422733"><ele>209.75</ele><time>2026-04-11T13:56:19.373Z</time></trkpt><trkpt lat="45.7885731" lon="9.4424451"><ele>210.5</ele><time>2026-04-11T13:56:20.375Z</time></trkpt><trkpt lat="45.7885751" lon="9.4426369"><ele>211.25</ele><time>2026-04-11T13:56:21.369Z</time></trkpt><trkpt lat="45.78856" lon="9.4428296"><ele>212.0</ele><time>2026-04-11T13:56:22.366Z</time></trkpt><trkpt lat="45.7885445" lon="9.4429865"><ele>212.39999999999998</ele><time>2026-04-11T13:56:23.367Z</time></trkpt><trkpt lat="45.7885311" lon="9.4431164"><ele>212.79999999999998</ele><time>2026-04-11T13:56:24.367Z</time></trkpt><trkpt lat="45.7885226" lon="9.44322"><ele>213.2</ele><time>2026-04-11T13:56:25.365Z</time></trkpt><trkpt lat="45.7885157" lon="9.4433376"><ele>213.6</ele><time>2026-04-11T13:56:27.37Z</time></trkpt><trkpt lat="45.7884849" lon="9.4434164"><ele>214.0</ele><time>2026-04-11T13:56:30.381Z</time></trkpt><trkpt lat="45.7883457" lon="9.4434978"><ele>214.0</ele><time>2026-04-11T13:56:32.377Z</time></trkpt><trkpt lat="45.7882557" lon="9.4435387"><ele>213.99999999999997</ele><time>2026-04-11T13:56:33.368Z</time></trkpt><trkpt lat="45.7881657" lon="9.4435776"><ele>213.99999999999997</ele><time>2026-04-11T13:56:34.366Z</time></trkpt><trkpt lat="45.7880751" lon="9.4436142"><ele>214.0</ele><time>2026-04-11T13:56:35.369Z</time></trkpt><trkpt lat="45.7879897" lon="9.4436487"><ele>214.0</ele><time>2026-04-11T13:56:36.378Z</time></trkpt><trkpt lat="45.7879097" lon="9.4436801"><ele>214.0</ele><time>2026-04-11T13:56:37.374Z</time></trkpt><trkpt lat="45.7878296" lon="9.4437161"><ele>213.99999999999997</ele><time>2026-04-11T13:56:38.376Z</time></trkpt><trkpt lat="45.7877542" lon="9.4437564"><ele>213.99999999999997</ele><time>2026-04-11T13:56:39.375Z</time></trkpt><trkpt lat="45.7876401" lon="9.4438213"><ele>214.0</ele><time>2026-04-11T13:56:41.372Z</time></trkpt><trkpt lat="45.787535" lon="9.4438936"><ele>214.0</ele><time>2026-04-11T13:56:43.373Z</time></trkpt><trkpt lat="45.7874552" lon="9.44394"><ele>215.39999999999998</ele><time>2026-04-11T13:56:44.375Z</time></trkpt><trkpt lat="45.7873682" lon="9.443991"><ele>216.79999999999998</ele><time>2026-04-11T13:56:45.372Z</time></trkpt><trkpt lat="45.7872934" lon="9.444042"><ele>218.20000000000002</ele><time>2026-04-11T13:56:46.374Z</time></trkpt><trkpt lat="45.7872053" lon="9.4441047"><ele>219.60000000000002</ele><time>2026-04-11T13:56:47.372Z</time></trkpt><trkpt lat="45.7870937" lon="9.4441662"><ele>221.0</ele><time>2026-04-11T13:56:48.381Z</time></trkpt><trkpt lat="45.7869905" lon="9.4442201"><ele>221.00000000000003</ele><time>2026-04-11T13:56:49.375Z</time></trkpt><trkpt lat="45.7869026" lon="9.4442766"><ele>221.0</ele><time>2026-04-11T13:56:50.371Z</time></trkpt><trkpt lat="45.7868165" lon="9.4443182"><ele>221.0</ele><time>2026-04-11T13:56:51.369Z</time></trkpt><trkpt lat="45.7867532" lon="9.4443607"><ele>221.0</ele><time>2026-04-11T13:56:52.381Z</time></trkpt><trkpt lat="45.7866775" lon="9.4443959"><ele>221.00000000000003</ele><time>2026-04-11T13:56:53.397Z</time></trkpt><trkpt lat="45.7865971" lon="9.4444276"><ele>221.0</ele><time>2026-04-11T13:56:54.375Z</time></trkpt><trkpt lat="45.7865194" lon="9.4444642"><ele>221.00000000000003</ele><time>2026-04-11T13:56:55.367Z</time></trkpt><trkpt lat="45.7864508" lon="9.4445152"><ele>221.0</ele><time>2026-04-11T13:56:56.375Z</time></trkpt><trkpt lat="45.7863792" lon="9.4445514"><ele>221.0</ele><time>2026-04-11T13:56:57.374Z</time></trkpt><trkpt lat="45.7862853" lon="9.4445866"><ele>221.0</ele><time>2026-04-11T13:56:59.372Z</time></trkpt><trkpt lat="45.7861973" lon="9.444484"><ele>221.00000000000003</ele><time>2026-04-11T13:57:01.366Z</time></trkpt><trkpt lat="45.7861514" lon="9.444409"><ele>221.0</ele><time>2026-04-11T13:57:02.378Z</time></trkpt><trkpt lat="45.786103" lon="9.4443011"><ele>221.0</ele><time>2026-04-11T13:57:04.369Z</time></trkpt><trkpt lat="45.786052" lon="9.4442329"><ele>221.00000000000003</ele><time>2026-04-11T13:57:28.375Z</time></trkpt><trkpt lat="45.7859529" lon="9.4441327"><ele>221.00000000000003</ele><time>2026-04-11T13:57:30.386Z</time></trkpt><trkpt lat="45.7858903" lon="9.4440532"><ele>221.0</ele><time>2026-04-11T13:57:31.374Z</time></trkpt><trkpt lat="45.7858182" lon="9.4439529"><ele>221.0</ele><time>2026-04-11T13:57:32.372Z</time></trkpt><trkpt lat="45.7857424" lon="9.4438323"><ele>219.0</ele><time>2026-04-11T13:57:33.37Z</time></trkpt><trkpt lat="45.7856631" lon="9.4437067"><ele>217.0</ele><time>2026-04-11T13:57:34.369Z</time></trkpt><trkpt lat="45.7855823" lon="9.4435732"><ele>215.0</ele><time>2026-04-11T13:57:35.372Z</time></trkpt><trkpt lat="45.7855104" lon="9.443448"><ele>213.0</ele><time>2026-04-11T13:57:36.376Z</time></trkpt><trkpt lat="45.785442" lon="9.4433233"><ele>213.0</ele><time>2026-04-11T13:57:37.37Z</time></trkpt><trkpt lat="45.7853651" lon="9.4431934"><ele>213.0</ele><time>2026-04-11T13:57:38.37Z</time></trkpt><trkpt lat="45.7852904" lon="9.4430685"><ele>213.0</ele><time>2026-04-11T13:57:39.37Z</time></trkpt><trkpt lat="45.7852212" lon="9.4429485"><ele>213.0</ele><time>2026-04-11T13:57:40.378Z</time></trkpt><trkpt lat="45.7851539" lon="9.4428337"><ele>213.0</ele><time>2026-04-11T13:57:41.369Z</time></trkpt><trkpt lat="45.7850897" lon="9.4427234"><ele>211.60000000000002</ele><time>2026-04-11T13:57:42.381Z</time></trkpt><trkpt lat="45.7850365" lon="9.4426192"><ele>210.20000000000002</ele><time>2026-04-11T13:57:43.375Z</time></trkpt><trkpt lat="45.7849848" lon="9.4425269"><ele>208.8</ele><time>2026-04-11T13:57:44.377Z</time></trkpt><trkpt lat="45.7849427" lon="9.4424437"><ele>207.4</ele><time>2026-04-11T13:57:45.369Z</time></trkpt><trkpt lat="45.784863" lon="9.4423195"><ele>206.0</ele><time>2026-04-11T13:57:47.373Z</time></trkpt><trkpt lat="45.7848009" lon="9.4422303"><ele>206.00000000000003</ele><time>2026-04-11T13:57:49.363Z</time></trkpt><trkpt lat="45.7846863" lon="9.4421742"><ele>206.0</ele><time>2026-04-11T13:57:51.364Z</time></trkpt><trkpt lat="45.7846049" lon="9.4421687"><ele>206.0</ele><time>2026-04-11T13:57:52.372Z</time></trkpt><trkpt lat="45.7845205" lon="9.4421589"><ele>206.0</ele><time>2026-04-11T13:57:53.371Z</time></trkpt><trkpt lat="45.7844486" lon="9.4421272"><ele>206.00000000000003</ele><time>2026-04-11T13:57:54.375Z</time></trkpt><trkpt lat="45.7843804" lon="9.4420796"><ele>206.0</ele><time>2026-04-11T13:57:55.369Z</time></trkpt><trkpt lat="45.7843114" lon="9.4420211"><ele>205.66666666666669</ele><time>2026-04-11T13:57:56.377Z</time></trkpt><trkpt lat="45.7842541" lon="9.4419685"><ele>205.33333333333334</ele><time>2026-04-11T13:57:57.372Z</time></trkpt><trkpt lat="45.784172" lon="9.4418834"><ele>205.0</ele><time>2026-04-11T13:57:59.373Z</time></trkpt><trkpt lat="45.7841245" lon="9.4418166"><ele>204.66666666666669</ele><time>2026-04-11T13:58:01.377Z</time></trkpt><trkpt lat="45.7840698" lon="9.4417284"><ele>204.33333333333334</ele><time>2026-04-11T13:58:03.391Z</time></trkpt><trkpt lat="45.7840279" lon="9.4415971"><ele>204.0</ele><time>2026-04-11T13:58:05.366Z</time></trkpt><trkpt lat="45.7839987" lon="9.441501"><ele>204.0</ele><time>2026-04-11T13:58:07.369Z</time></trkpt><trkpt lat="45.7839873" lon="9.441399"><ele>204.0</ele><time>2026-04-11T13:58:12.372Z</time></trkpt><trkpt lat="45.7840206" lon="9.4413103"><ele>204.0</ele><time>2026-04-11T13:58:23.37Z</time></trkpt><trkpt lat="45.7840553" lon="9.4412325"><ele>204.0</ele><time>2026-04-11T13:58:24.377Z</time></trkpt><trkpt lat="45.784072" lon="9.4411402"><ele>204.0</ele><time>2026-04-11T13:58:25.369Z</time></trkpt><trkpt lat="45.7840564" lon="9.4410156"><ele>204.0</ele><time>2026-04-11T13:58:26.373Z</time></trkpt><trkpt lat="45.7840256" lon="9.4408491"><ele>204.33333333333331</ele><time>2026-04-11T13:58:27.37Z</time></trkpt><trkpt lat="45.7840058" lon="9.4406513"><ele>204.66666666666666</ele><time>2026-04-11T13:58:28.366Z</time></trkpt><trkpt lat="45.7840004" lon="9.440408"><ele>205.0</ele><time>2026-04-11T13:58:29.366Z</time></trkpt><trkpt lat="45.7839965" lon="9.4401302"><ele>205.0</ele><time>2026-04-11T13:58:30.37Z</time></trkpt><trkpt lat="45.7839913" lon="9.4398338"><ele>205.0</ele><time>2026-04-11T13:58:31.365Z</time></trkpt><trkpt lat="45.7839868" lon="9.4395462"><ele>205.0</ele><time>2026-04-11T13:58:32.371Z</time></trkpt><trkpt lat="45.7839815" lon="9.4392576"><ele>203.33333333333331</ele><time>2026-04-11T13:58:33.385Z</time></trkpt><trkpt lat="45.7839815" lon="9.4389846"><ele>201.66666666666669</ele><time>2026-04-11T13:58:34.376Z</time></trkpt><trkpt lat="45.7839799" lon="9.4387151"><ele>200.0</ele><time>2026-04-11T13:58:35.365Z</time></trkpt><trkpt lat="45.7839756" lon="9.4384351"><ele>199.33333333333334</ele><time>2026-04-11T13:58:36.368Z</time></trkpt><trkpt lat="45.7839687" lon="9.438158"><ele>198.66666666666669</ele><time>2026-04-11T13:58:37.387Z</time></trkpt><trkpt lat="45.7839699" lon="9.437884"><ele>198.0</ele><time>2026-04-11T13:58:38.369Z</time></trkpt><trkpt lat="45.7839678" lon="9.4376188"><ele>198.0</ele><time>2026-04-11T13:58:39.372Z</time></trkpt><trkpt lat="45.7839692" lon="9.4373684"><ele>198.0</ele><time>2026-04-11T13:58:40.369Z</time></trkpt><trkpt lat="45.7839662" lon="9.4371257"><ele>198.0</ele><time>2026-04-11T13:58:41.366Z</time></trkpt><trkpt lat="45.7839631" lon="9.4368937"><ele>198.0</ele><time>2026-04-11T13:58:42.371Z</time></trkpt><trkpt lat="45.7839635" lon="9.4366715"><ele>198.0</ele><time>2026-04-11T13:58:43.365Z</time></trkpt><trkpt lat="45.783966" lon="9.4364609"><ele>198.0</ele><time>2026-04-11T13:58:44.371Z</time></trkpt><trkpt lat="45.7839649" lon="9.4362557"><ele>198.0</ele><time>2026-04-11T13:58:45.365Z</time></trkpt><trkpt lat="45.7839673" lon="9.4360488"><ele>198.0</ele><time>2026-04-11T13:58:46.365Z</time></trkpt><trkpt lat="45.7839685" lon="9.4358395"><ele>198.0</ele><time>2026-04-11T13:58:47.367Z</time></trkpt><trkpt lat="45.7839697" lon="9.4356309"><ele>198.0</ele><time>2026-04-11T13:58:48.371Z</time></trkpt><trkpt lat="45.7839657" lon="9.4354236"><ele>198.0</ele><time>2026-04-11T13:58:49.364Z</time></trkpt><trkpt lat="45.7839703" lon="9.4352172"><ele>198.0</ele><time>2026-04-11T13:58:50.37Z</time></trkpt><trkpt lat="45.7839743" lon="9.4350171"><ele>198.0</ele><time>2026-04-11T13:58:51.37Z</time></trkpt><trkpt lat="45.783976" lon="9.4348157"><ele>198.0</ele><time>2026-04-11T13:58:52.371Z</time></trkpt><trkpt lat="45.7839752" lon="9.4346167"><ele>198.0</ele><time>2026-04-11T13:58:53.364Z</time></trkpt><trkpt lat="45.7839752" lon="9.4344168"><ele>198.0</ele><time>2026-04-11T13:58:54.372Z</time></trkpt><trkpt lat="45.7839728" lon="9.434215"><ele>198.0</ele><time>2026-04-11T13:58:55.369Z</time></trkpt><trkpt lat="45.7839721" lon="9.4340145"><ele>198.0</ele><time>2026-04-11T13:58:56.365Z</time></trkpt><trkpt lat="45.7839715" lon="9.4338165"><ele>198.0</ele><time>2026-04-11T13:58:57.367Z</time></trkpt><trkpt lat="45.7839708" lon="9.4336168"><ele>198.0</ele><time>2026-04-11T13:58:58.372Z</time></trkpt><trkpt lat="45.7839663" lon="9.4334238"><ele>198.0</ele><time>2026-04-11T13:58:59.366Z</time></trkpt><trkpt lat="45.7839653" lon="9.433232"><ele>198.0</ele><time>2026-04-11T13:59:00.37Z</time></trkpt><trkpt lat="45.7839312" lon="9.4330391"><ele>198.0</ele><time>2026-04-11T13:59:01.362Z</time></trkpt><trkpt lat="45.7838973" lon="9.4328398"><ele>198.0</ele><time>2026-04-11T13:59:02.364Z</time></trkpt><trkpt lat="45.7838491" lon="9.4326403"><ele>198.0</ele><time>2026-04-11T13:59:03.361Z</time></trkpt><trkpt lat="45.7837906" lon="9.4324351"><ele>198.0</ele><time>2026-04-11T13:59:04.388Z</time></trkpt><trkpt lat="45.7837264" lon="9.4322252"><ele>199.66666666666669</ele><time>2026-04-11T13:59:05.363Z</time></trkpt><trkpt lat="45.7836469" lon="9.4320243"><ele>201.33333333333334</ele><time>2026-04-11T13:59:06.365Z</time></trkpt><trkpt lat="45.7835535" lon="9.4318287"><ele>203.0</ele><time>2026-04-11T13:59:07.377Z</time></trkpt><trkpt lat="45.7834383" lon="9.4316242"><ele>203.0</ele><time>2026-04-11T13:59:08.364Z</time></trkpt><trkpt lat="45.7833066" lon="9.4314322"><ele>203.0</ele><time>2026-04-11T13:59:09.374Z</time></trkpt><trkpt lat="45.7831758" lon="9.4312674"><ele>203.0</ele><time>2026-04-11T13:59:10.363Z</time></trkpt><trkpt lat="45.7830462" lon="9.4311292"><ele>204.25</ele><time>2026-04-11T13:59:11.374Z</time></trkpt><trkpt lat="45.7829188" lon="9.4310098"><ele>205.5</ele><time>2026-04-11T13:59:12.364Z</time></trkpt><trkpt lat="45.7827977" lon="9.4309119"><ele>206.75</ele><time>2026-04-11T13:59:13.369Z</time></trkpt><trkpt lat="45.7826805" lon="9.430821"><ele>208.0</ele><time>2026-04-11T13:59:14.366Z</time></trkpt><trkpt lat="45.7825724" lon="9.4307388"><ele>207.99999999999997</ele><time>2026-04-11T13:59:15.37Z</time></trkpt><trkpt lat="45.7824675" lon="9.4306721"><ele>208.0</ele><time>2026-04-11T13:59:16.364Z</time></trkpt><trkpt lat="45.7823812" lon="9.4306102"><ele>208.0</ele><time>2026-04-11T13:59:17.371Z</time></trkpt><trkpt lat="45.7823123" lon="9.4305492"><ele>208.0</ele><time>2026-04-11T13:59:18.362Z</time></trkpt><trkpt lat="45.7822593" lon="9.4304819"><ele>207.99999999999997</ele><time>2026-04-11T13:59:19.368Z</time></trkpt><trkpt lat="45.7822134" lon="9.430413"><ele>208.0</ele><time>2026-04-11T13:59:20.367Z</time></trkpt><trkpt lat="45.7821015" lon="9.4303371"><ele>208.0</ele><time>2026-04-11T13:59:22.402Z</time></trkpt><trkpt lat="45.7820358" lon="9.4303276"><ele>208.0</ele><time>2026-04-11T13:59:23.37Z</time></trkpt><trkpt lat="45.7819571" lon="9.430331"><ele>208.0</ele><time>2026-04-11T13:59:24.374Z</time></trkpt><trkpt lat="45.7818657" lon="9.4303318"><ele>208.0</ele><time>2026-04-11T13:59:25.37Z</time></trkpt><trkpt lat="45.7817653" lon="9.43032"><ele>208.0</ele><time>2026-04-11T13:59:26.4Z</time></trkpt><trkpt lat="45.7816461" lon="9.4302852"><ele>208.0</ele><time>2026-04-11T13:59:27.363Z</time></trkpt><trkpt lat="45.7815141" lon="9.4302401"><ele>208.0</ele><time>2026-04-11T13:59:28.367Z</time></trkpt><trkpt lat="45.7813742" lon="9.4301857"><ele>208.0</ele><time>2026-04-11T13:59:29.37Z</time></trkpt><trkpt lat="45.7812212" lon="9.4301307"><ele>208.0</ele><time>2026-04-11T13:59:30.371Z</time></trkpt><trkpt lat="45.7810599" lon="9.4300692"><ele>206.66666666666666</ele><time>2026-04-11T13:59:31.364Z</time></trkpt><trkpt lat="45.7808901" lon="9.4300034"><ele>205.33333333333331</ele><time>2026-04-11T13:59:32.37Z</time></trkpt><trkpt lat="45.7807211" lon="9.4299365"><ele>204.0</ele><time>2026-04-11T13:59:33.36Z</time></trkpt><trkpt lat="45.7805606" lon="9.429873"><ele>204.0</ele><time>2026-04-11T13:59:34.364Z</time></trkpt><trkpt lat="45.7804105" lon="9.4298134"><ele>204.0</ele><time>2026-04-11T13:59:35.367Z</time></trkpt><trkpt lat="45.7802691" lon="9.4297597"><ele>204.0</ele><time>2026-04-11T13:59:36.388Z</time></trkpt><trkpt lat="45.7800087" lon="9.4296554"><ele>205.0</ele><time>2026-04-11T13:59:38.37Z</time></trkpt><trkpt lat="45.7798882" lon="9.4296103"><ele>206.0</ele><time>2026-04-11T13:59:39.366Z</time></trkpt><trkpt lat="45.7796695" lon="9.4295283"><ele>207.0</ele><time>2026-04-11T13:59:41.364Z</time></trkpt><trkpt lat="45.7795712" lon="9.4294906"><ele>207.0</ele><time>2026-04-11T13:59:42.369Z</time></trkpt><trkpt lat="45.7794715" lon="9.4294503"><ele>207.0</ele><time>2026-04-11T13:59:43.367Z</time></trkpt><trkpt lat="45.7791391" lon="9.4293167"><ele>207.0</ele><time>2026-04-11T13:59:46.367Z</time></trkpt><trkpt lat="45.7788864" lon="9.4292222"><ele>207.33333333333331</ele><time>2026-04-11T13:59:48.368Z</time></trkpt><trkpt lat="45.7787488" lon="9.4291735"><ele>207.66666666666666</ele><time>2026-04-11T13:59:49.368Z</time></trkpt><trkpt lat="45.7786025" lon="9.4291179"><ele>208.0</ele><time>2026-04-11T13:59:50.363Z</time></trkpt><trkpt lat="45.7784456" lon="9.4290592"><ele>208.0</ele><time>2026-04-11T13:59:51.463Z</time></trkpt><trkpt lat="45.7782832" lon="9.4289952"><ele>208.0</ele><time>2026-04-11T13:59:52.369Z</time></trkpt><trkpt lat="45.7781261" lon="9.42893"><ele>208.0</ele><time>2026-04-11T13:59:53.368Z</time></trkpt><trkpt lat="45.7779721" lon="9.4288689"><ele>208.0</ele><time>2026-04-11T13:59:54.364Z</time></trkpt><trkpt lat="45.7778264" lon="9.4288091"><ele>208.0</ele><time>2026-04-11T13:59:55.367Z</time></trkpt><trkpt lat="45.7776916" lon="9.428759"><ele>208.0</ele><time>2026-04-11T13:59:56.368Z</time></trkpt><trkpt lat="45.7775682" lon="9.4287146"><ele>208.0</ele><time>2026-04-11T13:59:57.369Z</time></trkpt><trkpt lat="45.7774594" lon="9.4286742"><ele>207.8</ele><time>2026-04-11T13:59:58.367Z</time></trkpt><trkpt lat="45.7773605" lon="9.4286253"><ele>207.60000000000002</ele><time>2026-04-11T13:59:59.372Z</time></trkpt><trkpt lat="45.777275" lon="9.4285606"><ele>207.39999999999998</ele><time>2026-04-11T14:00:00.368Z</time></trkpt><trkpt lat="45.7771921" lon="9.4284978"><ele>207.2</ele><time>2026-04-11T14:00:01.37Z</time></trkpt><trkpt lat="45.7770993" lon="9.4284722"><ele>207.0</ele><time>2026-04-11T14:00:02.374Z</time></trkpt><trkpt lat="45.7769976" lon="9.4284894"><ele>207.0</ele><time>2026-04-11T14:00:03.378Z</time></trkpt><trkpt lat="45.7768918" lon="9.4284851"><ele>207.0</ele><time>2026-04-11T14:00:04.376Z</time></trkpt><trkpt lat="45.7767811" lon="9.4284361"><ele>207.0</ele><time>2026-04-11T14:00:05.365Z</time></trkpt><trkpt lat="45.7766739" lon="9.4283346"><ele>207.0</ele><time>2026-04-11T14:00:06.37Z</time></trkpt><trkpt lat="45.776586" lon="9.428179"><ele>206.33333333333331</ele><time>2026-04-11T14:00:07.368Z</time></trkpt><trkpt lat="45.7765085" lon="9.4279794"><ele>205.66666666666666</ele><time>2026-04-11T14:00:08.373Z</time></trkpt><trkpt lat="45.7764266" lon="9.4277676"><ele>205.0</ele><time>2026-04-11T14:00:09.369Z</time></trkpt><trkpt lat="45.7763381" lon="9.4275314"><ele>204.66666666666666</ele><time>2026-04-11T14:00:10.371Z</time></trkpt><trkpt lat="45.7762577" lon="9.4273074"><ele>204.33333333333331</ele><time>2026-04-11T14:00:11.369Z</time></trkpt><trkpt lat="45.7761808" lon="9.4270976"><ele>204.0</ele><time>2026-04-11T14:00:12.37Z</time></trkpt><trkpt lat="45.7761042" lon="9.4268911"><ele>204.0</ele><time>2026-04-11T14:00:13.367Z</time></trkpt><trkpt lat="45.7760371" lon="9.4266974"><ele>204.0</ele><time>2026-04-11T14:00:14.371Z</time></trkpt><trkpt lat="45.7759804" lon="9.4265163"><ele>204.0</ele><time>2026-04-11T14:00:15.365Z</time></trkpt><trkpt lat="45.7759291" lon="9.4263423"><ele>204.0</ele><time>2026-04-11T14:00:16.37Z</time></trkpt><trkpt lat="45.7758977" lon="9.4261835"><ele>204.16666666666666</ele><time>2026-04-11T14:00:17.37Z</time></trkpt><trkpt lat="45.7758922" lon="9.4260506"><ele>204.33333333333331</ele><time>2026-04-11T14:00:18.369Z</time></trkpt><trkpt lat="45.7759022" lon="9.4259377"><ele>204.5</ele><time>2026-04-11T14:00:19.37Z</time></trkpt><trkpt lat="45.7759388" lon="9.4258256"><ele>204.66666666666666</ele><time>2026-04-11T14:00:20.37Z</time></trkpt><trkpt lat="45.7759757" lon="9.4257316"><ele>204.83333333333331</ele><time>2026-04-11T14:00:21.37Z</time></trkpt><trkpt lat="45.7759954" lon="9.4256269"><ele>205.0</ele><time>2026-04-11T14:00:22.37Z</time></trkpt><trkpt lat="45.775987" lon="9.4255241"><ele>206.2</ele><time>2026-04-11T14:00:23.367Z</time></trkpt><trkpt lat="45.7759424" lon="9.4254538"><ele>207.4</ele><time>2026-04-11T14:00:24.371Z</time></trkpt><trkpt lat="45.7758638" lon="9.4254252"><ele>208.60000000000002</ele><time>2026-04-11T14:00:25.376Z</time></trkpt><trkpt lat="45.7757505" lon="9.4254118"><ele>209.8</ele><time>2026-04-11T14:00:26.372Z</time></trkpt><trkpt lat="45.7756224" lon="9.4253946"><ele>211.0</ele><time>2026-04-11T14:00:27.371Z</time></trkpt><trkpt lat="45.7754747" lon="9.4253556"><ele>211.0</ele><time>2026-04-11T14:00:28.372Z</time></trkpt><trkpt lat="45.7753313" lon="9.4253241"><ele>211.0</ele><time>2026-04-11T14:00:29.374Z</time></trkpt><trkpt lat="45.7751668" lon="9.4252896"><ele>211.0</ele><time>2026-04-11T14:00:30.4Z</time></trkpt><trkpt lat="45.7750167" lon="9.425268"><ele>210.5</ele><time>2026-04-11T14:00:31.371Z</time></trkpt><trkpt lat="45.7748733" lon="9.4252539"><ele>210.0</ele><time>2026-04-11T14:00:32.367Z</time></trkpt><trkpt lat="45.7747393" lon="9.4252436"><ele>209.5</ele><time>2026-04-11T14:00:33.373Z</time></trkpt><trkpt lat="45.7746048" lon="9.4252329"><ele>209.0</ele><time>2026-04-11T14:00:34.373Z</time></trkpt><trkpt lat="45.7744656" lon="9.4252211"><ele>208.75</ele><time>2026-04-11T14:00:35.372Z</time></trkpt><trkpt lat="45.7743242" lon="9.4252133"><ele>208.5</ele><time>2026-04-11T14:00:36.364Z</time></trkpt><trkpt lat="45.7741773" lon="9.4252017"><ele>208.25</ele><time>2026-04-11T14:00:37.378Z</time></trkpt><trkpt lat="45.7740359" lon="9.4251963"><ele>208.0</ele><time>2026-04-11T14:00:38.365Z</time></trkpt><trkpt lat="45.7738965" lon="9.42519"><ele>208.0</ele><time>2026-04-11T14:00:39.37Z</time></trkpt><trkpt lat="45.7737515" lon="9.4251762"><ele>208.0</ele><time>2026-04-11T14:00:40.364Z</time></trkpt><trkpt lat="45.7736082" lon="9.4251686"><ele>208.0</ele><time>2026-04-11T14:00:41.366Z</time></trkpt><trkpt lat="45.7734616" lon="9.4251552"><ele>208.0</ele><time>2026-04-11T14:00:42.366Z</time></trkpt><trkpt lat="45.7733148" lon="9.4251434"><ele>207.25</ele><time>2026-04-11T14:00:43.368Z</time></trkpt><trkpt lat="45.7731701" lon="9.4251301"><ele>206.5</ele><time>2026-04-11T14:00:44.389Z</time></trkpt><trkpt lat="45.7730252" lon="9.4251208"><ele>205.75</ele><time>2026-04-11T14:00:45.372Z</time></trkpt><trkpt lat="45.7728754" lon="9.4251066"><ele>205.0</ele><time>2026-04-11T14:00:46.368Z</time></trkpt><trkpt lat="45.7727306" lon="9.4250954"><ele>205.0</ele><time>2026-04-11T14:00:47.373Z</time></trkpt><trkpt lat="45.7725898" lon="9.4250876"><ele>205.0</ele><time>2026-04-11T14:00:48.368Z</time></trkpt><trkpt lat="45.7724529" lon="9.425073"><ele>205.0</ele><time>2026-04-11T14:00:49.375Z</time></trkpt><trkpt lat="45.7723202" lon="9.4250609"><ele>205.0</ele><time>2026-04-11T14:00:50.369Z</time></trkpt><trkpt lat="45.7721886" lon="9.4250532"><ele>205.0</ele><time>2026-04-11T14:00:51.372Z</time></trkpt><trkpt lat="45.7720572" lon="9.4250402"><ele>205.0</ele><time>2026-04-11T14:00:52.365Z</time></trkpt><trkpt lat="45.771923" lon="9.4250275"><ele>205.0</ele><time>2026-04-11T14:00:53.371Z</time></trkpt><trkpt lat="45.7717919" lon="9.42502"><ele>205.0</ele><time>2026-04-11T14:00:54.364Z</time></trkpt><trkpt lat="45.7716646" lon="9.4250143"><ele>204.25</ele><time>2026-04-11T14:00:55.369Z</time></trkpt><trkpt lat="45.7715416" lon="9.4250078"><ele>203.5</ele><time>2026-04-11T14:00:56.366Z</time></trkpt><trkpt lat="45.7714142" lon="9.4250031"><ele>202.75</ele><time>2026-04-11T14:00:57.365Z</time></trkpt><trkpt lat="45.7712889" lon="9.4249945"><ele>202.0</ele><time>2026-04-11T14:00:58.365Z</time></trkpt><trkpt lat="45.7711582" lon="9.4249795"><ele>202.0</ele><time>2026-04-11T14:00:59.375Z</time></trkpt><trkpt lat="45.7710254" lon="9.4249558"><ele>202.0</ele><time>2026-04-11T14:01:00.367Z</time></trkpt><trkpt lat="45.7708886" lon="9.4249475"><ele>202.0</ele><time>2026-04-11T14:01:01.371Z</time></trkpt><trkpt lat="45.7707498" lon="9.4249366"><ele>202.0</ele><time>2026-04-11T14:01:02.365Z</time></trkpt><trkpt lat="45.7706073" lon="9.4249265"><ele>202.25</ele><time>2026-04-11T14:01:03.37Z</time></trkpt><trkpt lat="45.7704679" lon="9.4249138"><ele>202.5</ele><time>2026-04-11T14:01:04.368Z</time></trkpt><trkpt lat="45.770325" lon="9.4249048"><ele>202.75</ele><time>2026-04-11T14:01:05.367Z</time></trkpt><trkpt lat="45.7701866" lon="9.4249014"><ele>203.0</ele><time>2026-04-11T14:01:06.366Z</time></trkpt><trkpt lat="45.7700552" lon="9.424891"><ele>203.0</ele><time>2026-04-11T14:01:07.362Z</time></trkpt><trkpt lat="45.7699252" lon="9.4248832"><ele>203.0</ele><time>2026-04-11T14:01:08.362Z</time></trkpt><trkpt lat="45.7697978" lon="9.4248741"><ele>203.0</ele><time>2026-04-11T14:01:09.369Z</time></trkpt><trkpt lat="45.7696635" lon="9.4248659"><ele>203.0</ele><time>2026-04-11T14:01:10.368Z</time></trkpt><trkpt lat="45.7695258" lon="9.4248486"><ele>203.0</ele><time>2026-04-11T14:01:11.369Z</time></trkpt><trkpt lat="45.7693943" lon="9.4248428"><ele>203.0</ele><time>2026-04-11T14:01:12.384Z</time></trkpt><trkpt lat="45.7692526" lon="9.4248324"><ele>203.0</ele><time>2026-04-11T14:01:13.369Z</time></trkpt><trkpt lat="45.7691097" lon="9.4248193"><ele>203.0</ele><time>2026-04-11T14:01:14.364Z</time></trkpt><trkpt lat="45.7689581" lon="9.4248065"><ele>202.66666666666669</ele><time>2026-04-11T14:01:15.37Z</time></trkpt><trkpt lat="45.768807" lon="9.4247914"><ele>202.33333333333331</ele><time>2026-04-11T14:01:16.4Z</time></trkpt><trkpt lat="45.7686541" lon="9.4247792"><ele>202.0</ele><time>2026-04-11T14:01:17.372Z</time></trkpt><trkpt lat="45.7684849" lon="9.4247661"><ele>201.66666666666666</ele><time>2026-04-11T14:01:18.368Z</time></trkpt><trkpt lat="45.76831" lon="9.4247542"><ele>201.33333333333331</ele><time>2026-04-11T14:01:19.371Z</time></trkpt><trkpt lat="45.7681516" lon="9.4247407"><ele>201.0</ele><time>2026-04-11T14:01:20.367Z</time></trkpt><trkpt lat="45.7679897" lon="9.4247283"><ele>201.0</ele><time>2026-04-11T14:01:21.37Z</time></trkpt><trkpt lat="45.7678186" lon="9.4247245"><ele>201.0</ele><time>2026-04-11T14:01:22.367Z</time></trkpt><trkpt lat="45.7676394" lon="9.4247274"><ele>201.0</ele><time>2026-04-11T14:01:23.363Z</time></trkpt><trkpt lat="45.7674549" lon="9.4247343"><ele>201.66666666666669</ele><time>2026-04-11T14:01:24.367Z</time></trkpt><trkpt lat="45.7672688" lon="9.424758"><ele>202.33333333333334</ele><time>2026-04-11T14:01:25.371Z</time></trkpt><trkpt lat="45.7670797" lon="9.424795"><ele>203.0</ele><time>2026-04-11T14:01:26.391Z</time></trkpt><trkpt lat="45.7668976" lon="9.4248441"><ele>204.0</ele><time>2026-04-11T14:01:27.37Z</time></trkpt><trkpt lat="45.7667206" lon="9.4249022"><ele>205.0</ele><time>2026-04-11T14:01:28.365Z</time></trkpt><trkpt lat="45.7665498" lon="9.4249674"><ele>206.0</ele><time>2026-04-11T14:01:29.371Z</time></trkpt><trkpt lat="45.7663928" lon="9.42503"><ele>206.0</ele><time>2026-04-11T14:01:30.37Z</time></trkpt><trkpt lat="45.7662436" lon="9.425089"><ele>206.0</ele><time>2026-04-11T14:01:31.458Z</time></trkpt><trkpt lat="45.7660989" lon="9.4251487"><ele>206.0</ele><time>2026-04-11T14:01:32.373Z</time></trkpt><trkpt lat="45.7659607" lon="9.4252039"><ele>206.0</ele><time>2026-04-11T14:01:33.369Z</time></trkpt><trkpt lat="45.765831" lon="9.4252544"><ele>208.0</ele><time>2026-04-11T14:01:34.39Z</time></trkpt><trkpt lat="45.7657018" lon="9.4253064"><ele>210.0</ele><time>2026-04-11T14:01:35.371Z</time></trkpt><trkpt lat="45.7655744" lon="9.4253633"><ele>212.0</ele><time>2026-04-11T14:01:36.392Z</time></trkpt><trkpt lat="45.7654408" lon="9.4254193"><ele>214.0</ele><time>2026-04-11T14:01:37.371Z</time></trkpt><trkpt lat="45.7653062" lon="9.4254761"><ele>211.25</ele><time>2026-04-11T14:01:38.367Z</time></trkpt><trkpt lat="45.7651716" lon="9.4255342"><ele>208.5</ele><time>2026-04-11T14:01:39.371Z</time></trkpt><trkpt lat="45.7650414" lon="9.425583"><ele>205.75</ele><time>2026-04-11T14:01:40.369Z</time></trkpt><trkpt lat="45.7649123" lon="9.4256387"><ele>203.0</ele><time>2026-04-11T14:01:41.374Z</time></trkpt><trkpt lat="45.7647877" lon="9.4256872"><ele>203.0</ele><time>2026-04-11T14:01:42.371Z</time></trkpt><trkpt lat="45.7646621" lon="9.42574"><ele>203.0</ele><time>2026-04-11T14:01:43.375Z</time></trkpt><trkpt lat="45.7645388" lon="9.4257888"><ele>203.0</ele><time>2026-04-11T14:01:44.366Z</time></trkpt><trkpt lat="45.7644176" lon="9.4258344"><ele>203.0</ele><time>2026-04-11T14:01:45.378Z</time></trkpt><trkpt lat="45.7642985" lon="9.4258785"><ele>205.5</ele><time>2026-04-11T14:01:46.367Z</time></trkpt><trkpt lat="45.7641769" lon="9.4259265"><ele>208.0</ele><time>2026-04-11T14:01:47.371Z</time></trkpt><trkpt lat="45.764055" lon="9.4259734"><ele>210.5</ele><time>2026-04-11T14:01:48.367Z</time></trkpt><trkpt lat="45.7639343" lon="9.4260243"><ele>213.0</ele><time>2026-04-11T14:01:49.364Z</time></trkpt><trkpt lat="45.7638111" lon="9.4260794"><ele>213.0</ele><time>2026-04-11T14:01:50.364Z</time></trkpt><trkpt lat="45.7636895" lon="9.4261304"><ele>213.0</ele><time>2026-04-11T14:01:51.373Z</time></trkpt><trkpt lat="45.7635657" lon="9.4261766"><ele>213.0</ele><time>2026-04-11T14:01:52.365Z</time></trkpt><trkpt lat="45.7634395" lon="9.4262286"><ele>213.0</ele><time>2026-04-11T14:01:53.371Z</time></trkpt><trkpt lat="45.7633148" lon="9.4262802"><ele>211.0</ele><time>2026-04-11T14:01:54.365Z</time></trkpt><trkpt lat="45.7631839" lon="9.4263287"><ele>209.0</ele><time>2026-04-11T14:01:55.369Z</time></trkpt><trkpt lat="45.7630483" lon="9.4263737"><ele>207.0</ele><time>2026-04-11T14:01:56.374Z</time></trkpt><trkpt lat="45.7629128" lon="9.4264137"><ele>205.0</ele><time>2026-04-11T14:01:57.37Z</time></trkpt><trkpt lat="45.7627728" lon="9.4264485"><ele>207.5</ele><time>2026-04-11T14:01:58.367Z</time></trkpt><trkpt lat="45.762629" lon="9.4264701"><ele>210.0</ele><time>2026-04-11T14:01:59.371Z</time></trkpt><trkpt lat="45.7624835" lon="9.4264856"><ele>212.5</ele><time>2026-04-11T14:02:00.366Z</time></trkpt><trkpt lat="45.7623369" lon="9.4265045"><ele>215.0</ele><time>2026-04-11T14:02:01.367Z</time></trkpt><trkpt lat="45.7621929" lon="9.4265223"><ele>215.0</ele><time>2026-04-11T14:02:02.366Z</time></trkpt><trkpt lat="45.762044" lon="9.4265369"><ele>215.0</ele><time>2026-04-11T14:02:03.371Z</time></trkpt><trkpt lat="45.7619026" lon="9.4265531"><ele>215.0</ele><time>2026-04-11T14:02:04.369Z</time></trkpt><trkpt lat="45.7617622" lon="9.4265656"><ele>215.0</ele><time>2026-04-11T14:02:05.371Z</time></trkpt><trkpt lat="45.7616221" lon="9.4265804"><ele>214.0</ele><time>2026-04-11T14:02:06.366Z</time></trkpt><trkpt lat="45.761488" lon="9.4265832"><ele>213.0</ele><time>2026-04-11T14:02:07.37Z</time></trkpt><trkpt lat="45.7613468" lon="9.4265955"><ele>212.0</ele><time>2026-04-11T14:02:08.365Z</time></trkpt><trkpt lat="45.761193" lon="9.4266141"><ele>211.0</ele><time>2026-04-11T14:02:09.37Z</time></trkpt><trkpt lat="45.7610258" lon="9.4266345"><ele>210.66666666666666</ele><time>2026-04-11T14:02:10.368Z</time></trkpt><trkpt lat="45.7608425" lon="9.4266588"><ele>210.33333333333331</ele><time>2026-04-11T14:02:11.372Z</time></trkpt><trkpt lat="45.7606328" lon="9.4266807"><ele>210.0</ele><time>2026-04-11T14:02:12.365Z</time></trkpt><trkpt lat="45.7604122" lon="9.4267123"><ele>212.0</ele><time>2026-04-11T14:02:13.373Z</time></trkpt><trkpt lat="45.7601733" lon="9.4267349"><ele>214.0</ele><time>2026-04-11T14:02:14.37Z</time></trkpt><trkpt lat="45.7599255" lon="9.4267557"><ele>214.0</ele><time>2026-04-11T14:02:15.364Z</time></trkpt><trkpt lat="45.7596843" lon="9.4267662"><ele>214.0</ele><time>2026-04-11T14:02:16.364Z</time></trkpt><trkpt lat="45.7594433" lon="9.4267688"><ele>216.66666666666666</ele><time>2026-04-11T14:02:17.374Z</time></trkpt><trkpt lat="45.759222" lon="9.426776"><ele>219.33333333333331</ele><time>2026-04-11T14:02:18.37Z</time></trkpt><trkpt lat="45.7590105" lon="9.4267828"><ele>222.0</ele><time>2026-04-11T14:02:19.374Z</time></trkpt><trkpt lat="45.7588129" lon="9.4267827"><ele>222.0</ele><time>2026-04-11T14:02:20.366Z</time></trkpt><trkpt lat="45.7586382" lon="9.4267843"><ele>222.0</ele><time>2026-04-11T14:02:21.373Z</time></trkpt><trkpt lat="45.7584852" lon="9.4267826"><ele>222.0</ele><time>2026-04-11T14:02:22.396Z</time></trkpt><trkpt lat="45.7583608" lon="9.4267815"><ele>220.33333333333334</ele><time>2026-04-11T14:02:23.371Z</time></trkpt><trkpt lat="45.758263" lon="9.4267846"><ele>218.66666666666669</ele><time>2026-04-11T14:02:24.364Z</time></trkpt><trkpt lat="45.7581799" lon="9.4267847"><ele>217.0</ele><time>2026-04-11T14:02:25.369Z</time></trkpt><trkpt lat="45.7581114" lon="9.4267877"><ele>215.33333333333334</ele><time>2026-04-11T14:02:26.368Z</time></trkpt><trkpt lat="45.7580477" lon="9.4267883"><ele>213.66666666666669</ele><time>2026-04-11T14:02:27.371Z</time></trkpt><trkpt lat="45.7579361" lon="9.4267864"><ele>212.0</ele><time>2026-04-11T14:02:29.364Z</time></trkpt><trkpt lat="45.7578657" lon="9.4267859"><ele>212.00000000000003</ele><time>2026-04-11T14:02:30.37Z</time></trkpt><trkpt lat="45.7577875" lon="9.4267892"><ele>212.0</ele><time>2026-04-11T14:02:31.364Z</time></trkpt><trkpt lat="45.7577055" lon="9.426785"><ele>212.0</ele><time>2026-04-11T14:02:32.367Z</time></trkpt><trkpt lat="45.7576242" lon="9.4267867"><ele>212.0</ele><time>2026-04-11T14:02:33.364Z</time></trkpt><trkpt lat="45.7575513" lon="9.4267894"><ele>212.00000000000003</ele><time>2026-04-11T14:02:34.362Z</time></trkpt><trkpt lat="45.7574374" lon="9.4267777"><ele>212.0</ele><time>2026-04-11T14:02:36.366Z</time></trkpt><trkpt lat="45.7573505" lon="9.4267534"><ele>212.00000000000003</ele><time>2026-04-11T14:02:38.367Z</time></trkpt><trkpt lat="45.757263" lon="9.4267436"><ele>212.0</ele><time>2026-04-11T14:02:40.365Z</time></trkpt><trkpt lat="45.7571986" lon="9.4267419"><ele>212.0</ele><time>2026-04-11T14:02:42.363Z</time></trkpt><trkpt lat="45.7571264" lon="9.4267377"><ele>212.0</ele><time>2026-04-11T14:02:45.372Z</time></trkpt><trkpt lat="45.7570323" lon="9.4267353"><ele>212.00000000000003</ele><time>2026-04-11T14:02:48.368Z</time></trkpt><trkpt lat="45.7569275" lon="9.4267311"><ele>212.0</ele><time>2026-04-11T14:02:50.364Z</time></trkpt><trkpt lat="45.7568317" lon="9.4267247"><ele>213.00000000000003</ele><time>2026-04-11T14:02:52.368Z</time></trkpt><trkpt lat="45.7567623" lon="9.4267191"><ele>214.0</ele><time>2026-04-11T14:02:54.365Z</time></trkpt><trkpt lat="45.7566937" lon="9.4267119"><ele>215.0</ele><time>2026-04-11T14:02:56.365Z</time></trkpt><trkpt lat="45.7566163" lon="9.4267105"><ele>216.0</ele><time>2026-04-11T14:02:58.368Z</time></trkpt><trkpt lat="45.7565258" lon="9.4267072"><ele>217.00000000000003</ele><time>2026-04-11T14:03:01.372Z</time></trkpt><trkpt lat="45.7564323" lon="9.4266977"><ele>218.0</ele><time>2026-04-11T14:03:04.369Z</time></trkpt><trkpt lat="45.7563382" lon="9.4266948"><ele>218.0</ele><time>2026-04-11T14:03:06.365Z</time></trkpt><trkpt lat="45.7562521" lon="9.4267024"><ele>218.0</ele><time>2026-04-11T14:03:08.369Z</time></trkpt><trkpt lat="45.7561499" lon="9.4267138"><ele>218.0</ele><time>2026-04-11T14:03:10.365Z</time></trkpt><trkpt lat="45.7560597" lon="9.4267069"><ele>218.0</ele><time>2026-04-11T14:03:12.364Z</time></trkpt><trkpt lat="45.755961" lon="9.4266648"><ele>218.0</ele><time>2026-04-11T14:03:14.375Z</time></trkpt><trkpt lat="45.7558424" lon="9.4266479"><ele>218.00000000000003</ele><time>2026-04-11T14:03:16.366Z</time></trkpt><trkpt lat="45.7557747" lon="9.4266498"><ele>218.0</ele><time>2026-04-11T14:03:17.37Z</time></trkpt><trkpt lat="45.7557036" lon="9.4266512"><ele>218.0</ele><time>2026-04-11T14:03:18.367Z</time></trkpt><trkpt lat="45.7556357" lon="9.4266494"><ele>218.0</ele><time>2026-04-11T14:03:19.371Z</time></trkpt><trkpt lat="45.755572" lon="9.4266457"><ele>218.00000000000003</ele><time>2026-04-11T14:03:20.363Z</time></trkpt><trkpt lat="45.7554238" lon="9.4266546"><ele>218.0</ele><time>2026-04-11T14:03:23.37Z</time></trkpt><trkpt lat="45.7553418" lon="9.4266482"><ele>218.0</ele><time>2026-04-11T14:03:25.364Z</time></trkpt><trkpt lat="45.7552601" lon="9.426642"><ele>218.0</ele><time>2026-04-11T14:03:27.373Z</time></trkpt><trkpt lat="45.7551621" lon="9.4266325"><ele>218.0</ele><time>2026-04-11T14:03:29.371Z</time></trkpt><trkpt lat="45.7550493" lon="9.426624"><ele>218.0</ele><time>2026-04-11T14:03:31.37Z</time></trkpt><trkpt lat="45.7549489" lon="9.4266218"><ele>218.0</ele><time>2026-04-11T14:03:32.366Z</time></trkpt><trkpt lat="45.7548275" lon="9.4266192"><ele>218.0</ele><time>2026-04-11T14:03:33.37Z</time></trkpt><trkpt lat="45.7546941" lon="9.4266209"><ele>218.0</ele><time>2026-04-11T14:03:34.372Z</time></trkpt><trkpt lat="45.7545439" lon="9.4266154"><ele>218.0</ele><time>2026-04-11T14:03:35.372Z</time></trkpt><trkpt lat="45.754391" lon="9.4266093"><ele>218.0</ele><time>2026-04-11T14:03:36.371Z</time></trkpt><trkpt lat="45.7542487" lon="9.4266075"><ele>218.0</ele><time>2026-04-11T14:03:37.373Z</time></trkpt><trkpt lat="45.7541085" lon="9.4266042"><ele>218.0</ele><time>2026-04-11T14:03:38.37Z</time></trkpt><trkpt lat="45.7539684" lon="9.4266043"><ele>218.0</ele><time>2026-04-11T14:03:39.367Z</time></trkpt><trkpt lat="45.7538209" lon="9.4266012"><ele>218.0</ele><time>2026-04-11T14:03:40.369Z</time></trkpt><trkpt lat="45.7536694" lon="9.4265951"><ele>217.5</ele><time>2026-04-11T14:03:41.367Z</time></trkpt><trkpt lat="45.7535275" lon="9.4265892"><ele>217.0</ele><time>2026-04-11T14:03:42.366Z</time></trkpt><trkpt lat="45.7533914" lon="9.426587"><ele>216.5</ele><time>2026-04-11T14:03:43.365Z</time></trkpt><trkpt lat="45.7532552" lon="9.4265851"><ele>216.0</ele><time>2026-04-11T14:03:44.367Z</time></trkpt><trkpt lat="45.7531149" lon="9.4265855"><ele>216.0</ele><time>2026-04-11T14:03:45.367Z</time></trkpt><trkpt lat="45.7529681" lon="9.4265772"><ele>216.0</ele><time>2026-04-11T14:03:46.368Z</time></trkpt><trkpt lat="45.7528185" lon="9.4265766"><ele>216.0</ele><time>2026-04-11T14:03:47.366Z</time></trkpt><trkpt lat="45.7526605" lon="9.4265743"><ele>215.33333333333331</ele><time>2026-04-11T14:03:48.367Z</time></trkpt><trkpt lat="45.7524956" lon="9.4265588"><ele>214.66666666666666</ele><time>2026-04-11T14:03:49.367Z</time></trkpt><trkpt lat="45.7523433" lon="9.4265551"><ele>214.0</ele><time>2026-04-11T14:03:50.366Z</time></trkpt><trkpt lat="45.7521986" lon="9.4265482"><ele>214.0</ele><time>2026-04-11T14:03:51.365Z</time></trkpt><trkpt lat="45.7520615" lon="9.4265433"><ele>214.0</ele><time>2026-04-11T14:03:52.368Z</time></trkpt><trkpt lat="45.7519321" lon="9.426542"><ele>214.0</ele><time>2026-04-11T14:03:53.368Z</time></trkpt><trkpt lat="45.7518068" lon="9.4265405"><ele>214.0</ele><time>2026-04-11T14:03:54.368Z</time></trkpt><trkpt lat="45.7516787" lon="9.4265387"><ele>213.0</ele><time>2026-04-11T14:03:55.367Z</time></trkpt><trkpt lat="45.7515512" lon="9.4265324"><ele>212.0</ele><time>2026-04-11T14:03:56.366Z</time></trkpt><trkpt lat="45.751423" lon="9.4265244"><ele>211.0</ele><time>2026-04-11T14:03:57.369Z</time></trkpt><trkpt lat="45.7512939" lon="9.4265135"><ele>210.0</ele><time>2026-04-11T14:03:58.37Z</time></trkpt><trkpt lat="45.7511727" lon="9.4265024"><ele>210.0</ele><time>2026-04-11T14:03:59.366Z</time></trkpt><trkpt lat="45.7510594" lon="9.4264969"><ele>210.0</ele><time>2026-04-11T14:04:00.367Z</time></trkpt><trkpt lat="45.750955" lon="9.4264943"><ele>210.0</ele><time>2026-04-11T14:04:01.372Z</time></trkpt><trkpt lat="45.7508589" lon="9.426483"><ele>210.0</ele><time>2026-04-11T14:04:02.368Z</time></trkpt><trkpt lat="45.7507695" lon="9.4264756"><ele>210.0</ele><time>2026-04-11T14:04:03.37Z</time></trkpt><trkpt lat="45.7506891" lon="9.4264638"><ele>209.83333333333334</ele><time>2026-04-11T14:04:04.366Z</time></trkpt><trkpt lat="45.7506187" lon="9.4264398"><ele>209.66666666666669</ele><time>2026-04-11T14:04:05.372Z</time></trkpt><trkpt lat="45.7505571" lon="9.4264118"><ele>209.5</ele><time>2026-04-11T14:04:06.369Z</time></trkpt><trkpt lat="45.7504911" lon="9.4263976"><ele>209.33333333333334</ele><time>2026-04-11T14:04:07.368Z</time></trkpt><trkpt lat="45.7504048" lon="9.4264055"><ele>209.16666666666669</ele><time>2026-04-11T14:04:08.376Z</time></trkpt><trkpt lat="45.750298" lon="9.4264111"><ele>209.0</ele><time>2026-04-11T14:04:09.367Z</time></trkpt><trkpt lat="45.7501785" lon="9.4264103"><ele>209.0</ele><time>2026-04-11T14:04:10.369Z</time></trkpt><trkpt lat="45.7500509" lon="9.4264036"><ele>209.0</ele><time>2026-04-11T14:04:11.368Z</time></trkpt><trkpt lat="45.7499135" lon="9.426399"><ele>209.0</ele><time>2026-04-11T14:04:12.368Z</time></trkpt><trkpt lat="45.7497734" lon="9.4263892"><ele>209.0</ele><time>2026-04-11T14:04:13.369Z</time></trkpt><trkpt lat="45.7496297" lon="9.4263745"><ele>209.0</ele><time>2026-04-11T14:04:14.392Z</time></trkpt><trkpt lat="45.7494873" lon="9.426363"><ele>209.0</ele><time>2026-04-11T14:04:15.368Z</time></trkpt><trkpt lat="45.7493457" lon="9.4263532"><ele>209.0</ele><time>2026-04-11T14:04:16.372Z</time></trkpt><trkpt lat="45.7492072" lon="9.4263442"><ele>209.0</ele><time>2026-04-11T14:04:17.368Z</time></trkpt><trkpt lat="45.74907" lon="9.4263285"><ele>209.25</ele><time>2026-04-11T14:04:18.368Z</time></trkpt><trkpt lat="45.7489349" lon="9.4263141"><ele>209.5</ele><time>2026-04-11T14:04:19.369Z</time></trkpt><trkpt lat="45.7488028" lon="9.426298"><ele>209.75</ele><time>2026-04-11T14:04:20.393Z</time></trkpt><trkpt lat="45.748669" lon="9.4262838"><ele>210.0</ele><time>2026-04-11T14:04:21.368Z</time></trkpt><trkpt lat="45.7485374" lon="9.4262717"><ele>211.25</ele><time>2026-04-11T14:04:22.375Z</time></trkpt><trkpt lat="45.7484047" lon="9.4262552"><ele>212.5</ele><time>2026-04-11T14:04:23.371Z</time></trkpt><trkpt lat="45.7482756" lon="9.4262433"><ele>213.75</ele><time>2026-04-11T14:04:24.366Z</time></trkpt><trkpt lat="45.7481467" lon="9.4262331"><ele>215.0</ele><time>2026-04-11T14:04:25.373Z</time></trkpt><trkpt lat="45.7480178" lon="9.4262248"><ele>215.0</ele><time>2026-04-11T14:04:26.371Z</time></trkpt><trkpt lat="45.7478884" lon="9.4262107"><ele>215.0</ele><time>2026-04-11T14:04:27.372Z</time></trkpt><trkpt lat="45.7477556" lon="9.4261962"><ele>215.0</ele><time>2026-04-11T14:04:28.399Z</time></trkpt><trkpt lat="45.7476251" lon="9.4261814"><ele>215.0</ele><time>2026-04-11T14:04:29.369Z</time></trkpt><trkpt lat="45.7474984" lon="9.4261673"><ele>215.75</ele><time>2026-04-11T14:04:30.366Z</time></trkpt><trkpt lat="45.7473766" lon="9.4261516"><ele>216.5</ele><time>2026-04-11T14:04:31.365Z</time></trkpt><trkpt lat="45.7472566" lon="9.4261402"><ele>217.25</ele><time>2026-04-11T14:04:32.366Z</time></trkpt><trkpt lat="45.7471383" lon="9.4261277"><ele>218.0</ele><time>2026-04-11T14:04:33.365Z</time></trkpt><trkpt lat="45.7470147" lon="9.4261156"><ele>218.0</ele><time>2026-04-11T14:04:34.371Z</time></trkpt><trkpt lat="45.7468861" lon="9.4261028"><ele>218.0</ele><time>2026-04-11T14:04:35.368Z</time></trkpt><trkpt lat="45.7467606" lon="9.4260896"><ele>218.0</ele><time>2026-04-11T14:04:36.369Z</time></trkpt><trkpt lat="45.7466334" lon="9.4260793"><ele>218.0</ele><time>2026-04-11T14:04:37.365Z</time></trkpt><trkpt lat="45.7464928" lon="9.4260598"><ele>217.33333333333334</ele><time>2026-04-11T14:04:38.363Z</time></trkpt><trkpt lat="45.7463416" lon="9.4260399"><ele>216.66666666666669</ele><time>2026-04-11T14:04:39.37Z</time></trkpt><trkpt lat="45.7461831" lon="9.4260115"><ele>216.0</ele><time>2026-04-11T14:04:40.368Z</time></trkpt><trkpt lat="45.7460231" lon="9.4259681"><ele>216.0</ele><time>2026-04-11T14:04:41.367Z</time></trkpt><trkpt lat="45.7458631" lon="9.4259163"><ele>216.0</ele><time>2026-04-11T14:04:42.371Z</time></trkpt><trkpt lat="45.7457047" lon="9.425847"><ele>216.0</ele><time>2026-04-11T14:04:43.371Z</time></trkpt><trkpt lat="45.7455626" lon="9.4257721"><ele>216.0</ele><time>2026-04-11T14:04:44.368Z</time></trkpt><trkpt lat="45.7454262" lon="9.4256983"><ele>216.0</ele><time>2026-04-11T14:04:45.369Z</time></trkpt><trkpt lat="45.7452983" lon="9.4256253"><ele>216.0</ele><time>2026-04-11T14:04:46.363Z</time></trkpt><trkpt lat="45.7451756" lon="9.4255554"><ele>216.0</ele><time>2026-04-11T14:04:47.372Z</time></trkpt><trkpt lat="45.7450581" lon="9.4254899"><ele>217.5</ele><time>2026-04-11T14:04:48.368Z</time></trkpt><trkpt lat="45.7449367" lon="9.4254246"><ele>219.0</ele><time>2026-04-11T14:04:49.372Z</time></trkpt><trkpt lat="45.7448144" lon="9.4253639"><ele>220.5</ele><time>2026-04-11T14:04:50.364Z</time></trkpt><trkpt lat="45.7446869" lon="9.4252954"><ele>222.0</ele><time>2026-04-11T14:04:51.369Z</time></trkpt><trkpt lat="45.7445557" lon="9.4252244"><ele>222.0</ele><time>2026-04-11T14:04:52.364Z</time></trkpt><trkpt lat="45.7444192" lon="9.4251501"><ele>222.0</ele><time>2026-04-11T14:04:53.371Z</time></trkpt><trkpt lat="45.7442728" lon="9.4250688"><ele>222.0</ele><time>2026-04-11T14:04:54.365Z</time></trkpt><trkpt lat="45.7441204" lon="9.4249885"><ele>220.66666666666669</ele><time>2026-04-11T14:04:55.373Z</time></trkpt><trkpt lat="45.7439615" lon="9.4248992"><ele>219.33333333333334</ele><time>2026-04-11T14:04:56.362Z</time></trkpt><trkpt lat="45.7438" lon="9.4248015"><ele>218.0</ele><time>2026-04-11T14:04:57.372Z</time></trkpt><trkpt lat="45.7436451" lon="9.4247115"><ele>220.33333333333334</ele><time>2026-04-11T14:04:58.373Z</time></trkpt><trkpt lat="45.743493" lon="9.4246271"><ele>222.66666666666669</ele><time>2026-04-11T14:04:59.371Z</time></trkpt><trkpt lat="45.7433373" lon="9.4245426"><ele>225.0</ele><time>2026-04-11T14:05:00.364Z</time></trkpt><trkpt lat="45.7431855" lon="9.424453"><ele>225.0</ele><time>2026-04-11T14:05:01.368Z</time></trkpt><trkpt lat="45.7430377" lon="9.424364"><ele>225.0</ele><time>2026-04-11T14:05:02.361Z</time></trkpt><trkpt lat="45.7428918" lon="9.4242814"><ele>225.0</ele><time>2026-04-11T14:05:03.369Z</time></trkpt><trkpt lat="45.7427494" lon="9.4242061"><ele>222.0</ele><time>2026-04-11T14:05:04.365Z</time></trkpt><trkpt lat="45.7426062" lon="9.4241253"><ele>219.0</ele><time>2026-04-11T14:05:05.368Z</time></trkpt><trkpt lat="45.7424635" lon="9.4240485"><ele>216.0</ele><time>2026-04-11T14:05:06.365Z</time></trkpt><trkpt lat="45.7423207" lon="9.4239636"><ele>216.0</ele><time>2026-04-11T14:05:07.371Z</time></trkpt><trkpt lat="45.7421776" lon="9.42388"><ele>216.0</ele><time>2026-04-11T14:05:08.365Z</time></trkpt><trkpt lat="45.7420351" lon="9.4237925"><ele>216.0</ele><time>2026-04-11T14:05:09.369Z</time></trkpt><trkpt lat="45.7418938" lon="9.423703"><ele>217.0</ele><time>2026-04-11T14:05:10.36Z</time></trkpt><trkpt lat="45.7417523" lon="9.4236049"><ele>218.0</ele><time>2026-04-11T14:05:11.367Z</time></trkpt><trkpt lat="45.7416121" lon="9.4235098"><ele>219.0</ele><time>2026-04-11T14:05:12.364Z</time></trkpt><trkpt lat="45.7414721" lon="9.4234089"><ele>219.0</ele><time>2026-04-11T14:05:13.368Z</time></trkpt><trkpt lat="45.7413342" lon="9.4233025"><ele>219.0</ele><time>2026-04-11T14:05:14.36Z</time></trkpt><trkpt lat="45.741194" lon="9.4231983"><ele>219.0</ele><time>2026-04-11T14:05:15.37Z</time></trkpt><trkpt lat="45.741051" lon="9.423092"><ele>219.0</ele><time>2026-04-11T14:05:16.365Z</time></trkpt><trkpt lat="45.7409175" lon="9.4229853"><ele>219.0</ele><time>2026-04-11T14:05:17.364Z</time></trkpt><trkpt lat="45.7407898" lon="9.4228898"><ele>219.0</ele><time>2026-04-11T14:05:18.366Z</time></trkpt><trkpt lat="45.7406728" lon="9.4227984"><ele>219.0</ele><time>2026-04-11T14:05:19.367Z</time></trkpt><trkpt lat="45.740561" lon="9.4227119"><ele>219.0</ele><time>2026-04-11T14:05:20.362Z</time></trkpt><trkpt lat="45.740453" lon="9.4226284"><ele>219.0</ele><time>2026-04-11T14:05:21.469Z</time></trkpt><trkpt lat="45.7402384" lon="9.4224579"><ele>219.0</ele><time>2026-04-11T14:05:23.37Z</time></trkpt><trkpt lat="45.7401292" lon="9.4223693"><ele>219.0</ele><time>2026-04-11T14:05:24.363Z</time></trkpt><trkpt lat="45.7400194" lon="9.4222799"><ele>219.0</ele><time>2026-04-11T14:05:25.371Z</time></trkpt><trkpt lat="45.7399134" lon="9.4221937"><ele>219.0</ele><time>2026-04-11T14:05:26.366Z</time></trkpt><trkpt lat="45.7398098" lon="9.4221125"><ele>219.0</ele><time>2026-04-11T14:05:27.369Z</time></trkpt><trkpt lat="45.7397073" lon="9.4220355"><ele>219.25</ele><time>2026-04-11T14:05:28.365Z</time></trkpt><trkpt lat="45.7395967" lon="9.4219549"><ele>219.5</ele><time>2026-04-11T14:05:29.369Z</time></trkpt><trkpt lat="45.7394802" lon="9.4218707"><ele>219.75</ele><time>2026-04-11T14:05:30.364Z</time></trkpt><trkpt lat="45.7393632" lon="9.4217774"><ele>220.0</ele><time>2026-04-11T14:05:31.37Z</time></trkpt><trkpt lat="45.7392415" lon="9.4216819"><ele>219.25</ele><time>2026-04-11T14:05:32.365Z</time></trkpt><trkpt lat="45.7391154" lon="9.4215837"><ele>218.5</ele><time>2026-04-11T14:05:33.37Z</time></trkpt><trkpt lat="45.7389941" lon="9.4214933"><ele>217.75</ele><time>2026-04-11T14:05:34.382Z</time></trkpt><trkpt lat="45.7388775" lon="9.4214001"><ele>217.0</ele><time>2026-04-11T14:05:35.367Z</time></trkpt><trkpt lat="45.7387655" lon="9.4213176"><ele>217.5</ele><time>2026-04-11T14:05:36.362Z</time></trkpt><trkpt lat="45.7386649" lon="9.42124"><ele>218.0</ele><time>2026-04-11T14:05:37.368Z</time></trkpt><trkpt lat="45.7385601" lon="9.4211587"><ele>218.5</ele><time>2026-04-11T14:05:38.364Z</time></trkpt><trkpt lat="45.7384506" lon="9.421073"><ele>219.0</ele><time>2026-04-11T14:05:39.366Z</time></trkpt><trkpt lat="45.7383364" lon="9.420987"><ele>219.0</ele><time>2026-04-11T14:05:40.372Z</time></trkpt><trkpt lat="45.7382156" lon="9.4208901"><ele>219.0</ele><time>2026-04-11T14:05:41.368Z</time></trkpt><trkpt lat="45.738094" lon="9.4207922"><ele>219.0</ele><time>2026-04-11T14:05:42.369Z</time></trkpt><trkpt lat="45.7379804" lon="9.4207026"><ele>219.0</ele><time>2026-04-11T14:05:43.365Z</time></trkpt><trkpt lat="45.7378679" lon="9.4206151"><ele>219.0</ele><time>2026-04-11T14:05:44.366Z</time></trkpt><trkpt lat="45.7377583" lon="9.4205252"><ele>219.0</ele><time>2026-04-11T14:05:45.362Z</time></trkpt><trkpt lat="45.7376506" lon="9.4204406"><ele>219.0</ele><time>2026-04-11T14:05:46.37Z</time></trkpt><trkpt lat="45.7375433" lon="9.420357"><ele>219.0</ele><time>2026-04-11T14:05:47.362Z</time></trkpt><trkpt lat="45.7374396" lon="9.4202772"><ele>219.39999999999998</ele><time>2026-04-11T14:05:48.372Z</time></trkpt><trkpt lat="45.737333" lon="9.4201968"><ele>219.79999999999998</ele><time>2026-04-11T14:05:49.365Z</time></trkpt><trkpt lat="45.7372293" lon="9.4201181"><ele>220.20000000000002</ele><time>2026-04-11T14:05:50.368Z</time></trkpt><trkpt lat="45.7371342" lon="9.4200433"><ele>220.60000000000002</ele><time>2026-04-11T14:05:51.361Z</time></trkpt><trkpt lat="45.7370603" lon="9.4199838"><ele>221.0</ele><time>2026-04-11T14:05:52.365Z</time></trkpt><trkpt lat="45.736967" lon="9.4199087"><ele>221.0</ele><time>2026-04-11T14:05:54.371Z</time></trkpt><trkpt lat="45.7368931" lon="9.4198435"><ele>221.00000000000003</ele><time>2026-04-11T14:05:56.37Z</time></trkpt><trkpt lat="45.7368039" lon="9.4197691"><ele>221.00000000000003</ele><time>2026-04-11T14:05:58.374Z</time></trkpt><trkpt lat="45.7367158" lon="9.4196998"><ele>221.0</ele><time>2026-04-11T14:06:00.368Z</time></trkpt><trkpt lat="45.7365911" lon="9.4196131"><ele>221.0</ele><time>2026-04-11T14:06:02.369Z</time></trkpt><trkpt lat="45.7365124" lon="9.4195608"><ele>221.20000000000002</ele><time>2026-04-11T14:06:03.37Z</time></trkpt><trkpt lat="45.7364339" lon="9.4194985"><ele>221.40000000000003</ele><time>2026-04-11T14:06:04.371Z</time></trkpt><trkpt lat="45.7363443" lon="9.4194298"><ele>221.6</ele><time>2026-04-11T14:06:05.37Z</time></trkpt><trkpt lat="45.736253" lon="9.4193598"><ele>221.8</ele><time>2026-04-11T14:06:06.371Z</time></trkpt><trkpt lat="45.7361608" lon="9.4192885"><ele>222.0</ele><time>2026-04-11T14:06:07.369Z</time></trkpt><trkpt lat="45.7360697" lon="9.4192191"><ele>221.6</ele><time>2026-04-11T14:06:08.366Z</time></trkpt><trkpt lat="45.7359738" lon="9.4191429"><ele>221.2</ele><time>2026-04-11T14:06:09.361Z</time></trkpt><trkpt lat="45.7358803" lon="9.4190736"><ele>220.8</ele><time>2026-04-11T14:06:10.371Z</time></trkpt><trkpt lat="45.7357972" lon="9.4190086"><ele>220.4</ele><time>2026-04-11T14:06:11.363Z</time></trkpt><trkpt lat="45.7357222" lon="9.418949"><ele>220.0</ele><time>2026-04-11T14:06:12.364Z</time></trkpt><trkpt lat="45.7356543" lon="9.4188972"><ele>219.99999999999997</ele><time>2026-04-11T14:06:13.366Z</time></trkpt><trkpt lat="45.7355939" lon="9.4188473"><ele>220.0</ele><time>2026-04-11T14:06:14.371Z</time></trkpt><trkpt lat="45.7355375" lon="9.4188019"><ele>220.0</ele><time>2026-04-11T14:06:15.365Z</time></trkpt><trkpt lat="45.7354832" lon="9.4187543"><ele>220.0</ele><time>2026-04-11T14:06:16.366Z</time></trkpt><trkpt lat="45.7354256" lon="9.4187018"><ele>220.0</ele><time>2026-04-11T14:06:17.367Z</time></trkpt><trkpt lat="45.7353643" lon="9.4186559"><ele>219.99999999999997</ele><time>2026-04-11T14:06:18.373Z</time></trkpt><trkpt lat="45.7353084" lon="9.4186042"><ele>220.0</ele><time>2026-04-11T14:06:19.364Z</time></trkpt><trkpt lat="45.7352486" lon="9.418547"><ele>220.66666666666666</ele><time>2026-04-11T14:06:20.37Z</time></trkpt><trkpt lat="45.735188" lon="9.4184868"><ele>221.33333333333331</ele><time>2026-04-11T14:06:21.365Z</time></trkpt><trkpt lat="45.7351254" lon="9.4184249"><ele>222.0</ele><time>2026-04-11T14:06:22.372Z</time></trkpt><trkpt lat="45.7350605" lon="9.418356"><ele>222.66666666666669</ele><time>2026-04-11T14:06:23.373Z</time></trkpt><trkpt lat="45.7349951" lon="9.4182614"><ele>223.33333333333334</ele><time>2026-04-11T14:06:24.363Z</time></trkpt><trkpt lat="45.7349257" lon="9.4181479"><ele>224.0</ele><time>2026-04-11T14:06:25.369Z</time></trkpt><trkpt lat="45.7348389" lon="9.4180397"><ele>223.75</ele><time>2026-04-11T14:06:26.368Z</time></trkpt><trkpt lat="45.7347382" lon="9.417945"><ele>223.5</ele><time>2026-04-11T14:06:27.387Z</time></trkpt><trkpt lat="45.7346413" lon="9.4178593"><ele>223.25</ele><time>2026-04-11T14:06:28.367Z</time></trkpt><trkpt lat="45.7345478" lon="9.4177618"><ele>223.0</ele><time>2026-04-11T14:06:29.37Z</time></trkpt><trkpt lat="45.734462" lon="9.4176589"><ele>225.0</ele><time>2026-04-11T14:06:30.37Z</time></trkpt><trkpt lat="45.7343772" lon="9.4175576"><ele>227.0</ele><time>2026-04-11T14:06:31.368Z</time></trkpt><trkpt lat="45.7342962" lon="9.4174581"><ele>229.0</ele><time>2026-04-11T14:06:32.369Z</time></trkpt><trkpt lat="45.7342118" lon="9.4173627"><ele>231.0</ele><time>2026-04-11T14:06:33.366Z</time></trkpt><trkpt lat="45.7341238" lon="9.4172681"><ele>233.0</ele><time>2026-04-11T14:06:34.366Z</time></trkpt><trkpt lat="45.7340235" lon="9.4171847"><ele>232.25</ele><time>2026-04-11T14:06:35.375Z</time></trkpt><trkpt lat="45.7339155" lon="9.4171154"><ele>231.5</ele><time>2026-04-11T14:06:36.366Z</time></trkpt><trkpt lat="45.7338025" lon="9.4170652"><ele>230.75</ele><time>2026-04-11T14:06:37.368Z</time></trkpt><trkpt lat="45.7336885" lon="9.4170383"><ele>230.0</ele><time>2026-04-11T14:06:38.363Z</time></trkpt><trkpt lat="45.733559" lon="9.4170347"><ele>231.0</ele><time>2026-04-11T14:06:39.364Z</time></trkpt><trkpt lat="45.7334251" lon="9.4170499"><ele>232.0</ele><time>2026-04-11T14:06:40.371Z</time></trkpt><trkpt lat="45.7333007" lon="9.4170938"><ele>233.0</ele><time>2026-04-11T14:06:41.367Z</time></trkpt><trkpt lat="45.7331847" lon="9.4171646"><ele>234.0</ele><time>2026-04-11T14:06:42.368Z</time></trkpt><trkpt lat="45.7330768" lon="9.4172539"><ele>236.5</ele><time>2026-04-11T14:06:43.387Z</time></trkpt><trkpt lat="45.7329812" lon="9.4173601"><ele>239.0</ele><time>2026-04-11T14:06:44.367Z</time></trkpt><trkpt lat="45.7328982" lon="9.4174843"><ele>241.5</ele><time>2026-04-11T14:06:45.367Z</time></trkpt><trkpt lat="45.7328292" lon="9.4176222"><ele>244.0</ele><time>2026-04-11T14:06:46.372Z</time></trkpt><trkpt lat="45.7327739" lon="9.4177731"><ele>244.0</ele><time>2026-04-11T14:06:47.36Z</time></trkpt><trkpt lat="45.7327381" lon="9.4179406"><ele>244.0</ele><time>2026-04-11T14:06:48.365Z</time></trkpt><trkpt lat="45.7327117" lon="9.4181168"><ele>244.0</ele><time>2026-04-11T14:06:49.393Z</time></trkpt><trkpt lat="45.7326879" lon="9.4182995"><ele>244.0</ele><time>2026-04-11T14:06:50.362Z</time></trkpt><trkpt lat="45.7326688" lon="9.4184932"><ele>247.0</ele><time>2026-04-11T14:06:51.512Z</time></trkpt><trkpt lat="45.7326141" lon="9.4188793"><ele>250.0</ele><time>2026-04-11T14:06:53.363Z</time></trkpt><trkpt lat="45.7325702" lon="9.4190641"><ele>253.0</ele><time>2026-04-11T14:06:54.372Z</time></trkpt><trkpt lat="45.7325206" lon="9.4192356"><ele>253.0</ele><time>2026-04-11T14:06:55.366Z</time></trkpt><trkpt lat="45.7324624" lon="9.419393"><ele>253.0</ele><time>2026-04-11T14:06:56.367Z</time></trkpt><trkpt lat="45.7323966" lon="9.4195244"><ele>253.0</ele><time>2026-04-11T14:06:57.366Z</time></trkpt><trkpt lat="45.7323216" lon="9.4196407"><ele>253.0</ele><time>2026-04-11T14:06:58.374Z</time></trkpt><trkpt lat="45.7322347" lon="9.4197353"><ele>253.25</ele><time>2026-04-11T14:06:59.366Z</time></trkpt><trkpt lat="45.7321317" lon="9.4198023"><ele>253.5</ele><time>2026-04-11T14:07:00.373Z</time></trkpt><trkpt lat="45.7320167" lon="9.4198386"><ele>253.75</ele><time>2026-04-11T14:07:01.366Z</time></trkpt><trkpt lat="45.7318927" lon="9.4198412"><ele>254.0</ele><time>2026-04-11T14:07:02.369Z</time></trkpt><trkpt lat="45.7317696" lon="9.4198213"><ele>253.5</ele><time>2026-04-11T14:07:03.367Z</time></trkpt><trkpt lat="45.7316319" lon="9.4197752"><ele>253.0</ele><time>2026-04-11T14:07:04.365Z</time></trkpt><trkpt lat="45.7315042" lon="9.419686"><ele>252.5</ele><time>2026-04-11T14:07:05.365Z</time></trkpt><trkpt lat="45.7313703" lon="9.4195616"><ele>252.0</ele><time>2026-04-11T14:07:06.371Z</time></trkpt><trkpt lat="45.7312224" lon="9.4194115"><ele>252.0</ele><time>2026-04-11T14:07:07.366Z</time></trkpt><trkpt lat="45.731062" lon="9.4192529"><ele>252.0</ele><time>2026-04-11T14:07:08.369Z</time></trkpt><trkpt lat="45.7308994" lon="9.4190903"><ele>252.0</ele><time>2026-04-11T14:07:09.373Z</time></trkpt><trkpt lat="45.7307464" lon="9.4189351"><ele>253.66666666666669</ele><time>2026-04-11T14:07:10.375Z</time></trkpt><trkpt lat="45.730598" lon="9.4187807"><ele>255.33333333333334</ele><time>2026-04-11T14:07:11.369Z</time></trkpt><trkpt lat="45.7304578" lon="9.4186337"><ele>257.0</ele><time>2026-04-11T14:07:12.383Z</time></trkpt><trkpt lat="45.7303186" lon="9.4184986"><ele>259.0</ele><time>2026-04-11T14:07:13.369Z</time></trkpt><trkpt lat="45.7301867" lon="9.4183676"><ele>261.0</ele><time>2026-04-11T14:07:14.361Z</time></trkpt><trkpt lat="45.7300506" lon="9.4182423"><ele>263.0</ele><time>2026-04-11T14:07:15.373Z</time></trkpt><trkpt lat="45.7299118" lon="9.4181226"><ele>263.0</ele><time>2026-04-11T14:07:16.361Z</time></trkpt><trkpt lat="45.7297653" lon="9.4180094"><ele>263.0</ele><time>2026-04-11T14:07:17.37Z</time></trkpt><trkpt lat="45.729624" lon="9.4178849"><ele>263.0</ele><time>2026-04-11T14:07:18.361Z</time></trkpt><trkpt lat="45.729482" lon="9.4177524"><ele>264.0</ele><time>2026-04-11T14:07:19.369Z</time></trkpt><trkpt lat="45.7293432" lon="9.4176093"><ele>265.0</ele><time>2026-04-11T14:07:20.363Z</time></trkpt><trkpt lat="45.7291974" lon="9.4174428"><ele>266.0</ele><time>2026-04-11T14:07:21.369Z</time></trkpt><trkpt lat="45.7290537" lon="9.4172359"><ele>265.0</ele><time>2026-04-11T14:07:22.394Z</time></trkpt><trkpt lat="45.7289113" lon="9.4170035"><ele>264.0</ele><time>2026-04-11T14:07:23.362Z</time></trkpt><trkpt lat="45.7287703" lon="9.416784"><ele>263.0</ele><time>2026-04-11T14:07:24.361Z</time></trkpt><trkpt lat="45.728632" lon="9.4165816"><ele>264.33333333333337</ele><time>2026-04-11T14:07:25.389Z</time></trkpt><trkpt lat="45.7284674" lon="9.4163993"><ele>265.6666666666667</ele><time>2026-04-11T14:07:26.364Z</time></trkpt><trkpt lat="45.7282812" lon="9.4162187"><ele>267.0</ele><time>2026-04-11T14:07:27.37Z</time></trkpt><trkpt lat="45.7280901" lon="9.4160446"><ele>267.0</ele><time>2026-04-11T14:07:28.365Z</time></trkpt><trkpt lat="45.727892" lon="9.4158985"><ele>267.0</ele><time>2026-04-11T14:07:29.362Z</time></trkpt><trkpt lat="45.7277034" lon="9.4157831"><ele>267.0</ele><time>2026-04-11T14:07:30.368Z</time></trkpt><trkpt lat="45.7275234" lon="9.4156914"><ele>269.0</ele><time>2026-04-11T14:07:31.393Z</time></trkpt><trkpt lat="45.7273542" lon="9.4156224"><ele>271.0</ele><time>2026-04-11T14:07:32.363Z</time></trkpt><trkpt lat="45.7271961" lon="9.4155751"><ele>273.0</ele><time>2026-04-11T14:07:33.363Z</time></trkpt><trkpt lat="45.7270499" lon="9.4155394"><ele>273.0</ele><time>2026-04-11T14:07:34.385Z</time></trkpt><trkpt lat="45.7269085" lon="9.4155089"><ele>273.0</ele><time>2026-04-11T14:07:35.365Z</time></trkpt><trkpt lat="45.726768" lon="9.4154829"><ele>273.0</ele><time>2026-04-11T14:07:36.363Z</time></trkpt><trkpt lat="45.7266188" lon="9.415468"><ele>273.0</ele><time>2026-04-11T14:07:37.392Z</time></trkpt><trkpt lat="45.7264805" lon="9.4154645"><ele>274.5</ele><time>2026-04-11T14:07:38.368Z</time></trkpt><trkpt lat="45.7263532" lon="9.4154634"><ele>276.0</ele><time>2026-04-11T14:07:39.364Z</time></trkpt><trkpt lat="45.726222" lon="9.4154716"><ele>277.5</ele><time>2026-04-11T14:07:40.389Z</time></trkpt><trkpt lat="45.726099" lon="9.4154819"><ele>279.0</ele><time>2026-04-11T14:07:41.362Z</time></trkpt><trkpt lat="45.7259861" lon="9.4155022"><ele>279.2</ele><time>2026-04-11T14:07:42.371Z</time></trkpt><trkpt lat="45.7258845" lon="9.4155303"><ele>279.4</ele><time>2026-04-11T14:07:43.362Z</time></trkpt><trkpt lat="45.7257837" lon="9.4155564"><ele>279.6</ele><time>2026-04-11T14:07:44.365Z</time></trkpt><trkpt lat="45.7256901" lon="9.4155852"><ele>279.8</ele><time>2026-04-11T14:07:45.361Z</time></trkpt><trkpt lat="45.7256029" lon="9.4156238"><ele>280.0</ele><time>2026-04-11T14:07:46.388Z</time></trkpt><trkpt lat="45.7255107" lon="9.415663"><ele>280.0</ele><time>2026-04-11T14:07:47.392Z</time></trkpt><trkpt lat="45.7254243" lon="9.415691"><ele>280.0</ele><time>2026-04-11T14:07:48.389Z</time></trkpt><trkpt lat="45.7253545" lon="9.4157093"><ele>280.0</ele><time>2026-04-11T14:07:49.393Z</time></trkpt><trkpt lat="45.7252708" lon="9.4157346"><ele>280.0</ele><time>2026-04-11T14:07:51.365Z</time></trkpt><trkpt lat="45.7252008" lon="9.4157595"><ele>280.0</ele><time>2026-04-11T14:07:54.37Z</time></trkpt><trkpt lat="45.7251253" lon="9.4157723"><ele>280.0</ele><time>2026-04-11T14:07:57.364Z</time></trkpt><trkpt lat="45.7250419" lon="9.4157948"><ele>280.8</ele><time>2026-04-11T14:08:00.368Z</time></trkpt><trkpt lat="45.7249767" lon="9.4158016"><ele>281.6</ele><time>2026-04-11T14:08:03.365Z</time></trkpt><trkpt lat="45.724886" lon="9.4158226"><ele>282.4</ele><time>2026-04-11T14:08:05.362Z</time></trkpt><trkpt lat="45.7247936" lon="9.4158364"><ele>283.2</ele><time>2026-04-11T14:08:07.391Z</time></trkpt><trkpt lat="45.7246846" lon="9.4158546"><ele>284.0</ele><time>2026-04-11T14:08:09.364Z</time></trkpt><trkpt lat="45.7245843" lon="9.415797"><ele>284.0</ele><time>2026-04-11T14:08:11.361Z</time></trkpt><trkpt lat="45.7245151" lon="9.4157792"><ele>284.0</ele><time>2026-04-11T14:10:09.366Z</time></trkpt><trkpt lat="45.7245741" lon="9.4157387"><ele>284.0</ele><time>2026-04-11T14:10:15.367Z</time></trkpt><trkpt lat="45.7246398" lon="9.4157452"><ele>284.0</ele><time>2026-04-11T14:10:19.398Z</time></trkpt><trkpt lat="45.7247128" lon="9.4157549"><ele>284.0</ele><time>2026-04-11T14:10:25.357Z</time></trkpt><trkpt lat="45.7247828" lon="9.4157655"><ele>284.0</ele><time>2026-04-11T14:10:31.383Z</time></trkpt><trkpt lat="45.724771" lon="9.4156636"><ele>284.0</ele><time>2026-04-11T14:11:21.376Z</time></trkpt><trkpt lat="45.7246995" lon="9.4156778"><ele>284.0</ele><time>2026-04-11T14:12:59.366Z</time></trkpt><trkpt lat="45.7247541" lon="9.4157387"><ele>284.0</ele><time>2026-04-11T14:15:48.368Z</time></trkpt><trkpt lat="45.7246941" lon="9.4157693"><ele>284.0</ele><time>2026-04-11T14:16:22.357Z</time></trkpt><trkpt lat="45.7246263" lon="9.4157036"><ele>284.0</ele><time>2026-04-11T14:16:25.368Z</time></trkpt><trkpt lat="45.7245718" lon="9.4156538"><ele>284.0</ele><time>2026-04-11T14:16:28.378Z</time></trkpt><trkpt lat="45.7246643" lon="9.4156953"><ele>284.0</ele><time>2026-04-11T14:24:35.376Z</time></trkpt><trkpt lat="45.7245774" lon="9.4156997"><ele>284.0</ele><time>2026-04-11T14:24:55.361Z</time></trkpt><trkpt lat="45.7245123" lon="9.4157012"><ele>284.0</ele><time>2026-04-11T14:26:08.315Z</time></trkpt><trkpt lat="45.7244098" lon="9.4156696"><ele>284.0</ele><time>2026-04-11T14:29:21.37Z</time></trkpt><trkpt lat="45.7243493" lon="9.4156215"><ele>284.0</ele><time>2026-04-11T14:29:22.369Z</time></trkpt><trkpt lat="45.7242891" lon="9.4155623"><ele>284.0</ele><time>2026-04-11T14:29:23.363Z</time></trkpt><trkpt lat="45.7242367" lon="9.4155042"><ele>284.0</ele><time>2026-04-11T14:29:24.362Z</time></trkpt><trkpt lat="45.7241432" lon="9.4153887"><ele>284.0</ele><time>2026-04-11T14:29:26.364Z</time></trkpt><trkpt lat="45.7240815" lon="9.41533"><ele>284.0</ele><time>2026-04-11T14:29:27.366Z</time></trkpt><trkpt lat="45.7240171" lon="9.4152667"><ele>284.0</ele><time>2026-04-11T14:29:28.364Z</time></trkpt><trkpt lat="45.7239541" lon="9.4151937"><ele>284.0</ele><time>2026-04-11T14:29:29.369Z</time></trkpt><trkpt lat="45.7238952" lon="9.4151226"><ele>284.0</ele><time>2026-04-11T14:29:30.364Z</time></trkpt><trkpt lat="45.7238318" lon="9.4150585"><ele>284.0</ele><time>2026-04-11T14:29:31.369Z</time></trkpt><trkpt lat="45.7237707" lon="9.4149972"><ele>284.0</ele><time>2026-04-11T14:29:32.366Z</time></trkpt><trkpt lat="45.7237109" lon="9.4149366"><ele>284.0</ele><time>2026-04-11T14:29:33.37Z</time></trkpt><trkpt lat="45.7236494" lon="9.4148734"><ele>284.0</ele><time>2026-04-11T14:29:34.365Z</time></trkpt><trkpt lat="45.723586" lon="9.4148064"><ele>284.0</ele><time>2026-04-11T14:29:35.366Z</time></trkpt><trkpt lat="45.7235201" lon="9.4147412"><ele>284.0</ele><time>2026-04-11T14:29:36.36Z</time></trkpt><trkpt lat="45.7234527" lon="9.4146707"><ele>284.0</ele><time>2026-04-11T14:29:37.368Z</time></trkpt><trkpt lat="45.7233831" lon="9.4146"><ele>284.4</ele><time>2026-04-11T14:29:38.368Z</time></trkpt><trkpt lat="45.7233075" lon="9.4145271"><ele>284.79999999999995</ele><time>2026-04-11T14:29:39.363Z</time></trkpt><trkpt lat="45.7232352" lon="9.4144522"><ele>285.20000000000005</ele><time>2026-04-11T14:29:40.368Z</time></trkpt><trkpt lat="45.7231625" lon="9.4143756"><ele>285.6</ele><time>2026-04-11T14:29:41.364Z</time></trkpt><trkpt lat="45.7230897" lon="9.4142977"><ele>286.0</ele><time>2026-04-11T14:29:42.378Z</time></trkpt><trkpt lat="45.7230133" lon="9.4142112"><ele>286.0</ele><time>2026-04-11T14:29:43.363Z</time></trkpt><trkpt lat="45.722938" lon="9.4141328"><ele>286.0</ele><time>2026-04-11T14:29:44.367Z</time></trkpt><trkpt lat="45.7228639" lon="9.4140603"><ele>286.0</ele><time>2026-04-11T14:29:45.364Z</time></trkpt><trkpt lat="45.7227898" lon="9.4139822"><ele>286.0</ele><time>2026-04-11T14:29:46.362Z</time></trkpt><trkpt lat="45.7227154" lon="9.4139072"><ele>286.0</ele><time>2026-04-11T14:29:47.361Z</time></trkpt><trkpt lat="45.7226435" lon="9.4138316"><ele>286.3333333333333</ele><time>2026-04-11T14:29:48.37Z</time></trkpt><trkpt lat="45.7225732" lon="9.413757"><ele>286.66666666666663</ele><time>2026-04-11T14:29:49.362Z</time></trkpt><trkpt lat="45.7225062" lon="9.4136883"><ele>287.0</ele><time>2026-04-11T14:29:50.371Z</time></trkpt><trkpt lat="45.7224402" lon="9.413623"><ele>287.3333333333333</ele><time>2026-04-11T14:29:51.368Z</time></trkpt><trkpt lat="45.7223737" lon="9.4135561"><ele>287.6666666666667</ele><time>2026-04-11T14:29:52.366Z</time></trkpt><trkpt lat="45.722311" lon="9.4134875"><ele>288.0</ele><time>2026-04-11T14:29:53.371Z</time></trkpt><trkpt lat="45.7222471" lon="9.4134213"><ele>288.0</ele><time>2026-04-11T14:29:54.37Z</time></trkpt><trkpt lat="45.7221818" lon="9.4133535"><ele>288.0</ele><time>2026-04-11T14:29:55.369Z</time></trkpt><trkpt lat="45.7221139" lon="9.4132885"><ele>288.0</ele><time>2026-04-11T14:29:56.359Z</time></trkpt><trkpt lat="45.7220412" lon="9.4132167"><ele>288.0</ele><time>2026-04-11T14:29:57.361Z</time></trkpt><trkpt lat="45.7219481" lon="9.4131307"><ele>288.0</ele><time>2026-04-11T14:29:58.371Z</time></trkpt><trkpt lat="45.7218508" lon="9.4130311"><ele>288.4</ele><time>2026-04-11T14:29:59.36Z</time></trkpt><trkpt lat="45.7217679" lon="9.412944"><ele>288.8</ele><time>2026-04-11T14:30:00.361Z</time></trkpt><trkpt lat="45.7216845" lon="9.4128585"><ele>289.2</ele><time>2026-04-11T14:30:01.359Z</time></trkpt><trkpt lat="45.7216031" lon="9.4127663"><ele>289.6</ele><time>2026-04-11T14:30:02.373Z</time></trkpt><trkpt lat="45.721521" lon="9.4126722"><ele>290.0</ele><time>2026-04-11T14:30:03.36Z</time></trkpt><trkpt lat="45.72144" lon="9.4125875"><ele>290.0</ele><time>2026-04-11T14:30:04.368Z</time></trkpt><trkpt lat="45.7213693" lon="9.4125134"><ele>290.0</ele><time>2026-04-11T14:30:05.36Z</time></trkpt><trkpt lat="45.7212916" lon="9.4124358"><ele>290.0</ele><time>2026-04-11T14:30:06.37Z</time></trkpt><trkpt lat="45.7211934" lon="9.4123378"><ele>290.0</ele><time>2026-04-11T14:30:07.36Z</time></trkpt><trkpt lat="45.7210695" lon="9.412207"><ele>292.0</ele><time>2026-04-11T14:30:08.368Z</time></trkpt><trkpt lat="45.7209397" lon="9.412055"><ele>294.0</ele><time>2026-04-11T14:30:09.387Z</time></trkpt><trkpt lat="45.7207883" lon="9.4118934"><ele>296.0</ele><time>2026-04-11T14:30:10.388Z</time></trkpt><trkpt lat="45.7206104" lon="9.4117052"><ele>296.0</ele><time>2026-04-11T14:30:11.394Z</time></trkpt><trkpt lat="45.7204327" lon="9.4115126"><ele>296.0</ele><time>2026-04-11T14:30:12.36Z</time></trkpt><trkpt lat="45.7202387" lon="9.411307"><ele>296.0</ele><time>2026-04-11T14:30:13.398Z</time></trkpt><trkpt lat="45.7200624" lon="9.4111146"><ele>296.0</ele><time>2026-04-11T14:30:14.369Z</time></trkpt><trkpt lat="45.7198882" lon="9.4109356"><ele>296.0</ele><time>2026-04-11T14:30:15.384Z</time></trkpt><trkpt lat="45.7197273" lon="9.4107704"><ele>296.0</ele><time>2026-04-11T14:30:16.385Z</time></trkpt><trkpt lat="45.7195781" lon="9.4106094"><ele>296.0</ele><time>2026-04-11T14:30:17.36Z</time></trkpt><trkpt lat="45.719438" lon="9.4104642"><ele>296.0</ele><time>2026-04-11T14:30:18.385Z</time></trkpt><trkpt lat="45.7193053" lon="9.410321"><ele>297.0</ele><time>2026-04-11T14:30:19.386Z</time></trkpt><trkpt lat="45.7191653" lon="9.4101748"><ele>298.0</ele><time>2026-04-11T14:30:20.364Z</time></trkpt><trkpt lat="45.7190145" lon="9.410019"><ele>299.0</ele><time>2026-04-11T14:30:21.385Z</time></trkpt><trkpt lat="45.71885" lon="9.4098437"><ele>299.0</ele><time>2026-04-11T14:30:22.369Z</time></trkpt><trkpt lat="45.7186859" lon="9.4096649"><ele>299.0</ele><time>2026-04-11T14:30:23.363Z</time></trkpt><trkpt lat="45.7185266" lon="9.4094963"><ele>299.0</ele><time>2026-04-11T14:30:24.385Z</time></trkpt><trkpt lat="45.7183651" lon="9.4093311"><ele>298.6666666666667</ele><time>2026-04-11T14:30:25.39Z</time></trkpt><trkpt lat="45.7182158" lon="9.4091774"><ele>298.3333333333333</ele><time>2026-04-11T14:30:26.385Z</time></trkpt><trkpt lat="45.7180805" lon="9.4090387"><ele>298.0</ele><time>2026-04-11T14:30:27.389Z</time></trkpt><trkpt lat="45.7179597" lon="9.4089156"><ele>297.8</ele><time>2026-04-11T14:30:28.394Z</time></trkpt><trkpt lat="45.7178542" lon="9.4088076"><ele>297.6</ele><time>2026-04-11T14:30:29.381Z</time></trkpt><trkpt lat="45.7177713" lon="9.408721"><ele>297.4</ele><time>2026-04-11T14:30:30.392Z</time></trkpt><trkpt lat="45.717696" lon="9.4086466"><ele>297.2</ele><time>2026-04-11T14:30:31.392Z</time></trkpt><trkpt lat="45.7176297" lon="9.4085796"><ele>297.0</ele><time>2026-04-11T14:30:32.367Z</time></trkpt><trkpt lat="45.7175799" lon="9.4085106"><ele>297.0</ele><time>2026-04-11T14:30:33.392Z</time></trkpt><trkpt lat="45.7175402" lon="9.4084306"><ele>297.0</ele><time>2026-04-11T14:30:34.394Z</time></trkpt><trkpt lat="45.7175099" lon="9.4083345"><ele>297.0</ele><time>2026-04-11T14:30:35.396Z</time></trkpt><trkpt lat="45.7174875" lon="9.4082374"><ele>297.0</ele><time>2026-04-11T14:30:36.393Z</time></trkpt><trkpt lat="45.7174563" lon="9.4081532"><ele>297.0</ele><time>2026-04-11T14:30:37.414Z</time></trkpt><trkpt lat="45.7173453" lon="9.4080992"><ele>297.0</ele><time>2026-04-11T14:30:39.363Z</time></trkpt><trkpt lat="45.7172741" lon="9.4081372"><ele>297.0</ele><time>2026-04-11T14:30:40.389Z</time></trkpt><trkpt lat="45.7171921" lon="9.4081716"><ele>297.0</ele><time>2026-04-11T14:30:41.371Z</time></trkpt><trkpt lat="45.7171129" lon="9.4081688"><ele>297.0</ele><time>2026-04-11T14:30:42.364Z</time></trkpt><trkpt lat="45.7170224" lon="9.4081538"><ele>297.0</ele><time>2026-04-11T14:30:43.359Z</time></trkpt><trkpt lat="45.7169296" lon="9.4081318"><ele>297.0</ele><time>2026-04-11T14:30:44.394Z</time></trkpt><trkpt lat="45.7168323" lon="9.4080992"><ele>297.2</ele><time>2026-04-11T14:30:45.366Z</time></trkpt><trkpt lat="45.716742" lon="9.4080679"><ele>297.4</ele><time>2026-04-11T14:30:46.385Z</time></trkpt><trkpt lat="45.7166356" lon="9.4080344"><ele>297.6</ele><time>2026-04-11T14:30:47.367Z</time></trkpt><trkpt lat="45.7165253" lon="9.4079946"><ele>297.8</ele><time>2026-04-11T14:30:48.39Z</time></trkpt><trkpt lat="45.7163969" lon="9.4079588"><ele>298.0</ele><time>2026-04-11T14:30:49.364Z</time></trkpt><trkpt lat="45.7162531" lon="9.4079124"><ele>298.0</ele><time>2026-04-11T14:30:50.394Z</time></trkpt><trkpt lat="45.716086" lon="9.4078616"><ele>298.0</ele><time>2026-04-11T14:30:51.387Z</time></trkpt><trkpt lat="45.7159014" lon="9.4078089"><ele>298.0</ele><time>2026-04-11T14:30:52.375Z</time></trkpt><trkpt lat="45.7157196" lon="9.4077417"><ele>298.66666666666663</ele><time>2026-04-11T14:30:53.373Z</time></trkpt><trkpt lat="45.7155325" lon="9.4076636"><ele>299.3333333333333</ele><time>2026-04-11T14:30:54.387Z</time></trkpt><trkpt lat="45.7153364" lon="9.4075813"><ele>300.0</ele><time>2026-04-11T14:30:55.39Z</time></trkpt><trkpt lat="45.7151182" lon="9.4074884"><ele>300.3333333333333</ele><time>2026-04-11T14:30:56.385Z</time></trkpt><trkpt lat="45.7149152" lon="9.4073954"><ele>300.66666666666663</ele><time>2026-04-11T14:30:57.451Z</time></trkpt><trkpt lat="45.7147258" lon="9.4072947"><ele>301.0</ele><time>2026-04-11T14:30:58.365Z</time></trkpt><trkpt lat="45.7145456" lon="9.4072035"><ele>300.66666666666663</ele><time>2026-04-11T14:30:59.366Z</time></trkpt><trkpt lat="45.7143742" lon="9.4071219"><ele>300.3333333333333</ele><time>2026-04-11T14:31:00.401Z</time></trkpt><trkpt lat="45.7142142" lon="9.4070468"><ele>300.0</ele><time>2026-04-11T14:31:01.369Z</time></trkpt><trkpt lat="45.7140601" lon="9.4069748"><ele>300.0</ele><time>2026-04-11T14:31:02.369Z</time></trkpt><trkpt lat="45.7139146" lon="9.4069095"><ele>300.0</ele><time>2026-04-11T14:31:03.366Z</time></trkpt><trkpt lat="45.7137855" lon="9.4068405"><ele>300.0</ele><time>2026-04-11T14:31:04.396Z</time></trkpt><trkpt lat="45.7136661" lon="9.4067761"><ele>300.0</ele><time>2026-04-11T14:31:05.385Z</time></trkpt><trkpt lat="45.7135556" lon="9.4067213"><ele>300.75</ele><time>2026-04-11T14:31:06.405Z</time></trkpt><trkpt lat="45.7134525" lon="9.40667"><ele>301.5</ele><time>2026-04-11T14:31:07.39Z</time></trkpt><trkpt lat="45.7133464" lon="9.4066162"><ele>302.25</ele><time>2026-04-11T14:31:08.368Z</time></trkpt><trkpt lat="45.7132395" lon="9.4065574"><ele>303.0</ele><time>2026-04-11T14:31:09.368Z</time></trkpt><trkpt lat="45.713125" lon="9.4064938"><ele>303.0</ele><time>2026-04-11T14:31:10.404Z</time></trkpt><trkpt lat="45.713008" lon="9.406431"><ele>303.0</ele><time>2026-04-11T14:31:11.373Z</time></trkpt><trkpt lat="45.7128869" lon="9.4063742"><ele>303.0</ele><time>2026-04-11T14:31:12.373Z</time></trkpt><trkpt lat="45.7127645" lon="9.4063192"><ele>303.0</ele><time>2026-04-11T14:31:13.368Z</time></trkpt><trkpt lat="45.7126441" lon="9.4062652"><ele>302.5</ele><time>2026-04-11T14:31:14.4Z</time></trkpt><trkpt lat="45.7125272" lon="9.4062208"><ele>302.0</ele><time>2026-04-11T14:31:15.387Z</time></trkpt><trkpt lat="45.7124057" lon="9.4061764"><ele>301.5</ele><time>2026-04-11T14:31:16.385Z</time></trkpt><trkpt lat="45.712277" lon="9.406146"><ele>301.0</ele><time>2026-04-11T14:31:17.392Z</time></trkpt><trkpt lat="45.7121615" lon="9.4061224"><ele>301.0</ele><time>2026-04-11T14:31:18.361Z</time></trkpt><trkpt lat="45.7120546" lon="9.4061156"><ele>301.0</ele><time>2026-04-11T14:31:19.391Z</time></trkpt><trkpt lat="45.7119533" lon="9.4061135"><ele>301.0</ele><time>2026-04-11T14:31:20.392Z</time></trkpt><trkpt lat="45.7118588" lon="9.4061133"><ele>301.0</ele><time>2026-04-11T14:31:21.39Z</time></trkpt><trkpt lat="45.7117646" lon="9.4061172"><ele>301.0</ele><time>2026-04-11T14:31:22.375Z</time></trkpt><trkpt lat="45.7116775" lon="9.4061269"><ele>301.5</ele><time>2026-04-11T14:31:23.361Z</time></trkpt><trkpt lat="45.7116019" lon="9.4061393"><ele>302.0</ele><time>2026-04-11T14:31:24.385Z</time></trkpt><trkpt lat="45.7115311" lon="9.4061437"><ele>302.5</ele><time>2026-04-11T14:31:25.368Z</time></trkpt><trkpt lat="45.7114519" lon="9.4061423"><ele>303.0</ele><time>2026-04-11T14:31:26.362Z</time></trkpt><trkpt lat="45.7113773" lon="9.4061262"><ele>303.5</ele><time>2026-04-11T14:31:27.369Z</time></trkpt><trkpt lat="45.7113024" lon="9.4061091"><ele>304.0</ele><time>2026-04-11T14:31:28.387Z</time></trkpt><trkpt lat="45.7112247" lon="9.4060934"><ele>304.0</ele><time>2026-04-11T14:31:29.371Z</time></trkpt><trkpt lat="45.7111382" lon="9.4061144"><ele>304.0</ele><time>2026-04-11T14:31:30.382Z</time></trkpt><trkpt lat="45.7110346" lon="9.4061902"><ele>304.0</ele><time>2026-04-11T14:31:31.368Z</time></trkpt><trkpt lat="45.7109257" lon="9.4062861"><ele>304.0</ele><time>2026-04-11T14:31:32.368Z</time></trkpt><trkpt lat="45.7108149" lon="9.4063795"><ele>305.0</ele><time>2026-04-11T14:31:33.371Z</time></trkpt><trkpt lat="45.7107118" lon="9.4064637"><ele>306.0</ele><time>2026-04-11T14:31:34.389Z</time></trkpt><trkpt lat="45.7106166" lon="9.4065414"><ele>307.0</ele><time>2026-04-11T14:31:35.388Z</time></trkpt><trkpt lat="45.7105296" lon="9.4066117"><ele>308.0</ele><time>2026-04-11T14:31:36.389Z</time></trkpt><trkpt lat="45.7104446" lon="9.4066816"><ele>309.0</ele><time>2026-04-11T14:31:37.391Z</time></trkpt><trkpt lat="45.7103652" lon="9.4067557"><ele>309.0</ele><time>2026-04-11T14:31:38.358Z</time></trkpt><trkpt lat="45.7102871" lon="9.4068164"><ele>309.0</ele><time>2026-04-11T14:31:39.369Z</time></trkpt><trkpt lat="45.7102172" lon="9.4068708"><ele>309.0</ele><time>2026-04-11T14:31:40.38Z</time></trkpt><trkpt lat="45.7101491" lon="9.4069233"><ele>309.0</ele><time>2026-04-11T14:31:41.391Z</time></trkpt><trkpt lat="45.7100863" lon="9.4069688"><ele>309.0</ele><time>2026-04-11T14:31:42.379Z</time></trkpt><trkpt lat="45.7100265" lon="9.4070089"><ele>309.0</ele><time>2026-04-11T14:31:43.359Z</time></trkpt><trkpt lat="45.7099667" lon="9.4070561"><ele>309.2</ele><time>2026-04-11T14:31:44.367Z</time></trkpt><trkpt lat="45.709858" lon="9.407149"><ele>309.4</ele><time>2026-04-11T14:31:46.388Z</time></trkpt><trkpt lat="45.7097493" lon="9.4072322"><ele>309.6</ele><time>2026-04-11T14:31:48.368Z</time></trkpt><trkpt lat="45.709653" lon="9.4073074"><ele>309.8</ele><time>2026-04-11T14:31:50.37Z</time></trkpt><trkpt lat="45.709575" lon="9.4073695"><ele>310.0</ele><time>2026-04-11T14:31:52.375Z</time></trkpt><trkpt lat="45.7095045" lon="9.4074319"><ele>310.0</ele><time>2026-04-11T14:31:54.385Z</time></trkpt><trkpt lat="45.7094275" lon="9.4074803"><ele>310.0</ele><time>2026-04-11T14:31:56.356Z</time></trkpt><trkpt lat="45.7093241" lon="9.4075626"><ele>310.0</ele><time>2026-04-11T14:31:58.381Z</time></trkpt><trkpt lat="45.7092194" lon="9.4076325"><ele>310.0</ele><time>2026-04-11T14:32:00.367Z</time></trkpt><trkpt lat="45.7091554" lon="9.4076903"><ele>310.0</ele><time>2026-04-11T14:32:02.375Z</time></trkpt><trkpt lat="45.709097" lon="9.4077521"><ele>309.4</ele><time>2026-04-11T14:32:04.397Z</time></trkpt><trkpt lat="45.7090085" lon="9.4078352"><ele>308.8</ele><time>2026-04-11T14:32:06.37Z</time></trkpt><trkpt lat="45.7089473" lon="9.4078959"><ele>308.2</ele><time>2026-04-11T14:32:07.387Z</time></trkpt><trkpt lat="45.7088725" lon="9.4079575"><ele>307.6</ele><time>2026-04-11T14:32:08.367Z</time></trkpt><trkpt lat="45.7087807" lon="9.4080296"><ele>307.0</ele><time>2026-04-11T14:32:09.362Z</time></trkpt><trkpt lat="45.7086759" lon="9.4081085"><ele>306.8</ele><time>2026-04-11T14:32:10.37Z</time></trkpt><trkpt lat="45.708582" lon="9.4081797"><ele>306.6</ele><time>2026-04-11T14:32:11.391Z</time></trkpt><trkpt lat="45.7084969" lon="9.4082422"><ele>306.40000000000003</ele><time>2026-04-11T14:32:12.375Z</time></trkpt><trkpt lat="45.7084068" lon="9.4083138"><ele>306.2</ele><time>2026-04-11T14:32:13.364Z</time></trkpt><trkpt lat="45.7083143" lon="9.4083912"><ele>306.0</ele><time>2026-04-11T14:32:14.386Z</time></trkpt><trkpt lat="45.7082227" lon="9.4084669"><ele>305.8</ele><time>2026-04-11T14:32:15.385Z</time></trkpt><trkpt lat="45.7081288" lon="9.4085417"><ele>305.6</ele><time>2026-04-11T14:32:16.365Z</time></trkpt><trkpt lat="45.7080337" lon="9.4086175"><ele>305.4</ele><time>2026-04-11T14:32:17.387Z</time></trkpt><trkpt lat="45.7079401" lon="9.4086936"><ele>305.2</ele><time>2026-04-11T14:32:18.389Z</time></trkpt><trkpt lat="45.7078425" lon="9.4087734"><ele>305.0</ele><time>2026-04-11T14:32:19.387Z</time></trkpt><trkpt lat="45.7077487" lon="9.4088478"><ele>304.2</ele><time>2026-04-11T14:32:20.39Z</time></trkpt><trkpt lat="45.70766" lon="9.4089164"><ele>303.4</ele><time>2026-04-11T14:32:21.39Z</time></trkpt><trkpt lat="45.7075681" lon="9.4089881"><ele>302.6</ele><time>2026-04-11T14:32:22.373Z</time></trkpt><trkpt lat="45.7074759" lon="9.4090742"><ele>301.8</ele><time>2026-04-11T14:32:23.363Z</time></trkpt><trkpt lat="45.7073788" lon="9.4091481"><ele>301.0</ele><time>2026-04-11T14:32:24.364Z</time></trkpt><trkpt lat="45.7072841" lon="9.409226"><ele>301.0</ele><time>2026-04-11T14:32:25.392Z</time></trkpt><trkpt lat="45.7071924" lon="9.4092988"><ele>301.0</ele><time>2026-04-11T14:32:26.394Z</time></trkpt><trkpt lat="45.7071026" lon="9.4093716"><ele>301.0</ele><time>2026-04-11T14:32:27.389Z</time></trkpt><trkpt lat="45.707014" lon="9.4094441"><ele>301.0</ele><time>2026-04-11T14:32:28.37Z</time></trkpt><trkpt lat="45.7069283" lon="9.4095139"><ele>301.0</ele><time>2026-04-11T14:32:29.362Z</time></trkpt><trkpt lat="45.706842" lon="9.4095847"><ele>300.6</ele><time>2026-04-11T14:32:30.39Z</time></trkpt><trkpt lat="45.7067648" lon="9.4096463"><ele>300.20000000000005</ele><time>2026-04-11T14:32:31.393Z</time></trkpt><trkpt lat="45.7066901" lon="9.4097079"><ele>299.79999999999995</ele><time>2026-04-11T14:32:32.373Z</time></trkpt><trkpt lat="45.7066278" lon="9.4097597"><ele>299.4</ele><time>2026-04-11T14:32:33.364Z</time></trkpt><trkpt lat="45.7065427" lon="9.409828"><ele>299.0</ele><time>2026-04-11T14:32:35.39Z</time></trkpt><trkpt lat="45.7064327" lon="9.4098978"><ele>299.0</ele><time>2026-04-11T14:32:37.391Z</time></trkpt><trkpt lat="45.7063583" lon="9.4099517"><ele>299.0</ele><time>2026-04-11T14:32:38.392Z</time></trkpt><trkpt lat="45.7062757" lon="9.4100148"><ele>299.0</ele><time>2026-04-11T14:32:39.387Z</time></trkpt><trkpt lat="45.7061912" lon="9.4100818"><ele>299.0</ele><time>2026-04-11T14:32:40.364Z</time></trkpt><trkpt lat="45.706099" lon="9.4101548"><ele>299.0</ele><time>2026-04-11T14:32:41.392Z</time></trkpt><trkpt lat="45.7060118" lon="9.4102276"><ele>298.2</ele><time>2026-04-11T14:32:42.377Z</time></trkpt><trkpt lat="45.7059272" lon="9.4103007"><ele>297.4</ele><time>2026-04-11T14:32:43.362Z</time></trkpt><trkpt lat="45.7058423" lon="9.4103683"><ele>296.6</ele><time>2026-04-11T14:32:44.368Z</time></trkpt><trkpt lat="45.7057465" lon="9.4104443"><ele>295.8</ele><time>2026-04-11T14:32:45.392Z</time></trkpt><trkpt lat="45.7056482" lon="9.4105209"><ele>295.0</ele><time>2026-04-11T14:32:46.368Z</time></trkpt><trkpt lat="45.7055381" lon="9.4106045"><ele>295.0</ele><time>2026-04-11T14:32:47.387Z</time></trkpt><trkpt lat="45.705422" lon="9.410701"><ele>295.0</ele><time>2026-04-11T14:32:48.362Z</time></trkpt><trkpt lat="45.7053142" lon="9.4107894"><ele>295.0</ele><time>2026-04-11T14:32:49.391Z</time></trkpt><trkpt lat="45.7052093" lon="9.4108761"><ele>295.0</ele><time>2026-04-11T14:32:50.369Z</time></trkpt><trkpt lat="45.7051055" lon="9.4109624"><ele>293.75</ele><time>2026-04-11T14:32:51.392Z</time></trkpt><trkpt lat="45.7050084" lon="9.4110358"><ele>292.5</ele><time>2026-04-11T14:32:52.375Z</time></trkpt><trkpt lat="45.704907" lon="9.411106"><ele>291.25</ele><time>2026-04-11T14:32:53.391Z</time></trkpt><trkpt lat="45.7048032" lon="9.4111816"><ele>290.0</ele><time>2026-04-11T14:32:54.379Z</time></trkpt><trkpt lat="45.7046948" lon="9.4112512"><ele>290.0</ele><time>2026-04-11T14:32:55.382Z</time></trkpt><trkpt lat="45.7045793" lon="9.4113182"><ele>290.0</ele><time>2026-04-11T14:32:56.363Z</time></trkpt><trkpt lat="45.7044585" lon="9.4113777"><ele>290.0</ele><time>2026-04-11T14:32:57.433Z</time></trkpt><trkpt lat="45.7043369" lon="9.4114223"><ele>290.0</ele><time>2026-04-11T14:32:58.37Z</time></trkpt><trkpt lat="45.7042106" lon="9.4114601"><ele>289.25</ele><time>2026-04-11T14:32:59.39Z</time></trkpt><trkpt lat="45.7040847" lon="9.411485"><ele>288.5</ele><time>2026-04-11T14:33:00.363Z</time></trkpt><trkpt lat="45.7039562" lon="9.4115056"><ele>287.75</ele><time>2026-04-11T14:33:01.404Z</time></trkpt><trkpt lat="45.7038309" lon="9.4115126"><ele>287.0</ele><time>2026-04-11T14:33:02.371Z</time></trkpt><trkpt lat="45.703705" lon="9.4115102"><ele>287.75</ele><time>2026-04-11T14:33:03.386Z</time></trkpt><trkpt lat="45.703579" lon="9.4114965"><ele>288.5</ele><time>2026-04-11T14:33:04.362Z</time></trkpt><trkpt lat="45.7034523" lon="9.4114689"><ele>289.25</ele><time>2026-04-11T14:33:05.395Z</time></trkpt><trkpt lat="45.7033193" lon="9.411433"><ele>290.0</ele><time>2026-04-11T14:33:06.383Z</time></trkpt><trkpt lat="45.7031717" lon="9.4113853"><ele>289.33333333333337</ele><time>2026-04-11T14:33:07.392Z</time></trkpt><trkpt lat="45.7030158" lon="9.4113119"><ele>288.6666666666667</ele><time>2026-04-11T14:33:08.367Z</time></trkpt><trkpt lat="45.7028743" lon="9.4112412"><ele>288.0</ele><time>2026-04-11T14:33:09.392Z</time></trkpt><trkpt lat="45.7027366" lon="9.4111824"><ele>288.0</ele><time>2026-04-11T14:33:10.366Z</time></trkpt><trkpt lat="45.7026052" lon="9.411124"><ele>288.0</ele><time>2026-04-11T14:33:11.387Z</time></trkpt><trkpt lat="45.7024826" lon="9.4110669"><ele>288.0</ele><time>2026-04-11T14:33:12.369Z</time></trkpt><trkpt lat="45.7023614" lon="9.4110091"><ele>288.0</ele><time>2026-04-11T14:33:13.361Z</time></trkpt><trkpt lat="45.7022504" lon="9.4109542"><ele>288.0</ele><time>2026-04-11T14:33:14.369Z</time></trkpt><trkpt lat="45.7021437" lon="9.4108942"><ele>288.0</ele><time>2026-04-11T14:33:15.384Z</time></trkpt><trkpt lat="45.702039" lon="9.410831"><ele>288.0</ele><time>2026-04-11T14:33:16.356Z</time></trkpt><trkpt lat="45.7019344" lon="9.410761"><ele>288.0</ele><time>2026-04-11T14:33:17.365Z</time></trkpt><trkpt lat="45.7018308" lon="9.4106837"><ele>288.25</ele><time>2026-04-11T14:33:18.365Z</time></trkpt><trkpt lat="45.7017282" lon="9.4106023"><ele>288.5</ele><time>2026-04-11T14:33:19.365Z</time></trkpt><trkpt lat="45.7016279" lon="9.4105094"><ele>288.75</ele><time>2026-04-11T14:33:20.359Z</time></trkpt><trkpt lat="45.7015274" lon="9.4104032"><ele>289.0</ele><time>2026-04-11T14:33:21.365Z</time></trkpt><trkpt lat="45.7014283" lon="9.410292"><ele>289.0</ele><time>2026-04-11T14:33:22.37Z</time></trkpt><trkpt lat="45.7013316" lon="9.4101802"><ele>289.0</ele><time>2026-04-11T14:33:23.364Z</time></trkpt><trkpt lat="45.701233" lon="9.4100697"><ele>289.0</ele><time>2026-04-11T14:33:24.389Z</time></trkpt><trkpt lat="45.7011283" lon="9.4099532"><ele>289.0</ele><time>2026-04-11T14:33:25.364Z</time></trkpt><trkpt lat="45.7010204" lon="9.4098301"><ele>289.0</ele><time>2026-04-11T14:33:26.38Z</time></trkpt><trkpt lat="45.7009123" lon="9.4097012"><ele>289.0</ele><time>2026-04-11T14:33:27.364Z</time></trkpt><trkpt lat="45.7008019" lon="9.4095687"><ele>289.0</ele><time>2026-04-11T14:33:28.384Z</time></trkpt><trkpt lat="45.7006806" lon="9.4094278"><ele>289.0</ele><time>2026-04-11T14:33:29.385Z</time></trkpt><trkpt lat="45.7005648" lon="9.4092838"><ele>288.5</ele><time>2026-04-11T14:33:30.382Z</time></trkpt><trkpt lat="45.7004569" lon="9.4091564"><ele>288.0</ele><time>2026-04-11T14:33:31.366Z</time></trkpt><trkpt lat="45.7003578" lon="9.409042"><ele>287.5</ele><time>2026-04-11T14:33:32.362Z</time></trkpt><trkpt lat="45.700265" lon="9.4089311"><ele>287.0</ele><time>2026-04-11T14:33:33.357Z</time></trkpt><trkpt lat="45.7001721" lon="9.4088211"><ele>287.0</ele><time>2026-04-11T14:33:34.383Z</time></trkpt><trkpt lat="45.7000818" lon="9.4087112"><ele>287.0</ele><time>2026-04-11T14:33:35.362Z</time></trkpt><trkpt lat="45.699982" lon="9.408591"><ele>287.0</ele><time>2026-04-11T14:33:36.361Z</time></trkpt><trkpt lat="45.6998885" lon="9.4084657"><ele>287.0</ele><time>2026-04-11T14:33:37.389Z</time></trkpt><trkpt lat="45.699801" lon="9.4083461"><ele>287.0</ele><time>2026-04-11T14:33:38.362Z</time></trkpt><trkpt lat="45.6997167" lon="9.4082283"><ele>287.0</ele><time>2026-04-11T14:33:39.367Z</time></trkpt><trkpt lat="45.6996422" lon="9.4081247"><ele>287.0</ele><time>2026-04-11T14:33:40.386Z</time></trkpt><trkpt lat="45.6995721" lon="9.4080267"><ele>287.0</ele><time>2026-04-11T14:33:41.365Z</time></trkpt><trkpt lat="45.6995093" lon="9.4079339"><ele>287.0</ele><time>2026-04-11T14:33:42.38Z</time></trkpt><trkpt lat="45.6994475" lon="9.4078494"><ele>286.57142857142856</ele><time>2026-04-11T14:33:43.359Z</time></trkpt><trkpt lat="45.6993933" lon="9.4077679"><ele>286.1428571428571</ele><time>2026-04-11T14:33:44.384Z</time></trkpt><trkpt lat="45.69934" lon="9.4076941"><ele>285.7142857142857</ele><time>2026-04-11T14:33:45.363Z</time></trkpt><trkpt lat="45.699284" lon="9.4076212"><ele>285.2857142857143</ele><time>2026-04-11T14:33:46.387Z</time></trkpt><trkpt lat="45.6992318" lon="9.4075474"><ele>284.85714285714283</ele><time>2026-04-11T14:33:47.37Z</time></trkpt><trkpt lat="45.6991825" lon="9.4074771"><ele>284.42857142857144</ele><time>2026-04-11T14:33:48.386Z</time></trkpt><trkpt lat="45.6991363" lon="9.4074156"><ele>284.0</ele><time>2026-04-11T14:33:49.384Z</time></trkpt><trkpt lat="45.699062" lon="9.4073146"><ele>284.0</ele><time>2026-04-11T14:33:51.363Z</time></trkpt><trkpt lat="45.6990082" lon="9.4072449"><ele>284.0</ele><time>2026-04-11T14:33:54.362Z</time></trkpt><trkpt lat="45.6989553" lon="9.4071818"><ele>284.0</ele><time>2026-04-11T14:33:57.371Z</time></trkpt><trkpt lat="45.6988858" lon="9.4071009"><ele>284.0</ele><time>2026-04-11T14:34:00.405Z</time></trkpt><trkpt lat="45.6988212" lon="9.4070256"><ele>284.0</ele><time>2026-04-11T14:34:02.365Z</time></trkpt><trkpt lat="45.6987617" lon="9.4069427"><ele>284.0</ele><time>2026-04-11T14:34:04.361Z</time></trkpt><trkpt lat="45.6987032" lon="9.4068582"><ele>283.5</ele><time>2026-04-11T14:34:06.386Z</time></trkpt><trkpt lat="45.6986465" lon="9.4067579"><ele>283.0</ele><time>2026-04-11T14:34:09.372Z</time></trkpt><trkpt lat="45.698594" lon="9.4066497"><ele>282.5</ele><time>2026-04-11T14:34:11.363Z</time></trkpt><trkpt lat="45.6985129" lon="9.4065355"><ele>282.0</ele><time>2026-04-11T14:34:13.366Z</time></trkpt><trkpt lat="45.6984553" lon="9.406479"><ele>281.5</ele><time>2026-04-11T14:34:14.388Z</time></trkpt><trkpt lat="45.6983812" lon="9.4064284"><ele>281.0</ele><time>2026-04-11T14:34:15.363Z</time></trkpt><trkpt lat="45.6982871" lon="9.4063729"><ele>280.25</ele><time>2026-04-11T14:34:16.365Z</time></trkpt><trkpt lat="45.6981765" lon="9.4062997"><ele>279.5</ele><time>2026-04-11T14:34:17.369Z</time></trkpt><trkpt lat="45.6980522" lon="9.4061788"><ele>278.75</ele><time>2026-04-11T14:34:18.395Z</time></trkpt><trkpt lat="45.6979279" lon="9.4060524"><ele>278.0</ele><time>2026-04-11T14:34:19.368Z</time></trkpt><trkpt lat="45.6977976" lon="9.4059238"><ele>277.75</ele><time>2026-04-11T14:34:20.362Z</time></trkpt><trkpt lat="45.6976709" lon="9.4058023"><ele>277.5</ele><time>2026-04-11T14:34:21.367Z</time></trkpt><trkpt lat="45.6975489" lon="9.405681"><ele>277.25</ele><time>2026-04-11T14:34:22.369Z</time></trkpt><trkpt lat="45.6974319" lon="9.4055642"><ele>277.0</ele><time>2026-04-11T14:34:23.362Z</time></trkpt><trkpt lat="45.6973156" lon="9.4054477"><ele>276.75</ele><time>2026-04-11T14:34:24.361Z</time></trkpt><trkpt lat="45.6972131" lon="9.4053278"><ele>276.5</ele><time>2026-04-11T14:34:25.381Z</time></trkpt><trkpt lat="45.6971144" lon="9.4052112"><ele>276.25</ele><time>2026-04-11T14:34:26.388Z</time></trkpt><trkpt lat="45.6970167" lon="9.4051104"><ele>276.0</ele><time>2026-04-11T14:34:27.369Z</time></trkpt><trkpt lat="45.69692" lon="9.4050096"><ele>276.0</ele><time>2026-04-11T14:34:28.361Z</time></trkpt><trkpt lat="45.6968228" lon="9.4049146"><ele>276.0</ele><time>2026-04-11T14:34:29.368Z</time></trkpt><trkpt lat="45.6967233" lon="9.404818"><ele>276.0</ele><time>2026-04-11T14:34:30.383Z</time></trkpt><trkpt lat="45.6966102" lon="9.404708"><ele>276.0</ele><time>2026-04-11T14:34:31.485Z</time></trkpt><trkpt lat="45.6963567" lon="9.4044738"><ele>276.0</ele><time>2026-04-11T14:34:33.39Z</time></trkpt><trkpt lat="45.6962474" lon="9.4043662"><ele>276.0</ele><time>2026-04-11T14:34:34.363Z</time></trkpt><trkpt lat="45.6961568" lon="9.4042727"><ele>276.0</ele><time>2026-04-11T14:34:35.387Z</time></trkpt><trkpt lat="45.696076" lon="9.4041947"><ele>276.0</ele><time>2026-04-11T14:34:36.386Z</time></trkpt><trkpt lat="45.696012" lon="9.4041265"><ele>276.0</ele><time>2026-04-11T14:34:37.368Z</time></trkpt><trkpt lat="45.6959586" lon="9.4040753"><ele>275.6666666666667</ele><time>2026-04-11T14:34:38.361Z</time></trkpt><trkpt lat="45.6959056" lon="9.404026"><ele>275.3333333333333</ele><time>2026-04-11T14:34:39.365Z</time></trkpt><trkpt lat="45.6958464" lon="9.4039641"><ele>275.0</ele><time>2026-04-11T14:34:40.382Z</time></trkpt><trkpt lat="45.6957867" lon="9.4038979"><ele>274.66666666666663</ele><time>2026-04-11T14:34:41.362Z</time></trkpt><trkpt lat="45.6957233" lon="9.4038359"><ele>274.3333333333333</ele><time>2026-04-11T14:34:42.369Z</time></trkpt><trkpt lat="45.695667" lon="9.403776"><ele>274.0</ele><time>2026-04-11T14:34:43.361Z</time></trkpt><trkpt lat="45.6955714" lon="9.403677"><ele>274.00000000000006</ele><time>2026-04-11T14:34:45.362Z</time></trkpt><trkpt lat="45.6955223" lon="9.4036199"><ele>274.0</ele><time>2026-04-11T14:34:46.367Z</time></trkpt><trkpt lat="45.6954651" lon="9.4035661"><ele>274.0</ele><time>2026-04-11T14:34:47.365Z</time></trkpt><trkpt lat="45.6954077" lon="9.4035091"><ele>274.0</ele><time>2026-04-11T14:34:48.363Z</time></trkpt><trkpt lat="45.6953471" lon="9.4034494"><ele>274.0</ele><time>2026-04-11T14:34:49.364Z</time></trkpt><trkpt lat="45.6952862" lon="9.4033869"><ele>274.00000000000006</ele><time>2026-04-11T14:34:50.392Z</time></trkpt><trkpt lat="45.6952287" lon="9.4033255"><ele>274.0</ele><time>2026-04-11T14:34:51.363Z</time></trkpt><trkpt lat="45.6951723" lon="9.4032698"><ele>274.0</ele><time>2026-04-11T14:34:52.369Z</time></trkpt><trkpt lat="45.6951202" lon="9.4032131"><ele>274.0</ele><time>2026-04-11T14:34:53.396Z</time></trkpt><trkpt lat="45.6950221" lon="9.4031114"><ele>274.0</ele><time>2026-04-11T14:34:55.393Z</time></trkpt><trkpt lat="45.6949367" lon="9.4030147"><ele>274.0</ele><time>2026-04-11T14:34:57.368Z</time></trkpt><trkpt lat="45.6948517" lon="9.4029284"><ele>274.0</ele><time>2026-04-11T14:34:59.369Z</time></trkpt><trkpt lat="45.6947628" lon="9.4028399"><ele>274.0</ele><time>2026-04-11T14:35:01.37Z</time></trkpt><trkpt lat="45.6946651" lon="9.4027463"><ele>274.0</ele><time>2026-04-11T14:35:03.359Z</time></trkpt><trkpt lat="45.6945702" lon="9.4026482"><ele>274.0</ele><time>2026-04-11T14:35:05.37Z</time></trkpt><trkpt lat="45.694495" lon="9.4025596"><ele>274.0</ele><time>2026-04-11T14:35:07.369Z</time></trkpt><trkpt lat="45.6944386" lon="9.402496"><ele>274.0</ele><time>2026-04-11T14:35:10.362Z</time></trkpt><trkpt lat="45.69434" lon="9.4024169"><ele>273.3333333333333</ele><time>2026-04-11T14:36:34.398Z</time></trkpt><trkpt lat="45.6942827" lon="9.4023656"><ele>272.66666666666663</ele><time>2026-04-11T14:36:35.367Z</time></trkpt><trkpt lat="45.6942198" lon="9.4023084"><ele>272.0</ele><time>2026-04-11T14:36:36.367Z</time></trkpt><trkpt lat="45.6941481" lon="9.4022507"><ele>271.3333333333333</ele><time>2026-04-11T14:36:37.37Z</time></trkpt><trkpt lat="45.6940552" lon="9.4022009"><ele>270.6666666666667</ele><time>2026-04-11T14:36:38.371Z</time></trkpt><trkpt lat="45.6939423" lon="9.4021658"><ele>270.0</ele><time>2026-04-11T14:36:39.371Z</time></trkpt><trkpt lat="45.6938399" lon="9.4021495"><ele>269.8</ele><time>2026-04-11T14:36:40.363Z</time></trkpt><trkpt lat="45.6937338" lon="9.4021496"><ele>269.6</ele><time>2026-04-11T14:36:41.371Z</time></trkpt><trkpt lat="45.6936227" lon="9.4021566"><ele>269.4</ele><time>2026-04-11T14:36:42.377Z</time></trkpt><trkpt lat="45.6935268" lon="9.4021657"><ele>269.2</ele><time>2026-04-11T14:36:43.369Z</time></trkpt><trkpt lat="45.6934263" lon="9.4021714"><ele>269.0</ele><time>2026-04-11T14:36:44.371Z</time></trkpt><trkpt lat="45.6933002" lon="9.4021828"><ele>269.0</ele><time>2026-04-11T14:36:45.369Z</time></trkpt><trkpt lat="45.6931779" lon="9.4021838"><ele>269.0</ele><time>2026-04-11T14:36:46.369Z</time></trkpt><trkpt lat="45.6930506" lon="9.4021772"><ele>269.0</ele><time>2026-04-11T14:36:47.371Z</time></trkpt><trkpt lat="45.692924" lon="9.4021599"><ele>269.0</ele><time>2026-04-11T14:36:48.363Z</time></trkpt><trkpt lat="45.6928006" lon="9.4021327"><ele>269.0</ele><time>2026-04-11T14:36:49.369Z</time></trkpt><trkpt lat="45.6926747" lon="9.4020943"><ele>269.0</ele><time>2026-04-11T14:36:50.399Z</time></trkpt><trkpt lat="45.6925551" lon="9.4020432"><ele>269.0</ele><time>2026-04-11T14:36:51.369Z</time></trkpt><trkpt lat="45.6924431" lon="9.4019917"><ele>269.0</ele><time>2026-04-11T14:36:52.373Z</time></trkpt><trkpt lat="45.6923324" lon="9.4019386"><ele>269.0</ele><time>2026-04-11T14:36:53.371Z</time></trkpt><trkpt lat="45.6922207" lon="9.4018837"><ele>269.0</ele><time>2026-04-11T14:36:54.386Z</time></trkpt><trkpt lat="45.6921144" lon="9.4018286"><ele>269.0</ele><time>2026-04-11T14:36:55.362Z</time></trkpt><trkpt lat="45.6920084" lon="9.4017797"><ele>269.0</ele><time>2026-04-11T14:36:56.361Z</time></trkpt><trkpt lat="45.6919032" lon="9.401727"><ele>268.75</ele><time>2026-04-11T14:36:57.364Z</time></trkpt><trkpt lat="45.6917964" lon="9.4016807"><ele>268.5</ele><time>2026-04-11T14:36:58.366Z</time></trkpt><trkpt lat="45.6916878" lon="9.4016307"><ele>268.25</ele><time>2026-04-11T14:36:59.391Z</time></trkpt><trkpt lat="45.6915794" lon="9.4015719"><ele>268.0</ele><time>2026-04-11T14:37:00.366Z</time></trkpt><trkpt lat="45.6914637" lon="9.4015125"><ele>268.0</ele><time>2026-04-11T14:37:01.361Z</time></trkpt><trkpt lat="45.6913422" lon="9.4014498"><ele>268.0</ele><time>2026-04-11T14:37:02.384Z</time></trkpt><trkpt lat="45.6912246" lon="9.40139"><ele>268.0</ele><time>2026-04-11T14:37:03.365Z</time></trkpt><trkpt lat="45.6911152" lon="9.4013339"><ele>268.0</ele><time>2026-04-11T14:37:04.361Z</time></trkpt><trkpt lat="45.6910101" lon="9.4012768"><ele>267.4</ele><time>2026-04-11T14:37:05.366Z</time></trkpt><trkpt lat="45.690913" lon="9.4012254"><ele>266.8</ele><time>2026-04-11T14:37:06.389Z</time></trkpt><trkpt lat="45.6908219" lon="9.4011803"><ele>266.2</ele><time>2026-04-11T14:37:07.361Z</time></trkpt><trkpt lat="45.6907332" lon="9.4011342"><ele>265.6</ele><time>2026-04-11T14:37:08.363Z</time></trkpt><trkpt lat="45.6906522" lon="9.4010921"><ele>265.0</ele><time>2026-04-11T14:37:09.361Z</time></trkpt><trkpt lat="45.6905749" lon="9.4010519"><ele>265.0</ele><time>2026-04-11T14:37:10.358Z</time></trkpt><trkpt lat="45.6904977" lon="9.4010165"><ele>265.0</ele><time>2026-04-11T14:37:11.368Z</time></trkpt><trkpt lat="45.6904246" lon="9.4009855"><ele>265.0</ele><time>2026-04-11T14:37:12.369Z</time></trkpt><trkpt lat="45.6903566" lon="9.4009517"><ele>265.0</ele><time>2026-04-11T14:37:13.365Z</time></trkpt><trkpt lat="45.6902566" lon="9.4008993"><ele>265.0</ele><time>2026-04-11T14:37:15.39Z</time></trkpt><trkpt lat="45.6901682" lon="9.4008598"><ele>265.0</ele><time>2026-04-11T14:37:18.362Z</time></trkpt><trkpt lat="45.6900451" lon="9.4008155"><ele>264.4</ele><time>2026-04-11T14:37:20.364Z</time></trkpt><trkpt lat="45.6899618" lon="9.4007701"><ele>263.8</ele><time>2026-04-11T14:37:21.387Z</time></trkpt><trkpt lat="45.6898617" lon="9.4007241"><ele>263.2</ele><time>2026-04-11T14:37:22.366Z</time></trkpt><trkpt lat="45.6897416" lon="9.400669"><ele>262.6</ele><time>2026-04-11T14:37:23.389Z</time></trkpt><trkpt lat="45.6896295" lon="9.4006163"><ele>262.0</ele><time>2026-04-11T14:37:24.366Z</time></trkpt><trkpt lat="45.6895435" lon="9.4005745"><ele>262.0</ele><time>2026-04-11T14:37:25.364Z</time></trkpt><trkpt lat="45.6894743" lon="9.400546"><ele>262.0</ele><time>2026-04-11T14:37:26.386Z</time></trkpt><trkpt lat="45.6893753" lon="9.4005016"><ele>262.0</ele><time>2026-04-11T14:37:28.385Z</time></trkpt><trkpt lat="45.689303" lon="9.400467"><ele>262.0</ele><time>2026-04-11T14:37:30.367Z</time></trkpt><trkpt lat="45.6892407" lon="9.4004339"><ele>262.0</ele><time>2026-04-11T14:37:32.369Z</time></trkpt><trkpt lat="45.6891716" lon="9.4004002"><ele>262.0</ele><time>2026-04-11T14:37:34.361Z</time></trkpt><trkpt lat="45.6890986" lon="9.4003653"><ele>262.16666666666663</ele><time>2026-04-11T14:37:36.362Z</time></trkpt><trkpt lat="45.689031" lon="9.4003356"><ele>262.3333333333333</ele><time>2026-04-11T14:37:39.365Z</time></trkpt><trkpt lat="45.6889573" lon="9.4003"><ele>262.5</ele><time>2026-04-11T14:37:45.364Z</time></trkpt><trkpt lat="45.6888898" lon="9.4002611"><ele>262.6666666666667</ele><time>2026-04-11T14:37:53.364Z</time></trkpt><trkpt lat="45.688805" lon="9.400183"><ele>262.83333333333337</ele><time>2026-04-11T14:38:03.387Z</time></trkpt><trkpt lat="45.6887455" lon="9.4001028"><ele>263.0</ele><time>2026-04-11T14:38:05.365Z</time></trkpt><trkpt lat="45.6886686" lon="9.4000034"><ele>262.75</ele><time>2026-04-11T14:38:07.361Z</time></trkpt><trkpt lat="45.688541" lon="9.3999861"><ele>262.5</ele><time>2026-04-11T14:38:09.365Z</time></trkpt><trkpt lat="45.6884603" lon="9.4000077"><ele>262.25</ele><time>2026-04-11T14:38:10.368Z</time></trkpt><trkpt lat="45.6883485" lon="9.4000278"><ele>262.0</ele><time>2026-04-11T14:38:11.367Z</time></trkpt><trkpt lat="45.6882024" lon="9.4000074"><ele>262.0</ele><time>2026-04-11T14:38:12.374Z</time></trkpt><trkpt lat="45.688038" lon="9.3999724"><ele>262.0</ele><time>2026-04-11T14:38:13.363Z</time></trkpt><trkpt lat="45.6878496" lon="9.3999316"><ele>262.0</ele><time>2026-04-11T14:38:14.39Z</time></trkpt><trkpt lat="45.6876835" lon="9.3998795"><ele>260.66666666666663</ele><time>2026-04-11T14:38:15.361Z</time></trkpt><trkpt lat="45.6875147" lon="9.3998173"><ele>259.3333333333333</ele><time>2026-04-11T14:38:16.39Z</time></trkpt><trkpt lat="45.6873246" lon="9.3997574"><ele>258.0</ele><time>2026-04-11T14:38:17.363Z</time></trkpt><trkpt lat="45.6871192" lon="9.3996921"><ele>257.6666666666667</ele><time>2026-04-11T14:38:18.387Z</time></trkpt><trkpt lat="45.6869078" lon="9.3996113"><ele>257.33333333333337</ele><time>2026-04-11T14:38:19.361Z</time></trkpt><trkpt lat="45.6867139" lon="9.3995401"><ele>257.0</ele><time>2026-04-11T14:38:20.39Z</time></trkpt><trkpt lat="45.6865344" lon="9.399475"><ele>257.0</ele><time>2026-04-11T14:38:21.36Z</time></trkpt><trkpt lat="45.6863636" lon="9.3994114"><ele>257.0</ele><time>2026-04-11T14:38:22.361Z</time></trkpt><trkpt lat="45.6861904" lon="9.3993472"><ele>257.0</ele><time>2026-04-11T14:38:23.364Z</time></trkpt><trkpt lat="45.6860134" lon="9.3992809"><ele>255.66666666666669</ele><time>2026-04-11T14:38:24.388Z</time></trkpt><trkpt lat="45.6858392" lon="9.3992211"><ele>254.33333333333331</ele><time>2026-04-11T14:38:25.363Z</time></trkpt><trkpt lat="45.685675" lon="9.3991634"><ele>253.0</ele><time>2026-04-11T14:38:26.386Z</time></trkpt><trkpt lat="45.6855204" lon="9.3991083"><ele>253.0</ele><time>2026-04-11T14:38:27.363Z</time></trkpt><trkpt lat="45.6853743" lon="9.3990529"><ele>253.0</ele><time>2026-04-11T14:38:28.367Z</time></trkpt><trkpt lat="45.6852313" lon="9.3989966"><ele>253.0</ele><time>2026-04-11T14:38:29.364Z</time></trkpt><trkpt lat="45.6850809" lon="9.398937"><ele>253.25</ele><time>2026-04-11T14:38:30.387Z</time></trkpt><trkpt lat="45.6849277" lon="9.3988795"><ele>253.5</ele><time>2026-04-11T14:38:31.364Z</time></trkpt><trkpt lat="45.6847829" lon="9.3988281"><ele>253.75</ele><time>2026-04-11T14:38:32.373Z</time></trkpt><trkpt lat="45.684646" lon="9.3987768"><ele>254.0</ele><time>2026-04-11T14:38:33.36Z</time></trkpt><trkpt lat="45.6845148" lon="9.3987274"><ele>253.75</ele><time>2026-04-11T14:38:34.389Z</time></trkpt><trkpt lat="45.684389" lon="9.3986804"><ele>253.5</ele><time>2026-04-11T14:38:35.362Z</time></trkpt><trkpt lat="45.6842658" lon="9.3986339"><ele>253.25</ele><time>2026-04-11T14:38:36.366Z</time></trkpt><trkpt lat="45.6841455" lon="9.3985882"><ele>253.0</ele><time>2026-04-11T14:38:37.363Z</time></trkpt><trkpt lat="45.6840249" lon="9.3985472"><ele>253.0</ele><time>2026-04-11T14:38:38.387Z</time></trkpt><trkpt lat="45.6839016" lon="9.3985099"><ele>253.0</ele><time>2026-04-11T14:38:39.359Z</time></trkpt><trkpt lat="45.6837868" lon="9.3984714"><ele>253.0</ele><time>2026-04-11T14:38:40.358Z</time></trkpt><trkpt lat="45.6836777" lon="9.3984341"><ele>253.0</ele><time>2026-04-11T14:38:41.386Z</time></trkpt><trkpt lat="45.6835735" lon="9.3983969"><ele>253.0</ele><time>2026-04-11T14:38:42.365Z</time></trkpt><trkpt lat="45.6834738" lon="9.3983643"><ele>253.0</ele><time>2026-04-11T14:38:43.361Z</time></trkpt><trkpt lat="45.6833787" lon="9.3983323"><ele>253.0</ele><time>2026-04-11T14:38:44.366Z</time></trkpt><trkpt lat="45.6832863" lon="9.3983056"><ele>253.0</ele><time>2026-04-11T14:38:45.362Z</time></trkpt><trkpt lat="45.6832004" lon="9.3982796"><ele>253.0</ele><time>2026-04-11T14:38:46.371Z</time></trkpt><trkpt lat="45.683127" lon="9.3982598"><ele>252.99999999999997</ele><time>2026-04-11T14:38:47.362Z</time></trkpt><trkpt lat="45.6830597" lon="9.3982397"><ele>253.0</ele><time>2026-04-11T14:38:48.373Z</time></trkpt><trkpt lat="45.6829469" lon="9.3982036"><ele>253.0</ele><time>2026-04-11T14:38:50.366Z</time></trkpt><trkpt lat="45.6828789" lon="9.3981689"><ele>253.0</ele><time>2026-04-11T14:38:51.356Z</time></trkpt><trkpt lat="45.6828118" lon="9.398134"><ele>252.99999999999997</ele><time>2026-04-11T14:38:52.376Z</time></trkpt><trkpt lat="45.6827338" lon="9.3981106"><ele>253.0</ele><time>2026-04-11T14:38:53.361Z</time></trkpt><trkpt lat="45.6826436" lon="9.3980849"><ele>253.60000000000002</ele><time>2026-04-11T14:38:54.364Z</time></trkpt><trkpt lat="45.6825465" lon="9.3980477"><ele>254.20000000000002</ele><time>2026-04-11T14:38:55.367Z</time></trkpt><trkpt lat="45.682443" lon="9.3980028"><ele>254.8</ele><time>2026-04-11T14:38:56.364Z</time></trkpt><trkpt lat="45.6823316" lon="9.3979579"><ele>255.4</ele><time>2026-04-11T14:38:57.36Z</time></trkpt><trkpt lat="45.6822178" lon="9.3979152"><ele>256.0</ele><time>2026-04-11T14:38:58.371Z</time></trkpt><trkpt lat="45.682098" lon="9.3978729"><ele>256.25</ele><time>2026-04-11T14:38:59.362Z</time></trkpt><trkpt lat="45.6819806" lon="9.3978252"><ele>256.5</ele><time>2026-04-11T14:39:00.371Z</time></trkpt><trkpt lat="45.681864" lon="9.3977807"><ele>256.75</ele><time>2026-04-11T14:39:01.363Z</time></trkpt><trkpt lat="45.681752" lon="9.3977435"><ele>257.0</ele><time>2026-04-11T14:39:02.371Z</time></trkpt><trkpt lat="45.6816406" lon="9.3977046"><ele>256.5</ele><time>2026-04-11T14:39:03.36Z</time></trkpt><trkpt lat="45.68153" lon="9.397665"><ele>256.0</ele><time>2026-04-11T14:39:04.367Z</time></trkpt><trkpt lat="45.6814172" lon="9.3976209"><ele>255.5</ele><time>2026-04-11T14:39:05.361Z</time></trkpt><trkpt lat="45.6813049" lon="9.3975756"><ele>255.0</ele><time>2026-04-11T14:39:06.365Z</time></trkpt><trkpt lat="45.6811886" lon="9.3975296"><ele>254.75</ele><time>2026-04-11T14:39:07.37Z</time></trkpt><trkpt lat="45.6810686" lon="9.3974833"><ele>254.5</ele><time>2026-04-11T14:39:08.359Z</time></trkpt><trkpt lat="45.6809452" lon="9.3974372"><ele>254.25</ele><time>2026-04-11T14:39:09.366Z</time></trkpt><trkpt lat="45.6808222" lon="9.3973933"><ele>254.0</ele><time>2026-04-11T14:39:10.362Z</time></trkpt><trkpt lat="45.6807066" lon="9.3973544"><ele>254.0</ele><time>2026-04-11T14:39:11.361Z</time></trkpt><trkpt lat="45.6805938" lon="9.3973147"><ele>253.99999999999997</ele><time>2026-04-11T14:39:12.367Z</time></trkpt><trkpt lat="45.6804899" lon="9.3972784"><ele>253.99999999999997</ele><time>2026-04-11T14:39:13.362Z</time></trkpt><trkpt lat="45.6803917" lon="9.3972375"><ele>254.0</ele><time>2026-04-11T14:39:14.361Z</time></trkpt><trkpt lat="45.6802976" lon="9.3971951"><ele>254.0</ele><time>2026-04-11T14:39:15.363Z</time></trkpt><trkpt lat="45.6802147" lon="9.3971412"><ele>253.66666666666669</ele><time>2026-04-11T14:39:16.364Z</time></trkpt><trkpt lat="45.6801319" lon="9.3970985"><ele>253.33333333333334</ele><time>2026-04-11T14:39:17.365Z</time></trkpt><trkpt lat="45.680046" lon="9.3970515"><ele>253.0</ele><time>2026-04-11T14:39:18.365Z</time></trkpt><trkpt lat="45.6799621" lon="9.3970106"><ele>252.66666666666669</ele><time>2026-04-11T14:39:19.359Z</time></trkpt><trkpt lat="45.6798893" lon="9.3969712"><ele>252.33333333333334</ele><time>2026-04-11T14:39:20.367Z</time></trkpt><trkpt lat="45.6797971" lon="9.3969065"><ele>252.0</ele><time>2026-04-11T14:39:22.368Z</time></trkpt><trkpt lat="45.6797214" lon="9.3968255"><ele>252.0</ele><time>2026-04-11T14:39:25.37Z</time></trkpt><trkpt lat="45.6796708" lon="9.3967702"><ele>252.0</ele><time>2026-04-11T14:39:26.364Z</time></trkpt><trkpt lat="45.6796029" lon="9.3967109"><ele>252.0</ele><time>2026-04-11T14:39:27.366Z</time></trkpt><trkpt lat="45.6795191" lon="9.3966797"><ele>252.0</ele><time>2026-04-11T14:39:28.366Z</time></trkpt><trkpt lat="45.6794222" lon="9.3966962"><ele>252.0</ele><time>2026-04-11T14:39:29.364Z</time></trkpt><trkpt lat="45.6793218" lon="9.3967331"><ele>252.0</ele><time>2026-04-11T14:39:30.364Z</time></trkpt><trkpt lat="45.6792132" lon="9.3967535"><ele>251.5</ele><time>2026-04-11T14:39:31.36Z</time></trkpt><trkpt lat="45.6790928" lon="9.3967507"><ele>251.0</ele><time>2026-04-11T14:39:32.378Z</time></trkpt><trkpt lat="45.6789534" lon="9.3967239"><ele>250.5</ele><time>2026-04-11T14:39:33.363Z</time></trkpt><trkpt lat="45.6787865" lon="9.3966718"><ele>250.0</ele><time>2026-04-11T14:39:34.37Z</time></trkpt><trkpt lat="45.6786022" lon="9.3966008"><ele>249.66666666666666</ele><time>2026-04-11T14:39:35.36Z</time></trkpt><trkpt lat="45.6784088" lon="9.3965267"><ele>249.33333333333331</ele><time>2026-04-11T14:39:36.366Z</time></trkpt><trkpt lat="45.6782121" lon="9.3964541"><ele>249.0</ele><time>2026-04-11T14:39:37.36Z</time></trkpt><trkpt lat="45.6780167" lon="9.3963824"><ele>249.0</ele><time>2026-04-11T14:39:38.367Z</time></trkpt><trkpt lat="45.6778241" lon="9.3963107"><ele>249.0</ele><time>2026-04-11T14:39:39.362Z</time></trkpt><trkpt lat="45.6776293" lon="9.3962448"><ele>249.0</ele><time>2026-04-11T14:39:40.368Z</time></trkpt><trkpt lat="45.6774454" lon="9.3961772"><ele>249.0</ele><time>2026-04-11T14:39:41.362Z</time></trkpt><trkpt lat="45.6772716" lon="9.3961157"><ele>249.0</ele><time>2026-04-11T14:39:42.361Z</time></trkpt><trkpt lat="45.6771013" lon="9.3960596"><ele>249.0</ele><time>2026-04-11T14:39:43.361Z</time></trkpt><trkpt lat="45.6769358" lon="9.3960022"><ele>249.0</ele><time>2026-04-11T14:39:44.366Z</time></trkpt><trkpt lat="45.6767746" lon="9.3959424"><ele>249.0</ele><time>2026-04-11T14:39:45.362Z</time></trkpt><trkpt lat="45.6766175" lon="9.3958862"><ele>249.0</ele><time>2026-04-11T14:39:46.369Z</time></trkpt><trkpt lat="45.6764587" lon="9.395828"><ele>249.0</ele><time>2026-04-11T14:39:47.361Z</time></trkpt><trkpt lat="45.6763029" lon="9.3957662"><ele>249.0</ele><time>2026-04-11T14:39:48.368Z</time></trkpt><trkpt lat="45.6761459" lon="9.3956992"><ele>249.0</ele><time>2026-04-11T14:39:49.363Z</time></trkpt><trkpt lat="45.6759874" lon="9.3956289"><ele>248.33333333333331</ele><time>2026-04-11T14:39:50.367Z</time></trkpt><trkpt lat="45.675835" lon="9.3955528"><ele>247.66666666666666</ele><time>2026-04-11T14:39:51.361Z</time></trkpt><trkpt lat="45.6756901" lon="9.3954725"><ele>247.0</ele><time>2026-04-11T14:39:52.368Z</time></trkpt><trkpt lat="45.6755473" lon="9.3953939"><ele>247.0</ele><time>2026-04-11T14:39:53.362Z</time></trkpt><trkpt lat="45.6754114" lon="9.3953103"><ele>247.0</ele><time>2026-04-11T14:39:54.366Z</time></trkpt><trkpt lat="45.6752765" lon="9.3952223"><ele>247.0</ele><time>2026-04-11T14:39:55.361Z</time></trkpt><trkpt lat="45.6751433" lon="9.3951287"><ele>247.0</ele><time>2026-04-11T14:39:56.367Z</time></trkpt><trkpt lat="45.6750146" lon="9.3950259"><ele>246.25</ele><time>2026-04-11T14:39:57.362Z</time></trkpt><trkpt lat="45.6748864" lon="9.394922"><ele>245.5</ele><time>2026-04-11T14:39:58.367Z</time></trkpt><trkpt lat="45.6747629" lon="9.394818"><ele>244.75</ele><time>2026-04-11T14:39:59.363Z</time></trkpt><trkpt lat="45.6746443" lon="9.3947123"><ele>244.0</ele><time>2026-04-11T14:40:00.366Z</time></trkpt><trkpt lat="45.6745305" lon="9.3946004"><ele>244.25</ele><time>2026-04-11T14:40:01.361Z</time></trkpt><trkpt lat="45.6744232" lon="9.3944904"><ele>244.5</ele><time>2026-04-11T14:40:02.372Z</time></trkpt><trkpt lat="45.6743185" lon="9.3943778"><ele>244.75</ele><time>2026-04-11T14:40:03.36Z</time></trkpt><trkpt lat="45.6742164" lon="9.394265"><ele>245.0</ele><time>2026-04-11T14:40:04.366Z</time></trkpt><trkpt lat="45.6741192" lon="9.3941518"><ele>245.0</ele><time>2026-04-11T14:40:05.358Z</time></trkpt><trkpt lat="45.6740237" lon="9.3940369"><ele>245.0</ele><time>2026-04-11T14:40:06.367Z</time></trkpt><trkpt lat="45.6739363" lon="9.3939236"><ele>245.0</ele><time>2026-04-11T14:40:07.362Z</time></trkpt><trkpt lat="45.6738525" lon="9.3938109"><ele>245.0</ele><time>2026-04-11T14:40:08.37Z</time></trkpt><trkpt lat="45.6737718" lon="9.3936947"><ele>245.0</ele><time>2026-04-11T14:40:09.359Z</time></trkpt><trkpt lat="45.6736942" lon="9.3935779"><ele>245.0</ele><time>2026-04-11T14:40:10.369Z</time></trkpt><trkpt lat="45.67362" lon="9.3934614"><ele>245.0</ele><time>2026-04-11T14:40:11.361Z</time></trkpt><trkpt lat="45.6735466" lon="9.3933481"><ele>245.0</ele><time>2026-04-11T14:40:12.367Z</time></trkpt><trkpt lat="45.6734769" lon="9.3932366"><ele>245.0</ele><time>2026-04-11T14:40:13.36Z</time></trkpt><trkpt lat="45.6734083" lon="9.3931333"><ele>245.2</ele><time>2026-04-11T14:40:14.37Z</time></trkpt><trkpt lat="45.6733423" lon="9.3930369"><ele>245.4</ele><time>2026-04-11T14:40:15.36Z</time></trkpt><trkpt lat="45.6732804" lon="9.3929388"><ele>245.60000000000002</ele><time>2026-04-11T14:40:16.369Z</time></trkpt><trkpt lat="45.6732172" lon="9.3928427"><ele>245.8</ele><time>2026-04-11T14:40:17.36Z</time></trkpt><trkpt lat="45.6731499" lon="9.3927419"><ele>246.0</ele><time>2026-04-11T14:40:18.366Z</time></trkpt><trkpt lat="45.6730804" lon="9.392637"><ele>245.60000000000002</ele><time>2026-04-11T14:40:19.361Z</time></trkpt><trkpt lat="45.6730115" lon="9.3925316"><ele>245.20000000000002</ele><time>2026-04-11T14:40:20.367Z</time></trkpt><trkpt lat="45.6729426" lon="9.3924215"><ele>244.79999999999998</ele><time>2026-04-11T14:40:21.364Z</time></trkpt><trkpt lat="45.6728768" lon="9.3923112"><ele>244.39999999999998</ele><time>2026-04-11T14:40:22.37Z</time></trkpt><trkpt lat="45.6728093" lon="9.3922004"><ele>244.0</ele><time>2026-04-11T14:40:23.359Z</time></trkpt><trkpt lat="45.6727438" lon="9.3920883"><ele>243.39999999999998</ele><time>2026-04-11T14:40:24.361Z</time></trkpt><trkpt lat="45.6726747" lon="9.3919704"><ele>242.79999999999998</ele><time>2026-04-11T14:40:25.362Z</time></trkpt><trkpt lat="45.6726076" lon="9.3918455"><ele>242.20000000000002</ele><time>2026-04-11T14:40:26.369Z</time></trkpt><trkpt lat="45.6725436" lon="9.3917122"><ele>241.60000000000002</ele><time>2026-04-11T14:40:27.361Z</time></trkpt><trkpt lat="45.6724798" lon="9.3915849"><ele>241.0</ele><time>2026-04-11T14:40:28.367Z</time></trkpt><trkpt lat="45.6724179" lon="9.3914662"><ele>241.0</ele><time>2026-04-11T14:40:29.364Z</time></trkpt><trkpt lat="45.6723579" lon="9.3913536"><ele>241.00000000000003</ele><time>2026-04-11T14:40:30.366Z</time></trkpt><trkpt lat="45.6722991" lon="9.3912438"><ele>241.00000000000003</ele><time>2026-04-11T14:40:31.362Z</time></trkpt><trkpt lat="45.6722349" lon="9.391139"><ele>241.0</ele><time>2026-04-11T14:40:32.368Z</time></trkpt><trkpt lat="45.672163" lon="9.3910275"><ele>241.0</ele><time>2026-04-11T14:40:33.36Z</time></trkpt><trkpt lat="45.6720842" lon="9.3909207"><ele>241.0</ele><time>2026-04-11T14:40:34.367Z</time></trkpt><trkpt lat="45.6719993" lon="9.3908085"><ele>241.0</ele><time>2026-04-11T14:40:35.361Z</time></trkpt><trkpt lat="45.6719044" lon="9.3906955"><ele>241.0</ele><time>2026-04-11T14:40:36.368Z</time></trkpt><trkpt lat="45.6718075" lon="9.3905879"><ele>241.0</ele><time>2026-04-11T14:40:37.358Z</time></trkpt><trkpt lat="45.6717066" lon="9.3904833"><ele>240.75</ele><time>2026-04-11T14:40:38.37Z</time></trkpt><trkpt lat="45.6715995" lon="9.3903845"><ele>240.5</ele><time>2026-04-11T14:40:39.363Z</time></trkpt><trkpt lat="45.6714918" lon="9.3902932"><ele>240.25</ele><time>2026-04-11T14:40:40.368Z</time></trkpt><trkpt lat="45.6713855" lon="9.39021"><ele>240.0</ele><time>2026-04-11T14:40:41.358Z</time></trkpt><trkpt lat="45.6712772" lon="9.3901333"><ele>240.0</ele><time>2026-04-11T14:40:42.369Z</time></trkpt><trkpt lat="45.6711676" lon="9.3900546"><ele>240.0</ele><time>2026-04-11T14:40:43.364Z</time></trkpt><trkpt lat="45.6710583" lon="9.3899795"><ele>240.0</ele><time>2026-04-11T14:40:44.364Z</time></trkpt><trkpt lat="45.6709474" lon="9.3899074"><ele>240.0</ele><time>2026-04-11T14:40:45.37Z</time></trkpt><trkpt lat="45.6708381" lon="9.3898418"><ele>240.0</ele><time>2026-04-11T14:40:46.364Z</time></trkpt><trkpt lat="45.6707392" lon="9.3897687"><ele>240.0</ele><time>2026-04-11T14:40:47.364Z</time></trkpt><trkpt lat="45.6706364" lon="9.3897074"><ele>240.0</ele><time>2026-04-11T14:40:48.365Z</time></trkpt><trkpt lat="45.6705324" lon="9.3896442"><ele>240.0</ele><time>2026-04-11T14:40:49.369Z</time></trkpt><trkpt lat="45.6704262" lon="9.3895781"><ele>240.0</ele><time>2026-04-11T14:40:50.365Z</time></trkpt><trkpt lat="45.6703175" lon="9.3895083"><ele>240.0</ele><time>2026-04-11T14:40:51.368Z</time></trkpt><trkpt lat="45.6702027" lon="9.3894389"><ele>240.0</ele><time>2026-04-11T14:40:52.359Z</time></trkpt><trkpt lat="45.6700886" lon="9.3893619"><ele>240.0</ele><time>2026-04-11T14:40:53.363Z</time></trkpt><trkpt lat="45.6699693" lon="9.3892814"><ele>239.75</ele><time>2026-04-11T14:40:54.365Z</time></trkpt><trkpt lat="45.6698528" lon="9.3892051"><ele>239.5</ele><time>2026-04-11T14:40:55.369Z</time></trkpt><trkpt lat="45.6697275" lon="9.3891307"><ele>239.25</ele><time>2026-04-11T14:40:56.367Z</time></trkpt><trkpt lat="45.6696038" lon="9.3890538"><ele>239.0</ele><time>2026-04-11T14:40:57.361Z</time></trkpt><trkpt lat="45.6694731" lon="9.3889818"><ele>238.75</ele><time>2026-04-11T14:40:58.369Z</time></trkpt><trkpt lat="45.6693377" lon="9.388916"><ele>238.5</ele><time>2026-04-11T14:40:59.363Z</time></trkpt><trkpt lat="45.6692084" lon="9.3888494"><ele>238.25</ele><time>2026-04-11T14:41:00.368Z</time></trkpt><trkpt lat="45.6690808" lon="9.3887795"><ele>238.0</ele><time>2026-04-11T14:41:01.363Z</time></trkpt><trkpt lat="45.6689483" lon="9.3887074"><ele>237.5</ele><time>2026-04-11T14:41:02.362Z</time></trkpt><trkpt lat="45.668823" lon="9.3886395"><ele>237.0</ele><time>2026-04-11T14:41:03.36Z</time></trkpt><trkpt lat="45.6686986" lon="9.3885689"><ele>236.5</ele><time>2026-04-11T14:41:04.37Z</time></trkpt><trkpt lat="45.6685808" lon="9.3885"><ele>236.0</ele><time>2026-04-11T14:41:05.358Z</time></trkpt><trkpt lat="45.6684655" lon="9.3884268"><ele>236.0</ele><time>2026-04-11T14:41:06.369Z</time></trkpt><trkpt lat="45.6683481" lon="9.3883522"><ele>236.0</ele><time>2026-04-11T14:41:07.361Z</time></trkpt><trkpt lat="45.6682272" lon="9.3882652"><ele>236.0</ele><time>2026-04-11T14:41:08.369Z</time></trkpt><trkpt lat="45.6681078" lon="9.3881796"><ele>236.0</ele><time>2026-04-11T14:41:09.361Z</time></trkpt><trkpt lat="45.6679933" lon="9.3880971"><ele>236.0</ele><time>2026-04-11T14:41:10.368Z</time></trkpt><trkpt lat="45.6678922" lon="9.3880256"><ele>236.00000000000003</ele><time>2026-04-11T14:41:11.359Z</time></trkpt><trkpt lat="45.6678055" lon="9.3879598"><ele>236.00000000000003</ele><time>2026-04-11T14:41:12.367Z</time></trkpt><trkpt lat="45.6677233" lon="9.3878996"><ele>236.0</ele><time>2026-04-11T14:41:13.361Z</time></trkpt><trkpt lat="45.6676483" lon="9.3878434"><ele>236.0</ele><time>2026-04-11T14:41:14.362Z</time></trkpt><trkpt lat="45.6675729" lon="9.3877853"><ele>235.66666666666669</ele><time>2026-04-11T14:41:15.359Z</time></trkpt><trkpt lat="45.6674966" lon="9.3877269"><ele>235.33333333333334</ele><time>2026-04-11T14:41:16.36Z</time></trkpt><trkpt lat="45.6674222" lon="9.3876665"><ele>235.0</ele><time>2026-04-11T14:41:17.359Z</time></trkpt><trkpt lat="45.6673547" lon="9.3876117"><ele>234.66666666666669</ele><time>2026-04-11T14:41:18.358Z</time></trkpt><trkpt lat="45.6672918" lon="9.3875597"><ele>234.33333333333334</ele><time>2026-04-11T14:41:19.361Z</time></trkpt><trkpt lat="45.667232" lon="9.3875113"><ele>234.0</ele><time>2026-04-11T14:41:20.37Z</time></trkpt><trkpt lat="45.6671738" lon="9.3874632"><ele>234.0</ele><time>2026-04-11T14:41:21.361Z</time></trkpt><trkpt lat="45.6671091" lon="9.3874192"><ele>233.99999999999997</ele><time>2026-04-11T14:41:22.367Z</time></trkpt><trkpt lat="45.667041" lon="9.3873596"><ele>233.99999999999997</ele><time>2026-04-11T14:41:23.362Z</time></trkpt><trkpt lat="45.6669611" lon="9.3872955"><ele>234.0</ele><time>2026-04-11T14:41:24.361Z</time></trkpt><trkpt lat="45.6667911" lon="9.3871615"><ele>234.0</ele><time>2026-04-11T14:41:26.361Z</time></trkpt><trkpt lat="45.6667001" lon="9.3870871"><ele>233.6</ele><time>2026-04-11T14:41:27.363Z</time></trkpt><trkpt lat="45.6666059" lon="9.3870106"><ele>233.2</ele><time>2026-04-11T14:41:28.361Z</time></trkpt><trkpt lat="45.6665124" lon="9.3869314"><ele>232.79999999999998</ele><time>2026-04-11T14:41:29.369Z</time></trkpt><trkpt lat="45.6664256" lon="9.3868576"><ele>232.39999999999998</ele><time>2026-04-11T14:41:30.362Z</time></trkpt><trkpt lat="45.6663458" lon="9.3867896"><ele>232.0</ele><time>2026-04-11T14:41:31.36Z</time></trkpt><trkpt lat="45.6662731" lon="9.3867252"><ele>231.99999999999997</ele><time>2026-04-11T14:41:32.359Z</time></trkpt><trkpt lat="45.6662062" lon="9.3866642"><ele>232.0</ele><time>2026-04-11T14:41:33.369Z</time></trkpt><trkpt lat="45.6661442" lon="9.3866085"><ele>232.0</ele><time>2026-04-11T14:41:34.363Z</time></trkpt><trkpt lat="45.6660779" lon="9.3865481"><ele>232.0</ele><time>2026-04-11T14:41:35.363Z</time></trkpt><trkpt lat="45.6660045" lon="9.3864877"><ele>231.99999999999997</ele><time>2026-04-11T14:41:36.361Z</time></trkpt><trkpt lat="45.665923" lon="9.3864208"><ele>232.0</ele><time>2026-04-11T14:41:37.368Z</time></trkpt><trkpt lat="45.6658385" lon="9.3863504"><ele>232.66666666666666</ele><time>2026-04-11T14:41:38.361Z</time></trkpt><trkpt lat="45.6656561" lon="9.3862047"><ele>233.33333333333331</ele><time>2026-04-11T14:41:40.361Z</time></trkpt><trkpt lat="45.6654596" lon="9.3860506"><ele>234.0</ele><time>2026-04-11T14:41:42.361Z</time></trkpt><trkpt lat="45.6653598" lon="9.3859665"><ele>233.39999999999998</ele><time>2026-04-11T14:41:43.36Z</time></trkpt><trkpt lat="45.6652656" lon="9.3858872"><ele>232.79999999999998</ele><time>2026-04-11T14:41:44.357Z</time></trkpt><trkpt lat="45.665171" lon="9.3858098"><ele>232.20000000000002</ele><time>2026-04-11T14:41:45.367Z</time></trkpt><trkpt lat="45.6650782" lon="9.385733"><ele>231.60000000000002</ele><time>2026-04-11T14:41:46.361Z</time></trkpt><trkpt lat="45.6649953" lon="9.3856572"><ele>231.0</ele><time>2026-04-11T14:41:47.369Z</time></trkpt><trkpt lat="45.6648433" lon="9.3855038"><ele>231.0</ele><time>2026-04-11T14:41:49.369Z</time></trkpt><trkpt lat="45.6646968" lon="9.3853504"><ele>231.00000000000003</ele><time>2026-04-11T14:41:51.362Z</time></trkpt><trkpt lat="45.6646198" lon="9.3852735"><ele>231.00000000000003</ele><time>2026-04-11T14:41:52.362Z</time></trkpt><trkpt lat="45.664545" lon="9.3852014"><ele>231.0</ele><time>2026-04-11T14:41:53.369Z</time></trkpt><trkpt lat="45.6644776" lon="9.3851384"><ele>231.0</ele><time>2026-04-11T14:41:54.362Z</time></trkpt><trkpt lat="45.664415" lon="9.3850746"><ele>230.83333333333334</ele><time>2026-04-11T14:41:55.369Z</time></trkpt><trkpt lat="45.6643559" lon="9.3850138"><ele>230.66666666666669</ele><time>2026-04-11T14:41:56.361Z</time></trkpt><trkpt lat="45.6642972" lon="9.3849546"><ele>230.5</ele><time>2026-04-11T14:41:57.37Z</time></trkpt><trkpt lat="45.6642469" lon="9.3848837"><ele>230.33333333333334</ele><time>2026-04-11T14:41:58.36Z</time></trkpt><trkpt lat="45.6642073" lon="9.3848102"><ele>230.16666666666669</ele><time>2026-04-11T14:41:59.365Z</time></trkpt><trkpt lat="45.6641263" lon="9.3846845"><ele>230.0</ele><time>2026-04-11T14:42:01.358Z</time></trkpt><trkpt lat="45.6640603" lon="9.3846691"><ele>230.0</ele><time>2026-04-11T14:42:02.361Z</time></trkpt><trkpt lat="45.6639834" lon="9.3846824"><ele>230.0</ele><time>2026-04-11T14:42:03.367Z</time></trkpt><trkpt lat="45.663902" lon="9.3846954"><ele>230.0</ele><time>2026-04-11T14:42:04.361Z</time></trkpt><trkpt lat="45.6638099" lon="9.3846668"><ele>230.0</ele><time>2026-04-11T14:42:05.368Z</time></trkpt><trkpt lat="45.6637021" lon="9.3846003"><ele>230.0</ele><time>2026-04-11T14:42:06.367Z</time></trkpt><trkpt lat="45.6636086" lon="9.3845284"><ele>230.25</ele><time>2026-04-11T14:42:07.365Z</time></trkpt><trkpt lat="45.6635137" lon="9.3844539"><ele>230.5</ele><time>2026-04-11T14:42:08.359Z</time></trkpt><trkpt lat="45.663417" lon="9.3843727"><ele>230.75</ele><time>2026-04-11T14:42:09.368Z</time></trkpt><trkpt lat="45.6633125" lon="9.3842876"><ele>231.0</ele><time>2026-04-11T14:42:10.36Z</time></trkpt><trkpt lat="45.6632069" lon="9.384203"><ele>231.0</ele><time>2026-04-11T14:42:11.368Z</time></trkpt><trkpt lat="45.6631048" lon="9.384117"><ele>231.0</ele><time>2026-04-11T14:42:12.36Z</time></trkpt><trkpt lat="45.6630059" lon="9.3840292"><ele>231.0</ele><time>2026-04-11T14:42:13.368Z</time></trkpt><trkpt lat="45.6629044" lon="9.3839434"><ele>231.0</ele><time>2026-04-11T14:42:14.36Z</time></trkpt><trkpt lat="45.6628062" lon="9.3838596"><ele>230.60000000000002</ele><time>2026-04-11T14:42:15.364Z</time></trkpt><trkpt lat="45.6627114" lon="9.3837766"><ele>230.20000000000002</ele><time>2026-04-11T14:42:16.361Z</time></trkpt><trkpt lat="45.6626244" lon="9.3836949"><ele>229.79999999999998</ele><time>2026-04-11T14:42:17.369Z</time></trkpt><trkpt lat="45.6625305" lon="9.3836026"><ele>229.39999999999998</ele><time>2026-04-11T14:42:18.363Z</time></trkpt><trkpt lat="45.6624335" lon="9.3835107"><ele>229.0</ele><time>2026-04-11T14:42:19.368Z</time></trkpt><trkpt lat="45.6623331" lon="9.3834169"><ele>229.0</ele><time>2026-04-11T14:42:20.363Z</time></trkpt><trkpt lat="45.6622287" lon="9.3833115"><ele>229.0</ele><time>2026-04-11T14:42:21.369Z</time></trkpt><trkpt lat="45.6621206" lon="9.3832088"><ele>229.0</ele><time>2026-04-11T14:42:22.356Z</time></trkpt><trkpt lat="45.662008" lon="9.3830976"><ele>229.0</ele><time>2026-04-11T14:42:23.363Z</time></trkpt><trkpt lat="45.6618946" lon="9.382984"><ele>229.0</ele><time>2026-04-11T14:42:24.36Z</time></trkpt><trkpt lat="45.6617917" lon="9.3828667"><ele>229.0</ele><time>2026-04-11T14:42:25.368Z</time></trkpt><trkpt lat="45.6616958" lon="9.3827596"><ele>229.0</ele><time>2026-04-11T14:42:26.361Z</time></trkpt><trkpt lat="45.6615935" lon="9.3826521"><ele>229.0</ele><time>2026-04-11T14:42:27.36Z</time></trkpt><trkpt lat="45.6614775" lon="9.3825292"><ele>229.0</ele><time>2026-04-11T14:42:28.361Z</time></trkpt><trkpt lat="45.6613535" lon="9.3824"><ele>229.0</ele><time>2026-04-11T14:42:29.368Z</time></trkpt><trkpt lat="45.6612288" lon="9.3822609"><ele>229.0</ele><time>2026-04-11T14:42:30.364Z</time></trkpt><trkpt lat="45.6611005" lon="9.3821206"><ele>230.75</ele><time>2026-04-11T14:42:31.362Z</time></trkpt><trkpt lat="45.6609811" lon="9.3819837"><ele>232.5</ele><time>2026-04-11T14:42:32.357Z</time></trkpt><trkpt lat="45.6608686" lon="9.3818486"><ele>234.25</ele><time>2026-04-11T14:42:33.369Z</time></trkpt><trkpt lat="45.660763" lon="9.3817187"><ele>236.0</ele><time>2026-04-11T14:42:34.357Z</time></trkpt><trkpt lat="45.6606628" lon="9.3815927"><ele>236.0</ele><time>2026-04-11T14:42:35.368Z</time></trkpt><trkpt lat="45.6605601" lon="9.3814611"><ele>236.0</ele><time>2026-04-11T14:42:36.362Z</time></trkpt><trkpt lat="45.6604543" lon="9.3813293"><ele>236.0</ele><time>2026-04-11T14:42:37.367Z</time></trkpt><trkpt lat="45.660346" lon="9.3811928"><ele>236.0</ele><time>2026-04-11T14:42:38.363Z</time></trkpt><trkpt lat="45.6602334" lon="9.3810505"><ele>235.25</ele><time>2026-04-11T14:42:39.363Z</time></trkpt><trkpt lat="45.6601243" lon="9.380905"><ele>234.5</ele><time>2026-04-11T14:42:40.358Z</time></trkpt><trkpt lat="45.6600189" lon="9.3807627"><ele>233.75</ele><time>2026-04-11T14:42:41.366Z</time></trkpt><trkpt lat="45.6599122" lon="9.3806175"><ele>233.0</ele><time>2026-04-11T14:42:42.357Z</time></trkpt><trkpt lat="45.6598055" lon="9.3804692"><ele>232.5</ele><time>2026-04-11T14:42:43.358Z</time></trkpt><trkpt lat="45.6597024" lon="9.3803193"><ele>232.0</ele><time>2026-04-11T14:42:44.357Z</time></trkpt><trkpt lat="45.6595979" lon="9.3801706"><ele>231.5</ele><time>2026-04-11T14:42:45.356Z</time></trkpt><trkpt lat="45.6594922" lon="9.3800197"><ele>231.0</ele><time>2026-04-11T14:42:46.359Z</time></trkpt><trkpt lat="45.6593903" lon="9.379869"><ele>231.0</ele><time>2026-04-11T14:42:47.362Z</time></trkpt><trkpt lat="45.6592906" lon="9.379716"><ele>231.0</ele><time>2026-04-11T14:42:48.364Z</time></trkpt><trkpt lat="45.6591892" lon="9.3795631"><ele>231.0</ele><time>2026-04-11T14:42:49.362Z</time></trkpt><trkpt lat="45.659083" lon="9.3794106"><ele>231.0</ele><time>2026-04-11T14:42:50.368Z</time></trkpt><trkpt lat="45.6589773" lon="9.3792492"><ele>232.33333333333331</ele><time>2026-04-11T14:42:51.362Z</time></trkpt><trkpt lat="45.65887" lon="9.3790834"><ele>233.66666666666666</ele><time>2026-04-11T14:42:52.369Z</time></trkpt><trkpt lat="45.6587645" lon="9.3789262"><ele>235.0</ele><time>2026-04-11T14:42:53.362Z</time></trkpt><trkpt lat="45.6586644" lon="9.3787703"><ele>234.25</ele><time>2026-04-11T14:42:54.37Z</time></trkpt><trkpt lat="45.6585691" lon="9.3786175"><ele>233.5</ele><time>2026-04-11T14:42:55.361Z</time></trkpt><trkpt lat="45.6584781" lon="9.378477"><ele>232.75</ele><time>2026-04-11T14:42:56.364Z</time></trkpt><trkpt lat="45.6583867" lon="9.3783397"><ele>232.0</ele><time>2026-04-11T14:42:57.363Z</time></trkpt><trkpt lat="45.6582969" lon="9.3782065"><ele>232.0</ele><time>2026-04-11T14:42:58.368Z</time></trkpt><trkpt lat="45.6582094" lon="9.3780675"><ele>232.0</ele><time>2026-04-11T14:42:59.363Z</time></trkpt><trkpt lat="45.658123" lon="9.3779238"><ele>232.0</ele><time>2026-04-11T14:43:00.37Z</time></trkpt><trkpt lat="45.6580342" lon="9.3777753"><ele>232.0</ele><time>2026-04-11T14:43:01.362Z</time></trkpt><trkpt lat="45.6579458" lon="9.3776206"><ele>233.66666666666666</ele><time>2026-04-11T14:43:02.371Z</time></trkpt><trkpt lat="45.6578533" lon="9.3774611"><ele>235.33333333333331</ele><time>2026-04-11T14:43:03.362Z</time></trkpt><trkpt lat="45.6577612" lon="9.3772972"><ele>237.0</ele><time>2026-04-11T14:43:04.366Z</time></trkpt><trkpt lat="45.6576597" lon="9.3771196"><ele>233.33333333333331</ele><time>2026-04-11T14:43:05.364Z</time></trkpt><trkpt lat="45.6575581" lon="9.3769355"><ele>229.66666666666666</ele><time>2026-04-11T14:43:06.37Z</time></trkpt><trkpt lat="45.6574448" lon="9.3767453"><ele>226.0</ele><time>2026-04-11T14:43:07.36Z</time></trkpt><trkpt lat="45.657311" lon="9.3765471"><ele>226.0</ele><time>2026-04-11T14:43:08.368Z</time></trkpt><trkpt lat="45.6571763" lon="9.376367"><ele>226.0</ele><time>2026-04-11T14:43:09.358Z</time></trkpt><trkpt lat="45.6570432" lon="9.3762012"><ele>226.0</ele><time>2026-04-11T14:43:10.37Z</time></trkpt><trkpt lat="45.65692" lon="9.3760365"><ele>226.0</ele><time>2026-04-11T14:43:11.363Z</time></trkpt><trkpt lat="45.6568006" lon="9.3758723"><ele>226.0</ele><time>2026-04-11T14:43:12.365Z</time></trkpt><trkpt lat="45.6566838" lon="9.3756977"><ele>226.0</ele><time>2026-04-11T14:43:13.361Z</time></trkpt><trkpt lat="45.6565807" lon="9.3755027"><ele>227.66666666666666</ele><time>2026-04-11T14:43:14.367Z</time></trkpt><trkpt lat="45.6564851" lon="9.3753108"><ele>229.33333333333331</ele><time>2026-04-11T14:43:15.362Z</time></trkpt><trkpt lat="45.6563906" lon="9.3751274"><ele>231.0</ele><time>2026-04-11T14:43:16.369Z</time></trkpt><trkpt lat="45.6563085" lon="9.3749455"><ele>231.0</ele><time>2026-04-11T14:43:17.362Z</time></trkpt><trkpt lat="45.6562321" lon="9.3747493"><ele>231.0</ele><time>2026-04-11T14:43:18.368Z</time></trkpt><trkpt lat="45.6561575" lon="9.3745527"><ele>231.0</ele><time>2026-04-11T14:43:19.36Z</time></trkpt><trkpt lat="45.6560814" lon="9.3743632"><ele>230.0</ele><time>2026-04-11T14:43:20.367Z</time></trkpt><trkpt lat="45.6560102" lon="9.3741742"><ele>229.0</ele><time>2026-04-11T14:43:21.364Z</time></trkpt><trkpt lat="45.6559415" lon="9.3739869"><ele>228.0</ele><time>2026-04-11T14:43:22.369Z</time></trkpt><trkpt lat="45.6558704" lon="9.3738"><ele>227.0</ele><time>2026-04-11T14:43:23.362Z</time></trkpt><trkpt lat="45.6557995" lon="9.3736184"><ele>227.0</ele><time>2026-04-11T14:43:24.364Z</time></trkpt><trkpt lat="45.655729" lon="9.3734335"><ele>227.0</ele><time>2026-04-11T14:43:25.361Z</time></trkpt><trkpt lat="45.6556606" lon="9.3732453"><ele>227.0</ele><time>2026-04-11T14:43:26.375Z</time></trkpt><trkpt lat="45.6555904" lon="9.3730599"><ele>227.0</ele><time>2026-04-11T14:43:27.36Z</time></trkpt><trkpt lat="45.6555246" lon="9.3728748"><ele>228.0</ele><time>2026-04-11T14:43:28.366Z</time></trkpt><trkpt lat="45.6554577" lon="9.3726893"><ele>229.0</ele><time>2026-04-11T14:43:29.366Z</time></trkpt><trkpt lat="45.6553901" lon="9.3725046"><ele>230.0</ele><time>2026-04-11T14:43:30.369Z</time></trkpt><trkpt lat="45.6553223" lon="9.3723154"><ele>231.0</ele><time>2026-04-11T14:43:31.364Z</time></trkpt><trkpt lat="45.6552552" lon="9.372129"><ele>228.33333333333331</ele><time>2026-04-11T14:43:32.371Z</time></trkpt><trkpt lat="45.6551871" lon="9.3719308"><ele>225.66666666666666</ele><time>2026-04-11T14:43:33.361Z</time></trkpt><trkpt lat="45.6551144" lon="9.3717188"><ele>223.0</ele><time>2026-04-11T14:43:34.37Z</time></trkpt><trkpt lat="45.6550354" lon="9.3715017"><ele>224.33333333333331</ele><time>2026-04-11T14:43:35.362Z</time></trkpt><trkpt lat="45.6549545" lon="9.3712762"><ele>225.66666666666669</ele><time>2026-04-11T14:43:36.365Z</time></trkpt><trkpt lat="45.6548643" lon="9.3710458"><ele>227.0</ele><time>2026-04-11T14:43:37.361Z</time></trkpt><trkpt lat="45.6547715" lon="9.3708147"><ele>227.0</ele><time>2026-04-11T14:43:38.371Z</time></trkpt><trkpt lat="45.6546759" lon="9.3705957"><ele>227.0</ele><time>2026-04-11T14:43:39.363Z</time></trkpt><trkpt lat="45.654565" lon="9.3703909"><ele>227.0</ele><time>2026-04-11T14:43:40.37Z</time></trkpt><trkpt lat="45.6544383" lon="9.3702069"><ele>224.66666666666669</ele><time>2026-04-11T14:43:41.362Z</time></trkpt><trkpt lat="45.6542934" lon="9.3700566"><ele>222.33333333333331</ele><time>2026-04-11T14:43:42.369Z</time></trkpt><trkpt lat="45.6541345" lon="9.3699349"><ele>220.0</ele><time>2026-04-11T14:43:43.361Z</time></trkpt><trkpt lat="45.6539689" lon="9.3698401"><ele>220.0</ele><time>2026-04-11T14:43:44.361Z</time></trkpt><trkpt lat="45.6538068" lon="9.3697605"><ele>220.0</ele><time>2026-04-11T14:43:45.362Z</time></trkpt><trkpt lat="45.6536572" lon="9.3696859"><ele>220.0</ele><time>2026-04-11T14:43:46.357Z</time></trkpt><trkpt lat="45.6535108" lon="9.3696099"><ele>219.5</ele><time>2026-04-11T14:43:47.362Z</time></trkpt><trkpt lat="45.6533685" lon="9.369543"><ele>219.0</ele><time>2026-04-11T14:43:48.37Z</time></trkpt><trkpt lat="45.6532314" lon="9.3694758"><ele>218.5</ele><time>2026-04-11T14:43:49.361Z</time></trkpt><trkpt lat="45.6530932" lon="9.3694096"><ele>218.0</ele><time>2026-04-11T14:43:50.368Z</time></trkpt><trkpt lat="45.652948" lon="9.3693461"><ele>218.0</ele><time>2026-04-11T14:43:51.363Z</time></trkpt><trkpt lat="45.6528013" lon="9.3692748"><ele>218.0</ele><time>2026-04-11T14:43:52.363Z</time></trkpt><trkpt lat="45.6526485" lon="9.3692049"><ele>218.0</ele><time>2026-04-11T14:43:53.361Z</time></trkpt><trkpt lat="45.6524944" lon="9.3691329"><ele>218.66666666666669</ele><time>2026-04-11T14:43:54.368Z</time></trkpt><trkpt lat="45.6523344" lon="9.3690582"><ele>219.33333333333331</ele><time>2026-04-11T14:43:55.36Z</time></trkpt><trkpt lat="45.6521701" lon="9.3689841"><ele>220.0</ele><time>2026-04-11T14:43:56.367Z</time></trkpt><trkpt lat="45.6520036" lon="9.3689157"><ele>220.0</ele><time>2026-04-11T14:43:57.362Z</time></trkpt><trkpt lat="45.6518248" lon="9.3688479"><ele>220.0</ele><time>2026-04-11T14:43:58.359Z</time></trkpt><trkpt lat="45.6516448" lon="9.3687811"><ele>220.0</ele><time>2026-04-11T14:43:59.362Z</time></trkpt><trkpt lat="45.6514667" lon="9.3687199"><ele>220.0</ele><time>2026-04-11T14:44:00.362Z</time></trkpt><trkpt lat="45.6512825" lon="9.368653"><ele>220.0</ele><time>2026-04-11T14:44:01.361Z</time></trkpt><trkpt lat="45.651088" lon="9.3685802"><ele>220.0</ele><time>2026-04-11T14:44:02.367Z</time></trkpt><trkpt lat="45.6509097" lon="9.3685168"><ele>220.0</ele><time>2026-04-11T14:44:03.362Z</time></trkpt><trkpt lat="45.65073" lon="9.3684527"><ele>220.0</ele><time>2026-04-11T14:44:04.368Z</time></trkpt><trkpt lat="45.650549" lon="9.3683899"><ele>220.0</ele><time>2026-04-11T14:44:05.362Z</time></trkpt><trkpt lat="45.6503723" lon="9.3683263"><ele>219.0</ele><time>2026-04-11T14:44:06.369Z</time></trkpt><trkpt lat="45.6502013" lon="9.3682635"><ele>218.0</ele><time>2026-04-11T14:44:07.362Z</time></trkpt><trkpt lat="45.6500354" lon="9.3682073"><ele>217.0</ele><time>2026-04-11T14:44:08.359Z</time></trkpt><trkpt lat="45.6498691" lon="9.3681517"><ele>217.0</ele><time>2026-04-11T14:44:09.361Z</time></trkpt><trkpt lat="45.6497042" lon="9.3680948"><ele>217.0</ele><time>2026-04-11T14:44:10.366Z</time></trkpt><trkpt lat="45.6495377" lon="9.3680398"><ele>217.0</ele><time>2026-04-11T14:44:11.361Z</time></trkpt><trkpt lat="45.6493722" lon="9.3679803"><ele>216.66666666666666</ele><time>2026-04-11T14:44:12.367Z</time></trkpt><trkpt lat="45.649205" lon="9.3679199"><ele>216.33333333333331</ele><time>2026-04-11T14:44:13.361Z</time></trkpt><trkpt lat="45.649035" lon="9.3678564"><ele>216.0</ele><time>2026-04-11T14:44:14.362Z</time></trkpt><trkpt lat="45.6488632" lon="9.367796"><ele>216.0</ele><time>2026-04-11T14:44:15.363Z</time></trkpt><trkpt lat="45.64869" lon="9.3677305"><ele>216.0</ele><time>2026-04-11T14:44:16.362Z</time></trkpt><trkpt lat="45.6485134" lon="9.3676645"><ele>216.0</ele><time>2026-04-11T14:44:17.364Z</time></trkpt><trkpt lat="45.6483304" lon="9.3676011"><ele>216.66666666666669</ele><time>2026-04-11T14:44:18.366Z</time></trkpt><trkpt lat="45.6481529" lon="9.3675372"><ele>217.33333333333334</ele><time>2026-04-11T14:44:19.362Z</time></trkpt><trkpt lat="45.6479832" lon="9.3674718"><ele>218.0</ele><time>2026-04-11T14:44:20.358Z</time></trkpt><trkpt lat="45.6478156" lon="9.3674155"><ele>218.33333333333334</ele><time>2026-04-11T14:44:21.361Z</time></trkpt><trkpt lat="45.6476548" lon="9.3673618"><ele>218.66666666666669</ele><time>2026-04-11T14:44:22.362Z</time></trkpt><trkpt lat="45.6474937" lon="9.3673056"><ele>219.0</ele><time>2026-04-11T14:44:23.366Z</time></trkpt><trkpt lat="45.6473337" lon="9.3672473"><ele>218.66666666666669</ele><time>2026-04-11T14:44:24.359Z</time></trkpt><trkpt lat="45.647174" lon="9.3671877"><ele>218.33333333333334</ele><time>2026-04-11T14:44:25.367Z</time></trkpt><trkpt lat="45.6470136" lon="9.3671298"><ele>218.0</ele><time>2026-04-11T14:44:26.361Z</time></trkpt><trkpt lat="45.6468566" lon="9.3670719"><ele>218.66666666666669</ele><time>2026-04-11T14:44:27.366Z</time></trkpt><trkpt lat="45.6466981" lon="9.3670149"><ele>219.33333333333331</ele><time>2026-04-11T14:44:28.363Z</time></trkpt><trkpt lat="45.6465365" lon="9.3669574"><ele>220.0</ele><time>2026-04-11T14:44:29.366Z</time></trkpt><trkpt lat="45.6463701" lon="9.3668964"><ele>220.0</ele><time>2026-04-11T14:44:30.361Z</time></trkpt><trkpt lat="45.646196" lon="9.3668344"><ele>220.0</ele><time>2026-04-11T14:44:31.365Z</time></trkpt><trkpt lat="45.6460181" lon="9.3667717"><ele>220.0</ele><time>2026-04-11T14:44:32.359Z</time></trkpt><trkpt lat="45.6458346" lon="9.3667034"><ele>218.33333333333331</ele><time>2026-04-11T14:44:33.361Z</time></trkpt><trkpt lat="45.6456484" lon="9.3666405"><ele>216.66666666666669</ele><time>2026-04-11T14:44:34.371Z</time></trkpt><trkpt lat="45.6454456" lon="9.3665668"><ele>215.0</ele><time>2026-04-11T14:44:35.361Z</time></trkpt><trkpt lat="45.6452404" lon="9.3664909"><ele>214.66666666666669</ele><time>2026-04-11T14:44:36.36Z</time></trkpt><trkpt lat="45.6450349" lon="9.3664114"><ele>214.33333333333331</ele><time>2026-04-11T14:44:37.362Z</time></trkpt><trkpt lat="45.6448328" lon="9.3663331"><ele>214.0</ele><time>2026-04-11T14:44:38.362Z</time></trkpt><trkpt lat="45.6446368" lon="9.3662531"><ele>215.66666666666666</ele><time>2026-04-11T14:44:39.362Z</time></trkpt><trkpt lat="45.6444413" lon="9.3661765"><ele>217.33333333333331</ele><time>2026-04-11T14:44:40.366Z</time></trkpt><trkpt lat="45.6442502" lon="9.3661052"><ele>219.0</ele><time>2026-04-11T14:44:41.361Z</time></trkpt><trkpt lat="45.6440667" lon="9.3660334"><ele>219.0</ele><time>2026-04-11T14:44:42.366Z</time></trkpt><trkpt lat="45.6438863" lon="9.3659652"><ele>219.0</ele><time>2026-04-11T14:44:43.364Z</time></trkpt><trkpt lat="45.6437013" lon="9.3658947"><ele>219.0</ele><time>2026-04-11T14:44:44.363Z</time></trkpt><trkpt lat="45.6435141" lon="9.3658214"><ele>218.0</ele><time>2026-04-11T14:44:45.369Z</time></trkpt><trkpt lat="45.6433257" lon="9.3657488"><ele>217.0</ele><time>2026-04-11T14:44:46.363Z</time></trkpt><trkpt lat="45.6431376" lon="9.3656757"><ele>216.0</ele><time>2026-04-11T14:44:47.366Z</time></trkpt><trkpt lat="45.6429543" lon="9.3656051"><ele>216.0</ele><time>2026-04-11T14:44:48.364Z</time></trkpt><trkpt lat="45.642772" lon="9.3655449"><ele>216.0</ele><time>2026-04-11T14:44:49.368Z</time></trkpt><trkpt lat="45.6425913" lon="9.3654816"><ele>216.0</ele><time>2026-04-11T14:44:50.363Z</time></trkpt><trkpt lat="45.6424152" lon="9.3654199"><ele>216.0</ele><time>2026-04-11T14:44:51.361Z</time></trkpt><trkpt lat="45.6422443" lon="9.3653595"><ele>216.0</ele><time>2026-04-11T14:44:52.361Z</time></trkpt><trkpt lat="45.6420699" lon="9.3653033"><ele>216.0</ele><time>2026-04-11T14:44:53.367Z</time></trkpt><trkpt lat="45.6419018" lon="9.3652418"><ele>215.66666666666669</ele><time>2026-04-11T14:44:54.362Z</time></trkpt><trkpt lat="45.6417389" lon="9.3651874"><ele>215.33333333333334</ele><time>2026-04-11T14:44:55.363Z</time></trkpt><trkpt lat="45.6415652" lon="9.3651266"><ele>215.0</ele><time>2026-04-11T14:44:56.361Z</time></trkpt><trkpt lat="45.6413887" lon="9.3650664"><ele>215.0</ele><time>2026-04-11T14:44:57.367Z</time></trkpt><trkpt lat="45.6412087" lon="9.3650022"><ele>215.0</ele><time>2026-04-11T14:44:58.361Z</time></trkpt><trkpt lat="45.6410295" lon="9.3649389"><ele>215.0</ele><time>2026-04-11T14:44:59.369Z</time></trkpt><trkpt lat="45.640849" lon="9.3648715"><ele>214.66666666666669</ele><time>2026-04-11T14:45:00.36Z</time></trkpt><trkpt lat="45.6406718" lon="9.3648114"><ele>214.33333333333331</ele><time>2026-04-11T14:45:01.368Z</time></trkpt><trkpt lat="45.6404981" lon="9.3647467"><ele>214.0</ele><time>2026-04-11T14:45:02.363Z</time></trkpt><trkpt lat="45.6403287" lon="9.3646825"><ele>213.33333333333331</ele><time>2026-04-11T14:45:03.359Z</time></trkpt><trkpt lat="45.6401639" lon="9.3646204"><ele>212.66666666666669</ele><time>2026-04-11T14:45:04.361Z</time></trkpt><trkpt lat="45.6399962" lon="9.3645653"><ele>212.0</ele><time>2026-04-11T14:45:05.363Z</time></trkpt><trkpt lat="45.6398265" lon="9.3645097"><ele>212.0</ele><time>2026-04-11T14:45:06.362Z</time></trkpt><trkpt lat="45.639656" lon="9.364444"><ele>212.0</ele><time>2026-04-11T14:45:07.368Z</time></trkpt><trkpt lat="45.6394812" lon="9.3643808"><ele>212.0</ele><time>2026-04-11T14:45:08.359Z</time></trkpt><trkpt lat="45.6393005" lon="9.3643186"><ele>211.66666666666669</ele><time>2026-04-11T14:45:09.366Z</time></trkpt><trkpt lat="45.6391243" lon="9.3642601"><ele>211.33333333333331</ele><time>2026-04-11T14:45:10.362Z</time></trkpt><trkpt lat="45.6389416" lon="9.3642001"><ele>211.0</ele><time>2026-04-11T14:45:11.359Z</time></trkpt><trkpt lat="45.638759" lon="9.3641437"><ele>211.33333333333331</ele><time>2026-04-11T14:45:12.359Z</time></trkpt><trkpt lat="45.6385699" lon="9.3640807"><ele>211.66666666666669</ele><time>2026-04-11T14:45:13.36Z</time></trkpt><trkpt lat="45.6383758" lon="9.3640156"><ele>212.0</ele><time>2026-04-11T14:45:14.36Z</time></trkpt><trkpt lat="45.6381804" lon="9.3639495"><ele>212.0</ele><time>2026-04-11T14:45:15.367Z</time></trkpt><trkpt lat="45.6379847" lon="9.3638861"><ele>212.0</ele><time>2026-04-11T14:45:16.362Z</time></trkpt><trkpt lat="45.637796" lon="9.3638325"><ele>212.0</ele><time>2026-04-11T14:45:17.367Z</time></trkpt><trkpt lat="45.6376151" lon="9.3637835"><ele>212.0</ele><time>2026-04-11T14:45:18.363Z</time></trkpt><trkpt lat="45.6374445" lon="9.3637316"><ele>212.0</ele><time>2026-04-11T14:45:19.362Z</time></trkpt><trkpt lat="45.6372791" lon="9.3636871"><ele>212.0</ele><time>2026-04-11T14:45:20.361Z</time></trkpt><trkpt lat="45.6371279" lon="9.3636431"><ele>212.0</ele><time>2026-04-11T14:45:21.368Z</time></trkpt><trkpt lat="45.6369865" lon="9.3635948"><ele>212.0</ele><time>2026-04-11T14:45:22.362Z</time></trkpt><trkpt lat="45.6368517" lon="9.3635426"><ele>212.0</ele><time>2026-04-11T14:45:23.367Z</time></trkpt><trkpt lat="45.6367094" lon="9.3634965"><ele>212.0</ele><time>2026-04-11T14:45:24.362Z</time></trkpt><trkpt lat="45.6365587" lon="9.3634556"><ele>211.66666666666669</ele><time>2026-04-11T14:45:25.361Z</time></trkpt><trkpt lat="45.6364014" lon="9.3634158"><ele>211.33333333333331</ele><time>2026-04-11T14:45:26.361Z</time></trkpt><trkpt lat="45.6362267" lon="9.3633819"><ele>211.0</ele><time>2026-04-11T14:45:27.363Z</time></trkpt><trkpt lat="45.6360428" lon="9.3633437"><ele>211.0</ele><time>2026-04-11T14:45:28.36Z</time></trkpt><trkpt lat="45.6358421" lon="9.3633015"><ele>211.0</ele><time>2026-04-11T14:45:29.361Z</time></trkpt><trkpt lat="45.635645" lon="9.3632604"><ele>211.0</ele><time>2026-04-11T14:45:30.363Z</time></trkpt><trkpt lat="45.6354533" lon="9.3632226"><ele>211.0</ele><time>2026-04-11T14:45:31.359Z</time></trkpt><trkpt lat="45.6352775" lon="9.3631852"><ele>211.0</ele><time>2026-04-11T14:45:32.361Z</time></trkpt><trkpt lat="45.6351125" lon="9.3631462"><ele>211.0</ele><time>2026-04-11T14:45:33.364Z</time></trkpt><trkpt lat="45.6349543" lon="9.3631071"><ele>211.0</ele><time>2026-04-11T14:45:34.361Z</time></trkpt><trkpt lat="45.6348018" lon="9.36306"><ele>211.0</ele><time>2026-04-11T14:45:35.367Z</time></trkpt><trkpt lat="45.6346506" lon="9.3629832"><ele>211.0</ele><time>2026-04-11T14:45:36.362Z</time></trkpt><trkpt lat="45.634498" lon="9.3628791"><ele>211.33333333333331</ele><time>2026-04-11T14:45:37.365Z</time></trkpt><trkpt lat="45.6343546" lon="9.3627362"><ele>211.66666666666669</ele><time>2026-04-11T14:45:38.362Z</time></trkpt><trkpt lat="45.6342258" lon="9.3625424"><ele>212.0</ele><time>2026-04-11T14:45:39.366Z</time></trkpt><trkpt lat="45.6341114" lon="9.3623331"><ele>211.66666666666669</ele><time>2026-04-11T14:45:40.362Z</time></trkpt><trkpt lat="45.6339823" lon="9.3621512"><ele>211.33333333333331</ele><time>2026-04-11T14:45:41.363Z</time></trkpt><trkpt lat="45.6338242" lon="9.3619956"><ele>211.0</ele><time>2026-04-11T14:45:42.362Z</time></trkpt><trkpt lat="45.6336767" lon="9.36186"><ele>211.25</ele><time>2026-04-11T14:45:43.364Z</time></trkpt><trkpt lat="45.6335517" lon="9.3617353"><ele>211.5</ele><time>2026-04-11T14:45:44.36Z</time></trkpt><trkpt lat="45.6334557" lon="9.3616313"><ele>211.75</ele><time>2026-04-11T14:45:45.366Z</time></trkpt><trkpt lat="45.6333785" lon="9.3615326"><ele>212.0</ele><time>2026-04-11T14:45:46.362Z</time></trkpt><trkpt lat="45.6333212" lon="9.3614485"><ele>211.83333333333334</ele><time>2026-04-11T14:45:47.365Z</time></trkpt><trkpt lat="45.633273" lon="9.3613531"><ele>211.66666666666669</ele><time>2026-04-11T14:45:48.363Z</time></trkpt><trkpt lat="45.6332241" lon="9.3612653"><ele>211.5</ele><time>2026-04-11T14:45:49.359Z</time></trkpt><trkpt lat="45.6331705" lon="9.3611963"><ele>211.33333333333331</ele><time>2026-04-11T14:45:50.358Z</time></trkpt><trkpt lat="45.6331087" lon="9.3611594"><ele>211.16666666666666</ele><time>2026-04-11T14:45:51.358Z</time></trkpt><trkpt lat="45.6329954" lon="9.3612017"><ele>211.0</ele><time>2026-04-11T14:45:53.368Z</time></trkpt><trkpt lat="45.6329549" lon="9.3612783"><ele>211.16666666666666</ele><time>2026-04-11T14:45:54.359Z</time></trkpt><trkpt lat="45.6329257" lon="9.361373"><ele>211.33333333333331</ele><time>2026-04-11T14:45:55.366Z</time></trkpt><trkpt lat="45.6329078" lon="9.3614691"><ele>211.5</ele><time>2026-04-11T14:45:56.359Z</time></trkpt><trkpt lat="45.6328873" lon="9.3615794"><ele>211.66666666666669</ele><time>2026-04-11T14:45:57.367Z</time></trkpt><trkpt lat="45.6328653" lon="9.3617016"><ele>211.83333333333334</ele><time>2026-04-11T14:45:58.362Z</time></trkpt><trkpt lat="45.6328388" lon="9.3618405"><ele>212.0</ele><time>2026-04-11T14:45:59.364Z</time></trkpt><trkpt lat="45.6328128" lon="9.3619875"><ele>211.8</ele><time>2026-04-11T14:46:00.36Z</time></trkpt><trkpt lat="45.6327873" lon="9.3621342"><ele>211.6</ele><time>2026-04-11T14:46:01.367Z</time></trkpt><trkpt lat="45.6327606" lon="9.3622715"><ele>211.4</ele><time>2026-04-11T14:46:02.36Z</time></trkpt><trkpt lat="45.6327137" lon="9.3624111"><ele>211.20000000000002</ele><time>2026-04-11T14:46:03.362Z</time></trkpt><trkpt lat="45.6326417" lon="9.3625174"><ele>211.0</ele><time>2026-04-11T14:46:04.361Z</time></trkpt><trkpt lat="45.6325457" lon="9.3625725"><ele>210.66666666666666</ele><time>2026-04-11T14:46:05.365Z</time></trkpt><trkpt lat="45.6324189" lon="9.3625767"><ele>210.33333333333331</ele><time>2026-04-11T14:46:06.359Z</time></trkpt><trkpt lat="45.6322692" lon="9.3625571"><ele>210.0</ele><time>2026-04-11T14:46:07.361Z</time></trkpt><trkpt lat="45.6320949" lon="9.3625306"><ele>209.66666666666669</ele><time>2026-04-11T14:46:08.361Z</time></trkpt><trkpt lat="45.6319043" lon="9.3624961"><ele>209.33333333333334</ele><time>2026-04-11T14:46:09.367Z</time></trkpt><trkpt lat="45.631696" lon="9.3624557"><ele>209.0</ele><time>2026-04-11T14:46:10.36Z</time></trkpt><trkpt lat="45.6314701" lon="9.3624031"><ele>209.0</ele><time>2026-04-11T14:46:11.369Z</time></trkpt><trkpt lat="45.6312376" lon="9.3623599"><ele>209.0</ele><time>2026-04-11T14:46:12.36Z</time></trkpt><trkpt lat="45.6309943" lon="9.3623141"><ele>209.0</ele><time>2026-04-11T14:46:13.366Z</time></trkpt><trkpt lat="45.63076" lon="9.3622686"><ele>209.0</ele><time>2026-04-11T14:46:14.362Z</time></trkpt><trkpt lat="45.6305331" lon="9.3622244"><ele>209.0</ele><time>2026-04-11T14:46:15.361Z</time></trkpt><trkpt lat="45.6303151" lon="9.3621778"><ele>209.0</ele><time>2026-04-11T14:46:16.36Z</time></trkpt><trkpt lat="45.6301051" lon="9.3621337"><ele>209.0</ele><time>2026-04-11T14:46:17.362Z</time></trkpt><trkpt lat="45.6298926" lon="9.3620891"><ele>209.0</ele><time>2026-04-11T14:46:18.361Z</time></trkpt><trkpt lat="45.6296634" lon="9.3620433"><ele>209.0</ele><time>2026-04-11T14:46:19.369Z</time></trkpt><trkpt lat="45.629432" lon="9.361999"><ele>209.0</ele><time>2026-04-11T14:46:20.358Z</time></trkpt><trkpt lat="45.6291934" lon="9.3619522"><ele>209.0</ele><time>2026-04-11T14:46:21.366Z</time></trkpt><trkpt lat="45.6289485" lon="9.361904"><ele>209.0</ele><time>2026-04-11T14:46:22.36Z</time></trkpt><trkpt lat="45.628708" lon="9.3618577"><ele>209.0</ele><time>2026-04-11T14:46:23.361Z</time></trkpt><trkpt lat="45.6284691" lon="9.361815"><ele>208.5</ele><time>2026-04-11T14:46:24.36Z</time></trkpt><trkpt lat="45.628235" lon="9.3617683"><ele>208.0</ele><time>2026-04-11T14:46:25.359Z</time></trkpt><trkpt lat="45.6280113" lon="9.36172"><ele>207.0</ele><time>2026-04-11T14:46:26.357Z</time></trkpt><trkpt lat="45.6277888" lon="9.3616714"><ele>206.0</ele><time>2026-04-11T14:46:27.367Z</time></trkpt><trkpt lat="45.627556" lon="9.361628"><ele>206.0</ele><time>2026-04-11T14:46:28.361Z</time></trkpt><trkpt lat="45.627319" lon="9.3615786"><ele>206.0</ele><time>2026-04-11T14:46:29.359Z</time></trkpt><trkpt lat="45.6270975" lon="9.3615346"><ele>205.0</ele><time>2026-04-11T14:46:30.361Z</time></trkpt><trkpt lat="45.6268827" lon="9.361494"><ele>204.0</ele><time>2026-04-11T14:46:31.362Z</time></trkpt><trkpt lat="45.6266629" lon="9.3614505"><ele>203.0</ele><time>2026-04-11T14:46:32.36Z</time></trkpt><trkpt lat="45.6264451" lon="9.3614068"><ele>203.0</ele><time>2026-04-11T14:46:33.367Z</time></trkpt><trkpt lat="45.6262225" lon="9.3613631"><ele>203.0</ele><time>2026-04-11T14:46:34.363Z</time></trkpt><trkpt lat="45.6260042" lon="9.3613195"><ele>203.0</ele><time>2026-04-11T14:46:35.354Z</time></trkpt><trkpt lat="45.6257883" lon="9.3612781"><ele>202.33333333333334</ele><time>2026-04-11T14:46:36.357Z</time></trkpt><trkpt lat="45.6255782" lon="9.3612339"><ele>201.66666666666669</ele><time>2026-04-11T14:46:37.365Z</time></trkpt><trkpt lat="45.625369" lon="9.3611938"><ele>201.0</ele><time>2026-04-11T14:46:38.359Z</time></trkpt><trkpt lat="45.6251626" lon="9.3611541"><ele>201.0</ele><time>2026-04-11T14:46:39.363Z</time></trkpt><trkpt lat="45.6249654" lon="9.3611101"><ele>201.0</ele><time>2026-04-11T14:46:40.365Z</time></trkpt><trkpt lat="45.6247726" lon="9.361073"><ele>201.0</ele><time>2026-04-11T14:46:41.362Z</time></trkpt><trkpt lat="45.6245868" lon="9.3610355"><ele>200.33333333333331</ele><time>2026-04-11T14:46:42.361Z</time></trkpt><trkpt lat="45.6244022" lon="9.3609995"><ele>199.66666666666666</ele><time>2026-04-11T14:46:43.359Z</time></trkpt><trkpt lat="45.6242009" lon="9.3609593"><ele>199.0</ele><time>2026-04-11T14:46:44.369Z</time></trkpt><trkpt lat="45.6239951" lon="9.3609181"><ele>199.0</ele><time>2026-04-11T14:46:45.359Z</time></trkpt><trkpt lat="45.6237987" lon="9.3608786"><ele>199.0</ele><time>2026-04-11T14:46:46.356Z</time></trkpt><trkpt lat="45.6236079" lon="9.3608403"><ele>199.0</ele><time>2026-04-11T14:46:47.357Z</time></trkpt><trkpt lat="45.6234138" lon="9.3608037"><ele>199.0</ele><time>2026-04-11T14:46:48.361Z</time></trkpt><trkpt lat="45.6232181" lon="9.3607669"><ele>199.0</ele><time>2026-04-11T14:46:49.365Z</time></trkpt><trkpt lat="45.6230274" lon="9.3607351"><ele>199.0</ele><time>2026-04-11T14:46:50.368Z</time></trkpt><trkpt lat="45.6228436" lon="9.3606968"><ele>198.0</ele><time>2026-04-11T14:46:51.359Z</time></trkpt><trkpt lat="45.6226685" lon="9.3606625"><ele>197.0</ele><time>2026-04-11T14:46:52.368Z</time></trkpt><trkpt lat="45.6224948" lon="9.3606273"><ele>196.0</ele><time>2026-04-11T14:46:53.36Z</time></trkpt><trkpt lat="45.6223272" lon="9.3605938"><ele>196.0</ele><time>2026-04-11T14:46:54.367Z</time></trkpt><trkpt lat="45.6221581" lon="9.3605546"><ele>196.0</ele><time>2026-04-11T14:46:55.362Z</time></trkpt><trkpt lat="45.6219803" lon="9.3605055"><ele>196.0</ele><time>2026-04-11T14:46:56.363Z</time></trkpt><trkpt lat="45.6217952" lon="9.3604467"><ele>196.33333333333331</ele><time>2026-04-11T14:46:57.362Z</time></trkpt><trkpt lat="45.6216086" lon="9.360386"><ele>196.66666666666669</ele><time>2026-04-11T14:46:58.36Z</time></trkpt><trkpt lat="45.6214181" lon="9.3603256"><ele>197.0</ele><time>2026-04-11T14:46:59.362Z</time></trkpt><trkpt lat="45.6212286" lon="9.3602562"><ele>196.0</ele><time>2026-04-11T14:47:00.366Z</time></trkpt><trkpt lat="45.6210333" lon="9.3601933"><ele>195.0</ele><time>2026-04-11T14:47:01.356Z</time></trkpt><trkpt lat="45.6208286" lon="9.3601583"><ele>194.0</ele><time>2026-04-11T14:47:02.366Z</time></trkpt><trkpt lat="45.6206217" lon="9.360118"><ele>194.0</ele><time>2026-04-11T14:47:03.359Z</time></trkpt><trkpt lat="45.6204244" lon="9.3600844"><ele>194.0</ele><time>2026-04-11T14:47:04.361Z</time></trkpt><trkpt lat="45.620233" lon="9.3600596"><ele>194.0</ele><time>2026-04-11T14:47:05.362Z</time></trkpt><trkpt lat="45.6200525" lon="9.3600329"><ele>193.25</ele><time>2026-04-11T14:47:06.369Z</time></trkpt><trkpt lat="45.6198899" lon="9.3600141"><ele>192.5</ele><time>2026-04-11T14:47:07.36Z</time></trkpt><trkpt lat="45.6197427" lon="9.3599951"><ele>191.75</ele><time>2026-04-11T14:47:08.366Z</time></trkpt><trkpt lat="45.6196124" lon="9.3599758"><ele>191.0</ele><time>2026-04-11T14:47:09.363Z</time></trkpt><trkpt lat="45.6194914" lon="9.3599558"><ele>191.25</ele><time>2026-04-11T14:47:10.365Z</time></trkpt><trkpt lat="45.6193786" lon="9.3599418"><ele>191.5</ele><time>2026-04-11T14:47:11.361Z</time></trkpt><trkpt lat="45.6192597" lon="9.3599322"><ele>191.75</ele><time>2026-04-11T14:47:12.364Z</time></trkpt><trkpt lat="45.6191443" lon="9.3599196"><ele>192.0</ele><time>2026-04-11T14:47:13.361Z</time></trkpt><trkpt lat="45.6190361" lon="9.3599042"><ele>192.0</ele><time>2026-04-11T14:47:14.368Z</time></trkpt><trkpt lat="45.6189288" lon="9.3598883"><ele>192.0</ele><time>2026-04-11T14:47:15.362Z</time></trkpt><trkpt lat="45.6188277" lon="9.3598724"><ele>192.0</ele><time>2026-04-11T14:47:16.369Z</time></trkpt><trkpt lat="45.6187324" lon="9.3598536"><ele>192.0</ele><time>2026-04-11T14:47:17.361Z</time></trkpt><trkpt lat="45.6186408" lon="9.3598414"><ele>192.0</ele><time>2026-04-11T14:47:18.361Z</time></trkpt><trkpt lat="45.6185491" lon="9.3598233"><ele>192.33333333333334</ele><time>2026-04-11T14:47:19.358Z</time></trkpt><trkpt lat="45.6184754" lon="9.3598079"><ele>192.66666666666669</ele><time>2026-04-11T14:47:20.362Z</time></trkpt><trkpt lat="45.6184033" lon="9.3597999"><ele>193.0</ele><time>2026-04-11T14:47:21.359Z</time></trkpt><trkpt lat="45.6183337" lon="9.3597873"><ele>193.33333333333334</ele><time>2026-04-11T14:47:22.366Z</time></trkpt><trkpt lat="45.618216" lon="9.3597653"><ele>193.66666666666669</ele><time>2026-04-11T14:47:24.367Z</time></trkpt><trkpt lat="45.6181152" lon="9.3597454"><ele>194.0</ele><time>2026-04-11T14:47:26.361Z</time></trkpt><trkpt lat="45.617999" lon="9.3597206"><ele>194.0</ele><time>2026-04-11T14:47:28.362Z</time></trkpt><trkpt lat="45.6178921" lon="9.3597047"><ele>194.0</ele><time>2026-04-11T14:47:30.362Z</time></trkpt><trkpt lat="45.6177913" lon="9.3596867"><ele>194.0</ele><time>2026-04-11T14:47:32.361Z</time></trkpt><trkpt lat="45.6176798" lon="9.3596626"><ele>194.0</ele><time>2026-04-11T14:47:34.365Z</time></trkpt><trkpt lat="45.6176109" lon="9.3596457"><ele>194.0</ele><time>2026-04-11T14:47:35.36Z</time></trkpt><trkpt lat="45.6175283" lon="9.3596271"><ele>193.79999999999998</ele><time>2026-04-11T14:47:36.365Z</time></trkpt><trkpt lat="45.6174394" lon="9.3596038"><ele>193.6</ele><time>2026-04-11T14:47:37.36Z</time></trkpt><trkpt lat="45.617356" lon="9.3595949"><ele>193.4</ele><time>2026-04-11T14:47:38.363Z</time></trkpt><trkpt lat="45.6172769" lon="9.3596318"><ele>193.2</ele><time>2026-04-11T14:47:39.361Z</time></trkpt><trkpt lat="45.6171842" lon="9.3596728"><ele>193.0</ele><time>2026-04-11T14:47:40.365Z</time></trkpt><trkpt lat="45.6170696" lon="9.3596766"><ele>192.8</ele><time>2026-04-11T14:47:41.359Z</time></trkpt><trkpt lat="45.6169399" lon="9.3596686"><ele>192.60000000000002</ele><time>2026-04-11T14:47:42.366Z</time></trkpt><trkpt lat="45.6168287" lon="9.3596496"><ele>192.39999999999998</ele><time>2026-04-11T14:47:43.361Z</time></trkpt><trkpt lat="45.6167239" lon="9.3596279"><ele>192.2</ele><time>2026-04-11T14:47:44.366Z</time></trkpt><trkpt lat="45.6166303" lon="9.3596119"><ele>192.0</ele><time>2026-04-11T14:47:45.36Z</time></trkpt><trkpt lat="45.6165462" lon="9.3595878"><ele>192.0</ele><time>2026-04-11T14:47:46.366Z</time></trkpt><trkpt lat="45.616465" lon="9.3595575"><ele>192.0</ele><time>2026-04-11T14:47:47.36Z</time></trkpt><trkpt lat="45.6163847" lon="9.3595197"><ele>192.0</ele><time>2026-04-11T14:47:48.367Z</time></trkpt><trkpt lat="45.616307" lon="9.3594756"><ele>192.0</ele><time>2026-04-11T14:47:49.359Z</time></trkpt><trkpt lat="45.6162332" lon="9.3594341"><ele>192.0</ele><time>2026-04-11T14:47:50.366Z</time></trkpt><trkpt lat="45.6161591" lon="9.3594026"><ele>192.0</ele><time>2026-04-11T14:47:51.372Z</time></trkpt><trkpt lat="45.6160814" lon="9.3593754"><ele>191.6</ele><time>2026-04-11T14:47:52.365Z</time></trkpt><trkpt lat="45.6160095" lon="9.359353"><ele>191.2</ele><time>2026-04-11T14:47:53.358Z</time></trkpt><trkpt lat="45.6159335" lon="9.3593353"><ele>190.8</ele><time>2026-04-11T14:47:54.364Z</time></trkpt><trkpt lat="45.6158455" lon="9.359315"><ele>190.4</ele><time>2026-04-11T14:47:55.365Z</time></trkpt><trkpt lat="45.6157492" lon="9.3592945"><ele>190.0</ele><time>2026-04-11T14:47:56.361Z</time></trkpt><trkpt lat="45.6156328" lon="9.3592721"><ele>190.0</ele><time>2026-04-11T14:47:57.365Z</time></trkpt><trkpt lat="45.6154947" lon="9.3592486"><ele>190.0</ele><time>2026-04-11T14:47:58.359Z</time></trkpt><trkpt lat="45.6153237" lon="9.3592094"><ele>190.0</ele><time>2026-04-11T14:47:59.367Z</time></trkpt><trkpt lat="45.6151733" lon="9.3591737"><ele>190.0</ele><time>2026-04-11T14:48:00.356Z</time></trkpt><trkpt lat="45.6150304" lon="9.3591471"><ele>190.0</ele><time>2026-04-11T14:48:01.369Z</time></trkpt><trkpt lat="45.6149003" lon="9.3591257"><ele>190.0</ele><time>2026-04-11T14:48:02.362Z</time></trkpt><trkpt lat="45.6147727" lon="9.3591185"><ele>190.0</ele><time>2026-04-11T14:48:03.366Z</time></trkpt><trkpt lat="45.6146371" lon="9.3591205"><ele>190.0</ele><time>2026-04-11T14:48:04.36Z</time></trkpt><trkpt lat="45.6145111" lon="9.3591136"><ele>190.0</ele><time>2026-04-11T14:48:05.366Z</time></trkpt><trkpt lat="45.6143982" lon="9.3590997"><ele>190.0</ele><time>2026-04-11T14:48:06.36Z</time></trkpt><trkpt lat="45.6142918" lon="9.3590859"><ele>190.0</ele><time>2026-04-11T14:48:07.359Z</time></trkpt><trkpt lat="45.6141908" lon="9.3590749"><ele>190.0</ele><time>2026-04-11T14:48:08.361Z</time></trkpt><trkpt lat="45.6140997" lon="9.359058"><ele>190.0</ele><time>2026-04-11T14:48:09.365Z</time></trkpt><trkpt lat="45.6140164" lon="9.3590482"><ele>190.0</ele><time>2026-04-11T14:48:10.359Z</time></trkpt><trkpt lat="45.6139402" lon="9.3590361"><ele>190.0</ele><time>2026-04-11T14:48:11.366Z</time></trkpt><trkpt lat="45.6138695" lon="9.3590216"><ele>190.0</ele><time>2026-04-11T14:48:12.359Z</time></trkpt><trkpt lat="45.6137904" lon="9.358991"><ele>190.0</ele><time>2026-04-11T14:48:14.367Z</time></trkpt><trkpt lat="45.6136962" lon="9.3589434"><ele>190.0</ele><time>2026-04-11T14:48:16.362Z</time></trkpt><trkpt lat="45.6136239" lon="9.3589325"><ele>189.75</ele><time>2026-04-11T14:48:17.364Z</time></trkpt><trkpt lat="45.6135255" lon="9.3589685"><ele>189.5</ele><time>2026-04-11T14:48:18.362Z</time></trkpt><trkpt lat="45.6134041" lon="9.359002"><ele>189.25</ele><time>2026-04-11T14:48:19.362Z</time></trkpt><trkpt lat="45.6132542" lon="9.3590246"><ele>189.0</ele><time>2026-04-11T14:48:20.368Z</time></trkpt><trkpt lat="45.6130959" lon="9.359058"><ele>189.0</ele><time>2026-04-11T14:48:21.362Z</time></trkpt><trkpt lat="45.6129428" lon="9.3590977"><ele>189.0</ele><time>2026-04-11T14:48:22.368Z</time></trkpt><trkpt lat="45.6127975" lon="9.3591375"><ele>189.0</ele><time>2026-04-11T14:48:23.367Z</time></trkpt><trkpt lat="45.612658" lon="9.3591794"><ele>189.0</ele><time>2026-04-11T14:48:24.36Z</time></trkpt><trkpt lat="45.6125287" lon="9.3592128"><ele>188.75</ele><time>2026-04-11T14:48:25.367Z</time></trkpt><trkpt lat="45.6124082" lon="9.3592485"><ele>188.5</ele><time>2026-04-11T14:48:26.36Z</time></trkpt><trkpt lat="45.6122989" lon="9.3592811"><ele>188.25</ele><time>2026-04-11T14:48:27.359Z</time></trkpt><trkpt lat="45.6121801" lon="9.3593194"><ele>188.0</ele><time>2026-04-11T14:48:28.361Z</time></trkpt><trkpt lat="45.6120454" lon="9.3593584"><ele>188.25</ele><time>2026-04-11T14:48:29.361Z</time></trkpt><trkpt lat="45.6119131" lon="9.3593896"><ele>188.5</ele><time>2026-04-11T14:48:30.361Z</time></trkpt><trkpt lat="45.611768" lon="9.3593942"><ele>188.75</ele><time>2026-04-11T14:48:31.368Z</time></trkpt><trkpt lat="45.6116354" lon="9.3594035"><ele>189.0</ele><time>2026-04-11T14:48:32.359Z</time></trkpt><trkpt lat="45.6114937" lon="9.3594248"><ele>189.0</ele><time>2026-04-11T14:48:33.366Z</time></trkpt><trkpt lat="45.6113387" lon="9.3594581"><ele>189.0</ele><time>2026-04-11T14:48:34.359Z</time></trkpt><trkpt lat="45.6111812" lon="9.3595083"><ele>189.0</ele><time>2026-04-11T14:48:35.359Z</time></trkpt><trkpt lat="45.6110354" lon="9.3595602"><ele>188.75</ele><time>2026-04-11T14:48:36.361Z</time></trkpt><trkpt lat="45.6108979" lon="9.3596134"><ele>188.5</ele><time>2026-04-11T14:48:37.362Z</time></trkpt><trkpt lat="45.6107721" lon="9.3596662"><ele>188.25</ele><time>2026-04-11T14:48:38.359Z</time></trkpt><trkpt lat="45.6106522" lon="9.3597144"><ele>188.0</ele><time>2026-04-11T14:48:39.367Z</time></trkpt><trkpt lat="45.6105388" lon="9.3597664"><ele>187.5</ele><time>2026-04-11T14:48:40.361Z</time></trkpt><trkpt lat="45.610416" lon="9.3598189"><ele>187.0</ele><time>2026-04-11T14:48:41.366Z</time></trkpt><trkpt lat="45.6102916" lon="9.3598634"><ele>186.5</ele><time>2026-04-11T14:48:42.358Z</time></trkpt><trkpt lat="45.610167" lon="9.3599143"><ele>186.0</ele><time>2026-04-11T14:48:43.366Z</time></trkpt><trkpt lat="45.6100426" lon="9.3599613"><ele>185.25</ele><time>2026-04-11T14:48:44.36Z</time></trkpt><trkpt lat="45.609917" lon="9.3600107"><ele>184.5</ele><time>2026-04-11T14:48:45.365Z</time></trkpt><trkpt lat="45.6097895" lon="9.3600624"><ele>183.75</ele><time>2026-04-11T14:48:46.36Z</time></trkpt><trkpt lat="45.6096688" lon="9.3601115"><ele>183.0</ele><time>2026-04-11T14:48:47.368Z</time></trkpt><trkpt lat="45.6095569" lon="9.360157"><ele>183.4</ele><time>2026-04-11T14:48:48.361Z</time></trkpt><trkpt lat="45.6094427" lon="9.3602051"><ele>183.8</ele><time>2026-04-11T14:48:49.36Z</time></trkpt><trkpt lat="45.6093353" lon="9.3602484"><ele>184.2</ele><time>2026-04-11T14:48:50.369Z</time></trkpt><trkpt lat="45.6092321" lon="9.3602949"><ele>184.6</ele><time>2026-04-11T14:48:51.361Z</time></trkpt><trkpt lat="45.609133" lon="9.3603376"><ele>185.0</ele><time>2026-04-11T14:48:52.367Z</time></trkpt><trkpt lat="45.6090402" lon="9.3603812"><ele>185.0</ele><time>2026-04-11T14:48:53.362Z</time></trkpt><trkpt lat="45.6089552" lon="9.3604219"><ele>185.0</ele><time>2026-04-11T14:48:54.365Z</time></trkpt><trkpt lat="45.608872" lon="9.3604683"><ele>185.0</ele><time>2026-04-11T14:48:55.36Z</time></trkpt><trkpt lat="45.6087996" lon="9.3605099"><ele>185.0</ele><time>2026-04-11T14:48:56.364Z</time></trkpt><trkpt lat="45.6087211" lon="9.3605563"><ele>185.0</ele><time>2026-04-11T14:48:57.36Z</time></trkpt><trkpt lat="45.6086442" lon="9.3605865"><ele>185.0</ele><time>2026-04-11T14:48:58.366Z</time></trkpt><trkpt lat="45.6085643" lon="9.3605927"><ele>184.99999999999997</ele><time>2026-04-11T14:48:59.362Z</time></trkpt><trkpt lat="45.6084904" lon="9.3605798"><ele>185.0</ele><time>2026-04-11T14:49:00.367Z</time></trkpt><trkpt lat="45.6084237" lon="9.3605708"><ele>185.0</ele><time>2026-04-11T14:49:01.358Z</time></trkpt><trkpt lat="45.6083557" lon="9.3605772"><ele>185.0</ele><time>2026-04-11T14:49:02.361Z</time></trkpt><trkpt lat="45.6082908" lon="9.3606216"><ele>185.0</ele><time>2026-04-11T14:49:03.363Z</time></trkpt><trkpt lat="45.6082452" lon="9.3607054"><ele>184.99999999999997</ele><time>2026-04-11T14:49:04.361Z</time></trkpt><trkpt lat="45.6082317" lon="9.3608044"><ele>185.0</ele><time>2026-04-11T14:49:05.364Z</time></trkpt><trkpt lat="45.6082533" lon="9.3609022"><ele>185.0</ele><time>2026-04-11T14:49:06.36Z</time></trkpt><trkpt lat="45.608308" lon="9.3609774"><ele>185.0</ele><time>2026-04-11T14:49:07.364Z</time></trkpt><trkpt lat="45.6083811" lon="9.361011"><ele>185.0</ele><time>2026-04-11T14:49:08.357Z</time></trkpt><trkpt lat="45.6084522" lon="9.3609907"><ele>185.0</ele><time>2026-04-11T14:49:09.366Z</time></trkpt><trkpt lat="45.6085082" lon="9.360936"><ele>185.0</ele><time>2026-04-11T14:49:10.362Z</time></trkpt><trkpt lat="45.6085445" lon="9.3608435"><ele>185.0</ele><time>2026-04-11T14:49:11.368Z</time></trkpt><trkpt lat="45.608542" lon="9.3607233"><ele>185.0</ele><time>2026-04-11T14:49:12.361Z</time></trkpt><trkpt lat="45.6085034" lon="9.3606015"><ele>185.0</ele><time>2026-04-11T14:49:13.368Z</time></trkpt><trkpt lat="45.6084679" lon="9.3604861"><ele>185.0</ele><time>2026-04-11T14:49:14.36Z</time></trkpt><trkpt lat="45.6084527" lon="9.3603576"><ele>185.0</ele><time>2026-04-11T14:49:15.366Z</time></trkpt><trkpt lat="45.6084491" lon="9.3602174"><ele>185.0</ele><time>2026-04-11T14:49:16.363Z</time></trkpt><trkpt lat="45.6084476" lon="9.3600766"><ele>184.66666666666666</ele><time>2026-04-11T14:49:17.365Z</time></trkpt><trkpt lat="45.6084506" lon="9.3599429"><ele>184.33333333333331</ele><time>2026-04-11T14:49:18.362Z</time></trkpt><trkpt lat="45.608449" lon="9.3598204"><ele>184.0</ele><time>2026-04-11T14:49:19.359Z</time></trkpt><trkpt lat="45.6084503" lon="9.359714"><ele>183.66666666666666</ele><time>2026-04-11T14:49:20.365Z</time></trkpt><trkpt lat="45.6084575" lon="9.359613"><ele>183.33333333333334</ele><time>2026-04-11T14:49:21.363Z</time></trkpt><trkpt lat="45.608472" lon="9.3595248"><ele>183.0</ele><time>2026-04-11T14:49:22.367Z</time></trkpt><trkpt lat="45.6084992" lon="9.3593476"><ele>182.8</ele><time>2026-04-11T14:49:24.365Z</time></trkpt><trkpt lat="45.6084923" lon="9.3592555"><ele>182.60000000000002</ele><time>2026-04-11T14:49:25.357Z</time></trkpt><trkpt lat="45.6083838" lon="9.3591571"><ele>182.39999999999998</ele><time>2026-04-11T14:49:27.362Z</time></trkpt><trkpt lat="45.6083158" lon="9.3591446"><ele>182.2</ele><time>2026-04-11T14:49:28.36Z</time></trkpt><trkpt lat="45.6082089" lon="9.3591872"><ele>182.0</ele><time>2026-04-11T14:49:29.357Z</time></trkpt><trkpt lat="45.6080843" lon="9.3591823"><ele>182.0</ele><time>2026-04-11T14:49:30.361Z</time></trkpt><trkpt lat="45.6079463" lon="9.3591804"><ele>182.0</ele><time>2026-04-11T14:49:31.362Z</time></trkpt><trkpt lat="45.6077795" lon="9.3591798"><ele>182.0</ele><time>2026-04-11T14:49:32.365Z</time></trkpt><trkpt lat="45.6076009" lon="9.3591766"><ele>183.0</ele><time>2026-04-11T14:49:33.362Z</time></trkpt><trkpt lat="45.6074334" lon="9.3591764"><ele>184.0</ele><time>2026-04-11T14:49:34.362Z</time></trkpt><trkpt lat="45.6072764" lon="9.3591726"><ele>185.0</ele><time>2026-04-11T14:49:35.362Z</time></trkpt><trkpt lat="45.6071327" lon="9.359171"><ele>185.0</ele><time>2026-04-11T14:49:36.366Z</time></trkpt><trkpt lat="45.6070045" lon="9.3591672"><ele>185.0</ele><time>2026-04-11T14:49:37.36Z</time></trkpt><trkpt lat="45.6068999" lon="9.3591672"><ele>185.0</ele><time>2026-04-11T14:49:38.365Z</time></trkpt><trkpt lat="45.6068126" lon="9.3591613"><ele>185.0</ele><time>2026-04-11T14:49:39.359Z</time></trkpt><trkpt lat="45.6067325" lon="9.3591397"><ele>185.0</ele><time>2026-04-11T14:49:40.364Z</time></trkpt><trkpt lat="45.6066465" lon="9.3591017"><ele>184.6</ele><time>2026-04-11T14:49:41.358Z</time></trkpt><trkpt lat="45.6065671" lon="9.359076"><ele>184.2</ele><time>2026-04-11T14:49:42.368Z</time></trkpt><trkpt lat="45.6064813" lon="9.3590911"><ele>183.8</ele><time>2026-04-11T14:49:43.358Z</time></trkpt><trkpt lat="45.6063836" lon="9.3591305"><ele>183.4</ele><time>2026-04-11T14:49:44.361Z</time></trkpt><trkpt lat="45.6062887" lon="9.3591452"><ele>183.0</ele><time>2026-04-11T14:49:45.359Z</time></trkpt><trkpt lat="45.6061667" lon="9.3591271"><ele>183.33333333333334</ele><time>2026-04-11T14:49:46.367Z</time></trkpt><trkpt lat="45.606022" lon="9.3590967"><ele>183.66666666666669</ele><time>2026-04-11T14:49:47.353Z</time></trkpt><trkpt lat="45.6058638" lon="9.3590674"><ele>184.0</ele><time>2026-04-11T14:49:48.359Z</time></trkpt><trkpt lat="45.6056956" lon="9.3590357"><ele>184.0</ele><time>2026-04-11T14:49:49.359Z</time></trkpt><trkpt lat="45.6055418" lon="9.3590073"><ele>184.0</ele><time>2026-04-11T14:49:50.365Z</time></trkpt><trkpt lat="45.6053965" lon="9.3589795"><ele>184.0</ele><time>2026-04-11T14:49:51.36Z</time></trkpt><trkpt lat="45.6052602" lon="9.3589554"><ele>184.0</ele><time>2026-04-11T14:49:52.361Z</time></trkpt><trkpt lat="45.6051338" lon="9.3589295"><ele>184.2</ele><time>2026-04-11T14:49:53.358Z</time></trkpt><trkpt lat="45.6050169" lon="9.3589098"><ele>184.39999999999998</ele><time>2026-04-11T14:49:54.366Z</time></trkpt><trkpt lat="45.6049076" lon="9.3588875"><ele>184.6</ele><time>2026-04-11T14:49:55.461Z</time></trkpt><trkpt lat="45.6048065" lon="9.3588646"><ele>184.8</ele><time>2026-04-11T14:49:56.367Z</time></trkpt><trkpt lat="45.604715" lon="9.3588459"><ele>185.0</ele><time>2026-04-11T14:49:57.362Z</time></trkpt><trkpt lat="45.6046456" lon="9.3588342"><ele>184.99999999999997</ele><time>2026-04-11T14:49:58.367Z</time></trkpt><trkpt lat="45.604569" lon="9.3588056"><ele>185.0</ele><time>2026-04-11T14:50:00.366Z</time></trkpt><trkpt lat="45.6045163" lon="9.3587161"><ele>185.0</ele><time>2026-04-11T14:50:02.361Z</time></trkpt><trkpt lat="45.6044888" lon="9.3586335"><ele>185.0</ele><time>2026-04-11T14:50:03.36Z</time></trkpt><trkpt lat="45.6044457" lon="9.3585513"><ele>185.0</ele><time>2026-04-11T14:50:04.36Z</time></trkpt><trkpt lat="45.6043952" lon="9.3584801"><ele>184.99999999999997</ele><time>2026-04-11T14:50:05.36Z</time></trkpt><trkpt lat="45.6043416" lon="9.3584133"><ele>185.0</ele><time>2026-04-11T14:50:06.365Z</time></trkpt><trkpt lat="45.604294" lon="9.3583313"><ele>184.16666666666666</ele><time>2026-04-11T14:50:07.359Z</time></trkpt><trkpt lat="45.6042593" lon="9.3582345"><ele>183.33333333333331</ele><time>2026-04-11T14:50:08.359Z</time></trkpt><trkpt lat="45.6042416" lon="9.3581171"><ele>182.5</ele><time>2026-04-11T14:50:09.363Z</time></trkpt><trkpt lat="45.6042486" lon="9.3579763"><ele>181.66666666666666</ele><time>2026-04-11T14:50:10.366Z</time></trkpt><trkpt lat="45.6042614" lon="9.3578542"><ele>180.83333333333334</ele><time>2026-04-11T14:50:11.362Z</time></trkpt><trkpt lat="45.6042689" lon="9.3577463"><ele>180.0</ele><time>2026-04-11T14:50:12.363Z</time></trkpt><trkpt lat="45.6042748" lon="9.3576564"><ele>180.0</ele><time>2026-04-11T14:50:13.362Z</time></trkpt><trkpt lat="45.6042869" lon="9.3575208"><ele>180.0</ele><time>2026-04-11T14:50:15.358Z</time></trkpt><trkpt lat="45.6043047" lon="9.3574041"><ele>180.0</ele><time>2026-04-11T14:50:17.363Z</time></trkpt><trkpt lat="45.6043227" lon="9.3572767"><ele>180.0</ele><time>2026-04-11T14:50:19.362Z</time></trkpt><trkpt lat="45.6043388" lon="9.3571562"><ele>180.0</ele><time>2026-04-11T14:50:21.364Z</time></trkpt><trkpt lat="45.6043606" lon="9.3570253"><ele>179.8</ele><time>2026-04-11T14:50:23.363Z</time></trkpt><trkpt lat="45.60438" lon="9.3568705"><ele>179.6</ele><time>2026-04-11T14:50:25.361Z</time></trkpt><trkpt lat="45.6044036" lon="9.3566862"><ele>179.39999999999998</ele><time>2026-04-11T14:50:27.361Z</time></trkpt><trkpt lat="45.6044199" lon="9.3565787"><ele>179.2</ele><time>2026-04-11T14:50:28.367Z</time></trkpt><trkpt lat="45.6044392" lon="9.3564569"><ele>179.0</ele><time>2026-04-11T14:50:29.358Z</time></trkpt><trkpt lat="45.6044586" lon="9.3563289"><ele>178.79999999999998</ele><time>2026-04-11T14:50:30.37Z</time></trkpt><trkpt lat="45.6044777" lon="9.35619"><ele>178.6</ele><time>2026-04-11T14:50:31.357Z</time></trkpt><trkpt lat="45.604496" lon="9.3560548"><ele>178.4</ele><time>2026-04-11T14:50:32.358Z</time></trkpt><trkpt lat="45.6045157" lon="9.3559212"><ele>178.2</ele><time>2026-04-11T14:50:33.358Z</time></trkpt><trkpt lat="45.6045333" lon="9.3557916"><ele>178.0</ele><time>2026-04-11T14:50:34.365Z</time></trkpt><trkpt lat="45.6045909" lon="9.3554005"><ele>178.0</ele><time>2026-04-11T14:50:37.371Z</time></trkpt><trkpt lat="45.6046135" lon="9.3552618"><ele>178.0</ele><time>2026-04-11T14:50:38.367Z</time></trkpt><trkpt lat="45.6046324" lon="9.3551202"><ele>178.0</ele><time>2026-04-11T14:50:39.362Z</time></trkpt><trkpt lat="45.6046558" lon="9.3549628"><ele>178.0</ele><time>2026-04-11T14:50:40.36Z</time></trkpt><trkpt lat="45.6046786" lon="9.3547954"><ele>178.0</ele><time>2026-04-11T14:50:41.36Z</time></trkpt><trkpt lat="45.6047016" lon="9.3546133"><ele>178.0</ele><time>2026-04-11T14:50:42.366Z</time></trkpt><trkpt lat="45.6047285" lon="9.3544334"><ele>178.0</ele><time>2026-04-11T14:50:43.363Z</time></trkpt><trkpt lat="45.6047534" lon="9.3542513"><ele>178.0</ele><time>2026-04-11T14:50:44.361Z</time></trkpt><trkpt lat="45.6047796" lon="9.3540685"><ele>178.0</ele><time>2026-04-11T14:50:45.365Z</time></trkpt><trkpt lat="45.6048066" lon="9.3538783"><ele>178.33333333333334</ele><time>2026-04-11T14:50:46.361Z</time></trkpt><trkpt lat="45.6048374" lon="9.3536766"><ele>178.66666666666666</ele><time>2026-04-11T14:50:47.365Z</time></trkpt><trkpt lat="45.6048707" lon="9.3534617"><ele>179.0</ele><time>2026-04-11T14:50:48.361Z</time></trkpt><trkpt lat="45.6048994" lon="9.3532476"><ele>179.0</ele><time>2026-04-11T14:50:49.368Z</time></trkpt><trkpt lat="45.6049295" lon="9.353024"><ele>179.0</ele><time>2026-04-11T14:50:50.36Z</time></trkpt><trkpt lat="45.6049587" lon="9.3528158"><ele>179.0</ele><time>2026-04-11T14:50:51.359Z</time></trkpt><trkpt lat="45.6049884" lon="9.3526147"><ele>179.0</ele><time>2026-04-11T14:50:52.362Z</time></trkpt><trkpt lat="45.60502" lon="9.3524269"><ele>179.0</ele><time>2026-04-11T14:50:53.359Z</time></trkpt><trkpt lat="45.6050461" lon="9.3522509"><ele>179.0</ele><time>2026-04-11T14:50:54.367Z</time></trkpt><trkpt lat="45.60507" lon="9.3520799"><ele>179.0</ele><time>2026-04-11T14:50:55.361Z</time></trkpt><trkpt lat="45.6050931" lon="9.3519193"><ele>178.79999999999998</ele><time>2026-04-11T14:50:56.362Z</time></trkpt><trkpt lat="45.6051116" lon="9.3517699"><ele>178.6</ele><time>2026-04-11T14:50:57.362Z</time></trkpt><trkpt lat="45.6051294" lon="9.3516365"><ele>178.4</ele><time>2026-04-11T14:50:58.366Z</time></trkpt><trkpt lat="45.6051491" lon="9.3514997"><ele>178.2</ele><time>2026-04-11T14:50:59.36Z</time></trkpt><trkpt lat="45.6051702" lon="9.3513609"><ele>178.0</ele><time>2026-04-11T14:51:00.366Z</time></trkpt><trkpt lat="45.6051901" lon="9.3512217"><ele>178.60000000000002</ele><time>2026-04-11T14:51:01.361Z</time></trkpt><trkpt lat="45.6052098" lon="9.3510904"><ele>179.20000000000002</ele><time>2026-04-11T14:51:02.367Z</time></trkpt><trkpt lat="45.6052282" lon="9.3509637"><ele>179.8</ele><time>2026-04-11T14:51:03.362Z</time></trkpt><trkpt lat="45.605247" lon="9.3508302"><ele>180.4</ele><time>2026-04-11T14:51:04.362Z</time></trkpt><trkpt lat="45.6052675" lon="9.3506916"><ele>181.0</ele><time>2026-04-11T14:51:05.363Z</time></trkpt><trkpt lat="45.6052909" lon="9.3505474"><ele>181.0</ele><time>2026-04-11T14:51:06.369Z</time></trkpt><trkpt lat="45.6053159" lon="9.3504065"><ele>181.0</ele><time>2026-04-11T14:51:07.364Z</time></trkpt><trkpt lat="45.605339" lon="9.3502678"><ele>181.0</ele><time>2026-04-11T14:51:08.36Z</time></trkpt><trkpt lat="45.6053578" lon="9.3501249"><ele>181.0</ele><time>2026-04-11T14:51:09.362Z</time></trkpt><trkpt lat="45.6053762" lon="9.3499862"><ele>181.0</ele><time>2026-04-11T14:51:10.36Z</time></trkpt><trkpt lat="45.6054004" lon="9.3498527"><ele>181.0</ele><time>2026-04-11T14:51:11.362Z</time></trkpt><trkpt lat="45.6054196" lon="9.3497169"><ele>181.0</ele><time>2026-04-11T14:51:12.362Z</time></trkpt><trkpt lat="45.6054409" lon="9.3495803"><ele>181.0</ele><time>2026-04-11T14:51:13.363Z</time></trkpt><trkpt lat="45.6054631" lon="9.3494356"><ele>181.0</ele><time>2026-04-11T14:51:14.368Z</time></trkpt><trkpt lat="45.605484" lon="9.3492919"><ele>181.0</ele><time>2026-04-11T14:51:15.364Z</time></trkpt><trkpt lat="45.6055061" lon="9.3491456"><ele>181.0</ele><time>2026-04-11T14:51:16.366Z</time></trkpt><trkpt lat="45.605528" lon="9.3490011"><ele>181.0</ele><time>2026-04-11T14:51:17.361Z</time></trkpt><trkpt lat="45.6055511" lon="9.3488646"><ele>181.0</ele><time>2026-04-11T14:51:18.367Z</time></trkpt><trkpt lat="45.605571" lon="9.3487311"><ele>181.0</ele><time>2026-04-11T14:51:19.358Z</time></trkpt><trkpt lat="45.6055868" lon="9.3486028"><ele>181.0</ele><time>2026-04-11T14:51:20.359Z</time></trkpt><trkpt lat="45.6056053" lon="9.3484775"><ele>181.0</ele><time>2026-04-11T14:51:21.362Z</time></trkpt><trkpt lat="45.6056204" lon="9.3483534"><ele>181.0</ele><time>2026-04-11T14:51:22.365Z</time></trkpt><trkpt lat="45.6056359" lon="9.3482333"><ele>181.0</ele><time>2026-04-11T14:51:23.361Z</time></trkpt><trkpt lat="45.6056515" lon="9.3481155"><ele>181.0</ele><time>2026-04-11T14:51:24.36Z</time></trkpt><trkpt lat="45.6056694" lon="9.3480053"><ele>181.0</ele><time>2026-04-11T14:51:25.357Z</time></trkpt><trkpt lat="45.6056873" lon="9.3479009"><ele>181.0</ele><time>2026-04-11T14:51:26.358Z</time></trkpt><trkpt lat="45.6057036" lon="9.3478083"><ele>181.0</ele><time>2026-04-11T14:51:27.366Z</time></trkpt><trkpt lat="45.6057456" lon="9.3476501"><ele>181.0</ele><time>2026-04-11T14:51:29.365Z</time></trkpt><trkpt lat="45.60579" lon="9.3475693"><ele>181.0</ele><time>2026-04-11T14:51:30.362Z</time></trkpt><trkpt lat="45.6058468" lon="9.3474896"><ele>181.0</ele><time>2026-04-11T14:51:31.365Z</time></trkpt><trkpt lat="45.6058848" lon="9.3473997"><ele>181.0</ele><time>2026-04-11T14:51:32.36Z</time></trkpt><trkpt lat="45.6058921" lon="9.3472925"><ele>181.0</ele><time>2026-04-11T14:51:33.364Z</time></trkpt><trkpt lat="45.6058668" lon="9.3471962"><ele>181.0</ele><time>2026-04-11T14:51:34.362Z</time></trkpt><trkpt lat="45.6058123" lon="9.3471346"><ele>181.0</ele><time>2026-04-11T14:51:35.362Z</time></trkpt><trkpt lat="45.6057375" lon="9.3471142"><ele>181.0</ele><time>2026-04-11T14:51:36.353Z</time></trkpt><trkpt lat="45.6056512" lon="9.3471387"><ele>181.0</ele><time>2026-04-11T14:51:37.361Z</time></trkpt><trkpt lat="45.6055689" lon="9.3471924"><ele>181.0</ele><time>2026-04-11T14:51:38.363Z</time></trkpt><trkpt lat="45.6054878" lon="9.3472401"><ele>181.0</ele><time>2026-04-11T14:51:39.367Z</time></trkpt><trkpt lat="45.6053926" lon="9.3472573"><ele>180.8</ele><time>2026-04-11T14:51:40.361Z</time></trkpt><trkpt lat="45.605297" lon="9.3472368"><ele>180.60000000000002</ele><time>2026-04-11T14:51:41.368Z</time></trkpt><trkpt lat="45.605206" lon="9.3472058"><ele>180.4</ele><time>2026-04-11T14:51:42.359Z</time></trkpt><trkpt lat="45.6051099" lon="9.3471725"><ele>180.2</ele><time>2026-04-11T14:51:43.355Z</time></trkpt><trkpt lat="45.6050078" lon="9.3471316"><ele>180.0</ele><time>2026-04-11T14:51:44.364Z</time></trkpt><trkpt lat="45.6049022" lon="9.3470852"><ele>180.0</ele><time>2026-04-11T14:51:45.362Z</time></trkpt><trkpt lat="45.6047893" lon="9.3470328"><ele>180.0</ele><time>2026-04-11T14:51:46.363Z</time></trkpt><trkpt lat="45.6046828" lon="9.3469799"><ele>180.0</ele><time>2026-04-11T14:51:47.364Z</time></trkpt><trkpt lat="45.604583" lon="9.3469264"><ele>180.0</ele><time>2026-04-11T14:51:48.364Z</time></trkpt><trkpt lat="45.6044882" lon="9.3468724"><ele>180.0</ele><time>2026-04-11T14:51:49.454Z</time></trkpt><trkpt lat="45.6043977" lon="9.3468255"><ele>180.0</ele><time>2026-04-11T14:51:50.363Z</time></trkpt><trkpt lat="45.6043131" lon="9.3467768"><ele>180.0</ele><time>2026-04-11T14:51:51.361Z</time></trkpt><trkpt lat="45.604234" lon="9.3467274"><ele>180.0</ele><time>2026-04-11T14:51:52.365Z</time></trkpt><trkpt lat="45.6041642" lon="9.3466858"><ele>180.0</ele><time>2026-04-11T14:51:53.364Z</time></trkpt><trkpt lat="45.604076" lon="9.3466492"><ele>180.0</ele><time>2026-04-11T14:51:55.363Z</time></trkpt><trkpt lat="45.6040151" lon="9.3466738"><ele>180.0</ele><time>2026-04-11T14:51:59.361Z</time></trkpt><trkpt lat="45.6039806" lon="9.3467851"><ele>180.0</ele><time>2026-04-11T14:52:15.365Z</time></trkpt><trkpt lat="45.6039377" lon="9.3469107"><ele>180.0</ele><time>2026-04-11T14:52:17.357Z</time></trkpt><trkpt lat="45.6039048" lon="9.3470371"><ele>180.0</ele><time>2026-04-11T14:52:19.361Z</time></trkpt><trkpt lat="45.6038772" lon="9.3471383"><ele>180.0</ele><time>2026-04-11T14:52:21.362Z</time></trkpt><trkpt lat="45.6038398" lon="9.3472671"><ele>180.0</ele><time>2026-04-11T14:52:23.369Z</time></trkpt><trkpt lat="45.6038132" lon="9.3473661"><ele>180.0</ele><time>2026-04-11T14:52:24.358Z</time></trkpt><trkpt lat="45.6037833" lon="9.347477"><ele>179.8</ele><time>2026-04-11T14:52:25.361Z</time></trkpt><trkpt lat="45.6037457" lon="9.347613"><ele>179.6</ele><time>2026-04-11T14:52:26.359Z</time></trkpt><trkpt lat="45.6037049" lon="9.3477653"><ele>179.39999999999998</ele><time>2026-04-11T14:52:27.361Z</time></trkpt><trkpt lat="45.6036658" lon="9.3479198"><ele>179.2</ele><time>2026-04-11T14:52:28.364Z</time></trkpt><trkpt lat="45.6036278" lon="9.348076"><ele>179.0</ele><time>2026-04-11T14:52:29.355Z</time></trkpt><trkpt lat="45.6035859" lon="9.3482354"><ele>179.0</ele><time>2026-04-11T14:52:30.366Z</time></trkpt><trkpt lat="45.6035462" lon="9.3483996"><ele>179.0</ele><time>2026-04-11T14:52:31.362Z</time></trkpt><trkpt lat="45.6035022" lon="9.3485616"><ele>179.0</ele><time>2026-04-11T14:52:32.365Z</time></trkpt><trkpt lat="45.6034564" lon="9.3487253"><ele>179.0</ele><time>2026-04-11T14:52:33.359Z</time></trkpt><trkpt lat="45.6034162" lon="9.3488752"><ele>179.0</ele><time>2026-04-11T14:52:34.366Z</time></trkpt><trkpt lat="45.6033752" lon="9.349028"><ele>179.0</ele><time>2026-04-11T14:52:35.36Z</time></trkpt><trkpt lat="45.6033285" lon="9.349203"><ele>179.0</ele><time>2026-04-11T14:52:36.366Z</time></trkpt><trkpt lat="45.6032843" lon="9.3493631"><ele>179.0</ele><time>2026-04-11T14:52:37.364Z</time></trkpt><trkpt lat="45.6032409" lon="9.3495278"><ele>179.0</ele><time>2026-04-11T14:52:38.364Z</time></trkpt><trkpt lat="45.6032037" lon="9.3496728"><ele>179.0</ele><time>2026-04-11T14:52:39.36Z</time></trkpt><trkpt lat="45.6031655" lon="9.3498107"><ele>179.0</ele><time>2026-04-11T14:52:40.366Z</time></trkpt><trkpt lat="45.6031322" lon="9.3499373"><ele>179.0</ele><time>2026-04-11T14:52:41.361Z</time></trkpt><trkpt lat="45.6031027" lon="9.3500541"><ele>179.0</ele><time>2026-04-11T14:52:42.365Z</time></trkpt><trkpt lat="45.6030726" lon="9.3501657"><ele>179.16666666666666</ele><time>2026-04-11T14:52:43.36Z</time></trkpt><trkpt lat="45.6030438" lon="9.3502731"><ele>179.33333333333331</ele><time>2026-04-11T14:52:44.357Z</time></trkpt><trkpt lat="45.6030176" lon="9.3503726"><ele>179.5</ele><time>2026-04-11T14:52:45.361Z</time></trkpt><trkpt lat="45.6029946" lon="9.3504566"><ele>179.66666666666666</ele><time>2026-04-11T14:52:46.363Z</time></trkpt><trkpt lat="45.6029539" lon="9.3505954"><ele>179.83333333333334</ele><time>2026-04-11T14:52:48.36Z</time></trkpt><trkpt lat="45.6028975" lon="9.3506791"><ele>180.0</ele><time>2026-04-11T14:52:50.365Z</time></trkpt><trkpt lat="45.6028162" lon="9.3506874"><ele>180.0</ele><time>2026-04-11T14:52:52.365Z</time></trkpt><trkpt lat="45.6027124" lon="9.3506516"><ele>180.0</ele><time>2026-04-11T14:52:54.379Z</time></trkpt><trkpt lat="45.6026493" lon="9.3506172"><ele>180.0</ele><time>2026-04-11T14:52:55.361Z</time></trkpt><trkpt lat="45.6025806" lon="9.3505833"><ele>180.0</ele><time>2026-04-11T14:52:56.359Z</time></trkpt><trkpt lat="45.6025109" lon="9.3505524"><ele>180.0</ele><time>2026-04-11T14:52:57.358Z</time></trkpt><trkpt lat="45.6024304" lon="9.3505135"><ele>180.0</ele><time>2026-04-11T14:52:58.365Z</time></trkpt><trkpt lat="45.6023483" lon="9.3504673"><ele>180.0</ele><time>2026-04-11T14:52:59.361Z</time></trkpt><trkpt lat="45.6022666" lon="9.35043"><ele>180.0</ele><time>2026-04-11T14:53:00.363Z</time></trkpt><trkpt lat="45.6021897" lon="9.3503896"><ele>180.0</ele><time>2026-04-11T14:53:01.364Z</time></trkpt><trkpt lat="45.6021137" lon="9.3503493"><ele>180.0</ele><time>2026-04-11T14:53:02.367Z</time></trkpt><trkpt lat="45.6020455" lon="9.3503325"><ele>180.0</ele><time>2026-04-11T14:53:03.365Z</time></trkpt><trkpt lat="45.6019838" lon="9.3503039"><ele>180.0</ele><time>2026-04-11T14:53:04.366Z</time></trkpt><trkpt lat="45.6018799" lon="9.3502581"><ele>179.33333333333334</ele><time>2026-04-11T14:53:06.364Z</time></trkpt><trkpt lat="45.6017943" lon="9.3502169"><ele>178.66666666666666</ele><time>2026-04-11T14:53:08.368Z</time></trkpt><trkpt lat="45.6017315" lon="9.3501778"><ele>178.0</ele><time>2026-04-11T14:53:10.368Z</time></trkpt><trkpt lat="45.6016615" lon="9.3501237"><ele>177.33333333333331</ele><time>2026-04-11T14:53:12.365Z</time></trkpt><trkpt lat="45.6015867" lon="9.3500819"><ele>176.66666666666666</ele><time>2026-04-11T14:53:14.362Z</time></trkpt><trkpt lat="45.6015027" lon="9.3500301"><ele>176.0</ele><time>2026-04-11T14:53:16.368Z</time></trkpt><trkpt lat="45.6014432" lon="9.3499523"><ele>176.0</ele><time>2026-04-11T14:53:19.364Z</time></trkpt><trkpt lat="45.6014529" lon="9.3498627"><ele>176.0</ele><time>2026-04-11T14:53:21.36Z</time></trkpt><trkpt lat="45.6014813" lon="9.3497353"><ele>176.0</ele><time>2026-04-11T14:53:23.358Z</time></trkpt><trkpt lat="45.6015144" lon="9.349599"><ele>176.0</ele><time>2026-04-11T14:53:25.363Z</time></trkpt><trkpt lat="45.6015508" lon="9.3494648"><ele>176.0</ele><time>2026-04-11T14:53:27.362Z</time></trkpt><trkpt lat="45.6015939" lon="9.3493014"><ele>175.8</ele><time>2026-04-11T14:53:29.36Z</time></trkpt><trkpt lat="45.6016232" lon="9.3491924"><ele>175.60000000000002</ele><time>2026-04-11T14:53:30.365Z</time></trkpt><trkpt lat="45.6016626" lon="9.3490578"><ele>175.4</ele><time>2026-04-11T14:53:31.359Z</time></trkpt><trkpt lat="45.6016944" lon="9.3489342"><ele>175.2</ele><time>2026-04-11T14:53:32.366Z</time></trkpt><trkpt lat="45.6017235" lon="9.348803"><ele>175.0</ele><time>2026-04-11T14:53:33.358Z</time></trkpt><trkpt lat="45.6017513" lon="9.3486777"><ele>175.0</ele><time>2026-04-11T14:53:34.366Z</time></trkpt><trkpt lat="45.6017793" lon="9.3485414"><ele>175.0</ele><time>2026-04-11T14:53:35.363Z</time></trkpt><trkpt lat="45.6018087" lon="9.3484101"><ele>175.0</ele><time>2026-04-11T14:53:36.361Z</time></trkpt><trkpt lat="45.6018345" lon="9.3482853"><ele>175.0</ele><time>2026-04-11T14:53:37.36Z</time></trkpt><trkpt lat="45.6018573" lon="9.3481693"><ele>175.0</ele><time>2026-04-11T14:53:38.366Z</time></trkpt><trkpt lat="45.6018832" lon="9.3480625"><ele>176.0</ele><time>2026-04-11T14:53:39.366Z</time></trkpt><trkpt lat="45.6019054" lon="9.3479459"><ele>177.0</ele><time>2026-04-11T14:53:40.368Z</time></trkpt><trkpt lat="45.6019339" lon="9.3478299"><ele>178.0</ele><time>2026-04-11T14:53:41.362Z</time></trkpt><trkpt lat="45.6019598" lon="9.3477291"><ele>179.0</ele><time>2026-04-11T14:53:42.366Z</time></trkpt><trkpt lat="45.601985" lon="9.3476299"><ele>180.0</ele><time>2026-04-11T14:53:43.358Z</time></trkpt><trkpt lat="45.6020073" lon="9.3475389"><ele>181.0</ele><time>2026-04-11T14:53:44.362Z</time></trkpt><trkpt lat="45.6020293" lon="9.3474496"><ele>181.0</ele><time>2026-04-11T14:53:45.361Z</time></trkpt><trkpt lat="45.6020646" lon="9.3473022"><ele>181.0</ele><time>2026-04-11T14:53:47.359Z</time></trkpt><trkpt lat="45.6020904" lon="9.347201"><ele>181.0</ele><time>2026-04-11T14:53:49.355Z</time></trkpt><trkpt lat="45.6020371" lon="9.3473665"><ele>181.0</ele><time>2026-04-11T14:54:24.37Z</time></trkpt><trkpt lat="45.6020074" lon="9.3474715"><ele>181.0</ele><time>2026-04-11T14:54:25.362Z</time></trkpt><trkpt lat="45.6019859" lon="9.3475634"><ele>181.16666666666669</ele><time>2026-04-11T14:54:26.374Z</time></trkpt><trkpt lat="45.6019624" lon="9.3476561"><ele>181.33333333333334</ele><time>2026-04-11T14:54:27.363Z</time></trkpt><trkpt lat="45.6019385" lon="9.3477458"><ele>181.5</ele><time>2026-04-11T14:54:28.371Z</time></trkpt><trkpt lat="45.6019192" lon="9.3478324"><ele>181.66666666666666</ele><time>2026-04-11T14:54:29.363Z</time></trkpt><trkpt lat="45.6018982" lon="9.3479284"><ele>181.83333333333331</ele><time>2026-04-11T14:54:30.371Z</time></trkpt><trkpt lat="45.6018775" lon="9.3480158"><ele>182.0</ele><time>2026-04-11T14:54:31.359Z</time></trkpt><trkpt lat="45.6018443" lon="9.3481752"><ele>181.0</ele><time>2026-04-11T14:54:33.364Z</time></trkpt><trkpt lat="45.6018082" lon="9.348262"><ele>180.0</ele><time>2026-04-11T14:54:35.363Z</time></trkpt><trkpt lat="45.6017395" lon="9.3482782"><ele>179.0</ele><time>2026-04-11T14:54:38.359Z</time></trkpt><trkpt lat="45.60166" lon="9.3482338"><ele>178.0</ele><time>2026-04-11T14:54:40.374Z</time></trkpt><trkpt lat="45.601596" lon="9.3482046"><ele>177.0</ele><time>2026-04-11T14:54:41.362Z</time></trkpt><trkpt lat="45.6015289" lon="9.3481738"><ele>176.0</ele><time>2026-04-11T14:54:42.374Z</time></trkpt><trkpt lat="45.6014622" lon="9.3481416"><ele>175.0</ele><time>2026-04-11T14:54:43.358Z</time></trkpt><trkpt lat="45.601396" lon="9.3481101"><ele>175.0</ele><time>2026-04-11T14:54:44.358Z</time></trkpt><trkpt lat="45.6013355" lon="9.3480842"><ele>175.0</ele><time>2026-04-11T14:54:45.368Z</time></trkpt><trkpt lat="45.6012369" lon="9.3480409"><ele>175.0</ele><time>2026-04-11T14:54:47.375Z</time></trkpt><trkpt lat="45.6011675" lon="9.3480098"><ele>175.0</ele><time>2026-04-11T14:54:49.36Z</time></trkpt><trkpt lat="45.6010764" lon="9.3479735"><ele>175.0</ele><time>2026-04-11T14:54:52.365Z</time></trkpt><trkpt lat="45.6009971" lon="9.3479365"><ele>175.0</ele><time>2026-04-11T14:54:54.366Z</time></trkpt><trkpt lat="45.6009167" lon="9.3478963"><ele>175.33333333333334</ele><time>2026-04-11T14:54:56.366Z</time></trkpt><trkpt lat="45.6008426" lon="9.3478607"><ele>175.66666666666669</ele><time>2026-04-11T14:54:58.369Z</time></trkpt><trkpt lat="45.60078" lon="9.3478228"><ele>176.0</ele><time>2026-04-11T14:55:00.361Z</time></trkpt><trkpt lat="45.6007067" lon="9.3477822"><ele>176.33333333333334</ele><time>2026-04-11T14:55:02.362Z</time></trkpt><trkpt lat="45.6006423" lon="9.3477523"><ele>176.66666666666666</ele><time>2026-04-11T14:55:04.365Z</time></trkpt><trkpt lat="45.6005634" lon="9.3477165"><ele>177.0</ele><time>2026-04-11T14:55:06.364Z</time></trkpt><trkpt lat="45.6004907" lon="9.3476835"><ele>177.0</ele><time>2026-04-11T14:55:08.359Z</time></trkpt><trkpt lat="45.6004203" lon="9.3476484"><ele>177.0</ele><time>2026-04-11T14:55:10.359Z</time></trkpt><trkpt lat="45.6003264" lon="9.3476038"><ele>177.0</ele><time>2026-04-11T14:55:12.365Z</time></trkpt><trkpt lat="45.6002373" lon="9.3475605"><ele>177.0</ele><time>2026-04-11T14:55:14.365Z</time></trkpt><trkpt lat="45.6001583" lon="9.3475251"><ele>177.0</ele><time>2026-04-11T14:55:17.362Z</time></trkpt><trkpt lat="45.6000502" lon="9.3474801"><ele>176.83333333333334</ele><time>2026-04-11T14:55:20.37Z</time></trkpt><trkpt lat="45.5999892" lon="9.3474491"><ele>176.66666666666666</ele><time>2026-04-11T14:55:21.36Z</time></trkpt><trkpt lat="45.5999239" lon="9.347421"><ele>176.5</ele><time>2026-04-11T14:55:22.368Z</time></trkpt><trkpt lat="45.5998454" lon="9.3473828"><ele>176.33333333333331</ele><time>2026-04-11T14:55:23.363Z</time></trkpt><trkpt lat="45.5997566" lon="9.3473438"><ele>176.16666666666666</ele><time>2026-04-11T14:55:24.363Z</time></trkpt><trkpt lat="45.5996737" lon="9.3473051"><ele>176.0</ele><time>2026-04-11T14:55:25.362Z</time></trkpt><trkpt lat="45.5996012" lon="9.3472692"><ele>176.0</ele><time>2026-04-11T14:55:26.362Z</time></trkpt><trkpt lat="45.5995323" lon="9.3472383"><ele>176.0</ele><time>2026-04-11T14:55:27.364Z</time></trkpt><trkpt lat="45.5994396" lon="9.3471938"><ele>176.0</ele><time>2026-04-11T14:55:29.362Z</time></trkpt><trkpt lat="45.599361" lon="9.347154"><ele>176.0</ele><time>2026-04-11T14:55:32.37Z</time></trkpt><trkpt lat="45.5992586" lon="9.3471049"><ele>176.0</ele><time>2026-04-11T14:55:34.377Z</time></trkpt><trkpt lat="45.5991809" lon="9.3470738"><ele>176.0</ele><time>2026-04-11T14:55:35.364Z</time></trkpt><trkpt lat="45.5990968" lon="9.3470459"><ele>176.0</ele><time>2026-04-11T14:55:36.362Z</time></trkpt><trkpt lat="45.5990062" lon="9.347015"><ele>176.0</ele><time>2026-04-11T14:55:37.364Z</time></trkpt><trkpt lat="45.5989224" lon="9.3469841"><ele>176.0</ele><time>2026-04-11T14:55:38.367Z</time></trkpt><trkpt lat="45.5988438" lon="9.3469578"><ele>176.0</ele><time>2026-04-11T14:55:39.365Z</time></trkpt><trkpt lat="45.5987614" lon="9.3469344"><ele>176.0</ele><time>2026-04-11T14:55:40.366Z</time></trkpt><trkpt lat="45.5986803" lon="9.3469118"><ele>176.0</ele><time>2026-04-11T14:55:41.364Z</time></trkpt><trkpt lat="45.598604" lon="9.346896"><ele>176.0</ele><time>2026-04-11T14:55:42.37Z</time></trkpt><trkpt lat="45.5985315" lon="9.3468764"><ele>176.0</ele><time>2026-04-11T14:55:43.367Z</time></trkpt><trkpt lat="45.5984637" lon="9.3468584"><ele>176.0</ele><time>2026-04-11T14:55:44.36Z</time></trkpt><trkpt lat="45.5984008" lon="9.3468366"><ele>176.0</ele><time>2026-04-11T14:55:45.364Z</time></trkpt><trkpt lat="45.5982989" lon="9.3468047"><ele>176.0</ele><time>2026-04-11T14:55:47.364Z</time></trkpt><trkpt lat="45.5982156" lon="9.3467823"><ele>176.0</ele><time>2026-04-11T14:55:49.362Z</time></trkpt><trkpt lat="45.5981312" lon="9.3467705"><ele>176.0</ele><time>2026-04-11T14:55:51.366Z</time></trkpt><trkpt lat="45.5980554" lon="9.3467426"><ele>176.0</ele><time>2026-04-11T14:55:53.367Z</time></trkpt><trkpt lat="45.5979834" lon="9.3467208"><ele>176.0</ele><time>2026-04-11T14:55:55.369Z</time></trkpt><trkpt lat="45.5979174" lon="9.3467102"><ele>176.0</ele><time>2026-04-11T14:55:57.369Z</time></trkpt><trkpt lat="45.5978516" lon="9.3466849"><ele>176.0</ele><time>2026-04-11T14:56:00.367Z</time></trkpt><trkpt lat="45.5977882" lon="9.3467036"><ele>176.0</ele><time>2026-04-11T14:59:17.391Z</time></trkpt><trkpt lat="45.597712" lon="9.3466906"><ele>176.0</ele><time>2026-04-11T14:59:19.367Z</time></trkpt><trkpt lat="45.5976117" lon="9.3466745"><ele>176.0</ele><time>2026-04-11T14:59:21.369Z</time></trkpt><trkpt lat="45.5975309" lon="9.3466691"><ele>176.0</ele><time>2026-04-11T14:59:23.372Z</time></trkpt><trkpt lat="45.5973794" lon="9.3465546"><ele>176.0</ele><time>2026-04-11T14:59:27.37Z</time></trkpt><trkpt lat="45.5973257" lon="9.3464495"><ele>176.0</ele><time>2026-04-11T14:59:28.367Z</time></trkpt><trkpt lat="45.5972747" lon="9.3462991"><ele>176.0</ele><time>2026-04-11T14:59:29.368Z</time></trkpt><trkpt lat="45.5972193" lon="9.3460874"><ele>176.0</ele><time>2026-04-11T14:59:30.368Z</time></trkpt><trkpt lat="45.597166" lon="9.3458748"><ele>176.0</ele><time>2026-04-11T14:59:31.375Z</time></trkpt><trkpt lat="45.5971175" lon="9.3456712"><ele>176.25</ele><time>2026-04-11T14:59:32.371Z</time></trkpt><trkpt lat="45.5970675" lon="9.3454887"><ele>176.5</ele><time>2026-04-11T14:59:33.363Z</time></trkpt><trkpt lat="45.5970235" lon="9.3453068"><ele>176.75</ele><time>2026-04-11T14:59:34.37Z</time></trkpt><trkpt lat="45.5969838" lon="9.3451394"><ele>177.0</ele><time>2026-04-11T14:59:35.368Z</time></trkpt><trkpt lat="45.5969453" lon="9.3449834"><ele>177.0</ele><time>2026-04-11T14:59:36.363Z</time></trkpt><trkpt lat="45.5969099" lon="9.3448171"><ele>177.0</ele><time>2026-04-11T14:59:37.372Z</time></trkpt><trkpt lat="45.5968699" lon="9.344645"><ele>177.0</ele><time>2026-04-11T14:59:38.367Z</time></trkpt><trkpt lat="45.5968274" lon="9.3444748"><ele>177.0</ele><time>2026-04-11T14:59:39.374Z</time></trkpt><trkpt lat="45.5967866" lon="9.3443139"><ele>177.0</ele><time>2026-04-11T14:59:40.369Z</time></trkpt><trkpt lat="45.5967524" lon="9.3441618"><ele>177.0</ele><time>2026-04-11T14:59:41.394Z</time></trkpt><trkpt lat="45.5967193" lon="9.3440258"><ele>177.0</ele><time>2026-04-11T14:59:42.368Z</time></trkpt><trkpt lat="45.5966884" lon="9.343892"><ele>177.0</ele><time>2026-04-11T14:59:43.37Z</time></trkpt><trkpt lat="45.5966579" lon="9.3437707"><ele>177.0</ele><time>2026-04-11T14:59:44.363Z</time></trkpt><trkpt lat="45.5966213" lon="9.3436615"><ele>176.83333333333334</ele><time>2026-04-11T14:59:45.371Z</time></trkpt><trkpt lat="45.5965811" lon="9.3435651"><ele>176.66666666666666</ele><time>2026-04-11T14:59:46.364Z</time></trkpt><trkpt lat="45.596535" lon="9.3434721"><ele>176.5</ele><time>2026-04-11T14:59:47.374Z</time></trkpt><trkpt lat="45.5964878" lon="9.3433689"><ele>176.33333333333331</ele><time>2026-04-11T14:59:48.365Z</time></trkpt><trkpt lat="45.596455" lon="9.343245"><ele>176.16666666666666</ele><time>2026-04-11T14:59:49.365Z</time></trkpt><trkpt lat="45.59644" lon="9.3430996"><ele>176.0</ele><time>2026-04-11T14:59:50.366Z</time></trkpt><trkpt lat="45.5964326" lon="9.3429347"><ele>176.0</ele><time>2026-04-11T14:59:51.367Z</time></trkpt><trkpt lat="45.596408" lon="9.3427654"><ele>176.0</ele><time>2026-04-11T14:59:52.362Z</time></trkpt><trkpt lat="45.5963672" lon="9.3425869"><ele>176.0</ele><time>2026-04-11T14:59:53.364Z</time></trkpt><trkpt lat="45.5963222" lon="9.3424081"><ele>176.0</ele><time>2026-04-11T14:59:54.388Z</time></trkpt><trkpt lat="45.596279" lon="9.3422275"><ele>175.75</ele><time>2026-04-11T14:59:55.362Z</time></trkpt><trkpt lat="45.5962417" lon="9.3420464"><ele>175.5</ele><time>2026-04-11T14:59:56.372Z</time></trkpt><trkpt lat="45.5962011" lon="9.341869"><ele>175.25</ele><time>2026-04-11T14:59:57.364Z</time></trkpt><trkpt lat="45.596156" lon="9.341695"><ele>175.0</ele><time>2026-04-11T14:59:58.368Z</time></trkpt><trkpt lat="45.5961084" lon="9.3415178"><ele>175.25</ele><time>2026-04-11T14:59:59.363Z</time></trkpt><trkpt lat="45.5960579" lon="9.3413427"><ele>175.5</ele><time>2026-04-11T15:00:00.359Z</time></trkpt><trkpt lat="45.5960089" lon="9.3411629"><ele>175.75</ele><time>2026-04-11T15:00:01.363Z</time></trkpt><trkpt lat="45.5959506" lon="9.3409855"><ele>176.0</ele><time>2026-04-11T15:00:02.362Z</time></trkpt><trkpt lat="45.5958923" lon="9.3408178"><ele>176.0</ele><time>2026-04-11T15:00:03.361Z</time></trkpt><trkpt lat="45.5958325" lon="9.3406548"><ele>176.0</ele><time>2026-04-11T15:00:04.362Z</time></trkpt><trkpt lat="45.5957818" lon="9.3404955"><ele>176.0</ele><time>2026-04-11T15:00:05.361Z</time></trkpt><trkpt lat="45.595728" lon="9.3403379"><ele>176.0</ele><time>2026-04-11T15:00:06.365Z</time></trkpt><trkpt lat="45.5956759" lon="9.3401798"><ele>176.0</ele><time>2026-04-11T15:00:07.359Z</time></trkpt><trkpt lat="45.5956245" lon="9.3400184"><ele>176.0</ele><time>2026-04-11T15:00:08.36Z</time></trkpt><trkpt lat="45.5955702" lon="9.3398563"><ele>176.0</ele><time>2026-04-11T15:00:09.361Z</time></trkpt><trkpt lat="45.5955198" lon="9.3397064"><ele>176.0</ele><time>2026-04-11T15:00:10.366Z</time></trkpt><trkpt lat="45.5954742" lon="9.3395723"><ele>176.0</ele><time>2026-04-11T15:00:11.362Z</time></trkpt><trkpt lat="45.5954347" lon="9.339449"><ele>176.0</ele><time>2026-04-11T15:00:12.377Z</time></trkpt><trkpt lat="45.5953982" lon="9.3393369"><ele>176.0</ele><time>2026-04-11T15:00:13.366Z</time></trkpt><trkpt lat="45.5953668" lon="9.3392353"><ele>176.0</ele><time>2026-04-11T15:00:14.37Z</time></trkpt><trkpt lat="45.5953358" lon="9.3391427"><ele>176.0</ele><time>2026-04-11T15:00:15.363Z</time></trkpt><trkpt lat="45.5952998" lon="9.3390465"><ele>176.0</ele><time>2026-04-11T15:00:16.362Z</time></trkpt><trkpt lat="45.595266" lon="9.3389468"><ele>175.8</ele><time>2026-04-11T15:00:17.363Z</time></trkpt><trkpt lat="45.5952234" lon="9.3388359"><ele>175.60000000000002</ele><time>2026-04-11T15:00:18.37Z</time></trkpt><trkpt lat="45.5951842" lon="9.3387203"><ele>175.4</ele><time>2026-04-11T15:00:19.363Z</time></trkpt><trkpt lat="45.5951399" lon="9.3385977"><ele>175.2</ele><time>2026-04-11T15:00:20.366Z</time></trkpt><trkpt lat="45.5950891" lon="9.3384664"><ele>175.0</ele><time>2026-04-11T15:00:21.367Z</time></trkpt><trkpt lat="45.5950441" lon="9.3383323"><ele>175.0</ele><time>2026-04-11T15:00:22.368Z</time></trkpt><trkpt lat="45.5949926" lon="9.3381857"><ele>175.0</ele><time>2026-04-11T15:00:23.365Z</time></trkpt><trkpt lat="45.59494" lon="9.3380299"><ele>175.0</ele><time>2026-04-11T15:00:24.362Z</time></trkpt><trkpt lat="45.5948797" lon="9.3378697"><ele>175.0</ele><time>2026-04-11T15:00:25.364Z</time></trkpt><trkpt lat="45.5948232" lon="9.3377086"><ele>175.25</ele><time>2026-04-11T15:00:26.364Z</time></trkpt><trkpt lat="45.594769" lon="9.3375559"><ele>175.5</ele><time>2026-04-11T15:00:27.403Z</time></trkpt><trkpt lat="45.5947114" lon="9.3373971"><ele>175.75</ele><time>2026-04-11T15:00:28.367Z</time></trkpt><trkpt lat="45.5946509" lon="9.3372306"><ele>176.0</ele><time>2026-04-11T15:00:29.4Z</time></trkpt><trkpt lat="45.5945938" lon="9.3370594"><ele>176.0</ele><time>2026-04-11T15:00:30.369Z</time></trkpt><trkpt lat="45.5945292" lon="9.3368955"><ele>176.0</ele><time>2026-04-11T15:00:31.362Z</time></trkpt><trkpt lat="45.5944692" lon="9.3367431"><ele>176.0</ele><time>2026-04-11T15:00:32.363Z</time></trkpt><trkpt lat="45.5944003" lon="9.3365931"><ele>176.0</ele><time>2026-04-11T15:00:33.363Z</time></trkpt><trkpt lat="45.5943327" lon="9.3364518"><ele>175.75</ele><time>2026-04-11T15:00:34.366Z</time></trkpt><trkpt lat="45.5942608" lon="9.3363143"><ele>175.5</ele><time>2026-04-11T15:00:35.362Z</time></trkpt><trkpt lat="45.5941833" lon="9.336185"><ele>175.25</ele><time>2026-04-11T15:00:36.362Z</time></trkpt><trkpt lat="45.5941039" lon="9.3360597"><ele>175.0</ele><time>2026-04-11T15:00:37.366Z</time></trkpt><trkpt lat="45.5940224" lon="9.3359371"><ele>175.0</ele><time>2026-04-11T15:00:38.37Z</time></trkpt><trkpt lat="45.5939352" lon="9.3358172"><ele>175.0</ele><time>2026-04-11T15:00:39.36Z</time></trkpt><trkpt lat="45.5938459" lon="9.3356945"><ele>175.0</ele><time>2026-04-11T15:00:40.362Z</time></trkpt><trkpt lat="45.5937564" lon="9.3355665"><ele>175.0</ele><time>2026-04-11T15:00:41.364Z</time></trkpt><trkpt lat="45.5936583" lon="9.335446"><ele>175.0</ele><time>2026-04-11T15:00:42.371Z</time></trkpt><trkpt lat="45.5935582" lon="9.3353256"><ele>175.0</ele><time>2026-04-11T15:00:43.361Z</time></trkpt><trkpt lat="45.5934669" lon="9.3352118"><ele>175.0</ele><time>2026-04-11T15:00:44.375Z</time></trkpt><trkpt lat="45.5933785" lon="9.3351038"><ele>175.0</ele><time>2026-04-11T15:00:45.367Z</time></trkpt><trkpt lat="45.593289" lon="9.3350042"><ele>175.0</ele><time>2026-04-11T15:00:46.375Z</time></trkpt><trkpt lat="45.5931984" lon="9.3349067"><ele>175.0</ele><time>2026-04-11T15:00:47.37Z</time></trkpt><trkpt lat="45.5931045" lon="9.3348066"><ele>175.0</ele><time>2026-04-11T15:00:48.366Z</time></trkpt><trkpt lat="45.5930103" lon="9.3347003"><ele>175.0</ele><time>2026-04-11T15:00:49.368Z</time></trkpt><trkpt lat="45.5929197" lon="9.3345872"><ele>175.25</ele><time>2026-04-11T15:00:50.371Z</time></trkpt><trkpt lat="45.5928212" lon="9.3344823"><ele>175.5</ele><time>2026-04-11T15:00:51.368Z</time></trkpt><trkpt lat="45.5927255" lon="9.3343758"><ele>175.75</ele><time>2026-04-11T15:00:52.376Z</time></trkpt><trkpt lat="45.5926357" lon="9.3342808"><ele>176.0</ele><time>2026-04-11T15:00:53.368Z</time></trkpt><trkpt lat="45.5925461" lon="9.3341817"><ele>176.0</ele><time>2026-04-11T15:00:54.371Z</time></trkpt><trkpt lat="45.5924671" lon="9.334091"><ele>176.0</ele><time>2026-04-11T15:00:55.362Z</time></trkpt><trkpt lat="45.5923901" lon="9.3340043"><ele>176.0</ele><time>2026-04-11T15:00:56.377Z</time></trkpt><trkpt lat="45.5923268" lon="9.3339293"><ele>176.0</ele><time>2026-04-11T15:00:57.372Z</time></trkpt><trkpt lat="45.5922713" lon="9.3338715"><ele>176.0</ele><time>2026-04-11T15:00:58.371Z</time></trkpt><trkpt lat="45.5922164" lon="9.3338068"><ele>176.0</ele><time>2026-04-11T15:01:00.369Z</time></trkpt><trkpt lat="45.5921645" lon="9.3337414"><ele>175.85714285714286</ele><time>2026-04-11T15:01:03.367Z</time></trkpt><trkpt lat="45.5921069" lon="9.3336765"><ele>175.71428571428572</ele><time>2026-04-11T15:01:05.367Z</time></trkpt><trkpt lat="45.5920383" lon="9.3335964"><ele>175.57142857142856</ele><time>2026-04-11T15:01:07.374Z</time></trkpt><trkpt lat="45.5919829" lon="9.333537"><ele>175.42857142857144</ele><time>2026-04-11T15:01:08.368Z</time></trkpt><trkpt lat="45.5919275" lon="9.3334785"><ele>175.28571428571428</ele><time>2026-04-11T15:01:09.368Z</time></trkpt><trkpt lat="45.5918717" lon="9.3334194"><ele>175.14285714285714</ele><time>2026-04-11T15:01:10.37Z</time></trkpt><trkpt lat="45.5918195" lon="9.3333645"><ele>175.0</ele><time>2026-04-11T15:01:11.368Z</time></trkpt><trkpt lat="45.5917655" lon="9.3333094"><ele>175.0</ele><time>2026-04-11T15:01:12.372Z</time></trkpt><trkpt lat="45.5917058" lon="9.3332463"><ele>175.0</ele><time>2026-04-11T15:01:13.371Z</time></trkpt><trkpt lat="45.5916474" lon="9.3331857"><ele>175.0</ele><time>2026-04-11T15:01:14.36Z</time></trkpt><trkpt lat="45.5915535" lon="9.3330818"><ele>175.0</ele><time>2026-04-11T15:01:16.365Z</time></trkpt><trkpt lat="45.5914784" lon="9.3329947"><ele>175.0</ele><time>2026-04-11T15:01:18.367Z</time></trkpt><trkpt lat="45.5913818" lon="9.332887"><ele>175.0</ele><time>2026-04-11T15:01:20.385Z</time></trkpt><trkpt lat="45.5913237" lon="9.332824"><ele>175.0</ele><time>2026-04-11T15:01:21.362Z</time></trkpt><trkpt lat="45.5912679" lon="9.3327582"><ele>175.0</ele><time>2026-04-11T15:01:22.374Z</time></trkpt><trkpt lat="45.5912123" lon="9.3326959"><ele>175.0</ele><time>2026-04-11T15:01:23.362Z</time></trkpt><trkpt lat="45.5911572" lon="9.3326416"><ele>175.0</ele><time>2026-04-11T15:01:24.391Z</time></trkpt><trkpt lat="45.5911019" lon="9.3325827"><ele>175.0</ele><time>2026-04-11T15:01:25.359Z</time></trkpt><trkpt lat="45.5910448" lon="9.3325164"><ele>175.0</ele><time>2026-04-11T15:01:26.361Z</time></trkpt><trkpt lat="45.5909803" lon="9.3324399"><ele>175.0</ele><time>2026-04-11T15:01:27.361Z</time></trkpt><trkpt lat="45.5909074" lon="9.3323518"><ele>175.0</ele><time>2026-04-11T15:01:28.36Z</time></trkpt><trkpt lat="45.5908237" lon="9.3322609"><ele>175.0</ele><time>2026-04-11T15:01:29.366Z</time></trkpt><trkpt lat="45.5907394" lon="9.3321714"><ele>175.0</ele><time>2026-04-11T15:01:30.37Z</time></trkpt><trkpt lat="45.5906659" lon="9.3320887"><ele>175.0</ele><time>2026-04-11T15:01:31.363Z</time></trkpt><trkpt lat="45.5906001" lon="9.3320167"><ele>175.0</ele><time>2026-04-11T15:01:32.366Z</time></trkpt><trkpt lat="45.5905354" lon="9.3319447"><ele>175.0</ele><time>2026-04-11T15:01:33.37Z</time></trkpt><trkpt lat="45.5904666" lon="9.3318814"><ele>175.0</ele><time>2026-04-11T15:01:34.363Z</time></trkpt><trkpt lat="45.5904042" lon="9.3318051"><ele>175.0</ele><time>2026-04-11T15:01:35.365Z</time></trkpt><trkpt lat="45.5903364" lon="9.3317342"><ele>175.0</ele><time>2026-04-11T15:01:36.364Z</time></trkpt><trkpt lat="45.5902729" lon="9.3316645"><ele>175.0</ele><time>2026-04-11T15:01:37.369Z</time></trkpt><trkpt lat="45.5902073" lon="9.3315904"><ele>175.0</ele><time>2026-04-11T15:01:38.36Z</time></trkpt><trkpt lat="45.5901409" lon="9.3315207"><ele>175.0</ele><time>2026-04-11T15:01:39.368Z</time></trkpt><trkpt lat="45.5900769" lon="9.331452"><ele>175.0</ele><time>2026-04-11T15:01:40.36Z</time></trkpt><trkpt lat="45.5900149" lon="9.3313811"><ele>175.0</ele><time>2026-04-11T15:01:41.364Z</time></trkpt><trkpt lat="45.5899537" lon="9.3313089"><ele>175.0</ele><time>2026-04-11T15:01:42.37Z</time></trkpt><trkpt lat="45.5898888" lon="9.3312412"><ele>175.0</ele><time>2026-04-11T15:01:43.365Z</time></trkpt><trkpt lat="45.5898275" lon="9.3311747"><ele>174.83333333333334</ele><time>2026-04-11T15:01:44.367Z</time></trkpt><trkpt lat="45.5897741" lon="9.3311176"><ele>174.66666666666669</ele><time>2026-04-11T15:01:45.373Z</time></trkpt><trkpt lat="45.58969" lon="9.3310285"><ele>174.5</ele><time>2026-04-11T15:01:47.374Z</time></trkpt><trkpt lat="45.5896426" lon="9.3309665"><ele>174.33333333333334</ele><time>2026-04-11T15:01:48.363Z</time></trkpt><trkpt lat="45.5895338" lon="9.3308907"><ele>174.16666666666666</ele><time>2026-04-11T15:01:50.366Z</time></trkpt><trkpt lat="45.5894598" lon="9.3309036"><ele>174.0</ele><time>2026-04-11T15:01:51.459Z</time></trkpt><trkpt lat="45.5893781" lon="9.3309224"><ele>173.66666666666666</ele><time>2026-04-11T15:01:52.364Z</time></trkpt><trkpt lat="45.5893028" lon="9.3309291"><ele>173.33333333333334</ele><time>2026-04-11T15:01:53.367Z</time></trkpt><trkpt lat="45.5892322" lon="9.3309312"><ele>173.0</ele><time>2026-04-11T15:01:54.366Z</time></trkpt><trkpt lat="45.5891538" lon="9.3309217"><ele>172.66666666666669</ele><time>2026-04-11T15:01:55.37Z</time></trkpt><trkpt lat="45.5890714" lon="9.3309028"><ele>172.33333333333334</ele><time>2026-04-11T15:01:56.371Z</time></trkpt><trkpt lat="45.5889836" lon="9.3308855"><ele>172.0</ele><time>2026-04-11T15:01:57.37Z</time></trkpt><trkpt lat="45.5888926" lon="9.330862"><ele>172.0</ele><time>2026-04-11T15:01:58.394Z</time></trkpt><trkpt lat="45.5888044" lon="9.3308378"><ele>172.0</ele><time>2026-04-11T15:01:59.371Z</time></trkpt><trkpt lat="45.5887143" lon="9.3308165"><ele>172.0</ele><time>2026-04-11T15:02:00.366Z</time></trkpt><trkpt lat="45.5886183" lon="9.3307917"><ele>172.0</ele><time>2026-04-11T15:02:01.396Z</time></trkpt><trkpt lat="45.5885201" lon="9.3307689"><ele>172.0</ele><time>2026-04-11T15:02:02.37Z</time></trkpt><trkpt lat="45.58842" lon="9.3307452"><ele>171.6</ele><time>2026-04-11T15:02:03.367Z</time></trkpt><trkpt lat="45.5883137" lon="9.3307228"><ele>171.2</ele><time>2026-04-11T15:02:04.36Z</time></trkpt><trkpt lat="45.5882122" lon="9.3306915"><ele>170.8</ele><time>2026-04-11T15:02:05.371Z</time></trkpt><trkpt lat="45.5881107" lon="9.3306625"><ele>170.4</ele><time>2026-04-11T15:02:06.366Z</time></trkpt><trkpt lat="45.588006" lon="9.3306303"><ele>170.0</ele><time>2026-04-11T15:02:07.369Z</time></trkpt><trkpt lat="45.5878983" lon="9.330603"><ele>170.0</ele><time>2026-04-11T15:02:08.362Z</time></trkpt><trkpt lat="45.587784" lon="9.3305739"><ele>170.0</ele><time>2026-04-11T15:02:09.369Z</time></trkpt><trkpt lat="45.587671" lon="9.3305449"><ele>170.0</ele><time>2026-04-11T15:02:10.36Z</time></trkpt><trkpt lat="45.5875634" lon="9.3305155"><ele>170.0</ele><time>2026-04-11T15:02:11.37Z</time></trkpt><trkpt lat="45.5874606" lon="9.330489"><ele>170.0</ele><time>2026-04-11T15:02:12.37Z</time></trkpt><trkpt lat="45.5873671" lon="9.3304571"><ele>169.5</ele><time>2026-04-11T15:02:13.371Z</time></trkpt><trkpt lat="45.5872796" lon="9.3304205"><ele>169.0</ele><time>2026-04-11T15:02:14.362Z</time></trkpt><trkpt lat="45.5871993" lon="9.3303834"><ele>168.5</ele><time>2026-04-11T15:02:15.37Z</time></trkpt><trkpt lat="45.5871237" lon="9.3303409"><ele>168.0</ele><time>2026-04-11T15:02:16.365Z</time></trkpt><trkpt lat="45.5870495" lon="9.3303072"><ele>167.5</ele><time>2026-04-11T15:02:17.364Z</time></trkpt><trkpt lat="45.5869611" lon="9.3303067"><ele>167.0</ele><time>2026-04-11T15:02:18.365Z</time></trkpt><trkpt lat="45.5868465" lon="9.3303146"><ele>167.0</ele><time>2026-04-11T15:02:19.371Z</time></trkpt><trkpt lat="45.5867117" lon="9.3303036"><ele>167.0</ele><time>2026-04-11T15:02:20.365Z</time></trkpt><trkpt lat="45.5865578" lon="9.3302759"><ele>167.0</ele><time>2026-04-11T15:02:21.363Z</time></trkpt><trkpt lat="45.5864019" lon="9.3302407"><ele>167.0</ele><time>2026-04-11T15:02:22.367Z</time></trkpt><trkpt lat="45.5862418" lon="9.3302048"><ele>167.66666666666666</ele><time>2026-04-11T15:02:23.369Z</time></trkpt><trkpt lat="45.5860779" lon="9.330169"><ele>168.33333333333334</ele><time>2026-04-11T15:02:24.362Z</time></trkpt><trkpt lat="45.5859112" lon="9.330134"><ele>169.0</ele><time>2026-04-11T15:02:25.37Z</time></trkpt><trkpt lat="45.5857502" lon="9.3300961"><ele>169.0</ele><time>2026-04-11T15:02:26.359Z</time></trkpt><trkpt lat="45.5855966" lon="9.3300551"><ele>169.0</ele><time>2026-04-11T15:02:27.362Z</time></trkpt><trkpt lat="45.585445" lon="9.330001"><ele>169.0</ele><time>2026-04-11T15:02:28.364Z</time></trkpt><trkpt lat="45.5852937" lon="9.3299125"><ele>168.66666666666669</ele><time>2026-04-11T15:02:29.37Z</time></trkpt><trkpt lat="45.5851412" lon="9.3297838"><ele>168.33333333333334</ele><time>2026-04-11T15:02:30.365Z</time></trkpt><trkpt lat="45.5849801" lon="9.3296339"><ele>168.0</ele><time>2026-04-11T15:02:31.369Z</time></trkpt><trkpt lat="45.5848194" lon="9.3294684"><ele>168.0</ele><time>2026-04-11T15:02:32.371Z</time></trkpt><trkpt lat="45.5846568" lon="9.3292976"><ele>168.0</ele><time>2026-04-11T15:02:33.36Z</time></trkpt><trkpt lat="45.5845018" lon="9.3291393"><ele>168.0</ele><time>2026-04-11T15:02:34.362Z</time></trkpt><trkpt lat="45.5843499" lon="9.3289796"><ele>169.0</ele><time>2026-04-11T15:02:35.354Z</time></trkpt><trkpt lat="45.5842078" lon="9.3288169"><ele>170.0</ele><time>2026-04-11T15:02:36.365Z</time></trkpt><trkpt lat="45.5840636" lon="9.3286648"><ele>171.0</ele><time>2026-04-11T15:02:37.361Z</time></trkpt><trkpt lat="45.5839202" lon="9.3285149"><ele>171.0</ele><time>2026-04-11T15:02:38.361Z</time></trkpt><trkpt lat="45.5837849" lon="9.3283691"><ele>171.0</ele><time>2026-04-11T15:02:39.363Z</time></trkpt><trkpt lat="45.5836528" lon="9.3282333"><ele>171.0</ele><time>2026-04-11T15:02:40.375Z</time></trkpt><trkpt lat="45.583526" lon="9.3281003"><ele>169.75</ele><time>2026-04-11T15:02:41.364Z</time></trkpt><trkpt lat="45.5833993" lon="9.3279764"><ele>168.5</ele><time>2026-04-11T15:02:42.368Z</time></trkpt><trkpt lat="45.5832799" lon="9.3278542"><ele>167.25</ele><time>2026-04-11T15:02:43.374Z</time></trkpt><trkpt lat="45.5831728" lon="9.3277397"><ele>166.0</ele><time>2026-04-11T15:02:44.364Z</time></trkpt><trkpt lat="45.5830794" lon="9.3276422"><ele>166.0</ele><time>2026-04-11T15:02:45.368Z</time></trkpt><trkpt lat="45.5829998" lon="9.3275501"><ele>166.0</ele><time>2026-04-11T15:02:46.362Z</time></trkpt><trkpt lat="45.5829382" lon="9.3274441"><ele>166.0</ele><time>2026-04-11T15:02:47.368Z</time></trkpt><trkpt lat="45.5828933" lon="9.3273242"><ele>166.0</ele><time>2026-04-11T15:02:48.362Z</time></trkpt><trkpt lat="45.5828604" lon="9.327213"><ele>166.0</ele><time>2026-04-11T15:02:49.37Z</time></trkpt><trkpt lat="45.5828241" lon="9.3271103"><ele>165.5</ele><time>2026-04-11T15:02:50.365Z</time></trkpt><trkpt lat="45.5827747" lon="9.3270287"><ele>165.0</ele><time>2026-04-11T15:02:51.37Z</time></trkpt><trkpt lat="45.5827027" lon="9.3269771"><ele>164.5</ele><time>2026-04-11T15:02:52.379Z</time></trkpt><trkpt lat="45.5826138" lon="9.3269643"><ele>164.0</ele><time>2026-04-11T15:02:53.37Z</time></trkpt><trkpt lat="45.5825192" lon="9.3269673"><ele>163.5</ele><time>2026-04-11T15:02:54.353Z</time></trkpt><trkpt lat="45.5824306" lon="9.3269413"><ele>163.0</ele><time>2026-04-11T15:02:55.366Z</time></trkpt><trkpt lat="45.5823453" lon="9.326869"><ele>163.0</ele><time>2026-04-11T15:02:56.37Z</time></trkpt><trkpt lat="45.5822565" lon="9.3267833"><ele>163.0</ele><time>2026-04-11T15:02:57.37Z</time></trkpt><trkpt lat="45.5821764" lon="9.3267037"><ele>163.0</ele><time>2026-04-11T15:02:58.372Z</time></trkpt><trkpt lat="45.5820931" lon="9.3266228"><ele>163.0</ele><time>2026-04-11T15:02:59.36Z</time></trkpt><trkpt lat="45.5820121" lon="9.3265395"><ele>163.0</ele><time>2026-04-11T15:03:00.369Z</time></trkpt><trkpt lat="45.5819284" lon="9.3264495"><ele>163.25</ele><time>2026-04-11T15:03:01.369Z</time></trkpt><trkpt lat="45.5818406" lon="9.3263558"><ele>163.5</ele><time>2026-04-11T15:03:02.374Z</time></trkpt><trkpt lat="45.5817472" lon="9.3262574"><ele>163.75</ele><time>2026-04-11T15:03:03.361Z</time></trkpt><trkpt lat="45.5816528" lon="9.3261566"><ele>164.0</ele><time>2026-04-11T15:03:04.358Z</time></trkpt><trkpt lat="45.5815542" lon="9.3260531"><ele>164.0</ele><time>2026-04-11T15:03:05.359Z</time></trkpt><trkpt lat="45.5814531" lon="9.3259436"><ele>164.0</ele><time>2026-04-11T15:03:06.374Z</time></trkpt><trkpt lat="45.5813499" lon="9.3258275"><ele>164.0</ele><time>2026-04-11T15:03:07.365Z</time></trkpt><trkpt lat="45.5812475" lon="9.3257202"><ele>164.0</ele><time>2026-04-11T15:03:08.374Z</time></trkpt><trkpt lat="45.5811441" lon="9.3256107"><ele>164.0</ele><time>2026-04-11T15:03:09.369Z</time></trkpt><trkpt lat="45.5810409" lon="9.3254975"><ele>164.0</ele><time>2026-04-11T15:03:10.371Z</time></trkpt><trkpt lat="45.5809255" lon="9.3253718"><ele>164.0</ele><time>2026-04-11T15:03:11.361Z</time></trkpt><trkpt lat="45.5808209" lon="9.3252536"><ele>164.0</ele><time>2026-04-11T15:03:12.368Z</time></trkpt><trkpt lat="45.5807201" lon="9.3251516"><ele>164.0</ele><time>2026-04-11T15:03:13.404Z</time></trkpt><trkpt lat="45.580625" lon="9.325054"><ele>164.0</ele><time>2026-04-11T15:03:14.364Z</time></trkpt><trkpt lat="45.5805401" lon="9.3249691"><ele>164.0</ele><time>2026-04-11T15:03:15.368Z</time></trkpt><trkpt lat="45.5804616" lon="9.3248895"><ele>164.0</ele><time>2026-04-11T15:03:16.374Z</time></trkpt><trkpt lat="45.5803913" lon="9.3248172"><ele>164.0</ele><time>2026-04-11T15:03:17.371Z</time></trkpt><trkpt lat="45.5803266" lon="9.3247522"><ele>163.83333333333331</ele><time>2026-04-11T15:03:18.369Z</time></trkpt><trkpt lat="45.5802694" lon="9.3246947"><ele>163.66666666666666</ele><time>2026-04-11T15:03:19.362Z</time></trkpt><trkpt lat="45.5802167" lon="9.3246365"><ele>163.5</ele><time>2026-04-11T15:03:20.368Z</time></trkpt><trkpt lat="45.5801107" lon="9.324513"><ele>163.33333333333334</ele><time>2026-04-11T15:03:23.365Z</time></trkpt><trkpt lat="45.5800413" lon="9.3244514"><ele>163.16666666666669</ele><time>2026-04-11T15:04:38.373Z</time></trkpt><trkpt lat="45.5799865" lon="9.3243952"><ele>163.0</ele><time>2026-04-11T15:04:39.369Z</time></trkpt><trkpt lat="45.5799085" lon="9.3242832"><ele>163.0</ele><time>2026-04-11T15:04:40.363Z</time></trkpt><trkpt lat="45.5798149" lon="9.3241406"><ele>163.0</ele><time>2026-04-11T15:04:41.358Z</time></trkpt><trkpt lat="45.5796953" lon="9.3239787"><ele>163.0</ele><time>2026-04-11T15:04:42.367Z</time></trkpt><trkpt lat="45.5795543" lon="9.3237907"><ele>162.33333333333334</ele><time>2026-04-11T15:04:43.39Z</time></trkpt><trkpt lat="45.5794037" lon="9.3236036"><ele>161.66666666666666</ele><time>2026-04-11T15:04:44.392Z</time></trkpt><trkpt lat="45.5792484" lon="9.3234082"><ele>161.0</ele><time>2026-04-11T15:04:45.369Z</time></trkpt><trkpt lat="45.5790857" lon="9.3232029"><ele>161.0</ele><time>2026-04-11T15:04:46.393Z</time></trkpt><trkpt lat="45.5789159" lon="9.3229927"><ele>161.0</ele><time>2026-04-11T15:04:47.361Z</time></trkpt><trkpt lat="45.5787564" lon="9.3227896"><ele>161.0</ele><time>2026-04-11T15:04:48.359Z</time></trkpt><trkpt lat="45.5786088" lon="9.3226018"><ele>160.33333333333331</ele><time>2026-04-11T15:04:49.371Z</time></trkpt><trkpt lat="45.5784683" lon="9.3224232"><ele>159.66666666666666</ele><time>2026-04-11T15:04:50.357Z</time></trkpt><trkpt lat="45.5783273" lon="9.3222433"><ele>159.0</ele><time>2026-04-11T15:04:51.368Z</time></trkpt><trkpt lat="45.5781905" lon="9.3220689"><ele>159.0</ele><time>2026-04-11T15:04:52.369Z</time></trkpt><trkpt lat="45.578056" lon="9.3219019"><ele>159.0</ele><time>2026-04-11T15:04:53.366Z</time></trkpt><trkpt lat="45.5779267" lon="9.3217404"><ele>159.0</ele><time>2026-04-11T15:04:54.37Z</time></trkpt><trkpt lat="45.5778012" lon="9.3215786"><ele>159.33333333333334</ele><time>2026-04-11T15:04:55.357Z</time></trkpt><trkpt lat="45.5776671" lon="9.3214077"><ele>159.66666666666669</ele><time>2026-04-11T15:04:56.368Z</time></trkpt><trkpt lat="45.5775474" lon="9.3212514"><ele>160.0</ele><time>2026-04-11T15:04:57.357Z</time></trkpt><trkpt lat="45.5774327" lon="9.3211052"><ele>159.25</ele><time>2026-04-11T15:04:58.368Z</time></trkpt><trkpt lat="45.5773232" lon="9.3209672"><ele>158.5</ele><time>2026-04-11T15:04:59.363Z</time></trkpt><trkpt lat="45.5772237" lon="9.3208317"><ele>157.75</ele><time>2026-04-11T15:05:00.369Z</time></trkpt><trkpt lat="45.5771261" lon="9.3207014"><ele>157.0</ele><time>2026-04-11T15:05:01.365Z</time></trkpt><trkpt lat="45.5770226" lon="9.320571"><ele>157.75</ele><time>2026-04-11T15:05:02.361Z</time></trkpt><trkpt lat="45.5769226" lon="9.3204391"><ele>158.5</ele><time>2026-04-11T15:05:03.36Z</time></trkpt><trkpt lat="45.5768259" lon="9.3203086"><ele>159.25</ele><time>2026-04-11T15:05:04.36Z</time></trkpt><trkpt lat="45.5767269" lon="9.3201792"><ele>160.0</ele><time>2026-04-11T15:05:05.372Z</time></trkpt><trkpt lat="45.5766252" lon="9.320058"><ele>160.0</ele><time>2026-04-11T15:05:06.366Z</time></trkpt><trkpt lat="45.57652" lon="9.3199216"><ele>160.0</ele><time>2026-04-11T15:05:07.366Z</time></trkpt><trkpt lat="45.5764146" lon="9.3197842"><ele>160.0</ele><time>2026-04-11T15:05:08.369Z</time></trkpt><trkpt lat="45.576307" lon="9.3196496"><ele>160.0</ele><time>2026-04-11T15:05:09.371Z</time></trkpt><trkpt lat="45.5762039" lon="9.3195181"><ele>159.5</ele><time>2026-04-11T15:05:10.369Z</time></trkpt><trkpt lat="45.5761031" lon="9.3193834"><ele>159.0</ele><time>2026-04-11T15:05:11.361Z</time></trkpt><trkpt lat="45.5760011" lon="9.3192517"><ele>158.5</ele><time>2026-04-11T15:05:12.36Z</time></trkpt><trkpt lat="45.5758971" lon="9.3191181"><ele>158.0</ele><time>2026-04-11T15:05:13.372Z</time></trkpt><trkpt lat="45.5757901" lon="9.3189839"><ele>158.0</ele><time>2026-04-11T15:05:14.37Z</time></trkpt><trkpt lat="45.5756818" lon="9.3188454"><ele>158.0</ele><time>2026-04-11T15:05:15.372Z</time></trkpt><trkpt lat="45.5755762" lon="9.318714"><ele>158.0</ele><time>2026-04-11T15:05:16.363Z</time></trkpt><trkpt lat="45.5754691" lon="9.3185826"><ele>158.0</ele><time>2026-04-11T15:05:17.359Z</time></trkpt><trkpt lat="45.5753602" lon="9.3184563"><ele>158.25</ele><time>2026-04-11T15:05:18.359Z</time></trkpt><trkpt lat="45.57525" lon="9.3183235"><ele>158.5</ele><time>2026-04-11T15:05:19.361Z</time></trkpt><trkpt lat="45.5751442" lon="9.3181887"><ele>158.75</ele><time>2026-04-11T15:05:20.368Z</time></trkpt><trkpt lat="45.5750413" lon="9.3180593"><ele>159.0</ele><time>2026-04-11T15:05:21.439Z</time></trkpt><trkpt lat="45.5749405" lon="9.3179312"><ele>159.5</ele><time>2026-04-11T15:05:22.37Z</time></trkpt><trkpt lat="45.5748436" lon="9.3178071"><ele>160.0</ele><time>2026-04-11T15:05:23.37Z</time></trkpt><trkpt lat="45.5747488" lon="9.3176834"><ele>160.5</ele><time>2026-04-11T15:05:24.369Z</time></trkpt><trkpt lat="45.574653" lon="9.3175593"><ele>161.0</ele><time>2026-04-11T15:05:25.384Z</time></trkpt><trkpt lat="45.5745551" lon="9.3174222"><ele>159.33333333333331</ele><time>2026-04-11T15:05:26.359Z</time></trkpt><trkpt lat="45.5744454" lon="9.3172911"><ele>157.66666666666666</ele><time>2026-04-11T15:05:27.364Z</time></trkpt><trkpt lat="45.5743143" lon="9.3171322"><ele>156.0</ele><time>2026-04-11T15:05:28.366Z</time></trkpt><trkpt lat="45.5741821" lon="9.316951"><ele>155.33333333333334</ele><time>2026-04-11T15:05:29.366Z</time></trkpt><trkpt lat="45.5740602" lon="9.3167781"><ele>154.66666666666669</ele><time>2026-04-11T15:05:30.375Z</time></trkpt><trkpt lat="45.5739385" lon="9.3166251"><ele>154.0</ele><time>2026-04-11T15:05:31.367Z</time></trkpt><trkpt lat="45.5738265" lon="9.3164771"><ele>154.25</ele><time>2026-04-11T15:05:32.377Z</time></trkpt><trkpt lat="45.5737134" lon="9.3163379"><ele>154.5</ele><time>2026-04-11T15:05:33.367Z</time></trkpt><trkpt lat="45.5736025" lon="9.3161935"><ele>154.75</ele><time>2026-04-11T15:05:34.363Z</time></trkpt><trkpt lat="45.573497" lon="9.3160589"><ele>155.0</ele><time>2026-04-11T15:05:35.363Z</time></trkpt><trkpt lat="45.5733888" lon="9.3159203"><ele>155.33333333333331</ele><time>2026-04-11T15:05:36.365Z</time></trkpt><trkpt lat="45.5732689" lon="9.3157783"><ele>155.66666666666666</ele><time>2026-04-11T15:05:37.373Z</time></trkpt><trkpt lat="45.5731419" lon="9.315619"><ele>156.0</ele><time>2026-04-11T15:05:38.361Z</time></trkpt><trkpt lat="45.5730035" lon="9.3154433"><ele>156.33333333333334</ele><time>2026-04-11T15:05:39.371Z</time></trkpt><trkpt lat="45.5728556" lon="9.3152549"><ele>156.66666666666669</ele><time>2026-04-11T15:05:40.362Z</time></trkpt><trkpt lat="45.572718" lon="9.3150753"><ele>157.0</ele><time>2026-04-11T15:05:41.37Z</time></trkpt><trkpt lat="45.5725866" lon="9.3149092"><ele>157.0</ele><time>2026-04-11T15:05:42.361Z</time></trkpt><trkpt lat="45.5724626" lon="9.3147573"><ele>157.0</ele><time>2026-04-11T15:05:43.359Z</time></trkpt><trkpt lat="45.5723347" lon="9.3145978"><ele>157.0</ele><time>2026-04-11T15:05:44.364Z</time></trkpt><trkpt lat="45.5722042" lon="9.3144382"><ele>157.33333333333334</ele><time>2026-04-11T15:05:45.363Z</time></trkpt><trkpt lat="45.5720789" lon="9.3142693"><ele>157.66666666666666</ele><time>2026-04-11T15:05:46.355Z</time></trkpt><trkpt lat="45.571947" lon="9.3140892"><ele>158.0</ele><time>2026-04-11T15:05:47.374Z</time></trkpt><trkpt lat="45.5718204" lon="9.3139193"><ele>158.0</ele><time>2026-04-11T15:05:48.358Z</time></trkpt><trkpt lat="45.571698" lon="9.3137576"><ele>158.0</ele><time>2026-04-11T15:05:49.394Z</time></trkpt><trkpt lat="45.5715765" lon="9.3136036"><ele>158.0</ele><time>2026-04-11T15:05:50.355Z</time></trkpt><trkpt lat="45.5714605" lon="9.3134537"><ele>158.0</ele><time>2026-04-11T15:05:51.367Z</time></trkpt><trkpt lat="45.5713478" lon="9.3133059"><ele>158.0</ele><time>2026-04-11T15:05:52.374Z</time></trkpt><trkpt lat="45.5712305" lon="9.3131505"><ele>158.0</ele><time>2026-04-11T15:05:53.37Z</time></trkpt><trkpt lat="45.5711048" lon="9.312983"><ele>157.33333333333331</ele><time>2026-04-11T15:05:54.367Z</time></trkpt><trkpt lat="45.5709633" lon="9.3128069"><ele>156.66666666666666</ele><time>2026-04-11T15:05:55.366Z</time></trkpt><trkpt lat="45.5708166" lon="9.3126246"><ele>156.0</ele><time>2026-04-11T15:05:56.355Z</time></trkpt><trkpt lat="45.5706856" lon="9.312459"><ele>156.0</ele><time>2026-04-11T15:05:57.373Z</time></trkpt><trkpt lat="45.5705617" lon="9.3123004"><ele>156.0</ele><time>2026-04-11T15:05:58.36Z</time></trkpt><trkpt lat="45.5704447" lon="9.3121547"><ele>156.0</ele><time>2026-04-11T15:05:59.372Z</time></trkpt><trkpt lat="45.5703356" lon="9.3120204"><ele>156.0</ele><time>2026-04-11T15:06:00.357Z</time></trkpt><trkpt lat="45.5702392" lon="9.3119031"><ele>156.0</ele><time>2026-04-11T15:06:01.369Z</time></trkpt><trkpt lat="45.5701521" lon="9.3117977"><ele>156.0</ele><time>2026-04-11T15:06:02.355Z</time></trkpt><trkpt lat="45.5700742" lon="9.3116996"><ele>156.0</ele><time>2026-04-11T15:06:03.358Z</time></trkpt><trkpt lat="45.5700015" lon="9.3116147"><ele>156.0</ele><time>2026-04-11T15:06:04.356Z</time></trkpt><trkpt lat="45.5699364" lon="9.3115371"><ele>156.0</ele><time>2026-04-11T15:06:05.372Z</time></trkpt><trkpt lat="45.5698785" lon="9.3114646"><ele>156.0</ele><time>2026-04-11T15:06:06.367Z</time></trkpt><trkpt lat="45.5698245" lon="9.3113971"><ele>156.0</ele><time>2026-04-11T15:06:07.364Z</time></trkpt><trkpt lat="45.5697371" lon="9.3112801"><ele>156.0</ele><time>2026-04-11T15:06:09.365Z</time></trkpt><trkpt lat="45.569648" lon="9.3111625"><ele>156.0</ele><time>2026-04-11T15:06:11.389Z</time></trkpt><trkpt lat="45.5696016" lon="9.3111013"><ele>156.0</ele><time>2026-04-11T15:06:12.36Z</time></trkpt><trkpt lat="45.5695532" lon="9.3110376"><ele>156.0</ele><time>2026-04-11T15:06:13.365Z</time></trkpt><trkpt lat="45.5695023" lon="9.310969"><ele>156.0</ele><time>2026-04-11T15:06:14.359Z</time></trkpt><trkpt lat="45.569447" lon="9.3108987"><ele>156.0</ele><time>2026-04-11T15:06:15.355Z</time></trkpt><trkpt lat="45.5693873" lon="9.3108289"><ele>156.0</ele><time>2026-04-11T15:06:16.389Z</time></trkpt><trkpt lat="45.5693267" lon="9.3107517"><ele>156.0</ele><time>2026-04-11T15:06:17.37Z</time></trkpt><trkpt lat="45.5692691" lon="9.3106887"><ele>156.0</ele><time>2026-04-11T15:06:18.357Z</time></trkpt><trkpt lat="45.5692179" lon="9.3106226"><ele>155.66666666666666</ele><time>2026-04-11T15:06:19.367Z</time></trkpt><trkpt lat="45.5691642" lon="9.3105589"><ele>155.33333333333334</ele><time>2026-04-11T15:06:20.356Z</time></trkpt><trkpt lat="45.5691089" lon="9.3104893"><ele>155.0</ele><time>2026-04-11T15:06:21.369Z</time></trkpt><trkpt lat="45.5690471" lon="9.3104165"><ele>154.66666666666669</ele><time>2026-04-11T15:06:22.361Z</time></trkpt><trkpt lat="45.5689903" lon="9.3103314"><ele>154.33333333333334</ele><time>2026-04-11T15:06:23.363Z</time></trkpt><trkpt lat="45.5689303" lon="9.3102497"><ele>154.0</ele><time>2026-04-11T15:06:24.371Z</time></trkpt><trkpt lat="45.5688814" lon="9.3101834"><ele>154.0</ele><time>2026-04-11T15:06:25.388Z</time></trkpt><trkpt lat="45.5688222" lon="9.3101071"><ele>154.0</ele><time>2026-04-11T15:06:27.363Z</time></trkpt><trkpt lat="45.5687586" lon="9.3100046"><ele>154.0</ele><time>2026-04-11T15:06:29.375Z</time></trkpt><trkpt lat="45.5686906" lon="9.3099221"><ele>154.0</ele><time>2026-04-11T15:06:30.355Z</time></trkpt><trkpt lat="45.568603" lon="9.309816"><ele>154.0</ele><time>2026-04-11T15:06:31.355Z</time></trkpt><trkpt lat="45.5684882" lon="9.30968"><ele>154.0</ele><time>2026-04-11T15:06:32.36Z</time></trkpt><trkpt lat="45.5683659" lon="9.3095256"><ele>154.0</ele><time>2026-04-11T15:06:33.37Z</time></trkpt><trkpt lat="45.5682373" lon="9.3093582"><ele>154.0</ele><time>2026-04-11T15:06:34.365Z</time></trkpt><trkpt lat="45.5681177" lon="9.3092042"><ele>154.0</ele><time>2026-04-11T15:06:35.375Z</time></trkpt><trkpt lat="45.5680005" lon="9.3090607"><ele>154.0</ele><time>2026-04-11T15:06:36.371Z</time></trkpt><trkpt lat="45.5678941" lon="9.308924"><ele>154.0</ele><time>2026-04-11T15:06:37.367Z</time></trkpt><trkpt lat="45.5677966" lon="9.3087959"><ele>154.0</ele><time>2026-04-11T15:06:38.363Z</time></trkpt><trkpt lat="45.5677051" lon="9.3086759"><ele>154.25</ele><time>2026-04-11T15:06:39.361Z</time></trkpt><trkpt lat="45.5676153" lon="9.3085611"><ele>154.5</ele><time>2026-04-11T15:06:40.359Z</time></trkpt><trkpt lat="45.5675303" lon="9.3084553"><ele>154.75</ele><time>2026-04-11T15:06:41.366Z</time></trkpt><trkpt lat="45.5674444" lon="9.3083461"><ele>155.0</ele><time>2026-04-11T15:06:42.363Z</time></trkpt><trkpt lat="45.5673566" lon="9.3082367"><ele>155.0</ele><time>2026-04-11T15:06:43.366Z</time></trkpt><trkpt lat="45.5672642" lon="9.3081281"><ele>155.0</ele><time>2026-04-11T15:06:44.356Z</time></trkpt><trkpt lat="45.5671785" lon="9.3080242"><ele>155.0</ele><time>2026-04-11T15:06:45.362Z</time></trkpt><trkpt lat="45.5670963" lon="9.3079283"><ele>155.0</ele><time>2026-04-11T15:06:46.357Z</time></trkpt><trkpt lat="45.5670178" lon="9.307835"><ele>155.0</ele><time>2026-04-11T15:06:47.357Z</time></trkpt><trkpt lat="45.5669391" lon="9.3077474"><ele>154.25</ele><time>2026-04-11T15:06:48.354Z</time></trkpt><trkpt lat="45.566859" lon="9.3076646"><ele>153.5</ele><time>2026-04-11T15:06:49.354Z</time></trkpt><trkpt lat="45.5667791" lon="9.3075832"><ele>152.75</ele><time>2026-04-11T15:06:50.359Z</time></trkpt><trkpt lat="45.5667078" lon="9.3075077"><ele>152.0</ele><time>2026-04-11T15:06:51.51Z</time></trkpt><trkpt lat="45.5665576" lon="9.3073698"><ele>152.0</ele><time>2026-04-11T15:06:53.37Z</time></trkpt><trkpt lat="45.5664453" lon="9.3072911"><ele>152.0</ele><time>2026-04-11T15:06:54.355Z</time></trkpt><trkpt lat="45.5663119" lon="9.3071891"><ele>152.0</ele><time>2026-04-11T15:06:55.382Z</time></trkpt><trkpt lat="45.5661672" lon="9.3070795"><ele>152.0</ele><time>2026-04-11T15:06:56.367Z</time></trkpt><trkpt lat="45.5660043" lon="9.3069582"><ele>152.33333333333331</ele><time>2026-04-11T15:06:57.369Z</time></trkpt><trkpt lat="45.5658246" lon="9.3068242"><ele>152.66666666666666</ele><time>2026-04-11T15:06:58.374Z</time></trkpt><trkpt lat="45.5656429" lon="9.3066878"><ele>153.0</ele><time>2026-04-11T15:06:59.36Z</time></trkpt><trkpt lat="45.5654714" lon="9.3065601"><ele>153.0</ele><time>2026-04-11T15:07:00.366Z</time></trkpt><trkpt lat="45.5653078" lon="9.3064399"><ele>153.0</ele><time>2026-04-11T15:07:01.366Z</time></trkpt><trkpt lat="45.565154" lon="9.3063223"><ele>153.0</ele><time>2026-04-11T15:07:02.354Z</time></trkpt><trkpt lat="45.5650091" lon="9.3062113"><ele>153.0</ele><time>2026-04-11T15:07:03.356Z</time></trkpt><trkpt lat="45.564871" lon="9.3061055"><ele>153.0</ele><time>2026-04-11T15:07:04.372Z</time></trkpt><trkpt lat="45.5647353" lon="9.3059996"><ele>153.0</ele><time>2026-04-11T15:07:05.368Z</time></trkpt><trkpt lat="45.5646044" lon="9.3059122"><ele>153.0</ele><time>2026-04-11T15:07:06.364Z</time></trkpt><trkpt lat="45.5644818" lon="9.3058332"><ele>153.0</ele><time>2026-04-11T15:07:07.372Z</time></trkpt><trkpt lat="45.5643702" lon="9.3057519"><ele>153.0</ele><time>2026-04-11T15:07:08.372Z</time></trkpt><trkpt lat="45.5642655" lon="9.3056812"><ele>153.0</ele><time>2026-04-11T15:07:09.371Z</time></trkpt><trkpt lat="45.5641637" lon="9.3056118"><ele>153.20000000000002</ele><time>2026-04-11T15:07:10.352Z</time></trkpt><trkpt lat="45.5640743" lon="9.3055462"><ele>153.4</ele><time>2026-04-11T15:07:11.368Z</time></trkpt><trkpt lat="45.5639931" lon="9.3054885"><ele>153.60000000000002</ele><time>2026-04-11T15:07:12.359Z</time></trkpt><trkpt lat="45.5639247" lon="9.3054309"><ele>153.8</ele><time>2026-04-11T15:07:13.369Z</time></trkpt><trkpt lat="45.5638469" lon="9.3053511"><ele>154.0</ele><time>2026-04-11T15:07:15.369Z</time></trkpt><trkpt lat="45.5637756" lon="9.3052652"><ele>154.0</ele><time>2026-04-11T15:07:18.356Z</time></trkpt><trkpt lat="45.5637311" lon="9.3051943"><ele>154.0</ele><time>2026-04-11T15:07:19.369Z</time></trkpt><trkpt lat="45.5636569" lon="9.3051346"><ele>154.0</ele><time>2026-04-11T15:07:20.361Z</time></trkpt><trkpt lat="45.5635614" lon="9.3051069"><ele>154.0</ele><time>2026-04-11T15:07:21.357Z</time></trkpt><trkpt lat="45.5634475" lon="9.3050673"><ele>154.0</ele><time>2026-04-11T15:07:22.357Z</time></trkpt><trkpt lat="45.5633231" lon="9.3049721"><ele>154.33333333333334</ele><time>2026-04-11T15:07:23.364Z</time></trkpt><trkpt lat="45.5631844" lon="9.304856"><ele>154.66666666666666</ele><time>2026-04-11T15:07:24.374Z</time></trkpt><trkpt lat="45.5630274" lon="9.3047277"><ele>155.0</ele><time>2026-04-11T15:07:25.375Z</time></trkpt><trkpt lat="45.5628822" lon="9.3046068"><ele>154.33333333333331</ele><time>2026-04-11T15:07:26.369Z</time></trkpt><trkpt lat="45.5627418" lon="9.3044972"><ele>153.66666666666666</ele><time>2026-04-11T15:07:27.359Z</time></trkpt><trkpt lat="45.5626103" lon="9.3043972"><ele>153.0</ele><time>2026-04-11T15:07:28.362Z</time></trkpt><trkpt lat="45.5624863" lon="9.3043007"><ele>153.0</ele><time>2026-04-11T15:07:29.369Z</time></trkpt><trkpt lat="45.562358" lon="9.3042023"><ele>153.0</ele><time>2026-04-11T15:07:30.368Z</time></trkpt><trkpt lat="45.5622318" lon="9.3041082"><ele>153.0</ele><time>2026-04-11T15:07:31.387Z</time></trkpt><trkpt lat="45.5621025" lon="9.3040142"><ele>153.0</ele><time>2026-04-11T15:07:32.354Z</time></trkpt><trkpt lat="45.5619764" lon="9.3039192"><ele>153.0</ele><time>2026-04-11T15:07:33.357Z</time></trkpt><trkpt lat="45.561849" lon="9.303828"><ele>153.0</ele><time>2026-04-11T15:07:34.361Z</time></trkpt><trkpt lat="45.5617024" lon="9.3037288"><ele>153.0</ele><time>2026-04-11T15:07:35.355Z</time></trkpt><trkpt lat="45.5615555" lon="9.3036185"><ele>153.0</ele><time>2026-04-11T15:07:36.371Z</time></trkpt><trkpt lat="45.5614096" lon="9.303507"><ele>153.0</ele><time>2026-04-11T15:07:37.361Z</time></trkpt><trkpt lat="45.5612648" lon="9.303395"><ele>153.0</ele><time>2026-04-11T15:07:38.365Z</time></trkpt><trkpt lat="45.5611158" lon="9.3032983"><ele>152.66666666666666</ele><time>2026-04-11T15:07:39.358Z</time></trkpt><trkpt lat="45.5609795" lon="9.3031675"><ele>152.33333333333331</ele><time>2026-04-11T15:07:40.392Z</time></trkpt><trkpt lat="45.560853" lon="9.3030569"><ele>152.0</ele><time>2026-04-11T15:07:41.381Z</time></trkpt><trkpt lat="45.5607305" lon="9.3029617"><ele>152.0</ele><time>2026-04-11T15:07:42.353Z</time></trkpt><trkpt lat="45.5606129" lon="9.3028739"><ele>152.0</ele><time>2026-04-11T15:07:43.358Z</time></trkpt><trkpt lat="45.5605099" lon="9.3028001"><ele>152.0</ele><time>2026-04-11T15:07:44.363Z</time></trkpt><trkpt lat="45.5604126" lon="9.3027246"><ele>152.0</ele><time>2026-04-11T15:07:45.385Z</time></trkpt><trkpt lat="45.5602902" lon="9.3026418"><ele>151.25</ele><time>2026-04-11T15:07:46.37Z</time></trkpt><trkpt lat="45.5601489" lon="9.30254"><ele>150.5</ele><time>2026-04-11T15:07:47.401Z</time></trkpt><trkpt lat="45.5600213" lon="9.3024472"><ele>149.75</ele><time>2026-04-11T15:07:48.368Z</time></trkpt><trkpt lat="45.5599048" lon="9.3023593"><ele>149.0</ele><time>2026-04-11T15:07:49.367Z</time></trkpt><trkpt lat="45.5597922" lon="9.3022803"><ele>149.2</ele><time>2026-04-11T15:07:50.368Z</time></trkpt><trkpt lat="45.5596871" lon="9.3022203"><ele>149.4</ele><time>2026-04-11T15:07:51.358Z</time></trkpt><trkpt lat="45.5596005" lon="9.3021482"><ele>149.6</ele><time>2026-04-11T15:07:52.369Z</time></trkpt><trkpt lat="45.5595208" lon="9.3020364"><ele>149.8</ele><time>2026-04-11T15:07:53.363Z</time></trkpt><trkpt lat="45.5594266" lon="9.3019389"><ele>150.0</ele><time>2026-04-11T15:07:54.367Z</time></trkpt><trkpt lat="45.5593059" lon="9.3018781"><ele>149.4</ele><time>2026-04-11T15:07:55.371Z</time></trkpt><trkpt lat="45.5592019" lon="9.3018072"><ele>148.8</ele><time>2026-04-11T15:07:56.371Z</time></trkpt><trkpt lat="45.5591078" lon="9.3017358"><ele>148.2</ele><time>2026-04-11T15:07:57.369Z</time></trkpt><trkpt lat="45.5590232" lon="9.301673"><ele>147.6</ele><time>2026-04-11T15:07:58.385Z</time></trkpt><trkpt lat="45.5589372" lon="9.3016178"><ele>147.0</ele><time>2026-04-11T15:07:59.364Z</time></trkpt><trkpt lat="45.558845" lon="9.3015514"><ele>147.0</ele><time>2026-04-11T15:08:00.364Z</time></trkpt><trkpt lat="45.558756" lon="9.3014804"><ele>147.0</ele><time>2026-04-11T15:08:01.37Z</time></trkpt><trkpt lat="45.5586693" lon="9.3014168"><ele>147.0</ele><time>2026-04-11T15:08:02.359Z</time></trkpt><trkpt lat="45.5585803" lon="9.3013557"><ele>147.0</ele><time>2026-04-11T15:08:03.367Z</time></trkpt><trkpt lat="45.5584863" lon="9.3012857"><ele>147.0</ele><time>2026-04-11T15:08:04.371Z</time></trkpt><trkpt lat="45.5583794" lon="9.3012024"><ele>148.0</ele><time>2026-04-11T15:08:05.372Z</time></trkpt><trkpt lat="45.5582579" lon="9.301114"><ele>149.0</ele><time>2026-04-11T15:08:06.372Z</time></trkpt><trkpt lat="45.5581379" lon="9.30103"><ele>150.0</ele><time>2026-04-11T15:08:07.365Z</time></trkpt><trkpt lat="45.5580273" lon="9.3009555"><ele>151.0</ele><time>2026-04-11T15:08:08.369Z</time></trkpt><trkpt lat="45.5579158" lon="9.3008752"><ele>150.75</ele><time>2026-04-11T15:08:09.365Z</time></trkpt><trkpt lat="45.5577985" lon="9.3007915"><ele>150.5</ele><time>2026-04-11T15:08:10.368Z</time></trkpt><trkpt lat="45.557692" lon="9.3007144"><ele>150.25</ele><time>2026-04-11T15:08:11.366Z</time></trkpt><trkpt lat="45.55759" lon="9.300642"><ele>150.0</ele><time>2026-04-11T15:08:12.369Z</time></trkpt><trkpt lat="45.5574958" lon="9.3005697"><ele>150.0</ele><time>2026-04-11T15:08:13.37Z</time></trkpt><trkpt lat="45.5574066" lon="9.3004995"><ele>150.0</ele><time>2026-04-11T15:08:14.371Z</time></trkpt><trkpt lat="45.5573275" lon="9.3004371"><ele>150.0</ele><time>2026-04-11T15:08:15.363Z</time></trkpt><trkpt lat="45.5572514" lon="9.3003613"><ele>150.0</ele><time>2026-04-11T15:08:16.36Z</time></trkpt><trkpt lat="45.5571814" lon="9.3002637"><ele>150.0</ele><time>2026-04-11T15:08:17.372Z</time></trkpt><trkpt lat="45.5571044" lon="9.3001934"><ele>149.25</ele><time>2026-04-11T15:08:18.367Z</time></trkpt><trkpt lat="45.5569948" lon="9.3001614"><ele>148.5</ele><time>2026-04-11T15:08:19.367Z</time></trkpt><trkpt lat="45.5568698" lon="9.3001018"><ele>147.75</ele><time>2026-04-11T15:08:20.369Z</time></trkpt><trkpt lat="45.5567274" lon="9.3000082"><ele>147.0</ele><time>2026-04-11T15:08:21.376Z</time></trkpt><trkpt lat="45.5565702" lon="9.2998988"><ele>147.0</ele><time>2026-04-11T15:08:22.37Z</time></trkpt><trkpt lat="45.5564041" lon="9.2997771"><ele>147.0</ele><time>2026-04-11T15:08:23.385Z</time></trkpt><trkpt lat="45.556249" lon="9.2996698"><ele>147.0</ele><time>2026-04-11T15:08:24.362Z</time></trkpt><trkpt lat="45.5561013" lon="9.299566"><ele>147.0</ele><time>2026-04-11T15:08:25.366Z</time></trkpt><trkpt lat="45.5559663" lon="9.2994641"><ele>147.0</ele><time>2026-04-11T15:08:26.387Z</time></trkpt><trkpt lat="45.555845" lon="9.299374"><ele>147.0</ele><time>2026-04-11T15:08:27.386Z</time></trkpt><trkpt lat="45.5557398" lon="9.299296"><ele>147.0</ele><time>2026-04-11T15:08:28.366Z</time></trkpt><trkpt lat="45.5556475" lon="9.2992264"><ele>147.0</ele><time>2026-04-11T15:08:29.372Z</time></trkpt><trkpt lat="45.5555704" lon="9.2991589"><ele>147.0</ele><time>2026-04-11T15:08:30.373Z</time></trkpt><trkpt lat="45.5555089" lon="9.2990617"><ele>147.0</ele><time>2026-04-11T15:08:31.386Z</time></trkpt><trkpt lat="45.5554597" lon="9.2989399"><ele>147.0</ele><time>2026-04-11T15:08:32.367Z</time></trkpt><trkpt lat="45.5553969" lon="9.298855"><ele>147.0</ele><time>2026-04-11T15:08:33.364Z</time></trkpt><trkpt lat="45.5553106" lon="9.2988076"><ele>147.4</ele><time>2026-04-11T15:08:34.373Z</time></trkpt><trkpt lat="45.5552019" lon="9.2987983"><ele>147.79999999999998</ele><time>2026-04-11T15:08:35.367Z</time></trkpt><trkpt lat="45.5550939" lon="9.2987753"><ele>148.2</ele><time>2026-04-11T15:08:36.369Z</time></trkpt><trkpt lat="45.5550056" lon="9.2987403"><ele>148.6</ele><time>2026-04-11T15:08:37.37Z</time></trkpt><trkpt lat="45.5549237" lon="9.2987016"><ele>149.0</ele><time>2026-04-11T15:08:38.39Z</time></trkpt><trkpt lat="45.5548138" lon="9.2986385"><ele>149.0</ele><time>2026-04-11T15:08:39.362Z</time></trkpt><trkpt lat="45.5546928" lon="9.2985438"><ele>149.0</ele><time>2026-04-11T15:08:40.363Z</time></trkpt><trkpt lat="45.5545913" lon="9.2984545"><ele>149.0</ele><time>2026-04-11T15:08:41.367Z</time></trkpt><trkpt lat="45.5544917" lon="9.2983757"><ele>149.0</ele><time>2026-04-11T15:08:42.367Z</time></trkpt><trkpt lat="45.5543935" lon="9.2983156"><ele>148.83333333333331</ele><time>2026-04-11T15:08:43.368Z</time></trkpt><trkpt lat="45.5543142" lon="9.2982652"><ele>148.66666666666666</ele><time>2026-04-11T15:08:44.367Z</time></trkpt><trkpt lat="45.5542526" lon="9.2982197"><ele>148.5</ele><time>2026-04-11T15:08:45.37Z</time></trkpt><trkpt lat="45.5541727" lon="9.2981602"><ele>148.33333333333334</ele><time>2026-04-11T15:08:47.364Z</time></trkpt><trkpt lat="45.5541236" lon="9.2980922"><ele>148.16666666666669</ele><time>2026-04-11T15:08:50.358Z</time></trkpt><trkpt lat="45.5540598" lon="9.2980502"><ele>148.0</ele><time>2026-04-11T15:09:12.377Z</time></trkpt><trkpt lat="45.5539843" lon="9.2979952"><ele>148.0</ele><time>2026-04-11T15:09:13.36Z</time></trkpt><trkpt lat="45.5539174" lon="9.2979417"><ele>148.0</ele><time>2026-04-11T15:09:14.374Z</time></trkpt><trkpt lat="45.5538261" lon="9.2978756"><ele>148.0</ele><time>2026-04-11T15:09:15.365Z</time></trkpt><trkpt lat="45.553709" lon="9.2977888"><ele>148.0</ele><time>2026-04-11T15:09:16.374Z</time></trkpt><trkpt lat="45.5535813" lon="9.2976826"><ele>147.66666666666669</ele><time>2026-04-11T15:09:17.374Z</time></trkpt><trkpt lat="45.5534452" lon="9.2975715"><ele>147.33333333333334</ele><time>2026-04-11T15:09:18.359Z</time></trkpt><trkpt lat="45.5533089" lon="9.2974589"><ele>147.0</ele><time>2026-04-11T15:09:19.366Z</time></trkpt><trkpt lat="45.5531629" lon="9.297355"><ele>146.66666666666666</ele><time>2026-04-11T15:09:20.38Z</time></trkpt><trkpt lat="45.5530143" lon="9.2972494"><ele>146.33333333333331</ele><time>2026-04-11T15:09:21.366Z</time></trkpt><trkpt lat="45.5528722" lon="9.2971417"><ele>146.0</ele><time>2026-04-11T15:09:22.365Z</time></trkpt><trkpt lat="45.5527339" lon="9.2970401"><ele>145.5</ele><time>2026-04-11T15:09:23.385Z</time></trkpt><trkpt lat="45.5526002" lon="9.2969424"><ele>145.0</ele><time>2026-04-11T15:09:24.366Z</time></trkpt><trkpt lat="45.5524726" lon="9.2968498"><ele>144.5</ele><time>2026-04-11T15:09:25.366Z</time></trkpt><trkpt lat="45.552354" lon="9.2967649"><ele>144.0</ele><time>2026-04-11T15:09:26.361Z</time></trkpt><trkpt lat="45.5522359" lon="9.2966862"><ele>144.0</ele><time>2026-04-11T15:09:27.356Z</time></trkpt><trkpt lat="45.5521281" lon="9.2966158"><ele>144.0</ele><time>2026-04-11T15:09:28.357Z</time></trkpt><trkpt lat="45.5520245" lon="9.2965454"><ele>144.0</ele><time>2026-04-11T15:09:29.358Z</time></trkpt><trkpt lat="45.5519361" lon="9.2964725"><ele>144.0</ele><time>2026-04-11T15:09:30.366Z</time></trkpt><trkpt lat="45.5518458" lon="9.2964194"><ele>144.0</ele><time>2026-04-11T15:09:31.362Z</time></trkpt><trkpt lat="45.5517624" lon="9.2963651"><ele>144.6</ele><time>2026-04-11T15:09:32.364Z</time></trkpt><trkpt lat="45.5516848" lon="9.2963084"><ele>145.2</ele><time>2026-04-11T15:09:33.354Z</time></trkpt><trkpt lat="45.5515911" lon="9.2962453"><ele>145.79999999999998</ele><time>2026-04-11T15:09:34.366Z</time></trkpt><trkpt lat="45.5514763" lon="9.2961594"><ele>146.4</ele><time>2026-04-11T15:09:35.361Z</time></trkpt><trkpt lat="45.5513673" lon="9.2960675"><ele>147.0</ele><time>2026-04-11T15:09:36.368Z</time></trkpt><trkpt lat="45.5512647" lon="9.2959855"><ele>146.6</ele><time>2026-04-11T15:09:37.354Z</time></trkpt><trkpt lat="45.5511685" lon="9.295903"><ele>146.2</ele><time>2026-04-11T15:09:38.366Z</time></trkpt><trkpt lat="45.5510781" lon="9.2958258"><ele>145.8</ele><time>2026-04-11T15:09:39.384Z</time></trkpt><trkpt lat="45.5509875" lon="9.2957523"><ele>145.4</ele><time>2026-04-11T15:09:40.367Z</time></trkpt><trkpt lat="45.5508955" lon="9.2956853"><ele>145.0</ele><time>2026-04-11T15:09:41.37Z</time></trkpt><trkpt lat="45.550804" lon="9.295614"><ele>145.25</ele><time>2026-04-11T15:09:42.368Z</time></trkpt><trkpt lat="45.5506986" lon="9.2955478"><ele>145.5</ele><time>2026-04-11T15:09:43.353Z</time></trkpt><trkpt lat="45.5505976" lon="9.2954793"><ele>145.75</ele><time>2026-04-11T15:09:44.357Z</time></trkpt><trkpt lat="45.5504951" lon="9.2954053"><ele>146.0</ele><time>2026-04-11T15:09:45.354Z</time></trkpt><trkpt lat="45.5503857" lon="9.2953276"><ele>146.0</ele><time>2026-04-11T15:09:46.365Z</time></trkpt><trkpt lat="45.5502725" lon="9.2952461"><ele>146.0</ele><time>2026-04-11T15:09:47.356Z</time></trkpt><trkpt lat="45.5501578" lon="9.2951649"><ele>146.0</ele><time>2026-04-11T15:09:48.355Z</time></trkpt><trkpt lat="45.5500238" lon="9.295048"><ele>146.0</ele><time>2026-04-11T15:09:49.355Z</time></trkpt><trkpt lat="45.5498849" lon="9.2949418"><ele>146.0</ele><time>2026-04-11T15:09:50.352Z</time></trkpt><trkpt lat="45.5497262" lon="9.2948409"><ele>146.0</ele><time>2026-04-11T15:09:51.354Z</time></trkpt><trkpt lat="45.5495781" lon="9.2947328"><ele>146.0</ele><time>2026-04-11T15:09:52.356Z</time></trkpt><trkpt lat="45.5494407" lon="9.2946261"><ele>145.75</ele><time>2026-04-11T15:09:53.359Z</time></trkpt><trkpt lat="45.5493106" lon="9.2945259"><ele>145.5</ele><time>2026-04-11T15:09:54.359Z</time></trkpt><trkpt lat="45.5491964" lon="9.2944306"><ele>145.25</ele><time>2026-04-11T15:09:55.37Z</time></trkpt><trkpt lat="45.5490937" lon="9.2943525"><ele>145.0</ele><time>2026-04-11T15:09:56.371Z</time></trkpt><trkpt lat="45.5490018" lon="9.2942851"><ele>145.0</ele><time>2026-04-11T15:09:57.372Z</time></trkpt><trkpt lat="45.5489194" lon="9.2942253"><ele>145.0</ele><time>2026-04-11T15:09:58.366Z</time></trkpt><trkpt lat="45.5488452" lon="9.2941716"><ele>145.0</ele><time>2026-04-11T15:09:59.36Z</time></trkpt><trkpt lat="45.5487796" lon="9.2941241"><ele>145.0</ele><time>2026-04-11T15:10:00.374Z</time></trkpt><trkpt lat="45.5487167" lon="9.2940841"><ele>145.0</ele><time>2026-04-11T15:10:01.396Z</time></trkpt><trkpt lat="45.5486176" lon="9.2940136"><ele>145.0</ele><time>2026-04-11T15:10:03.371Z</time></trkpt><trkpt lat="45.5485673" lon="9.2939495"><ele>145.0</ele><time>2026-04-11T15:10:06.357Z</time></trkpt><trkpt lat="45.5484974" lon="9.2939096"><ele>145.0</ele><time>2026-04-11T15:10:19.371Z</time></trkpt><trkpt lat="45.5484343" lon="9.2938677"><ele>145.0</ele><time>2026-04-11T15:10:22.358Z</time></trkpt><trkpt lat="45.5483722" lon="9.2938238"><ele>145.0</ele><time>2026-04-11T15:10:39.368Z</time></trkpt><trkpt lat="45.5483133" lon="9.2937823"><ele>145.0</ele><time>2026-04-11T15:10:42.366Z</time></trkpt><trkpt lat="45.5482367" lon="9.2937221"><ele>145.0</ele><time>2026-04-11T15:10:44.368Z</time></trkpt><trkpt lat="45.5481229" lon="9.2936486"><ele>145.0</ele><time>2026-04-11T15:10:46.352Z</time></trkpt><trkpt lat="45.5480559" lon="9.2936133"><ele>145.0</ele><time>2026-04-11T15:10:47.366Z</time></trkpt><trkpt lat="45.5479942" lon="9.2935737"><ele>145.0</ele><time>2026-04-11T15:10:48.359Z</time></trkpt><trkpt lat="45.5479316" lon="9.2935226"><ele>145.0</ele><time>2026-04-11T15:10:49.366Z</time></trkpt><trkpt lat="45.5478724" lon="9.2934698"><ele>145.0</ele><time>2026-04-11T15:10:50.36Z</time></trkpt><trkpt lat="45.5478117" lon="9.2934261"><ele>145.0</ele><time>2026-04-11T15:10:51.463Z</time></trkpt><trkpt lat="45.5477149" lon="9.2933639"><ele>144.83333333333334</ele><time>2026-04-11T15:10:53.362Z</time></trkpt><trkpt lat="45.5476495" lon="9.2933253"><ele>144.66666666666669</ele><time>2026-04-11T15:10:55.383Z</time></trkpt><trkpt lat="45.5475955" lon="9.2932777"><ele>144.5</ele><time>2026-04-11T15:11:57.365Z</time></trkpt><trkpt lat="45.5475314" lon="9.2932153"><ele>144.33333333333334</ele><time>2026-04-11T15:11:58.369Z</time></trkpt><trkpt lat="45.5474588" lon="9.2931527"><ele>144.16666666666666</ele><time>2026-04-11T15:11:59.373Z</time></trkpt><trkpt lat="45.5473565" lon="9.2930692"><ele>144.0</ele><time>2026-04-11T15:12:00.359Z</time></trkpt><trkpt lat="45.547243" lon="9.2929809"><ele>144.66666666666666</ele><time>2026-04-11T15:12:01.366Z</time></trkpt><trkpt lat="45.54712" lon="9.2928732"><ele>145.33333333333331</ele><time>2026-04-11T15:12:02.371Z</time></trkpt><trkpt lat="45.5469813" lon="9.2927503"><ele>146.0</ele><time>2026-04-11T15:12:03.39Z</time></trkpt><trkpt lat="45.5468188" lon="9.292617"><ele>145.33333333333331</ele><time>2026-04-11T15:12:04.361Z</time></trkpt><trkpt lat="45.5466602" lon="9.2924962"><ele>144.66666666666666</ele><time>2026-04-11T15:12:05.37Z</time></trkpt><trkpt lat="45.5465145" lon="9.2923763"><ele>144.0</ele><time>2026-04-11T15:12:06.36Z</time></trkpt><trkpt lat="45.5463643" lon="9.2922563"><ele>143.33333333333334</ele><time>2026-04-11T15:12:07.356Z</time></trkpt><trkpt lat="45.5462098" lon="9.2921429"><ele>142.66666666666669</ele><time>2026-04-11T15:12:08.358Z</time></trkpt><trkpt lat="45.5460586" lon="9.2920253"><ele>142.0</ele><time>2026-04-11T15:12:09.365Z</time></trkpt><trkpt lat="45.5459041" lon="9.2919125"><ele>142.0</ele><time>2026-04-11T15:12:10.365Z</time></trkpt><trkpt lat="45.5457565" lon="9.2917974"><ele>142.0</ele><time>2026-04-11T15:12:11.364Z</time></trkpt><trkpt lat="45.5456074" lon="9.2916845"><ele>142.0</ele><time>2026-04-11T15:12:12.373Z</time></trkpt><trkpt lat="45.5454585" lon="9.2915695"><ele>142.0</ele><time>2026-04-11T15:12:13.36Z</time></trkpt><trkpt lat="45.5453148" lon="9.2914603"><ele>142.0</ele><time>2026-04-11T15:12:14.359Z</time></trkpt><trkpt lat="45.545177" lon="9.2913572"><ele>142.0</ele><time>2026-04-11T15:12:15.365Z</time></trkpt><trkpt lat="45.5450494" lon="9.2912599"><ele>142.0</ele><time>2026-04-11T15:12:16.362Z</time></trkpt><trkpt lat="45.5449222" lon="9.2911652"><ele>142.0</ele><time>2026-04-11T15:12:17.363Z</time></trkpt><trkpt lat="45.5447959" lon="9.2910699"><ele>142.0</ele><time>2026-04-11T15:12:18.358Z</time></trkpt><trkpt lat="45.5446702" lon="9.2909728"><ele>142.0</ele><time>2026-04-11T15:12:19.364Z</time></trkpt><trkpt lat="45.5445436" lon="9.2908746"><ele>142.0</ele><time>2026-04-11T15:12:20.361Z</time></trkpt><trkpt lat="45.5444222" lon="9.2907775"><ele>142.0</ele><time>2026-04-11T15:12:21.376Z</time></trkpt><trkpt lat="45.5443065" lon="9.2906887"><ele>142.0</ele><time>2026-04-11T15:12:22.365Z</time></trkpt><trkpt lat="45.5441923" lon="9.2905993"><ele>142.0</ele><time>2026-04-11T15:12:23.371Z</time></trkpt><trkpt lat="45.5440919" lon="9.2905254"><ele>142.0</ele><time>2026-04-11T15:12:24.357Z</time></trkpt><trkpt lat="45.5439874" lon="9.290447"><ele>142.0</ele><time>2026-04-11T15:12:25.383Z</time></trkpt><trkpt lat="45.5438861" lon="9.2903673"><ele>142.0</ele><time>2026-04-11T15:12:26.358Z</time></trkpt><trkpt lat="45.5437901" lon="9.2902988"><ele>142.0</ele><time>2026-04-11T15:12:27.358Z</time></trkpt><trkpt lat="45.5436995" lon="9.2902336"><ele>142.0</ele><time>2026-04-11T15:12:28.365Z</time></trkpt><trkpt lat="45.5436169" lon="9.2901667"><ele>142.0</ele><time>2026-04-11T15:12:29.366Z</time></trkpt><trkpt lat="45.5435284" lon="9.2901004"><ele>142.0</ele><time>2026-04-11T15:12:30.367Z</time></trkpt><trkpt lat="45.5434493" lon="9.290041"><ele>142.0</ele><time>2026-04-11T15:12:31.359Z</time></trkpt><trkpt lat="45.5433739" lon="9.2899859"><ele>142.0</ele><time>2026-04-11T15:12:32.371Z</time></trkpt><trkpt lat="45.5432956" lon="9.2899301"><ele>142.0</ele><time>2026-04-11T15:12:33.358Z</time></trkpt><trkpt lat="45.5432082" lon="9.289868"><ele>142.0</ele><time>2026-04-11T15:12:34.365Z</time></trkpt><trkpt lat="45.5431045" lon="9.2897883"><ele>142.0</ele><time>2026-04-11T15:12:35.36Z</time></trkpt><trkpt lat="45.543004" lon="9.2897117"><ele>142.0</ele><time>2026-04-11T15:12:36.368Z</time></trkpt><trkpt lat="45.5429118" lon="9.2896402"><ele>142.0</ele><time>2026-04-11T15:12:37.357Z</time></trkpt><trkpt lat="45.5428087" lon="9.2895677"><ele>142.0</ele><time>2026-04-11T15:12:38.366Z</time></trkpt><trkpt lat="45.5427145" lon="9.2895008"><ele>142.0</ele><time>2026-04-11T15:12:39.359Z</time></trkpt><trkpt lat="45.542624" lon="9.2894358"><ele>142.0</ele><time>2026-04-11T15:12:40.367Z</time></trkpt><trkpt lat="45.5425429" lon="9.2893707"><ele>142.0</ele><time>2026-04-11T15:12:41.359Z</time></trkpt><trkpt lat="45.5424641" lon="9.2893059"><ele>142.0</ele><time>2026-04-11T15:12:42.374Z</time></trkpt><trkpt lat="45.5423895" lon="9.289242"><ele>142.0</ele><time>2026-04-11T15:12:43.362Z</time></trkpt><trkpt lat="45.5423145" lon="9.2891798"><ele>142.0</ele><time>2026-04-11T15:12:44.367Z</time></trkpt><trkpt lat="45.5422462" lon="9.2891223"><ele>142.0</ele><time>2026-04-11T15:12:45.36Z</time></trkpt><trkpt lat="45.5421735" lon="9.2890581"><ele>142.0</ele><time>2026-04-11T15:12:46.367Z</time></trkpt><trkpt lat="45.5421131" lon="9.2890042"><ele>142.0</ele><time>2026-04-11T15:12:47.392Z</time></trkpt><trkpt lat="45.5420565" lon="9.2889539"><ele>142.0</ele><time>2026-04-11T15:12:48.369Z</time></trkpt><trkpt lat="45.5419875" lon="9.2889483"><ele>141.71428571428572</ele><time>2026-04-11T15:12:49.465Z</time></trkpt><trkpt lat="45.5419275" lon="9.2889046"><ele>141.42857142857142</ele><time>2026-04-11T15:12:50.371Z</time></trkpt><trkpt lat="45.5418601" lon="9.2888585"><ele>141.14285714285714</ele><time>2026-04-11T15:12:51.362Z</time></trkpt><trkpt lat="45.5417986" lon="9.2888219"><ele>140.85714285714286</ele><time>2026-04-11T15:12:52.37Z</time></trkpt><trkpt lat="45.5417386" lon="9.2887859"><ele>140.57142857142856</ele><time>2026-04-11T15:12:53.359Z</time></trkpt><trkpt lat="45.5416746" lon="9.2887456"><ele>140.28571428571428</ele><time>2026-04-11T15:12:54.367Z</time></trkpt><trkpt lat="45.5416144" lon="9.2886978"><ele>140.0</ele><time>2026-04-11T15:12:55.361Z</time></trkpt><trkpt lat="45.5415535" lon="9.2886429"><ele>140.0</ele><time>2026-04-11T15:12:56.367Z</time></trkpt><trkpt lat="45.5414799" lon="9.2885876"><ele>140.0</ele><time>2026-04-11T15:12:57.362Z</time></trkpt><trkpt lat="45.541382" lon="9.2885374"><ele>140.0</ele><time>2026-04-11T15:12:58.37Z</time></trkpt><trkpt lat="45.541305" lon="9.2884642"><ele>140.0</ele><time>2026-04-11T15:12:59.364Z</time></trkpt><trkpt lat="45.5412333" lon="9.288405"><ele>140.0</ele><time>2026-04-11T15:13:00.366Z</time></trkpt><trkpt lat="45.5411599" lon="9.2883418"><ele>140.0</ele><time>2026-04-11T15:13:01.357Z</time></trkpt><trkpt lat="45.5410852" lon="9.2882748"><ele>139.66666666666666</ele><time>2026-04-11T15:13:02.367Z</time></trkpt><trkpt lat="45.5410116" lon="9.2882118"><ele>139.33333333333331</ele><time>2026-04-11T15:13:03.363Z</time></trkpt><trkpt lat="45.5409319" lon="9.2881547"><ele>139.0</ele><time>2026-04-11T15:13:04.359Z</time></trkpt><trkpt lat="45.5408579" lon="9.288097"><ele>138.66666666666666</ele><time>2026-04-11T15:13:05.357Z</time></trkpt><trkpt lat="45.540785" lon="9.2880414"><ele>138.33333333333334</ele><time>2026-04-11T15:13:06.363Z</time></trkpt><trkpt lat="45.5407085" lon="9.2879867"><ele>138.0</ele><time>2026-04-11T15:13:07.363Z</time></trkpt><trkpt lat="45.5406361" lon="9.2879318"><ele>138.0</ele><time>2026-04-11T15:13:08.364Z</time></trkpt><trkpt lat="45.5405621" lon="9.2878785"><ele>138.0</ele><time>2026-04-11T15:13:09.366Z</time></trkpt><trkpt lat="45.5404907" lon="9.2878295"><ele>138.0</ele><time>2026-04-11T15:13:10.367Z</time></trkpt><trkpt lat="45.5404201" lon="9.2877796"><ele>138.0</ele><time>2026-04-11T15:13:11.356Z</time></trkpt><trkpt lat="45.5403578" lon="9.287732"><ele>138.0</ele><time>2026-04-11T15:13:12.363Z</time></trkpt><trkpt lat="45.5402998" lon="9.2876881"><ele>138.0</ele><time>2026-04-11T15:13:13.359Z</time></trkpt><trkpt lat="45.5402393" lon="9.2876493"><ele>138.0</ele><time>2026-04-11T15:13:14.365Z</time></trkpt><trkpt lat="45.5401802" lon="9.2876095"><ele>138.20000000000002</ele><time>2026-04-11T15:13:15.356Z</time></trkpt><trkpt lat="45.5401247" lon="9.2875627"><ele>138.4</ele><time>2026-04-11T15:13:16.364Z</time></trkpt><trkpt lat="45.5400396" lon="9.2874661"><ele>138.60000000000002</ele><time>2026-04-11T15:13:18.366Z</time></trkpt><trkpt lat="45.5399885" lon="9.2873505"><ele>138.8</ele><time>2026-04-11T15:13:20.36Z</time></trkpt><trkpt lat="45.5398947" lon="9.287248"><ele>139.0</ele><time>2026-04-11T15:13:22.372Z</time></trkpt><trkpt lat="45.5398153" lon="9.2872187"><ele>139.0</ele><time>2026-04-11T15:13:23.36Z</time></trkpt><trkpt lat="45.5397189" lon="9.2871729"><ele>139.0</ele><time>2026-04-11T15:13:24.367Z</time></trkpt><trkpt lat="45.5396143" lon="9.287104"><ele>139.0</ele><time>2026-04-11T15:13:25.361Z</time></trkpt><trkpt lat="45.5395059" lon="9.2870298"><ele>139.0</ele><time>2026-04-11T15:13:26.365Z</time></trkpt><trkpt lat="45.5393888" lon="9.2869381"><ele>139.0</ele><time>2026-04-11T15:13:27.394Z</time></trkpt><trkpt lat="45.5392694" lon="9.2868218"><ele>139.0</ele><time>2026-04-11T15:13:28.359Z</time></trkpt><trkpt lat="45.5391446" lon="9.2866829"><ele>139.0</ele><time>2026-04-11T15:13:29.362Z</time></trkpt><trkpt lat="45.5390198" lon="9.2865406"><ele>138.33333333333334</ele><time>2026-04-11T15:13:30.366Z</time></trkpt><trkpt lat="45.5388998" lon="9.2863724"><ele>137.66666666666666</ele><time>2026-04-11T15:13:31.357Z</time></trkpt><trkpt lat="45.5387854" lon="9.2861921"><ele>137.0</ele><time>2026-04-11T15:13:32.366Z</time></trkpt><trkpt lat="45.5386757" lon="9.2860047"><ele>137.0</ele><time>2026-04-11T15:13:33.365Z</time></trkpt><trkpt lat="45.5385738" lon="9.2858166"><ele>137.0</ele><time>2026-04-11T15:13:34.366Z</time></trkpt><trkpt lat="45.5384727" lon="9.285637"><ele>137.0</ele><time>2026-04-11T15:13:35.361Z</time></trkpt><trkpt lat="45.5383685" lon="9.2854651"><ele>136.66666666666666</ele><time>2026-04-11T15:13:36.366Z</time></trkpt><trkpt lat="45.5382654" lon="9.2852807"><ele>136.33333333333334</ele><time>2026-04-11T15:13:37.356Z</time></trkpt><trkpt lat="45.5381772" lon="9.2850698"><ele>136.0</ele><time>2026-04-11T15:13:38.365Z</time></trkpt><trkpt lat="45.5381059" lon="9.2848332"><ele>136.33333333333334</ele><time>2026-04-11T15:13:39.359Z</time></trkpt><trkpt lat="45.5380411" lon="9.2845798"><ele>136.66666666666666</ele><time>2026-04-11T15:13:40.366Z</time></trkpt><trkpt lat="45.5379681" lon="9.284318"><ele>137.0</ele><time>2026-04-11T15:13:41.363Z</time></trkpt><trkpt lat="45.5378864" lon="9.2840511"><ele>137.66666666666666</ele><time>2026-04-11T15:13:42.37Z</time></trkpt><trkpt lat="45.5377948" lon="9.2837869"><ele>138.33333333333334</ele><time>2026-04-11T15:13:43.357Z</time></trkpt><trkpt lat="45.537691" lon="9.28353"><ele>139.0</ele><time>2026-04-11T15:13:44.396Z</time></trkpt><trkpt lat="45.5375715" lon="9.2832794"><ele>139.0</ele><time>2026-04-11T15:13:45.367Z</time></trkpt><trkpt lat="45.5374387" lon="9.2830385"><ele>139.0</ele><time>2026-04-11T15:13:46.361Z</time></trkpt><trkpt lat="45.537304" lon="9.2827884"><ele>139.0</ele><time>2026-04-11T15:13:47.372Z</time></trkpt><trkpt lat="45.5371638" lon="9.2825235"><ele>138.5</ele><time>2026-04-11T15:13:48.36Z</time></trkpt><trkpt lat="45.5370221" lon="9.2822589"><ele>138.0</ele><time>2026-04-11T15:13:49.363Z</time></trkpt><trkpt lat="45.5368722" lon="9.2819942"><ele>138.0</ele><time>2026-04-11T15:13:50.361Z</time></trkpt><trkpt lat="45.5367318" lon="9.2817071"><ele>138.0</ele><time>2026-04-11T15:13:51.36Z</time></trkpt><trkpt lat="45.5365813" lon="9.2814149"><ele>138.0</ele><time>2026-04-11T15:13:52.36Z</time></trkpt><trkpt lat="45.5364313" lon="9.2811148"><ele>138.0</ele><time>2026-04-11T15:13:53.364Z</time></trkpt><trkpt lat="45.5362826" lon="9.2808106"><ele>137.5</ele><time>2026-04-11T15:13:54.358Z</time></trkpt><trkpt lat="45.5361335" lon="9.2805093"><ele>137.0</ele><time>2026-04-11T15:13:55.365Z</time></trkpt><trkpt lat="45.5359864" lon="9.2802119"><ele>137.0</ele><time>2026-04-11T15:13:56.357Z</time></trkpt><trkpt lat="45.5358398" lon="9.2799174"><ele>137.0</ele><time>2026-04-11T15:13:57.366Z</time></trkpt><trkpt lat="45.5356998" lon="9.279627"><ele>136.5</ele><time>2026-04-11T15:13:58.362Z</time></trkpt><trkpt lat="45.5355606" lon="9.2793429"><ele>136.0</ele><time>2026-04-11T15:13:59.358Z</time></trkpt><trkpt lat="45.5354212" lon="9.2790642"><ele>136.5</ele><time>2026-04-11T15:14:00.381Z</time></trkpt><trkpt lat="45.5352882" lon="9.2787894"><ele>137.0</ele><time>2026-04-11T15:14:01.387Z</time></trkpt><trkpt lat="45.5351546" lon="9.2785158"><ele>137.0</ele><time>2026-04-11T15:14:02.388Z</time></trkpt><trkpt lat="45.5350205" lon="9.2782351"><ele>137.0</ele><time>2026-04-11T15:14:03.356Z</time></trkpt><trkpt lat="45.5348792" lon="9.277939"><ele>138.0</ele><time>2026-04-11T15:14:04.357Z</time></trkpt><trkpt lat="45.5347286" lon="9.277631"><ele>139.0</ele><time>2026-04-11T15:14:05.391Z</time></trkpt><trkpt lat="45.5345689" lon="9.2773146"><ele>137.0</ele><time>2026-04-11T15:14:06.374Z</time></trkpt><trkpt lat="45.5344087" lon="9.276982"><ele>135.0</ele><time>2026-04-11T15:14:07.365Z</time></trkpt><trkpt lat="45.5342496" lon="9.2766356"><ele>135.5</ele><time>2026-04-11T15:14:08.375Z</time></trkpt><trkpt lat="45.5340927" lon="9.2762802"><ele>136.0</ele><time>2026-04-11T15:14:09.358Z</time></trkpt><trkpt lat="45.5339345" lon="9.2759295"><ele>136.0</ele><time>2026-04-11T15:14:10.365Z</time></trkpt><trkpt lat="45.533767" lon="9.2755691"><ele>136.0</ele><time>2026-04-11T15:14:11.364Z</time></trkpt><trkpt lat="45.5336043" lon="9.2752267"><ele>136.0</ele><time>2026-04-11T15:14:12.384Z</time></trkpt><trkpt lat="45.5334459" lon="9.2748956"><ele>136.0</ele><time>2026-04-11T15:14:13.367Z</time></trkpt><trkpt lat="45.5332907" lon="9.2745635"><ele>136.5</ele><time>2026-04-11T15:14:14.381Z</time></trkpt><trkpt lat="45.5331343" lon="9.2742383"><ele>137.0</ele><time>2026-04-11T15:14:15.37Z</time></trkpt><trkpt lat="45.5329783" lon="9.273906"><ele>136.5</ele><time>2026-04-11T15:14:16.37Z</time></trkpt><trkpt lat="45.5328152" lon="9.2735696"><ele>136.0</ele><time>2026-04-11T15:14:17.368Z</time></trkpt><trkpt lat="45.5326494" lon="9.273235"><ele>135.5</ele><time>2026-04-11T15:14:18.384Z</time></trkpt><trkpt lat="45.5324859" lon="9.2728884"><ele>135.0</ele><time>2026-04-11T15:14:19.358Z</time></trkpt><trkpt lat="45.5323169" lon="9.2725369"><ele>136.0</ele><time>2026-04-11T15:14:20.368Z</time></trkpt><trkpt lat="45.5321468" lon="9.2721907"><ele>137.0</ele><time>2026-04-11T15:14:21.368Z</time></trkpt><trkpt lat="45.531978" lon="9.2718462"><ele>136.0</ele><time>2026-04-11T15:14:22.368Z</time></trkpt><trkpt lat="45.5318179" lon="9.271517"><ele>135.0</ele><time>2026-04-11T15:14:23.359Z</time></trkpt><trkpt lat="45.5316553" lon="9.2711909"><ele>135.0</ele><time>2026-04-11T15:14:24.361Z</time></trkpt><trkpt lat="45.5314989" lon="9.2708658"><ele>135.0</ele><time>2026-04-11T15:14:25.359Z</time></trkpt><trkpt lat="45.531343" lon="9.2705421"><ele>135.5</ele><time>2026-04-11T15:14:26.352Z</time></trkpt><trkpt lat="45.5311855" lon="9.2702151"><ele>136.0</ele><time>2026-04-11T15:14:27.363Z</time></trkpt><trkpt lat="45.53103" lon="9.2698853"><ele>136.5</ele><time>2026-04-11T15:14:28.401Z</time></trkpt><trkpt lat="45.5308722" lon="9.269561"><ele>137.0</ele><time>2026-04-11T15:14:29.359Z</time></trkpt><trkpt lat="45.5307139" lon="9.2692452"><ele>135.5</ele><time>2026-04-11T15:14:30.358Z</time></trkpt><trkpt lat="45.5305588" lon="9.268925"><ele>134.0</ele><time>2026-04-11T15:14:31.363Z</time></trkpt><trkpt lat="45.5304033" lon="9.2686089"><ele>134.0</ele><time>2026-04-11T15:14:32.388Z</time></trkpt><trkpt lat="45.5302364" lon="9.2683038"><ele>134.0</ele><time>2026-04-11T15:14:33.373Z</time></trkpt><trkpt lat="45.5300598" lon="9.2680114"><ele>134.0</ele><time>2026-04-11T15:14:34.364Z</time></trkpt><trkpt lat="45.5298704" lon="9.2677359"><ele>134.0</ele><time>2026-04-11T15:14:35.384Z</time></trkpt><trkpt lat="45.5296741" lon="9.2674778"><ele>134.0</ele><time>2026-04-11T15:14:36.372Z</time></trkpt><trkpt lat="45.5294675" lon="9.2672363"><ele>134.0</ele><time>2026-04-11T15:14:37.363Z</time></trkpt><trkpt lat="45.5292543" lon="9.2670172"><ele>134.0</ele><time>2026-04-11T15:14:38.359Z</time></trkpt><trkpt lat="45.5290275" lon="9.2668132"><ele>134.0</ele><time>2026-04-11T15:14:39.366Z</time></trkpt><trkpt lat="45.5287908" lon="9.2666223"><ele>136.5</ele><time>2026-04-11T15:14:40.365Z</time></trkpt><trkpt lat="45.5285481" lon="9.2664279"><ele>139.0</ele><time>2026-04-11T15:14:41.371Z</time></trkpt><trkpt lat="45.5283134" lon="9.2662414"><ele>139.0</ele><time>2026-04-11T15:14:42.369Z</time></trkpt><trkpt lat="45.5280831" lon="9.2660605"><ele>139.0</ele><time>2026-04-11T15:14:43.37Z</time></trkpt><trkpt lat="45.5278531" lon="9.2658839"><ele>138.5</ele><time>2026-04-11T15:14:44.372Z</time></trkpt><trkpt lat="45.5276298" lon="9.265696"><ele>138.0</ele><time>2026-04-11T15:14:45.362Z</time></trkpt><trkpt lat="45.527411" lon="9.2654861"><ele>137.5</ele><time>2026-04-11T15:14:46.377Z</time></trkpt><trkpt lat="45.5272092" lon="9.2652566"><ele>137.0</ele><time>2026-04-11T15:14:47.374Z</time></trkpt><trkpt lat="45.5270156" lon="9.265005"><ele>137.0</ele><time>2026-04-11T15:14:48.367Z</time></trkpt><trkpt lat="45.5268395" lon="9.2647395"><ele>137.0</ele><time>2026-04-11T15:14:49.386Z</time></trkpt><trkpt lat="45.5266766" lon="9.2644558"><ele>137.0</ele><time>2026-04-11T15:14:50.365Z</time></trkpt><trkpt lat="45.5265229" lon="9.2641522"><ele>137.0</ele><time>2026-04-11T15:14:51.371Z</time></trkpt><trkpt lat="45.526387" lon="9.2638232"><ele>136.5</ele><time>2026-04-11T15:14:52.368Z</time></trkpt><trkpt lat="45.5262628" lon="9.2634774"><ele>136.0</ele><time>2026-04-11T15:14:53.361Z</time></trkpt><trkpt lat="45.5261482" lon="9.2631328"><ele>134.5</ele><time>2026-04-11T15:14:54.369Z</time></trkpt><trkpt lat="45.526026" lon="9.2627962"><ele>133.0</ele><time>2026-04-11T15:14:55.367Z</time></trkpt><trkpt lat="45.5258894" lon="9.262466"><ele>133.0</ele><time>2026-04-11T15:14:56.372Z</time></trkpt><trkpt lat="45.5257337" lon="9.2621424"><ele>133.0</ele><time>2026-04-11T15:14:57.364Z</time></trkpt><trkpt lat="45.5255586" lon="9.2618389"><ele>132.0</ele><time>2026-04-11T15:14:58.385Z</time></trkpt><trkpt lat="45.5253655" lon="9.2615585"><ele>131.0</ele><time>2026-04-11T15:14:59.378Z</time></trkpt><trkpt lat="45.5251525" lon="9.2613033"><ele>130.0</ele><time>2026-04-11T15:15:00.367Z</time></trkpt><trkpt lat="45.5249279" lon="9.2610752"><ele>129.0</ele><time>2026-04-11T15:15:01.369Z</time></trkpt><trkpt lat="45.5246964" lon="9.2608811"><ele>129.5</ele><time>2026-04-11T15:15:02.358Z</time></trkpt><trkpt lat="45.524456" lon="9.2607153"><ele>130.0</ele><time>2026-04-11T15:15:03.367Z</time></trkpt><trkpt lat="45.5242157" lon="9.2605856"><ele>130.0</ele><time>2026-04-11T15:15:04.363Z</time></trkpt><trkpt lat="45.5239672" lon="9.2604759"><ele>130.0</ele><time>2026-04-11T15:15:05.368Z</time></trkpt><trkpt lat="45.5237232" lon="9.2603993"><ele>130.0</ele><time>2026-04-11T15:15:06.369Z</time></trkpt><trkpt lat="45.5234823" lon="9.2603482"><ele>130.0</ele><time>2026-04-11T15:15:07.39Z</time></trkpt><trkpt lat="45.5232506" lon="9.2603305"><ele>130.0</ele><time>2026-04-11T15:15:08.403Z</time></trkpt><trkpt lat="45.5230273" lon="9.2603359"><ele>130.0</ele><time>2026-04-11T15:15:09.391Z</time></trkpt><trkpt lat="45.5228143" lon="9.2603575"><ele>130.0</ele><time>2026-04-11T15:15:10.365Z</time></trkpt><trkpt lat="45.5226013" lon="9.2603952"><ele>129.33333333333334</ele><time>2026-04-11T15:15:11.374Z</time></trkpt><trkpt lat="45.5223931" lon="9.2604413"><ele>128.66666666666666</ele><time>2026-04-11T15:15:12.365Z</time></trkpt><trkpt lat="45.5221977" lon="9.2604928"><ele>128.0</ele><time>2026-04-11T15:15:13.391Z</time></trkpt><trkpt lat="45.522004" lon="9.2605488"><ele>129.0</ele><time>2026-04-11T15:15:14.376Z</time></trkpt><trkpt lat="45.5218107" lon="9.2606084"><ele>130.0</ele><time>2026-04-11T15:15:15.368Z</time></trkpt><trkpt lat="45.5216177" lon="9.2606667"><ele>131.0</ele><time>2026-04-11T15:15:16.378Z</time></trkpt><trkpt lat="45.5214259" lon="9.260721"><ele>130.33333333333331</ele><time>2026-04-11T15:15:17.393Z</time></trkpt><trkpt lat="45.5212288" lon="9.2607805"><ele>129.66666666666666</ele><time>2026-04-11T15:15:18.395Z</time></trkpt><trkpt lat="45.5210294" lon="9.2608417"><ele>129.0</ele><time>2026-04-11T15:15:19.39Z</time></trkpt><trkpt lat="45.5208283" lon="9.2609013"><ele>129.0</ele><time>2026-04-11T15:15:20.367Z</time></trkpt><trkpt lat="45.5206242" lon="9.2609605"><ele>129.0</ele><time>2026-04-11T15:15:21.374Z</time></trkpt><trkpt lat="45.520424" lon="9.2610077"><ele>129.0</ele><time>2026-04-11T15:15:22.368Z</time></trkpt><trkpt lat="45.5202286" lon="9.261054"><ele>129.33333333333334</ele><time>2026-04-11T15:15:23.363Z</time></trkpt><trkpt lat="45.5200393" lon="9.2610904"><ele>129.66666666666669</ele><time>2026-04-11T15:15:24.372Z</time></trkpt><trkpt lat="45.5198565" lon="9.2611258"><ele>130.0</ele><time>2026-04-11T15:15:25.371Z</time></trkpt><trkpt lat="45.5196799" lon="9.2611529"><ele>128.66666666666669</ele><time>2026-04-11T15:15:26.366Z</time></trkpt><trkpt lat="45.5194982" lon="9.2611802"><ele>127.33333333333334</ele><time>2026-04-11T15:15:27.368Z</time></trkpt><trkpt lat="45.519311" lon="9.2612093"><ele>126.0</ele><time>2026-04-11T15:15:28.374Z</time></trkpt><trkpt lat="45.5191261" lon="9.261237"><ele>126.0</ele><time>2026-04-11T15:15:29.397Z</time></trkpt><trkpt lat="45.5189482" lon="9.2612615"><ele>126.0</ele><time>2026-04-11T15:15:30.376Z</time></trkpt><trkpt lat="45.5187678" lon="9.26129"><ele>126.0</ele><time>2026-04-11T15:15:31.371Z</time></trkpt><trkpt lat="45.5185775" lon="9.2613177"><ele>126.33333333333334</ele><time>2026-04-11T15:15:32.372Z</time></trkpt><trkpt lat="45.5183733" lon="9.2613446"><ele>126.66666666666667</ele><time>2026-04-11T15:15:33.365Z</time></trkpt><trkpt lat="45.5181769" lon="9.2613655"><ele>127.0</ele><time>2026-04-11T15:15:34.391Z</time></trkpt><trkpt lat="45.5179885" lon="9.2613825"><ele>126.66666666666667</ele><time>2026-04-11T15:15:35.372Z</time></trkpt><trkpt lat="45.5178076" lon="9.2613986"><ele>126.33333333333334</ele><time>2026-04-11T15:15:36.367Z</time></trkpt><trkpt lat="45.5176352" lon="9.2614078"><ele>126.0</ele><time>2026-04-11T15:15:37.366Z</time></trkpt><trkpt lat="45.5174581" lon="9.2614167"><ele>126.0</ele><time>2026-04-11T15:15:38.37Z</time></trkpt><trkpt lat="45.5172789" lon="9.2614234"><ele>126.0</ele><time>2026-04-11T15:15:39.359Z</time></trkpt><trkpt lat="45.5170999" lon="9.2614257"><ele>126.0</ele><time>2026-04-11T15:15:40.367Z</time></trkpt><trkpt lat="45.516922" lon="9.2614224"><ele>127.0</ele><time>2026-04-11T15:15:41.369Z</time></trkpt><trkpt lat="45.5167494" lon="9.2614159"><ele>128.0</ele><time>2026-04-11T15:15:42.368Z</time></trkpt><trkpt lat="45.516578" lon="9.2614118"><ele>129.0</ele><time>2026-04-11T15:15:43.365Z</time></trkpt><trkpt lat="45.5164129" lon="9.2614038"><ele>129.0</ele><time>2026-04-11T15:15:44.362Z</time></trkpt><trkpt lat="45.5162546" lon="9.2613937"><ele>129.0</ele><time>2026-04-11T15:15:45.369Z</time></trkpt><trkpt lat="45.5161022" lon="9.261384"><ele>129.0</ele><time>2026-04-11T15:15:46.367Z</time></trkpt><trkpt lat="45.515955" lon="9.2613737"><ele>128.5</ele><time>2026-04-11T15:15:47.358Z</time></trkpt><trkpt lat="45.5158133" lon="9.2613571"><ele>128.0</ele><time>2026-04-11T15:15:48.377Z</time></trkpt><trkpt lat="45.5156801" lon="9.2613399"><ele>127.5</ele><time>2026-04-11T15:15:49.376Z</time></trkpt><trkpt lat="45.5155517" lon="9.2613242"><ele>127.0</ele><time>2026-04-11T15:15:50.356Z</time></trkpt><trkpt lat="45.5154215" lon="9.2613084"><ele>126.25</ele><time>2026-04-11T15:15:51.395Z</time></trkpt><trkpt lat="45.5152896" lon="9.2612891"><ele>125.5</ele><time>2026-04-11T15:15:52.373Z</time></trkpt><trkpt lat="45.5151614" lon="9.2612691"><ele>124.75</ele><time>2026-04-11T15:15:53.364Z</time></trkpt><trkpt lat="45.5150433" lon="9.26124"><ele>124.0</ele><time>2026-04-11T15:15:54.366Z</time></trkpt><trkpt lat="45.5149354" lon="9.2612038"><ele>124.0</ele><time>2026-04-11T15:15:55.365Z</time></trkpt><trkpt lat="45.5148338" lon="9.2611611"><ele>124.0</ele><time>2026-04-11T15:15:56.372Z</time></trkpt><trkpt lat="45.5147351" lon="9.2611146"><ele>124.0</ele><time>2026-04-11T15:15:57.361Z</time></trkpt><trkpt lat="45.5146417" lon="9.261059"><ele>124.0</ele><time>2026-04-11T15:15:58.386Z</time></trkpt><trkpt lat="45.5145565" lon="9.261004"><ele>124.0</ele><time>2026-04-11T15:15:59.381Z</time></trkpt><trkpt lat="45.5144755" lon="9.2609481"><ele>124.33333333333334</ele><time>2026-04-11T15:16:00.379Z</time></trkpt><trkpt lat="45.5144017" lon="9.2608905"><ele>124.66666666666667</ele><time>2026-04-11T15:16:01.367Z</time></trkpt><trkpt lat="45.5143304" lon="9.2608304"><ele>125.0</ele><time>2026-04-11T15:16:02.388Z</time></trkpt><trkpt lat="45.5142624" lon="9.2607697"><ele>125.33333333333334</ele><time>2026-04-11T15:16:03.39Z</time></trkpt><trkpt lat="45.5141986" lon="9.2607056"><ele>125.66666666666667</ele><time>2026-04-11T15:16:04.373Z</time></trkpt><trkpt lat="45.5141381" lon="9.2606338"><ele>126.0</ele><time>2026-04-11T15:16:05.364Z</time></trkpt><trkpt lat="45.5140733" lon="9.2605506"><ele>126.0</ele><time>2026-04-11T15:16:06.377Z</time></trkpt><trkpt lat="45.5140111" lon="9.2604562"><ele>126.0</ele><time>2026-04-11T15:16:07.358Z</time></trkpt><trkpt lat="45.5139588" lon="9.2603435"><ele>126.0</ele><time>2026-04-11T15:16:08.38Z</time></trkpt><trkpt lat="45.5139118" lon="9.2602276"><ele>126.0</ele><time>2026-04-11T15:16:09.395Z</time></trkpt><trkpt lat="45.5138765" lon="9.2601137"><ele>126.0</ele><time>2026-04-11T15:16:10.372Z</time></trkpt><trkpt lat="45.5138468" lon="9.2600005"><ele>126.0</ele><time>2026-04-11T15:16:11.371Z</time></trkpt><trkpt lat="45.5138173" lon="9.2598868"><ele>126.0</ele><time>2026-04-11T15:16:12.395Z</time></trkpt><trkpt lat="45.513785" lon="9.2597699"><ele>126.0</ele><time>2026-04-11T15:16:13.386Z</time></trkpt><trkpt lat="45.5137584" lon="9.2596483"><ele>126.0</ele><time>2026-04-11T15:16:14.372Z</time></trkpt><trkpt lat="45.5137361" lon="9.2595221"><ele>126.0</ele><time>2026-04-11T15:16:15.374Z</time></trkpt><trkpt lat="45.5137183" lon="9.2594016"><ele>126.0</ele><time>2026-04-11T15:16:16.396Z</time></trkpt><trkpt lat="45.5137005" lon="9.2592773"><ele>125.8</ele><time>2026-04-11T15:16:17.393Z</time></trkpt><trkpt lat="45.5136982" lon="9.259147"><ele>125.6</ele><time>2026-04-11T15:16:18.402Z</time></trkpt><trkpt lat="45.5137046" lon="9.2590105"><ele>125.4</ele><time>2026-04-11T15:16:19.363Z</time></trkpt><trkpt lat="45.5137779" lon="9.2588768"><ele>125.2</ele><time>2026-04-11T15:16:20.376Z</time></trkpt><trkpt lat="45.5138389" lon="9.2587104"><ele>125.0</ele><time>2026-04-11T15:16:21.366Z</time></trkpt><trkpt lat="45.5138771" lon="9.2585299"><ele>125.0</ele><time>2026-04-11T15:16:22.394Z</time></trkpt><trkpt lat="45.5138938" lon="9.2583364"><ele>125.0</ele><time>2026-04-11T15:16:23.379Z</time></trkpt><trkpt lat="45.5138855" lon="9.2581583"><ele>125.0</ele><time>2026-04-11T15:16:24.361Z</time></trkpt><trkpt lat="45.5138623" lon="9.2579992"><ele>125.0</ele><time>2026-04-11T15:16:25.369Z</time></trkpt><trkpt lat="45.5138152" lon="9.2578559"><ele>125.2</ele><time>2026-04-11T15:16:26.401Z</time></trkpt><trkpt lat="45.513748" lon="9.2577212"><ele>125.4</ele><time>2026-04-11T15:16:27.369Z</time></trkpt><trkpt lat="45.5136697" lon="9.2576163"><ele>125.6</ele><time>2026-04-11T15:16:28.368Z</time></trkpt><trkpt lat="45.5135869" lon="9.2575328"><ele>125.8</ele><time>2026-04-11T15:16:29.363Z</time></trkpt><trkpt lat="45.5135042" lon="9.2574685"><ele>126.0</ele><time>2026-04-11T15:16:30.364Z</time></trkpt><trkpt lat="45.5134264" lon="9.2574204"><ele>126.33333333333333</ele><time>2026-04-11T15:16:31.365Z</time></trkpt><trkpt lat="45.5133644" lon="9.2573844"><ele>126.66666666666666</ele><time>2026-04-11T15:16:32.366Z</time></trkpt><trkpt lat="45.5132833" lon="9.2573293"><ele>127.0</ele><time>2026-04-11T15:16:34.369Z</time></trkpt><trkpt lat="45.5132188" lon="9.257273"><ele>127.33333333333333</ele><time>2026-04-11T15:16:40.367Z</time></trkpt><trkpt lat="45.5131847" lon="9.2571972"><ele>127.66666666666666</ele><time>2026-04-11T15:16:44.379Z</time></trkpt><trkpt lat="45.5131777" lon="9.2570912"><ele>128.0</ele><time>2026-04-11T15:16:49.369Z</time></trkpt><trkpt lat="45.5131737" lon="9.2569197"><ele>127.99999999999999</ele><time>2026-04-11T15:16:51.372Z</time></trkpt><trkpt lat="45.5131162" lon="9.2567718"><ele>128.0</ele><time>2026-04-11T15:16:53.379Z</time></trkpt><trkpt lat="45.5130652" lon="9.2567178"><ele>128.0</ele><time>2026-04-11T15:16:54.367Z</time></trkpt><trkpt lat="45.5130055" lon="9.2566879"><ele>128.0</ele><time>2026-04-11T15:16:55.361Z</time></trkpt><trkpt lat="45.5129419" lon="9.2566706"><ele>127.99999999999999</ele><time>2026-04-11T15:16:56.365Z</time></trkpt><trkpt lat="45.5128373" lon="9.2566692"><ele>128.0</ele><time>2026-04-11T15:16:58.362Z</time></trkpt><trkpt lat="45.5127488" lon="9.256683"><ele>128.0</ele><time>2026-04-11T15:17:00.368Z</time></trkpt><trkpt lat="45.5126685" lon="9.2566804"><ele>128.0</ele><time>2026-04-11T15:17:03.362Z</time></trkpt><trkpt lat="45.5125996" lon="9.2566659"><ele>128.0</ele><time>2026-04-11T15:17:05.368Z</time></trkpt><trkpt lat="45.512486" lon="9.256581"><ele>128.0</ele><time>2026-04-11T15:17:07.364Z</time></trkpt><trkpt lat="45.5123901" lon="9.2565182"><ele>128.0</ele><time>2026-04-11T15:17:08.373Z</time></trkpt><trkpt lat="45.5122923" lon="9.2564558"><ele>128.0</ele><time>2026-04-11T15:17:09.362Z</time></trkpt><trkpt lat="45.512197" lon="9.2563914"><ele>128.0</ele><time>2026-04-11T15:17:10.373Z</time></trkpt><trkpt lat="45.5121044" lon="9.256316"><ele>128.0</ele><time>2026-04-11T15:17:11.361Z</time></trkpt><trkpt lat="45.5120128" lon="9.2562352"><ele>128.0</ele><time>2026-04-11T15:17:12.364Z</time></trkpt><trkpt lat="45.5119319" lon="9.2561507"><ele>128.0</ele><time>2026-04-11T15:17:13.367Z</time></trkpt><trkpt lat="45.5118591" lon="9.2560637"><ele>127.99999999999999</ele><time>2026-04-11T15:17:14.374Z</time></trkpt><trkpt lat="45.5117922" lon="9.2559783"><ele>128.0</ele><time>2026-04-11T15:17:15.382Z</time></trkpt><trkpt lat="45.5117328" lon="9.255898"><ele>128.0</ele><time>2026-04-11T15:17:16.374Z</time></trkpt><trkpt lat="45.511679" lon="9.2558208"><ele>128.0</ele><time>2026-04-11T15:17:17.372Z</time></trkpt><trkpt lat="45.5116325" lon="9.2557408"><ele>127.99999999999999</ele><time>2026-04-11T15:17:18.383Z</time></trkpt><trkpt lat="45.5115895" lon="9.2556699"><ele>128.0</ele><time>2026-04-11T15:17:19.365Z</time></trkpt><trkpt lat="45.5115085" lon="9.2555519"><ele>128.4</ele><time>2026-04-11T15:17:21.358Z</time></trkpt><trkpt lat="45.5114454" lon="9.2554452"><ele>128.8</ele><time>2026-04-11T15:17:23.365Z</time></trkpt><trkpt lat="45.5113946" lon="9.2552882"><ele>129.2</ele><time>2026-04-11T15:17:25.364Z</time></trkpt><trkpt lat="45.5113427" lon="9.2551829"><ele>129.6</ele><time>2026-04-11T15:17:27.371Z</time></trkpt><trkpt lat="45.5112565" lon="9.2551855"><ele>130.0</ele><time>2026-04-11T15:17:30.374Z</time></trkpt><trkpt lat="45.5112015" lon="9.2552787"><ele>130.0</ele><time>2026-04-11T15:17:33.364Z</time></trkpt><trkpt lat="45.5112161" lon="9.2553806"><ele>130.0</ele><time>2026-04-11T15:17:35.375Z</time></trkpt><trkpt lat="45.5112896" lon="9.2554457"><ele>130.0</ele><time>2026-04-11T15:17:38.379Z</time></trkpt><trkpt lat="45.511349" lon="9.2554918"><ele>130.0</ele><time>2026-04-11T15:17:43.368Z</time></trkpt><trkpt lat="45.5114157" lon="9.255592"><ele>130.0</ele><time>2026-04-11T15:17:46.383Z</time></trkpt><trkpt lat="45.5114648" lon="9.2556579"><ele>130.0</ele><time>2026-04-11T15:17:47.373Z</time></trkpt><trkpt lat="45.5115447" lon="9.2557664"><ele>129.66666666666669</ele><time>2026-04-11T15:17:49.375Z</time></trkpt><trkpt lat="45.5115953" lon="9.2558283"><ele>129.33333333333334</ele><time>2026-04-11T15:17:51.369Z</time></trkpt><trkpt lat="45.5116637" lon="9.2559164"><ele>129.0</ele><time>2026-04-11T15:17:54.397Z</time></trkpt><trkpt lat="45.5117296" lon="9.2559918"><ele>128.66666666666666</ele><time>2026-04-11T15:17:58.366Z</time></trkpt><trkpt lat="45.5117876" lon="9.256067"><ele>128.33333333333331</ele><time>2026-04-11T15:18:00.369Z</time></trkpt><trkpt lat="45.5118472" lon="9.2561302"><ele>128.0</ele><time>2026-04-11T15:18:03.391Z</time></trkpt><trkpt lat="45.5119195" lon="9.2561833"><ele>128.0</ele><time>2026-04-11T15:18:07.37Z</time></trkpt><trkpt lat="45.5120145" lon="9.2562756"><ele>128.0</ele><time>2026-04-11T15:18:09.368Z</time></trkpt><trkpt lat="45.512111" lon="9.2563664"><ele>128.0</ele><time>2026-04-11T15:18:11.361Z</time></trkpt><trkpt lat="45.5122092" lon="9.2564462"><ele>128.0</ele><time>2026-04-11T15:18:13.372Z</time></trkpt><trkpt lat="45.5122849" lon="9.2565029"><ele>128.0</ele><time>2026-04-11T15:18:15.368Z</time></trkpt><trkpt lat="45.5123735" lon="9.2565636"><ele>128.0</ele><time>2026-04-11T15:18:17.37Z</time></trkpt><trkpt lat="45.5124579" lon="9.2566291"><ele>128.0</ele><time>2026-04-11T15:18:19.365Z</time></trkpt><trkpt lat="45.5125553" lon="9.256708"><ele>128.0</ele><time>2026-04-11T15:18:21.36Z</time></trkpt><trkpt lat="45.5126494" lon="9.2567815"><ele>128.0</ele><time>2026-04-11T15:18:23.361Z</time></trkpt><trkpt lat="45.5127102" lon="9.2568407"><ele>128.0</ele><time>2026-04-11T15:18:26.376Z</time></trkpt><trkpt lat="45.5127765" lon="9.2569258"><ele>127.99999999999999</ele><time>2026-04-11T15:18:53.382Z</time></trkpt><trkpt lat="45.5128226" lon="9.2569951"><ele>128.0</ele><time>2026-04-11T15:18:55.371Z</time></trkpt><trkpt lat="45.5128671" lon="9.2571"><ele>128.0</ele><time>2026-04-11T15:18:57.389Z</time></trkpt><trkpt lat="45.5128764" lon="9.2572395"><ele>128.0</ele><time>2026-04-11T15:18:59.372Z</time></trkpt><trkpt lat="45.5128447" lon="9.25739"><ele>127.99999999999999</ele><time>2026-04-11T15:19:01.376Z</time></trkpt><trkpt lat="45.5128064" lon="9.2574732"><ele>128.0</ele><time>2026-04-11T15:19:02.362Z</time></trkpt><trkpt lat="45.5127745" lon="9.2575546"><ele>128.4</ele><time>2026-04-11T15:19:03.363Z</time></trkpt><trkpt lat="45.5127371" lon="9.2576476"><ele>128.8</ele><time>2026-04-11T15:19:04.37Z</time></trkpt><trkpt lat="45.5127022" lon="9.2577342"><ele>129.2</ele><time>2026-04-11T15:19:05.364Z</time></trkpt><trkpt lat="45.5126462" lon="9.2578601"><ele>129.6</ele><time>2026-04-11T15:19:07.371Z</time></trkpt><trkpt lat="45.5125719" lon="9.2579506"><ele>130.0</ele><time>2026-04-11T15:19:09.362Z</time></trkpt><trkpt lat="45.5124561" lon="9.2580377"><ele>130.0</ele><time>2026-04-11T15:19:11.381Z</time></trkpt><trkpt lat="45.5123968" lon="9.2580694"><ele>130.0</ele><time>2026-04-11T15:19:12.369Z</time></trkpt><trkpt lat="45.512305" lon="9.2581158"><ele>130.0</ele><time>2026-04-11T15:19:14.376Z</time></trkpt><trkpt lat="45.5122354" lon="9.2581384"><ele>130.0</ele><time>2026-04-11T15:19:16.37Z</time></trkpt><trkpt lat="45.5121687" lon="9.2581739"><ele>130.0</ele><time>2026-04-11T15:19:19.371Z</time></trkpt><trkpt lat="45.5121014" lon="9.2582225"><ele>130.0</ele><time>2026-04-11T15:19:32.363Z</time></trkpt><trkpt lat="45.5120352" lon="9.2582611"><ele>129.25</ele><time>2026-04-11T15:19:33.364Z</time></trkpt><trkpt lat="45.5119558" lon="9.258303"><ele>128.5</ele><time>2026-04-11T15:19:34.366Z</time></trkpt><trkpt lat="45.5118458" lon="9.2583537"><ele>127.75</ele><time>2026-04-11T15:19:35.361Z</time></trkpt><trkpt lat="45.5117093" lon="9.2584019"><ele>127.0</ele><time>2026-04-11T15:19:36.362Z</time></trkpt><trkpt lat="45.5115663" lon="9.2584482"><ele>127.0</ele><time>2026-04-11T15:19:37.371Z</time></trkpt><trkpt lat="45.5114174" lon="9.2584927"><ele>127.0</ele><time>2026-04-11T15:19:38.359Z</time></trkpt><trkpt lat="45.5112668" lon="9.2585382"><ele>127.0</ele><time>2026-04-11T15:19:39.374Z</time></trkpt><trkpt lat="45.5111268" lon="9.2585835"><ele>128.0</ele><time>2026-04-11T15:19:40.361Z</time></trkpt><trkpt lat="45.5109897" lon="9.258625"><ele>129.0</ele><time>2026-04-11T15:19:41.368Z</time></trkpt><trkpt lat="45.5108579" lon="9.2586559"><ele>130.0</ele><time>2026-04-11T15:19:42.37Z</time></trkpt><trkpt lat="45.5107219" lon="9.2586715"><ele>131.0</ele><time>2026-04-11T15:19:43.367Z</time></trkpt><trkpt lat="45.5105862" lon="9.2586585"><ele>131.0</ele><time>2026-04-11T15:19:44.359Z</time></trkpt><trkpt lat="45.5104547" lon="9.2586218"><ele>131.0</ele><time>2026-04-11T15:19:45.371Z</time></trkpt><trkpt lat="45.5103317" lon="9.2585666"><ele>131.0</ele><time>2026-04-11T15:19:46.368Z</time></trkpt><trkpt lat="45.5102319" lon="9.2584823"><ele>131.0</ele><time>2026-04-11T15:19:47.363Z</time></trkpt><trkpt lat="45.510139" lon="9.2583617"><ele>129.0</ele><time>2026-04-11T15:19:48.366Z</time></trkpt><trkpt lat="45.5100419" lon="9.2582117"><ele>127.0</ele><time>2026-04-11T15:19:49.373Z</time></trkpt><trkpt lat="45.5099513" lon="9.2580365"><ele>125.0</ele><time>2026-04-11T15:19:50.362Z</time></trkpt><trkpt lat="45.5098673" lon="9.2578502"><ele>125.0</ele><time>2026-04-11T15:19:51.368Z</time></trkpt><trkpt lat="45.5097896" lon="9.2576529"><ele>125.0</ele><time>2026-04-11T15:19:52.361Z</time></trkpt><trkpt lat="45.5097093" lon="9.2574562"><ele>125.0</ele><time>2026-04-11T15:19:53.367Z</time></trkpt><trkpt lat="45.5096346" lon="9.2572548"><ele>125.33333333333333</ele><time>2026-04-11T15:19:54.366Z</time></trkpt><trkpt lat="45.5095542" lon="9.2570493"><ele>125.66666666666666</ele><time>2026-04-11T15:19:55.366Z</time></trkpt><trkpt lat="45.5094731" lon="9.2568604"><ele>126.0</ele><time>2026-04-11T15:19:56.365Z</time></trkpt><trkpt lat="45.5093884" lon="9.256678"><ele>126.0</ele><time>2026-04-11T15:19:57.372Z</time></trkpt><trkpt lat="45.5093023" lon="9.2565055"><ele>126.0</ele><time>2026-04-11T15:19:58.36Z</time></trkpt><trkpt lat="45.5092152" lon="9.2563421"><ele>126.0</ele><time>2026-04-11T15:19:59.361Z</time></trkpt><trkpt lat="45.5091232" lon="9.2561868"><ele>126.0</ele><time>2026-04-11T15:20:00.361Z</time></trkpt><trkpt lat="45.509032" lon="9.2560362"><ele>126.0</ele><time>2026-04-11T15:20:01.365Z</time></trkpt><trkpt lat="45.5089438" lon="9.2559016"><ele>126.0</ele><time>2026-04-11T15:20:02.362Z</time></trkpt><trkpt lat="45.508855" lon="9.2557759"><ele>126.0</ele><time>2026-04-11T15:20:03.375Z</time></trkpt><trkpt lat="45.5087715" lon="9.2556611"><ele>126.0</ele><time>2026-04-11T15:20:04.369Z</time></trkpt><trkpt lat="45.5086969" lon="9.2555608"><ele>126.0</ele><time>2026-04-11T15:20:05.371Z</time></trkpt><trkpt lat="45.5086377" lon="9.2554709"><ele>126.0</ele><time>2026-04-11T15:20:06.375Z</time></trkpt><trkpt lat="45.5086049" lon="9.255368"><ele>126.0</ele><time>2026-04-11T15:20:07.368Z</time></trkpt><trkpt lat="45.5085995" lon="9.2552498"><ele>126.0</ele><time>2026-04-11T15:20:08.361Z</time></trkpt><trkpt lat="45.5086327" lon="9.2551342"><ele>126.0</ele><time>2026-04-11T15:20:09.369Z</time></trkpt><trkpt lat="45.5086797" lon="9.2550398"><ele>126.0</ele><time>2026-04-11T15:20:10.372Z</time></trkpt><trkpt lat="45.508726" lon="9.2549585"><ele>126.0</ele><time>2026-04-11T15:20:11.367Z</time></trkpt><trkpt lat="45.5087979" lon="9.2548497"><ele>126.0</ele><time>2026-04-11T15:20:13.379Z</time></trkpt><trkpt lat="45.5087817" lon="9.2547483"><ele>126.0</ele><time>2026-04-11T15:20:16.358Z</time></trkpt><trkpt lat="45.5087386" lon="9.2546402"><ele>126.0</ele><time>2026-04-11T15:21:16.356Z</time></trkpt><trkpt lat="45.5086709" lon="9.2545834"><ele>126.0</ele><time>2026-04-11T15:21:18.362Z</time></trkpt><trkpt lat="45.5086152" lon="9.2545056"><ele>126.0</ele><time>2026-04-11T15:21:20.364Z</time></trkpt><trkpt lat="45.5085845" lon="9.2544235"><ele>126.0</ele><time>2026-04-11T15:21:22.371Z</time></trkpt><trkpt lat="45.5086173" lon="9.2543259"><ele>126.0</ele><time>2026-04-11T15:21:25.368Z</time></trkpt><trkpt lat="45.5086499" lon="9.2542325"><ele>126.0</ele><time>2026-04-11T15:21:27.372Z</time></trkpt><trkpt lat="45.5087305" lon="9.2542032"><ele>126.0</ele><time>2026-04-11T15:35:13.406Z</time></trkpt><trkpt lat="45.5087843" lon="9.2542563"><ele>126.0</ele><time>2026-04-11T15:35:17.546Z</time></trkpt><trkpt lat="45.5087142" lon="9.2542945"><ele>126.0</ele><time>2026-04-11T15:35:30.358Z</time></trkpt><trkpt lat="45.50867" lon="9.2543688"><ele>126.0</ele><time>2026-04-11T15:35:33.241Z</time></trkpt><trkpt lat="45.5086092" lon="9.2544133"><ele>126.42857142857143</ele><time>2026-04-11T15:35:37.124Z</time></trkpt><trkpt lat="45.5085395" lon="9.2544707"><ele>126.85714285714286</ele><time>2026-04-11T15:35:40.367Z</time></trkpt><trkpt lat="45.5084806" lon="9.254408"><ele>127.28571428571428</ele><time>2026-04-11T15:35:48.365Z</time></trkpt><trkpt lat="45.5084265" lon="9.2543619"><ele>127.71428571428571</ele><time>2026-04-11T15:35:54.364Z</time></trkpt><trkpt lat="45.5083523" lon="9.2543692"><ele>128.14285714285714</ele><time>2026-04-11T15:36:00.362Z</time></trkpt><trkpt lat="45.5082882" lon="9.2544026"><ele>128.57142857142856</ele><time>2026-04-11T15:36:05.461Z</time></trkpt><trkpt lat="45.508222" lon="9.2544075"><ele>129.0</ele><time>2026-04-11T15:36:11.17Z</time></trkpt><trkpt lat="45.5081757" lon="9.2543461"><ele>128.99999999999997</ele><time>2026-04-11T15:36:15.904Z</time></trkpt><trkpt lat="45.5081294" lon="9.2542753"><ele>129.0</ele><time>2026-04-11T15:36:20.67Z</time></trkpt><trkpt lat="45.5080875" lon="9.2542059"><ele>129.0</ele><time>2026-04-11T15:36:25.376Z</time></trkpt><trkpt lat="45.5080443" lon="9.2541237"><ele>129.0</ele><time>2026-04-11T15:36:31.316Z</time></trkpt><trkpt lat="45.5079976" lon="9.2540564"><ele>129.0</ele><time>2026-04-11T15:36:36.088Z</time></trkpt><trkpt lat="45.507935" lon="9.2539931"><ele>128.99999999999997</ele><time>2026-04-11T15:36:42.342Z</time></trkpt><trkpt lat="45.5078879" lon="9.2539316"><ele>129.0</ele><time>2026-04-11T15:36:47.359Z</time></trkpt><trkpt lat="45.5078376" lon="9.2538727"><ele>129.57142857142856</ele><time>2026-04-11T15:36:52.087Z</time></trkpt><trkpt lat="45.507782" lon="9.2538239"><ele>130.14285714285714</ele><time>2026-04-11T15:36:57.361Z</time></trkpt><trkpt lat="45.5077315" lon="9.2537673"><ele>130.71428571428572</ele><time>2026-04-11T15:37:02.398Z</time></trkpt><trkpt lat="45.5076847" lon="9.2536977"><ele>131.28571428571428</ele><time>2026-04-11T15:37:07.023Z</time></trkpt><trkpt lat="45.5076492" lon="9.2536232"><ele>131.85714285714286</ele><time>2026-04-11T15:37:11.36Z</time></trkpt><trkpt lat="45.50763" lon="9.2535232"><ele>132.42857142857142</ele><time>2026-04-11T15:37:16.375Z</time></trkpt><trkpt lat="45.5075741" lon="9.2534724"><ele>133.0</ele><time>2026-04-11T15:37:23.368Z</time></trkpt><trkpt lat="45.5075123" lon="9.2534961"><ele>133.0</ele><time>2026-04-11T15:37:28.204Z</time></trkpt><trkpt lat="45.5074501" lon="9.2534529"><ele>133.0</ele><time>2026-04-11T15:37:42.166Z</time></trkpt><trkpt lat="45.507421" lon="9.2533591"><ele>133.0</ele><time>2026-04-11T15:37:48.369Z</time></trkpt><trkpt lat="45.5073745" lon="9.2532956"><ele>133.0</ele><time>2026-04-11T15:37:53.38Z</time></trkpt><trkpt lat="45.5074257" lon="9.2532368"><ele>133.0</ele><time>2026-04-11T15:37:58.373Z</time></trkpt><trkpt lat="45.5074744" lon="9.2531721"><ele>133.0</ele><time>2026-04-11T15:38:02.32Z</time></trkpt><trkpt lat="45.50748" lon="9.2530458"><ele>133.0</ele><time>2026-04-11T15:38:09.069Z</time></trkpt><trkpt lat="45.5074301" lon="9.2529529"><ele>130.0</ele><time>2026-04-11T15:38:16.396Z</time></trkpt><trkpt lat="45.5073737" lon="9.2529938"><ele>130.0</ele><time>2026-04-11T15:38:21.283Z</time></trkpt><trkpt lat="45.5073219" lon="9.2530512"><ele>130.0</ele><time>2026-04-11T15:38:30.367Z</time></trkpt></trkseg></trk></gpx>